<?xml version='1.0' encoding='UTF-8'?><gpx version="1.1" creator="JPX - https://github.com/jenetics/jpx" xmlns="http://www.topografix.com/GPX/1/1"><trk><trkseg><trkpt lat="41.37318315822953" lon="2.1769451112817815"><ele>4.0</ele><time>2026-04-19T10:58:26.998Z</time></trkpt><trkpt lat="41.37322160215186" lon="2.176867819507009"><ele>4.0</ele><time>2026-04-19T10:58:27.998Z</time></trkpt><trkpt lat="41.37327043346462" lon="2.176798240262354"><ele>4.0</ele><time>2026-04-19T10:58:29.998Z</time></trkpt><trkpt lat="41.37342509287704" lon="2.1767541608667917"><ele>4.0</ele><time>2026-04-19T10:59:33.996Z</time></trkpt><trkpt lat="41.37350249208198" lon="2.17680074025966"><ele>4.0</ele><time>2026-04-19T10:59:34.996Z</time></trkpt><trkpt lat="41.37359625247988" lon="2.1768478972048038"><ele>3.9999999999999996</ele><time>2026-04-19T10:59:35.996Z</time></trkpt><trkpt lat="41.37368051480598" lon="2.1768538045945425"><ele>4.0</ele><time>2026-04-19T10:59:36.996Z</time></trkpt><trkpt lat="41.373773650302276" lon="2.1768793444445196"><ele>4.0</ele><time>2026-04-19T10:59:38.996Z</time></trkpt><trkpt lat="41.37386793764998" lon="2.1768883679840965"><ele>4.0</ele><time>2026-04-19T10:59:50.996Z</time></trkpt><trkpt lat="41.3739418749771" lon="2.1768800867108244"><ele>3.9999999999999996</ele><time>2026-04-19T10:59:51.997Z</time></trkpt><trkpt lat="41.37402628810266" lon="2.1768620795386373"><ele>4.0</ele><time>2026-04-19T10:59:52.997Z</time></trkpt><trkpt lat="41.37412345063318" lon="2.176810581422823"><ele>4.4</ele><time>2026-04-19T10:59:53.997Z</time></trkpt><trkpt lat="41.37422334973542" lon="2.17673030246942"><ele>4.800000000000001</ele><time>2026-04-19T10:59:54.997Z</time></trkpt><trkpt lat="41.374302969969904" lon="2.1766353131018628"><ele>5.199999999999999</ele><time>2026-04-19T10:59:55.997Z</time></trkpt><trkpt lat="41.374357089134165" lon="2.1765554589307303"><ele>5.6</ele><time>2026-04-19T10:59:56.997Z</time></trkpt><trkpt lat="41.37439334648573" lon="2.1764786812218455"><ele>6.0</ele><time>2026-04-19T10:59:57.998Z</time></trkpt><trkpt lat="41.3744179275116" lon="2.1763384242728496"><ele>6.0</ele><time>2026-04-19T10:59:59.998Z</time></trkpt><trkpt lat="41.374431850516125" lon="2.176176998694551"><ele>6.0</ele><time>2026-04-19T11:00:01.998Z</time></trkpt><trkpt lat="41.37442611061983" lon="2.1760876695981337"><ele>6.0</ele><time>2026-04-19T11:00:02.998Z</time></trkpt><trkpt lat="41.37439591384328" lon="2.1759360165734947"><ele>6.0</ele><time>2026-04-19T11:00:04.998Z</time></trkpt><trkpt lat="41.37437586638111" lon="2.175847988698534"><ele>6.0</ele><time>2026-04-19T11:00:05.998Z</time></trkpt><trkpt lat="41.374475046914846" lon="2.1756470853387264"><ele>7.199999999999999</ele><time>2026-04-19T11:00:07.998Z</time></trkpt><trkpt lat="41.37451645838421" lon="2.175561661176153"><ele>8.399999999999999</ele><time>2026-04-19T11:00:08.998Z</time></trkpt><trkpt lat="41.3745783325683" lon="2.1754849103194998"><ele>9.6</ele><time>2026-04-19T11:00:09.999Z</time></trkpt><trkpt lat="41.37465118720856" lon="2.1753694569410116"><ele>10.799999999999999</ele><time>2026-04-19T11:00:10.999Z</time></trkpt><trkpt lat="41.37468885366913" lon="2.1752452061076375"><ele>12.0</ele><time>2026-04-19T11:00:11.999Z</time></trkpt><trkpt lat="41.37470449386503" lon="2.175144575962068"><ele>12.399999999999999</ele><time>2026-04-19T11:00:12.999Z</time></trkpt><trkpt lat="41.37470755098919" lon="2.1750049458256737"><ele>12.799999999999999</ele><time>2026-04-19T11:00:14.999Z</time></trkpt><trkpt lat="41.374697477034125" lon="2.1748855430737715"><ele>13.2</ele><time>2026-04-19T11:00:48.999Z</time></trkpt><trkpt lat="41.3747146051415" lon="2.1747500632669414"><ele>13.6</ele><time>2026-04-19T11:00:49.999Z</time></trkpt><trkpt lat="41.37471792696021" lon="2.1745830651546196"><ele>14.0</ele><time>2026-04-19T11:00:50.999Z</time></trkpt><trkpt lat="41.37471624276787" lon="2.1743167625007667"><ele>14.0</ele><time>2026-04-19T11:00:51.999Z</time></trkpt><trkpt lat="41.3747280105512" lon="2.17406798637596"><ele>14.0</ele><time>2026-04-19T11:00:52.999Z</time></trkpt><trkpt lat="41.37474960858583" lon="2.1738036253352724"><ele>14.0</ele><time>2026-04-19T11:00:53.999Z</time></trkpt><trkpt lat="41.37476346022305" lon="2.1735611758742275"><ele>13.5</ele><time>2026-04-19T11:00:54.999Z</time></trkpt><trkpt lat="41.37477897892369" lon="2.173368062915687"><ele>13.0</ele><time>2026-04-19T11:00:55.999Z</time></trkpt><trkpt lat="41.37478957102838" lon="2.1731850672709356"><ele>12.5</ele><time>2026-04-19T11:00:56.999Z</time></trkpt><trkpt lat="41.37480091147525" lon="2.172986968956419"><ele>12.0</ele><time>2026-04-19T11:00:57.999Z</time></trkpt><trkpt lat="41.37480501573381" lon="2.1727862148924055"><ele>13.0</ele><time>2026-04-19T11:00:58.999Z</time></trkpt><trkpt lat="41.37481982483119" lon="2.1726013660646832"><ele>14.0</ele><time>2026-04-19T11:00:59.999Z</time></trkpt><trkpt lat="41.37482938043982" lon="2.172426117808635"><ele>15.0</ele><time>2026-04-19T11:01:00.999Z</time></trkpt><trkpt lat="41.374844199833" lon="2.1722435376450027"><ele>16.0</ele><time>2026-04-19T11:01:01.999Z</time></trkpt><trkpt lat="41.374852070982406" lon="2.1720735483720537"><ele>16.0</ele><time>2026-04-19T11:01:02.999Z</time></trkpt><trkpt lat="41.374872903347985" lon="2.171898679289235"><ele>16.0</ele><time>2026-04-19T11:01:03.999Z</time></trkpt><trkpt lat="41.37489033035047" lon="2.171712858338222"><ele>16.0</ele><time>2026-04-19T11:01:04.999Z</time></trkpt><trkpt lat="41.374898615932125" lon="2.1715298916960903"><ele>16.0</ele><time>2026-04-19T11:01:05.999Z</time></trkpt><trkpt lat="41.374913871743345" lon="2.171370724782283"><ele>15.999999999999998</ele><time>2026-04-19T11:01:06.999Z</time></trkpt><trkpt lat="41.37492483909614" lon="2.171237017075181"><ele>16.0</ele><time>2026-04-19T11:01:07.999Z</time></trkpt><trkpt lat="41.37492563858487" lon="2.1711169130934866"><ele>16.0</ele><time>2026-04-19T11:01:08.999Z</time></trkpt><trkpt lat="41.37493543762686" lon="2.1710077482201244"><ele>16.0</ele><time>2026-04-19T11:01:09.999Z</time></trkpt><trkpt lat="41.37494792215641" lon="2.170911075776891"><ele>15.999999999999998</ele><time>2026-04-19T11:01:10.999Z</time></trkpt><trkpt lat="41.374961081540974" lon="2.1708146533571075"><ele>16.0</ele><time>2026-04-19T11:01:11.999Z</time></trkpt><trkpt lat="41.37497601646649" lon="2.1706777991751594"><ele>15.999999999999998</ele><time>2026-04-19T11:01:13.999Z</time></trkpt><trkpt lat="41.37497792768697" lon="2.1705739409925418"><ele>16.0</ele><time>2026-04-19T11:01:16.999Z</time></trkpt><trkpt lat="41.37498062247437" lon="2.170444469373609"><ele>16.0</ele><time>2026-04-19T11:01:53.998Z</time></trkpt><trkpt lat="41.374986945576076" lon="2.1703320573548495"><ele>16.0</ele><time>2026-04-19T11:01:54.998Z</time></trkpt><trkpt lat="41.37499574579542" lon="2.170218768448092"><ele>15.999999999999998</ele><time>2026-04-19T11:01:55.998Z</time></trkpt><trkpt lat="41.374998202554465" lon="2.1701072823619754"><ele>16.0</ele><time>2026-04-19T11:01:56.998Z</time></trkpt><trkpt lat="41.37500813227804" lon="2.1699863292922252"><ele>17.75</ele><time>2026-04-19T11:01:57.998Z</time></trkpt><trkpt lat="41.37500705124887" lon="2.169827343151275"><ele>19.5</ele><time>2026-04-19T11:01:58.998Z</time></trkpt><trkpt lat="41.375005368437435" lon="2.1696640464798818"><ele>21.25</ele><time>2026-04-19T11:01:59.998Z</time></trkpt><trkpt lat="41.37500452021085" lon="2.1695156182771274"><ele>23.0</ele><time>2026-04-19T11:02:00.998Z</time></trkpt><trkpt lat="41.37500717517475" lon="2.169354192603766"><ele>23.0</ele><time>2026-04-19T11:02:01.998Z</time></trkpt><trkpt lat="41.375008942921795" lon="2.1691876237194823"><ele>23.0</ele><time>2026-04-19T11:02:02.998Z</time></trkpt><trkpt lat="41.37501250465378" lon="2.1690282471539235"><ele>23.0</ele><time>2026-04-19T11:02:03.998Z</time></trkpt><trkpt lat="41.37500809929652" lon="2.168886774726248"><ele>23.0</ele><time>2026-04-19T11:02:04.998Z</time></trkpt><trkpt lat="41.37500727675178" lon="2.1687601612867953"><ele>23.0</ele><time>2026-04-19T11:02:05.998Z</time></trkpt><trkpt lat="41.37501333822729" lon="2.168642494413957"><ele>23.75</ele><time>2026-04-19T11:02:06.998Z</time></trkpt><trkpt lat="41.37501447653704" lon="2.1685301938754993"><ele>24.5</ele><time>2026-04-19T11:02:07.998Z</time></trkpt><trkpt lat="41.37502150174762" lon="2.1683754165598743"><ele>25.25</ele><time>2026-04-19T11:02:08.999Z</time></trkpt><trkpt lat="41.37502367335302" lon="2.168197104312536"><ele>26.0</ele><time>2026-04-19T11:02:09.999Z</time></trkpt><trkpt lat="41.37502559977904" lon="2.168023860099218"><ele>26.0</ele><time>2026-04-19T11:02:10.999Z</time></trkpt><trkpt lat="41.37502942781026" lon="2.167868064993646"><ele>26.0</ele><time>2026-04-19T11:02:11.999Z</time></trkpt><trkpt lat="41.375028852443506" lon="2.1677137399954702"><ele>26.0</ele><time>2026-04-19T11:02:12.999Z</time></trkpt><trkpt lat="41.37503032633339" lon="2.1675503129804246"><ele>26.0</ele><time>2026-04-19T11:02:13.999Z</time></trkpt><trkpt lat="41.37503324916423" lon="2.1673949933796224"><ele>26.25</ele><time>2026-04-19T11:02:14.999Z</time></trkpt><trkpt lat="41.375029905533026" lon="2.167246350471281"><ele>26.5</ele><time>2026-04-19T11:02:15.999Z</time></trkpt><trkpt lat="41.37503677026649" lon="2.167084261257053"><ele>26.75</ele><time>2026-04-19T11:02:16.999Z</time></trkpt><trkpt lat="41.37502749540039" lon="2.16691865553252"><ele>27.0</ele><time>2026-04-19T11:02:17.999Z</time></trkpt><trkpt lat="41.37502733534687" lon="2.166763763580579"><ele>27.0</ele><time>2026-04-19T11:02:18.999Z</time></trkpt><trkpt lat="41.37502755763466" lon="2.16660870424956"><ele>27.0</ele><time>2026-04-19T11:02:19.999Z</time></trkpt><trkpt lat="41.37502391897096" lon="2.166456432050439"><ele>27.0</ele><time>2026-04-19T11:02:20.999Z</time></trkpt><trkpt lat="41.375019582689376" lon="2.1663024455943227"><ele>27.0</ele><time>2026-04-19T11:02:21.999Z</time></trkpt><trkpt lat="41.37502702370341" lon="2.1661600170615447"><ele>26.6</ele><time>2026-04-19T11:02:22.999Z</time></trkpt><trkpt lat="41.37502642485521" lon="2.1660410884074275"><ele>26.200000000000003</ele><time>2026-04-19T11:02:23.999Z</time></trkpt><trkpt lat="41.37502479717243" lon="2.165942997625783"><ele>25.8</ele><time>2026-04-19T11:02:24.999Z</time></trkpt><trkpt lat="41.3750182624645" lon="2.1658215836010344"><ele>25.4</ele><time>2026-04-19T11:02:26.999Z</time></trkpt><trkpt lat="41.37500833331853" lon="2.1656369891321456"><ele>25.0</ele><time>2026-04-19T11:02:57.999Z</time></trkpt><trkpt lat="41.37500496252578" lon="2.1655257535889345"><ele>25.0</ele><time>2026-04-19T11:02:58.999Z</time></trkpt><trkpt lat="41.37500334165962" lon="2.1653924348061966"><ele>25.0</ele><time>2026-04-19T11:02:59.999Z</time></trkpt><trkpt lat="41.37500582557054" lon="2.1652395647966194"><ele>25.0</ele><time>2026-04-19T11:03:00.999Z</time></trkpt><trkpt lat="41.37499880403191" lon="2.165081286636003"><ele>25.0</ele><time>2026-04-19T11:03:01.999Z</time></trkpt><trkpt lat="41.37500178944047" lon="2.1649006582457977"><ele>26.333333333333336</ele><time>2026-04-19T11:03:02.999Z</time></trkpt><trkpt lat="41.37501296301268" lon="2.164691073421915"><ele>27.666666666666664</ele><time>2026-04-19T11:03:03.999Z</time></trkpt><trkpt lat="41.37502847494042" lon="2.1644639338878817"><ele>29.0</ele><time>2026-04-19T11:03:04.999Z</time></trkpt><trkpt lat="41.37503176936176" lon="2.164263352407312"><ele>29.0</ele><time>2026-04-19T11:03:05.999Z</time></trkpt><trkpt lat="41.37503160034282" lon="2.164072699751646"><ele>29.0</ele><time>2026-04-19T11:03:06.999Z</time></trkpt><trkpt lat="41.37503094214157" lon="2.163881092770841"><ele>29.0</ele><time>2026-04-19T11:03:07.999Z</time></trkpt><trkpt lat="41.37502766020286" lon="2.1636881069096194"><ele>29.0</ele><time>2026-04-19T11:03:08.999Z</time></trkpt><trkpt lat="41.37503373565593" lon="2.163492469682648"><ele>29.25</ele><time>2026-04-19T11:03:09.999Z</time></trkpt><trkpt lat="41.37503384440344" lon="2.1633014880252417"><ele>29.5</ele><time>2026-04-19T11:03:10.999Z</time></trkpt><trkpt lat="41.375036333882406" lon="2.1631134424837404"><ele>29.75</ele><time>2026-04-19T11:03:11.999Z</time></trkpt><trkpt lat="41.37503726477647" lon="2.162927810494121"><ele>30.0</ele><time>2026-04-19T11:03:12.999Z</time></trkpt><trkpt lat="41.37503648745571" lon="2.162741549372413"><ele>30.25</ele><time>2026-04-19T11:03:13.999Z</time></trkpt><trkpt lat="41.375031094259384" lon="2.1625607570642393"><ele>30.5</ele><time>2026-04-19T11:03:14.999Z</time></trkpt><trkpt lat="41.37502961092607" lon="2.1623855292799807"><ele>30.75</ele><time>2026-04-19T11:03:15.999Z</time></trkpt><trkpt lat="41.375029101401694" lon="2.1622223701601135"><ele>31.0</ele><time>2026-04-19T11:03:16.999Z</time></trkpt><trkpt lat="41.37502994579125" lon="2.1620734120243332"><ele>31.000000000000004</ele><time>2026-04-19T11:03:17.999Z</time></trkpt><trkpt lat="41.37503136167743" lon="2.16194975057263"><ele>31.0</ele><time>2026-04-19T11:03:18.999Z</time></trkpt><trkpt lat="41.375031243975535" lon="2.1618646020568377"><ele>31.0</ele><time>2026-04-19T11:03:19.999Z</time></trkpt><trkpt lat="41.37503465912875" lon="2.161772547708811"><ele>31.0</ele><time>2026-04-19T11:03:21.999Z</time></trkpt><trkpt lat="41.37499940238251" lon="2.1616702688847527"><ele>31.000000000000004</ele><time>2026-04-19T11:04:04.998Z</time></trkpt><trkpt lat="41.3750132138377" lon="2.1615556544048546"><ele>31.0</ele><time>2026-04-19T11:04:05.998Z</time></trkpt><trkpt lat="41.3750132138393" lon="2.16143071758658"><ele>31.0</ele><time>2026-04-19T11:04:06.998Z</time></trkpt><trkpt lat="41.37499954190221" lon="2.161320253768669"><ele>31.0</ele><time>2026-04-19T11:04:07.998Z</time></trkpt><trkpt lat="41.3750074879425" lon="2.1611999058839535"><ele>31.0</ele><time>2026-04-19T11:04:08.999Z</time></trkpt><trkpt lat="41.37500883871355" lon="2.161053945594264"><ele>31.0</ele><time>2026-04-19T11:04:09.999Z</time></trkpt><trkpt lat="41.375023030407114" lon="2.1608930408811307"><ele>31.0</ele><time>2026-04-19T11:04:10.999Z</time></trkpt><trkpt lat="41.37503101062042" lon="2.160751466537734"><ele>32.75</ele><time>2026-04-19T11:04:11.999Z</time></trkpt><trkpt lat="41.37503056616838" lon="2.1606048325822536"><ele>34.5</ele><time>2026-04-19T11:04:12.999Z</time></trkpt><trkpt lat="41.37502923386976" lon="2.160444573715036"><ele>36.25</ele><time>2026-04-19T11:04:13.999Z</time></trkpt><trkpt lat="41.375028369244184" lon="2.1602738510636446"><ele>38.0</ele><time>2026-04-19T11:04:14.999Z</time></trkpt><trkpt lat="41.375030339155124" lon="2.1601040445826944"><ele>38.0</ele><time>2026-04-19T11:04:15.999Z</time></trkpt><trkpt lat="41.37503009385073" lon="2.159940280109607"><ele>38.0</ele><time>2026-04-19T11:04:16.999Z</time></trkpt><trkpt lat="41.375030952895614" lon="2.159777871225026"><ele>38.0</ele><time>2026-04-19T11:04:17.999Z</time></trkpt><trkpt lat="41.37503253482837" lon="2.15962182950141"><ele>38.0</ele><time>2026-04-19T11:04:18.999Z</time></trkpt><trkpt lat="41.375033503377786" lon="2.159469697402828"><ele>37.666666666666664</ele><time>2026-04-19T11:04:19.999Z</time></trkpt><trkpt lat="41.375036636605984" lon="2.159329362842214"><ele>37.33333333333333</ele><time>2026-04-19T11:04:20.999Z</time></trkpt><trkpt lat="41.37503986131784" lon="2.159205768476825"><ele>37.0</ele><time>2026-04-19T11:04:21.999Z</time></trkpt><trkpt lat="41.37504291574008" lon="2.159090912553083"><ele>36.666666666666664</ele><time>2026-04-19T11:04:22.999Z</time></trkpt><trkpt lat="41.375043894776475" lon="2.1589819885988546"><ele>36.333333333333336</ele><time>2026-04-19T11:04:23.999Z</time></trkpt><trkpt lat="41.37504281683989" lon="2.1588733682786607"><ele>36.0</ele><time>2026-04-19T11:04:24.999Z</time></trkpt><trkpt lat="41.37504072486331" lon="2.1587549086162796"><ele>35.75</ele><time>2026-04-19T11:04:25.999Z</time></trkpt><trkpt lat="41.37504452361418" lon="2.1586227623303955"><ele>35.5</ele><time>2026-04-19T11:04:26.999Z</time></trkpt><trkpt lat="41.37503554318981" lon="2.158471164403162"><ele>35.25</ele><time>2026-04-19T11:04:27.999Z</time></trkpt><trkpt lat="41.37502216980367" lon="2.1583118246005957"><ele>35.0</ele><time>2026-04-19T11:04:28.999Z</time></trkpt><trkpt lat="41.37501900653277" lon="2.158144615179802"><ele>35.0</ele><time>2026-04-19T11:04:29.999Z</time></trkpt><trkpt lat="41.375019315343174" lon="2.1579668609989877"><ele>35.0</ele><time>2026-04-19T11:04:30.999Z</time></trkpt><trkpt lat="41.375019705971106" lon="2.157787933096942"><ele>35.0</ele><time>2026-04-19T11:04:31.999Z</time></trkpt><trkpt lat="41.37502006204739" lon="2.157624831596671"><ele>35.0</ele><time>2026-04-19T11:04:32.999Z</time></trkpt><trkpt lat="41.375020407831315" lon="2.1574664448675325"><ele>34.75</ele><time>2026-04-19T11:04:33.999Z</time></trkpt><trkpt lat="41.375020725471025" lon="2.157320949126983"><ele>34.5</ele><time>2026-04-19T11:04:34.999Z</time></trkpt><trkpt lat="41.37501028990345" lon="2.1571883055695906"><ele>34.25</ele><time>2026-04-19T11:04:35.999Z</time></trkpt><trkpt lat="41.374995812694166" lon="2.1570555288718034"><ele>34.0</ele><time>2026-04-19T11:04:36.999Z</time></trkpt><trkpt lat="41.374435351759566" lon="2.156949637464843"><ele>34.0</ele><time>2026-04-19T11:04:37.999Z</time></trkpt><trkpt lat="41.374368670891606" lon="2.156859224988513"><ele>34.0</ele><time>2026-04-19T11:04:38.999Z</time></trkpt><trkpt lat="41.37432428348993" lon="2.156795330117834"><ele>34.0</ele><time>2026-04-19T11:04:39.999Z</time></trkpt><trkpt lat="41.374484425742295" lon="2.1567639561734793"><ele>34.0</ele><time>2026-04-19T11:04:43.999Z</time></trkpt><trkpt lat="41.37470910491515" lon="2.1566833924303013"><ele>34.0</ele><time>2026-04-19T11:04:53.999Z</time></trkpt><trkpt lat="41.374864832218556" lon="2.1566246849099264"><ele>34.0</ele><time>2026-04-19T11:04:55.999Z</time></trkpt><trkpt lat="41.37496752358166" lon="2.1566117944271936"><ele>34.0</ele><time>2026-04-19T11:04:57.999Z</time></trkpt><trkpt lat="41.37505075923781" lon="2.156554276259694"><ele>34.0</ele><time>2026-04-19T11:05:15.999Z</time></trkpt><trkpt lat="41.37505470814105" lon="2.1564547544459436"><ele>34.0</ele><time>2026-04-19T11:05:16.999Z</time></trkpt><trkpt lat="41.3750562747173" lon="2.15634820569692"><ele>34.0</ele><time>2026-04-19T11:05:17.999Z</time></trkpt><trkpt lat="41.37506784678004" lon="2.1562365533845957"><ele>34.0</ele><time>2026-04-19T11:05:18.999Z</time></trkpt><trkpt lat="41.37507136777439" lon="2.1561091671890944"><ele>34.0</ele><time>2026-04-19T11:05:19.999Z</time></trkpt><trkpt lat="41.37506838324476" lon="2.155960901676808"><ele>34.0</ele><time>2026-04-19T11:05:20.999Z</time></trkpt><trkpt lat="41.37505129374757" lon="2.1557986774827205"><ele>34.0</ele><time>2026-04-19T11:05:21.999Z</time></trkpt><trkpt lat="41.37505110297009" lon="2.1556162701211417"><ele>34.0</ele><time>2026-04-19T11:05:22.999Z</time></trkpt><trkpt lat="41.375041609444125" lon="2.1553838653667126"><ele>34.0</ele><time>2026-04-19T11:05:23.999Z</time></trkpt><trkpt lat="41.37504681373207" lon="2.155187887824778"><ele>34.0</ele><time>2026-04-19T11:05:24.999Z</time></trkpt><trkpt lat="41.37504298824736" lon="2.1550167140489833"><ele>35.25</ele><time>2026-04-19T11:05:25.999Z</time></trkpt><trkpt lat="41.37504892133578" lon="2.1548479746219362"><ele>36.5</ele><time>2026-04-19T11:05:26.999Z</time></trkpt><trkpt lat="41.375050622939696" lon="2.1546689651905933"><ele>37.75</ele><time>2026-04-19T11:05:27.999Z</time></trkpt><trkpt lat="41.37505374038292" lon="2.1544857366338968"><ele>39.0</ele><time>2026-04-19T11:05:28.999Z</time></trkpt><trkpt lat="41.375058387857244" lon="2.154308704985226"><ele>39.0</ele><time>2026-04-19T11:05:29.999Z</time></trkpt><trkpt lat="41.37505988103335" lon="2.154140421941175"><ele>39.0</ele><time>2026-04-19T11:05:30.999Z</time></trkpt><trkpt lat="41.37505913345197" lon="2.153969050019084"><ele>39.0</ele><time>2026-04-19T11:05:31.999Z</time></trkpt><trkpt lat="41.37505657725035" lon="2.153797655790252"><ele>39.0</ele><time>2026-04-19T11:05:32.999Z</time></trkpt><trkpt lat="41.37505511807273" lon="2.153631134247556"><ele>38.75</ele><time>2026-04-19T11:05:33.999Z</time></trkpt><trkpt lat="41.375056478299186" lon="2.153469365632788"><ele>38.5</ele><time>2026-04-19T11:05:34.999Z</time></trkpt><trkpt lat="41.375054400593875" lon="2.1533164099884607"><ele>38.25</ele><time>2026-04-19T11:05:35.999Z</time></trkpt><trkpt lat="41.37505849232971" lon="2.1531686344668683"><ele>38.0</ele><time>2026-04-19T11:05:36.999Z</time></trkpt><trkpt lat="41.37506091875641" lon="2.153018617401037"><ele>38.0</ele><time>2026-04-19T11:05:37.999Z</time></trkpt><trkpt lat="41.37505752914505" lon="2.1528816138362625"><ele>38.0</ele><time>2026-04-19T11:05:38.999Z</time></trkpt><trkpt lat="41.37505792840034" lon="2.152770320047375"><ele>38.0</ele><time>2026-04-19T11:05:39.999Z</time></trkpt><trkpt lat="41.37506084198198" lon="2.1526657301088816"><ele>38.0</ele><time>2026-04-19T11:05:40.999Z</time></trkpt><trkpt lat="41.37506737988892" lon="2.1525409785724867"><ele>38.0</ele><time>2026-04-19T11:05:41.999Z</time></trkpt><trkpt lat="41.37506658577313" lon="2.152445178575053"><ele>38.0</ele><time>2026-04-19T11:05:42.999Z</time></trkpt><trkpt lat="41.375065591215765" lon="2.1523335916232544"><ele>37.199999999999996</ele><time>2026-04-19T11:05:43.999Z</time></trkpt><trkpt lat="41.37506845174937" lon="2.1522101173157058"><ele>36.4</ele><time>2026-04-19T11:05:44.999Z</time></trkpt><trkpt lat="41.37507196182832" lon="2.1520679314723092"><ele>35.599999999999994</ele><time>2026-04-19T11:05:45.999Z</time></trkpt><trkpt lat="41.37507017893983" lon="2.1519133411286995"><ele>34.8</ele><time>2026-04-19T11:05:46.999Z</time></trkpt><trkpt lat="41.37507296935304" lon="2.151748113816293"><ele>34.0</ele><time>2026-04-19T11:05:47.999Z</time></trkpt><trkpt lat="41.37507374353205" lon="2.1515824160365584"><ele>35.0</ele><time>2026-04-19T11:05:48.999Z</time></trkpt><trkpt lat="41.37507530622893" lon="2.151425626736788"><ele>36.0</ele><time>2026-04-19T11:05:49.999Z</time></trkpt><trkpt lat="41.37507874241543" lon="2.1512820501600762"><ele>37.0</ele><time>2026-04-19T11:05:50.999Z</time></trkpt><trkpt lat="41.375076465580534" lon="2.1511516575992906"><ele>38.0</ele><time>2026-04-19T11:05:51.999Z</time></trkpt><trkpt lat="41.37507674227826" lon="2.151035943376662"><ele>39.0</ele><time>2026-04-19T11:05:52.999Z</time></trkpt><trkpt lat="41.375079504588896" lon="2.1509360737168115"><ele>39.0</ele><time>2026-04-19T11:05:53.999Z</time></trkpt><trkpt lat="41.37508374864216" lon="2.1507565300914315"><ele>39.0</ele><time>2026-04-19T11:05:55.999Z</time></trkpt><trkpt lat="41.37508648199479" lon="2.1506157913361164"><ele>39.0</ele><time>2026-04-19T11:05:57.999Z</time></trkpt><trkpt lat="41.37508529775684" lon="2.15052378411628"><ele>39.0</ele><time>2026-04-19T11:05:59.999Z</time></trkpt><trkpt lat="41.375087975129844" lon="2.15043561769105"><ele>39.0</ele><time>2026-04-19T11:06:03.999Z</time></trkpt><trkpt lat="41.375073845185405" lon="2.1503093349270586"><ele>38.0</ele><time>2026-04-19T11:07:25.999Z</time></trkpt><trkpt lat="41.37507991017947" lon="2.150172957538082"><ele>37.0</ele><time>2026-04-19T11:07:27.999Z</time></trkpt><trkpt lat="41.375111716601864" lon="2.150012096421882"><ele>36.0</ele><time>2026-04-19T11:07:29.999Z</time></trkpt><trkpt lat="41.37512762564608" lon="2.1499011702326514"><ele>35.0</ele><time>2026-04-19T11:07:30.999Z</time></trkpt><trkpt lat="41.37516158374701" lon="2.149797119292941"><ele>34.0</ele><time>2026-04-19T11:07:31.999Z</time></trkpt><trkpt lat="41.375262893284436" lon="2.149712205392727"><ele>34.0</ele><time>2026-04-19T11:07:32.999Z</time></trkpt><trkpt lat="41.375336711069" lon="2.1496359111968895"><ele>34.0</ele><time>2026-04-19T11:07:33.999Z</time></trkpt><trkpt lat="41.37541234111353" lon="2.149574951839765"><ele>34.0</ele><time>2026-04-19T11:07:34.999Z</time></trkpt><trkpt lat="41.375453077053855" lon="2.1494763392771143"><ele>34.0</ele><time>2026-04-19T11:07:35.999Z</time></trkpt><trkpt lat="41.375472849434935" lon="2.1493696529092294"><ele>34.0</ele><time>2026-04-19T11:07:36.999Z</time></trkpt><trkpt lat="41.3755000150525" lon="2.149263084166602"><ele>34.0</ele><time>2026-04-19T11:07:37.999Z</time></trkpt><trkpt lat="41.37550392474514" lon="2.1491669099804382"><ele>34.0</ele><time>2026-04-19T11:07:38.999Z</time></trkpt><trkpt lat="41.375497426782594" lon="2.1490771561898834"><ele>34.0</ele><time>2026-04-19T11:07:39.999Z</time></trkpt><trkpt lat="41.3754868996778" lon="2.1489853111663835"><ele>34.0</ele><time>2026-04-19T11:07:40.999Z</time></trkpt><trkpt lat="41.37546330671793" lon="2.1488501581478707"><ele>34.0</ele><time>2026-04-19T11:07:42.999Z</time></trkpt><trkpt lat="41.375420027743495" lon="2.148788609048201"><ele>34.0</ele><time>2026-04-19T11:07:45.999Z</time></trkpt><trkpt lat="41.375366180742674" lon="2.148675071053359"><ele>34.0</ele><time>2026-04-19T11:08:03.999Z</time></trkpt><trkpt lat="41.375324979271134" lon="2.1485991963574396"><ele>35.333333333333336</ele><time>2026-04-19T11:08:05.999Z</time></trkpt><trkpt lat="41.37526232276553" lon="2.1485450704353557"><ele>36.66666666666667</ele><time>2026-04-19T11:08:07.999Z</time></trkpt><trkpt lat="41.37520346535472" lon="2.14850890405901"><ele>38.0</ele><time>2026-04-19T11:08:08.999Z</time></trkpt><trkpt lat="41.375110915774876" lon="2.148481152566504"><ele>39.333333333333336</ele><time>2026-04-19T11:08:11Z</time></trkpt><trkpt lat="41.37503115112167" lon="2.1484798472487756"><ele>40.666666666666664</ele><time>2026-04-19T11:08:12Z</time></trkpt><trkpt lat="41.37495220546551" lon="2.1484908276553347"><ele>42.0</ele><time>2026-04-19T11:08:13Z</time></trkpt><trkpt lat="41.37484366391188" lon="2.1485185614787587"><ele>42.0</ele><time>2026-04-19T11:08:15Z</time></trkpt><trkpt lat="41.374770817284" lon="2.1485671118447254"><ele>42.0</ele><time>2026-04-19T11:08:16.999Z</time></trkpt><trkpt lat="41.37463967316726" lon="2.1484476456393096"><ele>42.0</ele><time>2026-04-19T11:08:18.999Z</time></trkpt><trkpt lat="41.37456334786177" lon="2.1483723359732982"><ele>42.0</ele><time>2026-04-19T11:08:19.999Z</time></trkpt><trkpt lat="41.37449699714877" lon="2.148291530039481"><ele>42.0</ele><time>2026-04-19T11:08:20.999Z</time></trkpt><trkpt lat="41.37443258091625" lon="2.148207173452907"><ele>40.333333333333336</ele><time>2026-04-19T11:08:21.999Z</time></trkpt><trkpt lat="41.374382880601736" lon="2.1481169413120966"><ele>38.666666666666664</ele><time>2026-04-19T11:08:22.999Z</time></trkpt><trkpt lat="41.374331417988884" lon="2.1480435863078484"><ele>37.0</ele><time>2026-04-19T11:08:23.999Z</time></trkpt><trkpt lat="41.37427141539551" lon="2.1479774135042424"><ele>35.33333333333333</ele><time>2026-04-19T11:08:24.999Z</time></trkpt><trkpt lat="41.37419992184061" lon="2.147901749816836"><ele>33.666666666666664</ele><time>2026-04-19T11:08:25.999Z</time></trkpt><trkpt lat="41.37413580523043" lon="2.1478227361520563"><ele>32.0</ele><time>2026-04-19T11:08:26.999Z</time></trkpt><trkpt lat="41.374076499159116" lon="2.1477485005075208"><ele>32.0</ele><time>2026-04-19T11:08:27.999Z</time></trkpt><trkpt lat="41.374011375303525" lon="2.1476648985440776"><ele>32.0</ele><time>2026-04-19T11:08:28.999Z</time></trkpt><trkpt lat="41.373920431326276" lon="2.147557701189103"><ele>32.0</ele><time>2026-04-19T11:08:29.999Z</time></trkpt><trkpt lat="41.37380720460351" lon="2.1474079445956455"><ele>32.0</ele><time>2026-04-19T11:08:30.999Z</time></trkpt><trkpt lat="41.37370154216829" lon="2.147275540835977"><ele>32.25</ele><time>2026-04-19T11:08:31.999Z</time></trkpt><trkpt lat="41.37360958112607" lon="2.1471660663860432"><ele>32.5</ele><time>2026-04-19T11:08:32.999Z</time></trkpt><trkpt lat="41.373515401136174" lon="2.1470710945641915"><ele>32.75</ele><time>2026-04-19T11:08:33.999Z</time></trkpt><trkpt lat="41.37343093001386" lon="2.1469615891506817"><ele>33.0</ele><time>2026-04-19T11:08:34.999Z</time></trkpt><trkpt lat="41.373333851478804" lon="2.146858150045375"><ele>33.0</ele><time>2026-04-19T11:08:35.999Z</time></trkpt><trkpt lat="41.373235595707456" lon="2.146733025214007"><ele>33.0</ele><time>2026-04-19T11:08:36.999Z</time></trkpt><trkpt lat="41.37313195106339" lon="2.146613196447319"><ele>33.0</ele><time>2026-04-19T11:08:37.999Z</time></trkpt><trkpt lat="41.373044240863074" lon="2.146483865721487"><ele>33.0</ele><time>2026-04-19T11:08:38.999Z</time></trkpt><trkpt lat="41.372974123543244" lon="2.14635140570341"><ele>34.0</ele><time>2026-04-19T11:08:39.999Z</time></trkpt><trkpt lat="41.372887363669804" lon="2.1462287476614246"><ele>35.0</ele><time>2026-04-19T11:08:40.999Z</time></trkpt><trkpt lat="41.37279540190944" lon="2.1461055274374083"><ele>36.0</ele><time>2026-04-19T11:08:41.999Z</time></trkpt><trkpt lat="41.37269420405533" lon="2.14598051552767"><ele>37.0</ele><time>2026-04-19T11:08:42.999Z</time></trkpt><trkpt lat="41.37258958885845" lon="2.145840924199165"><ele>36.25</ele><time>2026-04-19T11:08:43.999Z</time></trkpt><trkpt lat="41.37249114577092" lon="2.145697344985169"><ele>35.5</ele><time>2026-04-19T11:08:44.999Z</time></trkpt><trkpt lat="41.37239050576582" lon="2.1455719516134435"><ele>34.75</ele><time>2026-04-19T11:08:45.999Z</time></trkpt><trkpt lat="41.37230253675336" lon="2.145456387046795"><ele>34.0</ele><time>2026-04-19T11:08:46.999Z</time></trkpt><trkpt lat="41.3722204025382" lon="2.145353060691893"><ele>35.0</ele><time>2026-04-19T11:08:47.999Z</time></trkpt><trkpt lat="41.37213860272403" lon="2.1452617920966035"><ele>36.0</ele><time>2026-04-19T11:08:48.999Z</time></trkpt><trkpt lat="41.37205654306863" lon="2.1451277987071675"><ele>37.0</ele><time>2026-04-19T11:08:49.999Z</time></trkpt><trkpt lat="41.37196637002008" lon="2.1450154089630784"><ele>38.0</ele><time>2026-04-19T11:08:50.999Z</time></trkpt><trkpt lat="41.37187115612845" lon="2.1448866959683515"><ele>37.0</ele><time>2026-04-19T11:08:51.999Z</time></trkpt><trkpt lat="41.371776707161104" lon="2.1447591665961445"><ele>36.0</ele><time>2026-04-19T11:08:52.999Z</time></trkpt><trkpt lat="41.37167961848599" lon="2.1446355910488677"><ele>35.0</ele><time>2026-04-19T11:08:53.999Z</time></trkpt><trkpt lat="41.37158276273148" lon="2.1445193940618075"><ele>34.0</ele><time>2026-04-19T11:08:54.999Z</time></trkpt><trkpt lat="41.37149101882204" lon="2.144404623314558"><ele>34.0</ele><time>2026-04-19T11:08:55.999Z</time></trkpt><trkpt lat="41.37140453021676" lon="2.1442837270087587"><ele>34.0</ele><time>2026-04-19T11:08:56.999Z</time></trkpt><trkpt lat="41.371309561417306" lon="2.1441662726267583"><ele>34.0</ele><time>2026-04-19T11:08:57.999Z</time></trkpt><trkpt lat="41.371224809372116" lon="2.1440391804414594"><ele>34.0</ele><time>2026-04-19T11:08:58.999Z</time></trkpt><trkpt lat="41.37112903577429" lon="2.1439199980839567"><ele>34.75</ele><time>2026-04-19T11:08:59.999Z</time></trkpt><trkpt lat="41.37102826279336" lon="2.143795806224678"><ele>35.5</ele><time>2026-04-19T11:09:00.999Z</time></trkpt><trkpt lat="41.37092675414777" lon="2.1436644293628726"><ele>36.25</ele><time>2026-04-19T11:09:01.999Z</time></trkpt><trkpt lat="41.37082026296807" lon="2.1435260317271934"><ele>37.0</ele><time>2026-04-19T11:09:03Z</time></trkpt><trkpt lat="41.37070665608783" lon="2.1433749647015823"><ele>37.0</ele><time>2026-04-19T11:09:04Z</time></trkpt><trkpt lat="41.37059086232671" lon="2.143219317601476"><ele>37.0</ele><time>2026-04-19T11:09:05Z</time></trkpt><trkpt lat="41.37047999973686" lon="2.1430759493661706"><ele>37.0</ele><time>2026-04-19T11:09:06Z</time></trkpt><trkpt lat="41.370372900560355" lon="2.1429361266562745"><ele>34.333333333333336</ele><time>2026-04-19T11:09:07Z</time></trkpt><trkpt lat="41.37026489778176" lon="2.1427963435248976"><ele>31.666666666666664</ele><time>2026-04-19T11:09:08Z</time></trkpt><trkpt lat="41.37015301877485" lon="2.142653531537643"><ele>29.0</ele><time>2026-04-19T11:09:09Z</time></trkpt><trkpt lat="41.370041917495776" lon="2.1425081148762746"><ele>26.0</ele><time>2026-04-19T11:09:10Z</time></trkpt><trkpt lat="41.36993388769464" lon="2.142360220052903"><ele>23.0</ele><time>2026-04-19T11:09:11Z</time></trkpt><trkpt lat="41.36982437060048" lon="2.142216371670463"><ele>20.0</ele><time>2026-04-19T11:09:12Z</time></trkpt><trkpt lat="41.369718401440224" lon="2.1420748807083316"><ele>20.5</ele><time>2026-04-19T11:09:13Z</time></trkpt><trkpt lat="41.36961906473936" lon="2.14194581399447"><ele>21.0</ele><time>2026-04-19T11:09:14Z</time></trkpt><trkpt lat="41.36952765037949" lon="2.1418194612593773"><ele>21.5</ele><time>2026-04-19T11:09:15Z</time></trkpt><trkpt lat="41.36943298836078" lon="2.141705253095464"><ele>22.0</ele><time>2026-04-19T11:09:16Z</time></trkpt><trkpt lat="41.36934629416891" lon="2.141584083737974"><ele>20.5</ele><time>2026-04-19T11:09:17Z</time></trkpt><trkpt lat="41.36925744272816" lon="2.1414589380072084"><ele>19.0</ele><time>2026-04-19T11:09:18Z</time></trkpt><trkpt lat="41.3691652876085" lon="2.1413353881158703"><ele>17.5</ele><time>2026-04-19T11:09:19Z</time></trkpt><trkpt lat="41.36907445051351" lon="2.1412128888370736"><ele>16.0</ele><time>2026-04-19T11:09:20Z</time></trkpt><trkpt lat="41.368985247507496" lon="2.141095826891574"><ele>16.0</ele><time>2026-04-19T11:09:21Z</time></trkpt><trkpt lat="41.368892603952084" lon="2.1409808745414014"><ele>16.0</ele><time>2026-04-19T11:09:22Z</time></trkpt><trkpt lat="41.36880277626279" lon="2.1408650234879514"><ele>16.0</ele><time>2026-04-19T11:09:23Z</time></trkpt><trkpt lat="41.3687106313699" lon="2.1407482423431046"><ele>16.0</ele><time>2026-04-19T11:09:24Z</time></trkpt><trkpt lat="41.36861496839501" lon="2.1406229426620316"><ele>16.5</ele><time>2026-04-19T11:09:25Z</time></trkpt><trkpt lat="41.36852034122434" lon="2.140500877449978"><ele>17.0</ele><time>2026-04-19T11:09:26Z</time></trkpt><trkpt lat="41.36843418789046" lon="2.140373329636665"><ele>17.5</ele><time>2026-04-19T11:09:27Z</time></trkpt><trkpt lat="41.36834160908134" lon="2.1402513064562108"><ele>18.0</ele><time>2026-04-19T11:09:28Z</time></trkpt><trkpt lat="41.36825462414582" lon="2.1401316802837203"><ele>18.0</ele><time>2026-04-19T11:09:29Z</time></trkpt><trkpt lat="41.36816628430592" lon="2.140010897793305"><ele>18.0</ele><time>2026-04-19T11:09:30Z</time></trkpt><trkpt lat="41.36807842611075" lon="2.1398916158925387"><ele>18.0</ele><time>2026-04-19T11:09:31Z</time></trkpt><trkpt lat="41.36799087426964" lon="2.139774303792074"><ele>18.0</ele><time>2026-04-19T11:09:32Z</time></trkpt><trkpt lat="41.367905772012485" lon="2.139658060828972"><ele>17.75</ele><time>2026-04-19T11:09:33Z</time></trkpt><trkpt lat="41.36781993242546" lon="2.139538035117246"><ele>17.5</ele><time>2026-04-19T11:09:34Z</time></trkpt><trkpt lat="41.367730777577435" lon="2.139420072277184"><ele>17.25</ele><time>2026-04-19T11:09:35Z</time></trkpt><trkpt lat="41.36763838902904" lon="2.1392940355797503"><ele>17.0</ele><time>2026-04-19T11:09:36Z</time></trkpt><trkpt lat="41.367543988280374" lon="2.1391702492924574"><ele>16.75</ele><time>2026-04-19T11:09:37Z</time></trkpt><trkpt lat="41.367451458595475" lon="2.139041566969084"><ele>16.5</ele><time>2026-04-19T11:09:38Z</time></trkpt><trkpt lat="41.367358963912736" lon="2.1389165538749144"><ele>16.25</ele><time>2026-04-19T11:09:39Z</time></trkpt><trkpt lat="41.36726839140687" lon="2.138792097029055"><ele>16.0</ele><time>2026-04-19T11:09:40Z</time></trkpt><trkpt lat="41.36717873059076" lon="2.1386710435095115"><ele>16.5</ele><time>2026-04-19T11:09:41Z</time></trkpt><trkpt lat="41.36708601424617" lon="2.1385518006432838"><ele>17.0</ele><time>2026-04-19T11:09:42Z</time></trkpt><trkpt lat="41.366990814133416" lon="2.1384257681992893"><ele>17.5</ele><time>2026-04-19T11:09:43Z</time></trkpt><trkpt lat="41.36690125819871" lon="2.138291927793066"><ele>18.0</ele><time>2026-04-19T11:09:44Z</time></trkpt><trkpt lat="41.36681493052738" lon="2.1381633468222483"><ele>18.0</ele><time>2026-04-19T11:09:45Z</time></trkpt><trkpt lat="41.366701744611674" lon="2.1380409211922577"><ele>18.0</ele><time>2026-04-19T11:09:46Z</time></trkpt><trkpt lat="41.366594086445566" lon="2.1379076495648897"><ele>18.0</ele><time>2026-04-19T11:09:47Z</time></trkpt><trkpt lat="41.366479631781715" lon="2.1377966431947857"><ele>18.0</ele><time>2026-04-19T11:09:48Z</time></trkpt><trkpt lat="41.36636813175036" lon="2.137694863649812"><ele>18.25</ele><time>2026-04-19T11:09:49Z</time></trkpt><trkpt lat="41.36626812588422" lon="2.1375821012596594"><ele>18.5</ele><time>2026-04-19T11:09:50Z</time></trkpt><trkpt lat="41.36620383282777" lon="2.1374394350370705"><ele>18.75</ele><time>2026-04-19T11:09:51Z</time></trkpt><trkpt lat="41.36613895311818" lon="2.137318944295901"><ele>19.0</ele><time>2026-04-19T11:09:52Z</time></trkpt><trkpt lat="41.366006073302295" lon="2.137217028713083"><ele>19.0</ele><time>2026-04-19T11:09:53Z</time></trkpt><trkpt lat="41.365915388828874" lon="2.1370900025334136"><ele>19.0</ele><time>2026-04-19T11:09:54Z</time></trkpt><trkpt lat="41.36581845813177" lon="2.1369638187347637"><ele>19.0</ele><time>2026-04-19T11:09:55Z</time></trkpt><trkpt lat="41.36572152181746" lon="2.1368299499554966"><ele>19.0</ele><time>2026-04-19T11:09:56Z</time></trkpt><trkpt lat="41.36562279066843" lon="2.1366958250519685"><ele>19.0</ele><time>2026-04-19T11:09:57Z</time></trkpt><trkpt lat="41.36553078465815" lon="2.136558919327614"><ele>19.0</ele><time>2026-04-19T11:09:58Z</time></trkpt><trkpt lat="41.365441153860125" lon="2.1364307214913367"><ele>19.0</ele><time>2026-04-19T11:09:59Z</time></trkpt><trkpt lat="41.36535496482008" lon="2.1363123831191584"><ele>19.0</ele><time>2026-04-19T11:10:00Z</time></trkpt><trkpt lat="41.36525886821181" lon="2.136189752572798"><ele>18.0</ele><time>2026-04-19T11:10:01Z</time></trkpt><trkpt lat="41.365163391215155" lon="2.1360656297814704"><ele>17.0</ele><time>2026-04-19T11:10:02Z</time></trkpt><trkpt lat="41.36506388742913" lon="2.135936094292727"><ele>16.0</ele><time>2026-04-19T11:10:03Z</time></trkpt><trkpt lat="41.36495857418542" lon="2.135808069547959"><ele>15.0</ele><time>2026-04-19T11:10:04Z</time></trkpt><trkpt lat="41.364842642990475" lon="2.135690574822851"><ele>14.333333333333332</ele><time>2026-04-19T11:10:05Z</time></trkpt><trkpt lat="41.364723152339195" lon="2.1355854309542117"><ele>13.666666666666666</ele><time>2026-04-19T11:10:06Z</time></trkpt><trkpt lat="41.36459752762979" lon="2.135480272086294"><ele>13.0</ele><time>2026-04-19T11:10:07Z</time></trkpt><trkpt lat="41.36456585074383" lon="2.135260053534559"><ele>14.0</ele><time>2026-04-19T11:10:08Z</time></trkpt><trkpt lat="41.36447042579848" lon="2.1351268671256673"><ele>15.0</ele><time>2026-04-19T11:10:09Z</time></trkpt><trkpt lat="41.36437411988026" lon="2.134992711634871"><ele>16.0</ele><time>2026-04-19T11:10:10Z</time></trkpt><trkpt lat="41.36426565696083" lon="2.1348445162475747"><ele>17.0</ele><time>2026-04-19T11:10:11Z</time></trkpt><trkpt lat="41.36416532838175" lon="2.1347104555327054"><ele>17.0</ele><time>2026-04-19T11:10:12Z</time></trkpt><trkpt lat="41.364080191360834" lon="2.134596694516013"><ele>17.0</ele><time>2026-04-19T11:10:13Z</time></trkpt><trkpt lat="41.36398060355306" lon="2.1344636233393115"><ele>17.0</ele><time>2026-04-19T11:10:14Z</time></trkpt><trkpt lat="41.36388068226526" lon="2.134329869572486"><ele>17.0</ele><time>2026-04-19T11:10:15Z</time></trkpt><trkpt lat="41.363777516476105" lon="2.1341915885296867"><ele>16.0</ele><time>2026-04-19T11:10:16Z</time></trkpt><trkpt lat="41.363669000325984" lon="2.134050433329036"><ele>15.0</ele><time>2026-04-19T11:10:17Z</time></trkpt><trkpt lat="41.36356300475964" lon="2.1339133131132537"><ele>14.0</ele><time>2026-04-19T11:10:18Z</time></trkpt><trkpt lat="41.36345212869774" lon="2.1337701561619205"><ele>14.0</ele><time>2026-04-19T11:10:19Z</time></trkpt><trkpt lat="41.363382248401685" lon="2.1336196709690203"><ele>14.0</ele><time>2026-04-19T11:10:20Z</time></trkpt><trkpt lat="41.363280734922405" lon="2.133487074234992"><ele>14.0</ele><time>2026-04-19T11:10:21Z</time></trkpt><trkpt lat="41.36317895391864" lon="2.1333569407318165"><ele>14.0</ele><time>2026-04-19T11:10:22.011Z</time></trkpt><trkpt lat="41.36307758425042" lon="2.1332251932226196"><ele>14.0</ele><time>2026-04-19T11:10:23.012Z</time></trkpt><trkpt lat="41.362975403322444" lon="2.1330910306124116"><ele>14.0</ele><time>2026-04-19T11:10:24.02Z</time></trkpt><trkpt lat="41.36287426864923" lon="2.132960138241862"><ele>14.0</ele><time>2026-04-19T11:10:25.02Z</time></trkpt><trkpt lat="41.362774244760814" lon="2.1328314702353572"><ele>14.0</ele><time>2026-04-19T11:10:26.01Z</time></trkpt><trkpt lat="41.36267164657077" lon="2.1326982090523883"><ele>14.0</ele><time>2026-04-19T11:10:27.022Z</time></trkpt><trkpt lat="41.36250280983569" lon="2.132471780065003"><ele>14.0</ele><time>2026-04-19T11:10:28.019Z</time></trkpt><trkpt lat="41.36235092199368" lon="2.1322680715944693"><ele>12.333333333333334</ele><time>2026-04-19T11:10:29.029Z</time></trkpt><trkpt lat="41.36215226728596" lon="2.1320218127240724"><ele>10.666666666666668</ele><time>2026-04-19T11:10:31Z</time></trkpt><trkpt lat="41.36203798035071" lon="2.131889327595056"><ele>9.0</ele><time>2026-04-19T11:10:31.998Z</time></trkpt><trkpt lat="41.36191348504127" lon="2.13176469895617"><ele>9.0</ele><time>2026-04-19T11:10:32.998Z</time></trkpt><trkpt lat="41.36180214061999" lon="2.1316254986544316"><ele>9.0</ele><time>2026-04-19T11:10:33.998Z</time></trkpt><trkpt lat="41.36168364312537" lon="2.131490726894406"><ele>9.0</ele><time>2026-04-19T11:10:34.998Z</time></trkpt><trkpt lat="41.361577295847724" lon="2.1313582344763695"><ele>8.75</ele><time>2026-04-19T11:10:35.998Z</time></trkpt><trkpt lat="41.361474040202644" lon="2.1312207594621384"><ele>8.5</ele><time>2026-04-19T11:10:36.998Z</time></trkpt><trkpt lat="41.361375224656825" lon="2.131087999894459"><ele>8.25</ele><time>2026-04-19T11:10:37.998Z</time></trkpt><trkpt lat="41.36127322918237" lon="2.1309635128376327"><ele>8.0</ele><time>2026-04-19T11:10:38.998Z</time></trkpt><trkpt lat="41.36117581262079" lon="2.1308282861578594"><ele>8.333333333333332</ele><time>2026-04-19T11:10:39.998Z</time></trkpt><trkpt lat="41.36107047409561" lon="2.1306973983420265"><ele>8.666666666666666</ele><time>2026-04-19T11:10:40.998Z</time></trkpt><trkpt lat="41.36095777497515" lon="2.1305440823542274"><ele>9.0</ele><time>2026-04-19T11:10:41.998Z</time></trkpt><trkpt lat="41.360852946447864" lon="2.130405035673788"><ele>9.0</ele><time>2026-04-19T11:10:42.998Z</time></trkpt><trkpt lat="41.36072921692818" lon="2.1302298437868936"><ele>9.0</ele><time>2026-04-19T11:10:43.998Z</time></trkpt><trkpt lat="41.360610073001" lon="2.1300643841179325"><ele>9.0</ele><time>2026-04-19T11:10:44.998Z</time></trkpt><trkpt lat="41.36047856501481" lon="2.1298872032701524"><ele>8.0</ele><time>2026-04-19T11:10:45.999Z</time></trkpt><trkpt lat="41.3603590924898" lon="2.129717302311528"><ele>7.0</ele><time>2026-04-19T11:10:46.999Z</time></trkpt><trkpt lat="41.36024351298712" lon="2.1295810035131657"><ele>6.0</ele><time>2026-04-19T11:10:47.999Z</time></trkpt><trkpt lat="41.360137913568344" lon="2.129458310589928"><ele>6.0</ele><time>2026-04-19T11:10:48.999Z</time></trkpt><trkpt lat="41.360033699095084" lon="2.129337478888727"><ele>6.0</ele><time>2026-04-19T11:10:49.999Z</time></trkpt><trkpt lat="41.35992349800774" lon="2.1292187608673743"><ele>6.0</ele><time>2026-04-19T11:10:51.02Z</time></trkpt><trkpt lat="41.35981142856247" lon="2.1290956325706727"><ele>6.0</ele><time>2026-04-19T11:10:52.011Z</time></trkpt><trkpt lat="41.35959090578038" lon="2.1288519458993322"><ele>8.0</ele><time>2026-04-19T11:10:53.999Z</time></trkpt><trkpt lat="41.359470433592456" lon="2.128736342315449"><ele>10.0</ele><time>2026-04-19T11:10:54.999Z</time></trkpt><trkpt lat="41.35931107128658" lon="2.128405158021315"><ele>12.0</ele><time>2026-04-19T11:10:55.999Z</time></trkpt><trkpt lat="41.35918621798933" lon="2.128228243595409"><ele>12.0</ele><time>2026-04-19T11:10:56.999Z</time></trkpt><trkpt lat="41.359064723741035" lon="2.1280620326474273"><ele>12.0</ele><time>2026-04-19T11:10:57.999Z</time></trkpt><trkpt lat="41.35894511350827" lon="2.127900532787167"><ele>12.0</ele><time>2026-04-19T11:10:58.999Z</time></trkpt><trkpt lat="41.35882845738233" lon="2.1277425124733007"><ele>11.0</ele><time>2026-04-19T11:10:59.999Z</time></trkpt><trkpt lat="41.358740178222234" lon="2.127602116882199"><ele>10.0</ele><time>2026-04-19T11:11:00.999Z</time></trkpt><trkpt lat="41.35864253419802" lon="2.1274644989788336"><ele>9.0</ele><time>2026-04-19T11:11:01.999Z</time></trkpt><trkpt lat="41.358544111770044" lon="2.1273223112385433"><ele>8.0</ele><time>2026-04-19T11:11:02.999Z</time></trkpt><trkpt lat="41.35843893779912" lon="2.1271733902085743"><ele>8.0</ele><time>2026-04-19T11:11:03.999Z</time></trkpt><trkpt lat="41.3583381757407" lon="2.1270306100812064"><ele>8.0</ele><time>2026-04-19T11:11:04.999Z</time></trkpt><trkpt lat="41.358253184899574" lon="2.1268646363950308"><ele>8.0</ele><time>2026-04-19T11:11:05.999Z</time></trkpt><trkpt lat="41.35807746843202" lon="2.1267100754277433"><ele>8.0</ele><time>2026-04-19T11:11:06.999Z</time></trkpt><trkpt lat="41.35797211272673" lon="2.126566399021206"><ele>8.0</ele><time>2026-04-19T11:11:07.999Z</time></trkpt><trkpt lat="41.35786496663782" lon="2.126420684515073"><ele>8.0</ele><time>2026-04-19T11:11:08.999Z</time></trkpt><trkpt lat="41.35775157196865" lon="2.126265516031733"><ele>8.333333333333332</ele><time>2026-04-19T11:11:09.999Z</time></trkpt><trkpt lat="41.35764877660452" lon="2.1261145023882397"><ele>8.666666666666666</ele><time>2026-04-19T11:11:10.999Z</time></trkpt><trkpt lat="41.3575550366453" lon="2.125950413173303"><ele>9.0</ele><time>2026-04-19T11:11:11.999Z</time></trkpt><trkpt lat="41.35745280776847" lon="2.1257887103202084"><ele>8.333333333333334</ele><time>2026-04-19T11:11:12.999Z</time></trkpt><trkpt lat="41.35734757453666" lon="2.1256377930957036"><ele>7.666666666666667</ele><time>2026-04-19T11:11:13.999Z</time></trkpt><trkpt lat="41.35723942360306" lon="2.125480568433661"><ele>7.0</ele><time>2026-04-19T11:11:15.021Z</time></trkpt><trkpt lat="41.357134600098455" lon="2.125322074329304"><ele>7.0</ele><time>2026-04-19T11:11:16.015Z</time></trkpt><trkpt lat="41.35703101969716" lon="2.1251606105456236"><ele>7.0</ele><time>2026-04-19T11:11:17.016Z</time></trkpt><trkpt lat="41.35691980565936" lon="2.125018727750875"><ele>7.0</ele><time>2026-04-19T11:11:18.023Z</time></trkpt><trkpt lat="41.356813363437745" lon="2.1248779667427398"><ele>10.0</ele><time>2026-04-19T11:11:19.02Z</time></trkpt><trkpt lat="41.35515526406593" lon="2.1228744741548997"><ele>10.0</ele><time>2026-04-19T11:11:33.999Z</time></trkpt><trkpt lat="41.35504505486785" lon="2.1227282073729747"><ele>10.0</ele><time>2026-04-19T11:11:34.999Z</time></trkpt><trkpt lat="41.35496056173515" lon="2.1226050556959297"><ele>10.0</ele><time>2026-04-19T11:11:35.999Z</time></trkpt><trkpt lat="41.35486467632074" lon="2.122458394330422"><ele>10.0</ele><time>2026-04-19T11:11:36.999Z</time></trkpt><trkpt lat="41.35475663176557" lon="2.1222996552656372"><ele>7.666666666666667</ele><time>2026-04-19T11:11:37.999Z</time></trkpt><trkpt lat="41.35465466852037" lon="2.1221525468107836"><ele>5.333333333333334</ele><time>2026-04-19T11:11:38.999Z</time></trkpt><trkpt lat="41.35453171775739" lon="2.12202572409831"><ele>3.0</ele><time>2026-04-19T11:11:39.999Z</time></trkpt><trkpt lat="41.354421025302734" lon="2.121884523079891"><ele>3.0</ele><time>2026-04-19T11:11:40.999Z</time></trkpt><trkpt lat="41.35430869355889" lon="2.1217366162922713"><ele>3.0</ele><time>2026-04-19T11:11:41.999Z</time></trkpt><trkpt lat="41.35418912771323" lon="2.121582077853374"><ele>3.0</ele><time>2026-04-19T11:11:42.999Z</time></trkpt><trkpt lat="41.35407433932006" lon="2.1214310441889324"><ele>5.0</ele><time>2026-04-19T11:11:43.999Z</time></trkpt><trkpt lat="41.35395909132315" lon="2.1212873143473603"><ele>7.0</ele><time>2026-04-19T11:11:44.999Z</time></trkpt><trkpt lat="41.35376888824576" lon="2.1210351359455286"><ele>9.0</ele><time>2026-04-19T11:11:45.999Z</time></trkpt><trkpt lat="41.35363281733455" lon="2.120865817020632"><ele>10.666666666666668</ele><time>2026-04-19T11:11:46.999Z</time></trkpt><trkpt lat="41.35350281583999" lon="2.1206828869207732"><ele>12.333333333333334</ele><time>2026-04-19T11:11:47.999Z</time></trkpt><trkpt lat="41.35336766511756" lon="2.12048952212487"><ele>14.0</ele><time>2026-04-19T11:11:48.999Z</time></trkpt><trkpt lat="41.3532366734336" lon="2.1203066301330464"><ele>14.0</ele><time>2026-04-19T11:11:50Z</time></trkpt><trkpt lat="41.35310443094641" lon="2.1201246815386523"><ele>14.0</ele><time>2026-04-19T11:11:51Z</time></trkpt><trkpt lat="41.35297461655384" lon="2.1199468007194997"><ele>14.0</ele><time>2026-04-19T11:11:52Z</time></trkpt><trkpt lat="41.35284313674443" lon="2.119772360940703"><ele>11.666666666666668</ele><time>2026-04-19T11:11:53Z</time></trkpt><trkpt lat="41.3527144604188" lon="2.1195939769926757"><ele>9.333333333333334</ele><time>2026-04-19T11:11:54Z</time></trkpt><trkpt lat="41.35258431126905" lon="2.119420450057684"><ele>7.0</ele><time>2026-04-19T11:11:55Z</time></trkpt><trkpt lat="41.352461587189254" lon="2.119249662070668"><ele>7.0</ele><time>2026-04-19T11:11:56Z</time></trkpt><trkpt lat="41.352345511798006" lon="2.1190767887932647"><ele>7.0</ele><time>2026-04-19T11:11:57Z</time></trkpt><trkpt lat="41.352225562072896" lon="2.118895691296122"><ele>7.0</ele><time>2026-04-19T11:11:58Z</time></trkpt><trkpt lat="41.35208824312724" lon="2.118716748964923"><ele>7.333333333333334</ele><time>2026-04-19T11:11:59Z</time></trkpt><trkpt lat="41.351932511228085" lon="2.118541950628367"><ele>7.666666666666666</ele><time>2026-04-19T11:12:00Z</time></trkpt><trkpt lat="41.35180703731739" lon="2.1183688406989"><ele>8.0</ele><time>2026-04-19T11:12:01Z</time></trkpt><trkpt lat="41.35168362504873" lon="2.1181892328482474"><ele>8.333333333333332</ele><time>2026-04-19T11:12:02Z</time></trkpt><trkpt lat="41.35157012847404" lon="2.117995037655895"><ele>8.666666666666666</ele><time>2026-04-19T11:12:03Z</time></trkpt><trkpt lat="41.35146243825732" lon="2.117797353920557"><ele>9.0</ele><time>2026-04-19T11:12:04Z</time></trkpt><trkpt lat="41.351347446266715" lon="2.117602650757455"><ele>9.0</ele><time>2026-04-19T11:12:05Z</time></trkpt><trkpt lat="41.351232510394226" lon="2.1174023621590283"><ele>9.0</ele><time>2026-04-19T11:12:06Z</time></trkpt><trkpt lat="41.35112241811687" lon="2.117203025760091"><ele>9.0</ele><time>2026-04-19T11:12:07Z</time></trkpt><trkpt lat="41.35101315343208" lon="2.1169954289535906"><ele>9.666666666666666</ele><time>2026-04-19T11:12:08Z</time></trkpt><trkpt lat="41.35089691964592" lon="2.116786759452489"><ele>10.333333333333332</ele><time>2026-04-19T11:12:09Z</time></trkpt><trkpt lat="41.350773963937435" lon="2.11657598905289"><ele>11.0</ele><time>2026-04-19T11:12:10Z</time></trkpt><trkpt lat="41.35065587417666" lon="2.1163850456555706"><ele>11.333333333333332</ele><time>2026-04-19T11:12:11Z</time></trkpt><trkpt lat="41.3505396279128" lon="2.116209068334345"><ele>11.666666666666666</ele><time>2026-04-19T11:12:12Z</time></trkpt><trkpt lat="41.3504271092524" lon="2.1160414195878614"><ele>12.0</ele><time>2026-04-19T11:12:13Z</time></trkpt><trkpt lat="41.35031430718894" lon="2.115875955825038"><ele>11.666666666666666</ele><time>2026-04-19T11:12:14Z</time></trkpt><trkpt lat="41.35020701499075" lon="2.115716119298677"><ele>11.333333333333332</ele><time>2026-04-19T11:12:15Z</time></trkpt><trkpt lat="41.35008549335851" lon="2.1155500515490564"><ele>11.0</ele><time>2026-04-19T11:12:16Z</time></trkpt><trkpt lat="41.349972364822094" lon="2.1153938463095767"><ele>11.0</ele><time>2026-04-19T11:12:17Z</time></trkpt><trkpt lat="41.34986187626325" lon="2.1152358070033115"><ele>11.0</ele><time>2026-04-19T11:12:18Z</time></trkpt><trkpt lat="41.349749573336" lon="2.115083826690726"><ele>11.0</ele><time>2026-04-19T11:12:19Z</time></trkpt><trkpt lat="41.34964382095701" lon="2.1149366250831916"><ele>10.333333333333332</ele><time>2026-04-19T11:12:20Z</time></trkpt><trkpt lat="41.34953525131367" lon="2.1147836163470064"><ele>9.666666666666666</ele><time>2026-04-19T11:12:21Z</time></trkpt><trkpt lat="41.3494329047811" lon="2.1146402285107793"><ele>9.0</ele><time>2026-04-19T11:12:22Z</time></trkpt><trkpt lat="41.349324963178105" lon="2.1144912319948492"><ele>9.0</ele><time>2026-04-19T11:12:23Z</time></trkpt><trkpt lat="41.34922872996251" lon="2.1143408298226425"><ele>9.0</ele><time>2026-04-19T11:12:24Z</time></trkpt><trkpt lat="41.34914216591715" lon="2.1141959027854975"><ele>9.0</ele><time>2026-04-19T11:12:25Z</time></trkpt><trkpt lat="41.349070564437035" lon="2.114059903831862"><ele>9.0</ele><time>2026-04-19T11:12:26Z</time></trkpt><trkpt lat="41.349003882818145" lon="2.113934860959966"><ele>9.2</ele><time>2026-04-19T11:12:27Z</time></trkpt><trkpt lat="41.348944933960695" lon="2.1138215138362106"><ele>9.4</ele><time>2026-04-19T11:12:27.999Z</time></trkpt><trkpt lat="41.34888879174323" lon="2.1137144624759774"><ele>9.6</ele><time>2026-04-19T11:12:28.999Z</time></trkpt><trkpt lat="41.34883497509887" lon="2.113610952745963"><ele>9.8</ele><time>2026-04-19T11:12:29.999Z</time></trkpt><trkpt lat="41.34878586593025" lon="2.1135099477873163"><ele>10.0</ele><time>2026-04-19T11:12:30.999Z</time></trkpt><trkpt lat="41.348744420125705" lon="2.1134096377569924"><ele>10.0</ele><time>2026-04-19T11:12:31.999Z</time></trkpt><trkpt lat="41.34870370410245" lon="2.113316934742603"><ele>10.0</ele><time>2026-04-19T11:12:32.999Z</time></trkpt><trkpt lat="41.34865437022228" lon="2.113217256459103"><ele>10.0</ele><time>2026-04-19T11:12:33.999Z</time></trkpt><trkpt lat="41.34860199858751" lon="2.1131001934287785"><ele>10.0</ele><time>2026-04-19T11:12:34.999Z</time></trkpt><trkpt lat="41.348552786512286" lon="2.1129859531389346"><ele>10.0</ele><time>2026-04-19T11:12:35.999Z</time></trkpt><trkpt lat="41.34849431849633" lon="2.112868769167263"><ele>9.8</ele><time>2026-04-19T11:12:36.999Z</time></trkpt><trkpt lat="41.34843505923771" lon="2.112752877288385"><ele>9.6</ele><time>2026-04-19T11:12:38Z</time></trkpt><trkpt lat="41.34837599863584" lon="2.112640560095995"><ele>9.4</ele><time>2026-04-19T11:12:39Z</time></trkpt><trkpt lat="41.34831749773015" lon="2.1125358065020623"><ele>9.2</ele><time>2026-04-19T11:12:40Z</time></trkpt><trkpt lat="41.34825595294696" lon="2.1124358134641565"><ele>9.0</ele><time>2026-04-19T11:12:41Z</time></trkpt><trkpt lat="41.34819003830099" lon="2.112337734245836"><ele>9.0</ele><time>2026-04-19T11:12:42Z</time></trkpt><trkpt lat="41.34813189899757" lon="2.1122428549493537"><ele>9.0</ele><time>2026-04-19T11:12:43Z</time></trkpt><trkpt lat="41.3480674960472" lon="2.1121653716283966"><ele>9.0</ele><time>2026-04-19T11:12:44Z</time></trkpt><trkpt lat="41.348003340232076" lon="2.112100564988504"><ele>9.0</ele><time>2026-04-19T11:12:45Z</time></trkpt><trkpt lat="41.34792705824911" lon="2.1120644218925295"><ele>9.0</ele><time>2026-04-19T11:12:46Z</time></trkpt><trkpt lat="41.347840309833046" lon="2.112040500444355"><ele>9.0</ele><time>2026-04-19T11:12:47Z</time></trkpt><trkpt lat="41.347759813711434" lon="2.1121080159434054"><ele>9.166666666666666</ele><time>2026-04-19T11:12:48Z</time></trkpt><trkpt lat="41.34768369254462" lon="2.112149880804761"><ele>9.333333333333334</ele><time>2026-04-19T11:12:49Z</time></trkpt><trkpt lat="41.34762300102279" lon="2.112201549403833"><ele>9.5</ele><time>2026-04-19T11:12:50Z</time></trkpt><trkpt lat="41.34757313494814" lon="2.1122611129669786"><ele>9.666666666666668</ele><time>2026-04-19T11:12:51Z</time></trkpt><trkpt lat="41.34752294633831" lon="2.1123200339613994"><ele>9.833333333333334</ele><time>2026-04-19T11:12:52Z</time></trkpt><trkpt lat="41.347387369092544" lon="2.1123831314202928"><ele>10.0</ele><time>2026-04-19T11:12:54Z</time></trkpt><trkpt lat="41.34731237669287" lon="2.112458864247781"><ele>10.0</ele><time>2026-04-19T11:12:55Z</time></trkpt><trkpt lat="41.34724455423696" lon="2.112552062732577"><ele>10.0</ele><time>2026-04-19T11:12:56Z</time></trkpt><trkpt lat="41.34716564630688" lon="2.1126770284741014"><ele>10.0</ele><time>2026-04-19T11:12:57Z</time></trkpt><trkpt lat="41.34707638410925" lon="2.112793371735716"><ele>10.0</ele><time>2026-04-19T11:12:58Z</time></trkpt><trkpt lat="41.34697798725684" lon="2.112904398714537"><ele>9.0</ele><time>2026-04-19T11:12:59Z</time></trkpt><trkpt lat="41.34687569671891" lon="2.113030448807507"><ele>8.0</ele><time>2026-04-19T11:13:00Z</time></trkpt><trkpt lat="41.346765943148085" lon="2.113143690679256"><ele>7.0</ele><time>2026-04-19T11:13:01Z</time></trkpt><trkpt lat="41.3466451728198" lon="2.113254990557891"><ele>6.0</ele><time>2026-04-19T11:13:02Z</time></trkpt><trkpt lat="41.346511006745075" lon="2.1133582376498636"><ele>7.0</ele><time>2026-04-19T11:13:03Z</time></trkpt><trkpt lat="41.346367393661005" lon="2.1134559031191347"><ele>8.0</ele><time>2026-04-19T11:13:04Z</time></trkpt><trkpt lat="41.346217237905655" lon="2.1135457600183556"><ele>9.0</ele><time>2026-04-19T11:13:05Z</time></trkpt><trkpt lat="41.34605353331561" lon="2.11363194293255"><ele>9.0</ele><time>2026-04-19T11:13:06Z</time></trkpt><trkpt lat="41.34588473127124" lon="2.1137181899859385"><ele>9.0</ele><time>2026-04-19T11:13:07Z</time></trkpt><trkpt lat="41.34571509483719" lon="2.113794467637565"><ele>9.0</ele><time>2026-04-19T11:13:08Z</time></trkpt><trkpt lat="41.34552418614996" lon="2.113813219050341"><ele>8.666666666666666</ele><time>2026-04-19T11:13:09Z</time></trkpt><trkpt lat="41.34532557556267" lon="2.1138364360404016"><ele>8.333333333333332</ele><time>2026-04-19T11:13:10Z</time></trkpt><trkpt lat="41.34512302888457" lon="2.113830441625141"><ele>8.0</ele><time>2026-04-19T11:13:11Z</time></trkpt><trkpt lat="41.344926985852254" lon="2.113793626192978"><ele>8.0</ele><time>2026-04-19T11:13:12Z</time></trkpt><trkpt lat="41.34473689269721" lon="2.1137335198935845"><ele>8.0</ele><time>2026-04-19T11:13:13Z</time></trkpt><trkpt lat="41.34455475583725" lon="2.113663021317958"><ele>8.0</ele><time>2026-04-19T11:13:14Z</time></trkpt><trkpt lat="41.34437920102302" lon="2.1135728041020334"><ele>7.666666666666666</ele><time>2026-04-19T11:13:15Z</time></trkpt><trkpt lat="41.34421003333889" lon="2.1134696655422887"><ele>7.333333333333334</ele><time>2026-04-19T11:13:16Z</time></trkpt><trkpt lat="41.344041949828956" lon="2.1133610996691927"><ele>7.0</ele><time>2026-04-19T11:13:17Z</time></trkpt><trkpt lat="41.34386687336438" lon="2.1132490304753904"><ele>8.0</ele><time>2026-04-19T11:13:18Z</time></trkpt><trkpt lat="41.34368082395099" lon="2.1131692359898"><ele>9.0</ele><time>2026-04-19T11:13:19Z</time></trkpt><trkpt lat="41.34349433072026" lon="2.113086345575702"><ele>10.0</ele><time>2026-04-19T11:13:20Z</time></trkpt><trkpt lat="41.34330219478425" lon="2.113041491676627"><ele>10.0</ele><time>2026-04-19T11:13:21Z</time></trkpt><trkpt lat="41.343119961775194" lon="2.1130307178483774"><ele>10.0</ele><time>2026-04-19T11:13:22Z</time></trkpt><trkpt lat="41.342936218011715" lon="2.1130503739539384"><ele>10.0</ele><time>2026-04-19T11:13:23Z</time></trkpt><trkpt lat="41.34275100350678" lon="2.113069135071639"><ele>10.333333333333334</ele><time>2026-04-19T11:13:24Z</time></trkpt><trkpt lat="41.34257081396674" lon="2.1131281531702637"><ele>10.666666666666666</ele><time>2026-04-19T11:13:25Z</time></trkpt><trkpt lat="41.34239713331009" lon="2.113209241305087"><ele>11.0</ele><time>2026-04-19T11:13:26Z</time></trkpt><trkpt lat="41.3422387915712" lon="2.1133294045625717"><ele>11.666666666666666</ele><time>2026-04-19T11:13:27Z</time></trkpt><trkpt lat="41.34208467651508" lon="2.113444080976092"><ele>12.333333333333332</ele><time>2026-04-19T11:13:28Z</time></trkpt><trkpt lat="41.34193527136289" lon="2.1135819476398017"><ele>13.0</ele><time>2026-04-19T11:13:29Z</time></trkpt><trkpt lat="41.341798901248104" lon="2.113739297289754"><ele>13.0</ele><time>2026-04-19T11:13:30Z</time></trkpt><trkpt lat="41.341675290326044" lon="2.113915831778005"><ele>13.0</ele><time>2026-04-19T11:13:31Z</time></trkpt><trkpt lat="41.34157035000961" lon="2.114102336559879"><ele>13.0</ele><time>2026-04-19T11:13:32Z</time></trkpt><trkpt lat="41.3414673904289" lon="2.114304628232745"><ele>10.666666666666666</ele><time>2026-04-19T11:13:33Z</time></trkpt><trkpt lat="41.34136981487312" lon="2.114521002040006"><ele>8.333333333333332</ele><time>2026-04-19T11:13:34Z</time></trkpt><trkpt lat="41.34128686958944" lon="2.114738829728577"><ele>6.0</ele><time>2026-04-19T11:13:35Z</time></trkpt><trkpt lat="41.341207390574326" lon="2.1149698798892507"><ele>6.0</ele><time>2026-04-19T11:13:36Z</time></trkpt><trkpt lat="41.34112121739109" lon="2.1152163085406412"><ele>6.0</ele><time>2026-04-19T11:13:37.001Z</time></trkpt><trkpt lat="41.34103173886388" lon="2.115467772613291"><ele>6.0</ele><time>2026-04-19T11:13:38.001Z</time></trkpt><trkpt lat="41.34094934175206" lon="2.11571701235843"><ele>5.333333333333333</ele><time>2026-04-19T11:13:39.001Z</time></trkpt><trkpt lat="41.34085130647685" lon="2.1159522608948618"><ele>4.666666666666666</ele><time>2026-04-19T11:13:40.001Z</time></trkpt><trkpt lat="41.34076243414868" lon="2.116194518279332"><ele>4.0</ele><time>2026-04-19T11:13:41.001Z</time></trkpt><trkpt lat="41.34067542321969" lon="2.116441917012344"><ele>5.0</ele><time>2026-04-19T11:13:42.001Z</time></trkpt><trkpt lat="41.340591524080686" lon="2.1166814196159787"><ele>6.0</ele><time>2026-04-19T11:13:43.001Z</time></trkpt><trkpt lat="41.34050791880193" lon="2.1169253042766396"><ele>7.0</ele><time>2026-04-19T11:13:44.001Z</time></trkpt><trkpt lat="41.34042655759717" lon="2.117160615792413"><ele>7.333333333333334</ele><time>2026-04-19T11:13:45.001Z</time></trkpt><trkpt lat="41.34034453778676" lon="2.1173960346205876"><ele>7.666666666666666</ele><time>2026-04-19T11:13:46.001Z</time></trkpt><trkpt lat="41.340265721158055" lon="2.1176184145627857"><ele>8.0</ele><time>2026-04-19T11:13:47.001Z</time></trkpt><trkpt lat="41.34018662953308" lon="2.117819323531702"><ele>9.0</ele><time>2026-04-19T11:13:48.001Z</time></trkpt><trkpt lat="41.34009905787939" lon="2.117995312354622"><ele>10.0</ele><time>2026-04-19T11:13:49.001Z</time></trkpt><trkpt lat="41.33999766793591" lon="2.1181572521328063"><ele>11.0</ele><time>2026-04-19T11:13:50.001Z</time></trkpt><trkpt lat="41.33987510401896" lon="2.1183006768341057"><ele>11.0</ele><time>2026-04-19T11:13:51.001Z</time></trkpt><trkpt lat="41.33973959206826" lon="2.118396407169868"><ele>11.0</ele><time>2026-04-19T11:13:52.001Z</time></trkpt><trkpt lat="41.3395984398565" lon="2.118484644386215"><ele>11.0</ele><time>2026-04-19T11:13:53.001Z</time></trkpt><trkpt lat="41.33944470663103" lon="2.118519232411669"><ele>10.0</ele><time>2026-04-19T11:13:54.001Z</time></trkpt><trkpt lat="41.33928870593841" lon="2.1185164846733695"><ele>9.0</ele><time>2026-04-19T11:13:55.001Z</time></trkpt><trkpt lat="41.33914117237506" lon="2.118483867062857"><ele>8.0</ele><time>2026-04-19T11:13:56.001Z</time></trkpt><trkpt lat="41.33900707545159" lon="2.118421320965006"><ele>7.0</ele><time>2026-04-19T11:13:57.001Z</time></trkpt><trkpt lat="41.338893284766336" lon="2.1183231514668517"><ele>7.5</ele><time>2026-04-19T11:13:58.001Z</time></trkpt><trkpt lat="41.33879271200757" lon="2.11819095045771"><ele>8.0</ele><time>2026-04-19T11:13:59.001Z</time></trkpt><trkpt lat="41.33871473832096" lon="2.118038430729875"><ele>8.5</ele><time>2026-04-19T11:14:00.001Z</time></trkpt><trkpt lat="41.338662286055595" lon="2.1178735563621607"><ele>9.0</ele><time>2026-04-19T11:14:01.001Z</time></trkpt><trkpt lat="41.338647448891265" lon="2.117702074896287"><ele>9.0</ele><time>2026-04-19T11:14:02.001Z</time></trkpt><trkpt lat="41.33865678372061" lon="2.1175478694992975"><ele>9.0</ele><time>2026-04-19T11:14:03.001Z</time></trkpt><trkpt lat="41.33869275220503" lon="2.1174109396843357"><ele>9.0</ele><time>2026-04-19T11:14:04.001Z</time></trkpt><trkpt lat="41.33870201569032" lon="2.1172761110964933"><ele>9.0</ele><time>2026-04-19T11:14:05.001Z</time></trkpt><trkpt lat="41.33879327810355" lon="2.1171767862686663"><ele>9.0</ele><time>2026-04-19T11:14:06.001Z</time></trkpt><trkpt lat="41.33882777103309" lon="2.1170555735628973"><ele>8.6</ele><time>2026-04-19T11:14:07.001Z</time></trkpt><trkpt lat="41.338826141961036" lon="2.116925321119356"><ele>8.2</ele><time>2026-04-19T11:14:08.001Z</time></trkpt><trkpt lat="41.33878495884245" lon="2.116799948906117"><ele>7.799999999999999</ele><time>2026-04-19T11:14:09.001Z</time></trkpt><trkpt lat="41.33872325949347" lon="2.116704823455878"><ele>7.3999999999999995</ele><time>2026-04-19T11:14:10.001Z</time></trkpt><trkpt lat="41.338642117678766" lon="2.11663517686224"><ele>7.0</ele><time>2026-04-19T11:14:11.001Z</time></trkpt><trkpt lat="41.33853806459806" lon="2.116597978177936"><ele>7.0</ele><time>2026-04-19T11:14:12.001Z</time></trkpt><trkpt lat="41.338424218394046" lon="2.1165983092373475"><ele>6.999999999999999</ele><time>2026-04-19T11:14:13.001Z</time></trkpt><trkpt lat="41.33831770653681" lon="2.1166571909483736"><ele>6.999999999999999</ele><time>2026-04-19T11:14:14.001Z</time></trkpt><trkpt lat="41.33820894871555" lon="2.116637064846781"><ele>7.0</ele><time>2026-04-19T11:14:15.001Z</time></trkpt><trkpt lat="41.33811965344305" lon="2.1165901021476405"><ele>7.0</ele><time>2026-04-19T11:14:16.001Z</time></trkpt><trkpt lat="41.338042802092325" lon="2.116496030786061"><ele>7.0</ele><time>2026-04-19T11:14:17.001Z</time></trkpt><trkpt lat="41.337971846099535" lon="2.116352973013568"><ele>7.0</ele><time>2026-04-19T11:14:18.001Z</time></trkpt><trkpt lat="41.33789538653255" lon="2.1161796976226905"><ele>7.0</ele><time>2026-04-19T11:14:19.001Z</time></trkpt><trkpt lat="41.33781238887558" lon="2.115985474304437"><ele>7.0</ele><time>2026-04-19T11:14:20.001Z</time></trkpt><trkpt lat="41.33774186227784" lon="2.115784807635571"><ele>7.0</ele><time>2026-04-19T11:14:21.001Z</time></trkpt><trkpt lat="41.33768342743994" lon="2.115607494535667"><ele>7.0</ele><time>2026-04-19T11:14:22.001Z</time></trkpt><trkpt lat="41.33762533560378" lon="2.1154388247353135"><ele>7.0</ele><time>2026-04-19T11:14:23.001Z</time></trkpt><trkpt lat="41.33756533470684" lon="2.1152615028917814"><ele>7.0</ele><time>2026-04-19T11:14:24.001Z</time></trkpt><trkpt lat="41.33750575687924" lon="2.1150842462545447"><ele>7.0</ele><time>2026-04-19T11:14:25.001Z</time></trkpt><trkpt lat="41.337451595563046" lon="2.1149137758330183"><ele>7.0</ele><time>2026-04-19T11:14:26.001Z</time></trkpt><trkpt lat="41.33739172110412" lon="2.114747195057814"><ele>7.0</ele><time>2026-04-19T11:14:27.001Z</time></trkpt><trkpt lat="41.33733477733153" lon="2.1145788046486462"><ele>7.0</ele><time>2026-04-19T11:14:28.001Z</time></trkpt><trkpt lat="41.33727923820904" lon="2.114411450014232"><ele>7.5</ele><time>2026-04-19T11:14:29.001Z</time></trkpt><trkpt lat="41.33722108651163" lon="2.1142385388533635"><ele>8.0</ele><time>2026-04-19T11:14:30.001Z</time></trkpt><trkpt lat="41.3371610535169" lon="2.1140716997889815"><ele>8.5</ele><time>2026-04-19T11:14:31.001Z</time></trkpt><trkpt lat="41.33711109190545" lon="2.1139154394385287"><ele>9.0</ele><time>2026-04-19T11:14:32.001Z</time></trkpt><trkpt lat="41.337055422141624" lon="2.113777508944188"><ele>8.5</ele><time>2026-04-19T11:14:33.001Z</time></trkpt><trkpt lat="41.33700250070165" lon="2.113635029767442"><ele>8.0</ele><time>2026-04-19T11:14:34.001Z</time></trkpt><trkpt lat="41.336936342536426" lon="2.1134861493816355"><ele>7.5</ele><time>2026-04-19T11:14:35.001Z</time></trkpt><trkpt lat="41.336861991496285" lon="2.113335722459002"><ele>7.0</ele><time>2026-04-19T11:14:36.001Z</time></trkpt><trkpt lat="41.33678492253352" lon="2.1131915126400087"><ele>7.0</ele><time>2026-04-19T11:14:37.001Z</time></trkpt><trkpt lat="41.33669898111417" lon="2.113053658280351"><ele>7.0</ele><time>2026-04-19T11:14:38.001Z</time></trkpt><trkpt lat="41.33660723045267" lon="2.1129144161825373"><ele>7.0</ele><time>2026-04-19T11:14:39.001Z</time></trkpt><trkpt lat="41.336511995969886" lon="2.112778046659805"><ele>7.0</ele><time>2026-04-19T11:14:40.001Z</time></trkpt><trkpt lat="41.33641486099764" lon="2.1126559781183993"><ele>7.3999999999999995</ele><time>2026-04-19T11:14:41.001Z</time></trkpt><trkpt lat="41.33631711001367" lon="2.112541445482805"><ele>7.799999999999999</ele><time>2026-04-19T11:14:42.001Z</time></trkpt><trkpt lat="41.33622283601937" lon="2.1124488484388215"><ele>8.2</ele><time>2026-04-19T11:14:43.001Z</time></trkpt><trkpt lat="41.336134063952265" lon="2.112372430327482"><ele>8.6</ele><time>2026-04-19T11:14:44.001Z</time></trkpt><trkpt lat="41.336055299688745" lon="2.1123023961114047"><ele>9.0</ele><time>2026-04-19T11:14:45.001Z</time></trkpt><trkpt lat="41.336000135986744" lon="2.1122312829640912"><ele>9.4</ele><time>2026-04-19T11:14:46.001Z</time></trkpt><trkpt lat="41.335938822840255" lon="2.112184826176334"><ele>9.8</ele><time>2026-04-19T11:14:47.001Z</time></trkpt><trkpt lat="41.335862640070765" lon="2.112127140537492"><ele>10.200000000000001</ele><time>2026-04-19T11:14:48.001Z</time></trkpt><trkpt lat="41.335761993969854" lon="2.11206757907243"><ele>10.600000000000001</ele><time>2026-04-19T11:14:49.001Z</time></trkpt><trkpt lat="41.33566279983968" lon="2.1120019686830918"><ele>11.0</ele><time>2026-04-19T11:14:50.001Z</time></trkpt><trkpt lat="41.33555479744923" lon="2.1119374482582716"><ele>10.0</ele><time>2026-04-19T11:14:51.001Z</time></trkpt><trkpt lat="41.33543357721131" lon="2.111890200834293"><ele>9.0</ele><time>2026-04-19T11:14:52.001Z</time></trkpt><trkpt lat="41.335301672949456" lon="2.1118535163466565"><ele>8.0</ele><time>2026-04-19T11:14:53.001Z</time></trkpt><trkpt lat="41.33515966016359" lon="2.111826029874945"><ele>7.0</ele><time>2026-04-19T11:14:54.001Z</time></trkpt><trkpt lat="41.33500480060253" lon="2.111777640550133"><ele>7.0</ele><time>2026-04-19T11:14:55.001Z</time></trkpt><trkpt lat="41.33486664902006" lon="2.111749765614193"><ele>7.0</ele><time>2026-04-19T11:14:56.001Z</time></trkpt><trkpt lat="41.33473533582161" lon="2.111722619531543"><ele>7.0</ele><time>2026-04-19T11:14:57.001Z</time></trkpt><trkpt lat="41.33456585833405" lon="2.111687583922525"><ele>7.0</ele><time>2026-04-19T11:14:58.001Z</time></trkpt><trkpt lat="41.33439029690683" lon="2.1116503040856878"><ele>7.333333333333334</ele><time>2026-04-19T11:14:59.001Z</time></trkpt><trkpt lat="41.33421034630254" lon="2.111614393130469"><ele>7.666666666666666</ele><time>2026-04-19T11:15:00.001Z</time></trkpt><trkpt lat="41.33403311475326" lon="2.1115790246493162"><ele>8.0</ele><time>2026-04-19T11:15:01.001Z</time></trkpt><trkpt lat="41.33386197604777" lon="2.1115448794152147"><ele>8.333333333333332</ele><time>2026-04-19T11:15:02.001Z</time></trkpt><trkpt lat="41.3337107527738" lon="2.1115149757739173"><ele>8.666666666666666</ele><time>2026-04-19T11:15:03.001Z</time></trkpt><trkpt lat="41.33353413199744" lon="2.111478917637877"><ele>9.0</ele><time>2026-04-19T11:15:04.001Z</time></trkpt><trkpt lat="41.33337863315616" lon="2.1114380778083777"><ele>9.0</ele><time>2026-04-19T11:15:05.001Z</time></trkpt><trkpt lat="41.333219889983624" lon="2.1114011477521264"><ele>9.0</ele><time>2026-04-19T11:15:06.001Z</time></trkpt><trkpt lat="41.33305947355481" lon="2.1113649393129914"><ele>9.0</ele><time>2026-04-19T11:15:07.001Z</time></trkpt><trkpt lat="41.33290243735549" lon="2.1113315725275963"><ele>9.666666666666666</ele><time>2026-04-19T11:15:08.001Z</time></trkpt><trkpt lat="41.332746742183744" lon="2.1113053730046127"><ele>10.333333333333332</ele><time>2026-04-19T11:15:09.001Z</time></trkpt><trkpt lat="41.332591044024326" lon="2.11127820539235"><ele>11.0</ele><time>2026-04-19T11:15:10.001Z</time></trkpt><trkpt lat="41.332437292842386" lon="2.1112484918928622"><ele>11.0</ele><time>2026-04-19T11:15:11.001Z</time></trkpt><trkpt lat="41.332279006559126" lon="2.1112155319353954"><ele>11.0</ele><time>2026-04-19T11:15:12.001Z</time></trkpt><trkpt lat="41.33211827318487" lon="2.1111834072171294"><ele>11.0</ele><time>2026-04-19T11:15:13.001Z</time></trkpt><trkpt lat="41.3319531297392" lon="2.111159444584275"><ele>11.333333333333332</ele><time>2026-04-19T11:15:14.001Z</time></trkpt><trkpt lat="41.33178739395082" lon="2.1111350849887223"><ele>11.666666666666666</ele><time>2026-04-19T11:15:15.001Z</time></trkpt><trkpt lat="41.3316114587496" lon="2.111110612936103"><ele>12.0</ele><time>2026-04-19T11:15:16.001Z</time></trkpt><trkpt lat="41.3314341321159" lon="2.1111049340270243"><ele>11.0</ele><time>2026-04-19T11:15:17.001Z</time></trkpt><trkpt lat="41.33126509195842" lon="2.1111034926297947"><ele>10.0</ele><time>2026-04-19T11:15:18.001Z</time></trkpt><trkpt lat="41.33109627536652" lon="2.111109177170025"><ele>9.0</ele><time>2026-04-19T11:15:19.001Z</time></trkpt><trkpt lat="41.3309276761252" lon="2.111126888576527"><ele>9.0</ele><time>2026-04-19T11:15:20.001Z</time></trkpt><trkpt lat="41.33075746924352" lon="2.1111503206257414"><ele>9.0</ele><time>2026-04-19T11:15:21.001Z</time></trkpt><trkpt lat="41.330589955851494" lon="2.1111894251352825"><ele>9.0</ele><time>2026-04-19T11:15:22.001Z</time></trkpt><trkpt lat="41.330420324501056" lon="2.1112039431617426"><ele>8.0</ele><time>2026-04-19T11:15:23.001Z</time></trkpt><trkpt lat="41.33025189149467" lon="2.111251955159366"><ele>7.0</ele><time>2026-04-19T11:15:24.001Z</time></trkpt><trkpt lat="41.33007724935857" lon="2.1113097876534628"><ele>6.0</ele><time>2026-04-19T11:15:25.001Z</time></trkpt><trkpt lat="41.32990148446487" lon="2.1113792256399666"><ele>6.0</ele><time>2026-04-19T11:15:26.001Z</time></trkpt><trkpt lat="41.329726509943505" lon="2.1114561634134414"><ele>6.0</ele><time>2026-04-19T11:15:27.001Z</time></trkpt><trkpt lat="41.32955211469149" lon="2.111544625935474"><ele>6.0</ele><time>2026-04-19T11:15:28.001Z</time></trkpt><trkpt lat="41.329379873859914" lon="2.111641022223414"><ele>6.0</ele><time>2026-04-19T11:15:29.001Z</time></trkpt><trkpt lat="41.32921527977649" lon="2.1117439058564536"><ele>6.0</ele><time>2026-04-19T11:15:30.001Z</time></trkpt><trkpt lat="41.32905483893249" lon="2.1118542932236086"><ele>6.0</ele><time>2026-04-19T11:15:31.001Z</time></trkpt><trkpt lat="41.32891019712388" lon="2.111967762064785"><ele>5.333333333333333</ele><time>2026-04-19T11:15:32.001Z</time></trkpt><trkpt lat="41.328774315274444" lon="2.112077042155462"><ele>4.666666666666666</ele><time>2026-04-19T11:15:33.001Z</time></trkpt><trkpt lat="41.328637005689636" lon="2.1121958713619247"><ele>4.0</ele><time>2026-04-19T11:15:34.001Z</time></trkpt><trkpt lat="41.32850553318597" lon="2.11231752621438"><ele>5.25</ele><time>2026-04-19T11:15:35.001Z</time></trkpt><trkpt lat="41.32838705457788" lon="2.112446920256731"><ele>6.5</ele><time>2026-04-19T11:15:36.001Z</time></trkpt><trkpt lat="41.32826979844085" lon="2.11255579292632"><ele>7.75</ele><time>2026-04-19T11:15:37.001Z</time></trkpt><trkpt lat="41.32816428559128" lon="2.1126585795867583"><ele>9.0</ele><time>2026-04-19T11:15:38.001Z</time></trkpt><trkpt lat="41.32805838416767" lon="2.1127436673378646"><ele>9.0</ele><time>2026-04-19T11:15:39.001Z</time></trkpt><trkpt lat="41.3279595815204" lon="2.112815305381663"><ele>9.0</ele><time>2026-04-19T11:15:40.001Z</time></trkpt><trkpt lat="41.3278463816582" lon="2.1128668084293634"><ele>9.0</ele><time>2026-04-19T11:15:41.001Z</time></trkpt><trkpt lat="41.3277237805604" lon="2.1128877654204143"><ele>9.0</ele><time>2026-04-19T11:15:42.001Z</time></trkpt><trkpt lat="41.32760395321795" lon="2.1128621252470756"><ele>9.0</ele><time>2026-04-19T11:15:43.001Z</time></trkpt><trkpt lat="41.327488839559535" lon="2.1127892655873595"><ele>9.0</ele><time>2026-04-19T11:15:44.001Z</time></trkpt><trkpt lat="41.32738024083176" lon="2.1126671261972585"><ele>9.0</ele><time>2026-04-19T11:15:45.001Z</time></trkpt><trkpt lat="41.32727760649485" lon="2.112529448689676"><ele>9.0</ele><time>2026-04-19T11:15:46.001Z</time></trkpt><trkpt lat="41.32718087277117" lon="2.1123668634693322"><ele>7.0</ele><time>2026-04-19T11:15:47.001Z</time></trkpt><trkpt lat="41.3270709621831" lon="2.112166594998781"><ele>5.0</ele><time>2026-04-19T11:15:48.001Z</time></trkpt><trkpt lat="41.32692929585468" lon="2.111937457938715"><ele>3.0</ele><time>2026-04-19T11:15:49.001Z</time></trkpt><trkpt lat="41.32676155592299" lon="2.111663930972719"><ele>3.333333333333333</ele><time>2026-04-19T11:15:50.001Z</time></trkpt><trkpt lat="41.32661731136524" lon="2.1114197012803166"><ele>3.6666666666666665</ele><time>2026-04-19T11:15:51.001Z</time></trkpt><trkpt lat="41.32650397478686" lon="2.1112264257267914"><ele>4.0</ele><time>2026-04-19T11:15:52.001Z</time></trkpt><trkpt lat="41.3263913870197" lon="2.1110359695064234"><ele>6.333333333333333</ele><time>2026-04-19T11:15:53.001Z</time></trkpt><trkpt lat="41.32627865684957" lon="2.110840840348953"><ele>8.666666666666666</ele><time>2026-04-19T11:15:54.001Z</time></trkpt><trkpt lat="41.32616494681998" lon="2.110649645178392"><ele>11.0</ele><time>2026-04-19T11:15:55.001Z</time></trkpt><trkpt lat="41.32604928039542" lon="2.1104541483999237"><ele>11.0</ele><time>2026-04-19T11:15:56.001Z</time></trkpt><trkpt lat="41.32593860184314" lon="2.110271509036536"><ele>11.0</ele><time>2026-04-19T11:15:57.001Z</time></trkpt><trkpt lat="41.32583049786411" lon="2.1100902490892883"><ele>11.0</ele><time>2026-04-19T11:15:58.001Z</time></trkpt><trkpt lat="41.32572385822223" lon="2.1099090124778943"><ele>12.0</ele><time>2026-04-19T11:15:59.001Z</time></trkpt><trkpt lat="41.32562394046311" lon="2.109739916625356"><ele>13.0</ele><time>2026-04-19T11:16:00.001Z</time></trkpt><trkpt lat="41.32552626108993" lon="2.109578974323516"><ele>14.0</ele><time>2026-04-19T11:16:01.001Z</time></trkpt><trkpt lat="41.32542553726789" lon="2.109418455019217"><ele>12.0</ele><time>2026-04-19T11:16:02.001Z</time></trkpt><trkpt lat="41.325342182180826" lon="2.109246694426591"><ele>10.0</ele><time>2026-04-19T11:16:03.001Z</time></trkpt><trkpt lat="41.3252358110173" lon="2.1091034687659693"><ele>8.0</ele><time>2026-04-19T11:16:04.001Z</time></trkpt><trkpt lat="41.325141094947476" lon="2.108941976279356"><ele>8.0</ele><time>2026-04-19T11:16:05.001Z</time></trkpt><trkpt lat="41.325047706153775" lon="2.1087753792627075"><ele>8.0</ele><time>2026-04-19T11:16:06.001Z</time></trkpt><trkpt lat="41.3249523621661" lon="2.1086071335828476"><ele>8.0</ele><time>2026-04-19T11:16:07.001Z</time></trkpt><trkpt lat="41.324865203456035" lon="2.108444607573185"><ele>8.0</ele><time>2026-04-19T11:16:08.001Z</time></trkpt><trkpt lat="41.32477914671227" lon="2.1082924118819073"><ele>8.0</ele><time>2026-04-19T11:16:09.001Z</time></trkpt><trkpt lat="41.324709456823605" lon="2.108139996418777"><ele>8.0</ele><time>2026-04-19T11:16:10.001Z</time></trkpt><trkpt lat="41.32466259170706" lon="2.1080111616660355"><ele>8.0</ele><time>2026-04-19T11:16:11.001Z</time></trkpt><trkpt lat="41.3246329346571" lon="2.1078846242700204"><ele>7.800000000000001</ele><time>2026-04-19T11:16:13.001Z</time></trkpt><trkpt lat="41.3246324313595" lon="2.1077511853543967"><ele>7.6000000000000005</ele><time>2026-04-19T11:16:15.001Z</time></trkpt><trkpt lat="41.324649057699034" lon="2.1075957040006426"><ele>7.3999999999999995</ele><time>2026-04-19T11:16:17.001Z</time></trkpt><trkpt lat="41.32465278757087" lon="2.107477328449192"><ele>7.199999999999999</ele><time>2026-04-19T11:16:18.001Z</time></trkpt><trkpt lat="41.32464565091887" lon="2.1073397153973605"><ele>7.0</ele><time>2026-04-19T11:16:19.001Z</time></trkpt><trkpt lat="41.3246196242832" lon="2.1071806960727013"><ele>7.0</ele><time>2026-04-19T11:16:20.001Z</time></trkpt><trkpt lat="41.32457372124265" lon="2.1070120322569195"><ele>7.0</ele><time>2026-04-19T11:16:21.001Z</time></trkpt><trkpt lat="41.32450231688517" lon="2.106848802970253"><ele>7.0</ele><time>2026-04-19T11:16:22.001Z</time></trkpt><trkpt lat="41.32441368201473" lon="2.1066968763734426"><ele>7.0</ele><time>2026-04-19T11:16:23.001Z</time></trkpt><trkpt lat="41.3243213692992" lon="2.1065605642347283"><ele>6.75</ele><time>2026-04-19T11:16:24.001Z</time></trkpt><trkpt lat="41.32422044895288" lon="2.106445452211208"><ele>6.5</ele><time>2026-04-19T11:16:25.001Z</time></trkpt><trkpt lat="41.32411677863389" lon="2.106354313148941"><ele>6.25</ele><time>2026-04-19T11:16:26.001Z</time></trkpt><trkpt lat="41.32401338903783" lon="2.106281928482918"><ele>6.0</ele><time>2026-04-19T11:16:27.001Z</time></trkpt><trkpt lat="41.323908911073964" lon="2.106214995715827"><ele>6.0</ele><time>2026-04-19T11:16:28.001Z</time></trkpt><trkpt lat="41.32379331835781" lon="2.106145318700677"><ele>6.0</ele><time>2026-04-19T11:16:29.001Z</time></trkpt><trkpt lat="41.32367212683848" lon="2.1060717977654475"><ele>6.0</ele><time>2026-04-19T11:16:30.001Z</time></trkpt><trkpt lat="41.323552933569374" lon="2.105987073699073"><ele>6.0</ele><time>2026-04-19T11:16:31.001Z</time></trkpt><trkpt lat="41.32346093726027" lon="2.1059135502483852"><ele>6.0</ele><time>2026-04-19T11:16:32.001Z</time></trkpt><trkpt lat="41.323391644016205" lon="2.1058623444700326"><ele>6.0</ele><time>2026-04-19T11:16:33.001Z</time></trkpt><trkpt lat="41.32331640170474" lon="2.1057813328323514"><ele>6.0</ele><time>2026-04-19T11:16:35.001Z</time></trkpt><trkpt lat="41.32325802527712" lon="2.1057181781059513"><ele>6.0</ele><time>2026-04-19T11:17:07.001Z</time></trkpt><trkpt lat="41.323200506633604" lon="2.105647252422308"><ele>6.0</ele><time>2026-04-19T11:17:08.001Z</time></trkpt><trkpt lat="41.32314815910708" lon="2.105567121647449"><ele>6.0</ele><time>2026-04-19T11:17:09.001Z</time></trkpt><trkpt lat="41.32311389158509" lon="2.105480151655231"><ele>5.8</ele><time>2026-04-19T11:17:10.001Z</time></trkpt><trkpt lat="41.32307473683693" lon="2.105413706299937"><ele>5.6</ele><time>2026-04-19T11:17:11.001Z</time></trkpt><trkpt lat="41.32301230037532" lon="2.1053071834738244"><ele>5.4</ele><time>2026-04-19T11:17:13.001Z</time></trkpt><trkpt lat="41.322942461268" lon="2.1052290314334074"><ele>5.2</ele><time>2026-04-19T11:17:15.001Z</time></trkpt><trkpt lat="41.3228500144242" lon="2.10505975844464"><ele>5.0</ele><time>2026-04-19T11:17:17.001Z</time></trkpt><trkpt lat="41.32279403900824" lon="2.1049333206685485"><ele>5.0</ele><time>2026-04-19T11:17:19.001Z</time></trkpt><trkpt lat="41.32273999121488" lon="2.104845718693194"><ele>5.0</ele><time>2026-04-19T11:17:20.001Z</time></trkpt><trkpt lat="41.322683606718826" lon="2.104757402281908"><ele>5.0</ele><time>2026-04-19T11:17:21.001Z</time></trkpt><trkpt lat="41.32262530821639" lon="2.1046515096456737"><ele>5.0</ele><time>2026-04-19T11:17:22.001Z</time></trkpt><trkpt lat="41.32253833415469" lon="2.1045058991606664"><ele>5.0</ele><time>2026-04-19T11:17:23.001Z</time></trkpt><trkpt lat="41.32247776413384" lon="2.104392934130597"><ele>5.0</ele><time>2026-04-19T11:17:24.001Z</time></trkpt><trkpt lat="41.32242379982597" lon="2.1043010994042137"><ele>5.0</ele><time>2026-04-19T11:17:25.001Z</time></trkpt><trkpt lat="41.322376334644424" lon="2.104210148172554"><ele>5.0</ele><time>2026-04-19T11:17:26.001Z</time></trkpt><trkpt lat="41.322325891390015" lon="2.104142308991116"><ele>5.0</ele><time>2026-04-19T11:17:27.001Z</time></trkpt><trkpt lat="41.322285941844115" lon="2.104059431075121"><ele>5.0</ele><time>2026-04-19T11:17:28.001Z</time></trkpt><trkpt lat="41.322250433814716" lon="2.103980801842933"><ele>5.0</ele><time>2026-04-19T11:17:29.001Z</time></trkpt><trkpt lat="41.322231658014076" lon="2.103899509876805"><ele>5.0</ele><time>2026-04-19T11:17:30.001Z</time></trkpt><trkpt lat="41.32217921789258" lon="2.103795215177359"><ele>5.0</ele><time>2026-04-19T11:17:32.001Z</time></trkpt><trkpt lat="41.32211824343174" lon="2.1038657932013933"><ele>5.0</ele><time>2026-04-19T11:17:33.001Z</time></trkpt><trkpt lat="41.32212093498533" lon="2.103993210774302"><ele>5.0</ele><time>2026-04-19T11:17:35.001Z</time></trkpt><trkpt lat="41.322171221652155" lon="2.104066344775074"><ele>5.0</ele><time>2026-04-19T11:17:36.001Z</time></trkpt><trkpt lat="41.32226060663301" lon="2.1041597916673886"><ele>5.0</ele><time>2026-04-19T11:17:37.001Z</time></trkpt><trkpt lat="41.32235375897692" lon="2.1042829969577035"><ele>5.0</ele><time>2026-04-19T11:17:38.001Z</time></trkpt><trkpt lat="41.32245271599507" lon="2.104455976227809"><ele>5.0</ele><time>2026-04-19T11:17:39.001Z</time></trkpt><trkpt lat="41.322506667053545" lon="2.1045482631217935"><ele>5.0</ele><time>2026-04-19T11:17:40.001Z</time></trkpt><trkpt lat="41.32255257534243" lon="2.1046250862871236"><ele>5.0</ele><time>2026-04-19T11:17:41.001Z</time></trkpt><trkpt lat="41.32259238041863" lon="2.104693882917619"><ele>5.0</ele><time>2026-04-19T11:17:42.001Z</time></trkpt><trkpt lat="41.32263869416004" lon="2.1047544166039516"><ele>5.0</ele><time>2026-04-19T11:17:43.001Z</time></trkpt><trkpt lat="41.32268387489269" lon="2.1048151313190213"><ele>5.0</ele><time>2026-04-19T11:17:44.001Z</time></trkpt><trkpt lat="41.3227237377582" lon="2.1048924039988504"><ele>5.0</ele><time>2026-04-19T11:17:45.001Z</time></trkpt><trkpt lat="41.32276833085448" lon="2.10497542913"><ele>5.0</ele><time>2026-04-19T11:17:46.001Z</time></trkpt><trkpt lat="41.322821307821414" lon="2.1050557947929707"><ele>5.0</ele><time>2026-04-19T11:17:47.001Z</time></trkpt><trkpt lat="41.32286401857337" lon="2.105133958672808"><ele>5.0</ele><time>2026-04-19T11:17:48.001Z</time></trkpt><trkpt lat="41.3229022384163" lon="2.1052042412365366"><ele>5.0</ele><time>2026-04-19T11:17:49.001Z</time></trkpt><trkpt lat="41.32296979072896" lon="2.1053142971137064"><ele>5.0</ele><time>2026-04-19T11:17:51.001Z</time></trkpt><trkpt lat="41.32302349392603" lon="2.1054012937808193"><ele>5.0</ele><time>2026-04-19T11:17:53.001Z</time></trkpt><trkpt lat="41.32293315612934" lon="2.105399661720603"><ele>5.0</ele><time>2026-04-19T11:18:00.001Z</time></trkpt><trkpt lat="41.322896126774445" lon="2.1053173671067547"><ele>5.0</ele><time>2026-04-19T11:18:01.001Z</time></trkpt><trkpt lat="41.32292207698088" lon="2.1051493442656315"><ele>5.0</ele><time>2026-04-19T11:18:03.001Z</time></trkpt><trkpt lat="41.322874732570334" lon="2.105066755918017"><ele>5.0</ele><time>2026-04-19T11:18:06.001Z</time></trkpt><trkpt lat="41.3227597158412" lon="2.1052039969749314"><ele>5.0</ele><time>2026-04-19T11:18:12.001Z</time></trkpt><trkpt lat="41.32279505161098" lon="2.105118657036292"><ele>5.0</ele><time>2026-04-19T11:18:30.001Z</time></trkpt></trkseg><trkseg><trkpt lat="41.322774138699764" lon="2.1051415529588007"><ele>5.0</ele><time>2026-04-19T11:55:01Z</time></trkpt><trkpt lat="41.32273833622445" lon="2.1050677372047573"><ele>5.0</ele><time>2026-04-19T11:55:06Z</time></trkpt><trkpt lat="41.322676505367184" lon="2.1049509289779635"><ele>5.0</ele><time>2026-04-19T11:55:08Z</time></trkpt><trkpt lat="41.32258889684776" lon="2.104835624612127"><ele>5.0</ele><time>2026-04-19T11:55:10Z</time></trkpt><trkpt lat="41.32264194661557" lon="2.1046612917532688"><ele>5.0</ele><time>2026-04-19T11:55:11Z</time></trkpt><trkpt lat="41.32260328403603" lon="2.1045941439876774"><ele>5.0</ele><time>2026-04-19T11:55:12Z</time></trkpt><trkpt lat="41.322535846328854" lon="2.104477473698272"><ele>5.0</ele><time>2026-04-19T11:55:14Z</time></trkpt><trkpt lat="41.32246362550133" lon="2.104351393860444"><ele>5.0</ele><time>2026-04-19T11:55:15.999Z</time></trkpt><trkpt lat="41.32242353310092" lon="2.1042814024494176"><ele>5.0</ele><time>2026-04-19T11:55:16.999Z</time></trkpt><trkpt lat="41.322347716865494" lon="2.1041490457517065"><ele>5.0</ele><time>2026-04-19T11:55:18.999Z</time></trkpt><trkpt lat="41.32230248870583" lon="2.1040697408312856"><ele>5.0</ele><time>2026-04-19T11:55:20.999Z</time></trkpt><trkpt lat="41.322262976602886" lon="2.10400002051838"><ele>5.0</ele><time>2026-04-19T11:55:22.999Z</time></trkpt><trkpt lat="41.322052814442266" lon="2.1038441973115747"><ele>5.0</ele><time>2026-04-19T11:55:25.999Z</time></trkpt><trkpt lat="41.321947953648056" lon="2.104133410252973"><ele>4.833333333333334</ele><time>2026-04-19T11:55:27.999Z</time></trkpt><trkpt lat="41.32187083531654" lon="2.104191292609012"><ele>4.666666666666667</ele><time>2026-04-19T11:55:28.999Z</time></trkpt><trkpt lat="41.3218113914619" lon="2.1042401093341043"><ele>4.5</ele><time>2026-04-19T11:55:29.999Z</time></trkpt><trkpt lat="41.32175619910483" lon="2.10430101771224"><ele>4.333333333333333</ele><time>2026-04-19T11:55:30.999Z</time></trkpt><trkpt lat="41.32168686653762" lon="2.104345665596075"><ele>4.166666666666666</ele><time>2026-04-19T11:55:31.999Z</time></trkpt><trkpt lat="41.321627834225524" lon="2.1044048696811335"><ele>4.0</ele><time>2026-04-19T11:55:32.999Z</time></trkpt><trkpt lat="41.32156195327681" lon="2.10446223452747"><ele>4.0</ele><time>2026-04-19T11:55:33.999Z</time></trkpt><trkpt lat="41.32149987740763" lon="2.1045141162170067"><ele>3.9999999999999996</ele><time>2026-04-19T11:55:34.999Z</time></trkpt><trkpt lat="41.32144007107878" lon="2.104558126840256"><ele>4.0</ele><time>2026-04-19T11:55:35.999Z</time></trkpt><trkpt lat="41.321379610905815" lon="2.1046128949704825"><ele>4.0</ele><time>2026-04-19T11:55:36.999Z</time></trkpt><trkpt lat="41.32132191691627" lon="2.10466864480564"><ele>3.9999999999999996</ele><time>2026-04-19T11:55:37.999Z</time></trkpt><trkpt lat="41.321249677157695" lon="2.1047185345218606"><ele>4.0</ele><time>2026-04-19T11:55:38.999Z</time></trkpt><trkpt lat="41.32119347701454" lon="2.104766174355995"><ele>4.0</ele><time>2026-04-19T11:55:39.999Z</time></trkpt><trkpt lat="41.321139304648774" lon="2.1048239726765177"><ele>3.833333333333333</ele><time>2026-04-19T11:55:40.999Z</time></trkpt><trkpt lat="41.321075280535744" lon="2.1048784850089906"><ele>3.6666666666666665</ele><time>2026-04-19T11:55:41.999Z</time></trkpt><trkpt lat="41.32100999058799" lon="2.104930943211207"><ele>3.5</ele><time>2026-04-19T11:55:42.999Z</time></trkpt><trkpt lat="41.3209490734837" lon="2.1049864266412066"><ele>3.333333333333333</ele><time>2026-04-19T11:55:43.999Z</time></trkpt><trkpt lat="41.320884965874434" lon="2.105039568816722"><ele>3.1666666666666665</ele><time>2026-04-19T11:55:44.999Z</time></trkpt><trkpt lat="41.32078515847716" lon="2.105124651737593"><ele>3.0</ele><time>2026-04-19T11:55:46.999Z</time></trkpt><trkpt lat="41.32069937946067" lon="2.105194503461035"><ele>2.8</ele><time>2026-04-19T11:55:48.999Z</time></trkpt><trkpt lat="41.32060792734057" lon="2.1052651588658935"><ele>2.5999999999999996</ele><time>2026-04-19T11:55:50.999Z</time></trkpt><trkpt lat="41.320522179864966" lon="2.1052819954998214"><ele>2.4000000000000004</ele><time>2026-04-19T11:55:52.999Z</time></trkpt><trkpt lat="41.32046772759334" lon="2.1051533290041284"><ele>2.2</ele><time>2026-04-19T11:55:53.999Z</time></trkpt><trkpt lat="41.32042788484263" lon="2.105055128650034"><ele>2.0</ele><time>2026-04-19T11:55:54.999Z</time></trkpt><trkpt lat="41.32037175986241" lon="2.1049570659485592"><ele>1.8</ele><time>2026-04-19T11:55:55.999Z</time></trkpt><trkpt lat="41.320328367511465" lon="2.104833504625864"><ele>1.6</ele><time>2026-04-19T11:55:56.999Z</time></trkpt><trkpt lat="41.320284583695624" lon="2.1047019347015414"><ele>1.4000000000000001</ele><time>2026-04-19T11:55:57.999Z</time></trkpt><trkpt lat="41.320235087662574" lon="2.104579942043696"><ele>1.2000000000000002</ele><time>2026-04-19T11:55:58.999Z</time></trkpt><trkpt lat="41.320193494695275" lon="2.104477428037903"><ele>1.0</ele><time>2026-04-19T11:55:59.999Z</time></trkpt><trkpt lat="41.32015424214514" lon="2.1043806824039013"><ele>1.0</ele><time>2026-04-19T11:56:00.999Z</time></trkpt><trkpt lat="41.32009844214605" lon="2.1042703390170194"><ele>1.0</ele><time>2026-04-19T11:56:01.999Z</time></trkpt><trkpt lat="41.320045308926545" lon="2.104136686126673"><ele>1.0</ele><time>2026-04-19T11:56:02.999Z</time></trkpt><trkpt lat="41.31999007486228" lon="2.1039973599719035"><ele>1.0</ele><time>2026-04-19T11:56:03.999Z</time></trkpt><trkpt lat="41.31993637773459" lon="2.103859631873875"><ele>1.0</ele><time>2026-04-19T11:56:04.999Z</time></trkpt><trkpt lat="41.31988187123717" lon="2.103705236544163"><ele>1.4</ele><time>2026-04-19T11:56:05.999Z</time></trkpt><trkpt lat="41.319824398449526" lon="2.1035548553895533"><ele>1.8</ele><time>2026-04-19T11:56:06.999Z</time></trkpt><trkpt lat="41.319781072343886" lon="2.1034357407625626"><ele>2.1999999999999997</ele><time>2026-04-19T11:56:07.999Z</time></trkpt><trkpt lat="41.31974086508883" lon="2.1033213470434053"><ele>2.6</ele><time>2026-04-19T11:56:08.999Z</time></trkpt><trkpt lat="41.319707193757566" lon="2.103219933404165"><ele>3.0</ele><time>2026-04-19T11:56:09.999Z</time></trkpt><trkpt lat="41.31967649791947" lon="2.103133982179484"><ele>3.0</ele><time>2026-04-19T11:56:10.999Z</time></trkpt><trkpt lat="41.31966027758124" lon="2.103044047202147"><ele>3.0</ele><time>2026-04-19T11:56:11.999Z</time></trkpt><trkpt lat="41.3196079946023" lon="2.1029388511810225"><ele>3.0</ele><time>2026-04-19T11:56:12.999Z</time></trkpt><trkpt lat="41.31956180672312" lon="2.102808827825269"><ele>3.0</ele><time>2026-04-19T11:56:13.999Z</time></trkpt><trkpt lat="41.3195196147696" lon="2.10266795758449"><ele>3.0</ele><time>2026-04-19T11:56:14.998Z</time></trkpt><trkpt lat="41.31947634409324" lon="2.1025263365322537"><ele>3.75</ele><time>2026-04-19T11:56:15.998Z</time></trkpt><trkpt lat="41.31943065849573" lon="2.1023861766378107"><ele>4.5</ele><time>2026-04-19T11:56:16.998Z</time></trkpt><trkpt lat="41.319386317394795" lon="2.1022428457987368"><ele>5.25</ele><time>2026-04-19T11:56:17.998Z</time></trkpt><trkpt lat="41.31933979489545" lon="2.1020955232609992"><ele>6.0</ele><time>2026-04-19T11:56:18.998Z</time></trkpt><trkpt lat="41.319291248733165" lon="2.101954783286363"><ele>6.0</ele><time>2026-04-19T11:56:19.998Z</time></trkpt><trkpt lat="41.31924117822321" lon="2.101817079916533"><ele>6.0</ele><time>2026-04-19T11:56:20.998Z</time></trkpt><trkpt lat="41.31920268418731" lon="2.101665653756158"><ele>6.0</ele><time>2026-04-19T11:56:21.998Z</time></trkpt><trkpt lat="41.319153880217804" lon="2.1015183156479904"><ele>6.0</ele><time>2026-04-19T11:56:22.998Z</time></trkpt><trkpt lat="41.31910897611577" lon="2.1013764756621103"><ele>6.0</ele><time>2026-04-19T11:56:23.998Z</time></trkpt><trkpt lat="41.31906602502447" lon="2.101244140813385"><ele>6.0</ele><time>2026-04-19T11:56:24.998Z</time></trkpt><trkpt lat="41.31902181267658" lon="2.101119319149575"><ele>6.0</ele><time>2026-04-19T11:56:25.998Z</time></trkpt><trkpt lat="41.318985275696825" lon="2.1009923449447045"><ele>6.0</ele><time>2026-04-19T11:56:26.998Z</time></trkpt><trkpt lat="41.31894984810675" lon="2.1008703404321545"><ele>6.0</ele><time>2026-04-19T11:56:27.998Z</time></trkpt><trkpt lat="41.31891402950611" lon="2.1007496500515153"><ele>5.666666666666667</ele><time>2026-04-19T11:56:28.998Z</time></trkpt><trkpt lat="41.31887469500776" lon="2.1006353288617348"><ele>5.333333333333333</ele><time>2026-04-19T11:56:29.998Z</time></trkpt><trkpt lat="41.31884088772699" lon="2.100529205934132"><ele>5.0</ele><time>2026-04-19T11:56:30.998Z</time></trkpt><trkpt lat="41.318814893970504" lon="2.100438180300831"><ele>4.666666666666666</ele><time>2026-04-19T11:56:31.998Z</time></trkpt><trkpt lat="41.31878528991481" lon="2.1003374425162193"><ele>4.333333333333333</ele><time>2026-04-19T11:56:33.998Z</time></trkpt><trkpt lat="41.31877872062335" lon="2.1001984111018706"><ele>4.0</ele><time>2026-04-19T11:56:36.998Z</time></trkpt><trkpt lat="41.318749238759914" lon="2.1000807828640315"><ele>4.0</ele><time>2026-04-19T11:56:38.998Z</time></trkpt><trkpt lat="41.31866223643861" lon="2.1000552681625946"><ele>4.0</ele><time>2026-04-19T11:56:40.998Z</time></trkpt><trkpt lat="41.3186250676747" lon="2.1001384967561836"><ele>4.0</ele><time>2026-04-19T11:56:41.998Z</time></trkpt><trkpt lat="41.31859996195272" lon="2.10023705268968"><ele>4.0</ele><time>2026-04-19T11:56:43.998Z</time></trkpt><trkpt lat="41.31855055640222" lon="2.100313043299014"><ele>4.0</ele><time>2026-04-19T11:56:47.998Z</time></trkpt><trkpt lat="41.31844112376663" lon="2.1004505946367997"><ele>4.0</ele><time>2026-04-19T11:56:49.998Z</time></trkpt><trkpt lat="41.31836521037978" lon="2.1005351572690674"><ele>4.0</ele><time>2026-04-19T11:56:50.998Z</time></trkpt><trkpt lat="41.3182801257531" lon="2.100641880198518"><ele>4.0</ele><time>2026-04-19T11:56:51.998Z</time></trkpt><trkpt lat="41.318189061725306" lon="2.1007382938423453"><ele>4.0</ele><time>2026-04-19T11:56:52.998Z</time></trkpt><trkpt lat="41.31809823679249" lon="2.1008207531476595"><ele>4.0</ele><time>2026-04-19T11:56:53.998Z</time></trkpt><trkpt lat="41.31803232378368" lon="2.1009103792590995"><ele>4.4</ele><time>2026-04-19T11:56:54.998Z</time></trkpt><trkpt lat="41.31796133229449" lon="2.100990917707185"><ele>4.800000000000001</ele><time>2026-04-19T11:56:55.998Z</time></trkpt><trkpt lat="41.317886898064444" lon="2.1010793667685888"><ele>5.199999999999999</ele><time>2026-04-19T11:56:56.998Z</time></trkpt><trkpt lat="41.317806432982614" lon="2.1011672998939144"><ele>5.6</ele><time>2026-04-19T11:56:57.998Z</time></trkpt><trkpt lat="41.31772532995478" lon="2.1012557793082776"><ele>6.0</ele><time>2026-04-19T11:56:58.998Z</time></trkpt><trkpt lat="41.31764350921675" lon="2.1013399192661035"><ele>6.0</ele><time>2026-04-19T11:56:59.998Z</time></trkpt><trkpt lat="41.317569221572036" lon="2.101432847225477"><ele>6.0</ele><time>2026-04-19T11:57:00.998Z</time></trkpt><trkpt lat="41.31749417274848" lon="2.1015214268466376"><ele>6.0</ele><time>2026-04-19T11:57:01.998Z</time></trkpt><trkpt lat="41.31741956427755" lon="2.101603382902987"><ele>6.0</ele><time>2026-04-19T11:57:02.998Z</time></trkpt><trkpt lat="41.31734485700225" lon="2.1016844217500976"><ele>6.0</ele><time>2026-04-19T11:57:03.998Z</time></trkpt><trkpt lat="41.317273441293125" lon="2.1017687993409973"><ele>4.8</ele><time>2026-04-19T11:57:04.998Z</time></trkpt><trkpt lat="41.317199830871026" lon="2.1018546323481755"><ele>3.5999999999999996</ele><time>2026-04-19T11:57:05.998Z</time></trkpt><trkpt lat="41.31712882300731" lon="2.1019375489095773"><ele>2.4</ele><time>2026-04-19T11:57:06.998Z</time></trkpt><trkpt lat="41.31706546047713" lon="2.102010351678367"><ele>1.2</ele><time>2026-04-19T11:57:07.998Z</time></trkpt><trkpt lat="41.31701548946018" lon="2.1020744541041743"><ele>0.0</ele><time>2026-04-19T11:57:08.999Z</time></trkpt><trkpt lat="41.31693460156684" lon="2.1021632250349143"><ele>0.0</ele><time>2026-04-19T11:57:10.999Z</time></trkpt><trkpt lat="41.316878257846966" lon="2.102227894001246"><ele>0.0</ele><time>2026-04-19T11:57:13.999Z</time></trkpt><trkpt lat="41.31679899116779" lon="2.102229108575855"><ele>0.0</ele><time>2026-04-19T11:57:15.999Z</time></trkpt><trkpt lat="41.3167182976472" lon="2.1021853555690404"><ele>0.0</ele><time>2026-04-19T11:57:16.999Z</time></trkpt><trkpt lat="41.31662760900321" lon="2.1021182427655662"><ele>0.0</ele><time>2026-04-19T11:57:17.999Z</time></trkpt><trkpt lat="41.31653692953668" lon="2.102028999633144"><ele>0.0</ele><time>2026-04-19T11:57:18.999Z</time></trkpt><trkpt lat="41.316464634798955" lon="2.101876158769916"><ele>0.0</ele><time>2026-04-19T11:57:19.999Z</time></trkpt><trkpt lat="41.316369858704725" lon="2.101712592255868"><ele>0.0</ele><time>2026-04-19T11:57:20.999Z</time></trkpt><trkpt lat="41.316251539533646" lon="2.101505495455115"><ele>1.0</ele><time>2026-04-19T11:57:21.999Z</time></trkpt><trkpt lat="41.316111559747995" lon="2.1012559712515158"><ele>2.0</ele><time>2026-04-19T11:57:22.999Z</time></trkpt><trkpt lat="41.31597545450535" lon="2.1010073914314473"><ele>2.0</ele><time>2026-04-19T11:57:23.999Z</time></trkpt><trkpt lat="41.31586177129925" lon="2.100787592980785"><ele>2.0</ele><time>2026-04-19T11:57:24.999Z</time></trkpt><trkpt lat="41.31575172646505" lon="2.1005622771685633"><ele>2.0</ele><time>2026-04-19T11:57:25.999Z</time></trkpt><trkpt lat="41.315641822323634" lon="2.100349658681551"><ele>2.6666666666666665</ele><time>2026-04-19T11:57:26.999Z</time></trkpt><trkpt lat="41.31555447277111" lon="2.1001357810483987"><ele>3.333333333333333</ele><time>2026-04-19T11:57:27.999Z</time></trkpt><trkpt lat="41.31548987918475" lon="2.0999160776583516"><ele>4.0</ele><time>2026-04-19T11:57:28.999Z</time></trkpt><trkpt lat="41.31541121321856" lon="2.0996966282603244"><ele>4.0</ele><time>2026-04-19T11:57:29.999Z</time></trkpt><trkpt lat="41.315330026461304" lon="2.099468725660174"><ele>4.0</ele><time>2026-04-19T11:57:30.999Z</time></trkpt><trkpt lat="41.3152455120396" lon="2.099230059423342"><ele>4.0</ele><time>2026-04-19T11:57:31.999Z</time></trkpt><trkpt lat="41.31515006414937" lon="2.09895891998747"><ele>4.0</ele><time>2026-04-19T11:57:32.999Z</time></trkpt><trkpt lat="41.315041192657695" lon="2.098644973399254"><ele>4.0</ele><time>2026-04-19T11:57:33.999Z</time></trkpt><trkpt lat="41.31492787740238" lon="2.098319838886959"><ele>3.5</ele><time>2026-04-19T11:57:34.999Z</time></trkpt><trkpt lat="41.314823061452465" lon="2.0980271984561405"><ele>3.0</ele><time>2026-04-19T11:57:35.999Z</time></trkpt><trkpt lat="41.314722096809454" lon="2.0977356986852302"><ele>2.5</ele><time>2026-04-19T11:57:36.999Z</time></trkpt><trkpt lat="41.31462047905779" lon="2.0974434202748897"><ele>2.0</ele><time>2026-04-19T11:57:37.999Z</time></trkpt><trkpt lat="41.31451939479807" lon="2.097154891441966"><ele>2.0</ele><time>2026-04-19T11:57:38.999Z</time></trkpt><trkpt lat="41.31441660753651" lon="2.0968615016102667"><ele>2.0</ele><time>2026-04-19T11:57:39.999Z</time></trkpt><trkpt lat="41.314314869051266" lon="2.096569664718893"><ele>3.0</ele><time>2026-04-19T11:57:40.999Z</time></trkpt><trkpt lat="41.31421719984014" lon="2.096288991147842"><ele>4.0</ele><time>2026-04-19T11:57:41.999Z</time></trkpt><trkpt lat="41.31411959078384" lon="2.0960102453802247"><ele>3.0</ele><time>2026-04-19T11:57:42.999Z</time></trkpt><trkpt lat="41.31402259260065" lon="2.095733519040225"><ele>2.0</ele><time>2026-04-19T11:57:43.999Z</time></trkpt><trkpt lat="41.31392587013395" lon="2.0954575792013377"><ele>2.6666666666666665</ele><time>2026-04-19T11:57:44.999Z</time></trkpt><trkpt lat="41.31383506015194" lon="2.0951985072677957"><ele>3.333333333333333</ele><time>2026-04-19T11:57:45.999Z</time></trkpt><trkpt lat="41.313744435431765" lon="2.09493996383038"><ele>4.0</ele><time>2026-04-19T11:57:46.999Z</time></trkpt><trkpt lat="41.31365733576572" lon="2.0946917944563546"><ele>4.0</ele><time>2026-04-19T11:57:47.999Z</time></trkpt><trkpt lat="41.31357024842744" lon="2.0944449085162513"><ele>4.0</ele><time>2026-04-19T11:57:48.999Z</time></trkpt><trkpt lat="41.313485737332776" lon="2.094205325927417"><ele>4.0</ele><time>2026-04-19T11:57:49.999Z</time></trkpt><trkpt lat="41.31340410079407" lon="2.093970946993874"><ele>3.6666666666666665</ele><time>2026-04-19T11:57:50.999Z</time></trkpt><trkpt lat="41.31332815407003" lon="2.0937519948653023"><ele>3.333333333333333</ele><time>2026-04-19T11:57:51.999Z</time></trkpt><trkpt lat="41.313262535710805" lon="2.0935628191912983"><ele>3.0</ele><time>2026-04-19T11:57:52.999Z</time></trkpt><trkpt lat="41.313206886800806" lon="2.0934053943120623"><ele>3.0</ele><time>2026-04-19T11:57:53.999Z</time></trkpt><trkpt lat="41.313162969784315" lon="2.0932821792074643"><ele>3.0</ele><time>2026-04-19T11:57:54.999Z</time></trkpt><trkpt lat="41.31312127103932" lon="2.093165187795085"><ele>3.0</ele><time>2026-04-19T11:57:55.999Z</time></trkpt><trkpt lat="41.31308325696923" lon="2.093057907544975"><ele>3.0</ele><time>2026-04-19T11:57:56.999Z</time></trkpt><trkpt lat="41.31305343883337" lon="2.0929651959154287"><ele>3.0</ele><time>2026-04-19T11:57:57.999Z</time></trkpt><trkpt lat="41.313022565395315" lon="2.092880322537631"><ele>3.0</ele><time>2026-04-19T11:57:58.999Z</time></trkpt><trkpt lat="41.313033398364134" lon="2.0927751548363607"><ele>3.4</ele><time>2026-04-19T11:57:59.999Z</time></trkpt><trkpt lat="41.313032992159656" lon="2.0926790371370747"><ele>3.8</ele><time>2026-04-19T11:58:00.999Z</time></trkpt><trkpt lat="41.31297422082694" lon="2.0925307585225017"><ele>4.2</ele><time>2026-04-19T11:58:02.999Z</time></trkpt><trkpt lat="41.31288580661623" lon="2.092519532453892"><ele>4.6</ele><time>2026-04-19T11:58:03.999Z</time></trkpt><trkpt lat="41.31280418204413" lon="2.092574053210325"><ele>5.0</ele><time>2026-04-19T11:58:04.999Z</time></trkpt><trkpt lat="41.312771839537135" lon="2.0927242974404416"><ele>5.0</ele><time>2026-04-19T11:58:05.999Z</time></trkpt><trkpt lat="41.31280738118875" lon="2.0928351431715084"><ele>5.0</ele><time>2026-04-19T11:58:06.999Z</time></trkpt><trkpt lat="41.31268041339325" lon="2.092894186440683"><ele>5.0</ele><time>2026-04-19T11:58:07.999Z</time></trkpt><trkpt lat="41.312618849748176" lon="2.0929440968327624"><ele>5.0</ele><time>2026-04-19T11:58:08.999Z</time></trkpt><trkpt lat="41.312561020373806" lon="2.0929913298731715"><ele>5.0</ele><time>2026-04-19T11:58:09.998Z</time></trkpt><trkpt lat="41.312475647584456" lon="2.0930402889048025"><ele>5.0</ele><time>2026-04-19T11:58:11.998Z</time></trkpt><trkpt lat="41.31240827496517" lon="2.0930896691981284"><ele>5.0</ele><time>2026-04-19T11:58:14.998Z</time></trkpt><trkpt lat="41.3123493054193" lon="2.0929104272962045"><ele>5.0</ele><time>2026-04-19T11:58:17.998Z</time></trkpt><trkpt lat="41.31229965693821" lon="2.0927619631273053"><ele>5.0</ele><time>2026-04-19T11:58:18.998Z</time></trkpt><trkpt lat="41.312245530025564" lon="2.092599958702338"><ele>5.0</ele><time>2026-04-19T11:58:19.998Z</time></trkpt><trkpt lat="41.31219626443577" lon="2.092452504523929"><ele>5.0</ele><time>2026-04-19T11:58:20.998Z</time></trkpt><trkpt lat="41.312123186613064" lon="2.0922923462243075"><ele>5.0</ele><time>2026-04-19T11:58:21.998Z</time></trkpt><trkpt lat="41.31207903202642" lon="2.0921111975840683"><ele>5.0</ele><time>2026-04-19T11:58:22.998Z</time></trkpt><trkpt lat="41.31200241911042" lon="2.0919329236814312"><ele>5.0</ele><time>2026-04-19T11:58:23.998Z</time></trkpt><trkpt lat="41.311937600089365" lon="2.091734688757301"><ele>5.0</ele><time>2026-04-19T11:58:24.998Z</time></trkpt><trkpt lat="41.31186597438851" lon="2.091523454207973"><ele>5.0</ele><time>2026-04-19T11:58:25.998Z</time></trkpt><trkpt lat="41.31179383574642" lon="2.091311404225933"><ele>5.0</ele><time>2026-04-19T11:58:26.998Z</time></trkpt><trkpt lat="41.311720314599384" lon="2.091092963448243"><ele>5.0</ele><time>2026-04-19T11:58:27.998Z</time></trkpt><trkpt lat="41.311645672501186" lon="2.0908879755260856"><ele>5.0</ele><time>2026-04-19T11:58:28.998Z</time></trkpt><trkpt lat="41.31157459174101" lon="2.0906907181326546"><ele>5.0</ele><time>2026-04-19T11:58:29.998Z</time></trkpt><trkpt lat="41.3115241732254" lon="2.0904925688472167"><ele>5.0</ele><time>2026-04-19T11:58:30.998Z</time></trkpt><trkpt lat="41.31145048615957" lon="2.0903191711922577"><ele>5.0</ele><time>2026-04-19T11:58:31.998Z</time></trkpt><trkpt lat="41.31139380311026" lon="2.0901549065374887"><ele>5.0</ele><time>2026-04-19T11:58:32.998Z</time></trkpt><trkpt lat="41.31135268399811" lon="2.089991603139227"><ele>4.5</ele><time>2026-04-19T11:58:33.998Z</time></trkpt><trkpt lat="41.311288172305396" lon="2.089849418769623"><ele>4.0</ele><time>2026-04-19T11:58:34.998Z</time></trkpt><trkpt lat="41.311243576997" lon="2.089705301053144"><ele>3.5</ele><time>2026-04-19T11:58:35.998Z</time></trkpt><trkpt lat="41.31119465712526" lon="2.0895726608987224"><ele>3.0</ele><time>2026-04-19T11:58:36.998Z</time></trkpt><trkpt lat="41.311156380080575" lon="2.0894420798863607"><ele>3.0</ele><time>2026-04-19T11:58:37.998Z</time></trkpt><trkpt lat="41.31116851262539" lon="2.0893255322985116"><ele>3.0</ele><time>2026-04-19T11:58:38.998Z</time></trkpt><trkpt lat="41.31121471866812" lon="2.0892147471713"><ele>3.0</ele><time>2026-04-19T11:58:39.998Z</time></trkpt><trkpt lat="41.311251430176966" lon="2.0890976867579782"><ele>3.0</ele><time>2026-04-19T11:58:40.998Z</time></trkpt><trkpt lat="41.311246083207664" lon="2.088973239560907"><ele>3.0</ele><time>2026-04-19T11:58:41.998Z</time></trkpt><trkpt lat="41.31120220191668" lon="2.0888435548505715"><ele>3.0</ele><time>2026-04-19T11:58:42.998Z</time></trkpt><trkpt lat="41.311134807882574" lon="2.0887095548375156"><ele>3.0</ele><time>2026-04-19T11:58:43.998Z</time></trkpt><trkpt lat="41.3110531382722" lon="2.08856440170228"><ele>3.0</ele><time>2026-04-19T11:58:44.998Z</time></trkpt><trkpt lat="41.3109801588064" lon="2.088367514092704"><ele>3.0</ele><time>2026-04-19T11:58:45.998Z</time></trkpt><trkpt lat="41.31090715803605" lon="2.0881628939701717"><ele>3.333333333333333</ele><time>2026-04-19T11:58:46.998Z</time></trkpt><trkpt lat="41.310838075040195" lon="2.087957995126186"><ele>3.6666666666666665</ele><time>2026-04-19T11:58:47.998Z</time></trkpt><trkpt lat="41.310765192744434" lon="2.087750891277674"><ele>4.0</ele><time>2026-04-19T11:58:48.998Z</time></trkpt><trkpt lat="41.310691328990465" lon="2.0875381396552926"><ele>4.333333333333333</ele><time>2026-04-19T11:58:49.998Z</time></trkpt><trkpt lat="41.310620780031584" lon="2.08734670201648"><ele>4.666666666666667</ele><time>2026-04-19T11:58:50.998Z</time></trkpt><trkpt lat="41.310550890031635" lon="2.087166607093972"><ele>5.0</ele><time>2026-04-19T11:58:51.998Z</time></trkpt><trkpt lat="41.31048618582888" lon="2.086982229125759"><ele>5.0</ele><time>2026-04-19T11:58:52.998Z</time></trkpt><trkpt lat="41.31042684579235" lon="2.086792431879907"><ele>5.0</ele><time>2026-04-19T11:58:53.998Z</time></trkpt><trkpt lat="41.31037026138147" lon="2.086618436820169"><ele>5.0</ele><time>2026-04-19T11:58:54.998Z</time></trkpt><trkpt lat="41.310321867584825" lon="2.086461299502189"><ele>5.0</ele><time>2026-04-19T11:58:55.998Z</time></trkpt><trkpt lat="41.310270180417284" lon="2.0863211758440503"><ele>5.6</ele><time>2026-04-19T11:58:56.998Z</time></trkpt><trkpt lat="41.310226501750186" lon="2.0861817363729234"><ele>6.2</ele><time>2026-04-19T11:58:57.998Z</time></trkpt><trkpt lat="41.31019929217498" lon="2.086049000378992"><ele>6.800000000000001</ele><time>2026-04-19T11:58:58.998Z</time></trkpt><trkpt lat="41.31018178688343" lon="2.085929474061131"><ele>7.4</ele><time>2026-04-19T11:58:59.998Z</time></trkpt><trkpt lat="41.31015486680909" lon="2.0858108935327024"><ele>8.0</ele><time>2026-04-19T11:59:00.999Z</time></trkpt><trkpt lat="41.31011249559535" lon="2.0856900782136343"><ele>8.0</ele><time>2026-04-19T11:59:01.999Z</time></trkpt><trkpt lat="41.31005210440305" lon="2.0855752286767575"><ele>8.0</ele><time>2026-04-19T11:59:02.999Z</time></trkpt><trkpt lat="41.30998409624759" lon="2.085452392029659"><ele>8.0</ele><time>2026-04-19T11:59:03.999Z</time></trkpt><trkpt lat="41.309932114893236" lon="2.0853144580632677"><ele>8.0</ele><time>2026-04-19T11:59:04.999Z</time></trkpt><trkpt lat="41.3098878325441" lon="2.085171279357365"><ele>8.0</ele><time>2026-04-19T11:59:05.999Z</time></trkpt><trkpt lat="41.309840799813124" lon="2.0850428014238673"><ele>8.0</ele><time>2026-04-19T11:59:06.999Z</time></trkpt><trkpt lat="41.3098018000913" lon="2.0849148849878927"><ele>8.0</ele><time>2026-04-19T11:59:07.999Z</time></trkpt><trkpt lat="41.30976145749037" lon="2.08478596851089"><ele>8.0</ele><time>2026-04-19T11:59:08.999Z</time></trkpt><trkpt lat="41.30970646948571" lon="2.0846530709606825"><ele>8.0</ele><time>2026-04-19T11:59:09.999Z</time></trkpt><trkpt lat="41.30964366202469" lon="2.084543775932739"><ele>7.6000000000000005</ele><time>2026-04-19T11:59:10.999Z</time></trkpt><trkpt lat="41.30961874683179" lon="2.08442054160264"><ele>7.200000000000001</ele><time>2026-04-19T11:59:11.999Z</time></trkpt><trkpt lat="41.30958019492532" lon="2.0843078238698896"><ele>6.8</ele><time>2026-04-19T11:59:12.999Z</time></trkpt><trkpt lat="41.30954594714279" lon="2.084207690778876"><ele>6.4</ele><time>2026-04-19T11:59:13.999Z</time></trkpt><trkpt lat="41.30950878718781" lon="2.084098662665921"><ele>6.0</ele><time>2026-04-19T11:59:14.999Z</time></trkpt><trkpt lat="41.30946942319342" lon="2.0839832317190328"><ele>5.25</ele><time>2026-04-19T11:59:15.999Z</time></trkpt><trkpt lat="41.3094283342615" lon="2.0838627425556604"><ele>4.5</ele><time>2026-04-19T11:59:16.999Z</time></trkpt><trkpt lat="41.30937310545355" lon="2.083735739868057"><ele>3.75</ele><time>2026-04-19T11:59:17.999Z</time></trkpt><trkpt lat="41.30931140659415" lon="2.0836012654844254"><ele>3.0</ele><time>2026-04-19T11:59:18.999Z</time></trkpt><trkpt lat="41.309244197353436" lon="2.0834508223603097"><ele>3.0</ele><time>2026-04-19T11:59:19.999Z</time></trkpt><trkpt lat="41.30917442020954" lon="2.0832954589415635"><ele>3.0</ele><time>2026-04-19T11:59:20.999Z</time></trkpt><trkpt lat="41.30913017405782" lon="2.0831189433080666"><ele>3.0</ele><time>2026-04-19T11:59:21.999Z</time></trkpt><trkpt lat="41.3090800767166" lon="2.0829404340509647"><ele>3.0</ele><time>2026-04-19T11:59:22.999Z</time></trkpt><trkpt lat="41.30903533619151" lon="2.082743206542644"><ele>3.4</ele><time>2026-04-19T11:59:23.999Z</time></trkpt><trkpt lat="41.30898746850048" lon="2.082600084059576"><ele>3.8</ele><time>2026-04-19T11:59:24.999Z</time></trkpt><trkpt lat="41.308949486828915" lon="2.0824667207639003"><ele>4.2</ele><time>2026-04-19T11:59:25.999Z</time></trkpt><trkpt lat="41.308925258984075" lon="2.0823387880368456"><ele>4.6</ele><time>2026-04-19T11:59:26.999Z</time></trkpt><trkpt lat="41.30891536557723" lon="2.0822225534436924"><ele>5.0</ele><time>2026-04-19T11:59:27.999Z</time></trkpt><trkpt lat="41.308934552996675" lon="2.082111807742437"><ele>4.666666666666667</ele><time>2026-04-19T11:59:28.999Z</time></trkpt><trkpt lat="41.30890301293023" lon="2.082018417768676"><ele>4.333333333333334</ele><time>2026-04-19T11:59:29.999Z</time></trkpt><trkpt lat="41.30882696584666" lon="2.0819683946112573"><ele>4.0</ele><time>2026-04-19T11:59:30.999Z</time></trkpt><trkpt lat="41.308753701240235" lon="2.0819427218631503"><ele>3.666666666666667</ele><time>2026-04-19T11:59:31.999Z</time></trkpt><trkpt lat="41.30867824274949" lon="2.0819623715708477"><ele>3.3333333333333335</ele><time>2026-04-19T11:59:32.999Z</time></trkpt><trkpt lat="41.308598836786445" lon="2.0820301375756674"><ele>3.0</ele><time>2026-04-19T11:59:33.999Z</time></trkpt><trkpt lat="41.30852325285958" lon="2.0821423441691698"><ele>3.0</ele><time>2026-04-19T11:59:34.999Z</time></trkpt><trkpt lat="41.30843128741431" lon="2.082264372977393"><ele>3.0</ele><time>2026-04-19T11:59:35.999Z</time></trkpt><trkpt lat="41.308299322956934" lon="2.0823780770593876"><ele>3.0</ele><time>2026-04-19T11:59:36.999Z</time></trkpt><trkpt lat="41.3081435107883" lon="2.082472325967924"><ele>3.333333333333333</ele><time>2026-04-19T11:59:37.999Z</time></trkpt><trkpt lat="41.307963334845034" lon="2.0825831012810583"><ele>3.6666666666666665</ele><time>2026-04-19T11:59:38.999Z</time></trkpt><trkpt lat="41.307801466121425" lon="2.0826857546855395"><ele>4.0</ele><time>2026-04-19T11:59:39.999Z</time></trkpt><trkpt lat="41.30765432371061" lon="2.0827833315905973"><ele>4.0</ele><time>2026-04-19T11:59:40.999Z</time></trkpt><trkpt lat="41.30751493308258" lon="2.082861284118314"><ele>4.0</ele><time>2026-04-19T11:59:41.999Z</time></trkpt><trkpt lat="41.30737960179697" lon="2.082942362040161"><ele>4.0</ele><time>2026-04-19T11:59:42.999Z</time></trkpt><trkpt lat="41.307256124190886" lon="2.083021139750805"><ele>4.0</ele><time>2026-04-19T11:59:43.999Z</time></trkpt><trkpt lat="41.30713773186985" lon="2.0830910387644312"><ele>4.5</ele><time>2026-04-19T11:59:44.999Z</time></trkpt><trkpt lat="41.30704030110586" lon="2.083156258791015"><ele>5.0</ele><time>2026-04-19T11:59:45.999Z</time></trkpt><trkpt lat="41.306954019124035" lon="2.0832049074604684"><ele>5.5</ele><time>2026-04-19T11:59:46.999Z</time></trkpt><trkpt lat="41.30688708057927" lon="2.083220047773533"><ele>6.0</ele><time>2026-04-19T11:59:47.999Z</time></trkpt><trkpt lat="41.30681730363785" lon="2.0831889118812708"><ele>6.500000000000001</ele><time>2026-04-19T11:59:48.999Z</time></trkpt><trkpt lat="41.30675560846834" lon="2.0831254075832355"><ele>7.0</ele><time>2026-04-19T11:59:49.999Z</time></trkpt><trkpt lat="41.30670380128717" lon="2.0830439613113434"><ele>7.0</ele><time>2026-04-19T11:59:50.999Z</time></trkpt><trkpt lat="41.306661586243095" lon="2.0829325345822225"><ele>6.999999999999999</ele><time>2026-04-19T11:59:51.999Z</time></trkpt><trkpt lat="41.30662584679911" lon="2.0828004767358195"><ele>6.999999999999999</ele><time>2026-04-19T11:59:52.999Z</time></trkpt><trkpt lat="41.30658038369626" lon="2.0826630146985208"><ele>7.0</ele><time>2026-04-19T11:59:53.999Z</time></trkpt><trkpt lat="41.306540831785824" lon="2.0825423264959397"><ele>7.0</ele><time>2026-04-19T11:59:54.999Z</time></trkpt><trkpt lat="41.30650963880775" lon="2.0824456381735335"><ele>6.8</ele><time>2026-04-19T11:59:55.999Z</time></trkpt><trkpt lat="41.306465157768386" lon="2.082316365858077"><ele>6.6</ele><time>2026-04-19T11:59:57.999Z</time></trkpt><trkpt lat="41.306441467113075" lon="2.082167103180762"><ele>6.3999999999999995</ele><time>2026-04-19T11:59:59.999Z</time></trkpt><trkpt lat="41.30646782658677" lon="2.082067265389038"><ele>6.199999999999999</ele><time>2026-04-19T12:00:00.999Z</time></trkpt><trkpt lat="41.30648769636369" lon="2.081937712136977"><ele>6.0</ele><time>2026-04-19T12:00:01.999Z</time></trkpt><trkpt lat="41.306522815126684" lon="2.081792557559748"><ele>6.0</ele><time>2026-04-19T12:00:02.999Z</time></trkpt><trkpt lat="41.30655500013602" lon="2.081641998990565"><ele>6.0</ele><time>2026-04-19T12:00:03.999Z</time></trkpt><trkpt lat="41.3065695517049" lon="2.0814804319135796"><ele>6.0</ele><time>2026-04-19T12:00:04.999Z</time></trkpt><trkpt lat="41.30657097060425" lon="2.0813206347626476"><ele>6.0</ele><time>2026-04-19T12:00:05.999Z</time></trkpt><trkpt lat="41.306584703584626" lon="2.081157853440599"><ele>6.25</ele><time>2026-04-19T12:00:06.999Z</time></trkpt><trkpt lat="41.30662211607801" lon="2.080999730698982"><ele>6.5</ele><time>2026-04-19T12:00:07.999Z</time></trkpt><trkpt lat="41.30668639692468" lon="2.0808546412264546"><ele>6.75</ele><time>2026-04-19T12:00:08.999Z</time></trkpt><trkpt lat="41.306779530334246" lon="2.080727098261065"><ele>7.0</ele><time>2026-04-19T12:00:09.999Z</time></trkpt><trkpt lat="41.30689543253454" lon="2.0806177556364545"><ele>7.0</ele><time>2026-04-19T12:00:10.999Z</time></trkpt><trkpt lat="41.30703095710046" lon="2.08052593562791"><ele>7.0</ele><time>2026-04-19T12:00:11.999Z</time></trkpt><trkpt lat="41.30716766015894" lon="2.080448876681677"><ele>7.0</ele><time>2026-04-19T12:00:12.999Z</time></trkpt><trkpt lat="41.307298567112674" lon="2.0803709528226313"><ele>7.0</ele><time>2026-04-19T12:00:13.999Z</time></trkpt><trkpt lat="41.307428270626694" lon="2.0802862900569745"><ele>6.0</ele><time>2026-04-19T12:00:14.999Z</time></trkpt><trkpt lat="41.307561870208474" lon="2.080200204420227"><ele>5.0</ele><time>2026-04-19T12:00:15.999Z</time></trkpt><trkpt lat="41.30769065072975" lon="2.0801146301349447"><ele>4.0</ele><time>2026-04-19T12:00:16.999Z</time></trkpt><trkpt lat="41.307833350698296" lon="2.0800179290603085"><ele>4.0</ele><time>2026-04-19T12:00:17.999Z</time></trkpt><trkpt lat="41.3079807028373" lon="2.079907767099931"><ele>4.0</ele><time>2026-04-19T12:00:18.999Z</time></trkpt><trkpt lat="41.30812610110477" lon="2.0798013360646688"><ele>4.0</ele><time>2026-04-19T12:00:19.999Z</time></trkpt><trkpt lat="41.30825924699604" lon="2.0797076396373453"><ele>4.0</ele><time>2026-04-19T12:00:20.999Z</time></trkpt><trkpt lat="41.30839100238989" lon="2.0796163434623987"><ele>4.0</ele><time>2026-04-19T12:00:21.999Z</time></trkpt><trkpt lat="41.308515812539376" lon="2.079527698882008"><ele>4.0</ele><time>2026-04-19T12:00:22.999Z</time></trkpt><trkpt lat="41.30862898208952" lon="2.0794376822653238"><ele>4.0</ele><time>2026-04-19T12:00:23.999Z</time></trkpt><trkpt lat="41.308731992476865" lon="2.0793413122024584"><ele>4.0</ele><time>2026-04-19T12:00:24.999Z</time></trkpt><trkpt lat="41.30880809914313" lon="2.079214831072382"><ele>4.0</ele><time>2026-04-19T12:00:25.999Z</time></trkpt><trkpt lat="41.308857838602464" lon="2.0790627656565817"><ele>4.0</ele><time>2026-04-19T12:00:26.999Z</time></trkpt><trkpt lat="41.30889199112361" lon="2.0789004204762125"><ele>4.0</ele><time>2026-04-19T12:00:27.999Z</time></trkpt><trkpt lat="41.308893932839084" lon="2.078724611508"><ele>3.6666666666666665</ele><time>2026-04-19T12:00:28.999Z</time></trkpt><trkpt lat="41.30885970783177" lon="2.0785407185059577"><ele>3.333333333333333</ele><time>2026-04-19T12:00:29.999Z</time></trkpt><trkpt lat="41.308791122978334" lon="2.078350768091513"><ele>3.0</ele><time>2026-04-19T12:00:30.999Z</time></trkpt><trkpt lat="41.308708962556416" lon="2.078134377865362"><ele>3.0</ele><time>2026-04-19T12:00:31.999Z</time></trkpt><trkpt lat="41.30862325869851" lon="2.077893169233531"><ele>3.0</ele><time>2026-04-19T12:00:32.999Z</time></trkpt><trkpt lat="41.308538102476575" lon="2.077642020607093"><ele>3.0</ele><time>2026-04-19T12:00:33.999Z</time></trkpt><trkpt lat="41.30845399785384" lon="2.0773939569934603"><ele>3.0</ele><time>2026-04-19T12:00:34.999Z</time></trkpt><trkpt lat="41.30836841815242" lon="2.0771488954530843"><ele>3.0</ele><time>2026-04-19T12:00:35.999Z</time></trkpt><trkpt lat="41.308288361570156" lon="2.076914976061501"><ele>3.0</ele><time>2026-04-19T12:00:36.999Z</time></trkpt><trkpt lat="41.30821410707581" lon="2.0766975562636576"><ele>3.333333333333333</ele><time>2026-04-19T12:00:37.999Z</time></trkpt><trkpt lat="41.30814178670254" lon="2.076488185370054"><ele>3.6666666666666665</ele><time>2026-04-19T12:00:38.999Z</time></trkpt><trkpt lat="41.30807007073788" lon="2.076280172271013"><ele>4.0</ele><time>2026-04-19T12:00:39.999Z</time></trkpt><trkpt lat="41.3079981538035" lon="2.0760761145637403"><ele>4.0</ele><time>2026-04-19T12:00:40.999Z</time></trkpt><trkpt lat="41.30793047729694" lon="2.0758763462724663"><ele>4.0</ele><time>2026-04-19T12:00:41.999Z</time></trkpt><trkpt lat="41.30785819048365" lon="2.0756794487388057"><ele>4.0</ele><time>2026-04-19T12:00:42.999Z</time></trkpt><trkpt lat="41.30778748351596" lon="2.0754751512871596"><ele>4.0</ele><time>2026-04-19T12:00:43.999Z</time></trkpt><trkpt lat="41.30771856504364" lon="2.075270866351877"><ele>4.0</ele><time>2026-04-19T12:00:44.999Z</time></trkpt><trkpt lat="41.30764678032612" lon="2.0750667064801314"><ele>4.0</ele><time>2026-04-19T12:00:45.999Z</time></trkpt><trkpt lat="41.30757284390677" lon="2.0748549310193773"><ele>4.0</ele><time>2026-04-19T12:00:46.999Z</time></trkpt><trkpt lat="41.307500790847065" lon="2.074646508011668"><ele>4.0</ele><time>2026-04-19T12:00:47.999Z</time></trkpt><trkpt lat="41.30742930339168" lon="2.07444223064965"><ele>4.0</ele><time>2026-04-19T12:00:48.999Z</time></trkpt><trkpt lat="41.307373927822695" lon="2.074233426643202"><ele>4.333333333333333</ele><time>2026-04-19T12:00:49.999Z</time></trkpt><trkpt lat="41.30731287616637" lon="2.074025484176082"><ele>4.666666666666667</ele><time>2026-04-19T12:00:50.999Z</time></trkpt><trkpt lat="41.3072339909744" lon="2.0738311887663676"><ele>5.0</ele><time>2026-04-19T12:00:51.999Z</time></trkpt><trkpt lat="41.30715487555785" lon="2.0736296095884983"><ele>5.0</ele><time>2026-04-19T12:00:52.999Z</time></trkpt><trkpt lat="41.30707877808367" lon="2.073425653638459"><ele>5.0</ele><time>2026-04-19T12:00:53.999Z</time></trkpt><trkpt lat="41.30700646106728" lon="2.073224905036675"><ele>5.0</ele><time>2026-04-19T12:00:54.999Z</time></trkpt><trkpt lat="41.30694062422851" lon="2.073041777155239"><ele>5.0</ele><time>2026-04-19T12:00:55.999Z</time></trkpt><trkpt lat="41.30688616625959" lon="2.0728853832026957"><ele>5.0</ele><time>2026-04-19T12:00:56.999Z</time></trkpt><trkpt lat="41.30684025179872" lon="2.072753524615707"><ele>5.0</ele><time>2026-04-19T12:00:57.999Z</time></trkpt><trkpt lat="41.30678171129923" lon="2.072619953909139"><ele>5.0</ele><time>2026-04-19T12:00:58.999Z</time></trkpt><trkpt lat="41.30672196496912" lon="2.0724536452280273"><ele>5.0</ele><time>2026-04-19T12:00:59.999Z</time></trkpt><trkpt lat="41.30666646322938" lon="2.072272229590294"><ele>5.0</ele><time>2026-04-19T12:01:00.999Z</time></trkpt><trkpt lat="41.30660304369729" lon="2.072108833193503"><ele>5.0</ele><time>2026-04-19T12:01:01.998Z</time></trkpt><trkpt lat="41.306554352818715" lon="2.071958902169179"><ele>5.0</ele><time>2026-04-19T12:01:02.998Z</time></trkpt><trkpt lat="41.30651190841431" lon="2.0718191728845343"><ele>5.0</ele><time>2026-04-19T12:01:03.998Z</time></trkpt><trkpt lat="41.306479443354995" lon="2.0716823673849727"><ele>5.0</ele><time>2026-04-19T12:01:04.998Z</time></trkpt><trkpt lat="41.30643753342732" lon="2.071541894751661"><ele>5.0</ele><time>2026-04-19T12:01:05.998Z</time></trkpt><trkpt lat="41.306392413743396" lon="2.071401652100677"><ele>5.0</ele><time>2026-04-19T12:01:07Z</time></trkpt><trkpt lat="41.30637417453506" lon="2.071231946100405"><ele>5.0</ele><time>2026-04-19T12:01:08Z</time></trkpt><trkpt lat="41.306275284695445" lon="2.0710920996605995"><ele>5.0</ele><time>2026-04-19T12:01:09Z</time></trkpt><trkpt lat="41.3062059575923" lon="2.070920957085142"><ele>5.0</ele><time>2026-04-19T12:01:10Z</time></trkpt><trkpt lat="41.30614821483976" lon="2.070736790406856"><ele>5.0</ele><time>2026-04-19T12:01:11Z</time></trkpt><trkpt lat="41.30608849703306" lon="2.0705469284947338"><ele>5.0</ele><time>2026-04-19T12:01:12Z</time></trkpt><trkpt lat="41.3060261134896" lon="2.0703618547212734"><ele>5.0</ele><time>2026-04-19T12:01:13Z</time></trkpt><trkpt lat="41.30596288827552" lon="2.0701776058317622"><ele>5.0</ele><time>2026-04-19T12:01:14Z</time></trkpt><trkpt lat="41.30590409256239" lon="2.070001215521548"><ele>5.0</ele><time>2026-04-19T12:01:15Z</time></trkpt><trkpt lat="41.30584593367232" lon="2.0698303585672697"><ele>5.0</ele><time>2026-04-19T12:01:16Z</time></trkpt><trkpt lat="41.3057859052173" lon="2.0696543575051436"><ele>5.0</ele><time>2026-04-19T12:01:17Z</time></trkpt><trkpt lat="41.30572384968813" lon="2.0694738674462516"><ele>5.0</ele><time>2026-04-19T12:01:18Z</time></trkpt><trkpt lat="41.30566068600079" lon="2.0692933102840225"><ele>5.0</ele><time>2026-04-19T12:01:19Z</time></trkpt><trkpt lat="41.305596122765174" lon="2.069103191973565"><ele>4.666666666666667</ele><time>2026-04-19T12:01:20Z</time></trkpt><trkpt lat="41.305530612451086" lon="2.0689095499825494"><ele>4.333333333333333</ele><time>2026-04-19T12:01:21Z</time></trkpt><trkpt lat="41.30546203360694" lon="2.0687096472370987"><ele>4.0</ele><time>2026-04-19T12:01:22Z</time></trkpt><trkpt lat="41.30539363613271" lon="2.068509896140503"><ele>4.0</ele><time>2026-04-19T12:01:23Z</time></trkpt><trkpt lat="41.30532636545974" lon="2.0683110712773156"><ele>4.0</ele><time>2026-04-19T12:01:24Z</time></trkpt><trkpt lat="41.30525787175097" lon="2.0681137071405056"><ele>4.0</ele><time>2026-04-19T12:01:25Z</time></trkpt><trkpt lat="41.30519033420328" lon="2.067922560113894"><ele>4.0</ele><time>2026-04-19T12:01:26Z</time></trkpt><trkpt lat="41.30512063716792" lon="2.06772801216304"><ele>4.0</ele><time>2026-04-19T12:01:27Z</time></trkpt><trkpt lat="41.305052939061596" lon="2.0675328243349016"><ele>4.0</ele><time>2026-04-19T12:01:28Z</time></trkpt><trkpt lat="41.304992239648016" lon="2.0673485565496836"><ele>4.25</ele><time>2026-04-19T12:01:29Z</time></trkpt><trkpt lat="41.30493443126017" lon="2.06717369343313"><ele>4.5</ele><time>2026-04-19T12:01:30Z</time></trkpt><trkpt lat="41.30488164859271" lon="2.067016303977124"><ele>4.75</ele><time>2026-04-19T12:01:31Z</time></trkpt><trkpt lat="41.30483110936561" lon="2.0668693926043917"><ele>5.0</ele><time>2026-04-19T12:01:32Z</time></trkpt><trkpt lat="41.30478252925899" lon="2.0667275178070543"><ele>4.75</ele><time>2026-04-19T12:01:33Z</time></trkpt><trkpt lat="41.304736164171935" lon="2.066582398329049"><ele>4.5</ele><time>2026-04-19T12:01:34Z</time></trkpt><trkpt lat="41.30469018293687" lon="2.0664279948762485"><ele>4.25</ele><time>2026-04-19T12:01:35Z</time></trkpt><trkpt lat="41.304659390052464" lon="2.0662567605969766"><ele>4.0</ele><time>2026-04-19T12:01:36Z</time></trkpt><trkpt lat="41.30457897746442" lon="2.0661045692684588"><ele>4.0</ele><time>2026-04-19T12:01:37Z</time></trkpt><trkpt lat="41.30451243982648" lon="2.0659384215972354"><ele>4.0</ele><time>2026-04-19T12:01:38Z</time></trkpt><trkpt lat="41.304453048048344" lon="2.065762912402045"><ele>4.0</ele><time>2026-04-19T12:01:39Z</time></trkpt><trkpt lat="41.30439236356139" lon="2.0655812651846666"><ele>4.0</ele><time>2026-04-19T12:01:40Z</time></trkpt><trkpt lat="41.30432720996853" lon="2.0653959298375293"><ele>4.0</ele><time>2026-04-19T12:01:41Z</time></trkpt><trkpt lat="41.30426286544064" lon="2.065205581953783"><ele>4.0</ele><time>2026-04-19T12:01:42Z</time></trkpt><trkpt lat="41.30419401454114" lon="2.065013203640134"><ele>4.0</ele><time>2026-04-19T12:01:43Z</time></trkpt><trkpt lat="41.30412685898546" lon="2.0648209339892047"><ele>3.6666666666666665</ele><time>2026-04-19T12:01:44Z</time></trkpt><trkpt lat="41.304061976742894" lon="2.064630863810812"><ele>3.333333333333333</ele><time>2026-04-19T12:01:45Z</time></trkpt><trkpt lat="41.30399935730023" lon="2.0644457982858064"><ele>3.0</ele><time>2026-04-19T12:01:46Z</time></trkpt><trkpt lat="41.303937746456185" lon="2.0642577166056904"><ele>2.75</ele><time>2026-04-19T12:01:47Z</time></trkpt><trkpt lat="41.30387687122402" lon="2.0640855289323112"><ele>2.5</ele><time>2026-04-19T12:01:48Z</time></trkpt><trkpt lat="41.30381722070376" lon="2.0639197079285982"><ele>2.25</ele><time>2026-04-19T12:01:48.999Z</time></trkpt><trkpt lat="41.30376001507204" lon="2.063750578877837"><ele>2.0</ele><time>2026-04-19T12:01:49.999Z</time></trkpt><trkpt lat="41.303699133488685" lon="2.0635738307363978"><ele>2.0</ele><time>2026-04-19T12:01:50.999Z</time></trkpt><trkpt lat="41.30363639839613" lon="2.0633944881458177"><ele>2.0</ele><time>2026-04-19T12:01:51.999Z</time></trkpt><trkpt lat="41.303579454744956" lon="2.063222496368324"><ele>2.0</ele><time>2026-04-19T12:01:52.999Z</time></trkpt><trkpt lat="41.303521436749776" lon="2.063066897731771"><ele>2.0</ele><time>2026-04-19T12:01:53.999Z</time></trkpt><trkpt lat="41.3034706386906" lon="2.06292485106918"><ele>2.0</ele><time>2026-04-19T12:01:54.999Z</time></trkpt><trkpt lat="41.30342763361829" lon="2.062790172002774"><ele>2.0</ele><time>2026-04-19T12:01:55.999Z</time></trkpt><trkpt lat="41.30339089333639" lon="2.0626649115635916"><ele>2.0</ele><time>2026-04-19T12:01:56.999Z</time></trkpt><trkpt lat="41.30335084037308" lon="2.0625572097913087"><ele>2.0</ele><time>2026-04-19T12:01:57.999Z</time></trkpt><trkpt lat="41.30331725553533" lon="2.06245451830305"><ele>2.0</ele><time>2026-04-19T12:01:58.999Z</time></trkpt><trkpt lat="41.303286423854914" lon="2.062348050087136"><ele>2.0</ele><time>2026-04-19T12:01:59.999Z</time></trkpt><trkpt lat="41.30326406855243" lon="2.062230397695915"><ele>2.0</ele><time>2026-04-19T12:02:00.999Z</time></trkpt><trkpt lat="41.303230152469105" lon="2.0621163954919344"><ele>2.0</ele><time>2026-04-19T12:02:01.999Z</time></trkpt><trkpt lat="41.303275767341006" lon="2.061955618706941"><ele>2.0</ele><time>2026-04-19T12:02:02.999Z</time></trkpt><trkpt lat="41.30330699894756" lon="2.0618135727133797"><ele>2.0</ele><time>2026-04-19T12:02:03.999Z</time></trkpt><trkpt lat="41.30331789288505" lon="2.0616942647046947"><ele>2.0</ele><time>2026-04-19T12:02:04.999Z</time></trkpt><trkpt lat="41.30330589689133" lon="2.061607442012946"><ele>2.0</ele><time>2026-04-19T12:02:05.999Z</time></trkpt><trkpt lat="41.30349391615067" lon="2.0615070474452493"><ele>2.0</ele><time>2026-04-19T12:02:06.999Z</time></trkpt><trkpt lat="41.30359736040595" lon="2.061440584468396"><ele>2.0</ele><time>2026-04-19T12:02:07.999Z</time></trkpt><trkpt lat="41.30374164674842" lon="2.0613625005615313"><ele>2.0</ele><time>2026-04-19T12:02:08.999Z</time></trkpt><trkpt lat="41.30388773118456" lon="2.061279789198171"><ele>2.0</ele><time>2026-04-19T12:02:09.999Z</time></trkpt><trkpt lat="41.30400225831112" lon="2.061216885576208"><ele>2.0</ele><time>2026-04-19T12:02:10.999Z</time></trkpt><trkpt lat="41.30410066228046" lon="2.061168840397488"><ele>2.0</ele><time>2026-04-19T12:02:11.999Z</time></trkpt><trkpt lat="41.30418543937913" lon="2.0611415458710214"><ele>1.75</ele><time>2026-04-19T12:02:12.999Z</time></trkpt><trkpt lat="41.304267673337904" lon="2.0611427131341964"><ele>1.5</ele><time>2026-04-19T12:02:13.999Z</time></trkpt><trkpt lat="41.30436157253259" lon="2.0611733662442653"><ele>1.25</ele><time>2026-04-19T12:02:14.999Z</time></trkpt><trkpt lat="41.30448188978662" lon="2.0612490468745155"><ele>1.0</ele><time>2026-04-19T12:02:15.999Z</time></trkpt><trkpt lat="41.30460979296163" lon="2.061339282834568"><ele>0.6666666666666666</ele><time>2026-04-19T12:02:16.999Z</time></trkpt><trkpt lat="41.30475661075524" lon="2.061399201212879"><ele>0.3333333333333333</ele><time>2026-04-19T12:02:17.999Z</time></trkpt><trkpt lat="41.30491081290476" lon="2.061406319430688"><ele>0.0</ele><time>2026-04-19T12:02:18.999Z</time></trkpt><trkpt lat="41.30505842040497" lon="2.0613651525789116"><ele>0.0</ele><time>2026-04-19T12:02:19.999Z</time></trkpt><trkpt lat="41.30519904641193" lon="2.0612895304116936"><ele>0.0</ele><time>2026-04-19T12:02:20.999Z</time></trkpt><trkpt lat="41.30532781293739" lon="2.0611750427302007"><ele>0.0</ele><time>2026-04-19T12:02:21.999Z</time></trkpt><trkpt lat="41.305428549535" lon="2.061019053960364"><ele>0.0</ele><time>2026-04-19T12:02:22.999Z</time></trkpt><trkpt lat="41.30550505063821" lon="2.060790842424769"><ele>0.0</ele><time>2026-04-19T12:02:23.999Z</time></trkpt><trkpt lat="41.30556156556924" lon="2.0606010279691214"><ele>0.0</ele><time>2026-04-19T12:02:24.999Z</time></trkpt><trkpt lat="41.30557340602155" lon="2.060399811285306"><ele>0.0</ele><time>2026-04-19T12:02:25.999Z</time></trkpt><trkpt lat="41.30555356536348" lon="2.060191977799219"><ele>0.0</ele><time>2026-04-19T12:02:26.999Z</time></trkpt><trkpt lat="41.30551670728527" lon="2.0599916708788624"><ele>0.0</ele><time>2026-04-19T12:02:27.999Z</time></trkpt><trkpt lat="41.30547791913248" lon="2.0598011949234176"><ele>1.3333333333333333</ele><time>2026-04-19T12:02:28.999Z</time></trkpt><trkpt lat="41.30546220080513" lon="2.0595974759221907"><ele>2.6666666666666665</ele><time>2026-04-19T12:02:29.999Z</time></trkpt><trkpt lat="41.305489398217965" lon="2.059386736557921"><ele>4.0</ele><time>2026-04-19T12:02:30.999Z</time></trkpt><trkpt lat="41.30555190911269" lon="2.0591973851610352"><ele>4.666666666666666</ele><time>2026-04-19T12:02:31.999Z</time></trkpt><trkpt lat="41.30557725492381" lon="2.059010736681858"><ele>5.333333333333333</ele><time>2026-04-19T12:02:32.999Z</time></trkpt><trkpt lat="41.305568936077776" lon="2.0587999753099213"><ele>6.0</ele><time>2026-04-19T12:02:33.999Z</time></trkpt><trkpt lat="41.30554072196988" lon="2.058582515522485"><ele>6.0</ele><time>2026-04-19T12:02:34.999Z</time></trkpt><trkpt lat="41.30549271870449" lon="2.058369429624151"><ele>6.0</ele><time>2026-04-19T12:02:35.999Z</time></trkpt><trkpt lat="41.305445851976195" lon="2.0581652436800537"><ele>6.0</ele><time>2026-04-19T12:02:36.999Z</time></trkpt><trkpt lat="41.30543135662731" lon="2.05793659368504"><ele>5.333333333333333</ele><time>2026-04-19T12:02:37.999Z</time></trkpt><trkpt lat="41.30538490239622" lon="2.0577118647499533"><ele>4.666666666666666</ele><time>2026-04-19T12:02:38.999Z</time></trkpt><trkpt lat="41.30533858085157" lon="2.057493526902217"><ele>4.0</ele><time>2026-04-19T12:02:39.999Z</time></trkpt><trkpt lat="41.30529367151957" lon="2.0572820648283985"><ele>4.0</ele><time>2026-04-19T12:02:40.999Z</time></trkpt><trkpt lat="41.30524768431779" lon="2.057062635830574"><ele>4.0</ele><time>2026-04-19T12:02:41.999Z</time></trkpt><trkpt lat="41.30520075056259" lon="2.0568383914814263"><ele>4.0</ele><time>2026-04-19T12:02:42.999Z</time></trkpt><trkpt lat="41.30515297834713" lon="2.0566100537372702"><ele>4.0</ele><time>2026-04-19T12:02:43.999Z</time></trkpt><trkpt lat="41.30510583204434" lon="2.0563846877051724"><ele>4.0</ele><time>2026-04-19T12:02:44.999Z</time></trkpt><trkpt lat="41.305058830247106" lon="2.056161860561733"><ele>4.0</ele><time>2026-04-19T12:02:45.999Z</time></trkpt><trkpt lat="41.3050004321477" lon="2.055952162783486"><ele>3.6666666666666665</ele><time>2026-04-19T12:02:46.999Z</time></trkpt><trkpt lat="41.304958072981485" lon="2.0557406465093493"><ele>3.333333333333333</ele><time>2026-04-19T12:02:47.999Z</time></trkpt><trkpt lat="41.30490946981517" lon="2.0555430348006913"><ele>3.0</ele><time>2026-04-19T12:02:48.999Z</time></trkpt><trkpt lat="41.304869546905515" lon="2.0553357132718526"><ele>3.0</ele><time>2026-04-19T12:02:49.999Z</time></trkpt><trkpt lat="41.30480570779902" lon="2.0551302391183994"><ele>3.0</ele><time>2026-04-19T12:02:50.999Z</time></trkpt><trkpt lat="41.30473220410165" lon="2.054910390226832"><ele>3.0</ele><time>2026-04-19T12:02:51.999Z</time></trkpt><trkpt lat="41.30465577802174" lon="2.054681905974791"><ele>3.0</ele><time>2026-04-19T12:02:52.999Z</time></trkpt><trkpt lat="41.30457520042162" lon="2.0544429097533183"><ele>3.0</ele><time>2026-04-19T12:02:53.999Z</time></trkpt><trkpt lat="41.30449194676209" lon="2.0541982265935936"><ele>3.0</ele><time>2026-04-19T12:02:54.999Z</time></trkpt><trkpt lat="41.30440677534771" lon="2.0539477249261395"><ele>3.666666666666667</ele><time>2026-04-19T12:02:55.999Z</time></trkpt><trkpt lat="41.30431993004327" lon="2.05369305957776"><ele>4.333333333333334</ele><time>2026-04-19T12:02:56.999Z</time></trkpt><trkpt lat="41.30423311919371" lon="2.053439409810026"><ele>5.0</ele><time>2026-04-19T12:02:57.999Z</time></trkpt><trkpt lat="41.304151051319934" lon="2.0532011438550053"><ele>5.333333333333334</ele><time>2026-04-19T12:02:58.999Z</time></trkpt><trkpt lat="41.30407077791254" lon="2.0529666187253093"><ele>5.666666666666667</ele><time>2026-04-19T12:02:59.999Z</time></trkpt><trkpt lat="41.303989004458685" lon="2.0527255194603318"><ele>6.0</ele><time>2026-04-19T12:03:00.999Z</time></trkpt><trkpt lat="41.30390538183842" lon="2.052476815029284"><ele>5.0</ele><time>2026-04-19T12:03:01.999Z</time></trkpt><trkpt lat="41.303822429672366" lon="2.052228106987736"><ele>4.0</ele><time>2026-04-19T12:03:02.999Z</time></trkpt><trkpt lat="41.3037429418272" lon="2.051973509642512"><ele>3.0</ele><time>2026-04-19T12:03:03.999Z</time></trkpt><trkpt lat="41.30367268053454" lon="2.0517145126725316"><ele>3.0</ele><time>2026-04-19T12:03:04.999Z</time></trkpt><trkpt lat="41.30361330762304" lon="2.0514529062057876"><ele>3.0</ele><time>2026-04-19T12:03:05.999Z</time></trkpt><trkpt lat="41.303554678591546" lon="2.0511882169207323"><ele>3.0</ele><time>2026-04-19T12:03:06.999Z</time></trkpt><trkpt lat="41.303494527862036" lon="2.0509273491075777"><ele>3.0</ele><time>2026-04-19T12:03:07.999Z</time></trkpt><trkpt lat="41.30342043194154" lon="2.0506744603263005"><ele>3.0</ele><time>2026-04-19T12:03:08.999Z</time></trkpt><trkpt lat="41.303372039598386" lon="2.0503988094470045"><ele>3.0</ele><time>2026-04-19T12:03:09.999Z</time></trkpt><trkpt lat="41.303300346456034" lon="2.050097687033493"><ele>3.5</ele><time>2026-04-19T12:03:10.999Z</time></trkpt><trkpt lat="41.30321866020253" lon="2.0497692191199013"><ele>4.0</ele><time>2026-04-19T12:03:11.999Z</time></trkpt><trkpt lat="41.30312989245635" lon="2.0494309655744822"><ele>4.0</ele><time>2026-04-19T12:03:13Z</time></trkpt><trkpt lat="41.30303445857304" lon="2.049077609331139"><ele>4.0</ele><time>2026-04-19T12:03:14Z</time></trkpt><trkpt lat="41.30294225043642" lon="2.048734956372041"><ele>4.0</ele><time>2026-04-19T12:03:15Z</time></trkpt><trkpt lat="41.30286108262443" lon="2.0484247042661323"><ele>4.0</ele><time>2026-04-19T12:03:16Z</time></trkpt><trkpt lat="41.30278729837656" lon="2.048142021111208"><ele>4.0</ele><time>2026-04-19T12:03:17Z</time></trkpt><trkpt lat="41.30271667500909" lon="2.0478715701455057"><ele>4.0</ele><time>2026-04-19T12:03:18Z</time></trkpt><trkpt lat="41.302650986973845" lon="2.047620018899801"><ele>4.0</ele><time>2026-04-19T12:03:19Z</time></trkpt><trkpt lat="41.30258890300296" lon="2.04738271373016"><ele>4.0</ele><time>2026-04-19T12:03:20Z</time></trkpt><trkpt lat="41.30251277132041" lon="2.0471599743466133"><ele>4.0</ele><time>2026-04-19T12:03:21Z</time></trkpt><trkpt lat="41.30245430560903" lon="2.0469502121876917"><ele>4.0</ele><time>2026-04-19T12:03:22Z</time></trkpt><trkpt lat="41.302406345915124" lon="2.046761193863671"><ele>4.0</ele><time>2026-04-19T12:03:23Z</time></trkpt><trkpt lat="41.30237418620481" lon="2.0465892920755477"><ele>4.0</ele><time>2026-04-19T12:03:24Z</time></trkpt><trkpt lat="41.30234920033734" lon="2.046426484259714"><ele>4.0</ele><time>2026-04-19T12:03:25Z</time></trkpt><trkpt lat="41.3023209789458" lon="2.046276579356512"><ele>4.0</ele><time>2026-04-19T12:03:26Z</time></trkpt><trkpt lat="41.30227866186082" lon="2.046113771536949"><ele>4.0</ele><time>2026-04-19T12:03:27Z</time></trkpt><trkpt lat="41.302236129124786" lon="2.045942500147861"><ele>4.0</ele><time>2026-04-19T12:03:28Z</time></trkpt><trkpt lat="41.30217289442463" lon="2.045787822753721"><ele>4.0</ele><time>2026-04-19T12:03:29Z</time></trkpt><trkpt lat="41.30211714500913" lon="2.0456147185833022"><ele>4.0</ele><time>2026-04-19T12:03:30Z</time></trkpt><trkpt lat="41.30205533238819" lon="2.045411118658797"><ele>4.0</ele><time>2026-04-19T12:03:31Z</time></trkpt><trkpt lat="41.30198821500521" lon="2.0451748769354254"><ele>4.0</ele><time>2026-04-19T12:03:32Z</time></trkpt><trkpt lat="41.30192371429143" lon="2.0449326870017175"><ele>4.0</ele><time>2026-04-19T12:03:33Z</time></trkpt><trkpt lat="41.30186168241592" lon="2.0446999289920855"><ele>4.0</ele><time>2026-04-19T12:03:34Z</time></trkpt><trkpt lat="41.301806217419475" lon="2.0444636665588667"><ele>4.0</ele><time>2026-04-19T12:03:35Z</time></trkpt><trkpt lat="41.30174346503022" lon="2.0442260977103897"><ele>4.0</ele><time>2026-04-19T12:03:36Z</time></trkpt><trkpt lat="41.3016774826105" lon="2.0439861325770687"><ele>4.0</ele><time>2026-04-19T12:03:37Z</time></trkpt><trkpt lat="41.30160877868481" lon="2.0437454966498922"><ele>4.0</ele><time>2026-04-19T12:03:38Z</time></trkpt><trkpt lat="41.3015367143096" lon="2.043516888723302"><ele>4.0</ele><time>2026-04-19T12:03:39Z</time></trkpt><trkpt lat="41.30147069789084" lon="2.0432823458634917"><ele>4.0</ele><time>2026-04-19T12:03:40Z</time></trkpt><trkpt lat="41.30140263626249" lon="2.043008519853211"><ele>4.0</ele><time>2026-04-19T12:03:41Z</time></trkpt><trkpt lat="41.30132010169745" lon="2.042713439699826"><ele>4.0</ele><time>2026-04-19T12:03:42Z</time></trkpt><trkpt lat="41.30122843011802" lon="2.0424074761199353"><ele>4.0</ele><time>2026-04-19T12:03:43Z</time></trkpt><trkpt lat="41.30114238325633" lon="2.042083171073488"><ele>4.0</ele><time>2026-04-19T12:03:44Z</time></trkpt><trkpt lat="41.30106472409908" lon="2.041726999877657"><ele>4.0</ele><time>2026-04-19T12:03:45Z</time></trkpt><trkpt lat="41.30100155521163" lon="2.0413474944137846"><ele>3.5</ele><time>2026-04-19T12:03:46Z</time></trkpt><trkpt lat="41.300946815484245" lon="2.040954682071575"><ele>3.0</ele><time>2026-04-19T12:03:47Z</time></trkpt><trkpt lat="41.300905134392174" lon="2.04055405373219"><ele>4.0</ele><time>2026-04-19T12:03:48Z</time></trkpt><trkpt lat="41.30087534678657" lon="2.0401527793135505"><ele>5.0</ele><time>2026-04-19T12:03:49Z</time></trkpt><trkpt lat="41.30083694422917" lon="2.039770608409514"><ele>5.0</ele><time>2026-04-19T12:03:50Z</time></trkpt><trkpt lat="41.30080387083903" lon="2.0393831507889804"><ele>5.0</ele><time>2026-04-19T12:03:51Z</time></trkpt><trkpt lat="41.30075641957005" lon="2.0390149220279516"><ele>6.5</ele><time>2026-04-19T12:03:52Z</time></trkpt><trkpt lat="41.30067278648056" lon="2.0386750124565673"><ele>8.0</ele><time>2026-04-19T12:03:53Z</time></trkpt><trkpt lat="41.300595776149464" lon="2.038330452803923"><ele>5.5</ele><time>2026-04-19T12:03:54Z</time></trkpt><trkpt lat="41.30052948181116" lon="2.037977939442198"><ele>3.0</ele><time>2026-04-19T12:03:55Z</time></trkpt><trkpt lat="41.30044383789443" lon="2.037637754797476"><ele>4.0</ele><time>2026-04-19T12:03:56Z</time></trkpt><trkpt lat="41.30033964891772" lon="2.0373077540613336"><ele>5.0</ele><time>2026-04-19T12:03:57Z</time></trkpt><trkpt lat="41.30022482626705" lon="2.0370015243924366"><ele>5.0</ele><time>2026-04-19T12:03:58Z</time></trkpt><trkpt lat="41.30010895652793" lon="2.0367292876260277"><ele>5.0</ele><time>2026-04-19T12:03:59Z</time></trkpt><trkpt lat="41.299992197250056" lon="2.0364855262498667"><ele>5.0</ele><time>2026-04-19T12:04:00Z</time></trkpt><trkpt lat="41.299886497585504" lon="2.0362576078265526"><ele>5.0</ele><time>2026-04-19T12:04:01Z</time></trkpt><trkpt lat="41.299793483510925" lon="2.036046091496503"><ele>5.0</ele><time>2026-04-19T12:04:02Z</time></trkpt><trkpt lat="41.29970696037835" lon="2.035829416612764"><ele>5.25</ele><time>2026-04-19T12:04:03Z</time></trkpt><trkpt lat="41.299626607357446" lon="2.035643258027518"><ele>5.5</ele><time>2026-04-19T12:04:04Z</time></trkpt><trkpt lat="41.29958514113725" lon="2.0354651329194033"><ele>5.75</ele><time>2026-04-19T12:04:05Z</time></trkpt><trkpt lat="41.29957347968668" lon="2.035282673485261"><ele>6.0</ele><time>2026-04-19T12:04:06Z</time></trkpt><trkpt lat="41.2995655545634" lon="2.0351249945207828"><ele>5.5</ele><time>2026-04-19T12:04:07Z</time></trkpt><trkpt lat="41.29953901093795" lon="2.034969388990012"><ele>5.0</ele><time>2026-04-19T12:04:08Z</time></trkpt><trkpt lat="41.29945823675667" lon="2.03483076385434"><ele>4.5</ele><time>2026-04-19T12:04:09Z</time></trkpt><trkpt lat="41.29932330516566" lon="2.034719262122973"><ele>4.0</ele><time>2026-04-19T12:04:10Z</time></trkpt><trkpt lat="41.2991446876068" lon="2.0346155921303954"><ele>4.0</ele><time>2026-04-19T12:04:11Z</time></trkpt><trkpt lat="41.29942451007268" lon="2.034399703961581"><ele>4.0</ele><time>2026-04-19T12:04:12Z</time></trkpt><trkpt lat="41.299308754999984" lon="2.0342967280913276"><ele>4.0</ele><time>2026-04-19T12:04:13Z</time></trkpt><trkpt lat="41.299211655283095" lon="2.0341280294710287"><ele>4.0</ele><time>2026-04-19T12:04:14Z</time></trkpt><trkpt lat="41.29913333936086" lon="2.0339014056651257"><ele>4.0</ele><time>2026-04-19T12:04:15Z</time></trkpt><trkpt lat="41.29905673787904" lon="2.033654555424301"><ele>4.0</ele><time>2026-04-19T12:04:16Z</time></trkpt><trkpt lat="41.29897686031462" lon="2.033410734980832"><ele>4.0</ele><time>2026-04-19T12:04:17Z</time></trkpt><trkpt lat="41.298900151851015" lon="2.0331860488664257"><ele>4.0</ele><time>2026-04-19T12:04:17.999Z</time></trkpt><trkpt lat="41.29882632919357" lon="2.0329805939183467"><ele>4.0</ele><time>2026-04-19T12:04:18.999Z</time></trkpt><trkpt lat="41.29875620871869" lon="2.0327959912402553"><ele>4.0</ele><time>2026-04-19T12:04:19.999Z</time></trkpt><trkpt lat="41.29869454224081" lon="2.032624362116627"><ele>4.0</ele><time>2026-04-19T12:04:20.999Z</time></trkpt><trkpt lat="41.29863206134179" lon="2.0324579369636138"><ele>4.0</ele><time>2026-04-19T12:04:21.999Z</time></trkpt><trkpt lat="41.29856522509384" lon="2.0322803377580807"><ele>4.0</ele><time>2026-04-19T12:04:22.999Z</time></trkpt><trkpt lat="41.2984993326583" lon="2.032108485335573"><ele>4.0</ele><time>2026-04-19T12:04:23.999Z</time></trkpt><trkpt lat="41.2984228331147" lon="2.031936253527464"><ele>4.0</ele><time>2026-04-19T12:04:24.999Z</time></trkpt><trkpt lat="41.29834423308172" lon="2.031747898708989"><ele>4.333333333333333</ele><time>2026-04-19T12:04:25.999Z</time></trkpt><trkpt lat="41.298262686107634" lon="2.0315553625206624"><ele>4.666666666666667</ele><time>2026-04-19T12:04:26.999Z</time></trkpt><trkpt lat="41.29817487936686" lon="2.031363733406109"><ele>5.0</ele><time>2026-04-19T12:04:27.999Z</time></trkpt><trkpt lat="41.29808862290272" lon="2.031168833432481"><ele>4.333333333333334</ele><time>2026-04-19T12:04:28.999Z</time></trkpt><trkpt lat="41.298005973929065" lon="2.0309718895746838"><ele>3.666666666666667</ele><time>2026-04-19T12:04:29.999Z</time></trkpt><trkpt lat="41.29792170574246" lon="2.0307726140915343"><ele>3.0</ele><time>2026-04-19T12:04:30.999Z</time></trkpt><trkpt lat="41.29784096192535" lon="2.030566159315878"><ele>3.0</ele><time>2026-04-19T12:04:31.999Z</time></trkpt><trkpt lat="41.297759524897195" lon="2.0303566434643723"><ele>3.0</ele><time>2026-04-19T12:04:32.999Z</time></trkpt><trkpt lat="41.2976791780926" lon="2.030141503853441"><ele>3.0</ele><time>2026-04-19T12:04:33.999Z</time></trkpt><trkpt lat="41.29759849060139" lon="2.0299264734965328"><ele>4.0</ele><time>2026-04-19T12:04:34.999Z</time></trkpt><trkpt lat="41.29750697987778" lon="2.029722683582786"><ele>5.0</ele><time>2026-04-19T12:04:35.999Z</time></trkpt><trkpt lat="41.297419726452866" lon="2.029507821644929"><ele>6.0</ele><time>2026-04-19T12:04:36.999Z</time></trkpt><trkpt lat="41.29733283533104" lon="2.0292805197613832"><ele>6.0</ele><time>2026-04-19T12:04:37.999Z</time></trkpt><trkpt lat="41.29725464298483" lon="2.0290344771796898"><ele>6.0</ele><time>2026-04-19T12:04:38.999Z</time></trkpt><trkpt lat="41.29714728356965" lon="2.0288018668968197"><ele>6.0</ele><time>2026-04-19T12:04:39.999Z</time></trkpt><trkpt lat="41.297047108786956" lon="2.0285478326901187"><ele>5.666666666666667</ele><time>2026-04-19T12:04:40.999Z</time></trkpt><trkpt lat="41.29696047757125" lon="2.02828022444707"><ele>5.333333333333334</ele><time>2026-04-19T12:04:41.999Z</time></trkpt><trkpt lat="41.29685981731845" lon="2.028022721474195"><ele>5.0</ele><time>2026-04-19T12:04:42.999Z</time></trkpt><trkpt lat="41.296757299260015" lon="2.027757511710972"><ele>5.0</ele><time>2026-04-19T12:04:43.999Z</time></trkpt><trkpt lat="41.296650886420274" lon="2.0274848147686164"><ele>5.0</ele><time>2026-04-19T12:04:44.999Z</time></trkpt><trkpt lat="41.296544601526556" lon="2.027212445705191"><ele>6.0</ele><time>2026-04-19T12:04:45.999Z</time></trkpt><trkpt lat="41.29643946911623" lon="2.026942181466309"><ele>7.0</ele><time>2026-04-19T12:04:46.999Z</time></trkpt><trkpt lat="41.29633068852932" lon="2.0266622384431936"><ele>6.5</ele><time>2026-04-19T12:04:47.999Z</time></trkpt><trkpt lat="41.29620417657922" lon="2.026340073549621"><ele>6.0</ele><time>2026-04-19T12:04:48.999Z</time></trkpt><trkpt lat="41.296090054328324" lon="2.0260494855733686"><ele>6.333333333333334</ele><time>2026-04-19T12:04:49.999Z</time></trkpt><trkpt lat="41.29597796154921" lon="2.0257984618551492"><ele>6.666666666666667</ele><time>2026-04-19T12:04:50.999Z</time></trkpt><trkpt lat="41.29588872888411" lon="2.0255719586363106"><ele>7.0</ele><time>2026-04-19T12:04:51.999Z</time></trkpt><trkpt lat="41.295804964278425" lon="2.0253555737468933"><ele>7.0</ele><time>2026-04-19T12:04:52.999Z</time></trkpt><trkpt lat="41.2957218405653" lon="2.0251479312490415"><ele>7.0</ele><time>2026-04-19T12:04:53.999Z</time></trkpt><trkpt lat="41.295643666841286" lon="2.024941304450114"><ele>7.0</ele><time>2026-04-19T12:04:54.999Z</time></trkpt><trkpt lat="41.29557353782375" lon="2.024750665615873"><ele>7.333333333333334</ele><time>2026-04-19T12:04:55.999Z</time></trkpt><trkpt lat="41.29550144285058" lon="2.024571981314878"><ele>7.666666666666666</ele><time>2026-04-19T12:04:56.999Z</time></trkpt><trkpt lat="41.295430594981575" lon="2.0243927290038135"><ele>8.0</ele><time>2026-04-19T12:04:57.999Z</time></trkpt><trkpt lat="41.29536063749792" lon="2.024215078783138"><ele>7.25</ele><time>2026-04-19T12:04:58.999Z</time></trkpt><trkpt lat="41.295294781904786" lon="2.0240509981313113"><ele>6.5</ele><time>2026-04-19T12:04:59.999Z</time></trkpt><trkpt lat="41.29523141684227" lon="2.023893354024616"><ele>5.75</ele><time>2026-04-19T12:05:00.999Z</time></trkpt><trkpt lat="41.29516655984333" lon="2.0237285093360087"><ele>5.0</ele><time>2026-04-19T12:05:01.999Z</time></trkpt><trkpt lat="41.29509760305967" lon="2.023555524191169"><ele>5.0</ele><time>2026-04-19T12:05:02.999Z</time></trkpt><trkpt lat="41.29502605600152" lon="2.023367987835832"><ele>5.0</ele><time>2026-04-19T12:05:03.999Z</time></trkpt><trkpt lat="41.294954758932654" lon="2.0231787891541337"><ele>5.0</ele><time>2026-04-19T12:05:04.999Z</time></trkpt><trkpt lat="41.29488442328177" lon="2.022991045263827"><ele>5.25</ele><time>2026-04-19T12:05:05.999Z</time></trkpt><trkpt lat="41.29481062695706" lon="2.0228206446731813"><ele>5.5</ele><time>2026-04-19T12:05:06.999Z</time></trkpt><trkpt lat="41.29474087429938" lon="2.0226579784047334"><ele>5.75</ele><time>2026-04-19T12:05:07.999Z</time></trkpt><trkpt lat="41.29468043977031" lon="2.0224897488596434"><ele>6.0</ele><time>2026-04-19T12:05:08.999Z</time></trkpt><trkpt lat="41.294611348788436" lon="2.0223197718363854"><ele>6.333333333333334</ele><time>2026-04-19T12:05:09.999Z</time></trkpt><trkpt lat="41.29453970403235" lon="2.0221481204757357"><ele>6.666666666666667</ele><time>2026-04-19T12:05:10.999Z</time></trkpt><trkpt lat="41.29446344875647" lon="2.021966982757934"><ele>7.0</ele><time>2026-04-19T12:05:11.999Z</time></trkpt><trkpt lat="41.2943884541214" lon="2.0217743378637962"><ele>7.0</ele><time>2026-04-19T12:05:12.999Z</time></trkpt><trkpt lat="41.29431960196707" lon="2.0215725099236024"><ele>7.0</ele><time>2026-04-19T12:05:13.999Z</time></trkpt><trkpt lat="41.2942520952083" lon="2.0213614832242004"><ele>7.0</ele><time>2026-04-19T12:05:14.999Z</time></trkpt><trkpt lat="41.294186731184894" lon="2.021153542857862"><ele>7.0</ele><time>2026-04-19T12:05:15.999Z</time></trkpt><trkpt lat="41.29412412860945" lon="2.020945180883549"><ele>7.0</ele><time>2026-04-19T12:05:16.999Z</time></trkpt><trkpt lat="41.294061897537944" lon="2.0207438938849576"><ele>7.0</ele><time>2026-04-19T12:05:17.999Z</time></trkpt><trkpt lat="41.29400907134555" lon="2.0205618793388886"><ele>6.75</ele><time>2026-04-19T12:05:19Z</time></trkpt><trkpt lat="41.2939654201915" lon="2.020395048305013"><ele>6.5</ele><time>2026-04-19T12:05:20Z</time></trkpt><trkpt lat="41.29391945345298" lon="2.0202297714605555"><ele>6.25</ele><time>2026-04-19T12:05:21Z</time></trkpt><trkpt lat="41.293875825465115" lon="2.0200735622441113"><ele>6.0</ele><time>2026-04-19T12:05:22Z</time></trkpt><trkpt lat="41.293833837649856" lon="2.0199360111052496"><ele>5.8</ele><time>2026-04-19T12:05:23Z</time></trkpt><trkpt lat="41.29379594247932" lon="2.0198034637205553"><ele>5.6</ele><time>2026-04-19T12:05:24Z</time></trkpt><trkpt lat="41.293764596259074" lon="2.0196767610346087"><ele>5.4</ele><time>2026-04-19T12:05:25Z</time></trkpt><trkpt lat="41.2937308236227" lon="2.0195506206046634"><ele>5.2</ele><time>2026-04-19T12:05:26Z</time></trkpt><trkpt lat="41.29369166812408" lon="2.0194119825853445"><ele>5.0</ele><time>2026-04-19T12:05:27Z</time></trkpt><trkpt lat="41.293649044849765" lon="2.0192627839726054"><ele>4.5</ele><time>2026-04-19T12:05:28Z</time></trkpt><trkpt lat="41.29360502329917" lon="2.0191112311864488"><ele>4.0</ele><time>2026-04-19T12:05:29Z</time></trkpt><trkpt lat="41.29356384805329" lon="2.018960400687872"><ele>3.5</ele><time>2026-04-19T12:05:30Z</time></trkpt><trkpt lat="41.29352693462949" lon="2.0188117606482296"><ele>3.0</ele><time>2026-04-19T12:05:31Z</time></trkpt><trkpt lat="41.2934843725567" lon="2.0186656005251358"><ele>3.0</ele><time>2026-04-19T12:05:32Z</time></trkpt><trkpt lat="41.29344471174497" lon="2.0185092020301125"><ele>3.0</ele><time>2026-04-19T12:05:33Z</time></trkpt><trkpt lat="41.29339875977292" lon="2.0183544147660526"><ele>3.0</ele><time>2026-04-19T12:05:34Z</time></trkpt><trkpt lat="41.2933495077481" lon="2.018195377126785"><ele>3.0</ele><time>2026-04-19T12:05:35Z</time></trkpt><trkpt lat="41.2932984346889" lon="2.018034499681611"><ele>3.5</ele><time>2026-04-19T12:05:36Z</time></trkpt><trkpt lat="41.293245026805685" lon="2.017882524818732"><ele>4.0</ele><time>2026-04-19T12:05:37Z</time></trkpt><trkpt lat="41.29318875680521" lon="2.0177519832676336"><ele>4.5</ele><time>2026-04-19T12:05:38Z</time></trkpt><trkpt lat="41.293129546506854" lon="2.0176295593146647"><ele>5.0</ele><time>2026-04-19T12:05:39Z</time></trkpt><trkpt lat="41.29305648404416" lon="2.017505527690354"><ele>4.75</ele><time>2026-04-19T12:05:40Z</time></trkpt><trkpt lat="41.29298191997586" lon="2.0173794744110785"><ele>4.5</ele><time>2026-04-19T12:05:41Z</time></trkpt><trkpt lat="41.292907957276576" lon="2.0172551101326803"><ele>4.25</ele><time>2026-04-19T12:05:42Z</time></trkpt><trkpt lat="41.29283717644614" lon="2.017136834255549"><ele>4.0</ele><time>2026-04-19T12:05:43Z</time></trkpt><trkpt lat="41.292765777339824" lon="2.0170208626558566"><ele>4.0</ele><time>2026-04-19T12:05:44Z</time></trkpt><trkpt lat="41.292693759416466" lon="2.016898435057976"><ele>4.0</ele><time>2026-04-19T12:05:45Z</time></trkpt><trkpt lat="41.29261525464733" lon="2.0167695233351126"><ele>4.0</ele><time>2026-04-19T12:05:46Z</time></trkpt><trkpt lat="41.29254002917636" lon="2.0166355152820916"><ele>4.0</ele><time>2026-04-19T12:05:47Z</time></trkpt><trkpt lat="41.292458485708934" lon="2.0165092330694807"><ele>4.0</ele><time>2026-04-19T12:05:48Z</time></trkpt><trkpt lat="41.29238409205008" lon="2.0163791069591595"><ele>4.0</ele><time>2026-04-19T12:05:49Z</time></trkpt><trkpt lat="41.29231088485447" lon="2.0162553304795217"><ele>4.0</ele><time>2026-04-19T12:05:50Z</time></trkpt><trkpt lat="41.29224966896304" lon="2.016144539183266"><ele>4.0</ele><time>2026-04-19T12:05:51Z</time></trkpt><trkpt lat="41.292186845001076" lon="2.016039056177639"><ele>4.0</ele><time>2026-04-19T12:05:52Z</time></trkpt><trkpt lat="41.292120687936816" lon="2.0159382967294857"><ele>3.9999999999999996</ele><time>2026-04-19T12:05:53Z</time></trkpt><trkpt lat="41.29205690679347" lon="2.0158411683652178"><ele>4.0</ele><time>2026-04-19T12:05:54Z</time></trkpt><trkpt lat="41.291996667251944" lon="2.015742966665682"><ele>4.0</ele><time>2026-04-19T12:05:55Z</time></trkpt><trkpt lat="41.29194912116327" lon="2.0156448044334527"><ele>4.0</ele><time>2026-04-19T12:05:56Z</time></trkpt><trkpt lat="41.29189995372148" lon="2.015564815346838"><ele>3.9999999999999996</ele><time>2026-04-19T12:05:57Z</time></trkpt><trkpt lat="41.291850807978705" lon="2.015495551331369"><ele>4.0</ele><time>2026-04-19T12:05:58Z</time></trkpt><trkpt lat="41.29180151959994" lon="2.0154208742605304"><ele>4.2</ele><time>2026-04-19T12:05:59Z</time></trkpt><trkpt lat="41.291756005506244" lon="2.0153442267641966"><ele>4.4</ele><time>2026-04-19T12:06:00Z</time></trkpt><trkpt lat="41.29171398285653" lon="2.015263043661484"><ele>4.6</ele><time>2026-04-19T12:06:01Z</time></trkpt><trkpt lat="41.29165901051442" lon="2.0151150207761894"><ele>4.8</ele><time>2026-04-19T12:06:03Z</time></trkpt><trkpt lat="41.291647352921075" lon="2.014931056716494"><ele>5.0</ele><time>2026-04-19T12:06:05Z</time></trkpt><trkpt lat="41.291653233048216" lon="2.014818202565648"><ele>5.0</ele><time>2026-04-19T12:06:06Z</time></trkpt><trkpt lat="41.291637765586124" lon="2.0147036845860082"><ele>5.0</ele><time>2026-04-19T12:06:07Z</time></trkpt><trkpt lat="41.291614943081086" lon="2.0145879159680073"><ele>5.0</ele><time>2026-04-19T12:06:08Z</time></trkpt><trkpt lat="41.29153053929187" lon="2.014506951238484"><ele>5.0</ele><time>2026-04-19T12:06:09Z</time></trkpt><trkpt lat="41.29143848434054" lon="2.014437247604566"><ele>5.0</ele><time>2026-04-19T12:06:10Z</time></trkpt><trkpt lat="41.29132255628677" lon="2.014379303987019"><ele>5.0</ele><time>2026-04-19T12:06:11Z</time></trkpt><trkpt lat="41.291207208122756" lon="2.0143027838287124"><ele>5.0</ele><time>2026-04-19T12:06:12Z</time></trkpt><trkpt lat="41.29111231889337" lon="2.0141948841107014"><ele>5.0</ele><time>2026-04-19T12:06:13Z</time></trkpt><trkpt lat="41.291031061453786" lon="2.014081422490108"><ele>5.0</ele><time>2026-04-19T12:06:14Z</time></trkpt><trkpt lat="41.29095558922335" lon="2.0139526809596306"><ele>4.8</ele><time>2026-04-19T12:06:15Z</time></trkpt><trkpt lat="41.290893640316746" lon="2.013824005639189"><ele>4.6</ele><time>2026-04-19T12:06:16Z</time></trkpt><trkpt lat="41.29084149213962" lon="2.013704879934933"><ele>4.4</ele><time>2026-04-19T12:06:17Z</time></trkpt><trkpt lat="41.29079190981672" lon="2.0135979699391022"><ele>4.2</ele><time>2026-04-19T12:06:18Z</time></trkpt><trkpt lat="41.2907391976291" lon="2.013494408323489"><ele>4.0</ele><time>2026-04-19T12:06:19Z</time></trkpt><trkpt lat="41.290689969847705" lon="2.0133801986732442"><ele>3.8000000000000003</ele><time>2026-04-19T12:06:20Z</time></trkpt><trkpt lat="41.290636701211206" lon="2.013264654689799"><ele>3.6000000000000005</ele><time>2026-04-19T12:06:21Z</time></trkpt><trkpt lat="41.290583214905396" lon="2.013147813857703"><ele>3.4</ele><time>2026-04-19T12:06:22Z</time></trkpt><trkpt lat="41.290552877488274" lon="2.0130160435333644"><ele>3.2</ele><time>2026-04-19T12:06:23Z</time></trkpt><trkpt lat="41.29050069207483" lon="2.0129088292271042"><ele>3.0</ele><time>2026-04-19T12:06:24Z</time></trkpt><trkpt lat="41.290470999153285" lon="2.0128026158821983"><ele>3.0</ele><time>2026-04-19T12:06:25Z</time></trkpt><trkpt lat="41.29044377052344" lon="2.0126892276176185"><ele>3.0</ele><time>2026-04-19T12:06:26Z</time></trkpt><trkpt lat="41.29042038765011" lon="2.012566135918379"><ele>3.0</ele><time>2026-04-19T12:06:27Z</time></trkpt><trkpt lat="41.2904024704046" lon="2.0124371090667537"><ele>3.0</ele><time>2026-04-19T12:06:28Z</time></trkpt><trkpt lat="41.290396076299494" lon="2.0122999319881973"><ele>3.0</ele><time>2026-04-19T12:06:29Z</time></trkpt><trkpt lat="41.29038606929529" lon="2.0121475770266883"><ele>3.0</ele><time>2026-04-19T12:06:30Z</time></trkpt><trkpt lat="41.29036603421486" lon="2.0119912908542945"><ele>3.0</ele><time>2026-04-19T12:06:31Z</time></trkpt><trkpt lat="41.29033694022502" lon="2.011839881074752"><ele>3.0</ele><time>2026-04-19T12:06:32Z</time></trkpt><trkpt lat="41.29030409769506" lon="2.011697320209538"><ele>3.0</ele><time>2026-04-19T12:06:33Z</time></trkpt><trkpt lat="41.29027734442508" lon="2.011562617241706"><ele>3.5999999999999996</ele><time>2026-04-19T12:06:34Z</time></trkpt><trkpt lat="41.29024544280561" lon="2.011439069995054"><ele>4.199999999999999</ele><time>2026-04-19T12:06:35Z</time></trkpt><trkpt lat="41.29020933471006" lon="2.011327109532266"><ele>4.8</ele><time>2026-04-19T12:06:36Z</time></trkpt><trkpt lat="41.29018402863261" lon="2.0112100555318393"><ele>5.3999999999999995</ele><time>2026-04-19T12:06:37Z</time></trkpt><trkpt lat="41.29013916744938" lon="2.011119396295597"><ele>6.0</ele><time>2026-04-19T12:06:38Z</time></trkpt><trkpt lat="41.29025112102751" lon="2.0109783624191486"><ele>6.0</ele><time>2026-04-19T12:06:39Z</time></trkpt><trkpt lat="41.29035828268649" lon="2.0108969900115206"><ele>6.0</ele><time>2026-04-19T12:06:39.999Z</time></trkpt><trkpt lat="41.29050238572857" lon="2.0107982392855535"><ele>6.0</ele><time>2026-04-19T12:06:40.999Z</time></trkpt><trkpt lat="41.2906627597099" lon="2.0106579778075377"><ele>6.0</ele><time>2026-04-19T12:06:41.999Z</time></trkpt><trkpt lat="41.29082273828255" lon="2.0105109424765897"><ele>6.0</ele><time>2026-04-19T12:06:42.999Z</time></trkpt><trkpt lat="41.29098458913075" lon="2.010357022523882"><ele>6.0</ele><time>2026-04-19T12:06:43.999Z</time></trkpt><trkpt lat="41.29114910149822" lon="2.01019857738122"><ele>6.0</ele><time>2026-04-19T12:06:44.999Z</time></trkpt><trkpt lat="41.291317881741776" lon="2.0100314638880405"><ele>6.0</ele><time>2026-04-19T12:06:45.999Z</time></trkpt><trkpt lat="41.29149628680768" lon="2.0098505798239494"><ele>6.0</ele><time>2026-04-19T12:06:46.999Z</time></trkpt><trkpt lat="41.291665838120416" lon="2.0096896108429565"><ele>6.0</ele><time>2026-04-19T12:06:47.999Z</time></trkpt><trkpt lat="41.29181779946942" lon="2.009533319050139"><ele>6.0</ele><time>2026-04-19T12:06:48.999Z</time></trkpt><trkpt lat="41.29195943560732" lon="2.009390436919973"><ele>6.0</ele><time>2026-04-19T12:06:49.999Z</time></trkpt><trkpt lat="41.29210959446275" lon="2.0092444488651506"><ele>5.666666666666667</ele><time>2026-04-19T12:06:50.999Z</time></trkpt><trkpt lat="41.29225229603536" lon="2.009087068392002"><ele>5.333333333333334</ele><time>2026-04-19T12:06:51.999Z</time></trkpt><trkpt lat="41.292399786150376" lon="2.00893265652462"><ele>5.0</ele><time>2026-04-19T12:06:52.999Z</time></trkpt><trkpt lat="41.29254036978141" lon="2.0087831058325554"><ele>5.0</ele><time>2026-04-19T12:06:53.999Z</time></trkpt><trkpt lat="41.29268737928674" lon="2.008627343588234"><ele>5.0</ele><time>2026-04-19T12:06:54.999Z</time></trkpt><trkpt lat="41.292838984989864" lon="2.0084747601211026"><ele>5.0</ele><time>2026-04-19T12:06:55.999Z</time></trkpt><trkpt lat="41.292991481974454" lon="2.0083294856378444"><ele>5.333333333333334</ele><time>2026-04-19T12:06:56.999Z</time></trkpt><trkpt lat="41.29314630234978" lon="2.008194518347051"><ele>5.666666666666667</ele><time>2026-04-19T12:06:57.999Z</time></trkpt><trkpt lat="41.29330032892833" lon="2.008062900845205"><ele>6.0</ele><time>2026-04-19T12:06:58.999Z</time></trkpt><trkpt lat="41.29344946900744" lon="2.00791967951039"><ele>6.0</ele><time>2026-04-19T12:06:59.999Z</time></trkpt><trkpt lat="41.29360164715412" lon="2.007785019786881"><ele>6.0</ele><time>2026-04-19T12:07:00.999Z</time></trkpt><trkpt lat="41.293753380839625" lon="2.0076484645468655"><ele>6.0</ele><time>2026-04-19T12:07:01.999Z</time></trkpt><trkpt lat="41.29390576607753" lon="2.0075160538911905"><ele>5.333333333333333</ele><time>2026-04-19T12:07:02.999Z</time></trkpt><trkpt lat="41.294060412287386" lon="2.0073852521391755"><ele>4.666666666666666</ele><time>2026-04-19T12:07:03.999Z</time></trkpt><trkpt lat="41.29421514430275" lon="2.0072602148332708"><ele>4.0</ele><time>2026-04-19T12:07:04.999Z</time></trkpt><trkpt lat="41.294365968288666" lon="2.0071326998274617"><ele>4.0</ele><time>2026-04-19T12:07:05.999Z</time></trkpt><trkpt lat="41.29451695899446" lon="2.0069991330594066"><ele>4.0</ele><time>2026-04-19T12:07:06.999Z</time></trkpt><trkpt lat="41.29467038656868" lon="2.006865096776622"><ele>4.0</ele><time>2026-04-19T12:07:07.999Z</time></trkpt><trkpt lat="41.29482786464411" lon="2.0067288283065166"><ele>4.666666666666666</ele><time>2026-04-19T12:07:08.999Z</time></trkpt><trkpt lat="41.294988881980295" lon="2.006593062085388"><ele>5.333333333333333</ele><time>2026-04-19T12:07:09.999Z</time></trkpt><trkpt lat="41.29515488592165" lon="2.006453873967652"><ele>6.0</ele><time>2026-04-19T12:07:10.999Z</time></trkpt><trkpt lat="41.29532561677016" lon="2.006309740512747"><ele>6.0</ele><time>2026-04-19T12:07:11.999Z</time></trkpt><trkpt lat="41.29549308509708" lon="2.006165514833862"><ele>6.0</ele><time>2026-04-19T12:07:12.999Z</time></trkpt><trkpt lat="41.29565797678993" lon="2.00601902530273"><ele>6.0</ele><time>2026-04-19T12:07:13.999Z</time></trkpt><trkpt lat="41.29582546051516" lon="2.0058701234131426"><ele>6.0</ele><time>2026-04-19T12:07:14.999Z</time></trkpt><trkpt lat="41.29599685008725" lon="2.0057225978149185"><ele>6.0</ele><time>2026-04-19T12:07:15.999Z</time></trkpt><trkpt lat="41.29616649661596" lon="2.0055773744560423"><ele>6.0</ele><time>2026-04-19T12:07:16.999Z</time></trkpt><trkpt lat="41.29633273141484" lon="2.005439253942696"><ele>7.0</ele><time>2026-04-19T12:07:17.999Z</time></trkpt><trkpt lat="41.29649601471484" lon="2.005302685303863"><ele>8.0</ele><time>2026-04-19T12:07:18.999Z</time></trkpt><trkpt lat="41.29665603583109" lon="2.005168601053171"><ele>9.0</ele><time>2026-04-19T12:07:19.999Z</time></trkpt><trkpt lat="41.29681566255153" lon="2.0050363491408847"><ele>9.0</ele><time>2026-04-19T12:07:20.999Z</time></trkpt><trkpt lat="41.29697144004294" lon="2.004898299197322"><ele>9.0</ele><time>2026-04-19T12:07:21.999Z</time></trkpt><trkpt lat="41.29712323187539" lon="2.0047714748183547"><ele>9.0</ele><time>2026-04-19T12:07:22.999Z</time></trkpt><trkpt lat="41.297273422163364" lon="2.0046450334045116"><ele>9.0</ele><time>2026-04-19T12:07:23.999Z</time></trkpt><trkpt lat="41.29742066466643" lon="2.0045150181456535"><ele>9.0</ele><time>2026-04-19T12:07:25Z</time></trkpt><trkpt lat="41.29756796055707" lon="2.0043848744397526"><ele>9.0</ele><time>2026-04-19T12:07:26Z</time></trkpt><trkpt lat="41.2977189064263" lon="2.004245246704536"><ele>8.666666666666666</ele><time>2026-04-19T12:07:27Z</time></trkpt><trkpt lat="41.297860245033526" lon="2.004093828803335"><ele>8.333333333333332</ele><time>2026-04-19T12:07:28Z</time></trkpt><trkpt lat="41.298000116002434" lon="2.00393637355156"><ele>8.0</ele><time>2026-04-19T12:07:29Z</time></trkpt><trkpt lat="41.29814145388209" lon="2.00379366706934"><ele>8.0</ele><time>2026-04-19T12:07:30Z</time></trkpt><trkpt lat="41.2982644091792" lon="2.0036349518380745"><ele>8.0</ele><time>2026-04-19T12:07:31Z</time></trkpt><trkpt lat="41.29837831618654" lon="2.0034680601840362"><ele>8.0</ele><time>2026-04-19T12:07:32Z</time></trkpt><trkpt lat="41.298492738455835" lon="2.0032698634877293"><ele>8.666666666666666</ele><time>2026-04-19T12:07:33Z</time></trkpt><trkpt lat="41.29859892325827" lon="2.003051744554469"><ele>9.333333333333334</ele><time>2026-04-19T12:07:34Z</time></trkpt><trkpt lat="41.29870366349941" lon="2.0028040055382283"><ele>10.0</ele><time>2026-04-19T12:07:35Z</time></trkpt><trkpt lat="41.29877982952366" lon="2.00258438377148"><ele>12.0</ele><time>2026-04-19T12:07:36Z</time></trkpt><trkpt lat="41.29890094865149" lon="2.0022288874338394"><ele>14.0</ele><time>2026-04-19T12:07:37Z</time></trkpt><trkpt lat="41.29895632714134" lon="2.0019902332794457"><ele>14.0</ele><time>2026-04-19T12:07:38Z</time></trkpt><trkpt lat="41.29900512746253" lon="2.0017531387045175"><ele>14.0</ele><time>2026-04-19T12:07:39Z</time></trkpt><trkpt lat="41.299063944825456" lon="2.0014988685212742"><ele>14.0</ele><time>2026-04-19T12:07:40Z</time></trkpt><trkpt lat="41.299130965315015" lon="2.0012459469324235"><ele>14.666666666666668</ele><time>2026-04-19T12:07:41Z</time></trkpt><trkpt lat="41.299199922811695" lon="2.001006971958906"><ele>15.333333333333332</ele><time>2026-04-19T12:07:42Z</time></trkpt><trkpt lat="41.29927319108546" lon="2.000777209851529"><ele>16.0</ele><time>2026-04-19T12:07:43Z</time></trkpt><trkpt lat="41.29934771507115" lon="2.000552925759718"><ele>17.0</ele><time>2026-04-19T12:07:44Z</time></trkpt><trkpt lat="41.299431343184686" lon="2.00033690300692"><ele>18.0</ele><time>2026-04-19T12:07:45Z</time></trkpt><trkpt lat="41.299514279338965" lon="2.0001424576872986"><ele>19.0</ele><time>2026-04-19T12:07:46Z</time></trkpt><trkpt lat="41.299598955229115" lon="1.9999762869172921"><ele>19.0</ele><time>2026-04-19T12:07:47Z</time></trkpt><trkpt lat="41.29967264442291" lon="1.99983153469994"><ele>19.0</ele><time>2026-04-19T12:07:48Z</time></trkpt><trkpt lat="41.29974645396843" lon="1.9996873883090696"><ele>19.0</ele><time>2026-04-19T12:07:49Z</time></trkpt><trkpt lat="41.29981526924086" lon="1.9995847073031272"><ele>19.0</ele><time>2026-04-19T12:07:50Z</time></trkpt><trkpt lat="41.29988253251973" lon="1.99948854749067"><ele>19.0</ele><time>2026-04-19T12:07:51Z</time></trkpt><trkpt lat="41.29994590498829" lon="1.9993973765551818"><ele>19.0</ele><time>2026-04-19T12:07:52Z</time></trkpt><trkpt lat="41.300008825594546" lon="1.9993070197253422"><ele>19.0</ele><time>2026-04-19T12:07:53Z</time></trkpt><trkpt lat="41.300074771353906" lon="1.9992241842947591"><ele>19.0</ele><time>2026-04-19T12:07:54Z</time></trkpt><trkpt lat="41.30013758800529" lon="1.999154042724778"><ele>19.0</ele><time>2026-04-19T12:07:55Z</time></trkpt><trkpt lat="41.300202595214195" lon="1.99910683798955"><ele>19.0</ele><time>2026-04-19T12:07:56Z</time></trkpt><trkpt lat="41.30027719777507" lon="1.999061480733892"><ele>20.2</ele><time>2026-04-19T12:07:57Z</time></trkpt><trkpt lat="41.30033850555551" lon="1.9989895180512278"><ele>21.4</ele><time>2026-04-19T12:07:58Z</time></trkpt><trkpt lat="41.300432097658046" lon="1.9988490704929878"><ele>22.6</ele><time>2026-04-19T12:07:59Z</time></trkpt><trkpt lat="41.30044652720638" lon="1.998735088383543"><ele>23.8</ele><time>2026-04-19T12:08:05Z</time></trkpt><trkpt lat="41.300531851280965" lon="1.9986230116720967"><ele>25.0</ele><time>2026-04-19T12:08:07Z</time></trkpt><trkpt lat="41.30058769169945" lon="1.998556000739201"><ele>25.000000000000004</ele><time>2026-04-19T12:08:08Z</time></trkpt><trkpt lat="41.30064720448156" lon="1.998487523341802"><ele>25.0</ele><time>2026-04-19T12:08:09Z</time></trkpt><trkpt lat="41.30070858987389" lon="1.9984130504529598"><ele>25.0</ele><time>2026-04-19T12:08:10Z</time></trkpt><trkpt lat="41.300774187744764" lon="1.9983417403521968"><ele>25.0</ele><time>2026-04-19T12:08:11Z</time></trkpt><trkpt lat="41.30084051299542" lon="1.9982706828425383"><ele>25.000000000000004</ele><time>2026-04-19T12:08:12Z</time></trkpt><trkpt lat="41.300896124310746" lon="1.998194033330127"><ele>25.0</ele><time>2026-04-19T12:08:13Z</time></trkpt><trkpt lat="41.30095098560075" lon="1.99812454393069"><ele>25.500000000000004</ele><time>2026-04-19T12:08:14Z</time></trkpt><trkpt lat="41.301010032747534" lon="1.9980545923820383"><ele>26.0</ele><time>2026-04-19T12:08:15Z</time></trkpt><trkpt lat="41.30107546672499" lon="1.9979817662164663"><ele>26.5</ele><time>2026-04-19T12:08:16Z</time></trkpt><trkpt lat="41.30113193934547" lon="1.9979057087153835"><ele>27.0</ele><time>2026-04-19T12:08:17Z</time></trkpt><trkpt lat="41.30118819425217" lon="1.997829181181595"><ele>27.500000000000004</ele><time>2026-04-19T12:08:18Z</time></trkpt><trkpt lat="41.301249208008215" lon="1.9977653406688545"><ele>28.0</ele><time>2026-04-19T12:08:19Z</time></trkpt><trkpt lat="41.30130881386544" lon="1.9976997470390194"><ele>28.000000000000004</ele><time>2026-04-19T12:08:20Z</time></trkpt><trkpt lat="41.30136638667303" lon="1.9976308643128926"><ele>28.0</ele><time>2026-04-19T12:08:21Z</time></trkpt><trkpt lat="41.3014272735647" lon="1.997560408249255"><ele>28.0</ele><time>2026-04-19T12:08:22Z</time></trkpt><trkpt lat="41.30148866217899" lon="1.9974791471971627"><ele>28.0</ele><time>2026-04-19T12:08:23Z</time></trkpt><trkpt lat="41.30155596366112" lon="1.9973874502468916"><ele>28.000000000000004</ele><time>2026-04-19T12:08:24Z</time></trkpt><trkpt lat="41.301622110284335" lon="1.99728788599799"><ele>28.0</ele><time>2026-04-19T12:08:25Z</time></trkpt><trkpt lat="41.30171375025791" lon="1.9971914652627376"><ele>28.0</ele><time>2026-04-19T12:08:26Z</time></trkpt><trkpt lat="41.30179618536929" lon="1.997089392235098"><ele>27.999999999999996</ele><time>2026-04-19T12:08:27Z</time></trkpt><trkpt lat="41.30186740044531" lon="1.9970053720291636"><ele>27.999999999999996</ele><time>2026-04-19T12:08:28Z</time></trkpt><trkpt lat="41.301934016002924" lon="1.9969247814547122"><ele>28.0</ele><time>2026-04-19T12:08:29Z</time></trkpt><trkpt lat="41.30199653358849" lon="1.9968443827027302"><ele>28.0</ele><time>2026-04-19T12:08:30Z</time></trkpt><trkpt lat="41.302062436297355" lon="1.9967605481482729"><ele>28.0</ele><time>2026-04-19T12:08:31Z</time></trkpt><trkpt lat="41.30213181285338" lon="1.9966931185859331"><ele>28.0</ele><time>2026-04-19T12:08:32Z</time></trkpt><trkpt lat="41.30217911144973" lon="1.9966337037707205"><ele>28.0</ele><time>2026-04-19T12:08:33Z</time></trkpt><trkpt lat="41.30223357499893" lon="1.996566382625222"><ele>28.0</ele><time>2026-04-19T12:08:35Z</time></trkpt><trkpt lat="41.30229458212782" lon="1.9964938819249323"><ele>28.0</ele><time>2026-04-19T12:08:37Z</time></trkpt><trkpt lat="41.30234862168868" lon="1.9964375450915628"><ele>28.0</ele><time>2026-04-19T12:08:38Z</time></trkpt><trkpt lat="41.302407863413436" lon="1.9963993466021355"><ele>28.0</ele><time>2026-04-19T12:08:38.999Z</time></trkpt><trkpt lat="41.302477095031904" lon="1.9963743154391804"><ele>27.833333333333336</ele><time>2026-04-19T12:08:39.999Z</time></trkpt><trkpt lat="41.3025502294515" lon="1.9963510354160485"><ele>27.666666666666668</ele><time>2026-04-19T12:08:40.999Z</time></trkpt><trkpt lat="41.302607619564874" lon="1.9963136411144762"><ele>27.5</ele><time>2026-04-19T12:08:41.999Z</time></trkpt><trkpt lat="41.30266307073441" lon="1.9962460776415922"><ele>27.333333333333336</ele><time>2026-04-19T12:08:42.999Z</time></trkpt><trkpt lat="41.302722830533014" lon="1.9961769519511885"><ele>27.166666666666668</ele><time>2026-04-19T12:08:43.999Z</time></trkpt><trkpt lat="41.302743520152916" lon="1.9960648679820308"><ele>27.0</ele><time>2026-04-19T12:08:44.999Z</time></trkpt><trkpt lat="41.302776272894754" lon="1.995971268017043"><ele>27.0</ele><time>2026-04-19T12:08:45.999Z</time></trkpt><trkpt lat="41.302822870046406" lon="1.995898585203219"><ele>27.0</ele><time>2026-04-19T12:08:46.999Z</time></trkpt><trkpt lat="41.30288014595406" lon="1.9958321034660838"><ele>27.0</ele><time>2026-04-19T12:08:47.999Z</time></trkpt><trkpt lat="41.30293449999926" lon="1.9957695256468622"><ele>27.0</ele><time>2026-04-19T12:08:48.999Z</time></trkpt><trkpt lat="41.30298736836614" lon="1.9957090161264142"><ele>27.0</ele><time>2026-04-19T12:08:49.999Z</time></trkpt><trkpt lat="41.30306821852991" lon="1.9956026807688725"><ele>27.0</ele><time>2026-04-19T12:08:51.999Z</time></trkpt><trkpt lat="41.303148720859674" lon="1.995508429301168"><ele>27.25</ele><time>2026-04-19T12:08:53.999Z</time></trkpt><trkpt lat="41.30323531463412" lon="1.995422767572527"><ele>27.5</ele><time>2026-04-19T12:08:55.999Z</time></trkpt><trkpt lat="41.30335197605597" lon="1.9953012026682944"><ele>27.75</ele><time>2026-04-19T12:08:57.999Z</time></trkpt><trkpt lat="41.30345512173513" lon="1.9952166559714875"><ele>28.0</ele><time>2026-04-19T12:08:58.999Z</time></trkpt><trkpt lat="41.303529913702306" lon="1.9951511143543303"><ele>28.0</ele><time>2026-04-19T12:08:59.999Z</time></trkpt><trkpt lat="41.30361593696012" lon="1.9950716993664885"><ele>27.999999999999996</ele><time>2026-04-19T12:09:00.999Z</time></trkpt><trkpt lat="41.30369787583844" lon="1.995004718839257"><ele>27.999999999999996</ele><time>2026-04-19T12:09:01.999Z</time></trkpt><trkpt lat="41.30377596904453" lon="1.9949324537919195"><ele>28.0</ele><time>2026-04-19T12:09:02.999Z</time></trkpt><trkpt lat="41.30385910079871" lon="1.994866406783795"><ele>28.0</ele><time>2026-04-19T12:09:03.999Z</time></trkpt><trkpt lat="41.3039639305938" lon="1.9947939965947548"><ele>28.4</ele><time>2026-04-19T12:09:04.999Z</time></trkpt><trkpt lat="41.30406112286116" lon="1.994728847232033"><ele>28.799999999999997</ele><time>2026-04-19T12:09:05.999Z</time></trkpt><trkpt lat="41.30415047442782" lon="1.9946748791614062"><ele>29.2</ele><time>2026-04-19T12:09:06.999Z</time></trkpt><trkpt lat="41.30424306166377" lon="1.9946168351228513"><ele>29.6</ele><time>2026-04-19T12:09:07.999Z</time></trkpt><trkpt lat="41.304339612524515" lon="1.994569853927424"><ele>30.0</ele><time>2026-04-19T12:09:08.999Z</time></trkpt><trkpt lat="41.30443826174487" lon="1.9945235552261384"><ele>30.0</ele><time>2026-04-19T12:09:09.999Z</time></trkpt><trkpt lat="41.304540816014374" lon="1.9944777394768116"><ele>30.0</ele><time>2026-04-19T12:09:10.999Z</time></trkpt><trkpt lat="41.30463097164315" lon="1.994429604953977"><ele>30.0</ele><time>2026-04-19T12:09:11.999Z</time></trkpt><trkpt lat="41.30471738661333" lon="1.9944034725366777"><ele>30.0</ele><time>2026-04-19T12:09:12.999Z</time></trkpt><trkpt lat="41.304799375443054" lon="1.9943573040342544"><ele>30.0</ele><time>2026-04-19T12:09:13.999Z</time></trkpt><trkpt lat="41.30488084735349" lon="1.9943187688405535"><ele>30.0</ele><time>2026-04-19T12:09:14.999Z</time></trkpt><trkpt lat="41.304964622659895" lon="1.9942670789363672"><ele>30.0</ele><time>2026-04-19T12:09:15.999Z</time></trkpt><trkpt lat="41.30505145620636" lon="1.9942343265065712"><ele>30.0</ele><time>2026-04-19T12:09:16.999Z</time></trkpt><trkpt lat="41.30513861316299" lon="1.9941837784614884"><ele>30.0</ele><time>2026-04-19T12:09:17.999Z</time></trkpt><trkpt lat="41.30522659739309" lon="1.9941392553693864"><ele>30.0</ele><time>2026-04-19T12:09:18.999Z</time></trkpt><trkpt lat="41.30532059739406" lon="1.9940899181112945"><ele>30.2</ele><time>2026-04-19T12:09:19.999Z</time></trkpt><trkpt lat="41.30542260195435" lon="1.9940505463379543"><ele>30.4</ele><time>2026-04-19T12:09:20.999Z</time></trkpt><trkpt lat="41.305528695468574" lon="1.9940091997910003"><ele>30.6</ele><time>2026-04-19T12:09:21.999Z</time></trkpt><trkpt lat="41.30563093368947" lon="1.9939544295136544"><ele>30.8</ele><time>2026-04-19T12:09:22.999Z</time></trkpt><trkpt lat="41.3057387083187" lon="1.9939104525153513"><ele>31.0</ele><time>2026-04-19T12:09:23.999Z</time></trkpt><trkpt lat="41.30582964121608" lon="1.9938671651835214"><ele>32.0</ele><time>2026-04-19T12:09:24.999Z</time></trkpt><trkpt lat="41.305905130146186" lon="1.993824467134479"><ele>33.0</ele><time>2026-04-19T12:09:25.999Z</time></trkpt><trkpt lat="41.30596970026208" lon="1.9937901413549195"><ele>34.0</ele><time>2026-04-19T12:09:26.999Z</time></trkpt><trkpt lat="41.306030569393236" lon="1.9937640965240206"><ele>35.0</ele><time>2026-04-19T12:09:27.999Z</time></trkpt><trkpt lat="41.30614264554248" lon="1.9937498482163856"><ele>36.0</ele><time>2026-04-19T12:09:30Z</time></trkpt><trkpt lat="41.306207348120424" lon="1.9937523594688198"><ele>37.0</ele><time>2026-04-19T12:09:31Z</time></trkpt><trkpt lat="41.306319826936594" lon="1.9936905943403234"><ele>37.0</ele><time>2026-04-19T12:09:33Z</time></trkpt><trkpt lat="41.30636325603714" lon="1.9936177098961152"><ele>37.0</ele><time>2026-04-19T12:09:34Z</time></trkpt><trkpt lat="41.30641821781792" lon="1.9935549560059846"><ele>37.0</ele><time>2026-04-19T12:09:35Z</time></trkpt><trkpt lat="41.30649173681819" lon="1.9934990812448627"><ele>37.0</ele><time>2026-04-19T12:09:36Z</time></trkpt><trkpt lat="41.306591578018775" lon="1.9934317976829605"><ele>37.0</ele><time>2026-04-19T12:09:37Z</time></trkpt><trkpt lat="41.3067140661327" lon="1.993328911030213"><ele>38.25</ele><time>2026-04-19T12:09:38Z</time></trkpt><trkpt lat="41.30683055710958" lon="1.9932082729333447"><ele>39.5</ele><time>2026-04-19T12:09:39Z</time></trkpt><trkpt lat="41.306934529095365" lon="1.9930733287835625"><ele>40.75</ele><time>2026-04-19T12:09:40Z</time></trkpt><trkpt lat="41.30702993840129" lon="1.9929331215231425"><ele>42.0</ele><time>2026-04-19T12:09:41Z</time></trkpt><trkpt lat="41.307126416738946" lon="1.9927842095438832"><ele>42.0</ele><time>2026-04-19T12:09:42Z</time></trkpt><trkpt lat="41.307219639870205" lon="1.9926099857175512"><ele>42.0</ele><time>2026-04-19T12:09:43Z</time></trkpt><trkpt lat="41.307312072978974" lon="1.9924119392899389"><ele>42.0</ele><time>2026-04-19T12:09:44Z</time></trkpt><trkpt lat="41.3073911476524" lon="1.9922017889403814"><ele>44.0</ele><time>2026-04-19T12:09:45Z</time></trkpt><trkpt lat="41.30746050383511" lon="1.991995842771399"><ele>46.0</ele><time>2026-04-19T12:09:46Z</time></trkpt><trkpt lat="41.30751750880428" lon="1.9918241290930159"><ele>48.0</ele><time>2026-04-19T12:09:47Z</time></trkpt><trkpt lat="41.30756657145234" lon="1.9916694723279635"><ele>50.0</ele><time>2026-04-19T12:09:48Z</time></trkpt><trkpt lat="41.30761404409925" lon="1.9915340977179674"><ele>50.4</ele><time>2026-04-19T12:09:49Z</time></trkpt><trkpt lat="41.307661619018766" lon="1.9913950473573414"><ele>50.8</ele><time>2026-04-19T12:09:50Z</time></trkpt><trkpt lat="41.30770798761536" lon="1.991262008045351"><ele>51.2</ele><time>2026-04-19T12:09:51Z</time></trkpt><trkpt lat="41.30775316476545" lon="1.9911435466972744"><ele>51.6</ele><time>2026-04-19T12:09:52Z</time></trkpt><trkpt lat="41.30780719857278" lon="1.9910409217984297"><ele>52.0</ele><time>2026-04-19T12:09:53Z</time></trkpt><trkpt lat="41.307875036613375" lon="1.9909436804616818"><ele>52.6</ele><time>2026-04-19T12:09:54Z</time></trkpt><trkpt lat="41.307933699932086" lon="1.9908399609985308"><ele>53.2</ele><time>2026-04-19T12:09:55Z</time></trkpt><trkpt lat="41.30796292847626" lon="1.990719873780167"><ele>53.8</ele><time>2026-04-19T12:09:56Z</time></trkpt><trkpt lat="41.307952390290644" lon="1.9905999643552894"><ele>54.4</ele><time>2026-04-19T12:09:57Z</time></trkpt><trkpt lat="41.307918185355554" lon="1.9904645440982465"><ele>55.0</ele><time>2026-04-19T12:09:58Z</time></trkpt><trkpt lat="41.307864599048166" lon="1.9902943263175352"><ele>55.0</ele><time>2026-04-19T12:09:59Z</time></trkpt><trkpt lat="41.30779898513382" lon="1.9901041689870105"><ele>55.0</ele><time>2026-04-19T12:10:00Z</time></trkpt><trkpt lat="41.307715182973645" lon="1.989915789616984"><ele>55.0</ele><time>2026-04-19T12:10:01Z</time></trkpt><trkpt lat="41.30761046382346" lon="1.989734905597202"><ele>56.0</ele><time>2026-04-19T12:10:02Z</time></trkpt><trkpt lat="41.30746848024708" lon="1.9895528981039055"><ele>57.0</ele><time>2026-04-19T12:10:03Z</time></trkpt><trkpt lat="41.30728952448328" lon="1.9893619198852655"><ele>58.0</ele><time>2026-04-19T12:10:04Z</time></trkpt><trkpt lat="41.3070786348235" lon="1.989181970883576"><ele>61.33333333333333</ele><time>2026-04-19T12:10:05Z</time></trkpt><trkpt lat="41.30689813861251" lon="1.9890297375974084"><ele>64.66666666666667</ele><time>2026-04-19T12:10:06Z</time></trkpt><trkpt lat="41.30676738254649" lon="1.9888748481128429"><ele>68.0</ele><time>2026-04-19T12:10:07Z</time></trkpt><trkpt lat="41.30667382027096" lon="1.9887078638645215"><ele>68.0</ele><time>2026-04-19T12:10:08Z</time></trkpt><trkpt lat="41.3066190268823" lon="1.9885103747259627"><ele>68.0</ele><time>2026-04-19T12:10:09Z</time></trkpt><trkpt lat="41.30663770246612" lon="1.9883013675728973"><ele>68.0</ele><time>2026-04-19T12:10:10Z</time></trkpt><trkpt lat="41.30666442983789" lon="1.9880611728790123"><ele>70.0</ele><time>2026-04-19T12:10:11Z</time></trkpt><trkpt lat="41.30669729276552" lon="1.987811674808559"><ele>72.0</ele><time>2026-04-19T12:10:12Z</time></trkpt><trkpt lat="41.30680297315465" lon="1.9875689800484455"><ele>74.0</ele><time>2026-04-19T12:10:13Z</time></trkpt><trkpt lat="41.30693995984986" lon="1.987353082229388"><ele>74.33333333333334</ele><time>2026-04-19T12:10:14Z</time></trkpt><trkpt lat="41.307046302109654" lon="1.9871498027374954"><ele>74.66666666666667</ele><time>2026-04-19T12:10:15Z</time></trkpt><trkpt lat="41.307122820401915" lon="1.9869511890052158"><ele>75.0</ele><time>2026-04-19T12:10:16Z</time></trkpt><trkpt lat="41.30716103348911" lon="1.9867003842333268"><ele>75.5</ele><time>2026-04-19T12:10:17Z</time></trkpt><trkpt lat="41.30716595817132" lon="1.9863927050336363"><ele>76.0</ele><time>2026-04-19T12:10:18Z</time></trkpt><trkpt lat="41.30718138505238" lon="1.9860584863763127"><ele>75.0</ele><time>2026-04-19T12:10:19Z</time></trkpt><trkpt lat="41.307230035804324" lon="1.9857020557078375"><ele>74.0</ele><time>2026-04-19T12:10:20Z</time></trkpt><trkpt lat="41.30730947885743" lon="1.9853797956935137"><ele>83.0</ele><time>2026-04-19T12:10:21Z</time></trkpt><trkpt lat="41.307376388415264" lon="1.9850947220677935"><ele>92.0</ele><time>2026-04-19T12:10:22Z</time></trkpt><trkpt lat="41.307422920258674" lon="1.9848156322007475"><ele>101.0</ele><time>2026-04-19T12:10:23Z</time></trkpt><trkpt lat="41.30742438603729" lon="1.9845418999995776"><ele>101.0</ele><time>2026-04-19T12:10:24Z</time></trkpt><trkpt lat="41.30740744820069" lon="1.9842941786091577"><ele>101.0</ele><time>2026-04-19T12:10:25Z</time></trkpt><trkpt lat="41.307448992408276" lon="1.9841061220845408"><ele>101.0</ele><time>2026-04-19T12:10:26Z</time></trkpt><trkpt lat="41.30749286561292" lon="1.9839245870243674"><ele>101.0</ele><time>2026-04-19T12:10:27Z</time></trkpt><trkpt lat="41.30760797972363" lon="1.9837738805312481"><ele>101.0</ele><time>2026-04-19T12:10:28Z</time></trkpt><trkpt lat="41.3077601814185" lon="1.9836447805014084"><ele>101.0</ele><time>2026-04-19T12:10:29Z</time></trkpt><trkpt lat="41.30792609464451" lon="1.9835361987567866"><ele>109.66666666666666</ele><time>2026-04-19T12:10:30Z</time></trkpt><trkpt lat="41.3080832366077" lon="1.983438615389742"><ele>118.33333333333334</ele><time>2026-04-19T12:10:31Z</time></trkpt><trkpt lat="41.30825336045053" lon="1.9833793448349084"><ele>127.0</ele><time>2026-04-19T12:10:32Z</time></trkpt><trkpt lat="41.30842668947202" lon="1.9833971420914112"><ele>127.0</ele><time>2026-04-19T12:10:33Z</time></trkpt><trkpt lat="41.308582626093774" lon="1.9833707295514675"><ele>127.0</ele><time>2026-04-19T12:10:34Z</time></trkpt><trkpt lat="41.30871144846249" lon="1.9832883600957394"><ele>127.0</ele><time>2026-04-19T12:10:34.999Z</time></trkpt><trkpt lat="41.308790766242836" lon="1.9831855273071712"><ele>127.0</ele><time>2026-04-19T12:10:35.999Z</time></trkpt><trkpt lat="41.30882319573498" lon="1.983058389647845"><ele>123.0</ele><time>2026-04-19T12:10:36.999Z</time></trkpt><trkpt lat="41.30880221023585" lon="1.9829165290819266"><ele>119.0</ele><time>2026-04-19T12:10:37.999Z</time></trkpt><trkpt lat="41.30873829771729" lon="1.9827951791658962"><ele>115.0</ele><time>2026-04-19T12:10:38.999Z</time></trkpt><trkpt lat="41.30864070329685" lon="1.9826797050671148"><ele>111.0</ele><time>2026-04-19T12:10:39.999Z</time></trkpt><trkpt lat="41.30851084031641" lon="1.982539169613089"><ele>110.75</ele><time>2026-04-19T12:10:40.999Z</time></trkpt><trkpt lat="41.30842023580826" lon="1.9824051177607924"><ele>110.5</ele><time>2026-04-19T12:10:41.999Z</time></trkpt><trkpt lat="41.30834720867589" lon="1.9823062437131422"><ele>110.25</ele><time>2026-04-19T12:10:42.999Z</time></trkpt><trkpt lat="41.308342910229605" lon="1.9821595269403793"><ele>110.0</ele><time>2026-04-19T12:10:43.999Z</time></trkpt><trkpt lat="41.308392772632345" lon="1.9819785078481091"><ele>110.0</ele><time>2026-04-19T12:10:44.999Z</time></trkpt><trkpt lat="41.30849640107221" lon="1.9818048880104635"><ele>110.0</ele><time>2026-04-19T12:10:45.999Z</time></trkpt><trkpt lat="41.30864063350774" lon="1.9816625403880905"><ele>110.0</ele><time>2026-04-19T12:10:46.999Z</time></trkpt><trkpt lat="41.30874154305463" lon="1.9815339023226508"><ele>111.0</ele><time>2026-04-19T12:10:47.999Z</time></trkpt><trkpt lat="41.3088289673563" lon="1.981387954204319"><ele>112.0</ele><time>2026-04-19T12:10:48.999Z</time></trkpt><trkpt lat="41.3088315192964" lon="1.9812269281695123"><ele>113.0</ele><time>2026-04-19T12:10:49.999Z</time></trkpt><trkpt lat="41.30881072426707" lon="1.9810622721239042"><ele>114.0</ele><time>2026-04-19T12:10:50.999Z</time></trkpt><trkpt lat="41.3087390903099" lon="1.98089988099861"><ele>114.0</ele><time>2026-04-19T12:10:51.999Z</time></trkpt><trkpt lat="41.308707173580025" lon="1.9807437780897474"><ele>114.0</ele><time>2026-04-19T12:10:52.999Z</time></trkpt><trkpt lat="41.30877381697116" lon="1.980568892243166"><ele>114.0</ele><time>2026-04-19T12:10:53.999Z</time></trkpt><trkpt lat="41.30888483530602" lon="1.980417357249586"><ele>114.0</ele><time>2026-04-19T12:10:54.999Z</time></trkpt><trkpt lat="41.30904054477236" lon="1.980284190528643"><ele>118.66666666666666</ele><time>2026-04-19T12:10:55.999Z</time></trkpt><trkpt lat="41.30920840167316" lon="1.9801502710639172"><ele>123.33333333333333</ele><time>2026-04-19T12:10:56.999Z</time></trkpt><trkpt lat="41.30932238979433" lon="1.9800050894856907"><ele>128.0</ele><time>2026-04-19T12:10:57.999Z</time></trkpt><trkpt lat="41.30937747200844" lon="1.9798193160454343"><ele>128.0</ele><time>2026-04-19T12:10:58.999Z</time></trkpt><trkpt lat="41.30941404229303" lon="1.979622318898307"><ele>128.0</ele><time>2026-04-19T12:10:59.999Z</time></trkpt><trkpt lat="41.30940011285412" lon="1.9794007542704657"><ele>128.0</ele><time>2026-04-19T12:11:00.999Z</time></trkpt><trkpt lat="41.309349789339876" lon="1.979154595802957"><ele>126.5</ele><time>2026-04-19T12:11:01.999Z</time></trkpt><trkpt lat="41.30932915773931" lon="1.9788686004714893"><ele>125.0</ele><time>2026-04-19T12:11:02.999Z</time></trkpt><trkpt lat="41.30938278757661" lon="1.9785403110263995"><ele>125.0</ele><time>2026-04-19T12:11:03.999Z</time></trkpt><trkpt lat="41.30945953486725" lon="1.9781811148391657"><ele>125.0</ele><time>2026-04-19T12:11:04.999Z</time></trkpt><trkpt lat="41.30954348345628" lon="1.9777880051297527"><ele>126.5</ele><time>2026-04-19T12:11:05.999Z</time></trkpt><trkpt lat="41.30963503735642" lon="1.9773858665330457"><ele>128.0</ele><time>2026-04-19T12:11:06.999Z</time></trkpt><trkpt lat="41.30972116323942" lon="1.9770389192732067"><ele>139.0</ele><time>2026-04-19T12:11:07.999Z</time></trkpt><trkpt lat="41.3097940428601" lon="1.9767110819783553"><ele>150.0</ele><time>2026-04-19T12:11:08.999Z</time></trkpt><trkpt lat="41.30985840638449" lon="1.9764138451110846"><ele>150.0</ele><time>2026-04-19T12:11:09.999Z</time></trkpt><trkpt lat="41.30991717984475" lon="1.9761454425797915"><ele>150.0</ele><time>2026-04-19T12:11:10.999Z</time></trkpt><trkpt lat="41.30997900815762" lon="1.9759051813043793"><ele>150.0</ele><time>2026-04-19T12:11:11.999Z</time></trkpt><trkpt lat="41.31004978429681" lon="1.9757155294523336"><ele>151.25</ele><time>2026-04-19T12:11:12.999Z</time></trkpt><trkpt lat="41.310134368053795" lon="1.9755623583316249"><ele>152.5</ele><time>2026-04-19T12:11:13.999Z</time></trkpt><trkpt lat="41.310219514529024" lon="1.975449208825273"><ele>153.75</ele><time>2026-04-19T12:11:14.999Z</time></trkpt><trkpt lat="41.31031624254199" lon="1.9753547335855746"><ele>155.0</ele><time>2026-04-19T12:11:15.999Z</time></trkpt><trkpt lat="41.310432732321836" lon="1.9752504716662507"><ele>155.0</ele><time>2026-04-19T12:11:16.999Z</time></trkpt><trkpt lat="41.31057186030771" lon="1.9751786250816104"><ele>155.0</ele><time>2026-04-19T12:11:17.999Z</time></trkpt><trkpt lat="41.31071331101646" lon="1.9750831807732332"><ele>155.0</ele><time>2026-04-19T12:11:18.999Z</time></trkpt><trkpt lat="41.3108451549818" lon="1.9749718259143494"><ele>157.5</ele><time>2026-04-19T12:11:19.999Z</time></trkpt><trkpt lat="41.31094778369482" lon="1.9748296476604106"><ele>160.0</ele><time>2026-04-19T12:11:20.999Z</time></trkpt><trkpt lat="41.31103382195169" lon="1.974692201311183"><ele>162.5</ele><time>2026-04-19T12:11:21.999Z</time></trkpt><trkpt lat="41.3110948143014" lon="1.9745081042708983"><ele>165.0</ele><time>2026-04-19T12:11:22.999Z</time></trkpt><trkpt lat="41.311129556345406" lon="1.9742920276528857"><ele>161.33333333333334</ele><time>2026-04-19T12:11:23.999Z</time></trkpt><trkpt lat="41.31115799095757" lon="1.9740555164730416"><ele>157.66666666666669</ele><time>2026-04-19T12:11:24.999Z</time></trkpt><trkpt lat="41.31118291364933" lon="1.9738340571606916"><ele>154.0</ele><time>2026-04-19T12:11:25.999Z</time></trkpt><trkpt lat="41.311224165870605" lon="1.9736088316067457"><ele>154.0</ele><time>2026-04-19T12:11:26.999Z</time></trkpt><trkpt lat="41.311257940054695" lon="1.9733870395835444"><ele>154.0</ele><time>2026-04-19T12:11:27.999Z</time></trkpt><trkpt lat="41.311284997085444" lon="1.973193304102294"><ele>154.0</ele><time>2026-04-19T12:11:28.999Z</time></trkpt><trkpt lat="41.31132737837386" lon="1.9730713262816912"><ele>154.0</ele><time>2026-04-19T12:11:29.999Z</time></trkpt><trkpt lat="41.31137242060197" lon="1.9729611326575267"><ele>160.25</ele><time>2026-04-19T12:11:30.999Z</time></trkpt><trkpt lat="41.311453061413346" lon="1.9728782346805014"><ele>166.5</ele><time>2026-04-19T12:11:31.999Z</time></trkpt><trkpt lat="41.31155996077746" lon="1.9728349769860463"><ele>172.75</ele><time>2026-04-19T12:11:32.999Z</time></trkpt><trkpt lat="41.311667559607784" lon="1.9727926635277464"><ele>179.0</ele><time>2026-04-19T12:11:33.999Z</time></trkpt><trkpt lat="41.31175763740097" lon="1.972678728399311"><ele>176.0</ele><time>2026-04-19T12:11:34.999Z</time></trkpt><trkpt lat="41.31184473944596" lon="1.9725017604572908"><ele>173.0</ele><time>2026-04-19T12:11:36Z</time></trkpt><trkpt lat="41.311922040321676" lon="1.972236879521503"><ele>170.0</ele><time>2026-04-19T12:11:37Z</time></trkpt><trkpt lat="41.31203650976975" lon="1.9719453211433797"><ele>168.5</ele><time>2026-04-19T12:11:38Z</time></trkpt><trkpt lat="41.312177003922095" lon="1.9716174945231415"><ele>167.0</ele><time>2026-04-19T12:11:39Z</time></trkpt><trkpt lat="41.312346972562175" lon="1.9712654016399238"><ele>176.0</ele><time>2026-04-19T12:11:40Z</time></trkpt><trkpt lat="41.312525912275746" lon="1.9709049073326146"><ele>185.0</ele><time>2026-04-19T12:11:41Z</time></trkpt><trkpt lat="41.312695659948304" lon="1.9705192364443667"><ele>185.0</ele><time>2026-04-19T12:11:42Z</time></trkpt><trkpt lat="41.31282560565096" lon="1.9701399651406815"><ele>185.0</ele><time>2026-04-19T12:11:43Z</time></trkpt><trkpt lat="41.31299144376226" lon="1.969767405552422"><ele>185.0</ele><time>2026-04-19T12:11:44Z</time></trkpt><trkpt lat="41.31311309311655" lon="1.969439979695692"><ele>185.0</ele><time>2026-04-19T12:11:45Z</time></trkpt><trkpt lat="41.313219531820536" lon="1.969154434968161"><ele>188.0</ele><time>2026-04-19T12:11:46Z</time></trkpt><trkpt lat="41.3133283316788" lon="1.968892940960427"><ele>191.0</ele><time>2026-04-19T12:11:47Z</time></trkpt><trkpt lat="41.313424104321506" lon="1.968664464138819"><ele>194.0</ele><time>2026-04-19T12:11:48Z</time></trkpt><trkpt lat="41.31351706546833" lon="1.9684750175914782"><ele>196.25</ele><time>2026-04-19T12:11:49Z</time></trkpt><trkpt lat="41.31359824840653" lon="1.9682830259615418"><ele>198.5</ele><time>2026-04-19T12:11:50Z</time></trkpt><trkpt lat="41.31364392723902" lon="1.9681142715166478"><ele>200.75</ele><time>2026-04-19T12:11:51Z</time></trkpt><trkpt lat="41.31367370297309" lon="1.9679350560252376"><ele>203.0</ele><time>2026-04-19T12:11:52Z</time></trkpt><trkpt lat="41.3136893422732" lon="1.9677383751821924"><ele>203.0</ele><time>2026-04-19T12:11:53Z</time></trkpt><trkpt lat="41.313680833470684" lon="1.9675507974634743"><ele>203.0</ele><time>2026-04-19T12:11:54Z</time></trkpt><trkpt lat="41.313672329956255" lon="1.967371203485147"><ele>203.0</ele><time>2026-04-19T12:11:55Z</time></trkpt><trkpt lat="41.31366894022255" lon="1.9672275552687177"><ele>203.0</ele><time>2026-04-19T12:11:56Z</time></trkpt><trkpt lat="41.31367277414028" lon="1.9671070521285843"><ele>203.0</ele><time>2026-04-19T12:11:57Z</time></trkpt><trkpt lat="41.313682468551825" lon="1.9669887200255234"><ele>203.0</ele><time>2026-04-19T12:11:58Z</time></trkpt><trkpt lat="41.3136992124996" lon="1.9668927121658373"><ele>203.0</ele><time>2026-04-19T12:11:59Z</time></trkpt><trkpt lat="41.313753870305675" lon="1.9667410615137653"><ele>203.0</ele><time>2026-04-19T12:12:01Z</time></trkpt><trkpt lat="41.313798010036045" lon="1.966627258662756"><ele>203.0</ele><time>2026-04-19T12:12:03Z</time></trkpt><trkpt lat="41.31384268399501" lon="1.966547820097869"><ele>203.0</ele><time>2026-04-19T12:12:05Z</time></trkpt><trkpt lat="41.31387753671193" lon="1.966472959710902"><ele>203.0</ele><time>2026-04-19T12:12:08Z</time></trkpt><trkpt lat="41.31397903763118" lon="1.966331458465623"><ele>203.0</ele><time>2026-04-19T12:12:13Z</time></trkpt><trkpt lat="41.31405687021768" lon="1.9662263807895781"><ele>203.0</ele><time>2026-04-19T12:12:14Z</time></trkpt><trkpt lat="41.31414470943415" lon="1.966102646540842"><ele>207.25</ele><time>2026-04-19T12:12:15Z</time></trkpt><trkpt lat="41.31423758448061" lon="1.965968698220984"><ele>211.5</ele><time>2026-04-19T12:12:16Z</time></trkpt><trkpt lat="41.31434466371994" lon="1.9658260786351085"><ele>215.75</ele><time>2026-04-19T12:12:17Z</time></trkpt><trkpt lat="41.31444463830429" lon="1.9656853030490367"><ele>220.0</ele><time>2026-04-19T12:12:18Z</time></trkpt><trkpt lat="41.31453110390709" lon="1.9655542723583925"><ele>220.0</ele><time>2026-04-19T12:12:19Z</time></trkpt><trkpt lat="41.31460759863298" lon="1.9654242240197932"><ele>220.0</ele><time>2026-04-19T12:12:20Z</time></trkpt><trkpt lat="41.31466746752464" lon="1.9652744053321527"><ele>220.0</ele><time>2026-04-19T12:12:21Z</time></trkpt><trkpt lat="41.31470476729909" lon="1.9650875931208884"><ele>220.0</ele><time>2026-04-19T12:12:22Z</time></trkpt><trkpt lat="41.31467248177187" lon="1.9648658735580906"><ele>216.66666666666666</ele><time>2026-04-19T12:12:23Z</time></trkpt><trkpt lat="41.314637264209246" lon="1.9646423010642144"><ele>213.33333333333331</ele><time>2026-04-19T12:12:24Z</time></trkpt><trkpt lat="41.31465227099101" lon="1.9644419770624149"><ele>210.0</ele><time>2026-04-19T12:12:25Z</time></trkpt><trkpt lat="41.31467864799078" lon="1.9642510693848945"><ele>208.66666666666669</ele><time>2026-04-19T12:12:26Z</time></trkpt><trkpt lat="41.314715266915876" lon="1.9640534492800485"><ele>207.33333333333334</ele><time>2026-04-19T12:12:27Z</time></trkpt><trkpt lat="41.31474325569203" lon="1.9638481480958987"><ele>206.0</ele><time>2026-04-19T12:12:28Z</time></trkpt><trkpt lat="41.31478481035786" lon="1.9636450207238962"><ele>208.0</ele><time>2026-04-19T12:12:29Z</time></trkpt><trkpt lat="41.314805153697606" lon="1.9634484891346797"><ele>210.0</ele><time>2026-04-19T12:12:30Z</time></trkpt><trkpt lat="41.31479129981946" lon="1.9632689304513984"><ele>212.0</ele><time>2026-04-19T12:12:31Z</time></trkpt><trkpt lat="41.31475912539101" lon="1.963084721517099"><ele>214.0</ele><time>2026-04-19T12:12:32Z</time></trkpt><trkpt lat="41.31473143312241" lon="1.9628902976871732"><ele>214.0</ele><time>2026-04-19T12:12:33Z</time></trkpt><trkpt lat="41.31473296256198" lon="1.962696351122678"><ele>214.0</ele><time>2026-04-19T12:12:34Z</time></trkpt><trkpt lat="41.31474200714847" lon="1.9624987703646959"><ele>214.0</ele><time>2026-04-19T12:12:34.999Z</time></trkpt><trkpt lat="41.314745972260425" lon="1.9623027420315684"><ele>214.0</ele><time>2026-04-19T12:12:35.999Z</time></trkpt><trkpt lat="41.31476059252595" lon="1.9621141734732033"><ele>220.75</ele><time>2026-04-19T12:12:36.999Z</time></trkpt><trkpt lat="41.31477059449827" lon="1.9619275197596675"><ele>227.5</ele><time>2026-04-19T12:12:37.999Z</time></trkpt><trkpt lat="41.31477832526413" lon="1.961744206822998"><ele>234.25</ele><time>2026-04-19T12:12:38.999Z</time></trkpt><trkpt lat="41.31478702480488" lon="1.961567712399629"><ele>241.0</ele><time>2026-04-19T12:12:39.999Z</time></trkpt><trkpt lat="41.314796521429926" lon="1.9613863389040425"><ele>241.0</ele><time>2026-04-19T12:12:40.999Z</time></trkpt><trkpt lat="41.314803039559244" lon="1.96120520043433"><ele>241.0</ele><time>2026-04-19T12:12:41.999Z</time></trkpt><trkpt lat="41.314816685626155" lon="1.96101649584954"><ele>241.0</ele><time>2026-04-19T12:12:42.999Z</time></trkpt><trkpt lat="41.31484882573874" lon="1.960820530651796"><ele>241.0</ele><time>2026-04-19T12:12:43.999Z</time></trkpt><trkpt lat="41.31492217893881" lon="1.9606126312860248"><ele>242.33333333333331</ele><time>2026-04-19T12:12:44.999Z</time></trkpt><trkpt lat="41.31501801522207" lon="1.9604077883609903"><ele>243.66666666666669</ele><time>2026-04-19T12:12:45.999Z</time></trkpt><trkpt lat="41.315098978221634" lon="1.960221165982517"><ele>245.0</ele><time>2026-04-19T12:12:46.999Z</time></trkpt><trkpt lat="41.315155202203925" lon="1.9600438008967482"><ele>246.25</ele><time>2026-04-19T12:12:47.999Z</time></trkpt><trkpt lat="41.3152079439677" lon="1.9598789071356684"><ele>247.5</ele><time>2026-04-19T12:12:48.999Z</time></trkpt><trkpt lat="41.31532177839952" lon="1.9597721673107285"><ele>248.75</ele><time>2026-04-19T12:12:49.999Z</time></trkpt><trkpt lat="41.31545692063791" lon="1.9597180756452217"><ele>250.0</ele><time>2026-04-19T12:12:50.999Z</time></trkpt><trkpt lat="41.31557492858618" lon="1.959655612931517"><ele>250.0</ele><time>2026-04-19T12:12:51.999Z</time></trkpt><trkpt lat="41.31567999996127" lon="1.9595815688407645"><ele>250.0</ele><time>2026-04-19T12:12:52.999Z</time></trkpt><trkpt lat="41.31575054268483" lon="1.9594552899559792"><ele>250.0</ele><time>2026-04-19T12:12:53.999Z</time></trkpt><trkpt lat="41.315786305626894" lon="1.9592617767157932"><ele>250.0</ele><time>2026-04-19T12:12:54.999Z</time></trkpt><trkpt lat="41.31580537331751" lon="1.9590318240123383"><ele>251.66666666666666</ele><time>2026-04-19T12:12:55.999Z</time></trkpt><trkpt lat="41.3158184263479" lon="1.9587828845151842"><ele>253.33333333333331</ele><time>2026-04-19T12:12:56.999Z</time></trkpt><trkpt lat="41.315844003279835" lon="1.9585923308640616"><ele>255.0</ele><time>2026-04-19T12:12:57.999Z</time></trkpt><trkpt lat="41.31585311742069" lon="1.9584270111254305"><ele>256.0</ele><time>2026-04-19T12:12:58.999Z</time></trkpt><trkpt lat="41.31583317150884" lon="1.9582675534028575"><ele>257.0</ele><time>2026-04-19T12:12:59.999Z</time></trkpt><trkpt lat="41.3157532595762" lon="1.9581073962579931"><ele>258.0</ele><time>2026-04-19T12:13:00.999Z</time></trkpt><trkpt lat="41.315652525570975" lon="1.9579363484285082"><ele>259.0</ele><time>2026-04-19T12:13:01.999Z</time></trkpt><trkpt lat="41.315618806569844" lon="1.9577294259828693"><ele>259.0</ele><time>2026-04-19T12:13:02.999Z</time></trkpt><trkpt lat="41.315617856991764" lon="1.9575367207076084"><ele>259.0</ele><time>2026-04-19T12:13:03.999Z</time></trkpt><trkpt lat="41.31566661349037" lon="1.9573575970221229"><ele>259.0</ele><time>2026-04-19T12:13:04.999Z</time></trkpt><trkpt lat="41.31576777902232" lon="1.9571397143340792"><ele>261.0</ele><time>2026-04-19T12:13:05.999Z</time></trkpt><trkpt lat="41.31590309013161" lon="1.9568783977088746"><ele>263.0</ele><time>2026-04-19T12:13:06.999Z</time></trkpt><trkpt lat="41.31604642482665" lon="1.9565757015148288"><ele>271.0</ele><time>2026-04-19T12:13:07.999Z</time></trkpt><trkpt lat="41.316187378735" lon="1.9563108088757133"><ele>279.0</ele><time>2026-04-19T12:13:08.999Z</time></trkpt><trkpt lat="41.31629563607482" lon="1.956038814001671"><ele>275.0</ele><time>2026-04-19T12:13:09.999Z</time></trkpt><trkpt lat="41.31637186728649" lon="1.9557417324160375"><ele>271.0</ele><time>2026-04-19T12:13:10.999Z</time></trkpt><trkpt lat="41.31642763547121" lon="1.9554784710200084"><ele>267.0</ele><time>2026-04-19T12:13:11.999Z</time></trkpt><trkpt lat="41.316510731492876" lon="1.9552901796277393"><ele>267.0</ele><time>2026-04-19T12:13:12.999Z</time></trkpt><trkpt lat="41.316581652879854" lon="1.9551152820610445"><ele>267.0</ele><time>2026-04-19T12:13:13.999Z</time></trkpt><trkpt lat="41.316635186110204" lon="1.954959680435728"><ele>267.0</ele><time>2026-04-19T12:13:14.999Z</time></trkpt><trkpt lat="41.316703826421374" lon="1.954866448171036"><ele>267.0</ele><time>2026-04-19T12:13:15.999Z</time></trkpt><trkpt lat="41.31678937103219" lon="1.9548295061683345"><ele>267.0</ele><time>2026-04-19T12:13:16.999Z</time></trkpt><trkpt lat="41.31689958863247" lon="1.9548962130439163"><ele>267.0</ele><time>2026-04-19T12:13:17.999Z</time></trkpt><trkpt lat="41.31700475906704" lon="1.955040814706229"><ele>267.0</ele><time>2026-04-19T12:13:18.999Z</time></trkpt><trkpt lat="41.3171045908337" lon="1.9552466057439506"><ele>267.0</ele><time>2026-04-19T12:13:19.999Z</time></trkpt><trkpt lat="41.317209467809484" lon="1.955414807914564"><ele>267.0</ele><time>2026-04-19T12:13:20.999Z</time></trkpt><trkpt lat="41.31733030047927" lon="1.9555237189987913"><ele>267.0</ele><time>2026-04-19T12:13:21.999Z</time></trkpt><trkpt lat="41.31747212037509" lon="1.955605598944087"><ele>265.3333333333333</ele><time>2026-04-19T12:13:22.999Z</time></trkpt><trkpt lat="41.31759502811746" lon="1.9557567503094542"><ele>263.66666666666663</ele><time>2026-04-19T12:13:23.999Z</time></trkpt><trkpt lat="41.31768688015876" lon="1.9559153612684426"><ele>262.0</ele><time>2026-04-19T12:13:24.999Z</time></trkpt><trkpt lat="41.317770778029036" lon="1.956072289179177"><ele>262.0</ele><time>2026-04-19T12:13:25.999Z</time></trkpt><trkpt lat="41.317839035086145" lon="1.9562260289620679"><ele>262.0</ele><time>2026-04-19T12:13:26.999Z</time></trkpt><trkpt lat="41.3179165792743" lon="1.9563567986780928"><ele>262.0</ele><time>2026-04-19T12:13:27.999Z</time></trkpt><trkpt lat="41.31801919671712" lon="1.9564605617943835"><ele>262.0</ele><time>2026-04-19T12:13:28.999Z</time></trkpt><trkpt lat="41.31813633507701" lon="1.9565880051253806"><ele>266.0</ele><time>2026-04-19T12:13:29.999Z</time></trkpt><trkpt lat="41.31824908414953" lon="1.9567599281444559"><ele>270.0</ele><time>2026-04-19T12:13:30.999Z</time></trkpt><trkpt lat="41.31836258820462" lon="1.956979886071856"><ele>274.0</ele><time>2026-04-19T12:13:31.999Z</time></trkpt><trkpt lat="41.31844856091506" lon="1.9571877931821564"><ele>274.0</ele><time>2026-04-19T12:13:32.999Z</time></trkpt><trkpt lat="41.318493857731596" lon="1.9573925464820374"><ele>274.0</ele><time>2026-04-19T12:13:33.999Z</time></trkpt><trkpt lat="41.31853836538303" lon="1.9575838415052613"><ele>274.0</ele><time>2026-04-19T12:13:34.999Z</time></trkpt><trkpt lat="41.31860928394231" lon="1.957751331096411"><ele>273.75</ele><time>2026-04-19T12:13:35.999Z</time></trkpt><trkpt lat="41.31870160187372" lon="1.9578837126196789"><ele>273.5</ele><time>2026-04-19T12:13:36.999Z</time></trkpt><trkpt lat="41.31878779361821" lon="1.9579631660744523"><ele>273.25</ele><time>2026-04-19T12:13:37.999Z</time></trkpt><trkpt lat="41.31888942952185" lon="1.9579753699273277"><ele>273.0</ele><time>2026-04-19T12:13:38.999Z</time></trkpt><trkpt lat="41.318969989501376" lon="1.9578684792819796"><ele>273.0</ele><time>2026-04-19T12:13:39.999Z</time></trkpt><trkpt lat="41.31903387288508" lon="1.9577416427155647"><ele>273.0</ele><time>2026-04-19T12:13:40.999Z</time></trkpt><trkpt lat="41.319069637519476" lon="1.9575981250982388"><ele>273.0</ele><time>2026-04-19T12:13:42Z</time></trkpt><trkpt lat="41.31906808442392" lon="1.9574359973998365"><ele>273.0</ele><time>2026-04-19T12:13:43Z</time></trkpt><trkpt lat="41.319057427462" lon="1.957332655703619"><ele>273.0</ele><time>2026-04-19T12:13:44Z</time></trkpt><trkpt lat="41.319087095387054" lon="1.9571783201289943"><ele>274.75</ele><time>2026-04-19T12:13:46Z</time></trkpt><trkpt lat="41.319150517668795" lon="1.9570103534462162"><ele>276.5</ele><time>2026-04-19T12:13:48Z</time></trkpt><trkpt lat="41.31920720683911" lon="1.9568970224855704"><ele>278.25</ele><time>2026-04-19T12:13:49Z</time></trkpt><trkpt lat="41.31929179682384" lon="1.9568080528308942"><ele>280.0</ele><time>2026-04-19T12:13:50Z</time></trkpt><trkpt lat="41.31935899747555" lon="1.956690297997857"><ele>283.0</ele><time>2026-04-19T12:13:51Z</time></trkpt><trkpt lat="41.31942449741179" lon="1.956581134341872"><ele>286.0</ele><time>2026-04-19T12:13:52Z</time></trkpt><trkpt lat="41.31947462960386" lon="1.956434927280939"><ele>289.0</ele><time>2026-04-19T12:13:53Z</time></trkpt><trkpt lat="41.31947514796125" lon="1.9562449704659126"><ele>292.0</ele><time>2026-04-19T12:13:54Z</time></trkpt><trkpt lat="41.31945125137578" lon="1.9560832570919229"><ele>292.0</ele><time>2026-04-19T12:13:55Z</time></trkpt><trkpt lat="41.31939297270259" lon="1.9559036528294493"><ele>292.0</ele><time>2026-04-19T12:13:56Z</time></trkpt><trkpt lat="41.319324041646205" lon="1.9557443940196617"><ele>292.0</ele><time>2026-04-19T12:13:57Z</time></trkpt><trkpt lat="41.319282343294766" lon="1.9556039649921675"><ele>292.0</ele><time>2026-04-19T12:13:58Z</time></trkpt><trkpt lat="41.31921436575645" lon="1.9554596283438965"><ele>293.25</ele><time>2026-04-19T12:13:59Z</time></trkpt><trkpt lat="41.319174709679565" lon="1.9552987352070108"><ele>294.5</ele><time>2026-04-19T12:14:00Z</time></trkpt><trkpt lat="41.31919522524345" lon="1.9551153686280227"><ele>295.75</ele><time>2026-04-19T12:14:01Z</time></trkpt><trkpt lat="41.319266153258845" lon="1.954922710305429"><ele>297.0</ele><time>2026-04-19T12:14:02Z</time></trkpt><trkpt lat="41.3192895112003" lon="1.9547169643422975"><ele>297.3333333333333</ele><time>2026-04-19T12:14:03Z</time></trkpt><trkpt lat="41.3193156710857" lon="1.9545276742912254"><ele>297.66666666666663</ele><time>2026-04-19T12:14:04Z</time></trkpt><trkpt lat="41.3192774446898" lon="1.9543245616878837"><ele>298.0</ele><time>2026-04-19T12:14:05Z</time></trkpt><trkpt lat="41.31924239655426" lon="1.954105887281693"><ele>301.3333333333333</ele><time>2026-04-19T12:14:06Z</time></trkpt><trkpt lat="41.31928635220538" lon="1.9538822941558378"><ele>304.6666666666667</ele><time>2026-04-19T12:14:07Z</time></trkpt><trkpt lat="41.319324134365374" lon="1.9536786559946593"><ele>308.0</ele><time>2026-04-19T12:14:08Z</time></trkpt><trkpt lat="41.31935935124241" lon="1.9535014341438575"><ele>310.2</ele><time>2026-04-19T12:14:09Z</time></trkpt><trkpt lat="41.319389626528725" lon="1.953345076982982"><ele>312.4</ele><time>2026-04-19T12:14:10Z</time></trkpt><trkpt lat="41.31941514084086" lon="1.9532035391148017"><ele>314.59999999999997</ele><time>2026-04-19T12:14:11Z</time></trkpt><trkpt lat="41.31946280224217" lon="1.953088580935816"><ele>316.8</ele><time>2026-04-19T12:14:12Z</time></trkpt><trkpt lat="41.319532354544926" lon="1.9529955509987857"><ele>319.0</ele><time>2026-04-19T12:14:13Z</time></trkpt><trkpt lat="41.31964399307974" lon="1.9529825993618808"><ele>314.0</ele><time>2026-04-19T12:14:14Z</time></trkpt><trkpt lat="41.319759810649444" lon="1.9530366882154306"><ele>309.0</ele><time>2026-04-19T12:14:15Z</time></trkpt><trkpt lat="41.31988596775792" lon="1.9531188955383485"><ele>304.0</ele><time>2026-04-19T12:14:16Z</time></trkpt><trkpt lat="41.32000085587644" lon="1.9532595246316855"><ele>299.0</ele><time>2026-04-19T12:14:17Z</time></trkpt><trkpt lat="41.320104392923724" lon="1.9533957751467879"><ele>293.6666666666667</ele><time>2026-04-19T12:14:18Z</time></trkpt><trkpt lat="41.3202377042658" lon="1.9534620834529128"><ele>288.3333333333333</ele><time>2026-04-19T12:14:19Z</time></trkpt><trkpt lat="41.320403752047696" lon="1.9535205966636962"><ele>283.0</ele><time>2026-04-19T12:14:20Z</time></trkpt><trkpt lat="41.320589881586216" lon="1.953530025002211"><ele>283.0</ele><time>2026-04-19T12:14:21Z</time></trkpt><trkpt lat="41.320746972949976" lon="1.9535419888944952"><ele>283.0</ele><time>2026-04-19T12:14:22Z</time></trkpt><trkpt lat="41.32087499073174" lon="1.9535437450156439"><ele>283.0</ele><time>2026-04-19T12:14:23Z</time></trkpt><trkpt lat="41.32098899474002" lon="1.9535024577635347"><ele>283.0</ele><time>2026-04-19T12:14:24Z</time></trkpt><trkpt lat="41.321086728501264" lon="1.953406537859534"><ele>289.75</ele><time>2026-04-19T12:14:25Z</time></trkpt><trkpt lat="41.32115862605647" lon="1.953259595766728"><ele>296.5</ele><time>2026-04-19T12:14:26Z</time></trkpt><trkpt lat="41.32118831948267" lon="1.9530158908402366"><ele>303.25</ele><time>2026-04-19T12:14:27Z</time></trkpt><trkpt lat="41.32123340286059" lon="1.9528599388044365"><ele>310.0</ele><time>2026-04-19T12:14:28Z</time></trkpt><trkpt lat="41.321299982027305" lon="1.9527124415838748"><ele>310.66666666666663</ele><time>2026-04-19T12:14:29Z</time></trkpt><trkpt lat="41.321427683299625" lon="1.9525875103442953"><ele>311.3333333333333</ele><time>2026-04-19T12:14:30Z</time></trkpt><trkpt lat="41.321549904623595" lon="1.9524390164926129"><ele>312.0</ele><time>2026-04-19T12:14:31Z</time></trkpt><trkpt lat="41.32166650121109" lon="1.9523303411314947"><ele>312.0</ele><time>2026-04-19T12:14:32Z</time></trkpt><trkpt lat="41.32174983152945" lon="1.9521921176359336"><ele>312.0</ele><time>2026-04-19T12:14:33Z</time></trkpt><trkpt lat="41.32178627603572" lon="1.9520374994040959"><ele>312.0</ele><time>2026-04-19T12:14:34Z</time></trkpt><trkpt lat="41.321780745830026" lon="1.9518744654865972"><ele>312.0</ele><time>2026-04-19T12:14:35Z</time></trkpt><trkpt lat="41.321740226681" lon="1.9517025445188063"><ele>316.75</ele><time>2026-04-19T12:14:36Z</time></trkpt><trkpt lat="41.32169746779781" lon="1.9515340188233126"><ele>321.5</ele><time>2026-04-19T12:14:37Z</time></trkpt><trkpt lat="41.32174143724879" lon="1.951378880904168"><ele>326.25</ele><time>2026-04-19T12:14:38Z</time></trkpt><trkpt lat="41.32181038220068" lon="1.951244247566411"><ele>331.0</ele><time>2026-04-19T12:14:39Z</time></trkpt><trkpt lat="41.32189476715658" lon="1.9510988542295604"><ele>331.0</ele><time>2026-04-19T12:14:40Z</time></trkpt><trkpt lat="41.32202744095661" lon="1.9509994120122656"><ele>331.0</ele><time>2026-04-19T12:14:41Z</time></trkpt><trkpt lat="41.322189830212615" lon="1.9509372374451606"><ele>331.0</ele><time>2026-04-19T12:14:42Z</time></trkpt><trkpt lat="41.32239318872374" lon="1.9509224028386538"><ele>332.3333333333333</ele><time>2026-04-19T12:14:43Z</time></trkpt><trkpt lat="41.322604455290765" lon="1.9508984241514968"><ele>333.6666666666667</ele><time>2026-04-19T12:14:44Z</time></trkpt><trkpt lat="41.3228209542374" lon="1.9508290095515497"><ele>335.0</ele><time>2026-04-19T12:14:45Z</time></trkpt><trkpt lat="41.323027898441076" lon="1.9507377760152187"><ele>331.0</ele><time>2026-04-19T12:14:46Z</time></trkpt><trkpt lat="41.32324444684182" lon="1.9506170360024093"><ele>327.0</ele><time>2026-04-19T12:14:47Z</time></trkpt><trkpt lat="41.32346968965539" lon="1.9504676908884642"><ele>327.0</ele><time>2026-04-19T12:14:48Z</time></trkpt><trkpt lat="41.323695784187734" lon="1.9504071103552745"><ele>327.0</ele><time>2026-04-19T12:14:49Z</time></trkpt><trkpt lat="41.32392159013633" lon="1.9503840326063544"><ele>327.0</ele><time>2026-04-19T12:14:50Z</time></trkpt><trkpt lat="41.32412536732815" lon="1.950362258802817"><ele>327.0</ele><time>2026-04-19T12:14:51Z</time></trkpt><trkpt lat="41.32430658071531" lon="1.9503974762726197"><ele>327.0</ele><time>2026-04-19T12:14:52Z</time></trkpt><trkpt lat="41.324453492542794" lon="1.950435412382291"><ele>327.0</ele><time>2026-04-19T12:14:53Z</time></trkpt><trkpt lat="41.32460115814253" lon="1.9504510746102255"><ele>327.0</ele><time>2026-04-19T12:14:54Z</time></trkpt><trkpt lat="41.3247595674687" lon="1.9503910963955295"><ele>327.0</ele><time>2026-04-19T12:14:55Z</time></trkpt><trkpt lat="41.32492077186315" lon="1.950252008717117"><ele>327.3333333333333</ele><time>2026-04-19T12:14:56Z</time></trkpt><trkpt lat="41.325090914003084" lon="1.950073388800701"><ele>327.66666666666663</ele><time>2026-04-19T12:14:57Z</time></trkpt><trkpt lat="41.32527269110373" lon="1.949886867375953"><ele>328.0</ele><time>2026-04-19T12:14:58Z</time></trkpt><trkpt lat="41.32543284290431" lon="1.9497730120140662"><ele>333.25</ele><time>2026-04-19T12:14:58.999Z</time></trkpt><trkpt lat="41.325584249104786" lon="1.9497024613428937"><ele>338.5</ele><time>2026-04-19T12:14:59.999Z</time></trkpt><trkpt lat="41.325721258633784" lon="1.949717189758696"><ele>343.75</ele><time>2026-04-19T12:15:00.999Z</time></trkpt><trkpt lat="41.32584810756417" lon="1.9497088288892162"><ele>349.0</ele><time>2026-04-19T12:15:01.999Z</time></trkpt><trkpt lat="41.325943446963194" lon="1.9496938442829277"><ele>349.0</ele><time>2026-04-19T12:15:02.999Z</time></trkpt><trkpt lat="41.326014325219994" lon="1.949615137831023"><ele>349.0</ele><time>2026-04-19T12:15:03.999Z</time></trkpt><trkpt lat="41.32605293203824" lon="1.949493410857859"><ele>349.0</ele><time>2026-04-19T12:15:04.999Z</time></trkpt><trkpt lat="41.32599794145979" lon="1.9493429326234244"><ele>349.0</ele><time>2026-04-19T12:15:05.999Z</time></trkpt><trkpt lat="41.32588598088991" lon="1.9492770171334581"><ele>349.0</ele><time>2026-04-19T12:15:06.999Z</time></trkpt><trkpt lat="41.32576784666358" lon="1.9492688644171807"><ele>349.0</ele><time>2026-04-19T12:15:07.999Z</time></trkpt><trkpt lat="41.32561174870715" lon="1.9493211594454811"><ele>349.0</ele><time>2026-04-19T12:15:08.999Z</time></trkpt><trkpt lat="41.32542120398549" lon="1.9494249134450687"><ele>349.0</ele><time>2026-04-19T12:15:09.999Z</time></trkpt><trkpt lat="41.32518790224112" lon="1.9495599246664508"><ele>352.0</ele><time>2026-04-19T12:15:10.999Z</time></trkpt><trkpt lat="41.32496303681287" lon="1.9496565549186586"><ele>355.0</ele><time>2026-04-19T12:15:11.999Z</time></trkpt><trkpt lat="41.324781245530936" lon="1.9497225104368865"><ele>358.0</ele><time>2026-04-19T12:15:12.999Z</time></trkpt><trkpt lat="41.32462593692894" lon="1.9497540221136513"><ele>359.3333333333333</ele><time>2026-04-19T12:15:13.999Z</time></trkpt><trkpt lat="41.324454096920974" lon="1.9497035767843203"><ele>360.6666666666667</ele><time>2026-04-19T12:15:14.999Z</time></trkpt><trkpt lat="41.32428871018744" lon="1.949606429086298"><ele>362.0</ele><time>2026-04-19T12:15:15.999Z</time></trkpt><trkpt lat="41.324109715576235" lon="1.9495245864039432"><ele>362.0</ele><time>2026-04-19T12:15:16.999Z</time></trkpt><trkpt lat="41.32392705095125" lon="1.9494612286562942"><ele>362.0</ele><time>2026-04-19T12:15:17.999Z</time></trkpt><trkpt lat="41.323705231006834" lon="1.9494819147930658"><ele>362.0</ele><time>2026-04-19T12:15:18.999Z</time></trkpt><trkpt lat="41.32345108676118" lon="1.9495474832544883"><ele>363.0</ele><time>2026-04-19T12:15:19.999Z</time></trkpt><trkpt lat="41.32321722672022" lon="1.9496094324866275"><ele>364.0</ele><time>2026-04-19T12:15:20.999Z</time></trkpt><trkpt lat="41.32303176941378" lon="1.949645876331011"><ele>365.0</ele><time>2026-04-19T12:15:21.999Z</time></trkpt><trkpt lat="41.32286698936778" lon="1.9496840706897736"><ele>367.6</ele><time>2026-04-19T12:15:22.999Z</time></trkpt><trkpt lat="41.32273386790717" lon="1.949743142817162"><ele>370.2</ele><time>2026-04-19T12:15:23.999Z</time></trkpt><trkpt lat="41.32263727116518" lon="1.9498058247225074"><ele>372.79999999999995</ele><time>2026-04-19T12:15:24.999Z</time></trkpt><trkpt lat="41.322576337179854" lon="1.9498509435378901"><ele>375.4</ele><time>2026-04-19T12:15:25.999Z</time></trkpt><trkpt lat="41.32249704384761" lon="1.9497581711494987"><ele>378.0</ele><time>2026-04-19T12:15:27.999Z</time></trkpt><trkpt lat="41.32252141416884" lon="1.9496523681397573"><ele>378.0</ele><time>2026-04-19T12:15:28.999Z</time></trkpt><trkpt lat="41.322604931376404" lon="1.9495886211082154"><ele>378.0</ele><time>2026-04-19T12:15:29.999Z</time></trkpt><trkpt lat="41.32273748825967" lon="1.9495689016170235"><ele>378.0</ele><time>2026-04-19T12:15:30.999Z</time></trkpt><trkpt lat="41.322926203619254" lon="1.949505239587673"><ele>378.0</ele><time>2026-04-19T12:15:31.999Z</time></trkpt><trkpt lat="41.32313766673467" lon="1.9494341240335713"><ele>373.6666666666667</ele><time>2026-04-19T12:15:32.999Z</time></trkpt><trkpt lat="41.32334081430177" lon="1.949349260536838"><ele>369.33333333333337</ele><time>2026-04-19T12:15:33.999Z</time></trkpt><trkpt lat="41.32350373708888" lon="1.949279980718169"><ele>365.0</ele><time>2026-04-19T12:15:34.999Z</time></trkpt><trkpt lat="41.32364818108811" lon="1.9492038592682368"><ele>373.75</ele><time>2026-04-19T12:15:35.999Z</time></trkpt><trkpt lat="41.32378721817086" lon="1.949135907027164"><ele>382.5</ele><time>2026-04-19T12:15:36.999Z</time></trkpt><trkpt lat="41.32392158151075" lon="1.9490979114573004"><ele>391.25</ele><time>2026-04-19T12:15:37.999Z</time></trkpt><trkpt lat="41.3240668289175" lon="1.9490840622818384"><ele>400.0</ele><time>2026-04-19T12:15:38.999Z</time></trkpt><trkpt lat="41.3242267197662" lon="1.9490961143949856"><ele>400.0</ele><time>2026-04-19T12:15:39.999Z</time></trkpt><trkpt lat="41.32440348729062" lon="1.9491204621512013"><ele>400.0</ele><time>2026-04-19T12:15:40.999Z</time></trkpt><trkpt lat="41.3245721823741" lon="1.9491224157210747"><ele>400.0</ele><time>2026-04-19T12:15:41.999Z</time></trkpt><trkpt lat="41.324740521680816" lon="1.9490688190894703"><ele>397.0</ele><time>2026-04-19T12:15:42.999Z</time></trkpt><trkpt lat="41.32489438720522" lon="1.9489638168264156"><ele>394.0</ele><time>2026-04-19T12:15:43.999Z</time></trkpt><trkpt lat="41.32504393769124" lon="1.9488149569611974"><ele>391.0</ele><time>2026-04-19T12:15:44.999Z</time></trkpt><trkpt lat="41.32516648745768" lon="1.948652707589652"><ele>391.0</ele><time>2026-04-19T12:15:45.999Z</time></trkpt><trkpt lat="41.325261368043094" lon="1.9485001465465834"><ele>391.0</ele><time>2026-04-19T12:15:46.999Z</time></trkpt><trkpt lat="41.325345088063884" lon="1.9483417098144382"><ele>391.0</ele><time>2026-04-19T12:15:48Z</time></trkpt><trkpt lat="41.32541370220377" lon="1.9481709648039396"><ele>391.0</ele><time>2026-04-19T12:15:49Z</time></trkpt><trkpt lat="41.325478692994544" lon="1.9480078557970466"><ele>391.0</ele><time>2026-04-19T12:15:50Z</time></trkpt><trkpt lat="41.32557852792874" lon="1.9478713259765827"><ele>391.0</ele><time>2026-04-19T12:15:51Z</time></trkpt><trkpt lat="41.32567184571241" lon="1.9477206721793139"><ele>391.0</ele><time>2026-04-19T12:15:52Z</time></trkpt><trkpt lat="41.32576379664269" lon="1.9475790846578163"><ele>391.0</ele><time>2026-04-19T12:15:53Z</time></trkpt><trkpt lat="41.32585713234394" lon="1.9474667619143713"><ele>395.4</ele><time>2026-04-19T12:15:54Z</time></trkpt><trkpt lat="41.32594972000696" lon="1.9473676336031946"><ele>399.8</ele><time>2026-04-19T12:15:55Z</time></trkpt><trkpt lat="41.32604331353646" lon="1.9472892370700932"><ele>404.2</ele><time>2026-04-19T12:15:56Z</time></trkpt><trkpt lat="41.326143013046384" lon="1.947228701381946"><ele>408.59999999999997</ele><time>2026-04-19T12:15:57Z</time></trkpt><trkpt lat="41.326245963843235" lon="1.9471834015499971"><ele>413.0</ele><time>2026-04-19T12:15:58Z</time></trkpt><trkpt lat="41.32634945869078" lon="1.9471363353582594"><ele>410.79999999999995</ele><time>2026-04-19T12:15:59Z</time></trkpt><trkpt lat="41.326449572058685" lon="1.9470908069065147"><ele>408.6</ele><time>2026-04-19T12:16:00Z</time></trkpt><trkpt lat="41.32654812692696" lon="1.947045987690227"><ele>406.4</ele><time>2026-04-19T12:16:01Z</time></trkpt><trkpt lat="41.3266370633099" lon="1.9470055426428645"><ele>404.20000000000005</ele><time>2026-04-19T12:16:02Z</time></trkpt><trkpt lat="41.32667138593242" lon="1.9468262256928441"><ele>402.0</ele><time>2026-04-19T12:16:03Z</time></trkpt><trkpt lat="41.326728512402234" lon="1.9467438341338874"><ele>403.5</ele><time>2026-04-19T12:16:04Z</time></trkpt><trkpt lat="41.326790581383385" lon="1.9466851705396633"><ele>405.0</ele><time>2026-04-19T12:16:05Z</time></trkpt><trkpt lat="41.32686914058596" lon="1.9466446985568715"><ele>406.5</ele><time>2026-04-19T12:16:06Z</time></trkpt><trkpt lat="41.32695429387326" lon="1.9466065464871454"><ele>408.0</ele><time>2026-04-19T12:16:07Z</time></trkpt><trkpt lat="41.32701093428597" lon="1.9465508977705224"><ele>409.5</ele><time>2026-04-19T12:16:08Z</time></trkpt><trkpt lat="41.32704013125009" lon="1.946447822678826"><ele>411.0</ele><time>2026-04-19T12:16:09Z</time></trkpt><trkpt lat="41.32704382664328" lon="1.9463143364877904"><ele>411.0</ele><time>2026-04-19T12:16:10Z</time></trkpt><trkpt lat="41.327033110777386" lon="1.946165502068898"><ele>411.0</ele><time>2026-04-19T12:16:11Z</time></trkpt><trkpt lat="41.32704453591703" lon="1.945992144513188"><ele>411.0</ele><time>2026-04-19T12:16:12Z</time></trkpt><trkpt lat="41.32710242293429" lon="1.945827963118815"><ele>411.0</ele><time>2026-04-19T12:16:13Z</time></trkpt><trkpt lat="41.32718271854884" lon="1.945667530554522"><ele>410.66666666666663</ele><time>2026-04-19T12:16:14Z</time></trkpt><trkpt lat="41.32725852908805" lon="1.945495538226624"><ele>410.3333333333333</ele><time>2026-04-19T12:16:15Z</time></trkpt><trkpt lat="41.327330604724686" lon="1.9452958746989846"><ele>410.0</ele><time>2026-04-19T12:16:16Z</time></trkpt><trkpt lat="41.32740031820177" lon="1.9450891039940263"><ele>408.66666666666663</ele><time>2026-04-19T12:16:17Z</time></trkpt><trkpt lat="41.3274746924172" lon="1.9448632318281505"><ele>407.33333333333337</ele><time>2026-04-19T12:16:18Z</time></trkpt><trkpt lat="41.32754216430019" lon="1.9446402337282847"><ele>406.0</ele><time>2026-04-19T12:16:19Z</time></trkpt><trkpt lat="41.32759432943345" lon="1.9444153837720972"><ele>405.6666666666667</ele><time>2026-04-19T12:16:20Z</time></trkpt><trkpt lat="41.327639363153175" lon="1.9441934344115828"><ele>405.33333333333337</ele><time>2026-04-19T12:16:21Z</time></trkpt><trkpt lat="41.32767721481537" lon="1.9439669629110712"><ele>405.0</ele><time>2026-04-19T12:16:22Z</time></trkpt><trkpt lat="41.32770681022046" lon="1.9437419990134612"><ele>405.0</ele><time>2026-04-19T12:16:23Z</time></trkpt><trkpt lat="41.32773211322456" lon="1.9435179543682701"><ele>405.0</ele><time>2026-04-19T12:16:24Z</time></trkpt><trkpt lat="41.32776049720137" lon="1.9432887629518896"><ele>405.0</ele><time>2026-04-19T12:16:25Z</time></trkpt><trkpt lat="41.32779256181466" lon="1.943055289745411"><ele>404.0</ele><time>2026-04-19T12:16:26Z</time></trkpt><trkpt lat="41.32782574424977" lon="1.9428107269127501"><ele>403.0</ele><time>2026-04-19T12:16:27Z</time></trkpt><trkpt lat="41.327855600635424" lon="1.9425765771026782"><ele>402.0</ele><time>2026-04-19T12:16:28Z</time></trkpt><trkpt lat="41.3278833074732" lon="1.9423531521301094"><ele>401.0</ele><time>2026-04-19T12:16:29Z</time></trkpt><trkpt lat="41.32791246093792" lon="1.9421363500657012"><ele>400.0</ele><time>2026-04-19T12:16:30Z</time></trkpt><trkpt lat="41.327941642191256" lon="1.9419177911764387"><ele>399.0</ele><time>2026-04-19T12:16:31Z</time></trkpt><trkpt lat="41.327969592066594" lon="1.9416941007035267"><ele>397.66666666666663</ele><time>2026-04-19T12:16:32Z</time></trkpt><trkpt lat="41.32799392142513" lon="1.9414770697347379"><ele>396.3333333333333</ele><time>2026-04-19T12:16:33Z</time></trkpt><trkpt lat="41.32801709878019" lon="1.9412573618017162"><ele>395.0</ele><time>2026-04-19T12:16:34Z</time></trkpt><trkpt lat="41.32804380140485" lon="1.9410362585549539"><ele>394.0</ele><time>2026-04-19T12:16:35Z</time></trkpt><trkpt lat="41.328073733367056" lon="1.940814081554156"><ele>393.0</ele><time>2026-04-19T12:16:36Z</time></trkpt><trkpt lat="41.328100991287265" lon="1.940587173880984"><ele>392.0</ele><time>2026-04-19T12:16:37Z</time></trkpt><trkpt lat="41.32812591268106" lon="1.940354432831936"><ele>392.0</ele><time>2026-04-19T12:16:38Z</time></trkpt><trkpt lat="41.328155520961786" lon="1.9401323934569668"><ele>392.0</ele><time>2026-04-19T12:16:39Z</time></trkpt><trkpt lat="41.3281748614995" lon="1.9399169853439941"><ele>392.0</ele><time>2026-04-19T12:16:40Z</time></trkpt><trkpt lat="41.32819490361866" lon="1.9397056122650607"><ele>392.25</ele><time>2026-04-19T12:16:41Z</time></trkpt><trkpt lat="41.32821635604573" lon="1.939508491270888"><ele>392.5</ele><time>2026-04-19T12:16:42Z</time></trkpt><trkpt lat="41.3282280271219" lon="1.9393079326874811"><ele>392.75</ele><time>2026-04-19T12:16:43Z</time></trkpt><trkpt lat="41.32822623706946" lon="1.93911336923054"><ele>393.0</ele><time>2026-04-19T12:16:44Z</time></trkpt><trkpt lat="41.32821851583437" lon="1.9389311620269334"><ele>393.4</ele><time>2026-04-19T12:16:45Z</time></trkpt><trkpt lat="41.32824159402566" lon="1.9387669721304381"><ele>393.79999999999995</ele><time>2026-04-19T12:16:46Z</time></trkpt><trkpt lat="41.32823202848022" lon="1.9386217090362177"><ele>394.2</ele><time>2026-04-19T12:16:47Z</time></trkpt><trkpt lat="41.32822320573536" lon="1.9384916577665403"><ele>394.6</ele><time>2026-04-19T12:16:48Z</time></trkpt><trkpt lat="41.32821999092303" lon="1.938375986111231"><ele>395.0</ele><time>2026-04-19T12:16:49Z</time></trkpt><trkpt lat="41.32823304955421" lon="1.9382793259093833"><ele>394.2</ele><time>2026-04-19T12:16:50Z</time></trkpt><trkpt lat="41.32830466963067" lon="1.938177927593792"><ele>393.4</ele><time>2026-04-19T12:16:51Z</time></trkpt><trkpt lat="41.32834042275232" lon="1.9380733156611738"><ele>392.6</ele><time>2026-04-19T12:16:52Z</time></trkpt><trkpt lat="41.32833171273775" lon="1.937948358236546"><ele>391.8</ele><time>2026-04-19T12:16:53Z</time></trkpt><trkpt lat="41.32828486691273" lon="1.9378112252251827"><ele>391.0</ele><time>2026-04-19T12:16:54Z</time></trkpt><trkpt lat="41.3282440695843" lon="1.9376571271431537"><ele>391.33333333333337</ele><time>2026-04-19T12:16:55Z</time></trkpt><trkpt lat="41.32823549411175" lon="1.9374671809611734"><ele>391.66666666666663</ele><time>2026-04-19T12:16:56Z</time></trkpt><trkpt lat="41.32825977069903" lon="1.9372605298773944"><ele>392.0</ele><time>2026-04-19T12:16:57Z</time></trkpt><trkpt lat="41.32827422906686" lon="1.937047106207716"><ele>392.0</ele><time>2026-04-19T12:16:58Z</time></trkpt><trkpt lat="41.32827068770291" lon="1.9368397910022859"><ele>392.0</ele><time>2026-04-19T12:16:59Z</time></trkpt><trkpt lat="41.32828547979294" lon="1.9366117253791213"><ele>392.0</ele><time>2026-04-19T12:17:00Z</time></trkpt><trkpt lat="41.3282988101011" lon="1.9363828553674214"><ele>391.3333333333333</ele><time>2026-04-19T12:17:01Z</time></trkpt><trkpt lat="41.32830837872214" lon="1.9361562539515837"><ele>390.66666666666663</ele><time>2026-04-19T12:17:02Z</time></trkpt><trkpt lat="41.328318338685705" lon="1.9359268837303456"><ele>390.0</ele><time>2026-04-19T12:17:03Z</time></trkpt><trkpt lat="41.32831194985062" lon="1.9357008070942339"><ele>389.66666666666663</ele><time>2026-04-19T12:17:04Z</time></trkpt><trkpt lat="41.328290123073415" lon="1.9354610645410788"><ele>389.3333333333333</ele><time>2026-04-19T12:17:05Z</time></trkpt><trkpt lat="41.32825151234755" lon="1.9352198781718415"><ele>389.0</ele><time>2026-04-19T12:17:05.999Z</time></trkpt><trkpt lat="41.32820035523511" lon="1.934976842381862"><ele>388.66666666666663</ele><time>2026-04-19T12:17:06.999Z</time></trkpt><trkpt lat="41.328139815403205" lon="1.9347265536375502"><ele>388.33333333333337</ele><time>2026-04-19T12:17:07.999Z</time></trkpt><trkpt lat="41.32806767055635" lon="1.9344901145930264"><ele>388.0</ele><time>2026-04-19T12:17:08.999Z</time></trkpt><trkpt lat="41.327992722603554" lon="1.9342638479909802"><ele>389.33333333333337</ele><time>2026-04-19T12:17:09.999Z</time></trkpt><trkpt lat="41.327924626576255" lon="1.934039119211412"><ele>390.66666666666663</ele><time>2026-04-19T12:17:10.999Z</time></trkpt><trkpt lat="41.327863290144315" lon="1.9337952191366203"><ele>392.0</ele><time>2026-04-19T12:17:11.999Z</time></trkpt><trkpt lat="41.327830968242786" lon="1.933547707981726"><ele>391.66666666666663</ele><time>2026-04-19T12:17:12.999Z</time></trkpt><trkpt lat="41.32780347547991" lon="1.9333027715215534"><ele>391.33333333333337</ele><time>2026-04-19T12:17:13.999Z</time></trkpt><trkpt lat="41.327795325334456" lon="1.9330584353475164"><ele>391.0</ele><time>2026-04-19T12:17:14.999Z</time></trkpt><trkpt lat="41.32779606293212" lon="1.9328172239435695"><ele>390.0</ele><time>2026-04-19T12:17:15.999Z</time></trkpt><trkpt lat="41.32780786234938" lon="1.9325478206549778"><ele>389.0</ele><time>2026-04-19T12:17:16.999Z</time></trkpt><trkpt lat="41.32782531144029" lon="1.9322371450913198"><ele>388.0</ele><time>2026-04-19T12:17:17.999Z</time></trkpt><trkpt lat="41.32784166673779" lon="1.9319592945491868"><ele>386.0</ele><time>2026-04-19T12:17:18.999Z</time></trkpt><trkpt lat="41.327858201680776" lon="1.9316783921897458"><ele>384.0</ele><time>2026-04-19T12:17:19.999Z</time></trkpt><trkpt lat="41.327874955354716" lon="1.9313937739721223"><ele>382.0</ele><time>2026-04-19T12:17:20.999Z</time></trkpt><trkpt lat="41.327890647383136" lon="1.9311075947741412"><ele>380.0</ele><time>2026-04-19T12:17:21.999Z</time></trkpt><trkpt lat="41.32790566866318" lon="1.9308327008122956"><ele>378.0</ele><time>2026-04-19T12:17:22.999Z</time></trkpt><trkpt lat="41.32792149745741" lon="1.930573941265972"><ele>376.0</ele><time>2026-04-19T12:17:23.999Z</time></trkpt><trkpt lat="41.327938155044066" lon="1.9303139092501336"><ele>378.66666666666663</ele><time>2026-04-19T12:17:24.999Z</time></trkpt><trkpt lat="41.32795446845643" lon="1.9300534138561227"><ele>381.3333333333333</ele><time>2026-04-19T12:17:25.999Z</time></trkpt><trkpt lat="41.32796958388743" lon="1.9297962850956163"><ele>384.0</ele><time>2026-04-19T12:17:26.999Z</time></trkpt><trkpt lat="41.32798439110671" lon="1.929543056935282"><ele>384.0</ele><time>2026-04-19T12:17:27.999Z</time></trkpt><trkpt lat="41.32799881870095" lon="1.929294816637001"><ele>384.0</ele><time>2026-04-19T12:17:28.999Z</time></trkpt><trkpt lat="41.328013651973784" lon="1.9290395957408326"><ele>384.0</ele><time>2026-04-19T12:17:29.999Z</time></trkpt><trkpt lat="41.32803038458915" lon="1.9287825902481361"><ele>386.0</ele><time>2026-04-19T12:17:30.999Z</time></trkpt><trkpt lat="41.32804793256123" lon="1.9285424169157679"><ele>388.0</ele><time>2026-04-19T12:17:31.999Z</time></trkpt><trkpt lat="41.328068858523395" lon="1.9283137615403063"><ele>390.0</ele><time>2026-04-19T12:17:32.999Z</time></trkpt><trkpt lat="41.32807809796046" lon="1.928094786687582"><ele>386.75</ele><time>2026-04-19T12:17:33.999Z</time></trkpt><trkpt lat="41.32810732645054" lon="1.927895050639507"><ele>383.5</ele><time>2026-04-19T12:17:34.999Z</time></trkpt><trkpt lat="41.328132488442755" lon="1.9277018093274982"><ele>380.25</ele><time>2026-04-19T12:17:35.999Z</time></trkpt><trkpt lat="41.32817691031593" lon="1.927516721026604"><ele>377.0</ele><time>2026-04-19T12:17:36.999Z</time></trkpt><trkpt lat="41.32820669232619" lon="1.927346244528251"><ele>377.0</ele><time>2026-04-19T12:17:37.999Z</time></trkpt><trkpt lat="41.328233275317324" lon="1.9272058826383849"><ele>377.0</ele><time>2026-04-19T12:17:38.999Z</time></trkpt><trkpt lat="41.3282577362661" lon="1.9270767253163978"><ele>377.0</ele><time>2026-04-19T12:17:39.999Z</time></trkpt><trkpt lat="41.32826719592329" lon="1.9269563147167135"><ele>377.0</ele><time>2026-04-19T12:17:40.999Z</time></trkpt><trkpt lat="41.328306687434775" lon="1.9268486998793581"><ele>377.0</ele><time>2026-04-19T12:17:41.999Z</time></trkpt><trkpt lat="41.32837732353089" lon="1.9267376428661593"><ele>376.75</ele><time>2026-04-19T12:17:42.999Z</time></trkpt><trkpt lat="41.32843805261303" lon="1.9266236233817007"><ele>376.5</ele><time>2026-04-19T12:17:43.999Z</time></trkpt><trkpt lat="41.328477439973206" lon="1.9264774073703612"><ele>376.25</ele><time>2026-04-19T12:17:44.999Z</time></trkpt><trkpt lat="41.3284558460535" lon="1.926276076537588"><ele>376.0</ele><time>2026-04-19T12:17:45.999Z</time></trkpt><trkpt lat="41.328467918209526" lon="1.9260190271239441"><ele>375.0</ele><time>2026-04-19T12:17:46.999Z</time></trkpt><trkpt lat="41.328536694324704" lon="1.9257752456881256"><ele>374.0</ele><time>2026-04-19T12:17:47.999Z</time></trkpt><trkpt lat="41.32858334199337" lon="1.925507998190016"><ele>373.0</ele><time>2026-04-19T12:17:48.999Z</time></trkpt><trkpt lat="41.32863989033433" lon="1.9252366479695542"><ele>372.66666666666663</ele><time>2026-04-19T12:17:49.999Z</time></trkpt><trkpt lat="41.328681417811396" lon="1.9249878650621917"><ele>372.3333333333333</ele><time>2026-04-19T12:17:50.999Z</time></trkpt><trkpt lat="41.32871423462678" lon="1.924749716896914"><ele>372.0</ele><time>2026-04-19T12:17:51.999Z</time></trkpt><trkpt lat="41.32874600273412" lon="1.9245062685211405"><ele>372.0</ele><time>2026-04-19T12:17:52.999Z</time></trkpt><trkpt lat="41.32877370932223" lon="1.924258272675366"><ele>372.0</ele><time>2026-04-19T12:17:53.999Z</time></trkpt><trkpt lat="41.32879935729893" lon="1.9240226854934541"><ele>372.0</ele><time>2026-04-19T12:17:54.999Z</time></trkpt><trkpt lat="41.3288260070854" lon="1.9237765231955266"><ele>371.6666666666667</ele><time>2026-04-19T12:17:55.999Z</time></trkpt><trkpt lat="41.3288444320233" lon="1.923538765997412"><ele>371.33333333333337</ele><time>2026-04-19T12:17:56.999Z</time></trkpt><trkpt lat="41.32885454031138" lon="1.9233016116972945"><ele>371.0</ele><time>2026-04-19T12:17:58Z</time></trkpt><trkpt lat="41.328861368647004" lon="1.9230668951618108"><ele>371.0</ele><time>2026-04-19T12:17:59Z</time></trkpt><trkpt lat="41.32886894561954" lon="1.9228329760850906"><ele>371.0</ele><time>2026-04-19T12:18:00Z</time></trkpt><trkpt lat="41.32887569652385" lon="1.9225989773802366"><ele>371.0</ele><time>2026-04-19T12:18:01Z</time></trkpt><trkpt lat="41.32887898677148" lon="1.9223678639457236"><ele>371.0</ele><time>2026-04-19T12:18:02Z</time></trkpt><trkpt lat="41.32887871497711" lon="1.9221251424896106"><ele>371.0</ele><time>2026-04-19T12:18:03Z</time></trkpt><trkpt lat="41.328878545009566" lon="1.921884339831649"><ele>371.0</ele><time>2026-04-19T12:18:04Z</time></trkpt><trkpt lat="41.32887812116106" lon="1.9216703288918273"><ele>371.0</ele><time>2026-04-19T12:18:05Z</time></trkpt><trkpt lat="41.32887888273814" lon="1.9214772443261912"><ele>371.0</ele><time>2026-04-19T12:18:06Z</time></trkpt><trkpt lat="41.32888077127411" lon="1.9212901036265153"><ele>371.0</ele><time>2026-04-19T12:18:07Z</time></trkpt><trkpt lat="41.328880358767385" lon="1.921105832836233"><ele>371.0</ele><time>2026-04-19T12:18:08Z</time></trkpt><trkpt lat="41.328877195955855" lon="1.9209353763150938"><ele>371.0</ele><time>2026-04-19T12:18:09Z</time></trkpt><trkpt lat="41.328876101407914" lon="1.9207810213228715"><ele>371.0</ele><time>2026-04-19T12:18:10Z</time></trkpt><trkpt lat="41.32888668787858" lon="1.9206477341786383"><ele>371.0</ele><time>2026-04-19T12:18:11Z</time></trkpt><trkpt lat="41.32891406072763" lon="1.9205278215851622"><ele>371.0</ele><time>2026-04-19T12:18:12Z</time></trkpt><trkpt lat="41.32896130956537" lon="1.920420640508308"><ele>371.0</ele><time>2026-04-19T12:18:13Z</time></trkpt><trkpt lat="41.32901237938486" lon="1.9203241504285453"><ele>370.75</ele><time>2026-04-19T12:18:14Z</time></trkpt><trkpt lat="41.32903052741899" lon="1.920183956124271"><ele>370.5</ele><time>2026-04-19T12:18:15Z</time></trkpt><trkpt lat="41.328978375669955" lon="1.9200367876830735"><ele>370.25</ele><time>2026-04-19T12:18:16Z</time></trkpt><trkpt lat="41.328918864403555" lon="1.9198674947117362"><ele>370.0</ele><time>2026-04-19T12:18:17Z</time></trkpt><trkpt lat="41.3288674189972" lon="1.9196558647442785"><ele>370.0</ele><time>2026-04-19T12:18:18Z</time></trkpt><trkpt lat="41.32886034705836" lon="1.919364566751513"><ele>370.0</ele><time>2026-04-19T12:18:19Z</time></trkpt><trkpt lat="41.32889318818704" lon="1.9190267219154085"><ele>370.5</ele><time>2026-04-19T12:18:20Z</time></trkpt><trkpt lat="41.32888687486621" lon="1.918641102868052"><ele>371.0</ele><time>2026-04-19T12:18:21Z</time></trkpt><trkpt lat="41.328871112174106" lon="1.9182527621908643"><ele>371.0</ele><time>2026-04-19T12:18:22Z</time></trkpt><trkpt lat="41.32883343209206" lon="1.9178820430026713"><ele>371.0</ele><time>2026-04-19T12:18:23Z</time></trkpt><trkpt lat="41.32879533364175" lon="1.9174680452277224"><ele>371.5</ele><time>2026-04-19T12:18:24Z</time></trkpt><trkpt lat="41.328732684835224" lon="1.917044561932703"><ele>372.0</ele><time>2026-04-19T12:18:25Z</time></trkpt><trkpt lat="41.32867321617203" lon="1.9166412031997473"><ele>372.0</ele><time>2026-04-19T12:18:26Z</time></trkpt><trkpt lat="41.328617020507245" lon="1.9162529164325681"><ele>372.0</ele><time>2026-04-19T12:18:27Z</time></trkpt><trkpt lat="41.32858039974157" lon="1.9158670032217862"><ele>374.0</ele><time>2026-04-19T12:18:28Z</time></trkpt><trkpt lat="41.3285428071977" lon="1.915478113949446"><ele>376.0</ele><time>2026-04-19T12:18:29Z</time></trkpt><trkpt lat="41.32852264944207" lon="1.9150988279880754"><ele>377.0</ele><time>2026-04-19T12:18:30Z</time></trkpt><trkpt lat="41.32851735405104" lon="1.9147377835799293"><ele>378.0</ele><time>2026-04-19T12:18:31Z</time></trkpt><trkpt lat="41.328526161815255" lon="1.9144010244275675"><ele>377.5</ele><time>2026-04-19T12:18:32Z</time></trkpt><trkpt lat="41.32854322671647" lon="1.9140915946740436"><ele>377.0</ele><time>2026-04-19T12:18:33Z</time></trkpt><trkpt lat="41.32857037913662" lon="1.913782833793161"><ele>377.0</ele><time>2026-04-19T12:18:34Z</time></trkpt><trkpt lat="41.328608381635945" lon="1.9134690793000229"><ele>377.0</ele><time>2026-04-19T12:18:35Z</time></trkpt><trkpt lat="41.328640251227284" lon="1.9131595631348468"><ele>377.0</ele><time>2026-04-19T12:18:36Z</time></trkpt><trkpt lat="41.32870127954823" lon="1.9128545957065073"><ele>377.0</ele><time>2026-04-19T12:18:37Z</time></trkpt><trkpt lat="41.328763129597064" lon="1.9125585785590327"><ele>375.5</ele><time>2026-04-19T12:18:38Z</time></trkpt><trkpt lat="41.32885098066518" lon="1.9122774087156518"><ele>374.0</ele><time>2026-04-19T12:18:39Z</time></trkpt><trkpt lat="41.32893254427477" lon="1.9119942806080283"><ele>374.0</ele><time>2026-04-19T12:18:40Z</time></trkpt><trkpt lat="41.32902238705401" lon="1.9117211674735386"><ele>374.0</ele><time>2026-04-19T12:18:41Z</time></trkpt><trkpt lat="41.32912027355217" lon="1.9114542676212765"><ele>374.0</ele><time>2026-04-19T12:18:42Z</time></trkpt><trkpt lat="41.32922788606373" lon="1.9111864060693364"><ele>374.0</ele><time>2026-04-19T12:18:43Z</time></trkpt><trkpt lat="41.32933990439869" lon="1.9109368042817232"><ele>374.0</ele><time>2026-04-19T12:18:44Z</time></trkpt><trkpt lat="41.32945960150847" lon="1.9106894704228756"><ele>374.0</ele><time>2026-04-19T12:18:45Z</time></trkpt><trkpt lat="41.3295778782102" lon="1.9104645739821116"><ele>374.0</ele><time>2026-04-19T12:18:46Z</time></trkpt><trkpt lat="41.32969612088652" lon="1.9102576010924395"><ele>374.0</ele><time>2026-04-19T12:18:47Z</time></trkpt><trkpt lat="41.32981103259607" lon="1.910036007240284"><ele>374.0</ele><time>2026-04-19T12:18:48Z</time></trkpt><trkpt lat="41.32994915051716" lon="1.9098377831695224"><ele>371.6666666666667</ele><time>2026-04-19T12:18:48.999Z</time></trkpt><trkpt lat="41.33008958822818" lon="1.9096392584932464"><ele>369.3333333333333</ele><time>2026-04-19T12:18:49.999Z</time></trkpt><trkpt lat="41.330230638798" lon="1.9094477644765093"><ele>367.0</ele><time>2026-04-19T12:18:50.999Z</time></trkpt><trkpt lat="41.33037826627234" lon="1.9092508182846477"><ele>367.0</ele><time>2026-04-19T12:18:51.999Z</time></trkpt><trkpt lat="41.330525732718776" lon="1.909047285841504"><ele>367.0</ele><time>2026-04-19T12:18:52.999Z</time></trkpt><trkpt lat="41.3306754106816" lon="1.908846090554234"><ele>367.0</ele><time>2026-04-19T12:18:53.999Z</time></trkpt><trkpt lat="41.330829411319094" lon="1.908647374555599"><ele>365.3333333333333</ele><time>2026-04-19T12:18:54.999Z</time></trkpt><trkpt lat="41.33098395215501" lon="1.908446198349962"><ele>363.6666666666667</ele><time>2026-04-19T12:18:55.999Z</time></trkpt><trkpt lat="41.33114083258313" lon="1.9082376479320449"><ele>362.0</ele><time>2026-04-19T12:18:56.999Z</time></trkpt><trkpt lat="41.33129683113416" lon="1.9080263228756889"><ele>361.0</ele><time>2026-04-19T12:18:57.999Z</time></trkpt><trkpt lat="41.33145963199335" lon="1.9078109640571677"><ele>360.0</ele><time>2026-04-19T12:18:58.999Z</time></trkpt><trkpt lat="41.33162472516063" lon="1.9075885446309266"><ele>360.0</ele><time>2026-04-19T12:18:59.999Z</time></trkpt><trkpt lat="41.33178662670849" lon="1.9073691330164104"><ele>360.0</ele><time>2026-04-19T12:19:00.999Z</time></trkpt><trkpt lat="41.3319488133328" lon="1.907146905313495"><ele>360.0</ele><time>2026-04-19T12:19:01.999Z</time></trkpt><trkpt lat="41.332113004002274" lon="1.9069325281020193"><ele>360.0</ele><time>2026-04-19T12:19:02.999Z</time></trkpt><trkpt lat="41.33227517337445" lon="1.9067160837580912"><ele>357.5</ele><time>2026-04-19T12:19:03.999Z</time></trkpt><trkpt lat="41.33243976660654" lon="1.9064963115851725"><ele>355.0</ele><time>2026-04-19T12:19:04.999Z</time></trkpt><trkpt lat="41.33260156166695" lon="1.9062793880395028"><ele>355.0</ele><time>2026-04-19T12:19:05.999Z</time></trkpt><trkpt lat="41.33276151461586" lon="1.9060642142436042"><ele>355.0</ele><time>2026-04-19T12:19:06.999Z</time></trkpt><trkpt lat="41.332926474336176" lon="1.9058489226719169"><ele>356.0</ele><time>2026-04-19T12:19:07.999Z</time></trkpt><trkpt lat="41.33308607273277" lon="1.9056367318967509"><ele>357.0</ele><time>2026-04-19T12:19:08.999Z</time></trkpt><trkpt lat="41.33324218304989" lon="1.9054274549019345"><ele>358.0</ele><time>2026-04-19T12:19:09.999Z</time></trkpt><trkpt lat="41.33339779014493" lon="1.9052266385833654"><ele>357.3333333333333</ele><time>2026-04-19T12:19:10.999Z</time></trkpt><trkpt lat="41.33355417075515" lon="1.9050309229967441"><ele>356.6666666666667</ele><time>2026-04-19T12:19:11.999Z</time></trkpt><trkpt lat="41.33371923139877" lon="1.9048478668356283"><ele>356.0</ele><time>2026-04-19T12:19:12.999Z</time></trkpt><trkpt lat="41.333887962577464" lon="1.9046757333720459"><ele>356.0</ele><time>2026-04-19T12:19:13.999Z</time></trkpt><trkpt lat="41.3340618286782" lon="1.9045131953043637"><ele>356.0</ele><time>2026-04-19T12:19:14.999Z</time></trkpt><trkpt lat="41.33424081074325" lon="1.9043618860049278"><ele>356.0</ele><time>2026-04-19T12:19:15.999Z</time></trkpt><trkpt lat="41.33442943680081" lon="1.9042208991349663"><ele>355.33333333333337</ele><time>2026-04-19T12:19:16.999Z</time></trkpt><trkpt lat="41.33462373202496" lon="1.9040859836714281"><ele>354.6666666666667</ele><time>2026-04-19T12:19:17.999Z</time></trkpt><trkpt lat="41.33482017555713" lon="1.9039616420791905"><ele>354.0</ele><time>2026-04-19T12:19:18.999Z</time></trkpt><trkpt lat="41.33500675406502" lon="1.9038647909310276"><ele>354.0</ele><time>2026-04-19T12:19:19.999Z</time></trkpt><trkpt lat="41.33518307369985" lon="1.903787385909954"><ele>354.0</ele><time>2026-04-19T12:19:20.999Z</time></trkpt><trkpt lat="41.33535242154812" lon="1.9037208172298958"><ele>354.0</ele><time>2026-04-19T12:19:21.999Z</time></trkpt><trkpt lat="41.335513983619855" lon="1.9036675718939509"><ele>355.25</ele><time>2026-04-19T12:19:22.999Z</time></trkpt><trkpt lat="41.33566129824381" lon="1.9036238505356056"><ele>356.5</ele><time>2026-04-19T12:19:23.999Z</time></trkpt><trkpt lat="41.335781622659255" lon="1.903595982585173"><ele>357.75</ele><time>2026-04-19T12:19:24.999Z</time></trkpt><trkpt lat="41.335884252238124" lon="1.9035871748149877"><ele>359.0</ele><time>2026-04-19T12:19:25.999Z</time></trkpt><trkpt lat="41.335969268888086" lon="1.9036194102447028"><ele>359.0</ele><time>2026-04-19T12:19:26.999Z</time></trkpt><trkpt lat="41.33603876458099" lon="1.903720593393146"><ele>359.0</ele><time>2026-04-19T12:19:27.999Z</time></trkpt><trkpt lat="41.33611359403569" lon="1.9037951554490604"><ele>359.0</ele><time>2026-04-19T12:19:28.999Z</time></trkpt><trkpt lat="41.33619640813342" lon="1.9037999010924176"><ele>359.0</ele><time>2026-04-19T12:19:29.999Z</time></trkpt><trkpt lat="41.336256287838225" lon="1.9037471993500694"><ele>359.0</ele><time>2026-04-19T12:19:30.999Z</time></trkpt><trkpt lat="41.3363147843279" lon="1.9036400977810375"><ele>359.0</ele><time>2026-04-19T12:19:31.999Z</time></trkpt><trkpt lat="41.33637624487774" lon="1.9034709641788925"><ele>359.0</ele><time>2026-04-19T12:19:32.999Z</time></trkpt><trkpt lat="41.33645840569627" lon="1.903316542052142"><ele>359.0</ele><time>2026-04-19T12:19:33.999Z</time></trkpt><trkpt lat="41.33655443539061" lon="1.9031313417907514"><ele>360.33333333333337</ele><time>2026-04-19T12:19:34.999Z</time></trkpt><trkpt lat="41.33664232914478" lon="1.9028818935313612"><ele>361.6666666666667</ele><time>2026-04-19T12:19:35.999Z</time></trkpt><trkpt lat="41.33669256191088" lon="1.902612578405071"><ele>363.0</ele><time>2026-04-19T12:19:36.999Z</time></trkpt><trkpt lat="41.33672714256036" lon="1.9023291712519987"><ele>360.3333333333333</ele><time>2026-04-19T12:19:37.999Z</time></trkpt><trkpt lat="41.33677068094625" lon="1.9020540901967282"><ele>357.66666666666663</ele><time>2026-04-19T12:19:38.999Z</time></trkpt><trkpt lat="41.33681810035218" lon="1.9017729876504652"><ele>355.0</ele><time>2026-04-19T12:19:39.999Z</time></trkpt><trkpt lat="41.33685530695063" lon="1.9015166962182632"><ele>354.66666666666663</ele><time>2026-04-19T12:19:40.999Z</time></trkpt><trkpt lat="41.336890655341364" lon="1.9012863490463126"><ele>354.3333333333333</ele><time>2026-04-19T12:19:41.999Z</time></trkpt><trkpt lat="41.336919516676176" lon="1.9010763929666212"><ele>354.0</ele><time>2026-04-19T12:19:42.999Z</time></trkpt><trkpt lat="41.33694283709026" lon="1.900885297506923"><ele>353.75</ele><time>2026-04-19T12:19:43.999Z</time></trkpt><trkpt lat="41.336968921294435" lon="1.9007050469060742"><ele>353.5</ele><time>2026-04-19T12:19:44.999Z</time></trkpt><trkpt lat="41.33699176580369" lon="1.9005458999755762"><ele>353.25</ele><time>2026-04-19T12:19:45.999Z</time></trkpt><trkpt lat="41.33701498963499" lon="1.9003954864006198"><ele>353.0</ele><time>2026-04-19T12:19:46.999Z</time></trkpt><trkpt lat="41.33702336381979" lon="1.900272886844853"><ele>353.0</ele><time>2026-04-19T12:19:47.999Z</time></trkpt><trkpt lat="41.33703859060378" lon="1.9001623772258196"><ele>353.0</ele><time>2026-04-19T12:19:48.999Z</time></trkpt><trkpt lat="41.3370575854563" lon="1.9000711954764014"><ele>353.0</ele><time>2026-04-19T12:19:49.999Z</time></trkpt><trkpt lat="41.337089379240005" lon="1.899987942942241"><ele>353.0</ele><time>2026-04-19T12:19:50.999Z</time></trkpt><trkpt lat="41.33715217422329" lon="1.899904406414781"><ele>353.0</ele><time>2026-04-19T12:19:51.999Z</time></trkpt><trkpt lat="41.337196301807474" lon="1.8998095441727043"><ele>353.0</ele><time>2026-04-19T12:19:52.999Z</time></trkpt><trkpt lat="41.33721301360383" lon="1.899674424525619"><ele>352.75</ele><time>2026-04-19T12:19:53.999Z</time></trkpt><trkpt lat="41.33720033145063" lon="1.8995270136410125"><ele>352.5</ele><time>2026-04-19T12:19:54.999Z</time></trkpt><trkpt lat="41.33719423307792" lon="1.8993657616590287"><ele>352.25</ele><time>2026-04-19T12:19:55.999Z</time></trkpt><trkpt lat="41.33720083652197" lon="1.89919781723554"><ele>352.0</ele><time>2026-04-19T12:19:56.999Z</time></trkpt><trkpt lat="41.337183253214356" lon="1.8990589345690754"><ele>351.66666666666663</ele><time>2026-04-19T12:19:57.999Z</time></trkpt><trkpt lat="41.33716966919765" lon="1.898889283808518"><ele>351.3333333333333</ele><time>2026-04-19T12:19:58.999Z</time></trkpt><trkpt lat="41.33712183887836" lon="1.8986962456503345"><ele>351.0</ele><time>2026-04-19T12:20:00Z</time></trkpt><trkpt lat="41.33707010208994" lon="1.898470194921938"><ele>356.0</ele><time>2026-04-19T12:20:01Z</time></trkpt><trkpt lat="41.33756786700192" lon="1.898774755225088"><ele>356.0</ele><time>2026-04-19T12:20:02Z</time></trkpt><trkpt lat="41.337661405664825" lon="1.8986407899059137"><ele>356.0</ele><time>2026-04-19T12:20:03Z</time></trkpt><trkpt lat="41.33773304434199" lon="1.8985211721665476"><ele>356.0</ele><time>2026-04-19T12:20:04Z</time></trkpt><trkpt lat="41.33778153558981" lon="1.8984143639678663"><ele>356.0</ele><time>2026-04-19T12:20:05Z</time></trkpt><trkpt lat="41.33782447104735" lon="1.8983210827044843"><ele>356.0</ele><time>2026-04-19T12:20:06Z</time></trkpt><trkpt lat="41.33786253271614" lon="1.8982377475145045"><ele>355.57142857142856</ele><time>2026-04-19T12:20:07Z</time></trkpt><trkpt lat="41.33790105247448" lon="1.8981619599492712"><ele>355.1428571428571</ele><time>2026-04-19T12:20:08Z</time></trkpt><trkpt lat="41.337930497994506" lon="1.8980868993919748"><ele>354.71428571428567</ele><time>2026-04-19T12:20:09Z</time></trkpt><trkpt lat="41.3379706625081" lon="1.8980196109108374"><ele>354.2857142857143</ele><time>2026-04-19T12:20:10Z</time></trkpt><trkpt lat="41.338038745819986" lon="1.8979261308825819"><ele>353.8571428571429</ele><time>2026-04-19T12:20:12Z</time></trkpt><trkpt lat="41.33806299739784" lon="1.8978451923787447"><ele>353.4285714285714</ele><time>2026-04-19T12:20:14Z</time></trkpt><trkpt lat="41.33809677039615" lon="1.897747304919642"><ele>353.0</ele><time>2026-04-19T12:20:16Z</time></trkpt><trkpt lat="41.33812397360516" lon="1.897667343202298"><ele>355.0</ele><time>2026-04-19T12:20:18Z</time></trkpt><trkpt lat="41.338170712502006" lon="1.897494536535414"><ele>357.0</ele><time>2026-04-19T12:20:20Z</time></trkpt><trkpt lat="41.33822199097008" lon="1.8973714795504932"><ele>359.0</ele><time>2026-04-19T12:20:21Z</time></trkpt><trkpt lat="41.33824383871676" lon="1.8972470761924085"><ele>361.0</ele><time>2026-04-19T12:20:22Z</time></trkpt><trkpt lat="41.3383396932219" lon="1.8970844931769288"><ele>361.0</ele><time>2026-04-19T12:20:23Z</time></trkpt><trkpt lat="41.33842477033094" lon="1.8969159049953244"><ele>361.0</ele><time>2026-04-19T12:20:24Z</time></trkpt><trkpt lat="41.33853649517422" lon="1.896721936460558"><ele>361.0</ele><time>2026-04-19T12:20:25Z</time></trkpt><trkpt lat="41.33860652704186" lon="1.8965248346984689"><ele>359.3333333333333</ele><time>2026-04-19T12:20:26Z</time></trkpt><trkpt lat="41.338680642344066" lon="1.896326867718916"><ele>357.6666666666667</ele><time>2026-04-19T12:20:27Z</time></trkpt><trkpt lat="41.338748894906" lon="1.896123902450894"><ele>356.0</ele><time>2026-04-19T12:20:28Z</time></trkpt><trkpt lat="41.33881432416956" lon="1.8958997850742314"><ele>355.0</ele><time>2026-04-19T12:20:29Z</time></trkpt><trkpt lat="41.33886984536894" lon="1.895679642803158"><ele>354.0</ele><time>2026-04-19T12:20:30Z</time></trkpt><trkpt lat="41.33892719520989" lon="1.8954430301733936"><ele>353.0</ele><time>2026-04-19T12:20:31Z</time></trkpt><trkpt lat="41.33893611555854" lon="1.895198143352891"><ele>353.33333333333337</ele><time>2026-04-19T12:20:32Z</time></trkpt><trkpt lat="41.33892905799162" lon="1.8949646629415797"><ele>353.6666666666667</ele><time>2026-04-19T12:20:33Z</time></trkpt><trkpt lat="41.3388980316985" lon="1.8947243640731464"><ele>354.0</ele><time>2026-04-19T12:20:34Z</time></trkpt><trkpt lat="41.33885607856984" lon="1.8944981666775946"><ele>354.0</ele><time>2026-04-19T12:20:35Z</time></trkpt><trkpt lat="41.338792553097896" lon="1.8942750415158627"><ele>354.0</ele><time>2026-04-19T12:20:36Z</time></trkpt><trkpt lat="41.338692034803124" lon="1.8940709915212404"><ele>354.0</ele><time>2026-04-19T12:20:37Z</time></trkpt><trkpt lat="41.33858040315458" lon="1.893863822865471"><ele>354.6666666666667</ele><time>2026-04-19T12:20:38Z</time></trkpt><trkpt lat="41.338491482804805" lon="1.8936393371430649"><ele>355.33333333333337</ele><time>2026-04-19T12:20:39Z</time></trkpt><trkpt lat="41.33839373563071" lon="1.893433093586983"><ele>356.0</ele><time>2026-04-19T12:20:40Z</time></trkpt><trkpt lat="41.33829021192474" lon="1.893235079415393"><ele>357.6666666666667</ele><time>2026-04-19T12:20:41Z</time></trkpt><trkpt lat="41.3381734499168" lon="1.8930544880166196"><ele>359.3333333333333</ele><time>2026-04-19T12:20:42Z</time></trkpt><trkpt lat="41.33808547878845" lon="1.8928562187973672"><ele>361.0</ele><time>2026-04-19T12:20:43Z</time></trkpt><trkpt lat="41.3379934715309" lon="1.892682240676259"><ele>357.3333333333333</ele><time>2026-04-19T12:20:44Z</time></trkpt><trkpt lat="41.337916834909535" lon="1.8925143729223657"><ele>353.6666666666667</ele><time>2026-04-19T12:20:45Z</time></trkpt><trkpt lat="41.337859889977175" lon="1.8923241718196706"><ele>350.0</ele><time>2026-04-19T12:20:46Z</time></trkpt><trkpt lat="41.337820166204125" lon="1.8921055292494247"><ele>350.0</ele><time>2026-04-19T12:20:47Z</time></trkpt><trkpt lat="41.337801357493895" lon="1.8918673220601905"><ele>350.0</ele><time>2026-04-19T12:20:48Z</time></trkpt><trkpt lat="41.33779850285091" lon="1.8916172356659584"><ele>350.0</ele><time>2026-04-19T12:20:49Z</time></trkpt><trkpt lat="41.3377990239384" lon="1.891372635889891"><ele>350.33333333333337</ele><time>2026-04-19T12:20:50Z</time></trkpt><trkpt lat="41.33778429279141" lon="1.8911358041046056"><ele>350.6666666666667</ele><time>2026-04-19T12:20:51Z</time></trkpt><trkpt lat="41.33776702079763" lon="1.8908959453031804"><ele>351.0</ele><time>2026-04-19T12:20:52Z</time></trkpt><trkpt lat="41.33772003356399" lon="1.890643759459786"><ele>351.3333333333333</ele><time>2026-04-19T12:20:53Z</time></trkpt><trkpt lat="41.337672614408916" lon="1.8903834541792366"><ele>351.66666666666663</ele><time>2026-04-19T12:20:54Z</time></trkpt><trkpt lat="41.33759695325394" lon="1.8901384102778727"><ele>352.0</ele><time>2026-04-19T12:20:55Z</time></trkpt><trkpt lat="41.33755118932222" lon="1.8898978706229597"><ele>352.3333333333333</ele><time>2026-04-19T12:20:56Z</time></trkpt><trkpt lat="41.33747847929635" lon="1.8896706355600221"><ele>352.6666666666667</ele><time>2026-04-19T12:20:57Z</time></trkpt><trkpt lat="41.33743098811862" lon="1.8894311282973237"><ele>353.0</ele><time>2026-04-19T12:20:58Z</time></trkpt><trkpt lat="41.33736624200101" lon="1.8891852013014492"><ele>353.0</ele><time>2026-04-19T12:20:59Z</time></trkpt><trkpt lat="41.33729930297891" lon="1.8889300176215877"><ele>353.0</ele><time>2026-04-19T12:21:00Z</time></trkpt><trkpt lat="41.33721938322119" lon="1.8886839362844676"><ele>353.0</ele><time>2026-04-19T12:21:01Z</time></trkpt><trkpt lat="41.337170272446635" lon="1.8884373061524462"><ele>349.6666666666667</ele><time>2026-04-19T12:21:02Z</time></trkpt><trkpt lat="41.33710658969322" lon="1.8881946091004522"><ele>346.3333333333333</ele><time>2026-04-19T12:21:03Z</time></trkpt><trkpt lat="41.337024722351856" lon="1.8879559526729455"><ele>343.0</ele><time>2026-04-19T12:21:04Z</time></trkpt><trkpt lat="41.336953191981166" lon="1.887722305866006"><ele>344.0</ele><time>2026-04-19T12:21:05Z</time></trkpt><trkpt lat="41.33685816600714" lon="1.8875239073599974"><ele>345.0</ele><time>2026-04-19T12:21:06Z</time></trkpt><trkpt lat="41.33672870816758" lon="1.8873411843402328"><ele>346.0</ele><time>2026-04-19T12:21:07Z</time></trkpt><trkpt lat="41.33657882414375" lon="1.8871722738646302"><ele>346.0</ele><time>2026-04-19T12:21:08Z</time></trkpt><trkpt lat="41.33641264954724" lon="1.8870425612521802"><ele>346.0</ele><time>2026-04-19T12:21:09Z</time></trkpt><trkpt lat="41.336274088236145" lon="1.8869311834907507"><ele>346.0</ele><time>2026-04-19T12:21:10Z</time></trkpt><trkpt lat="41.33616074766598" lon="1.8868202650642307"><ele>345.25</ele><time>2026-04-19T12:21:11Z</time></trkpt><trkpt lat="41.33607283692931" lon="1.8866917079047287"><ele>344.5</ele><time>2026-04-19T12:21:12Z</time></trkpt><trkpt lat="41.336025468676134" lon="1.886511949831473"><ele>343.75</ele><time>2026-04-19T12:21:13Z</time></trkpt><trkpt lat="41.335998421924636" lon="1.8862876751045108"><ele>343.0</ele><time>2026-04-19T12:21:14Z</time></trkpt><trkpt lat="41.336022116054636" lon="1.8860589738017117"><ele>343.66666666666663</ele><time>2026-04-19T12:21:15Z</time></trkpt><trkpt lat="41.336053625081824" lon="1.8858131596183687"><ele>344.3333333333333</ele><time>2026-04-19T12:21:16Z</time></trkpt><trkpt lat="41.33606571213775" lon="1.8855731522913781"><ele>345.0</ele><time>2026-04-19T12:21:17Z</time></trkpt><trkpt lat="41.33607062491367" lon="1.8853589630808725"><ele>345.0</ele><time>2026-04-19T12:21:18Z</time></trkpt><trkpt lat="41.33603264876734" lon="1.8851395221129426"><ele>345.0</ele><time>2026-04-19T12:21:19Z</time></trkpt><trkpt lat="41.33595615667751" lon="1.8849573642195079"><ele>345.0</ele><time>2026-04-19T12:21:20Z</time></trkpt><trkpt lat="41.33588706292811" lon="1.8847678270209038"><ele>345.3333333333333</ele><time>2026-04-19T12:21:21Z</time></trkpt><trkpt lat="41.33583307345246" lon="1.8845645620241094"><ele>345.66666666666663</ele><time>2026-04-19T12:21:22Z</time></trkpt><trkpt lat="41.33576344610712" lon="1.884379088857893"><ele>346.0</ele><time>2026-04-19T12:21:23Z</time></trkpt><trkpt lat="41.33567152834027" lon="1.8842001906557553"><ele>343.66666666666663</ele><time>2026-04-19T12:21:24Z</time></trkpt><trkpt lat="41.335584990847764" lon="1.8840152063146027"><ele>341.3333333333333</ele><time>2026-04-19T12:21:25Z</time></trkpt><trkpt lat="41.33547324616019" lon="1.8838240094900722"><ele>339.0</ele><time>2026-04-19T12:21:26Z</time></trkpt><trkpt lat="41.33533474587902" lon="1.8836570031560969"><ele>339.0</ele><time>2026-04-19T12:21:27Z</time></trkpt><trkpt lat="41.33517805433948" lon="1.8834914653652803"><ele>339.0</ele><time>2026-04-19T12:21:28Z</time></trkpt><trkpt lat="41.33501455330134" lon="1.8833358578251935"><ele>339.0</ele><time>2026-04-19T12:21:28.999Z</time></trkpt><trkpt lat="41.33484687118301" lon="1.8831949162459716"><ele>337.3333333333333</ele><time>2026-04-19T12:21:29.999Z</time></trkpt><trkpt lat="41.33470765256424" lon="1.8830715857595772"><ele>335.66666666666663</ele><time>2026-04-19T12:21:30.999Z</time></trkpt><trkpt lat="41.334581074640674" lon="1.8829375353055344"><ele>334.0</ele><time>2026-04-19T12:21:31.999Z</time></trkpt><trkpt lat="41.334471013471884" lon="1.882757906358402"><ele>335.0</ele><time>2026-04-19T12:21:32.999Z</time></trkpt><trkpt lat="41.33441159784414" lon="1.8825473807934665"><ele>336.0</ele><time>2026-04-19T12:21:33.999Z</time></trkpt><trkpt lat="41.33440855719483" lon="1.8823223773441105"><ele>337.0</ele><time>2026-04-19T12:21:34.999Z</time></trkpt><trkpt lat="41.334424385180526" lon="1.8820652022784434"><ele>337.0</ele><time>2026-04-19T12:21:35.999Z</time></trkpt><trkpt lat="41.33447222241933" lon="1.8818009190552505"><ele>337.0</ele><time>2026-04-19T12:21:36.999Z</time></trkpt><trkpt lat="41.334550834698305" lon="1.881527426391968"><ele>337.0</ele><time>2026-04-19T12:21:37.999Z</time></trkpt><trkpt lat="41.3346249958941" lon="1.8812646343920294"><ele>337.0</ele><time>2026-04-19T12:21:38.999Z</time></trkpt><trkpt lat="41.33470504432485" lon="1.8810317639368468"><ele>337.0</ele><time>2026-04-19T12:21:39.999Z</time></trkpt><trkpt lat="41.334767111243856" lon="1.8808206530154576"><ele>337.0</ele><time>2026-04-19T12:21:40.999Z</time></trkpt><trkpt lat="41.334816546391025" lon="1.8806333871445986"><ele>337.0</ele><time>2026-04-19T12:21:41.999Z</time></trkpt><trkpt lat="41.33483502962072" lon="1.8804488259134875"><ele>337.0</ele><time>2026-04-19T12:21:42.999Z</time></trkpt><trkpt lat="41.33480257751292" lon="1.880263641505645"><ele>337.0</ele><time>2026-04-19T12:21:43.999Z</time></trkpt><trkpt lat="41.33471678009505" lon="1.8800822924952196"><ele>337.0</ele><time>2026-04-19T12:21:44.999Z</time></trkpt><trkpt lat="41.334612816946" lon="1.879905323316707"><ele>337.3333333333333</ele><time>2026-04-19T12:21:45.999Z</time></trkpt><trkpt lat="41.33454258973156" lon="1.8797055374685296"><ele>337.6666666666667</ele><time>2026-04-19T12:21:46.999Z</time></trkpt><trkpt lat="41.33451029079512" lon="1.8794541124554327"><ele>338.0</ele><time>2026-04-19T12:21:47.999Z</time></trkpt><trkpt lat="41.33448048529762" lon="1.8791294526319071"><ele>338.0</ele><time>2026-04-19T12:21:48.999Z</time></trkpt><trkpt lat="41.33445130306153" lon="1.878811581797787"><ele>338.0</ele><time>2026-04-19T12:21:49.999Z</time></trkpt><trkpt lat="41.3344236272714" lon="1.8785108721003076"><ele>337.6666666666667</ele><time>2026-04-19T12:21:50.999Z</time></trkpt><trkpt lat="41.33440002004514" lon="1.8782575075067762"><ele>337.3333333333333</ele><time>2026-04-19T12:21:51.999Z</time></trkpt><trkpt lat="41.33437936062973" lon="1.878030969910615"><ele>337.0</ele><time>2026-04-19T12:21:52.999Z</time></trkpt><trkpt lat="41.334372781297404" lon="1.877825754413873"><ele>337.0</ele><time>2026-04-19T12:21:53.999Z</time></trkpt><trkpt lat="41.33441769961737" lon="1.8776289050351724"><ele>337.0</ele><time>2026-04-19T12:21:54.999Z</time></trkpt><trkpt lat="41.33451674573588" lon="1.8774577250183129"><ele>337.0</ele><time>2026-04-19T12:21:55.999Z</time></trkpt><trkpt lat="41.33465537543662" lon="1.8773112609390967"><ele>335.66666666666663</ele><time>2026-04-19T12:21:56.999Z</time></trkpt><trkpt lat="41.33481669090221" lon="1.8771951916781102"><ele>334.3333333333333</ele><time>2026-04-19T12:21:57.999Z</time></trkpt><trkpt lat="41.33496522608569" lon="1.877074211972177"><ele>333.0</ele><time>2026-04-19T12:21:58.999Z</time></trkpt><trkpt lat="41.33510102155262" lon="1.8769406498828907"><ele>333.0</ele><time>2026-04-19T12:21:59.999Z</time></trkpt><trkpt lat="41.33521964613422" lon="1.8768031863487498"><ele>333.0</ele><time>2026-04-19T12:22:00.999Z</time></trkpt><trkpt lat="41.3353254150729" lon="1.8766716082577524"><ele>333.0</ele><time>2026-04-19T12:22:01.999Z</time></trkpt><trkpt lat="41.33540842646232" lon="1.8765545594519817"><ele>333.0</ele><time>2026-04-19T12:22:02.999Z</time></trkpt><trkpt lat="41.33547235818656" lon="1.8764129438004642"><ele>332.6666666666667</ele><time>2026-04-19T12:22:03.999Z</time></trkpt><trkpt lat="41.33549429656742" lon="1.876246673822719"><ele>332.33333333333337</ele><time>2026-04-19T12:22:04.999Z</time></trkpt><trkpt lat="41.335459660116726" lon="1.8760450386801069"><ele>332.0</ele><time>2026-04-19T12:22:06Z</time></trkpt><trkpt lat="41.33538314509464" lon="1.875818976969901"><ele>332.0</ele><time>2026-04-19T12:22:07Z</time></trkpt><trkpt lat="41.33532915477214" lon="1.8755672425895775"><ele>332.0</ele><time>2026-04-19T12:22:08Z</time></trkpt><trkpt lat="41.3352952081561" lon="1.8753222518276116"><ele>332.0</ele><time>2026-04-19T12:22:09Z</time></trkpt><trkpt lat="41.33530166287775" lon="1.8750749351858085"><ele>331.0</ele><time>2026-04-19T12:22:10Z</time></trkpt><trkpt lat="41.33530527766262" lon="1.8748002121978464"><ele>330.0</ele><time>2026-04-19T12:22:11Z</time></trkpt><trkpt lat="41.33533633321514" lon="1.8745312103636662"><ele>329.0</ele><time>2026-04-19T12:22:12Z</time></trkpt><trkpt lat="41.33533280253649" lon="1.8742497057519754"><ele>328.0</ele><time>2026-04-19T12:22:13Z</time></trkpt><trkpt lat="41.33528820671457" lon="1.8739556993857251"><ele>327.0</ele><time>2026-04-19T12:22:14Z</time></trkpt><trkpt lat="41.335236613571" lon="1.8736665601312823"><ele>326.0</ele><time>2026-04-19T12:22:15Z</time></trkpt><trkpt lat="41.33518282807306" lon="1.873413215960328"><ele>324.6666666666667</ele><time>2026-04-19T12:22:16Z</time></trkpt><trkpt lat="41.33513138322243" lon="1.8731891919573598"><ele>323.3333333333333</ele><time>2026-04-19T12:22:17Z</time></trkpt><trkpt lat="41.335059078943225" lon="1.872989903045773"><ele>322.0</ele><time>2026-04-19T12:22:18Z</time></trkpt><trkpt lat="41.33495695581702" lon="1.872797706223573"><ele>322.0</ele><time>2026-04-19T12:22:19Z</time></trkpt><trkpt lat="41.334824046100564" lon="1.8726251385456247"><ele>322.0</ele><time>2026-04-19T12:22:20Z</time></trkpt><trkpt lat="41.334661733037464" lon="1.8724765621532575"><ele>322.0</ele><time>2026-04-19T12:22:21Z</time></trkpt><trkpt lat="41.33448857275666" lon="1.8723474568173875"><ele>319.66666666666663</ele><time>2026-04-19T12:22:22Z</time></trkpt><trkpt lat="41.334315053940564" lon="1.872199496992037"><ele>317.3333333333333</ele><time>2026-04-19T12:22:23Z</time></trkpt><trkpt lat="41.3341487505534" lon="1.872034672994671"><ele>315.0</ele><time>2026-04-19T12:22:24Z</time></trkpt><trkpt lat="41.33402009390929" lon="1.8718279916349054"><ele>314.5</ele><time>2026-04-19T12:22:25Z</time></trkpt><trkpt lat="41.333909012430226" lon="1.87165519011592"><ele>314.0</ele><time>2026-04-19T12:22:26Z</time></trkpt><trkpt lat="41.33383088806412" lon="1.871507481557065"><ele>313.5</ele><time>2026-04-19T12:22:27Z</time></trkpt><trkpt lat="41.333796098818425" lon="1.8713533333206576"><ele>313.0</ele><time>2026-04-19T12:22:28Z</time></trkpt><trkpt lat="41.33381725855203" lon="1.871173890140825"><ele>312.66666666666663</ele><time>2026-04-19T12:22:29Z</time></trkpt><trkpt lat="41.333842541367744" lon="1.870943572412859"><ele>312.3333333333333</ele><time>2026-04-19T12:22:30Z</time></trkpt><trkpt lat="41.33386609569431" lon="1.8706880911818253"><ele>312.0</ele><time>2026-04-19T12:22:31Z</time></trkpt><trkpt lat="41.33393170055154" lon="1.8704644773358419"><ele>314.0</ele><time>2026-04-19T12:22:32Z</time></trkpt><trkpt lat="41.334006082281995" lon="1.8702508093830525"><ele>316.0</ele><time>2026-04-19T12:22:33Z</time></trkpt><trkpt lat="41.33411461274925" lon="1.8700235017515792"><ele>318.0</ele><time>2026-04-19T12:22:34Z</time></trkpt><trkpt lat="41.3342277139927" lon="1.8697893446413105"><ele>318.0</ele><time>2026-04-19T12:22:35Z</time></trkpt><trkpt lat="41.334372713143985" lon="1.8695547518086535"><ele>318.0</ele><time>2026-04-19T12:22:36Z</time></trkpt><trkpt lat="41.33448423840151" lon="1.8693298858812348"><ele>318.0</ele><time>2026-04-19T12:22:37Z</time></trkpt><trkpt lat="41.33458321449993" lon="1.8690882669301194"><ele>318.3333333333333</ele><time>2026-04-19T12:22:38Z</time></trkpt><trkpt lat="41.33466215423212" lon="1.8688167134839528"><ele>318.66666666666663</ele><time>2026-04-19T12:22:39Z</time></trkpt><trkpt lat="41.33471935486276" lon="1.8685315941267233"><ele>319.0</ele><time>2026-04-19T12:22:40Z</time></trkpt><trkpt lat="41.33478476176159" lon="1.868225757282392"><ele>319.0</ele><time>2026-04-19T12:22:41Z</time></trkpt><trkpt lat="41.33484857605603" lon="1.867932071273873"><ele>319.0</ele><time>2026-04-19T12:22:42Z</time></trkpt><trkpt lat="41.334908753859764" lon="1.8676431300318117"><ele>318.3333333333333</ele><time>2026-04-19T12:22:43Z</time></trkpt><trkpt lat="41.33496107242179" lon="1.8673710147226432"><ele>317.6666666666667</ele><time>2026-04-19T12:22:44Z</time></trkpt><trkpt lat="41.33500475899639" lon="1.8670867420531028"><ele>317.0</ele><time>2026-04-19T12:22:45Z</time></trkpt><trkpt lat="41.33500636150634" lon="1.866783702924261"><ele>317.5</ele><time>2026-04-19T12:22:46Z</time></trkpt><trkpt lat="41.33499803406237" lon="1.8664798095338548"><ele>318.0</ele><time>2026-04-19T12:22:47Z</time></trkpt><trkpt lat="41.33496177875769" lon="1.8661861504493633"><ele>318.3333333333333</ele><time>2026-04-19T12:22:48Z</time></trkpt><trkpt lat="41.334932004863504" lon="1.8659159962632146"><ele>318.66666666666663</ele><time>2026-04-19T12:22:49Z</time></trkpt><trkpt lat="41.3349057890642" lon="1.8656601992966557"><ele>319.0</ele><time>2026-04-19T12:22:50Z</time></trkpt><trkpt lat="41.33481844785231" lon="1.865417453531312"><ele>319.0</ele><time>2026-04-19T12:22:51Z</time></trkpt><trkpt lat="41.334726309887806" lon="1.865167872511636"><ele>319.0</ele><time>2026-04-19T12:22:52Z</time></trkpt><trkpt lat="41.33459979683568" lon="1.864947154235575"><ele>319.0</ele><time>2026-04-19T12:22:53Z</time></trkpt><trkpt lat="41.3344862380721" lon="1.864745229616086"><ele>315.66666666666663</ele><time>2026-04-19T12:22:54Z</time></trkpt><trkpt lat="41.33438484080333" lon="1.8645294066286136"><ele>312.3333333333333</ele><time>2026-04-19T12:22:55Z</time></trkpt><trkpt lat="41.334304700561134" lon="1.8642984313624387"><ele>309.0</ele><time>2026-04-19T12:22:56Z</time></trkpt><trkpt lat="41.334241313543174" lon="1.864056297608889"><ele>309.0</ele><time>2026-04-19T12:22:57Z</time></trkpt><trkpt lat="41.33419213666393" lon="1.8638051733202863"><ele>309.0</ele><time>2026-04-19T12:22:58Z</time></trkpt><trkpt lat="41.334174734648464" lon="1.8635681925908865"><ele>309.0</ele><time>2026-04-19T12:22:59Z</time></trkpt><trkpt lat="41.33417855242371" lon="1.8633463511091921"><ele>308.3333333333333</ele><time>2026-04-19T12:23:00Z</time></trkpt><trkpt lat="41.33421838141971" lon="1.8631306796387292"><ele>307.66666666666663</ele><time>2026-04-19T12:23:01Z</time></trkpt><trkpt lat="41.334292361253645" lon="1.86293530566639"><ele>307.0</ele><time>2026-04-19T12:23:02Z</time></trkpt><trkpt lat="41.334388701918144" lon="1.8627754394995575"><ele>307.0</ele><time>2026-04-19T12:23:03Z</time></trkpt><trkpt lat="41.334545738702026" lon="1.8626717395444683"><ele>307.0</ele><time>2026-04-19T12:23:04Z</time></trkpt><trkpt lat="41.33472455432587" lon="1.8626246495421102"><ele>307.0</ele><time>2026-04-19T12:23:05Z</time></trkpt><trkpt lat="41.33490540008066" lon="1.8626236527613027"><ele>307.66666666666663</ele><time>2026-04-19T12:23:06Z</time></trkpt><trkpt lat="41.33507521630944" lon="1.8626816146744742"><ele>308.3333333333333</ele><time>2026-04-19T12:23:07Z</time></trkpt><trkpt lat="41.33525028394116" lon="1.8628151819783807"><ele>309.0</ele><time>2026-04-19T12:23:08Z</time></trkpt><trkpt lat="41.33542731835625" lon="1.8629494409839817"><ele>308.3333333333333</ele><time>2026-04-19T12:23:09Z</time></trkpt><trkpt lat="41.33558847766722" lon="1.863056970591159"><ele>307.66666666666663</ele><time>2026-04-19T12:23:10Z</time></trkpt><trkpt lat="41.335740851423566" lon="1.8631662011520194"><ele>307.0</ele><time>2026-04-19T12:23:11Z</time></trkpt><trkpt lat="41.33588766760466" lon="1.863270392776589"><ele>307.0</ele><time>2026-04-19T12:23:12Z</time></trkpt><trkpt lat="41.3360367357685" lon="1.8633507837132184"><ele>307.0</ele><time>2026-04-19T12:23:13Z</time></trkpt><trkpt lat="41.33620509945031" lon="1.8634024643413083"><ele>307.0</ele><time>2026-04-19T12:23:14Z</time></trkpt><trkpt lat="41.33638105567564" lon="1.8634058974273338"><ele>308.0</ele><time>2026-04-19T12:23:15Z</time></trkpt><trkpt lat="41.336557357511424" lon="1.8633662484034967"><ele>309.0</ele><time>2026-04-19T12:23:16Z</time></trkpt><trkpt lat="41.33672579858373" lon="1.8632747377859034"><ele>310.0</ele><time>2026-04-19T12:23:17Z</time></trkpt><trkpt lat="41.33686983688983" lon="1.8631131187197811"><ele>310.0</ele><time>2026-04-19T12:23:18Z</time></trkpt><trkpt lat="41.33701878483151" lon="1.8629340266019818"><ele>310.0</ele><time>2026-04-19T12:23:19Z</time></trkpt><trkpt lat="41.33716265299234" lon="1.8627060136575597"><ele>310.0</ele><time>2026-04-19T12:23:20Z</time></trkpt><trkpt lat="41.337297590407985" lon="1.8624840347785838"><ele>311.66666666666663</ele><time>2026-04-19T12:23:21Z</time></trkpt><trkpt lat="41.33743700296544" lon="1.862264503756871"><ele>313.3333333333333</ele><time>2026-04-19T12:23:22Z</time></trkpt><trkpt lat="41.33758335458345" lon="1.8620386813661756"><ele>315.0</ele><time>2026-04-19T12:23:23Z</time></trkpt><trkpt lat="41.33773245410882" lon="1.8618051430782854"><ele>316.3333333333333</ele><time>2026-04-19T12:23:24Z</time></trkpt><trkpt lat="41.337878071369225" lon="1.8615899197834642"><ele>317.66666666666663</ele><time>2026-04-19T12:23:25Z</time></trkpt><trkpt lat="41.33800677749991" lon="1.8613741716037602"><ele>319.0</ele><time>2026-04-19T12:23:26Z</time></trkpt><trkpt lat="41.33812281822253" lon="1.8611385235962692"><ele>313.3333333333333</ele><time>2026-04-19T12:23:27Z</time></trkpt><trkpt lat="41.33821116166459" lon="1.8609033591014394"><ele>307.6666666666667</ele><time>2026-04-19T12:23:28Z</time></trkpt><trkpt lat="41.33829108428452" lon="1.8606738143130332"><ele>302.0</ele><time>2026-04-19T12:23:29Z</time></trkpt><trkpt lat="41.338413667373935" lon="1.860460467698565"><ele>302.0</ele><time>2026-04-19T12:23:30Z</time></trkpt><trkpt lat="41.33853621095015" lon="1.8602346636211307"><ele>302.0</ele><time>2026-04-19T12:23:31Z</time></trkpt><trkpt lat="41.33867221560389" lon="1.8600563088478934"><ele>302.0</ele><time>2026-04-19T12:23:32Z</time></trkpt><trkpt lat="41.33878731775113" lon="1.8598896012811483"><ele>302.0</ele><time>2026-04-19T12:23:33Z</time></trkpt><trkpt lat="41.33890830118622" lon="1.8597562032741153"><ele>302.0</ele><time>2026-04-19T12:23:34Z</time></trkpt><trkpt lat="41.33904855227476" lon="1.8596737824496559"><ele>302.0</ele><time>2026-04-19T12:23:35Z</time></trkpt><trkpt lat="41.339211708009294" lon="1.8596885485304162"><ele>302.0</ele><time>2026-04-19T12:23:36Z</time></trkpt><trkpt lat="41.33938191341027" lon="1.8597207721150788"><ele>302.0</ele><time>2026-04-19T12:23:37Z</time></trkpt><trkpt lat="41.33956754065725" lon="1.8598236944680895"><ele>302.0</ele><time>2026-04-19T12:23:38Z</time></trkpt><trkpt lat="41.33974315960262" lon="1.8599086601725405"><ele>301.5</ele><time>2026-04-19T12:23:39Z</time></trkpt><trkpt lat="41.339904940216115" lon="1.8599943332183504"><ele>301.0</ele><time>2026-04-19T12:23:39.999Z</time></trkpt><trkpt lat="41.340041188385136" lon="1.8600646921392026"><ele>300.5</ele><time>2026-04-19T12:23:40.999Z</time></trkpt><trkpt lat="41.34015585932022" lon="1.860104906997099"><ele>300.0</ele><time>2026-04-19T12:23:41.999Z</time></trkpt><trkpt lat="41.34028344851334" lon="1.8600844563668928"><ele>300.0</ele><time>2026-04-19T12:23:42.999Z</time></trkpt><trkpt lat="41.340386846703254" lon="1.8599835451334512"><ele>300.0</ele><time>2026-04-19T12:23:43.999Z</time></trkpt><trkpt lat="41.34046178366689" lon="1.8598407457207382"><ele>300.0</ele><time>2026-04-19T12:23:44.999Z</time></trkpt><trkpt lat="41.34056893920087" lon="1.8596700383185918"><ele>300.0</ele><time>2026-04-19T12:23:45.999Z</time></trkpt><trkpt lat="41.340716729951055" lon="1.8595034976074394"><ele>299.6666666666667</ele><time>2026-04-19T12:23:46.999Z</time></trkpt><trkpt lat="41.34088922849177" lon="1.8593490905841243"><ele>299.33333333333337</ele><time>2026-04-19T12:23:47.999Z</time></trkpt><trkpt lat="41.34106388195947" lon="1.859196545541582"><ele>299.0</ele><time>2026-04-19T12:23:48.999Z</time></trkpt><trkpt lat="41.34123902454899" lon="1.859043573300002"><ele>295.33333333333337</ele><time>2026-04-19T12:23:49.999Z</time></trkpt><trkpt lat="41.34139503680999" lon="1.8589082105054073"><ele>291.6666666666667</ele><time>2026-04-19T12:23:50.999Z</time></trkpt><trkpt lat="41.34155227808365" lon="1.8587768284365511"><ele>288.0</ele><time>2026-04-19T12:23:51.999Z</time></trkpt><trkpt lat="41.34169848515383" lon="1.8586678771381668"><ele>288.0</ele><time>2026-04-19T12:23:52.999Z</time></trkpt><trkpt lat="41.34184077784708" lon="1.8585946111791403"><ele>288.0</ele><time>2026-04-19T12:23:53.999Z</time></trkpt><trkpt lat="41.34197881686574" lon="1.8585574826005895"><ele>288.0</ele><time>2026-04-19T12:23:54.999Z</time></trkpt><trkpt lat="41.34211493435066" lon="1.8586183944576584"><ele>288.0</ele><time>2026-04-19T12:23:55.999Z</time></trkpt><trkpt lat="41.342215520324615" lon="1.8587574450740632"><ele>288.0</ele><time>2026-04-19T12:23:56.999Z</time></trkpt><trkpt lat="41.34226679717487" lon="1.8588933382720447"><ele>288.0</ele><time>2026-04-19T12:23:57.999Z</time></trkpt><trkpt lat="41.342367823445954" lon="1.8589430736984267"><ele>288.0</ele><time>2026-04-19T12:23:58.999Z</time></trkpt><trkpt lat="41.34249054709305" lon="1.8589588200136107"><ele>288.0</ele><time>2026-04-19T12:23:59.999Z</time></trkpt><trkpt lat="41.342611342813555" lon="1.8588991974480873"><ele>288.0</ele><time>2026-04-19T12:24:00.999Z</time></trkpt><trkpt lat="41.34273481296893" lon="1.8587502718570992"><ele>288.0</ele><time>2026-04-19T12:24:01.999Z</time></trkpt><trkpt lat="41.34286420231577" lon="1.8585503675867483"><ele>288.0</ele><time>2026-04-19T12:24:02.999Z</time></trkpt><trkpt lat="41.343031828846236" lon="1.8583415872318438"><ele>288.0</ele><time>2026-04-19T12:24:03.999Z</time></trkpt><trkpt lat="41.34316778245754" lon="1.858147250176937"><ele>288.0</ele><time>2026-04-19T12:24:04.999Z</time></trkpt><trkpt lat="41.343312603998086" lon="1.8579572210482396"><ele>288.0</ele><time>2026-04-19T12:24:05.999Z</time></trkpt><trkpt lat="41.3434638199045" lon="1.8577686955574437"><ele>288.0</ele><time>2026-04-19T12:24:06.999Z</time></trkpt><trkpt lat="41.34364735844523" lon="1.8576313146059436"><ele>288.0</ele><time>2026-04-19T12:24:07.999Z</time></trkpt><trkpt lat="41.34383538376444" lon="1.8575116664948348"><ele>288.0</ele><time>2026-04-19T12:24:08.999Z</time></trkpt><trkpt lat="41.344018855870445" lon="1.8574203142975345"><ele>288.0</ele><time>2026-04-19T12:24:09.999Z</time></trkpt><trkpt lat="41.34420353593281" lon="1.857353033579301"><ele>288.0</ele><time>2026-04-19T12:24:10.999Z</time></trkpt><trkpt lat="41.344417588350645" lon="1.8573537471698276"><ele>288.0</ele><time>2026-04-19T12:24:12Z</time></trkpt><trkpt lat="41.34462679523759" lon="1.8574048220632058"><ele>288.0</ele><time>2026-04-19T12:24:13Z</time></trkpt><trkpt lat="41.34479444799718" lon="1.8574758340711837"><ele>288.0</ele><time>2026-04-19T12:24:14Z</time></trkpt><trkpt lat="41.344959031810106" lon="1.8575857981801756"><ele>288.0</ele><time>2026-04-19T12:24:15Z</time></trkpt><trkpt lat="41.34509646431185" lon="1.8577352029520644"><ele>284.6666666666667</ele><time>2026-04-19T12:24:16Z</time></trkpt><trkpt lat="41.34522005394282" lon="1.8579273920685102"><ele>281.33333333333337</ele><time>2026-04-19T12:24:17Z</time></trkpt><trkpt lat="41.34534946281862" lon="1.8581300319556797"><ele>278.0</ele><time>2026-04-19T12:24:18Z</time></trkpt><trkpt lat="41.34550321657618" lon="1.8581984905300002"><ele>279.33333333333337</ele><time>2026-04-19T12:24:20Z</time></trkpt><trkpt lat="41.34564065177807" lon="1.8582524676317174"><ele>280.6666666666667</ele><time>2026-04-19T12:24:21Z</time></trkpt><trkpt lat="41.34579113585867" lon="1.858271762078006"><ele>282.0</ele><time>2026-04-19T12:24:22Z</time></trkpt><trkpt lat="41.34594037413695" lon="1.8582111218552435"><ele>282.0</ele><time>2026-04-19T12:24:23Z</time></trkpt><trkpt lat="41.34609742678774" lon="1.8580985795965483"><ele>282.0</ele><time>2026-04-19T12:24:24Z</time></trkpt><trkpt lat="41.346257051479014" lon="1.857927340819724"><ele>282.0</ele><time>2026-04-19T12:24:25Z</time></trkpt><trkpt lat="41.34642882615993" lon="1.8577455647835996"><ele>281.3333333333333</ele><time>2026-04-19T12:24:26Z</time></trkpt><trkpt lat="41.346584356217534" lon="1.8575666873303245"><ele>280.66666666666663</ele><time>2026-04-19T12:24:27Z</time></trkpt><trkpt lat="41.34673511328697" lon="1.857399994654152"><ele>280.0</ele><time>2026-04-19T12:24:28Z</time></trkpt><trkpt lat="41.34686728940992" lon="1.8572519555039966"><ele>280.0</ele><time>2026-04-19T12:24:29Z</time></trkpt><trkpt lat="41.3469684099615" lon="1.8570866957052043"><ele>280.0</ele><time>2026-04-19T12:24:30Z</time></trkpt><trkpt lat="41.347045373977416" lon="1.8568764435461307"><ele>280.0</ele><time>2026-04-19T12:24:31Z</time></trkpt><trkpt lat="41.347091922912014" lon="1.856655570235783"><ele>281.0</ele><time>2026-04-19T12:24:32Z</time></trkpt><trkpt lat="41.34710591857932" lon="1.8564015134134222"><ele>282.0</ele><time>2026-04-19T12:24:33Z</time></trkpt><trkpt lat="41.34707316384482" lon="1.8561562854478477"><ele>283.0</ele><time>2026-04-19T12:24:34Z</time></trkpt><trkpt lat="41.34702208527628" lon="1.8559317231953099"><ele>280.66666666666663</ele><time>2026-04-19T12:24:35Z</time></trkpt><trkpt lat="41.34692486199668" lon="1.8557273434778265"><ele>278.3333333333333</ele><time>2026-04-19T12:24:36Z</time></trkpt><trkpt lat="41.34678073422604" lon="1.8555232875813874"><ele>276.0</ele><time>2026-04-19T12:24:37Z</time></trkpt><trkpt lat="41.34663364766343" lon="1.855306806595193"><ele>276.0</ele><time>2026-04-19T12:24:38Z</time></trkpt><trkpt lat="41.34651465547348" lon="1.8550677095856187"><ele>276.0</ele><time>2026-04-19T12:24:39Z</time></trkpt><trkpt lat="41.346410982666576" lon="1.8547967305114952"><ele>276.0</ele><time>2026-04-19T12:24:40Z</time></trkpt><trkpt lat="41.346280595791306" lon="1.8545279449830627"><ele>274.3333333333333</ele><time>2026-04-19T12:24:41Z</time></trkpt><trkpt lat="41.34620993622317" lon="1.8542607299287193"><ele>272.66666666666663</ele><time>2026-04-19T12:24:42Z</time></trkpt><trkpt lat="41.34613873518355" lon="1.854008433015615"><ele>271.0</ele><time>2026-04-19T12:24:43Z</time></trkpt><trkpt lat="41.346089499713486" lon="1.8537735452643407"><ele>271.0</ele><time>2026-04-19T12:24:44Z</time></trkpt><trkpt lat="41.34605208899218" lon="1.8535586092670377"><ele>271.0</ele><time>2026-04-19T12:24:45Z</time></trkpt><trkpt lat="41.3460306279078" lon="1.853328954562515"><ele>271.0</ele><time>2026-04-19T12:24:46Z</time></trkpt><trkpt lat="41.346048789340784" lon="1.8530925216283116"><ele>271.0</ele><time>2026-04-19T12:24:47Z</time></trkpt><trkpt lat="41.3460773023113" lon="1.8528355181190515"><ele>271.0</ele><time>2026-04-19T12:24:48Z</time></trkpt><trkpt lat="41.346090076436504" lon="1.8525778183790205"><ele>271.0</ele><time>2026-04-19T12:24:49Z</time></trkpt><trkpt lat="41.34612289819277" lon="1.8523246315720756"><ele>270.66666666666663</ele><time>2026-04-19T12:24:50Z</time></trkpt><trkpt lat="41.34615355045698" lon="1.85206002883804"><ele>270.3333333333333</ele><time>2026-04-19T12:24:51Z</time></trkpt><trkpt lat="41.346181005690426" lon="1.8517962167556319"><ele>270.0</ele><time>2026-04-19T12:24:52Z</time></trkpt><trkpt lat="41.346215116651436" lon="1.8515196725917176"><ele>268.6666666666667</ele><time>2026-04-19T12:24:53Z</time></trkpt><trkpt lat="41.3462529047426" lon="1.8512335274102478"><ele>267.33333333333337</ele><time>2026-04-19T12:24:54Z</time></trkpt><trkpt lat="41.34628230784551" lon="1.8509514153939162"><ele>266.0</ele><time>2026-04-19T12:24:55Z</time></trkpt><trkpt lat="41.34631828866162" lon="1.850689489632076"><ele>265.33333333333337</ele><time>2026-04-19T12:24:56Z</time></trkpt><trkpt lat="41.3463456206109" lon="1.8504345000012206"><ele>264.6666666666667</ele><time>2026-04-19T12:24:57Z</time></trkpt><trkpt lat="41.34637226225163" lon="1.8501992065259825"><ele>264.0</ele><time>2026-04-19T12:24:58Z</time></trkpt><trkpt lat="41.34640154501367" lon="1.8499709949596912"><ele>266.3333333333333</ele><time>2026-04-19T12:24:59Z</time></trkpt><trkpt lat="41.34642653399386" lon="1.8497421916361545"><ele>268.66666666666663</ele><time>2026-04-19T12:25:00Z</time></trkpt><trkpt lat="41.34645322654805" lon="1.8495179573071068"><ele>271.0</ele><time>2026-04-19T12:25:01Z</time></trkpt><trkpt lat="41.3464758417427" lon="1.849283847975489"><ele>271.0</ele><time>2026-04-19T12:25:02Z</time></trkpt><trkpt lat="41.346495523478836" lon="1.8490685925145172"><ele>271.0</ele><time>2026-04-19T12:25:03Z</time></trkpt><trkpt lat="41.34650900460683" lon="1.8488731362071211"><ele>271.0</ele><time>2026-04-19T12:25:04Z</time></trkpt><trkpt lat="41.34651703626918" lon="1.8486813297784792"><ele>271.0</ele><time>2026-04-19T12:25:05Z</time></trkpt><trkpt lat="41.346521755825165" lon="1.8485019354090606"><ele>271.0</ele><time>2026-04-19T12:25:06Z</time></trkpt><trkpt lat="41.34652920009076" lon="1.8483380659134325"><ele>271.0</ele><time>2026-04-19T12:25:07Z</time></trkpt><trkpt lat="41.34653475443147" lon="1.8481850881586948"><ele>271.0</ele><time>2026-04-19T12:25:08Z</time></trkpt><trkpt lat="41.34655555449951" lon="1.848040973430372"><ele>270.8</ele><time>2026-04-19T12:25:09Z</time></trkpt><trkpt lat="41.346588327738345" lon="1.8479015747538132"><ele>270.6</ele><time>2026-04-19T12:25:10Z</time></trkpt><trkpt lat="41.34662107797708" lon="1.8477726246812176"><ele>270.4</ele><time>2026-04-19T12:25:11Z</time></trkpt><trkpt lat="41.346663708685526" lon="1.8476508235320577"><ele>270.2</ele><time>2026-04-19T12:25:12Z</time></trkpt><trkpt lat="41.34669542587468" lon="1.847516332316279"><ele>270.0</ele><time>2026-04-19T12:25:13Z</time></trkpt><trkpt lat="41.34672843847876" lon="1.8473774256504443"><ele>269.0</ele><time>2026-04-19T12:25:14Z</time></trkpt><trkpt lat="41.346762552318566" lon="1.847221582390372"><ele>268.0</ele><time>2026-04-19T12:25:15Z</time></trkpt><trkpt lat="41.34680340518101" lon="1.8470529892467702"><ele>267.0</ele><time>2026-04-19T12:25:16Z</time></trkpt><trkpt lat="41.34682710250281" lon="1.8468726474125619"><ele>266.0</ele><time>2026-04-19T12:25:17Z</time></trkpt><trkpt lat="41.34685339169467" lon="1.8466622652689342"><ele>264.6666666666667</ele><time>2026-04-19T12:25:18Z</time></trkpt><trkpt lat="41.3468765857195" lon="1.8464260672787132"><ele>263.3333333333333</ele><time>2026-04-19T12:25:19Z</time></trkpt><trkpt lat="41.34689054924458" lon="1.846175703532612"><ele>262.0</ele><time>2026-04-19T12:25:20Z</time></trkpt><trkpt lat="41.34690148030404" lon="1.845908912710615"><ele>261.66666666666663</ele><time>2026-04-19T12:25:21Z</time></trkpt><trkpt lat="41.34690811842059" lon="1.8456491508501316"><ele>261.3333333333333</ele><time>2026-04-19T12:25:22Z</time></trkpt><trkpt lat="41.34692381477101" lon="1.845430554458954"><ele>261.0</ele><time>2026-04-19T12:25:23Z</time></trkpt><trkpt lat="41.34694629895492" lon="1.8452496861441374"><ele>261.75</ele><time>2026-04-19T12:25:24Z</time></trkpt><trkpt lat="41.34695865401306" lon="1.8450965458838149"><ele>262.5</ele><time>2026-04-19T12:25:25Z</time></trkpt><trkpt lat="41.34693983822483" lon="1.8449622598572593"><ele>263.25</ele><time>2026-04-19T12:25:26Z</time></trkpt><trkpt lat="41.34689746359709" lon="1.8448411134395661"><ele>264.0</ele><time>2026-04-19T12:25:27Z</time></trkpt><trkpt lat="41.346731354930284" lon="1.8447985795178787"><ele>264.0</ele><time>2026-04-19T12:25:28Z</time></trkpt><trkpt lat="41.34656976780844" lon="1.8447668912536999"><ele>264.0</ele><time>2026-04-19T12:25:29Z</time></trkpt><trkpt lat="41.3463837743757" lon="1.8447176842792796"><ele>264.0</ele><time>2026-04-19T12:25:30Z</time></trkpt><trkpt lat="41.3462146916206" lon="1.844650450759307"><ele>263.3333333333333</ele><time>2026-04-19T12:25:31Z</time></trkpt><trkpt lat="41.346054725478695" lon="1.844554702709563"><ele>262.66666666666663</ele><time>2026-04-19T12:25:32Z</time></trkpt><trkpt lat="41.34591984829493" lon="1.8444142165197253"><ele>262.0</ele><time>2026-04-19T12:25:33Z</time></trkpt><trkpt lat="41.34578265484548" lon="1.8442582253687063"><ele>262.0</ele><time>2026-04-19T12:25:34Z</time></trkpt><trkpt lat="41.34563094668839" lon="1.8440995043960997"><ele>262.0</ele><time>2026-04-19T12:25:35Z</time></trkpt><trkpt lat="41.34546299507258" lon="1.8439511590653201"><ele>262.0</ele><time>2026-04-19T12:25:36Z</time></trkpt><trkpt lat="41.34532071200364" lon="1.8437694267144282"><ele>262.0</ele><time>2026-04-19T12:25:37Z</time></trkpt><trkpt lat="41.345188193745784" lon="1.8436284565439485"><ele>262.0</ele><time>2026-04-19T12:25:38Z</time></trkpt><trkpt lat="41.34506224394223" lon="1.8434942538653092"><ele>262.0</ele><time>2026-04-19T12:25:39Z</time></trkpt><trkpt lat="41.344948738516756" lon="1.8433308193569962"><ele>261.0</ele><time>2026-04-19T12:25:40Z</time></trkpt><trkpt lat="41.34485360135857" lon="1.84313515093312"><ele>260.0</ele><time>2026-04-19T12:25:41Z</time></trkpt><trkpt lat="41.34474947737074" lon="1.8429202640656595"><ele>259.0</ele><time>2026-04-19T12:25:42Z</time></trkpt><trkpt lat="41.34463935311356" lon="1.8426966189431069"><ele>261.0</ele><time>2026-04-19T12:25:43Z</time></trkpt><trkpt lat="41.344521962794204" lon="1.8424701265925278"><ele>263.0</ele><time>2026-04-19T12:25:43.999Z</time></trkpt><trkpt lat="41.34441283095374" lon="1.842262849192192"><ele>265.0</ele><time>2026-04-19T12:25:44.999Z</time></trkpt><trkpt lat="41.34431889963816" lon="1.842084497979659"><ele>265.0</ele><time>2026-04-19T12:25:45.999Z</time></trkpt><trkpt lat="41.34423806840061" lon="1.8419267848719547"><ele>265.0</ele><time>2026-04-19T12:25:46.999Z</time></trkpt><trkpt lat="41.34417574574428" lon="1.8417833907779195"><ele>265.0</ele><time>2026-04-19T12:25:47.999Z</time></trkpt><trkpt lat="41.34415090524117" lon="1.841648844199018"><ele>265.0</ele><time>2026-04-19T12:25:48.999Z</time></trkpt><trkpt lat="41.344156512730386" lon="1.8415251468808"><ele>267.3333333333333</ele><time>2026-04-19T12:25:49.999Z</time></trkpt><trkpt lat="41.344243198782046" lon="1.8414137658257048"><ele>269.6666666666667</ele><time>2026-04-19T12:25:50.999Z</time></trkpt><trkpt lat="41.34440426825359" lon="1.8413726373942962"><ele>272.0</ele><time>2026-04-19T12:25:51.999Z</time></trkpt><trkpt lat="41.34459186747925" lon="1.8412809804279153"><ele>274.33333333333337</ele><time>2026-04-19T12:25:52.999Z</time></trkpt><trkpt lat="41.34480721774875" lon="1.841186657434487"><ele>276.6666666666667</ele><time>2026-04-19T12:25:53.999Z</time></trkpt><trkpt lat="41.34501803340749" lon="1.8410934591677366"><ele>279.0</ele><time>2026-04-19T12:25:54.999Z</time></trkpt><trkpt lat="41.34519285129225" lon="1.8410025279862574"><ele>277.3333333333333</ele><time>2026-04-19T12:25:55.999Z</time></trkpt><trkpt lat="41.34534676817821" lon="1.8409143541086073"><ele>275.66666666666663</ele><time>2026-04-19T12:25:56.999Z</time></trkpt><trkpt lat="41.34549202546697" lon="1.840835201305203"><ele>274.0</ele><time>2026-04-19T12:25:57.999Z</time></trkpt><trkpt lat="41.345645823799" lon="1.840795075161301"><ele>274.0</ele><time>2026-04-19T12:25:58.999Z</time></trkpt><trkpt lat="41.34580752158037" lon="1.8408636578906852"><ele>274.0</ele><time>2026-04-19T12:25:59.999Z</time></trkpt><trkpt lat="41.345980649717326" lon="1.8409392708327028"><ele>274.0</ele><time>2026-04-19T12:26:00.999Z</time></trkpt><trkpt lat="41.346113756009125" lon="1.8410335731577399"><ele>276.0</ele><time>2026-04-19T12:26:01.999Z</time></trkpt><trkpt lat="41.346229442943304" lon="1.841081946938534"><ele>278.0</ele><time>2026-04-19T12:26:02.999Z</time></trkpt><trkpt lat="41.34632926001285" lon="1.84106802246114"><ele>280.0</ele><time>2026-04-19T12:26:03.999Z</time></trkpt><trkpt lat="41.34642046072192" lon="1.840989570823307"><ele>282.0</ele><time>2026-04-19T12:26:04.999Z</time></trkpt><trkpt lat="41.34647459417529" lon="1.840830074090768"><ele>282.0</ele><time>2026-04-19T12:26:05.999Z</time></trkpt><trkpt lat="41.34650926089598" lon="1.8406064076176796"><ele>282.0</ele><time>2026-04-19T12:26:06.999Z</time></trkpt><trkpt lat="41.34656106714541" lon="1.8403843281700318"><ele>282.0</ele><time>2026-04-19T12:26:07.999Z</time></trkpt><trkpt lat="41.34661709554449" lon="1.8401673420527418"><ele>279.0</ele><time>2026-04-19T12:26:08.999Z</time></trkpt><trkpt lat="41.3467442751151" lon="1.840008422318772"><ele>276.0</ele><time>2026-04-19T12:26:09.999Z</time></trkpt><trkpt lat="41.346899908417434" lon="1.8398980612477045"><ele>273.0</ele><time>2026-04-19T12:26:10.999Z</time></trkpt><trkpt lat="41.34704961177487" lon="1.839808273280256"><ele>273.0</ele><time>2026-04-19T12:26:11.999Z</time></trkpt><trkpt lat="41.34719333631274" lon="1.8397593659073552"><ele>273.0</ele><time>2026-04-19T12:26:12.999Z</time></trkpt><trkpt lat="41.34733585001413" lon="1.8398390602611594"><ele>273.0</ele><time>2026-04-19T12:26:13.999Z</time></trkpt><trkpt lat="41.34749503709382" lon="1.8399047324415017"><ele>275.6666666666667</ele><time>2026-04-19T12:26:14.999Z</time></trkpt><trkpt lat="41.34765626818129" lon="1.8399680992390774"><ele>278.33333333333337</ele><time>2026-04-19T12:26:15.999Z</time></trkpt><trkpt lat="41.34779436735541" lon="1.8400412527837857"><ele>281.0</ele><time>2026-04-19T12:26:16.999Z</time></trkpt><trkpt lat="41.34792905941344" lon="1.8400477197381542"><ele>281.5</ele><time>2026-04-19T12:26:18Z</time></trkpt><trkpt lat="41.34807286543183" lon="1.839999611689423"><ele>282.0</ele><time>2026-04-19T12:26:19Z</time></trkpt><trkpt lat="41.34817734479246" lon="1.8398703678668094"><ele>282.5</ele><time>2026-04-19T12:26:20Z</time></trkpt><trkpt lat="41.34823705783605" lon="1.8397082049803735"><ele>283.0</ele><time>2026-04-19T12:26:21Z</time></trkpt><trkpt lat="41.34824927916259" lon="1.8395101571767387"><ele>282.0</ele><time>2026-04-19T12:26:22Z</time></trkpt><trkpt lat="41.34822572743625" lon="1.839282639840714"><ele>281.0</ele><time>2026-04-19T12:26:23Z</time></trkpt><trkpt lat="41.34816443723319" lon="1.839069253541054"><ele>280.0</ele><time>2026-04-19T12:26:24Z</time></trkpt><trkpt lat="41.348067305042555" lon="1.8389059090326987"><ele>278.66666666666663</ele><time>2026-04-19T12:26:25Z</time></trkpt><trkpt lat="41.347919131414194" lon="1.8387900796088659"><ele>277.3333333333333</ele><time>2026-04-19T12:26:26Z</time></trkpt><trkpt lat="41.34779853763068" lon="1.8386391441860368"><ele>276.0</ele><time>2026-04-19T12:26:27Z</time></trkpt><trkpt lat="41.34771294563444" lon="1.838467899268273"><ele>276.0</ele><time>2026-04-19T12:26:28Z</time></trkpt><trkpt lat="41.347715831530486" lon="1.838258674799874"><ele>276.0</ele><time>2026-04-19T12:26:29Z</time></trkpt><trkpt lat="41.34772968401242" lon="1.8380287594326936"><ele>276.0</ele><time>2026-04-19T12:26:30Z</time></trkpt><trkpt lat="41.347760639680324" lon="1.8378070132814537"><ele>276.0</ele><time>2026-04-19T12:26:31Z</time></trkpt><trkpt lat="41.34785894317852" lon="1.8376510186364001"><ele>276.0</ele><time>2026-04-19T12:26:32Z</time></trkpt><trkpt lat="41.34797929972213" lon="1.8374807900643573"><ele>276.0</ele><time>2026-04-19T12:26:33Z</time></trkpt><trkpt lat="41.34810897740412" lon="1.8372911367857614"><ele>280.3333333333333</ele><time>2026-04-19T12:26:34Z</time></trkpt><trkpt lat="41.348237502720025" lon="1.8371030543686002"><ele>284.66666666666663</ele><time>2026-04-19T12:26:35Z</time></trkpt><trkpt lat="41.34836394594289" lon="1.836925732297379"><ele>289.0</ele><time>2026-04-19T12:26:36Z</time></trkpt><trkpt lat="41.34850537985864" lon="1.8367457462086092"><ele>289.0</ele><time>2026-04-19T12:26:37Z</time></trkpt><trkpt lat="41.34866998564667" lon="1.8365543786507472"><ele>289.0</ele><time>2026-04-19T12:26:38Z</time></trkpt><trkpt lat="41.34884355904954" lon="1.8363604000647673"><ele>289.0</ele><time>2026-04-19T12:26:39Z</time></trkpt><trkpt lat="41.34902114767909" lon="1.8361657927895148"><ele>292.0</ele><time>2026-04-19T12:26:40Z</time></trkpt><trkpt lat="41.3491758569325" lon="1.8359784219066357"><ele>295.0</ele><time>2026-04-19T12:26:41Z</time></trkpt><trkpt lat="41.34931036253056" lon="1.8358085730587057"><ele>298.0</ele><time>2026-04-19T12:26:42Z</time></trkpt><trkpt lat="41.34946260523399" lon="1.8356745886540478"><ele>298.0</ele><time>2026-04-19T12:26:43Z</time></trkpt><trkpt lat="41.349625165106914" lon="1.835523437304182"><ele>298.0</ele><time>2026-04-19T12:26:44Z</time></trkpt><trkpt lat="41.3497963464822" lon="1.8354033237324852"><ele>298.0</ele><time>2026-04-19T12:26:45Z</time></trkpt><trkpt lat="41.3499490957326" lon="1.8353046841834517"><ele>299.0</ele><time>2026-04-19T12:26:46Z</time></trkpt><trkpt lat="41.35006482959737" lon="1.8352057128476658"><ele>300.0</ele><time>2026-04-19T12:26:47Z</time></trkpt><trkpt lat="41.35016439651248" lon="1.8351311890334172"><ele>301.0</ele><time>2026-04-19T12:26:48Z</time></trkpt><trkpt lat="41.350234062116485" lon="1.8350521135807485"><ele>302.0</ele><time>2026-04-19T12:26:49Z</time></trkpt><trkpt lat="41.350254607595275" lon="1.8349461310968482"><ele>303.0</ele><time>2026-04-19T12:26:50Z</time></trkpt><trkpt lat="41.35021282744513" lon="1.8348068019951485"><ele>303.0</ele><time>2026-04-19T12:26:51Z</time></trkpt><trkpt lat="41.3500986285475" lon="1.8347184771222194"><ele>303.0</ele><time>2026-04-19T12:26:52Z</time></trkpt><trkpt lat="41.34998161071749" lon="1.834693195879267"><ele>303.0</ele><time>2026-04-19T12:26:53Z</time></trkpt><trkpt lat="41.349822513512805" lon="1.8347256852453238"><ele>303.0</ele><time>2026-04-19T12:26:54Z</time></trkpt><trkpt lat="41.3496545469821" lon="1.8347200262634984"><ele>302.75</ele><time>2026-04-19T12:26:55Z</time></trkpt><trkpt lat="41.34948720371809" lon="1.8347260657797138"><ele>302.5</ele><time>2026-04-19T12:26:56Z</time></trkpt><trkpt lat="41.34934594974988" lon="1.8347308957883126"><ele>302.25</ele><time>2026-04-19T12:26:57Z</time></trkpt><trkpt lat="41.34922870163371" lon="1.8347284357358633"><ele>302.0</ele><time>2026-04-19T12:26:58Z</time></trkpt><trkpt lat="41.34912771302966" lon="1.8347029500894771"><ele>302.0</ele><time>2026-04-19T12:26:59Z</time></trkpt><trkpt lat="41.349065973452056" lon="1.8346618195755986"><ele>302.0</ele><time>2026-04-19T12:27:00Z</time></trkpt><trkpt lat="41.34903513469634" lon="1.8345472309099522"><ele>302.0</ele><time>2026-04-19T12:27:01Z</time></trkpt><trkpt lat="41.34903411649339" lon="1.834386652446575"><ele>302.0</ele><time>2026-04-19T12:27:02Z</time></trkpt><trkpt lat="41.34905007749341" lon="1.8342084077268974"><ele>302.0</ele><time>2026-04-19T12:27:03Z</time></trkpt><trkpt lat="41.349083330478834" lon="1.8340619059923855"><ele>302.25</ele><time>2026-04-19T12:27:04Z</time></trkpt><trkpt lat="41.34915826058704" lon="1.8339490718085885"><ele>302.5</ele><time>2026-04-19T12:27:05Z</time></trkpt><trkpt lat="41.34929963659408" lon="1.8338600595331327"><ele>302.75</ele><time>2026-04-19T12:27:06Z</time></trkpt><trkpt lat="41.34945498201782" lon="1.8337574381653148"><ele>303.0</ele><time>2026-04-19T12:27:07Z</time></trkpt><trkpt lat="41.34961456711368" lon="1.8336204442594024"><ele>305.3333333333333</ele><time>2026-04-19T12:27:08Z</time></trkpt><trkpt lat="41.34973682847649" lon="1.8334877890000347"><ele>307.66666666666663</ele><time>2026-04-19T12:27:09Z</time></trkpt><trkpt lat="41.349837650857275" lon="1.8333359903898137"><ele>310.0</ele><time>2026-04-19T12:27:10Z</time></trkpt><trkpt lat="41.34991041379572" lon="1.8331740890301143"><ele>310.0</ele><time>2026-04-19T12:27:11Z</time></trkpt><trkpt lat="41.34995842311975" lon="1.833004309392738"><ele>310.0</ele><time>2026-04-19T12:27:12Z</time></trkpt><trkpt lat="41.34997307650106" lon="1.8328440039819585"><ele>310.0</ele><time>2026-04-19T12:27:13Z</time></trkpt><trkpt lat="41.3499523204763" lon="1.8326933691625442"><ele>310.0</ele><time>2026-04-19T12:27:14Z</time></trkpt><trkpt lat="41.34990136892944" lon="1.832561789360971"><ele>310.25</ele><time>2026-04-19T12:27:15Z</time></trkpt><trkpt lat="41.349847592959485" lon="1.8324203721549843"><ele>310.5</ele><time>2026-04-19T12:27:16Z</time></trkpt><trkpt lat="41.34977938707037" lon="1.8322979662362555"><ele>310.75</ele><time>2026-04-19T12:27:17Z</time></trkpt><trkpt lat="41.349715065474115" lon="1.8321775966848528"><ele>311.0</ele><time>2026-04-19T12:27:18Z</time></trkpt><trkpt lat="41.349683832470056" lon="1.832028196424749"><ele>309.0</ele><time>2026-04-19T12:27:19Z</time></trkpt><trkpt lat="41.349658500208854" lon="1.8318630450360365"><ele>307.0</ele><time>2026-04-19T12:27:20Z</time></trkpt><trkpt lat="41.34963124561126" lon="1.8316980618370668"><ele>305.0</ele><time>2026-04-19T12:27:21Z</time></trkpt><trkpt lat="41.349578756473555" lon="1.831548042754315"><ele>303.0</ele><time>2026-04-19T12:27:22Z</time></trkpt><trkpt lat="41.34950164867983" lon="1.8314289398579606"><ele>303.0</ele><time>2026-04-19T12:27:23Z</time></trkpt><trkpt lat="41.34941352595396" lon="1.8313362572003775"><ele>303.0</ele><time>2026-04-19T12:27:24Z</time></trkpt><trkpt lat="41.349325437127206" lon="1.831227377197119"><ele>303.0</ele><time>2026-04-19T12:27:24.999Z</time></trkpt><trkpt lat="41.3492417465872" lon="1.83108266948588"><ele>303.0</ele><time>2026-04-19T12:27:25.999Z</time></trkpt><trkpt lat="41.34916573837222" lon="1.8309144870259804"><ele>304.5</ele><time>2026-04-19T12:27:26.999Z</time></trkpt><trkpt lat="41.349094195940104" lon="1.8307907450404215"><ele>306.0</ele><time>2026-04-19T12:27:27.999Z</time></trkpt><trkpt lat="41.34905065128078" lon="1.8306418718946755"><ele>307.5</ele><time>2026-04-19T12:27:28.999Z</time></trkpt><trkpt lat="41.34903625431742" lon="1.830470629820327"><ele>309.0</ele><time>2026-04-19T12:27:29.999Z</time></trkpt><trkpt lat="41.34902293475729" lon="1.8303222513724242"><ele>309.0</ele><time>2026-04-19T12:27:30.999Z</time></trkpt><trkpt lat="41.34905190584192" lon="1.8301710919605758"><ele>309.0</ele><time>2026-04-19T12:27:31.999Z</time></trkpt><trkpt lat="41.3490996596108" lon="1.8300194676609849"><ele>309.0</ele><time>2026-04-19T12:27:32.999Z</time></trkpt><trkpt lat="41.34914868665618" lon="1.8298616860744905"><ele>309.0</ele><time>2026-04-19T12:27:33.999Z</time></trkpt><trkpt lat="41.34919191998216" lon="1.8297049207358955"><ele>308.75</ele><time>2026-04-19T12:27:34.999Z</time></trkpt><trkpt lat="41.34922983258143" lon="1.8295532114069386"><ele>308.5</ele><time>2026-04-19T12:27:35.999Z</time></trkpt><trkpt lat="41.34925409615171" lon="1.8294002003780194"><ele>308.25</ele><time>2026-04-19T12:27:36.999Z</time></trkpt><trkpt lat="41.34928656622384" lon="1.8292547534519865"><ele>308.0</ele><time>2026-04-19T12:27:37.999Z</time></trkpt><trkpt lat="41.34928784588028" lon="1.8290955390855836"><ele>307.8</ele><time>2026-04-19T12:27:38.999Z</time></trkpt><trkpt lat="41.34927680857824" lon="1.828951130975451"><ele>307.6</ele><time>2026-04-19T12:27:39.999Z</time></trkpt><trkpt lat="41.34925108029759" lon="1.8288033638436902"><ele>307.4</ele><time>2026-04-19T12:27:40.999Z</time></trkpt><trkpt lat="41.349251107245635" lon="1.8286494650745406"><ele>307.2</ele><time>2026-04-19T12:27:41.999Z</time></trkpt><trkpt lat="41.34924821264597" lon="1.8285051216333033"><ele>307.0</ele><time>2026-04-19T12:27:42.999Z</time></trkpt><trkpt lat="41.34927604909918" lon="1.8283840742073283"><ele>307.2</ele><time>2026-04-19T12:27:43.999Z</time></trkpt><trkpt lat="41.34931824789193" lon="1.8282781145956657"><ele>307.4</ele><time>2026-04-19T12:27:44.999Z</time></trkpt><trkpt lat="41.349406853490606" lon="1.8282054635327698"><ele>307.6</ele><time>2026-04-19T12:27:45.999Z</time></trkpt><trkpt lat="41.34951852230238" lon="1.8281627535698872"><ele>307.8</ele><time>2026-04-19T12:27:46.999Z</time></trkpt><trkpt lat="41.34963633117011" lon="1.828147206709002"><ele>308.0</ele><time>2026-04-19T12:27:47.999Z</time></trkpt><trkpt lat="41.349751918934196" lon="1.8281583787589817"><ele>308.0</ele><time>2026-04-19T12:27:48.999Z</time></trkpt><trkpt lat="41.34985930916674" lon="1.8281952401989043"><ele>308.0</ele><time>2026-04-19T12:27:49.999Z</time></trkpt><trkpt lat="41.34998600294519" lon="1.8282718458166263"><ele>308.0</ele><time>2026-04-19T12:27:50.999Z</time></trkpt><trkpt lat="41.350122592070605" lon="1.8283896175089362"><ele>308.0</ele><time>2026-04-19T12:27:51.999Z</time></trkpt><trkpt lat="41.350243736879555" lon="1.8284955408266221"><ele>308.75</ele><time>2026-04-19T12:27:52.999Z</time></trkpt><trkpt lat="41.35035648782668" lon="1.8285948083514965"><ele>309.5</ele><time>2026-04-19T12:27:53.999Z</time></trkpt><trkpt lat="41.35046584412837" lon="1.828690143833253"><ele>310.25</ele><time>2026-04-19T12:27:54.999Z</time></trkpt><trkpt lat="41.35057781144694" lon="1.8287849503919393"><ele>311.0</ele><time>2026-04-19T12:27:55.999Z</time></trkpt><trkpt lat="41.350684640745364" lon="1.8288811746242788"><ele>310.5</ele><time>2026-04-19T12:27:56.999Z</time></trkpt><trkpt lat="41.35077413315653" lon="1.8289881414008626"><ele>310.0</ele><time>2026-04-19T12:27:57.999Z</time></trkpt><trkpt lat="41.35086015683785" lon="1.8291041630896718"><ele>309.5</ele><time>2026-04-19T12:27:58.999Z</time></trkpt><trkpt lat="41.35092137964654" lon="1.8292334988391608"><ele>309.0</ele><time>2026-04-19T12:27:59.999Z</time></trkpt><trkpt lat="41.350976064907194" lon="1.8293768327172506"><ele>309.0</ele><time>2026-04-19T12:28:00.999Z</time></trkpt><trkpt lat="41.35100472884359" lon="1.8294990827352855"><ele>309.0</ele><time>2026-04-19T12:28:01.999Z</time></trkpt><trkpt lat="41.351059558207716" lon="1.8296003505510543"><ele>309.0</ele><time>2026-04-19T12:28:02.999Z</time></trkpt><trkpt lat="41.351131799254716" lon="1.8296893947632247"><ele>309.0</ele><time>2026-04-19T12:28:03.999Z</time></trkpt><trkpt lat="41.351224917507615" lon="1.8297661257911306"><ele>309.0</ele><time>2026-04-19T12:28:04.999Z</time></trkpt><trkpt lat="41.35133820083201" lon="1.8298057728967718"><ele>304.75</ele><time>2026-04-19T12:28:05.999Z</time></trkpt><trkpt lat="41.3514608516064" lon="1.82980523809035"><ele>300.5</ele><time>2026-04-19T12:28:06.999Z</time></trkpt><trkpt lat="41.351568023250714" lon="1.8297601728663087"><ele>296.25</ele><time>2026-04-19T12:28:07.999Z</time></trkpt><trkpt lat="41.351693635905384" lon="1.8296483423995926"><ele>292.0</ele><time>2026-04-19T12:28:08.999Z</time></trkpt><trkpt lat="41.35184219918751" lon="1.829531722316088"><ele>292.0</ele><time>2026-04-19T12:28:09.999Z</time></trkpt><trkpt lat="41.351977176392545" lon="1.829442402484949"><ele>292.0</ele><time>2026-04-19T12:28:10.999Z</time></trkpt><trkpt lat="41.35208782585847" lon="1.8293691447742875"><ele>292.0</ele><time>2026-04-19T12:28:11.999Z</time></trkpt><trkpt lat="41.35219322371434" lon="1.8293072510780666"><ele>292.0</ele><time>2026-04-19T12:28:12.999Z</time></trkpt><trkpt lat="41.35229202882592" lon="1.8292425712872196"><ele>290.5</ele><time>2026-04-19T12:28:13.999Z</time></trkpt><trkpt lat="41.352394448666196" lon="1.8291680579413427"><ele>289.0</ele><time>2026-04-19T12:28:14.999Z</time></trkpt><trkpt lat="41.35249651498348" lon="1.8290736239044256"><ele>287.5</ele><time>2026-04-19T12:28:15.999Z</time></trkpt><trkpt lat="41.352575251646606" lon="1.8289493267193453"><ele>286.0</ele><time>2026-04-19T12:28:16.999Z</time></trkpt><trkpt lat="41.35262780049606" lon="1.8288082785408253"><ele>286.0</ele><time>2026-04-19T12:28:17.999Z</time></trkpt><trkpt lat="41.35267502338655" lon="1.8286860435134187"><ele>286.0</ele><time>2026-04-19T12:28:18.999Z</time></trkpt><trkpt lat="41.35266022025184" lon="1.82856489073941"><ele>286.0</ele><time>2026-04-19T12:28:19.999Z</time></trkpt><trkpt lat="41.35264378756371" lon="1.828473676484752"><ele>286.0</ele><time>2026-04-19T12:28:20.999Z</time></trkpt><trkpt lat="41.35255116882575" lon="1.828390474898868"><ele>286.0</ele><time>2026-04-19T12:28:21.999Z</time></trkpt><trkpt lat="41.35249078653584" lon="1.8282992129954103"><ele>285.25</ele><time>2026-04-19T12:28:22.999Z</time></trkpt><trkpt lat="41.352442099604744" lon="1.8281853468761202"><ele>284.5</ele><time>2026-04-19T12:28:24Z</time></trkpt><trkpt lat="41.35242152950471" lon="1.8280050053458552"><ele>283.75</ele><time>2026-04-19T12:28:25Z</time></trkpt><trkpt lat="41.35240420213576" lon="1.8277363396807467"><ele>283.0</ele><time>2026-04-19T12:28:26Z</time></trkpt><trkpt lat="41.35238409972557" lon="1.8274249402061227"><ele>284.5</ele><time>2026-04-19T12:28:27Z</time></trkpt><trkpt lat="41.3523926912723" lon="1.8271761420413852"><ele>286.0</ele><time>2026-04-19T12:28:28Z</time></trkpt><trkpt lat="41.352448529738524" lon="1.826998894048564"><ele>287.5</ele><time>2026-04-19T12:28:29Z</time></trkpt><trkpt lat="41.35248235402662" lon="1.8268622753028083"><ele>289.0</ele><time>2026-04-19T12:28:30Z</time></trkpt><trkpt lat="41.352496910853816" lon="1.8267319221269924"><ele>289.3333333333333</ele><time>2026-04-19T12:28:31Z</time></trkpt><trkpt lat="41.352425470367464" lon="1.8265773962314975"><ele>289.6666666666667</ele><time>2026-04-19T12:28:32Z</time></trkpt><trkpt lat="41.352274975730325" lon="1.82645294166112"><ele>290.0</ele><time>2026-04-19T12:28:33Z</time></trkpt><trkpt lat="41.35211607590661" lon="1.8263260341521739"><ele>287.6666666666667</ele><time>2026-04-19T12:28:34Z</time></trkpt><trkpt lat="41.35199954328297" lon="1.8262087685314938"><ele>285.3333333333333</ele><time>2026-04-19T12:28:35Z</time></trkpt><trkpt lat="41.351951870966786" lon="1.8260291878105581"><ele>283.0</ele><time>2026-04-19T12:28:36Z</time></trkpt><trkpt lat="41.351889100884435" lon="1.825779024648144"><ele>283.0</ele><time>2026-04-19T12:28:37Z</time></trkpt><trkpt lat="41.351864651212686" lon="1.825586428988906"><ele>283.0</ele><time>2026-04-19T12:28:38Z</time></trkpt><trkpt lat="41.351901205429314" lon="1.8254323102555048"><ele>283.0</ele><time>2026-04-19T12:28:39Z</time></trkpt><trkpt lat="41.35199285497699" lon="1.8252410696811125"><ele>283.0</ele><time>2026-04-19T12:28:40Z</time></trkpt><trkpt lat="41.352095796906546" lon="1.8250141818157979"><ele>283.5</ele><time>2026-04-19T12:28:41Z</time></trkpt><trkpt lat="41.35217105309111" lon="1.8248258922642235"><ele>284.0</ele><time>2026-04-19T12:28:42Z</time></trkpt><trkpt lat="41.35218844093622" lon="1.824645208915055"><ele>284.5</ele><time>2026-04-19T12:28:43Z</time></trkpt><trkpt lat="41.35213945066467" lon="1.8244610403969057"><ele>285.0</ele><time>2026-04-19T12:28:44Z</time></trkpt><trkpt lat="41.35203928949858" lon="1.8242901748252174"><ele>285.25</ele><time>2026-04-19T12:28:45Z</time></trkpt><trkpt lat="41.35197132060901" lon="1.8241374442706113"><ele>285.5</ele><time>2026-04-19T12:28:46Z</time></trkpt><trkpt lat="41.352008076442445" lon="1.8239829516427561"><ele>285.75</ele><time>2026-04-19T12:28:47Z</time></trkpt><trkpt lat="41.35205323610404" lon="1.8238082140243406"><ele>286.0</ele><time>2026-04-19T12:28:48Z</time></trkpt><trkpt lat="41.35204395945152" lon="1.823661702733896"><ele>286.0</ele><time>2026-04-19T12:28:49Z</time></trkpt><trkpt lat="41.351931944514625" lon="1.823520838577708"><ele>286.0</ele><time>2026-04-19T12:28:50Z</time></trkpt><trkpt lat="41.351772964834936" lon="1.8234052323525225"><ele>286.0</ele><time>2026-04-19T12:28:51Z</time></trkpt><trkpt lat="41.35165278320186" lon="1.8232516534474625"><ele>288.66666666666663</ele><time>2026-04-19T12:28:52Z</time></trkpt><trkpt lat="41.35161340955316" lon="1.8230818590731837"><ele>291.3333333333333</ele><time>2026-04-19T12:28:53Z</time></trkpt><trkpt lat="41.351594627455256" lon="1.8228426580011274"><ele>294.0</ele><time>2026-04-19T12:28:54Z</time></trkpt><trkpt lat="41.351604728479444" lon="1.8226021277478486"><ele>294.75</ele><time>2026-04-19T12:28:55Z</time></trkpt><trkpt lat="41.35164966329177" lon="1.8224120671586477"><ele>295.5</ele><time>2026-04-19T12:28:56Z</time></trkpt><trkpt lat="41.351679645559116" lon="1.822238833301879"><ele>296.25</ele><time>2026-04-19T12:28:57Z</time></trkpt><trkpt lat="41.351688460181194" lon="1.822102580017867"><ele>297.0</ele><time>2026-04-19T12:28:58Z</time></trkpt><trkpt lat="41.351653947257084" lon="1.8219786642797604"><ele>297.0</ele><time>2026-04-19T12:28:59Z</time></trkpt><trkpt lat="41.35149584380956" lon="1.8219238658663797"><ele>297.0</ele><time>2026-04-19T12:29:00Z</time></trkpt><trkpt lat="41.35130838877722" lon="1.8218295772954034"><ele>297.0</ele><time>2026-04-19T12:29:01Z</time></trkpt><trkpt lat="41.35109025076262" lon="1.8217313729714673"><ele>296.6666666666667</ele><time>2026-04-19T12:29:02Z</time></trkpt><trkpt lat="41.350884912229425" lon="1.8216432484503116"><ele>296.33333333333337</ele><time>2026-04-19T12:29:03Z</time></trkpt><trkpt lat="41.350724817161854" lon="1.8215897930482476"><ele>296.0</ele><time>2026-04-19T12:29:04Z</time></trkpt><trkpt lat="41.35059051583157" lon="1.8215409615791693"><ele>296.0</ele><time>2026-04-19T12:29:05Z</time></trkpt><trkpt lat="41.35047928994886" lon="1.8214732992910974"><ele>296.0</ele><time>2026-04-19T12:29:06Z</time></trkpt><trkpt lat="41.350396131975096" lon="1.8213641329646004"><ele>296.0</ele><time>2026-04-19T12:29:07Z</time></trkpt><trkpt lat="41.35034557637697" lon="1.8211902108073386"><ele>296.0</ele><time>2026-04-19T12:29:08Z</time></trkpt><trkpt lat="41.35028744252088" lon="1.8209812765032583"><ele>296.0</ele><time>2026-04-19T12:29:09Z</time></trkpt><trkpt lat="41.35023453153683" lon="1.8207996426107458"><ele>296.0</ele><time>2026-04-19T12:29:10Z</time></trkpt><trkpt lat="41.35016649129581" lon="1.8206316139568814"><ele>296.0</ele><time>2026-04-19T12:29:11Z</time></trkpt><trkpt lat="41.35004401056115" lon="1.8204833231861544"><ele>296.0</ele><time>2026-04-19T12:29:12Z</time></trkpt><trkpt lat="41.3498680535139" lon="1.820409541016835"><ele>296.0</ele><time>2026-04-19T12:29:13Z</time></trkpt><trkpt lat="41.349708747661325" lon="1.8203723797926696"><ele>296.0</ele><time>2026-04-19T12:29:14Z</time></trkpt><trkpt lat="41.349604093257646" lon="1.8202911871312286"><ele>295.0</ele><time>2026-04-19T12:29:15Z</time></trkpt><trkpt lat="41.34951829258901" lon="1.820167435328207"><ele>294.0</ele><time>2026-04-19T12:29:16Z</time></trkpt><trkpt lat="41.34948057544982" lon="1.8199726840679122"><ele>293.0</ele><time>2026-04-19T12:29:17Z</time></trkpt><trkpt lat="41.34948196064013" lon="1.8197145014276124"><ele>293.0</ele><time>2026-04-19T12:29:18Z</time></trkpt><trkpt lat="41.34946706962903" lon="1.8194976552942628"><ele>293.0</ele><time>2026-04-19T12:29:19Z</time></trkpt><trkpt lat="41.349471618661696" lon="1.8193292358392763"><ele>293.0</ele><time>2026-04-19T12:29:20Z</time></trkpt><trkpt lat="41.349513624107225" lon="1.8191894243435551"><ele>293.0</ele><time>2026-04-19T12:29:21Z</time></trkpt><trkpt lat="41.34962305519766" lon="1.8190993436242324"><ele>295.25</ele><time>2026-04-19T12:29:22Z</time></trkpt><trkpt lat="41.34976371586344" lon="1.8190994577779813"><ele>297.5</ele><time>2026-04-19T12:29:23Z</time></trkpt><trkpt lat="41.34990128119746" lon="1.8191309175353958"><ele>299.75</ele><time>2026-04-19T12:29:24Z</time></trkpt><trkpt lat="41.35003622729609" lon="1.8191540409060922"><ele>302.0</ele><time>2026-04-19T12:29:25Z</time></trkpt><trkpt lat="41.350136345528455" lon="1.8191228022307755"><ele>302.0</ele><time>2026-04-19T12:29:26Z</time></trkpt><trkpt lat="41.35019995316251" lon="1.8190174819371792"><ele>302.0</ele><time>2026-04-19T12:29:27Z</time></trkpt><trkpt lat="41.35019062648153" lon="1.8188502282065528"><ele>302.0</ele><time>2026-04-19T12:29:28Z</time></trkpt><trkpt lat="41.35013924300299" lon="1.8186577513821645"><ele>302.0</ele><time>2026-04-19T12:29:29Z</time></trkpt><trkpt lat="41.35007214112148" lon="1.8184271121114384"><ele>301.6666666666667</ele><time>2026-04-19T12:29:30Z</time></trkpt><trkpt lat="41.34996526299945" lon="1.8181922136614599"><ele>301.3333333333333</ele><time>2026-04-19T12:29:31Z</time></trkpt><trkpt lat="41.34980274710353" lon="1.8180085480544734"><ele>301.0</ele><time>2026-04-19T12:29:32Z</time></trkpt><trkpt lat="41.349695620652085" lon="1.817831737020223"><ele>300.75</ele><time>2026-04-19T12:29:33Z</time></trkpt><trkpt lat="41.34959234624581" lon="1.8176933918695324"><ele>300.5</ele><time>2026-04-19T12:29:34Z</time></trkpt><trkpt lat="41.3494984864446" lon="1.8175715258674905"><ele>300.25</ele><time>2026-04-19T12:29:35Z</time></trkpt><trkpt lat="41.3494140975174" lon="1.8174617497345407"><ele>300.0</ele><time>2026-04-19T12:29:36Z</time></trkpt><trkpt lat="41.349339977587796" lon="1.8173390940661873"><ele>300.0</ele><time>2026-04-19T12:29:37Z</time></trkpt><trkpt lat="41.34928507901926" lon="1.8171766537696117"><ele>300.0</ele><time>2026-04-19T12:29:38Z</time></trkpt><trkpt lat="41.349238512759946" lon="1.8169791488748166"><ele>300.0</ele><time>2026-04-19T12:29:39Z</time></trkpt><trkpt lat="41.34920048059076" lon="1.8167739512482803"><ele>300.0</ele><time>2026-04-19T12:29:40Z</time></trkpt><trkpt lat="41.34914330334033" lon="1.816564529755056"><ele>299.3333333333333</ele><time>2026-04-19T12:29:41Z</time></trkpt><trkpt lat="41.349122066408775" lon="1.8163289315046551"><ele>298.66666666666663</ele><time>2026-04-19T12:29:42Z</time></trkpt><trkpt lat="41.349102573267324" lon="1.8160913540902355"><ele>298.0</ele><time>2026-04-19T12:29:43Z</time></trkpt><trkpt lat="41.34908574134876" lon="1.8158612777325764"><ele>299.3333333333333</ele><time>2026-04-19T12:29:44Z</time></trkpt><trkpt lat="41.3490543414208" lon="1.8156478932137579"><ele>300.6666666666667</ele><time>2026-04-19T12:29:44.999Z</time></trkpt><trkpt lat="41.34903994282517" lon="1.8154268899331083"><ele>302.0</ele><time>2026-04-19T12:29:45.999Z</time></trkpt><trkpt lat="41.34904197933184" lon="1.8152146815393413"><ele>301.6666666666667</ele><time>2026-04-19T12:29:46.999Z</time></trkpt><trkpt lat="41.34901740424525" lon="1.8149930269652457"><ele>301.3333333333333</ele><time>2026-04-19T12:29:47.999Z</time></trkpt><trkpt lat="41.34903898985159" lon="1.8147511406582333"><ele>301.0</ele><time>2026-04-19T12:29:48.999Z</time></trkpt><trkpt lat="41.34906668887076" lon="1.814501775257485"><ele>298.3333333333333</ele><time>2026-04-19T12:29:49.999Z</time></trkpt><trkpt lat="41.34907944530327" lon="1.8142684734297638"><ele>295.6666666666667</ele><time>2026-04-19T12:29:50.999Z</time></trkpt><trkpt lat="41.34910792473063" lon="1.8140611941874185"><ele>293.0</ele><time>2026-04-19T12:29:51.999Z</time></trkpt><trkpt lat="41.34913608218816" lon="1.8138784847362812"><ele>293.0</ele><time>2026-04-19T12:29:52.999Z</time></trkpt><trkpt lat="41.34919898511208" lon="1.813709403426774"><ele>293.0</ele><time>2026-04-19T12:29:53.999Z</time></trkpt><trkpt lat="41.34932576435965" lon="1.813599170265794"><ele>293.0</ele><time>2026-04-19T12:29:54.999Z</time></trkpt><trkpt lat="41.34946061090677" lon="1.8134783942227106"><ele>290.25</ele><time>2026-04-19T12:29:55.999Z</time></trkpt><trkpt lat="41.34961674559468" lon="1.8133906326420206"><ele>287.5</ele><time>2026-04-19T12:29:56.999Z</time></trkpt><trkpt lat="41.349752503452066" lon="1.813331569586777"><ele>284.75</ele><time>2026-04-19T12:29:57.999Z</time></trkpt><trkpt lat="41.34986817111301" lon="1.8132824183868244"><ele>282.0</ele><time>2026-04-19T12:29:58.999Z</time></trkpt><trkpt lat="41.35000140620544" lon="1.8133059464124432"><ele>281.6666666666667</ele><time>2026-04-19T12:29:59.999Z</time></trkpt><trkpt lat="41.3501341395163" lon="1.8134174152233968"><ele>281.33333333333337</ele><time>2026-04-19T12:30:00.999Z</time></trkpt><trkpt lat="41.35026499025261" lon="1.8135585090824637"><ele>281.0</ele><time>2026-04-19T12:30:01.999Z</time></trkpt><trkpt lat="41.350379760974846" lon="1.813683122305415"><ele>283.0</ele><time>2026-04-19T12:30:02.999Z</time></trkpt><trkpt lat="41.350478378797995" lon="1.813773958329735"><ele>285.0</ele><time>2026-04-19T12:30:03.999Z</time></trkpt><trkpt lat="41.35056398145302" lon="1.8138373989723913"><ele>287.0</ele><time>2026-04-19T12:30:04.999Z</time></trkpt><trkpt lat="41.35065717917401" lon="1.8138550269202913"><ele>289.0</ele><time>2026-04-19T12:30:05.999Z</time></trkpt><trkpt lat="41.35075719144144" lon="1.8138217918433757"><ele>291.0</ele><time>2026-04-19T12:30:06.999Z</time></trkpt><trkpt lat="41.35083182036657" lon="1.8137090595038066"><ele>291.0</ele><time>2026-04-19T12:30:07.999Z</time></trkpt><trkpt lat="41.35086724872519" lon="1.8135448420897167"><ele>291.0</ele><time>2026-04-19T12:30:08.999Z</time></trkpt><trkpt lat="41.35087749411976" lon="1.8133922685744366"><ele>291.0</ele><time>2026-04-19T12:30:09.999Z</time></trkpt><trkpt lat="41.350903072003916" lon="1.8132652362236235"><ele>291.0</ele><time>2026-04-19T12:30:10.999Z</time></trkpt><trkpt lat="41.35094355642177" lon="1.8131347831461722"><ele>291.0</ele><time>2026-04-19T12:30:11.999Z</time></trkpt><trkpt lat="41.35096340244782" lon="1.8130241998415988"><ele>288.40000000000003</ele><time>2026-04-19T12:30:12.999Z</time></trkpt><trkpt lat="41.35099751386162" lon="1.812911764989974"><ele>285.8</ele><time>2026-04-19T12:30:13.999Z</time></trkpt><trkpt lat="41.35105766350485" lon="1.8128071804573993"><ele>283.20000000000005</ele><time>2026-04-19T12:30:14.999Z</time></trkpt><trkpt lat="41.35113358593309" lon="1.812703626808526"><ele>280.6</ele><time>2026-04-19T12:30:15.999Z</time></trkpt><trkpt lat="41.35120983836665" lon="1.8126247607462416"><ele>278.0</ele><time>2026-04-19T12:30:16.999Z</time></trkpt><trkpt lat="41.351309468739665" lon="1.8125851976733593"><ele>277.33333333333337</ele><time>2026-04-19T12:30:17.999Z</time></trkpt><trkpt lat="41.35141177126266" lon="1.8125867044663184"><ele>276.6666666666667</ele><time>2026-04-19T12:30:18.999Z</time></trkpt><trkpt lat="41.351500033437176" lon="1.8125952335721733"><ele>276.0</ele><time>2026-04-19T12:30:19.999Z</time></trkpt><trkpt lat="41.35157416755699" lon="1.812629545342575"><ele>275.3333333333333</ele><time>2026-04-19T12:30:20.999Z</time></trkpt><trkpt lat="41.35163692796402" lon="1.8126511686906015"><ele>274.66666666666663</ele><time>2026-04-19T12:30:21.999Z</time></trkpt><trkpt lat="41.35170228453399" lon="1.8126208523856986"><ele>274.0</ele><time>2026-04-19T12:30:22.999Z</time></trkpt><trkpt lat="41.351749767278456" lon="1.8125594491888246"><ele>274.0</ele><time>2026-04-19T12:30:23.999Z</time></trkpt><trkpt lat="41.351769078727266" lon="1.8124752271135651"><ele>274.0</ele><time>2026-04-19T12:30:24.999Z</time></trkpt><trkpt lat="41.351751233324734" lon="1.8123772685120625"><ele>274.0</ele><time>2026-04-19T12:30:25.999Z</time></trkpt><trkpt lat="41.35171742618095" lon="1.812293128612752"><ele>274.0</ele><time>2026-04-19T12:30:26.999Z</time></trkpt><trkpt lat="41.35166065092899" lon="1.812205745593035"><ele>274.0</ele><time>2026-04-19T12:30:27.999Z</time></trkpt><trkpt lat="41.35159148235249" lon="1.8121031741128646"><ele>274.0</ele><time>2026-04-19T12:30:28.999Z</time></trkpt><trkpt lat="41.35148062985377" lon="1.8120824406554874"><ele>274.0</ele><time>2026-04-19T12:30:30Z</time></trkpt><trkpt lat="41.35138670876746" lon="1.8120568929001226"><ele>274.0</ele><time>2026-04-19T12:30:31Z</time></trkpt><trkpt lat="41.351310329594554" lon="1.811990547840755"><ele>274.0</ele><time>2026-04-19T12:30:32Z</time></trkpt><trkpt lat="41.35124698291735" lon="1.8118696900099012"><ele>274.0</ele><time>2026-04-19T12:30:33Z</time></trkpt><trkpt lat="41.35119938284207" lon="1.8117504685315102"><ele>274.0</ele><time>2026-04-19T12:30:34Z</time></trkpt><trkpt lat="41.351114380084404" lon="1.8117033778296328"><ele>272.3333333333333</ele><time>2026-04-19T12:30:35Z</time></trkpt><trkpt lat="41.35103927597973" lon="1.8116375721105633"><ele>270.66666666666663</ele><time>2026-04-19T12:30:36Z</time></trkpt><trkpt lat="41.35099124126378" lon="1.81154040114835"><ele>269.0</ele><time>2026-04-19T12:30:37Z</time></trkpt><trkpt lat="41.35093469608399" lon="1.8114528322439103"><ele>267.3333333333333</ele><time>2026-04-19T12:30:38Z</time></trkpt><trkpt lat="41.35090648784078" lon="1.811351947894419"><ele>265.6666666666667</ele><time>2026-04-19T12:30:39Z</time></trkpt><trkpt lat="41.350915010592395" lon="1.8112424022051552"><ele>264.0</ele><time>2026-04-19T12:30:40Z</time></trkpt><trkpt lat="41.3509656655174" lon="1.8111293830762074"><ele>263.25</ele><time>2026-04-19T12:30:41Z</time></trkpt><trkpt lat="41.35101222872014" lon="1.81097250749028"><ele>262.5</ele><time>2026-04-19T12:30:42Z</time></trkpt><trkpt lat="41.35105810951154" lon="1.810815549890093"><ele>261.75</ele><time>2026-04-19T12:30:43Z</time></trkpt><trkpt lat="41.35110707987508" lon="1.8106463387527294"><ele>261.0</ele><time>2026-04-19T12:30:44Z</time></trkpt><trkpt lat="41.35115054627531" lon="1.8104833793702937"><ele>261.0</ele><time>2026-04-19T12:30:45Z</time></trkpt><trkpt lat="41.35116900492415" lon="1.810319793021485"><ele>261.0</ele><time>2026-04-19T12:30:46Z</time></trkpt><trkpt lat="41.35117580373675" lon="1.8101587554932383"><ele>261.0</ele><time>2026-04-19T12:30:47Z</time></trkpt><trkpt lat="41.35114119634679" lon="1.8099986822901042"><ele>261.0</ele><time>2026-04-19T12:30:48Z</time></trkpt><trkpt lat="41.351073175671964" lon="1.8098567371580585"><ele>260.0</ele><time>2026-04-19T12:30:49Z</time></trkpt><trkpt lat="41.350997736042345" lon="1.809723769329752"><ele>259.0</ele><time>2026-04-19T12:30:50Z</time></trkpt><trkpt lat="41.35092514007467" lon="1.8095906778412"><ele>258.0</ele><time>2026-04-19T12:30:51Z</time></trkpt><trkpt lat="41.3508961523341" lon="1.8094316903331447"><ele>257.0</ele><time>2026-04-19T12:30:52Z</time></trkpt><trkpt lat="41.35087520187754" lon="1.809255944147121"><ele>257.0</ele><time>2026-04-19T12:30:53Z</time></trkpt><trkpt lat="41.35087454596964" lon="1.809061279376888"><ele>257.0</ele><time>2026-04-19T12:30:54Z</time></trkpt><trkpt lat="41.350847724225076" lon="1.8088634399766133"><ele>257.0</ele><time>2026-04-19T12:30:55Z</time></trkpt><trkpt lat="41.350789821204245" lon="1.8086870455144712"><ele>257.0</ele><time>2026-04-19T12:30:56Z</time></trkpt><trkpt lat="41.35071976429018" lon="1.808516571479531"><ele>257.75</ele><time>2026-04-19T12:30:57Z</time></trkpt><trkpt lat="41.35060987687944" lon="1.808384778175933"><ele>258.5</ele><time>2026-04-19T12:30:58Z</time></trkpt><trkpt lat="41.350536684882236" lon="1.8082380886802893"><ele>259.25</ele><time>2026-04-19T12:30:59Z</time></trkpt><trkpt lat="41.350451936502516" lon="1.8081068071205664"><ele>260.0</ele><time>2026-04-19T12:31:00Z</time></trkpt><trkpt lat="41.35038645879976" lon="1.807984305994849"><ele>258.25</ele><time>2026-04-19T12:31:01Z</time></trkpt><trkpt lat="41.35033015022064" lon="1.8078340802054294"><ele>256.5</ele><time>2026-04-19T12:31:02Z</time></trkpt><trkpt lat="41.350280888166765" lon="1.807682027137477"><ele>254.75</ele><time>2026-04-19T12:31:03Z</time></trkpt><trkpt lat="41.350241461815266" lon="1.8075352047622986"><ele>253.0</ele><time>2026-04-19T12:31:04Z</time></trkpt><trkpt lat="41.350206925109944" lon="1.8073798638652985"><ele>251.25</ele><time>2026-04-19T12:31:05Z</time></trkpt><trkpt lat="41.35019895693696" lon="1.8072170799031608"><ele>249.5</ele><time>2026-04-19T12:31:06Z</time></trkpt><trkpt lat="41.35020956192781" lon="1.8070355143711314"><ele>247.75</ele><time>2026-04-19T12:31:07Z</time></trkpt><trkpt lat="41.35022090985391" lon="1.8068610990659897"><ele>246.0</ele><time>2026-04-19T12:31:08Z</time></trkpt><trkpt lat="41.35023177812595" lon="1.8066961791166378"><ele>245.0</ele><time>2026-04-19T12:31:09Z</time></trkpt><trkpt lat="41.350228319194976" lon="1.8065238914653214"><ele>244.0</ele><time>2026-04-19T12:31:10Z</time></trkpt><trkpt lat="41.350249993360045" lon="1.806348959733695"><ele>243.0</ele><time>2026-04-19T12:31:11Z</time></trkpt><trkpt lat="41.350249662470176" lon="1.8061493182583723"><ele>242.0</ele><time>2026-04-19T12:31:12Z</time></trkpt><trkpt lat="41.350263929604864" lon="1.8059398084554938"><ele>240.33333333333334</ele><time>2026-04-19T12:31:13Z</time></trkpt><trkpt lat="41.35028247376368" lon="1.8057134236341261"><ele>238.66666666666669</ele><time>2026-04-19T12:31:14Z</time></trkpt><trkpt lat="41.35029880044147" lon="1.8054952012582346"><ele>237.0</ele><time>2026-04-19T12:31:15Z</time></trkpt><trkpt lat="41.350347963522665" lon="1.8052196720179001"><ele>236.0</ele><time>2026-04-19T12:31:16Z</time></trkpt><trkpt lat="41.35039561083313" lon="1.804913919478528"><ele>235.0</ele><time>2026-04-19T12:31:17Z</time></trkpt><trkpt lat="41.35044721565188" lon="1.8045801400743977"><ele>233.0</ele><time>2026-04-19T12:31:18Z</time></trkpt><trkpt lat="41.35049622001443" lon="1.8042621875366882"><ele>231.0</ele><time>2026-04-19T12:31:19Z</time></trkpt><trkpt lat="41.35053876810923" lon="1.8039841037068853"><ele>231.66666666666669</ele><time>2026-04-19T12:31:20Z</time></trkpt><trkpt lat="41.350577898926666" lon="1.8037230720083754"><ele>232.33333333333334</ele><time>2026-04-19T12:31:21Z</time></trkpt><trkpt lat="41.35058768311816" lon="1.8034663563323678"><ele>233.0</ele><time>2026-04-19T12:31:22Z</time></trkpt><trkpt lat="41.35054586641772" lon="1.8032394979272002"><ele>233.0</ele><time>2026-04-19T12:31:23Z</time></trkpt><trkpt lat="41.35054734582602" lon="1.8030499744501325"><ele>233.0</ele><time>2026-04-19T12:31:24Z</time></trkpt><trkpt lat="41.35054935793777" lon="1.8028818477245776"><ele>233.0</ele><time>2026-04-19T12:31:25Z</time></trkpt><trkpt lat="41.35059611688356" lon="1.8027309093824326"><ele>233.0</ele><time>2026-04-19T12:31:26Z</time></trkpt><trkpt lat="41.35072636122995" lon="1.8026328680353576"><ele>233.33333333333334</ele><time>2026-04-19T12:31:27Z</time></trkpt><trkpt lat="41.35089972885591" lon="1.8025895093660076"><ele>233.66666666666669</ele><time>2026-04-19T12:31:28Z</time></trkpt><trkpt lat="41.3511074318316" lon="1.8025629025256502"><ele>234.0</ele><time>2026-04-19T12:31:29Z</time></trkpt><trkpt lat="41.35128544508244" lon="1.8025002162641712"><ele>234.0</ele><time>2026-04-19T12:31:30Z</time></trkpt><trkpt lat="41.351457018977904" lon="1.8023990305966187"><ele>234.0</ele><time>2026-04-19T12:31:31Z</time></trkpt><trkpt lat="41.35159169086391" lon="1.802270899710859"><ele>234.0</ele><time>2026-04-19T12:31:32Z</time></trkpt><trkpt lat="41.3517097910256" lon="1.8020982758101625"><ele>234.0</ele><time>2026-04-19T12:31:33Z</time></trkpt><trkpt lat="41.35182008242726" lon="1.8018700523140876"><ele>234.0</ele><time>2026-04-19T12:31:34Z</time></trkpt><trkpt lat="41.351933426701095" lon="1.8016043696867712"><ele>234.0</ele><time>2026-04-19T12:31:35Z</time></trkpt><trkpt lat="41.35205505457249" lon="1.8013981469027731"><ele>237.0</ele><time>2026-04-19T12:31:36Z</time></trkpt><trkpt lat="41.35218196575415" lon="1.8012574534026085"><ele>240.0</ele><time>2026-04-19T12:31:37Z</time></trkpt><trkpt lat="41.352404052006875" lon="1.8012275141474108"><ele>243.0</ele><time>2026-04-19T12:31:38Z</time></trkpt><trkpt lat="41.35259443817064" lon="1.8011650152993581"><ele>243.0</ele><time>2026-04-19T12:31:39Z</time></trkpt><trkpt lat="41.352796697287594" lon="1.8010962430816793"><ele>243.0</ele><time>2026-04-19T12:31:40Z</time></trkpt><trkpt lat="41.35300534418029" lon="1.801059062503536"><ele>243.0</ele><time>2026-04-19T12:31:41Z</time></trkpt><trkpt lat="41.3532073181217" lon="1.801062631062684"><ele>243.33333333333331</ele><time>2026-04-19T12:31:41.999Z</time></trkpt><trkpt lat="41.353361133349004" lon="1.8011359861721006"><ele>243.66666666666666</ele><time>2026-04-19T12:31:42.999Z</time></trkpt><trkpt lat="41.35351556692058" lon="1.801207448346211"><ele>244.0</ele><time>2026-04-19T12:31:43.999Z</time></trkpt><trkpt lat="41.353654613342094" lon="1.8012840471158416"><ele>244.0</ele><time>2026-04-19T12:31:44.999Z</time></trkpt><trkpt lat="41.35379920926596" lon="1.8013198960662649"><ele>244.0</ele><time>2026-04-19T12:31:45.999Z</time></trkpt><trkpt lat="41.353955546136554" lon="1.8013296249438373"><ele>244.0</ele><time>2026-04-19T12:31:46.999Z</time></trkpt><trkpt lat="41.3541097994537" lon="1.8012871154833372"><ele>244.0</ele><time>2026-04-19T12:31:47.999Z</time></trkpt><trkpt lat="41.35427016841635" lon="1.8011942526379607"><ele>244.0</ele><time>2026-04-19T12:31:48.999Z</time></trkpt><trkpt lat="41.35441392124226" lon="1.8011046989320796"><ele>244.0</ele><time>2026-04-19T12:31:49.999Z</time></trkpt><trkpt lat="41.35452221043522" lon="1.8010097395486244"><ele>249.66666666666666</ele><time>2026-04-19T12:31:50.999Z</time></trkpt><trkpt lat="41.35460432117594" lon="1.8008922822580264"><ele>255.33333333333331</ele><time>2026-04-19T12:31:51.999Z</time></trkpt><trkpt lat="41.35464383367508" lon="1.8006741335002243"><ele>261.0</ele><time>2026-04-19T12:31:52.999Z</time></trkpt><trkpt lat="41.35469934075232" lon="1.800414618122955"><ele>262.3333333333333</ele><time>2026-04-19T12:31:53.999Z</time></trkpt><trkpt lat="41.3547686851652" lon="1.8001271503750575"><ele>263.66666666666663</ele><time>2026-04-19T12:31:54.999Z</time></trkpt><trkpt lat="41.35484055522227" lon="1.7998604205989481"><ele>265.0</ele><time>2026-04-19T12:31:55.999Z</time></trkpt><trkpt lat="41.35490185841967" lon="1.7996222901825198"><ele>265.0</ele><time>2026-04-19T12:31:56.999Z</time></trkpt><trkpt lat="41.354959608437326" lon="1.7994010761729329"><ele>265.0</ele><time>2026-04-19T12:31:57.999Z</time></trkpt><trkpt lat="41.35502941846438" lon="1.7991938382143604"><ele>265.0</ele><time>2026-04-19T12:31:58.999Z</time></trkpt><trkpt lat="41.35508875728085" lon="1.7989706021537835"><ele>263.66666666666663</ele><time>2026-04-19T12:31:59.999Z</time></trkpt><trkpt lat="41.35515398432137" lon="1.7987268579692635"><ele>262.3333333333333</ele><time>2026-04-19T12:32:00.999Z</time></trkpt><trkpt lat="41.35520827229451" lon="1.798462307893243"><ele>261.0</ele><time>2026-04-19T12:32:01.999Z</time></trkpt><trkpt lat="41.35528196068635" lon="1.7982044238646782"><ele>259.0</ele><time>2026-04-19T12:32:02.999Z</time></trkpt><trkpt lat="41.3553483890411" lon="1.797951627630996"><ele>257.0</ele><time>2026-04-19T12:32:03.999Z</time></trkpt><trkpt lat="41.35541814614919" lon="1.7976931088876509"><ele>255.0</ele><time>2026-04-19T12:32:04.999Z</time></trkpt><trkpt lat="41.35548929464656" lon="1.797430095764857"><ele>254.0</ele><time>2026-04-19T12:32:05.999Z</time></trkpt><trkpt lat="41.355559635965136" lon="1.7971789058687249"><ele>253.0</ele><time>2026-04-19T12:32:06.999Z</time></trkpt><trkpt lat="41.35562162928" lon="1.7969267789650227"><ele>252.0</ele><time>2026-04-19T12:32:07.999Z</time></trkpt><trkpt lat="41.35567344999212" lon="1.7966705089136124"><ele>251.33333333333331</ele><time>2026-04-19T12:32:08.999Z</time></trkpt><trkpt lat="41.355713151673264" lon="1.7964093609494556"><ele>250.66666666666666</ele><time>2026-04-19T12:32:09.999Z</time></trkpt><trkpt lat="41.3557539106363" lon="1.7961427872576163"><ele>250.0</ele><time>2026-04-19T12:32:10.999Z</time></trkpt><trkpt lat="41.35579169942286" lon="1.7958820391923584"><ele>249.66666666666666</ele><time>2026-04-19T12:32:11.999Z</time></trkpt><trkpt lat="41.35582950203296" lon="1.7956238798723838"><ele>249.33333333333331</ele><time>2026-04-19T12:32:12.999Z</time></trkpt><trkpt lat="41.35585795500202" lon="1.795369537652512"><ele>249.0</ele><time>2026-04-19T12:32:13.999Z</time></trkpt><trkpt lat="41.35590060172727" lon="1.795124138001228"><ele>248.66666666666669</ele><time>2026-04-19T12:32:14.999Z</time></trkpt><trkpt lat="41.35592302609976" lon="1.7948813135970674"><ele>248.33333333333334</ele><time>2026-04-19T12:32:15.999Z</time></trkpt><trkpt lat="41.355944495234326" lon="1.7946331334959365"><ele>248.0</ele><time>2026-04-19T12:32:16.999Z</time></trkpt><trkpt lat="41.35596627286828" lon="1.7943813872166068"><ele>249.33333333333334</ele><time>2026-04-19T12:32:17.999Z</time></trkpt><trkpt lat="41.355989192627895" lon="1.7941279557775311"><ele>250.66666666666669</ele><time>2026-04-19T12:32:18.999Z</time></trkpt><trkpt lat="41.35601070984517" lon="1.793869013776966"><ele>252.0</ele><time>2026-04-19T12:32:19.999Z</time></trkpt><trkpt lat="41.35601835689815" lon="1.7936004895703932"><ele>253.66666666666669</ele><time>2026-04-19T12:32:20.999Z</time></trkpt><trkpt lat="41.35601058745001" lon="1.7933296405205361"><ele>255.33333333333334</ele><time>2026-04-19T12:32:21.999Z</time></trkpt><trkpt lat="41.35600161560502" lon="1.7930659478043514"><ele>257.0</ele><time>2026-04-19T12:32:22.999Z</time></trkpt><trkpt lat="41.35599460961904" lon="1.7928268586401064"><ele>257.0</ele><time>2026-04-19T12:32:23.999Z</time></trkpt><trkpt lat="41.35598800406313" lon="1.7925742200743036"><ele>257.0</ele><time>2026-04-19T12:32:24.999Z</time></trkpt><trkpt lat="41.35598174707685" lon="1.7923396963526337"><ele>257.0</ele><time>2026-04-19T12:32:25.999Z</time></trkpt><trkpt lat="41.35597383210759" lon="1.7921032659277722"><ele>257.0</ele><time>2026-04-19T12:32:26.999Z</time></trkpt><trkpt lat="41.35596836967436" lon="1.7918926668025175"><ele>257.0</ele><time>2026-04-19T12:32:27.999Z</time></trkpt><trkpt lat="41.35596275781521" lon="1.7917035579725107"><ele>257.0</ele><time>2026-04-19T12:32:28.999Z</time></trkpt><trkpt lat="41.35596124957526" lon="1.7915355790570375"><ele>257.0</ele><time>2026-04-19T12:32:29.999Z</time></trkpt><trkpt lat="41.35598670974739" lon="1.7913835187816372"><ele>258.33333333333337</ele><time>2026-04-19T12:32:30.999Z</time></trkpt><trkpt lat="41.35606120605639" lon="1.7912298575057277"><ele>259.6666666666667</ele><time>2026-04-19T12:32:31.999Z</time></trkpt><trkpt lat="41.35616475415899" lon="1.7910502475194527"><ele>261.0</ele><time>2026-04-19T12:32:32.999Z</time></trkpt><trkpt lat="41.35626372019207" lon="1.790861195426093"><ele>261.0</ele><time>2026-04-19T12:32:33.999Z</time></trkpt><trkpt lat="41.35635513759925" lon="1.790709711941647"><ele>261.0</ele><time>2026-04-19T12:32:34.999Z</time></trkpt><trkpt lat="41.356438889863746" lon="1.790564771852276"><ele>261.0</ele><time>2026-04-19T12:32:36Z</time></trkpt><trkpt lat="41.3565289329792" lon="1.7904192674746051"><ele>261.0</ele><time>2026-04-19T12:32:37Z</time></trkpt><trkpt lat="41.35663738145066" lon="1.7902814155651423"><ele>262.3333333333333</ele><time>2026-04-19T12:32:38Z</time></trkpt><trkpt lat="41.356767993153994" lon="1.790155973082339"><ele>263.66666666666663</ele><time>2026-04-19T12:32:39Z</time></trkpt><trkpt lat="41.356898109290626" lon="1.790023827849327"><ele>265.0</ele><time>2026-04-19T12:32:40Z</time></trkpt><trkpt lat="41.357019515496766" lon="1.7899128570865466"><ele>265.0</ele><time>2026-04-19T12:32:41Z</time></trkpt><trkpt lat="41.357127960714834" lon="1.789818112165643"><ele>265.0</ele><time>2026-04-19T12:32:42Z</time></trkpt><trkpt lat="41.35721918012602" lon="1.7897144273775674"><ele>265.0</ele><time>2026-04-19T12:32:43Z</time></trkpt><trkpt lat="41.357286413374574" lon="1.7895794579556548"><ele>265.0</ele><time>2026-04-19T12:32:44Z</time></trkpt><trkpt lat="41.35734588243251" lon="1.7894214495207892"><ele>265.5</ele><time>2026-04-19T12:32:45Z</time></trkpt><trkpt lat="41.35739331148173" lon="1.7892593546054905"><ele>266.0</ele><time>2026-04-19T12:32:46Z</time></trkpt><trkpt lat="41.35744596375174" lon="1.789100244812037"><ele>266.5</ele><time>2026-04-19T12:32:47Z</time></trkpt><trkpt lat="41.357503748550975" lon="1.7889369591906086"><ele>267.0</ele><time>2026-04-19T12:32:48Z</time></trkpt><trkpt lat="41.357546057138116" lon="1.7887658705334784"><ele>267.0</ele><time>2026-04-19T12:32:49Z</time></trkpt><trkpt lat="41.35758992299043" lon="1.78858837576222"><ele>267.0</ele><time>2026-04-19T12:32:50Z</time></trkpt><trkpt lat="41.35764452331713" lon="1.7884092198219579"><ele>267.0</ele><time>2026-04-19T12:32:51Z</time></trkpt><trkpt lat="41.357688081680536" lon="1.7882261143797433"><ele>267.0</ele><time>2026-04-19T12:32:52Z</time></trkpt><trkpt lat="41.3577421508258" lon="1.788052245437575"><ele>267.6666666666667</ele><time>2026-04-19T12:32:53Z</time></trkpt><trkpt lat="41.35778825717937" lon="1.7878664423119632"><ele>268.33333333333337</ele><time>2026-04-19T12:32:54Z</time></trkpt><trkpt lat="41.35783733771905" lon="1.7876662601164786"><ele>269.0</ele><time>2026-04-19T12:32:55Z</time></trkpt><trkpt lat="41.35788529819534" lon="1.7874430604066043"><ele>271.6666666666667</ele><time>2026-04-19T12:32:56Z</time></trkpt><trkpt lat="41.357935073267534" lon="1.7872110720459444"><ele>274.3333333333333</ele><time>2026-04-19T12:32:57Z</time></trkpt><trkpt lat="41.357979621485235" lon="1.7869823180552182"><ele>277.0</ele><time>2026-04-19T12:32:58Z</time></trkpt><trkpt lat="41.35801576004504" lon="1.7867482395925314"><ele>275.3333333333333</ele><time>2026-04-19T12:32:59Z</time></trkpt><trkpt lat="41.35804165793344" lon="1.7865157886218026"><ele>273.6666666666667</ele><time>2026-04-19T12:33:00Z</time></trkpt><trkpt lat="41.35805381682023" lon="1.7862879807835055"><ele>272.0</ele><time>2026-04-19T12:33:01Z</time></trkpt><trkpt lat="41.358071159270374" lon="1.7860509947112506"><ele>272.6666666666667</ele><time>2026-04-19T12:33:02Z</time></trkpt><trkpt lat="41.358092730950666" lon="1.7858104729165416"><ele>273.3333333333333</ele><time>2026-04-19T12:33:03Z</time></trkpt><trkpt lat="41.35810861255515" lon="1.7855728383706015"><ele>274.0</ele><time>2026-04-19T12:33:04Z</time></trkpt><trkpt lat="41.35814058416248" lon="1.7853444081540124"><ele>275.0</ele><time>2026-04-19T12:33:05Z</time></trkpt><trkpt lat="41.35815780811585" lon="1.7851229982683006"><ele>276.0</ele><time>2026-04-19T12:33:06Z</time></trkpt><trkpt lat="41.35817569599076" lon="1.7849047839742012"><ele>277.0</ele><time>2026-04-19T12:33:07Z</time></trkpt><trkpt lat="41.35817931468591" lon="1.784685232323707"><ele>277.0</ele><time>2026-04-19T12:33:08Z</time></trkpt><trkpt lat="41.35820606652793" lon="1.784477774862506"><ele>277.0</ele><time>2026-04-19T12:33:09Z</time></trkpt><trkpt lat="41.35823934489031" lon="1.7842502879695388"><ele>277.0</ele><time>2026-04-19T12:33:10Z</time></trkpt><trkpt lat="41.35828979455778" lon="1.784022128727689"><ele>276.66666666666663</ele><time>2026-04-19T12:33:11Z</time></trkpt><trkpt lat="41.35834176943046" lon="1.7837852401465064"><ele>276.3333333333333</ele><time>2026-04-19T12:33:12Z</time></trkpt><trkpt lat="41.35839148836682" lon="1.7835452748842109"><ele>276.0</ele><time>2026-04-19T12:33:13Z</time></trkpt><trkpt lat="41.35846235079299" lon="1.7833099991108483"><ele>275.6666666666667</ele><time>2026-04-19T12:33:14Z</time></trkpt><trkpt lat="41.35851735979701" lon="1.7830712759758303"><ele>275.33333333333337</ele><time>2026-04-19T12:33:15Z</time></trkpt><trkpt lat="41.35857282154271" lon="1.7828310610684779"><ele>275.0</ele><time>2026-04-19T12:33:16Z</time></trkpt><trkpt lat="41.35862769669474" lon="1.782593247047634"><ele>275.0</ele><time>2026-04-19T12:33:17Z</time></trkpt><trkpt lat="41.35867886812829" lon="1.7823654278839707"><ele>275.0</ele><time>2026-04-19T12:33:18Z</time></trkpt><trkpt lat="41.35872824008627" lon="1.7821512462075884"><ele>275.0</ele><time>2026-04-19T12:33:19Z</time></trkpt><trkpt lat="41.35878229284631" lon="1.7819352522538792"><ele>275.6666666666667</ele><time>2026-04-19T12:33:20Z</time></trkpt><trkpt lat="41.35890062986873" lon="1.7817601499178655"><ele>276.3333333333333</ele><time>2026-04-19T12:33:21Z</time></trkpt><trkpt lat="41.35900623455378" lon="1.7815530989666708"><ele>277.0</ele><time>2026-04-19T12:33:22Z</time></trkpt><trkpt lat="41.35910454222622" lon="1.7813515127664141"><ele>277.0</ele><time>2026-04-19T12:33:23Z</time></trkpt><trkpt lat="41.359186708057976" lon="1.7811738580130971"><ele>277.0</ele><time>2026-04-19T12:33:24Z</time></trkpt><trkpt lat="41.359250527380055" lon="1.7809934243424004"><ele>277.0</ele><time>2026-04-19T12:33:25Z</time></trkpt><trkpt lat="41.359311818244855" lon="1.780820138581512"><ele>277.0</ele><time>2026-04-19T12:33:26Z</time></trkpt><trkpt lat="41.359361259309296" lon="1.7806364893538216"><ele>277.0</ele><time>2026-04-19T12:33:26.999Z</time></trkpt><trkpt lat="41.35942387752627" lon="1.7804652940439114"><ele>277.0</ele><time>2026-04-19T12:33:27.999Z</time></trkpt><trkpt lat="41.35947959943444" lon="1.7802989470951638"><ele>277.0</ele><time>2026-04-19T12:33:28.999Z</time></trkpt><trkpt lat="41.359549164326324" lon="1.7801574301039216"><ele>277.5</ele><time>2026-04-19T12:33:29.999Z</time></trkpt><trkpt lat="41.35959650441407" lon="1.7800146446870884"><ele>278.0</ele><time>2026-04-19T12:33:30.999Z</time></trkpt><trkpt lat="41.35964289092059" lon="1.7798662655964197"><ele>278.5</ele><time>2026-04-19T12:33:31.999Z</time></trkpt><trkpt lat="41.35969349569573" lon="1.7797010871910952"><ele>279.0</ele><time>2026-04-19T12:33:32.999Z</time></trkpt><trkpt lat="41.35974824671397" lon="1.7795253105966733"><ele>279.6666666666667</ele><time>2026-04-19T12:33:33.999Z</time></trkpt><trkpt lat="41.359807596377415" lon="1.7793305295791755"><ele>280.33333333333337</ele><time>2026-04-19T12:33:34.999Z</time></trkpt><trkpt lat="41.3598609267959" lon="1.7791543467534163"><ele>281.0</ele><time>2026-04-19T12:33:35.999Z</time></trkpt><trkpt lat="41.35991555273776" lon="1.7789687698619063"><ele>281.0</ele><time>2026-04-19T12:33:36.999Z</time></trkpt><trkpt lat="41.35996400054265" lon="1.7788041815839382"><ele>281.0</ele><time>2026-04-19T12:33:37.999Z</time></trkpt><trkpt lat="41.36000688163599" lon="1.7786585064368035"><ele>281.0</ele><time>2026-04-19T12:33:38.999Z</time></trkpt><trkpt lat="41.36004943672527" lon="1.778515725614248"><ele>281.0</ele><time>2026-04-19T12:33:39.999Z</time></trkpt><trkpt lat="41.3600924610177" lon="1.7783708569494794"><ele>281.25</ele><time>2026-04-19T12:33:40.999Z</time></trkpt><trkpt lat="41.36013348940932" lon="1.7782175200057544"><ele>281.5</ele><time>2026-04-19T12:33:41.999Z</time></trkpt><trkpt lat="41.36016433818777" lon="1.778061379181333"><ele>281.75</ele><time>2026-04-19T12:33:42.999Z</time></trkpt><trkpt lat="41.360187520294566" lon="1.7778904674575524"><ele>282.0</ele><time>2026-04-19T12:33:43.999Z</time></trkpt><trkpt lat="41.36020770570793" lon="1.7777343612146348"><ele>282.4</ele><time>2026-04-19T12:33:44.999Z</time></trkpt><trkpt lat="41.360221625791226" lon="1.77759382222848"><ele>282.79999999999995</ele><time>2026-04-19T12:33:45.999Z</time></trkpt><trkpt lat="41.360233825793955" lon="1.777462102787778"><ele>283.2</ele><time>2026-04-19T12:33:46.999Z</time></trkpt><trkpt lat="41.36024617849572" lon="1.777346308342433"><ele>283.59999999999997</ele><time>2026-04-19T12:33:47.999Z</time></trkpt><trkpt lat="41.360266537876285" lon="1.7772415305278735"><ele>284.0</ele><time>2026-04-19T12:33:48.999Z</time></trkpt><trkpt lat="41.36031229066126" lon="1.7771443327391374"><ele>284.0</ele><time>2026-04-19T12:33:49.999Z</time></trkpt><trkpt lat="41.36041062569245" lon="1.7770827496334842"><ele>284.0</ele><time>2026-04-19T12:33:50.999Z</time></trkpt><trkpt lat="41.36051173115212" lon="1.7770417861071648"><ele>284.0</ele><time>2026-04-19T12:33:51.999Z</time></trkpt><trkpt lat="41.36060196181579" lon="1.7769739864756928"><ele>284.0</ele><time>2026-04-19T12:33:52.999Z</time></trkpt><trkpt lat="41.36070028108723" lon="1.776907766900748"><ele>284.0</ele><time>2026-04-19T12:33:53.999Z</time></trkpt><trkpt lat="41.36078837111478" lon="1.776844771613795"><ele>283.6666666666667</ele><time>2026-04-19T12:33:54.999Z</time></trkpt><trkpt lat="41.36087243508421" lon="1.7767946096920366"><ele>283.33333333333337</ele><time>2026-04-19T12:33:55.999Z</time></trkpt><trkpt lat="41.36094813933381" lon="1.7767500581913345"><ele>283.0</ele><time>2026-04-19T12:33:56.999Z</time></trkpt><trkpt lat="41.36101843382243" lon="1.7767115588005793"><ele>282.6666666666667</ele><time>2026-04-19T12:33:57.999Z</time></trkpt><trkpt lat="41.361124634466776" lon="1.7766634158711623"><ele>282.3333333333333</ele><time>2026-04-19T12:33:59.999Z</time></trkpt><trkpt lat="41.36119663165108" lon="1.7766499099811799"><ele>282.0</ele><time>2026-04-19T12:34:01.999Z</time></trkpt><trkpt lat="41.36128699567401" lon="1.7766320975932164"><ele>282.0</ele><time>2026-04-19T12:34:06.999Z</time></trkpt><trkpt lat="41.36132890730303" lon="1.7764868308927324"><ele>282.0</ele><time>2026-04-19T12:34:07.999Z</time></trkpt><trkpt lat="41.3613420453127" lon="1.7763635845408505"><ele>282.0</ele><time>2026-04-19T12:34:08.999Z</time></trkpt><trkpt lat="41.36135758498052" lon="1.7762178087525278"><ele>282.0</ele><time>2026-04-19T12:34:09.999Z</time></trkpt><trkpt lat="41.36137851997135" lon="1.7760214197816115"><ele>281.25</ele><time>2026-04-19T12:34:10.999Z</time></trkpt><trkpt lat="41.3613984030003" lon="1.7758349004722835"><ele>280.5</ele><time>2026-04-19T12:34:11.999Z</time></trkpt><trkpt lat="41.36141701403165" lon="1.7756676240603284"><ele>279.75</ele><time>2026-04-19T12:34:12.999Z</time></trkpt><trkpt lat="41.36142281192335" lon="1.7755100790676173"><ele>279.0</ele><time>2026-04-19T12:34:13.999Z</time></trkpt><trkpt lat="41.361452016267314" lon="1.7753742974456603"><ele>279.0</ele><time>2026-04-19T12:34:14.999Z</time></trkpt><trkpt lat="41.36149311439218" lon="1.775236023725515"><ele>279.0</ele><time>2026-04-19T12:34:15.999Z</time></trkpt><trkpt lat="41.36154721003045" lon="1.775106337635193"><ele>279.0</ele><time>2026-04-19T12:34:16.999Z</time></trkpt><trkpt lat="41.3615605422148" lon="1.7749478858662209"><ele>279.0</ele><time>2026-04-19T12:34:17.999Z</time></trkpt><trkpt lat="41.36157721474956" lon="1.7747891002258231"><ele>279.0</ele><time>2026-04-19T12:34:18.999Z</time></trkpt><trkpt lat="41.36159178928019" lon="1.774654783865674"><ele>279.0</ele><time>2026-04-19T12:34:19.999Z</time></trkpt><trkpt lat="41.36160780099631" lon="1.7745026723661022"><ele>279.0</ele><time>2026-04-19T12:34:20.999Z</time></trkpt><trkpt lat="41.36154606384237" lon="1.774450069949035"><ele>279.0</ele><time>2026-04-19T12:34:21.999Z</time></trkpt><trkpt lat="41.36156004906124" lon="1.7743188172525437"><ele>279.0</ele><time>2026-04-19T12:34:22.999Z</time></trkpt><trkpt lat="41.36157403060949" lon="1.7741885585408623"><ele>279.0</ele><time>2026-04-19T12:34:23.999Z</time></trkpt><trkpt lat="41.36158712819662" lon="1.7740665353704976"><ele>279.0</ele><time>2026-04-19T12:34:24.999Z</time></trkpt><trkpt lat="41.361600561672056" lon="1.7739413827357722"><ele>279.0</ele><time>2026-04-19T12:34:25.999Z</time></trkpt><trkpt lat="41.361614679915675" lon="1.7738098506299054"><ele>279.0</ele><time>2026-04-19T12:34:26.999Z</time></trkpt><trkpt lat="41.36162958359625" lon="1.7736710009696517"><ele>279.0</ele><time>2026-04-19T12:34:27.999Z</time></trkpt><trkpt lat="41.361643878923914" lon="1.7735378189880942"><ele>279.75</ele><time>2026-04-19T12:34:28.999Z</time></trkpt><trkpt lat="41.361659060166645" lon="1.7733963835016102"><ele>280.5</ele><time>2026-04-19T12:34:29.999Z</time></trkpt><trkpt lat="41.36167538058755" lon="1.7732477436938876"><ele>281.25</ele><time>2026-04-19T12:34:30.999Z</time></trkpt><trkpt lat="41.36169261386584" lon="1.773091006441062"><ele>282.0</ele><time>2026-04-19T12:34:31.999Z</time></trkpt><trkpt lat="41.3617094248175" lon="1.7729370863359089"><ele>282.0</ele><time>2026-04-19T12:34:32.999Z</time></trkpt><trkpt lat="41.36172506243458" lon="1.7727897566371584"><ele>282.0</ele><time>2026-04-19T12:34:33.999Z</time></trkpt><trkpt lat="41.36174021834953" lon="1.7726406809737805"><ele>282.0</ele><time>2026-04-19T12:34:34.999Z</time></trkpt><trkpt lat="41.36175567391993" lon="1.7724850675953685"><ele>282.0</ele><time>2026-04-19T12:34:35.999Z</time></trkpt><trkpt lat="41.36177145490633" lon="1.772326177799425"><ele>282.75</ele><time>2026-04-19T12:34:36.999Z</time></trkpt><trkpt lat="41.361785221291754" lon="1.7721675721238563"><ele>283.5</ele><time>2026-04-19T12:34:37.999Z</time></trkpt><trkpt lat="41.36179513029705" lon="1.7720108995688812"><ele>284.25</ele><time>2026-04-19T12:34:38.999Z</time></trkpt><trkpt lat="41.361798408533666" lon="1.7718517668766867"><ele>285.0</ele><time>2026-04-19T12:34:39.999Z</time></trkpt><trkpt lat="41.36179055502214" lon="1.771685691090326"><ele>285.25</ele><time>2026-04-19T12:34:40.999Z</time></trkpt><trkpt lat="41.36176044367851" lon="1.7715129208028157"><ele>285.5</ele><time>2026-04-19T12:34:42Z</time></trkpt><trkpt lat="41.36175240732996" lon="1.771338092859322"><ele>285.75</ele><time>2026-04-19T12:34:43Z</time></trkpt><trkpt lat="41.36171560005308" lon="1.7711345884947214"><ele>286.0</ele><time>2026-04-19T12:34:44Z</time></trkpt><trkpt lat="41.361678842813184" lon="1.770950045761448"><ele>285.3333333333333</ele><time>2026-04-19T12:34:45Z</time></trkpt><trkpt lat="41.361635015233574" lon="1.7707433428866362"><ele>284.6666666666667</ele><time>2026-04-19T12:34:46Z</time></trkpt><trkpt lat="41.361589292166336" lon="1.770538570478266"><ele>284.0</ele><time>2026-04-19T12:34:47Z</time></trkpt><trkpt lat="41.36153989456239" lon="1.77031734150572"><ele>283.0</ele><time>2026-04-19T12:34:48Z</time></trkpt><trkpt lat="41.361470890170324" lon="1.7701103488384968"><ele>282.0</ele><time>2026-04-19T12:34:49Z</time></trkpt><trkpt lat="41.3614215933947" lon="1.7699057903455833"><ele>281.0</ele><time>2026-04-19T12:34:50Z</time></trkpt><trkpt lat="41.36137518015877" lon="1.769702932977427"><ele>280.25</ele><time>2026-04-19T12:34:51Z</time></trkpt><trkpt lat="41.36133122806315" lon="1.7695136858659923"><ele>279.5</ele><time>2026-04-19T12:34:52Z</time></trkpt><trkpt lat="41.361315433747265" lon="1.769324973191459"><ele>278.75</ele><time>2026-04-19T12:34:53Z</time></trkpt><trkpt lat="41.361277706995935" lon="1.7691590452083088"><ele>278.0</ele><time>2026-04-19T12:34:54Z</time></trkpt><trkpt lat="41.361239390273816" lon="1.7689905223330598"><ele>277.75</ele><time>2026-04-19T12:34:55Z</time></trkpt><trkpt lat="41.36120299472738" lon="1.7688304490978162"><ele>277.5</ele><time>2026-04-19T12:34:56Z</time></trkpt><trkpt lat="41.361166019954844" lon="1.7686664987116596"><ele>277.25</ele><time>2026-04-19T12:34:57Z</time></trkpt><trkpt lat="41.361128886208284" lon="1.7685014361872256"><ele>277.0</ele><time>2026-04-19T12:34:58Z</time></trkpt><trkpt lat="41.36109177569592" lon="1.7683364769697287"><ele>276.0</ele><time>2026-04-19T12:34:59Z</time></trkpt><trkpt lat="41.36105309738027" lon="1.7681645487735187"><ele>275.0</ele><time>2026-04-19T12:35:00Z</time></trkpt><trkpt lat="41.36101287224758" lon="1.7679857448138447"><ele>274.0</ele><time>2026-04-19T12:35:01Z</time></trkpt><trkpt lat="41.36097352080742" lon="1.7678104827615992"><ele>273.0</ele><time>2026-04-19T12:35:02Z</time></trkpt><trkpt lat="41.360935374562416" lon="1.7676397808669677"><ele>273.0</ele><time>2026-04-19T12:35:03Z</time></trkpt><trkpt lat="41.36089650079811" lon="1.7674658234744458"><ele>273.0</ele><time>2026-04-19T12:35:04Z</time></trkpt><trkpt lat="41.36085772802256" lon="1.7672950999313213"><ele>273.0</ele><time>2026-04-19T12:35:05Z</time></trkpt><trkpt lat="41.360815688249225" lon="1.7671136514194694"><ele>273.0</ele><time>2026-04-19T12:35:06Z</time></trkpt><trkpt lat="41.3607739605484" lon="1.7669335496695815"><ele>272.5</ele><time>2026-04-19T12:35:07Z</time></trkpt><trkpt lat="41.36073204905154" lon="1.7667526546712715"><ele>272.0</ele><time>2026-04-19T12:35:08Z</time></trkpt><trkpt lat="41.360690079201355" lon="1.7665717869061306"><ele>271.5</ele><time>2026-04-19T12:35:09Z</time></trkpt><trkpt lat="41.36064757693871" lon="1.7663896689603353"><ele>271.0</ele><time>2026-04-19T12:35:10Z</time></trkpt><trkpt lat="41.360605997642566" lon="1.7662088598962915"><ele>270.5</ele><time>2026-04-19T12:35:11Z</time></trkpt><trkpt lat="41.36056369626313" lon="1.7660262298298612"><ele>270.0</ele><time>2026-04-19T12:35:12Z</time></trkpt><trkpt lat="41.36052207870216" lon="1.7658436153534782"><ele>269.5</ele><time>2026-04-19T12:35:13Z</time></trkpt><trkpt lat="41.36048139474213" lon="1.7656617044539478"><ele>269.0</ele><time>2026-04-19T12:35:14Z</time></trkpt><trkpt lat="41.36043958060495" lon="1.765476752682487"><ele>268.75</ele><time>2026-04-19T12:35:15Z</time></trkpt><trkpt lat="41.360397973410116" lon="1.7652927570723929"><ele>268.5</ele><time>2026-04-19T12:35:16Z</time></trkpt><trkpt lat="41.360354747838386" lon="1.7651016045709607"><ele>268.25</ele><time>2026-04-19T12:35:17Z</time></trkpt><trkpt lat="41.36031229952477" lon="1.7649133779852177"><ele>268.0</ele><time>2026-04-19T12:35:18Z</time></trkpt><trkpt lat="41.36026893054528" lon="1.7647205993509194"><ele>267.66666666666663</ele><time>2026-04-19T12:35:19Z</time></trkpt><trkpt lat="41.360225094301946" lon="1.7645258466931768"><ele>267.3333333333333</ele><time>2026-04-19T12:35:20Z</time></trkpt><trkpt lat="41.36018074994822" lon="1.7643296716398043"><ele>267.0</ele><time>2026-04-19T12:35:21Z</time></trkpt><trkpt lat="41.36013837741741" lon="1.7641422199223358"><ele>266.75</ele><time>2026-04-19T12:35:22Z</time></trkpt><trkpt lat="41.360095964498576" lon="1.7639545893726596"><ele>266.5</ele><time>2026-04-19T12:35:23Z</time></trkpt><trkpt lat="41.360053744000346" lon="1.7637678100503837"><ele>266.25</ele><time>2026-04-19T12:35:24Z</time></trkpt><trkpt lat="41.36001217534088" lon="1.7635839144623953"><ele>266.0</ele><time>2026-04-19T12:35:25Z</time></trkpt><trkpt lat="41.359971477636314" lon="1.7634037882961386"><ele>265.33333333333337</ele><time>2026-04-19T12:35:26Z</time></trkpt><trkpt lat="41.35992831479403" lon="1.7632125051491327"><ele>264.6666666666667</ele><time>2026-04-19T12:35:27Z</time></trkpt><trkpt lat="41.35988421099377" lon="1.7630170519050004"><ele>264.0</ele><time>2026-04-19T12:35:28Z</time></trkpt><trkpt lat="41.35984138747555" lon="1.7628267011681091"><ele>263.0</ele><time>2026-04-19T12:35:29Z</time></trkpt><trkpt lat="41.35979906196716" lon="1.7626385113255314"><ele>262.0</ele><time>2026-04-19T12:35:30Z</time></trkpt><trkpt lat="41.359758105870384" lon="1.7624566197437144"><ele>261.0</ele><time>2026-04-19T12:35:31Z</time></trkpt><trkpt lat="41.359717755845246" lon="1.762277933028845"><ele>260.0</ele><time>2026-04-19T12:35:32Z</time></trkpt><trkpt lat="41.35967764302841" lon="1.7621002966434203"><ele>259.0</ele><time>2026-04-19T12:35:33Z</time></trkpt><trkpt lat="41.35963817440744" lon="1.761926082101302"><ele>258.0</ele><time>2026-04-19T12:35:34Z</time></trkpt><trkpt lat="41.35959965302168" lon="1.7617560689546605"><ele>257.0</ele><time>2026-04-19T12:35:35Z</time></trkpt><trkpt lat="41.35956166955905" lon="1.761588429787807"><ele>256.0</ele><time>2026-04-19T12:35:36Z</time></trkpt><trkpt lat="41.359525919474486" lon="1.761430190007035"><ele>255.8</ele><time>2026-04-19T12:35:37Z</time></trkpt><trkpt lat="41.35949116483132" lon="1.7612750983059047"><ele>255.60000000000002</ele><time>2026-04-19T12:35:38Z</time></trkpt><trkpt lat="41.35945990682045" lon="1.7611356067501027"><ele>255.4</ele><time>2026-04-19T12:35:39Z</time></trkpt><trkpt lat="41.35945526216276" lon="1.761014723978564"><ele>255.2</ele><time>2026-04-19T12:35:40Z</time></trkpt><trkpt lat="41.359462138868366" lon="1.7608784120303187"><ele>255.0</ele><time>2026-04-19T12:35:41Z</time></trkpt><trkpt lat="41.359492376138505" lon="1.7607515898752912"><ele>254.75</ele><time>2026-04-19T12:35:42Z</time></trkpt><trkpt lat="41.35951431954063" lon="1.760619687802512"><ele>254.5</ele><time>2026-04-19T12:35:43Z</time></trkpt><trkpt lat="41.35950776854178" lon="1.7604933191030392"><ele>254.25</ele><time>2026-04-19T12:35:43.999Z</time></trkpt><trkpt lat="41.359436336382586" lon="1.7603644848862192"><ele>254.0</ele><time>2026-04-19T12:35:44.999Z</time></trkpt><trkpt lat="41.35930111059989" lon="1.760284505593243"><ele>253.66666666666669</ele><time>2026-04-19T12:35:45.999Z</time></trkpt><trkpt lat="41.35920659689414" lon="1.7601522838979997"><ele>253.33333333333331</ele><time>2026-04-19T12:35:46.999Z</time></trkpt><trkpt lat="41.35913849260957" lon="1.759971153588028"><ele>253.0</ele><time>2026-04-19T12:35:47.999Z</time></trkpt><trkpt lat="41.35913043170594" lon="1.7597361498456336"><ele>253.0</ele><time>2026-04-19T12:35:48.999Z</time></trkpt><trkpt lat="41.35907896781769" lon="1.7595110814000412"><ele>253.0</ele><time>2026-04-19T12:35:49.999Z</time></trkpt><trkpt lat="41.35902544768716" lon="1.7592772131355634"><ele>253.0</ele><time>2026-04-19T12:35:50.999Z</time></trkpt><trkpt lat="41.35897300939275" lon="1.7590467498709574"><ele>251.33333333333331</ele><time>2026-04-19T12:35:51.999Z</time></trkpt><trkpt lat="41.358919076865064" lon="1.7588098687634923"><ele>249.66666666666669</ele><time>2026-04-19T12:35:52.999Z</time></trkpt><trkpt lat="41.35886595682093" lon="1.7585765562335647"><ele>248.0</ele><time>2026-04-19T12:35:53.999Z</time></trkpt><trkpt lat="41.35879943421115" lon="1.7583385986251436"><ele>247.33333333333334</ele><time>2026-04-19T12:35:54.999Z</time></trkpt><trkpt lat="41.3587465669744" lon="1.7580934879636112"><ele>246.66666666666669</ele><time>2026-04-19T12:35:55.999Z</time></trkpt><trkpt lat="41.358690301483044" lon="1.7578599663011258"><ele>246.0</ele><time>2026-04-19T12:35:56.999Z</time></trkpt><trkpt lat="41.358638088614846" lon="1.7576250812449046"><ele>245.33333333333331</ele><time>2026-04-19T12:35:57.999Z</time></trkpt><trkpt lat="41.35858216225743" lon="1.7573936222881674"><ele>244.66666666666666</ele><time>2026-04-19T12:35:58.999Z</time></trkpt><trkpt lat="41.358528946207656" lon="1.7571654629075752"><ele>244.0</ele><time>2026-04-19T12:35:59.999Z</time></trkpt><trkpt lat="41.358475801715976" lon="1.7569260020134583"><ele>244.33333333333331</ele><time>2026-04-19T12:36:00.999Z</time></trkpt><trkpt lat="41.35842013065999" lon="1.7566860799593966"><ele>244.66666666666669</ele><time>2026-04-19T12:36:01.999Z</time></trkpt><trkpt lat="41.35836125811496" lon="1.7564368163414863"><ele>245.0</ele><time>2026-04-19T12:36:02.999Z</time></trkpt><trkpt lat="41.35831725664857" lon="1.756177930371157"><ele>246.0</ele><time>2026-04-19T12:36:03.999Z</time></trkpt><trkpt lat="41.35824451614526" lon="1.7559333477940435"><ele>247.0</ele><time>2026-04-19T12:36:04.999Z</time></trkpt><trkpt lat="41.35818978576208" lon="1.7556822647191859"><ele>248.0</ele><time>2026-04-19T12:36:05.999Z</time></trkpt><trkpt lat="41.358132111086135" lon="1.7554315178115825"><ele>248.0</ele><time>2026-04-19T12:36:06.999Z</time></trkpt><trkpt lat="41.35807561685335" lon="1.7551815353654876"><ele>248.0</ele><time>2026-04-19T12:36:07.999Z</time></trkpt><trkpt lat="41.35802067272881" lon="1.7549438454154056"><ele>248.0</ele><time>2026-04-19T12:36:08.999Z</time></trkpt><trkpt lat="41.3579626895429" lon="1.7546865152533384"><ele>246.66666666666669</ele><time>2026-04-19T12:36:09.999Z</time></trkpt><trkpt lat="41.357905753305396" lon="1.7544241504959486"><ele>245.33333333333331</ele><time>2026-04-19T12:36:10.999Z</time></trkpt><trkpt lat="41.35784576762699" lon="1.7541598109819376"><ele>244.0</ele><time>2026-04-19T12:36:11.999Z</time></trkpt><trkpt lat="41.35778383394664" lon="1.753900716386411"><ele>243.66666666666666</ele><time>2026-04-19T12:36:12.999Z</time></trkpt><trkpt lat="41.357722914181146" lon="1.7536421275153407"><ele>243.33333333333331</ele><time>2026-04-19T12:36:13.999Z</time></trkpt><trkpt lat="41.357665711685144" lon="1.7533892696619608"><ele>243.0</ele><time>2026-04-19T12:36:14.999Z</time></trkpt><trkpt lat="41.357609249862236" lon="1.7531446060034088"><ele>243.0</ele><time>2026-04-19T12:36:15.999Z</time></trkpt><trkpt lat="41.3575535085979" lon="1.7528959428339042"><ele>243.0</ele><time>2026-04-19T12:36:16.999Z</time></trkpt><trkpt lat="41.35749955002815" lon="1.7526489070021283"><ele>243.0</ele><time>2026-04-19T12:36:17.999Z</time></trkpt><trkpt lat="41.35744361161697" lon="1.7524050368784134"><ele>243.66666666666669</ele><time>2026-04-19T12:36:18.999Z</time></trkpt><trkpt lat="41.357400775081636" lon="1.752154557281638"><ele>244.33333333333334</ele><time>2026-04-19T12:36:19.999Z</time></trkpt><trkpt lat="41.35734279804131" lon="1.7519052173810488"><ele>245.0</ele><time>2026-04-19T12:36:20.999Z</time></trkpt><trkpt lat="41.3572842905338" lon="1.7516535978077554"><ele>245.0</ele><time>2026-04-19T12:36:21.999Z</time></trkpt><trkpt lat="41.35722929221204" lon="1.7514088689103748"><ele>245.0</ele><time>2026-04-19T12:36:22.999Z</time></trkpt><trkpt lat="41.35717524080065" lon="1.7511719965275583"><ele>245.0</ele><time>2026-04-19T12:36:23.999Z</time></trkpt><trkpt lat="41.35712186651167" lon="1.7509375399834934"><ele>244.66666666666669</ele><time>2026-04-19T12:36:24.999Z</time></trkpt><trkpt lat="41.357068349749085" lon="1.7506990469339336"><ele>244.33333333333331</ele><time>2026-04-19T12:36:25.999Z</time></trkpt><trkpt lat="41.357012621927694" lon="1.7504562870396094"><ele>244.0</ele><time>2026-04-19T12:36:26.999Z</time></trkpt><trkpt lat="41.35695777045072" lon="1.7502173447780287"><ele>244.0</ele><time>2026-04-19T12:36:27.999Z</time></trkpt><trkpt lat="41.35690370699857" lon="1.7499818349801632"><ele>244.0</ele><time>2026-04-19T12:36:28.999Z</time></trkpt><trkpt lat="41.35685172070202" lon="1.7497554582172037"><ele>244.0</ele><time>2026-04-19T12:36:29.999Z</time></trkpt><trkpt lat="41.35680006216404" lon="1.7495329041358194"><ele>244.0</ele><time>2026-04-19T12:36:30.999Z</time></trkpt><trkpt lat="41.35674938481177" lon="1.7493108988138002"><ele>244.0</ele><time>2026-04-19T12:36:31.999Z</time></trkpt><trkpt lat="41.3567005921908" lon="1.7490969721834486"><ele>244.0</ele><time>2026-04-19T12:36:32.999Z</time></trkpt><trkpt lat="41.356651524747406" lon="1.7488819330554066"><ele>244.0</ele><time>2026-04-19T12:36:33.999Z</time></trkpt><trkpt lat="41.35660206699054" lon="1.7486640822957198"><ele>244.0</ele><time>2026-04-19T12:36:34.999Z</time></trkpt><trkpt lat="41.35655266762351" lon="1.7484474434605846"><ele>244.0</ele><time>2026-04-19T12:36:35.999Z</time></trkpt><trkpt lat="41.356502981363185" lon="1.7482268655891136"><ele>244.0</ele><time>2026-04-19T12:36:36.999Z</time></trkpt><trkpt lat="41.356454260881016" lon="1.7480092155476592"><ele>244.0</ele><time>2026-04-19T12:36:37.999Z</time></trkpt><trkpt lat="41.35640587140305" lon="1.747793630914946"><ele>244.0</ele><time>2026-04-19T12:36:38.999Z</time></trkpt><trkpt lat="41.35635822167535" lon="1.7475791536337344"><ele>242.33333333333331</ele><time>2026-04-19T12:36:39.999Z</time></trkpt><trkpt lat="41.35630862124241" lon="1.7473606073758405"><ele>240.66666666666669</ele><time>2026-04-19T12:36:40.999Z</time></trkpt><trkpt lat="41.3562578093323" lon="1.7471405117357581"><ele>239.0</ele><time>2026-04-19T12:36:41.999Z</time></trkpt><trkpt lat="41.356207940950895" lon="1.7469245764101216"><ele>239.66666666666669</ele><time>2026-04-19T12:36:42.999Z</time></trkpt><trkpt lat="41.35615842497596" lon="1.7467071943164665"><ele>240.33333333333331</ele><time>2026-04-19T12:36:43.999Z</time></trkpt><trkpt lat="41.356108654182144" lon="1.746490380126136"><ele>241.0</ele><time>2026-04-19T12:36:44.999Z</time></trkpt><trkpt lat="41.35605862285857" lon="1.746273306857984"><ele>241.0</ele><time>2026-04-19T12:36:45.999Z</time></trkpt><trkpt lat="41.356009036989285" lon="1.7460569593761042"><ele>241.0</ele><time>2026-04-19T12:36:46.999Z</time></trkpt><trkpt lat="41.35595891367456" lon="1.745838266986313"><ele>241.0</ele><time>2026-04-19T12:36:48Z</time></trkpt><trkpt lat="41.35590852609779" lon="1.7456184215554498"><ele>241.0</ele><time>2026-04-19T12:36:49Z</time></trkpt><trkpt lat="41.355859630177854" lon="1.7454050843214866"><ele>241.0</ele><time>2026-04-19T12:36:50Z</time></trkpt><trkpt lat="41.35581133265764" lon="1.745194675154498"><ele>241.0</ele><time>2026-04-19T12:36:51Z</time></trkpt><trkpt lat="41.35576290345544" lon="1.744984197764407"><ele>242.0</ele><time>2026-04-19T12:36:52Z</time></trkpt><trkpt lat="41.35571500221891" lon="1.7447719081038044"><ele>243.0</ele><time>2026-04-19T12:36:53Z</time></trkpt><trkpt lat="41.35566868670069" lon="1.7445706151486635"><ele>244.0</ele><time>2026-04-19T12:36:54Z</time></trkpt><trkpt lat="41.35562599361838" lon="1.7443851121982301"><ele>244.25</ele><time>2026-04-19T12:36:55Z</time></trkpt><trkpt lat="41.35558655175207" lon="1.7442129783941256"><ele>244.5</ele><time>2026-04-19T12:36:56Z</time></trkpt><trkpt lat="41.355548975694326" lon="1.7440489921119589"><ele>244.75</ele><time>2026-04-19T12:36:57Z</time></trkpt><trkpt lat="41.35549919047547" lon="1.7439005959969174"><ele>245.0</ele><time>2026-04-19T12:36:58Z</time></trkpt><trkpt lat="41.35549080531646" lon="1.743750339418842"><ele>245.2</ele><time>2026-04-19T12:36:59Z</time></trkpt><trkpt lat="41.355501978332526" lon="1.743629298413709"><ele>245.4</ele><time>2026-04-19T12:37:00Z</time></trkpt><trkpt lat="41.3555107087498" lon="1.7435114917390204"><ele>245.60000000000002</ele><time>2026-04-19T12:37:01Z</time></trkpt><trkpt lat="41.355531127640376" lon="1.743392866351221"><ele>245.8</ele><time>2026-04-19T12:37:02Z</time></trkpt><trkpt lat="41.355541225564345" lon="1.7432719837045216"><ele>246.0</ele><time>2026-04-19T12:37:03Z</time></trkpt><trkpt lat="41.35554064433616" lon="1.7431412108397588"><ele>244.75</ele><time>2026-04-19T12:37:04Z</time></trkpt><trkpt lat="41.35548114637049" lon="1.7430198671939088"><ele>243.5</ele><time>2026-04-19T12:37:05Z</time></trkpt><trkpt lat="41.35538292337349" lon="1.742945993207704"><ele>242.25</ele><time>2026-04-19T12:37:06Z</time></trkpt><trkpt lat="41.3553056050511" lon="1.742843720996042"><ele>241.0</ele><time>2026-04-19T12:37:07Z</time></trkpt><trkpt lat="41.355242984605354" lon="1.7427053269810024"><ele>240.75</ele><time>2026-04-19T12:37:08Z</time></trkpt><trkpt lat="41.35519122146781" lon="1.742549287761374"><ele>240.5</ele><time>2026-04-19T12:37:09Z</time></trkpt><trkpt lat="41.35515270833669" lon="1.7423832528107006"><ele>240.25</ele><time>2026-04-19T12:37:10Z</time></trkpt><trkpt lat="41.35512194969781" lon="1.7422053999927134"><ele>240.0</ele><time>2026-04-19T12:37:11Z</time></trkpt><trkpt lat="41.35508853629571" lon="1.7420278850036919"><ele>240.33333333333331</ele><time>2026-04-19T12:37:12Z</time></trkpt><trkpt lat="41.35504530957609" lon="1.7418371496492584"><ele>240.66666666666666</ele><time>2026-04-19T12:37:13Z</time></trkpt><trkpt lat="41.354999902645936" lon="1.7416367943851196"><ele>241.0</ele><time>2026-04-19T12:37:14Z</time></trkpt><trkpt lat="41.35495474636748" lon="1.7414376859041243"><ele>241.0</ele><time>2026-04-19T12:37:15Z</time></trkpt><trkpt lat="41.354907188467706" lon="1.7412284065502575"><ele>241.0</ele><time>2026-04-19T12:37:16Z</time></trkpt><trkpt lat="41.35486059286915" lon="1.74102336190663"><ele>241.0</ele><time>2026-04-19T12:37:17Z</time></trkpt><trkpt lat="41.354810841391206" lon="1.7408044297887715"><ele>241.0</ele><time>2026-04-19T12:37:18Z</time></trkpt><trkpt lat="41.35476195255379" lon="1.740589293691083"><ele>241.0</ele><time>2026-04-19T12:37:19Z</time></trkpt><trkpt lat="41.354697397704435" lon="1.7403689391319954"><ele>241.0</ele><time>2026-04-19T12:37:20Z</time></trkpt><trkpt lat="41.354644596699266" lon="1.7401381239737237"><ele>241.33333333333331</ele><time>2026-04-19T12:37:21Z</time></trkpt><trkpt lat="41.354605357603646" lon="1.7399004334410342"><ele>241.66666666666669</ele><time>2026-04-19T12:37:22Z</time></trkpt><trkpt lat="41.35455017636789" lon="1.7396587137411166"><ele>242.0</ele><time>2026-04-19T12:37:23Z</time></trkpt><trkpt lat="41.35449690446173" lon="1.7394253791906302"><ele>242.0</ele><time>2026-04-19T12:37:24Z</time></trkpt><trkpt lat="41.35444084205431" lon="1.739180586241197"><ele>242.0</ele><time>2026-04-19T12:37:25Z</time></trkpt><trkpt lat="41.35438267195468" lon="1.7389265901701523"><ele>242.0</ele><time>2026-04-19T12:37:26Z</time></trkpt><trkpt lat="41.35432348949241" lon="1.7386681737217706"><ele>242.0</ele><time>2026-04-19T12:37:27Z</time></trkpt><trkpt lat="41.35426294909177" lon="1.7384033869262758"><ele>242.0</ele><time>2026-04-19T12:37:28Z</time></trkpt><trkpt lat="41.35420208963437" lon="1.7381370794904965"><ele>242.0</ele><time>2026-04-19T12:37:29Z</time></trkpt><trkpt lat="41.35414234014305" lon="1.7378756290740747"><ele>241.33333333333334</ele><time>2026-04-19T12:37:30Z</time></trkpt><trkpt lat="41.35408080591058" lon="1.7376063693027852"><ele>240.66666666666669</ele><time>2026-04-19T12:37:31Z</time></trkpt><trkpt lat="41.354019846777305" lon="1.7373396256600417"><ele>240.0</ele><time>2026-04-19T12:37:32Z</time></trkpt><trkpt lat="41.35396012179425" lon="1.7370782823126325"><ele>239.66666666666669</ele><time>2026-04-19T12:37:33Z</time></trkpt><trkpt lat="41.35390063463534" lon="1.7368179797424925"><ele>239.33333333333334</ele><time>2026-04-19T12:37:34Z</time></trkpt><trkpt lat="41.35384540663947" lon="1.7365707657245795"><ele>239.0</ele><time>2026-04-19T12:37:35Z</time></trkpt><trkpt lat="41.35379208352273" lon="1.7363311340151966"><ele>238.66666666666669</ele><time>2026-04-19T12:37:36Z</time></trkpt><trkpt lat="41.35373455037265" lon="1.736091265548493"><ele>238.33333333333331</ele><time>2026-04-19T12:37:37Z</time></trkpt><trkpt lat="41.35366859835523" lon="1.7358526670649552"><ele>238.0</ele><time>2026-04-19T12:37:38Z</time></trkpt><trkpt lat="41.35358979525431" lon="1.7356201067345483"><ele>237.0</ele><time>2026-04-19T12:37:39Z</time></trkpt><trkpt lat="41.353497298814624" lon="1.7354083623120187"><ele>236.0</ele><time>2026-04-19T12:37:40Z</time></trkpt><trkpt lat="41.35339312209443" lon="1.7352263335125242"><ele>235.0</ele><time>2026-04-19T12:37:41Z</time></trkpt><trkpt lat="41.353294372969934" lon="1.7350691955463449"><ele>234.4</ele><time>2026-04-19T12:37:42Z</time></trkpt><trkpt lat="41.3532057283467" lon="1.7349373451871484"><ele>233.8</ele><time>2026-04-19T12:37:43Z</time></trkpt><trkpt lat="41.353131046073415" lon="1.7348271318276551"><ele>233.2</ele><time>2026-04-19T12:37:44Z</time></trkpt><trkpt lat="41.3530966348609" lon="1.7346976975356496"><ele>232.6</ele><time>2026-04-19T12:37:45Z</time></trkpt><trkpt lat="41.35309409777311" lon="1.734588366180416"><ele>232.0</ele><time>2026-04-19T12:37:46Z</time></trkpt><trkpt lat="41.35311096989045" lon="1.7344955385911691"><ele>232.00000000000003</ele><time>2026-04-19T12:37:47Z</time></trkpt><trkpt lat="41.35314741650965" lon="1.7344125514094508"><ele>232.0</ele><time>2026-04-19T12:37:48Z</time></trkpt><trkpt lat="41.353202472327354" lon="1.7343529504270006"><ele>232.00000000000003</ele><time>2026-04-19T12:37:49Z</time></trkpt><trkpt lat="41.35325336031938" lon="1.734282605065437"><ele>232.00000000000003</ele><time>2026-04-19T12:37:50Z</time></trkpt><trkpt lat="41.35329786048832" lon="1.7342030358452907"><ele>232.0</ele><time>2026-04-19T12:37:51Z</time></trkpt><trkpt lat="41.353331046138905" lon="1.7341085826426397"><ele>232.00000000000003</ele><time>2026-04-19T12:37:52Z</time></trkpt><trkpt lat="41.35334764075375" lon="1.7340040441239462"><ele>232.00000000000003</ele><time>2026-04-19T12:37:53Z</time></trkpt><trkpt lat="41.35334167984136" lon="1.7338969230578445"><ele>231.83333333333331</ele><time>2026-04-19T12:37:54Z</time></trkpt><trkpt lat="41.35331763284668" lon="1.7337980044009322"><ele>231.66666666666666</ele><time>2026-04-19T12:37:55Z</time></trkpt><trkpt lat="41.35327540879087" lon="1.7337076704742356"><ele>231.5</ele><time>2026-04-19T12:37:55.999Z</time></trkpt><trkpt lat="41.35321237204774" lon="1.733632349229406"><ele>231.33333333333331</ele><time>2026-04-19T12:37:56.999Z</time></trkpt><trkpt lat="41.353140316466146" lon="1.7335680877158186"><ele>231.16666666666666</ele><time>2026-04-19T12:37:57.999Z</time></trkpt><trkpt lat="41.35305153895906" lon="1.7335395997663272"><ele>231.0</ele><time>2026-04-19T12:37:58.999Z</time></trkpt><trkpt lat="41.35296641317176" lon="1.7335333791428438"><ele>230.4</ele><time>2026-04-19T12:37:59.999Z</time></trkpt><trkpt lat="41.352889237470016" lon="1.7334919864441143"><ele>229.8</ele><time>2026-04-19T12:38:00.999Z</time></trkpt><trkpt lat="41.35283189839018" lon="1.733405838758866"><ele>229.20000000000002</ele><time>2026-04-19T12:38:01.999Z</time></trkpt><trkpt lat="41.352794694630305" lon="1.7332946222139245"><ele>228.60000000000002</ele><time>2026-04-19T12:38:02.999Z</time></trkpt><trkpt lat="41.35278501951428" lon="1.7331489566545706"><ele>228.0</ele><time>2026-04-19T12:38:03.999Z</time></trkpt><trkpt lat="41.352835326516484" lon="1.7329920590036745"><ele>228.0</ele><time>2026-04-19T12:38:04.999Z</time></trkpt><trkpt lat="41.3528547650711" lon="1.7327737119773223"><ele>228.0</ele><time>2026-04-19T12:38:05.999Z</time></trkpt><trkpt lat="41.352861056956655" lon="1.7325071842380793"><ele>228.0</ele><time>2026-04-19T12:38:06.999Z</time></trkpt><trkpt lat="41.35281696427504" lon="1.7322134518151113"><ele>228.0</ele><time>2026-04-19T12:38:07.999Z</time></trkpt><trkpt lat="41.35276963933173" lon="1.7318984767749284"><ele>228.0</ele><time>2026-04-19T12:38:08.999Z</time></trkpt><trkpt lat="41.35270248081705" lon="1.7315868298926873"><ele>228.0</ele><time>2026-04-19T12:38:09.999Z</time></trkpt><trkpt lat="41.3526255101529" lon="1.7312887083441273"><ele>228.0</ele><time>2026-04-19T12:38:10.999Z</time></trkpt><trkpt lat="41.352554816741836" lon="1.7309899541235012"><ele>227.5</ele><time>2026-04-19T12:38:11.999Z</time></trkpt><trkpt lat="41.35248553227413" lon="1.7306946848055864"><ele>227.0</ele><time>2026-04-19T12:38:12.999Z</time></trkpt><trkpt lat="41.35241790695082" lon="1.7304016657904582"><ele>225.5</ele><time>2026-04-19T12:38:13.999Z</time></trkpt><trkpt lat="41.352351943791774" lon="1.7301054426458014"><ele>224.0</ele><time>2026-04-19T12:38:14.999Z</time></trkpt><trkpt lat="41.3522823026732" lon="1.729820597261809"><ele>224.0</ele><time>2026-04-19T12:38:15.999Z</time></trkpt><trkpt lat="41.352234387961865" lon="1.7295233389431326"><ele>224.0</ele><time>2026-04-19T12:38:16.999Z</time></trkpt><trkpt lat="41.35216942199411" lon="1.7292384990886367"><ele>222.66666666666669</ele><time>2026-04-19T12:38:17.999Z</time></trkpt><trkpt lat="41.35209203156996" lon="1.7289640642566595"><ele>221.33333333333331</ele><time>2026-04-19T12:38:18.999Z</time></trkpt><trkpt lat="41.35202998658313" lon="1.7286777231775112"><ele>220.0</ele><time>2026-04-19T12:38:19.999Z</time></trkpt><trkpt lat="41.35196369437794" lon="1.7283984006593367"><ele>220.0</ele><time>2026-04-19T12:38:20.999Z</time></trkpt><trkpt lat="41.35190316983448" lon="1.7281210946136667"><ele>220.0</ele><time>2026-04-19T12:38:21.999Z</time></trkpt><trkpt lat="41.351836829635474" lon="1.7278456124050423"><ele>220.0</ele><time>2026-04-19T12:38:22.999Z</time></trkpt><trkpt lat="41.35178809023066" lon="1.727563878539378"><ele>220.0</ele><time>2026-04-19T12:38:23.999Z</time></trkpt><trkpt lat="41.351725764913084" lon="1.727289555316772"><ele>220.0</ele><time>2026-04-19T12:38:24.999Z</time></trkpt><trkpt lat="41.351664271926374" lon="1.7270189676355348"><ele>220.0</ele><time>2026-04-19T12:38:25.999Z</time></trkpt><trkpt lat="41.351602204850415" lon="1.726746874020892"><ele>220.0</ele><time>2026-04-19T12:38:26.999Z</time></trkpt><trkpt lat="41.351539430038045" lon="1.7264718790546152"><ele>220.0</ele><time>2026-04-19T12:38:27.999Z</time></trkpt><trkpt lat="41.3514768125503" lon="1.726197573279065"><ele>220.0</ele><time>2026-04-19T12:38:28.999Z</time></trkpt><trkpt lat="41.35141548644873" lon="1.7259289248771272"><ele>219.33333333333331</ele><time>2026-04-19T12:38:29.999Z</time></trkpt><trkpt lat="41.35135555258097" lon="1.7256663747683332"><ele>218.66666666666669</ele><time>2026-04-19T12:38:30.999Z</time></trkpt><trkpt lat="41.35129708812566" lon="1.7254116467444773"><ele>218.0</ele><time>2026-04-19T12:38:31.999Z</time></trkpt><trkpt lat="41.35123920610424" lon="1.7251568259387586"><ele>218.0</ele><time>2026-04-19T12:38:32.999Z</time></trkpt><trkpt lat="41.35118202876454" lon="1.724905139127852"><ele>218.0</ele><time>2026-04-19T12:38:33.999Z</time></trkpt><trkpt lat="41.35111250767669" lon="1.7246552888524131"><ele>218.0</ele><time>2026-04-19T12:38:34.999Z</time></trkpt><trkpt lat="41.351064451439825" lon="1.724400819858278"><ele>218.66666666666669</ele><time>2026-04-19T12:38:35.999Z</time></trkpt><trkpt lat="41.35101361658352" lon="1.724158142949478"><ele>219.33333333333331</ele><time>2026-04-19T12:38:36.999Z</time></trkpt><trkpt lat="41.350962204375726" lon="1.7239190736756331"><ele>220.0</ele><time>2026-04-19T12:38:37.999Z</time></trkpt><trkpt lat="41.35091411327297" lon="1.7237046882523321"><ele>220.5</ele><time>2026-04-19T12:38:38.999Z</time></trkpt><trkpt lat="41.3508664462854" lon="1.7235158644935378"><ele>221.0</ele><time>2026-04-19T12:38:39.999Z</time></trkpt><trkpt lat="41.35082242752522" lon="1.7233394998155966"><ele>221.5</ele><time>2026-04-19T12:38:40.999Z</time></trkpt><trkpt lat="41.35078430834234" lon="1.7231773643279962"><ele>222.0</ele><time>2026-04-19T12:38:41.999Z</time></trkpt><trkpt lat="41.35076253435484" lon="1.723043820069408"><ele>222.0</ele><time>2026-04-19T12:38:42.999Z</time></trkpt><trkpt lat="41.35076442862616" lon="1.722930206752855"><ele>222.0</ele><time>2026-04-19T12:38:43.999Z</time></trkpt><trkpt lat="41.350798555271524" lon="1.7228240861071493"><ele>222.0</ele><time>2026-04-19T12:38:44.999Z</time></trkpt><trkpt lat="41.35087078362072" lon="1.7227195246451847"><ele>222.0</ele><time>2026-04-19T12:38:45.999Z</time></trkpt><trkpt lat="41.35094615078522" lon="1.7226076072657153"><ele>222.0</ele><time>2026-04-19T12:38:46.999Z</time></trkpt><trkpt lat="41.351004606712955" lon="1.7224792274983634"><ele>222.5</ele><time>2026-04-19T12:38:47.999Z</time></trkpt><trkpt lat="41.35103150498118" lon="1.7223399494049223"><ele>223.0</ele><time>2026-04-19T12:38:48.999Z</time></trkpt><trkpt lat="41.35101916778302" lon="1.7221876276426493"><ele>223.5</ele><time>2026-04-19T12:38:49.999Z</time></trkpt><trkpt lat="41.350983513083456" lon="1.7220397088287684"><ele>224.0</ele><time>2026-04-19T12:38:50.999Z</time></trkpt><trkpt lat="41.35092115110951" lon="1.7219073136114893"><ele>224.25</ele><time>2026-04-19T12:38:51.999Z</time></trkpt><trkpt lat="41.350835186822515" lon="1.721794179505824"><ele>224.5</ele><time>2026-04-19T12:38:52.999Z</time></trkpt><trkpt lat="41.35072506808278" lon="1.7217084068405437"><ele>224.75</ele><time>2026-04-19T12:38:54Z</time></trkpt><trkpt lat="41.35060356340497" lon="1.7216537125426346"><ele>225.0</ele><time>2026-04-19T12:38:55Z</time></trkpt><trkpt lat="41.350486594438834" lon="1.7215981825708089"><ele>225.0</ele><time>2026-04-19T12:38:56Z</time></trkpt><trkpt lat="41.35038478027857" lon="1.7214952016643317"><ele>225.0</ele><time>2026-04-19T12:38:57Z</time></trkpt><trkpt lat="41.350310211622606" lon="1.7213353362956134"><ele>225.0</ele><time>2026-04-19T12:38:58Z</time></trkpt><trkpt lat="41.350266136594" lon="1.721146703095275"><ele>225.0</ele><time>2026-04-19T12:38:59Z</time></trkpt><trkpt lat="41.35024829116155" lon="1.7209196328705245"><ele>225.0</ele><time>2026-04-19T12:39:00Z</time></trkpt><trkpt lat="41.35020490374387" lon="1.720721928214471"><ele>225.0</ele><time>2026-04-19T12:39:01Z</time></trkpt><trkpt lat="41.350154323925736" lon="1.720508601101225"><ele>225.0</ele><time>2026-04-19T12:39:02Z</time></trkpt><trkpt lat="41.35012557370154" lon="1.7202905281245218"><ele>225.0</ele><time>2026-04-19T12:39:03Z</time></trkpt><trkpt lat="41.35007422644978" lon="1.7200673768398926"><ele>225.0</ele><time>2026-04-19T12:39:04Z</time></trkpt><trkpt lat="41.35002296239641" lon="1.7198445854065367"><ele>225.0</ele><time>2026-04-19T12:39:05Z</time></trkpt><trkpt lat="41.34996974948311" lon="1.719609957443894"><ele>225.33333333333331</ele><time>2026-04-19T12:39:06Z</time></trkpt><trkpt lat="41.34991681157068" lon="1.7193760403657987"><ele>225.66666666666666</ele><time>2026-04-19T12:39:07Z</time></trkpt><trkpt lat="41.34986331539662" lon="1.7191418004853745"><ele>226.0</ele><time>2026-04-19T12:39:08Z</time></trkpt><trkpt lat="41.349807926877595" lon="1.7189009476199084"><ele>226.0</ele><time>2026-04-19T12:39:09Z</time></trkpt><trkpt lat="41.349754739145354" lon="1.718670742290702"><ele>226.0</ele><time>2026-04-19T12:39:10Z</time></trkpt><trkpt lat="41.349706976789264" lon="1.7184641421653808"><ele>226.0</ele><time>2026-04-19T12:39:11Z</time></trkpt><trkpt lat="41.34965715999717" lon="1.7182522544631051"><ele>226.0</ele><time>2026-04-19T12:39:12Z</time></trkpt><trkpt lat="41.34961019653335" lon="1.718042701837621"><ele>226.0</ele><time>2026-04-19T12:39:13Z</time></trkpt><trkpt lat="41.349562155050286" lon="1.7178151744248127"><ele>226.0</ele><time>2026-04-19T12:39:14Z</time></trkpt><trkpt lat="41.34951659272162" lon="1.7176077192150843"><ele>226.0</ele><time>2026-04-19T12:39:15Z</time></trkpt><trkpt lat="41.34946484229685" lon="1.7174000133401508"><ele>226.0</ele><time>2026-04-19T12:39:16Z</time></trkpt><trkpt lat="41.349375964109115" lon="1.717200461082217"><ele>226.0</ele><time>2026-04-19T12:39:17Z</time></trkpt><trkpt lat="41.349321624804" lon="1.7169968381994356"><ele>225.33333333333331</ele><time>2026-04-19T12:39:18Z</time></trkpt><trkpt lat="41.34926451657984" lon="1.7167919904538302"><ele>224.66666666666669</ele><time>2026-04-19T12:39:19Z</time></trkpt><trkpt lat="41.34919332093649" lon="1.7165951942771716"><ele>224.0</ele><time>2026-04-19T12:39:20Z</time></trkpt><trkpt lat="41.34914731722329" lon="1.7163769014276464"><ele>224.0</ele><time>2026-04-19T12:39:21Z</time></trkpt><trkpt lat="41.34905435707629" lon="1.7161825168422125"><ele>224.0</ele><time>2026-04-19T12:39:22Z</time></trkpt><trkpt lat="41.34895454259853" lon="1.715994113693904"><ele>224.0</ele><time>2026-04-19T12:39:23Z</time></trkpt><trkpt lat="41.348842742491875" lon="1.7158139363554887"><ele>222.66666666666669</ele><time>2026-04-19T12:39:24Z</time></trkpt><trkpt lat="41.34872055078171" lon="1.7156431296003987"><ele>221.33333333333331</ele><time>2026-04-19T12:39:25Z</time></trkpt><trkpt lat="41.348583912268786" lon="1.7154718433356893"><ele>220.0</ele><time>2026-04-19T12:39:26Z</time></trkpt><trkpt lat="41.34843865481161" lon="1.7153214618261312"><ele>219.66666666666666</ele><time>2026-04-19T12:39:27Z</time></trkpt><trkpt lat="41.34828349843592" lon="1.7151813977091928"><ele>219.33333333333331</ele><time>2026-04-19T12:39:28Z</time></trkpt><trkpt lat="41.34812882543661" lon="1.7150519953992729"><ele>219.0</ele><time>2026-04-19T12:39:29Z</time></trkpt><trkpt lat="41.34797236912811" lon="1.7149285230993296"><ele>218.66666666666669</ele><time>2026-04-19T12:39:30Z</time></trkpt><trkpt lat="41.347811515712955" lon="1.7148083761088535"><ele>218.33333333333334</ele><time>2026-04-19T12:39:31Z</time></trkpt><trkpt lat="41.34765108187924" lon="1.7146896171483916"><ele>218.0</ele><time>2026-04-19T12:39:32Z</time></trkpt><trkpt lat="41.3474862171358" lon="1.7145664063609805"><ele>218.0</ele><time>2026-04-19T12:39:33Z</time></trkpt><trkpt lat="41.347326906946115" lon="1.7144466203018747"><ele>218.0</ele><time>2026-04-19T12:39:34Z</time></trkpt><trkpt lat="41.34716213473603" lon="1.7143236261458363"><ele>218.0</ele><time>2026-04-19T12:39:35Z</time></trkpt><trkpt lat="41.346998697995325" lon="1.714201820679688"><ele>217.33333333333334</ele><time>2026-04-19T12:39:36Z</time></trkpt><trkpt lat="41.3468351841556" lon="1.714081388275092"><ele>216.66666666666669</ele><time>2026-04-19T12:39:37Z</time></trkpt><trkpt lat="41.34666617383794" lon="1.7139576690674536"><ele>216.0</ele><time>2026-04-19T12:39:38Z</time></trkpt><trkpt lat="41.3464901602398" lon="1.7138286898634651"><ele>215.66666666666669</ele><time>2026-04-19T12:39:39Z</time></trkpt><trkpt lat="41.346319780665475" lon="1.7137043101264955"><ele>215.33333333333334</ele><time>2026-04-19T12:39:40Z</time></trkpt><trkpt lat="41.34614478585942" lon="1.7135755167294908"><ele>215.0</ele><time>2026-04-19T12:39:41Z</time></trkpt><trkpt lat="41.34597519212587" lon="1.713449617904146"><ele>214.66666666666669</ele><time>2026-04-19T12:39:42Z</time></trkpt><trkpt lat="41.34579927969308" lon="1.7133180568848614"><ele>214.33333333333331</ele><time>2026-04-19T12:39:43Z</time></trkpt><trkpt lat="41.34562201059373" lon="1.7131846333890426"><ele>214.0</ele><time>2026-04-19T12:39:44Z</time></trkpt><trkpt lat="41.34543957154635" lon="1.713046797656234"><ele>213.0</ele><time>2026-04-19T12:39:45Z</time></trkpt><trkpt lat="41.345253619803046" lon="1.7129272006878289"><ele>212.0</ele><time>2026-04-19T12:39:46Z</time></trkpt><trkpt lat="41.34507002761457" lon="1.7127898568392956"><ele>211.0</ele><time>2026-04-19T12:39:47Z</time></trkpt><trkpt lat="41.34488351540762" lon="1.7126459168847548"><ele>210.0</ele><time>2026-04-19T12:39:48Z</time></trkpt><trkpt lat="41.344698558845614" lon="1.7125009097225026"><ele>209.0</ele><time>2026-04-19T12:39:49Z</time></trkpt><trkpt lat="41.34452112577455" lon="1.712334525664924"><ele>208.0</ele><time>2026-04-19T12:39:50Z</time></trkpt><trkpt lat="41.34433347313258" lon="1.7121839487102082"><ele>208.0</ele><time>2026-04-19T12:39:51Z</time></trkpt><trkpt lat="41.34414671563745" lon="1.7120351509743696"><ele>208.0</ele><time>2026-04-19T12:39:52Z</time></trkpt><trkpt lat="41.34395277125927" lon="1.7118799517172587"><ele>208.0</ele><time>2026-04-19T12:39:53Z</time></trkpt><trkpt lat="41.34376272108717" lon="1.7117278342378135"><ele>209.66666666666666</ele><time>2026-04-19T12:39:54Z</time></trkpt><trkpt lat="41.34357133944499" lon="1.7115897116215661"><ele>211.33333333333331</ele><time>2026-04-19T12:39:55Z</time></trkpt><trkpt lat="41.34338065931057" lon="1.7114351888448653"><ele>213.0</ele><time>2026-04-19T12:39:56Z</time></trkpt><trkpt lat="41.34318430115873" lon="1.7112785662284749"><ele>212.0</ele><time>2026-04-19T12:39:57Z</time></trkpt><trkpt lat="41.3429899962683" lon="1.7111268705216374"><ele>211.0</ele><time>2026-04-19T12:39:58Z</time></trkpt><trkpt lat="41.34280200937226" lon="1.7109567361591573"><ele>211.0</ele><time>2026-04-19T12:39:59Z</time></trkpt><trkpt lat="41.34260568619756" lon="1.7108007602006121"><ele>211.0</ele><time>2026-04-19T12:40:00Z</time></trkpt><trkpt lat="41.34239977917162" lon="1.7106629021903932"><ele>209.5</ele><time>2026-04-19T12:40:01Z</time></trkpt><trkpt lat="41.34221024651378" lon="1.7104840193833175"><ele>208.0</ele><time>2026-04-19T12:40:02Z</time></trkpt><trkpt lat="41.34201391356994" lon="1.710326604472393"><ele>208.5</ele><time>2026-04-19T12:40:03Z</time></trkpt><trkpt lat="41.34181532294921" lon="1.710169269158073"><ele>209.0</ele><time>2026-04-19T12:40:04Z</time></trkpt><trkpt lat="41.34161946064363" lon="1.7100112794633022"><ele>209.0</ele><time>2026-04-19T12:40:05Z</time></trkpt><trkpt lat="41.34141593231506" lon="1.709867034132652"><ele>209.0</ele><time>2026-04-19T12:40:06Z</time></trkpt><trkpt lat="41.34122030528" lon="1.7097104999224577"><ele>208.0</ele><time>2026-04-19T12:40:07Z</time></trkpt><trkpt lat="41.34101752260609" lon="1.7095462837117816"><ele>207.0</ele><time>2026-04-19T12:40:08Z</time></trkpt><trkpt lat="41.3408197654863" lon="1.7093806312531634"><ele>207.0</ele><time>2026-04-19T12:40:09Z</time></trkpt><trkpt lat="41.34062715391747" lon="1.70922089204588"><ele>207.0</ele><time>2026-04-19T12:40:10Z</time></trkpt><trkpt lat="41.34043535860627" lon="1.709075087469599"><ele>207.0</ele><time>2026-04-19T12:40:10.999Z</time></trkpt><trkpt lat="41.34024456733288" lon="1.7089295303720713"><ele>206.66666666666669</ele><time>2026-04-19T12:40:11.999Z</time></trkpt><trkpt lat="41.34005217428443" lon="1.7087858267732763"><ele>206.33333333333334</ele><time>2026-04-19T12:40:12.999Z</time></trkpt><trkpt lat="41.33985701839499" lon="1.7086429063928623"><ele>206.0</ele><time>2026-04-19T12:40:13.999Z</time></trkpt><trkpt lat="41.339663152027974" lon="1.708504251507873"><ele>206.0</ele><time>2026-04-19T12:40:14.999Z</time></trkpt><trkpt lat="41.33947198625612" lon="1.7083778076893172"><ele>206.0</ele><time>2026-04-19T12:40:15.999Z</time></trkpt><trkpt lat="41.33927972055996" lon="1.7082515697487544"><ele>206.0</ele><time>2026-04-19T12:40:16.999Z</time></trkpt><trkpt lat="41.33908253990491" lon="1.7081255492234149"><ele>206.0</ele><time>2026-04-19T12:40:17.999Z</time></trkpt><trkpt lat="41.33888731246669" lon="1.7080052678916497"><ele>206.0</ele><time>2026-04-19T12:40:18.999Z</time></trkpt><trkpt lat="41.338686355174396" lon="1.7078942651476805"><ele>206.0</ele><time>2026-04-19T12:40:19.999Z</time></trkpt><trkpt lat="41.338486331704075" lon="1.7077837437863301"><ele>206.0</ele><time>2026-04-19T12:40:20.999Z</time></trkpt><trkpt lat="41.338289122557725" lon="1.707660625866016"><ele>206.0</ele><time>2026-04-19T12:40:21.999Z</time></trkpt><trkpt lat="41.338094605943624" lon="1.7075619169252438"><ele>206.0</ele><time>2026-04-19T12:40:22.999Z</time></trkpt><trkpt lat="41.33789324547018" lon="1.7074616786720027"><ele>205.33333333333334</ele><time>2026-04-19T12:40:23.999Z</time></trkpt><trkpt lat="41.337694016073556" lon="1.7073583073474952"><ele>204.66666666666669</ele><time>2026-04-19T12:40:24.999Z</time></trkpt><trkpt lat="41.337492308302686" lon="1.7072820021471464"><ele>204.0</ele><time>2026-04-19T12:40:25.999Z</time></trkpt><trkpt lat="41.33730029999564" lon="1.7071757800465457"><ele>203.33333333333331</ele><time>2026-04-19T12:40:26.999Z</time></trkpt><trkpt lat="41.33711373488681" lon="1.7070626921623988"><ele>202.66666666666666</ele><time>2026-04-19T12:40:27.999Z</time></trkpt><trkpt lat="41.33692357536654" lon="1.7069475068733726"><ele>202.0</ele><time>2026-04-19T12:40:28.999Z</time></trkpt><trkpt lat="41.33693036059398" lon="1.7065207187601517"><ele>202.0</ele><time>2026-04-19T12:40:29.999Z</time></trkpt><trkpt lat="41.33676589810364" lon="1.7063637877495177"><ele>202.0</ele><time>2026-04-19T12:40:30.999Z</time></trkpt><trkpt lat="41.33659622538342" lon="1.7062054719466286"><ele>202.0</ele><time>2026-04-19T12:40:31.999Z</time></trkpt><trkpt lat="41.336219055744415" lon="1.7063693535060804"><ele>202.0</ele><time>2026-04-19T12:40:32.999Z</time></trkpt><trkpt lat="41.336050788453925" lon="1.706198634881464"><ele>202.0</ele><time>2026-04-19T12:40:33.999Z</time></trkpt><trkpt lat="41.33589115721594" lon="1.7060159852217203"><ele>202.0</ele><time>2026-04-19T12:40:34.999Z</time></trkpt><trkpt lat="41.33573052139831" lon="1.7058305336054043"><ele>201.66666666666666</ele><time>2026-04-19T12:40:35.999Z</time></trkpt><trkpt lat="41.335574021060246" lon="1.7056351523220448"><ele>201.33333333333331</ele><time>2026-04-19T12:40:36.999Z</time></trkpt><trkpt lat="41.335421459935596" lon="1.7054315022481257"><ele>201.0</ele><time>2026-04-19T12:40:37.999Z</time></trkpt><trkpt lat="41.3352751422054" lon="1.7052167746099414"><ele>200.66666666666669</ele><time>2026-04-19T12:40:38.999Z</time></trkpt><trkpt lat="41.33513537489746" lon="1.7049946059388492"><ele>200.33333333333334</ele><time>2026-04-19T12:40:39.999Z</time></trkpt><trkpt lat="41.33500760672792" lon="1.7047632524974836"><ele>200.0</ele><time>2026-04-19T12:40:40.999Z</time></trkpt><trkpt lat="41.33488579580327" lon="1.7045234982613666"><ele>200.33333333333334</ele><time>2026-04-19T12:40:41.999Z</time></trkpt><trkpt lat="41.33476931440134" lon="1.7042746091463004"><ele>200.66666666666669</ele><time>2026-04-19T12:40:42.999Z</time></trkpt><trkpt lat="41.33466199069101" lon="1.7040208406564352"><ele>201.0</ele><time>2026-04-19T12:40:43.999Z</time></trkpt><trkpt lat="41.334560761592826" lon="1.7037576081572499"><ele>202.0</ele><time>2026-04-19T12:40:44.999Z</time></trkpt><trkpt lat="41.33446493405864" lon="1.7034916864783562"><ele>203.0</ele><time>2026-04-19T12:40:45.999Z</time></trkpt><trkpt lat="41.334377166813" lon="1.7032194196005443"><ele>204.0</ele><time>2026-04-19T12:40:46.999Z</time></trkpt><trkpt lat="41.33429497443625" lon="1.7029397098797294"><ele>203.0</ele><time>2026-04-19T12:40:47.999Z</time></trkpt><trkpt lat="41.33422180566276" lon="1.702653297872533"><ele>202.0</ele><time>2026-04-19T12:40:48.999Z</time></trkpt><trkpt lat="41.33416200073014" lon="1.7023626310088358"><ele>202.0</ele><time>2026-04-19T12:40:49.999Z</time></trkpt><trkpt lat="41.33410810622007" lon="1.7020682182863327"><ele>202.0</ele><time>2026-04-19T12:40:50.999Z</time></trkpt><trkpt lat="41.33407131735597" lon="1.7017767470543992"><ele>202.0</ele><time>2026-04-19T12:40:51.999Z</time></trkpt><trkpt lat="41.33403699074032" lon="1.7014801196783127"><ele>202.33333333333331</ele><time>2026-04-19T12:40:52.999Z</time></trkpt><trkpt lat="41.3340143342881" lon="1.70118628698312"><ele>202.66666666666669</ele><time>2026-04-19T12:40:53.999Z</time></trkpt><trkpt lat="41.33400052094539" lon="1.7008980702785776"><ele>203.0</ele><time>2026-04-19T12:40:54.999Z</time></trkpt><trkpt lat="41.33399655398402" lon="1.7006122535914072"><ele>203.0</ele><time>2026-04-19T12:40:55.999Z</time></trkpt><trkpt lat="41.33400056699817" lon="1.7003208038440534"><ele>203.0</ele><time>2026-04-19T12:40:56.999Z</time></trkpt><trkpt lat="41.33401182421601" lon="1.7000418873240546"><ele>203.0</ele><time>2026-04-19T12:40:57.999Z</time></trkpt><trkpt lat="41.33402014861308" lon="1.6997569648897026"><ele>203.0</ele><time>2026-04-19T12:40:58.999Z</time></trkpt><trkpt lat="41.33402877657473" lon="1.6994648535129506"><ele>203.0</ele><time>2026-04-19T12:41:00Z</time></trkpt><trkpt lat="41.334039367714254" lon="1.6991781681675389"><ele>203.0</ele><time>2026-04-19T12:41:01Z</time></trkpt><trkpt lat="41.33405065272346" lon="1.698891202994593"><ele>203.0</ele><time>2026-04-19T12:41:02Z</time></trkpt><trkpt lat="41.33405977100173" lon="1.698601295348857"><ele>203.0</ele><time>2026-04-19T12:41:03Z</time></trkpt><trkpt lat="41.3340707893495" lon="1.6983117655285809"><ele>203.0</ele><time>2026-04-19T12:41:04Z</time></trkpt><trkpt lat="41.3340789429414" lon="1.6980182955593668"><ele>204.0</ele><time>2026-04-19T12:41:05Z</time></trkpt><trkpt lat="41.33408588679103" lon="1.6977319796844625"><ele>205.0</ele><time>2026-04-19T12:41:06Z</time></trkpt><trkpt lat="41.33408895650038" lon="1.6974502246387213"><ele>206.0</ele><time>2026-04-19T12:41:07Z</time></trkpt><trkpt lat="41.33408686611901" lon="1.6971574240012783"><ele>205.66666666666669</ele><time>2026-04-19T12:41:08Z</time></trkpt><trkpt lat="41.334097311035116" lon="1.6968710396775435"><ele>205.33333333333331</ele><time>2026-04-19T12:41:09Z</time></trkpt><trkpt lat="41.33409955197317" lon="1.6965702013455228"><ele>205.0</ele><time>2026-04-19T12:41:10Z</time></trkpt><trkpt lat="41.33410253986984" lon="1.696266823801652"><ele>204.5</ele><time>2026-04-19T12:41:11Z</time></trkpt><trkpt lat="41.334104811691184" lon="1.6959640815674402"><ele>204.0</ele><time>2026-04-19T12:41:12Z</time></trkpt><trkpt lat="41.334103210011506" lon="1.6956608748455624"><ele>204.0</ele><time>2026-04-19T12:41:13Z</time></trkpt><trkpt lat="41.33410421393534" lon="1.6953554898116523"><ele>204.0</ele><time>2026-04-19T12:41:14Z</time></trkpt><trkpt lat="41.33410526063367" lon="1.6950488542011397"><ele>205.0</ele><time>2026-04-19T12:41:15Z</time></trkpt><trkpt lat="41.33410651407262" lon="1.69474700099016"><ele>206.0</ele><time>2026-04-19T12:41:16Z</time></trkpt><trkpt lat="41.33410924041661" lon="1.6944403532464043"><ele>205.5</ele><time>2026-04-19T12:41:17Z</time></trkpt><trkpt lat="41.33410644283752" lon="1.6941410490477584"><ele>205.0</ele><time>2026-04-19T12:41:18Z</time></trkpt><trkpt lat="41.334107542854724" lon="1.693824728861217"><ele>204.0</ele><time>2026-04-19T12:41:19Z</time></trkpt><trkpt lat="41.33411053514809" lon="1.6935338130594484"><ele>203.0</ele><time>2026-04-19T12:41:20Z</time></trkpt><trkpt lat="41.33410444331077" lon="1.6932293800713465"><ele>202.0</ele><time>2026-04-19T12:41:21Z</time></trkpt><trkpt lat="41.33410604569829" lon="1.6929283927146228"><ele>201.0</ele><time>2026-04-19T12:41:22Z</time></trkpt><trkpt lat="41.334106200768865" lon="1.6926228957398262"><ele>200.0</ele><time>2026-04-19T12:41:23Z</time></trkpt><trkpt lat="41.33410751854444" lon="1.692320080356404"><ele>200.0</ele><time>2026-04-19T12:41:24Z</time></trkpt><trkpt lat="41.33410900036825" lon="1.6920213113599978"><ele>200.0</ele><time>2026-04-19T12:41:25Z</time></trkpt><trkpt lat="41.33411396511929" lon="1.6917258887578543"><ele>200.0</ele><time>2026-04-19T12:41:26Z</time></trkpt><trkpt lat="41.33411916239911" lon="1.691431431374695"><ele>199.33333333333334</ele><time>2026-04-19T12:41:27Z</time></trkpt><trkpt lat="41.3341232604239" lon="1.6911417295280835"><ele>198.66666666666669</ele><time>2026-04-19T12:41:28Z</time></trkpt><trkpt lat="41.33413191937703" lon="1.6908522351583581"><ele>198.0</ele><time>2026-04-19T12:41:29Z</time></trkpt><trkpt lat="41.3341352927388" lon="1.6905859826027054"><ele>197.0</ele><time>2026-04-19T12:41:30Z</time></trkpt><trkpt lat="41.33415075240899" lon="1.6902919926538813"><ele>196.0</ele><time>2026-04-19T12:41:31Z</time></trkpt><trkpt lat="41.33415369525452" lon="1.6900146944523387"><ele>195.0</ele><time>2026-04-19T12:41:32Z</time></trkpt><trkpt lat="41.33415330315116" lon="1.6897426958463473"><ele>195.0</ele><time>2026-04-19T12:41:33Z</time></trkpt><trkpt lat="41.33416782118238" lon="1.6894667957339362"><ele>195.0</ele><time>2026-04-19T12:41:34Z</time></trkpt><trkpt lat="41.33418257149612" lon="1.6891893933641224"><ele>195.0</ele><time>2026-04-19T12:41:35Z</time></trkpt><trkpt lat="41.33419585419747" lon="1.6889143281667995"><ele>194.66666666666669</ele><time>2026-04-19T12:41:36Z</time></trkpt><trkpt lat="41.334200534988184" lon="1.68863849597345"><ele>194.33333333333334</ele><time>2026-04-19T12:41:37Z</time></trkpt><trkpt lat="41.33420547803358" lon="1.6883648197453411"><ele>194.0</ele><time>2026-04-19T12:41:38Z</time></trkpt><trkpt lat="41.33420649308271" lon="1.6880892066725406"><ele>193.0</ele><time>2026-04-19T12:41:39Z</time></trkpt><trkpt lat="41.33421737443766" lon="1.6878087611807537"><ele>192.0</ele><time>2026-04-19T12:41:40Z</time></trkpt><trkpt lat="41.33422749125862" lon="1.6875352473982932"><ele>191.0</ele><time>2026-04-19T12:41:41Z</time></trkpt><trkpt lat="41.3342368543697" lon="1.687256819891876"><ele>190.33333333333331</ele><time>2026-04-19T12:41:42Z</time></trkpt><trkpt lat="41.334244322645084" lon="1.6869847169635568"><ele>189.66666666666666</ele><time>2026-04-19T12:41:43Z</time></trkpt><trkpt lat="41.33424867491418" lon="1.6867139602982506"><ele>189.0</ele><time>2026-04-19T12:41:44Z</time></trkpt><trkpt lat="41.33425637415934" lon="1.686441911506501"><ele>189.0</ele><time>2026-04-19T12:41:45Z</time></trkpt><trkpt lat="41.334267434225055" lon="1.6861680169462099"><ele>189.0</ele><time>2026-04-19T12:41:46Z</time></trkpt><trkpt lat="41.334315550157925" lon="1.6859001415539894"><ele>189.0</ele><time>2026-04-19T12:41:47Z</time></trkpt><trkpt lat="41.33432331220633" lon="1.6856252443482527"><ele>189.0</ele><time>2026-04-19T12:41:48Z</time></trkpt><trkpt lat="41.334331241950544" lon="1.6853629659058629"><ele>189.0</ele><time>2026-04-19T12:41:49Z</time></trkpt><trkpt lat="41.334339504600045" lon="1.6850935817266155"><ele>189.0</ele><time>2026-04-19T12:41:50Z</time></trkpt><trkpt lat="41.33434837745606" lon="1.684823861219117"><ele>189.0</ele><time>2026-04-19T12:41:51Z</time></trkpt><trkpt lat="41.33435744360582" lon="1.6845545429881155"><ele>189.0</ele><time>2026-04-19T12:41:52Z</time></trkpt><trkpt lat="41.33436569070057" lon="1.684290508764052"><ele>189.0</ele><time>2026-04-19T12:41:53Z</time></trkpt><trkpt lat="41.334374472597425" lon="1.6840203262213265"><ele>189.0</ele><time>2026-04-19T12:41:54Z</time></trkpt><trkpt lat="41.334383368670004" lon="1.6837466305932371"><ele>189.0</ele><time>2026-04-19T12:41:55Z</time></trkpt><trkpt lat="41.33439218561762" lon="1.683475744600667"><ele>189.0</ele><time>2026-04-19T12:41:56Z</time></trkpt><trkpt lat="41.33440117350134" lon="1.6831998927094713"><ele>187.0</ele><time>2026-04-19T12:41:57Z</time></trkpt><trkpt lat="41.334410047145326" lon="1.6829223496255474"><ele>185.0</ele><time>2026-04-19T12:41:58Z</time></trkpt><trkpt lat="41.334418371015026" lon="1.6826470009840109"><ele>183.0</ele><time>2026-04-19T12:41:59Z</time></trkpt><trkpt lat="41.33442584770921" lon="1.682358248134648"><ele>183.0</ele><time>2026-04-19T12:42:00Z</time></trkpt><trkpt lat="41.33443167471451" lon="1.6820833227953431"><ele>183.0</ele><time>2026-04-19T12:42:01Z</time></trkpt><trkpt lat="41.33443580276939" lon="1.6817978073109738"><ele>183.0</ele><time>2026-04-19T12:42:02Z</time></trkpt><trkpt lat="41.33443927901998" lon="1.681509512403978"><ele>183.0</ele><time>2026-04-19T12:42:03Z</time></trkpt><trkpt lat="41.33444181549311" lon="1.6812206042798592"><ele>183.0</ele><time>2026-04-19T12:42:04Z</time></trkpt><trkpt lat="41.33444436880809" lon="1.6809297777769872"><ele>183.0</ele><time>2026-04-19T12:42:05Z</time></trkpt><trkpt lat="41.33443449208289" lon="1.6806318267762896"><ele>182.0</ele><time>2026-04-19T12:42:06Z</time></trkpt><trkpt lat="41.33443067368906" lon="1.680334620998629"><ele>181.0</ele><time>2026-04-19T12:42:07Z</time></trkpt><trkpt lat="41.334441980861065" lon="1.6800416402374412"><ele>180.0</ele><time>2026-04-19T12:42:08Z</time></trkpt><trkpt lat="41.33443859625977" lon="1.6797427218390215"><ele>179.0</ele><time>2026-04-19T12:42:09Z</time></trkpt><trkpt lat="41.33443370943675" lon="1.6794437866694136"><ele>178.0</ele><time>2026-04-19T12:42:10Z</time></trkpt><trkpt lat="41.33442711767881" lon="1.6791455814746423"><ele>177.0</ele><time>2026-04-19T12:42:11Z</time></trkpt><trkpt lat="41.334403463895306" lon="1.6788393319115271"><ele>176.5</ele><time>2026-04-19T12:42:12Z</time></trkpt><trkpt lat="41.33439652008305" lon="1.6785353236022145"><ele>176.0</ele><time>2026-04-19T12:42:13Z</time></trkpt><trkpt lat="41.33438814303298" lon="1.6782319014302756"><ele>176.0</ele><time>2026-04-19T12:42:14Z</time></trkpt><trkpt lat="41.33439303818589" lon="1.6779278176444299"><ele>176.0</ele><time>2026-04-19T12:42:15Z</time></trkpt><trkpt lat="41.33438141347495" lon="1.677625217833817"><ele>176.0</ele><time>2026-04-19T12:42:16Z</time></trkpt><trkpt lat="41.334368257532525" lon="1.6773269802544672"><ele>176.0</ele><time>2026-04-19T12:42:17Z</time></trkpt><trkpt lat="41.334354227948" lon="1.6770297065010176"><ele>176.0</ele><time>2026-04-19T12:42:18Z</time></trkpt><trkpt lat="41.33433902263794" lon="1.6767338875608444"><ele>176.33333333333331</ele><time>2026-04-19T12:42:19Z</time></trkpt><trkpt lat="41.334322151087996" lon="1.6764376492013253"><ele>176.66666666666666</ele><time>2026-04-19T12:42:20Z</time></trkpt><trkpt lat="41.33430451209203" lon="1.6761429585527519"><ele>177.0</ele><time>2026-04-19T12:42:21Z</time></trkpt><trkpt lat="41.33428499326537" lon="1.6758473156077789"><ele>177.0</ele><time>2026-04-19T12:42:22Z</time></trkpt><trkpt lat="41.33426366897494" lon="1.675554513617464"><ele>177.0</ele><time>2026-04-19T12:42:23Z</time></trkpt><trkpt lat="41.334242189042115" lon="1.6752622201018457"><ele>177.0</ele><time>2026-04-19T12:42:24Z</time></trkpt><trkpt lat="41.33422020124938" lon="1.6749702092333947"><ele>177.0</ele><time>2026-04-19T12:42:25Z</time></trkpt><trkpt lat="41.33419555117301" lon="1.6746685175004061"><ele>177.0</ele><time>2026-04-19T12:42:26Z</time></trkpt><trkpt lat="41.334170888988375" lon="1.674381388672622"><ele>177.0</ele><time>2026-04-19T12:42:27Z</time></trkpt><trkpt lat="41.334144406013785" lon="1.6740898834563833"><ele>176.66666666666666</ele><time>2026-04-19T12:42:28Z</time></trkpt><trkpt lat="41.33411726906483" lon="1.673801414774606"><ele>176.33333333333331</ele><time>2026-04-19T12:42:29Z</time></trkpt><trkpt lat="41.33408841792655" lon="1.6735103167363516"><ele>176.0</ele><time>2026-04-19T12:42:30Z</time></trkpt><trkpt lat="41.334058194423726" lon="1.673219027950179"><ele>176.0</ele><time>2026-04-19T12:42:31Z</time></trkpt><trkpt lat="41.334027151419626" lon="1.672933475413729"><ele>176.0</ele><time>2026-04-19T12:42:32Z</time></trkpt><trkpt lat="41.33399467092455" lon="1.6726510846144107"><ele>176.0</ele><time>2026-04-19T12:42:32.999Z</time></trkpt><trkpt lat="41.33396174895251" lon="1.6723677187209711"><ele>176.0</ele><time>2026-04-19T12:42:33.999Z</time></trkpt><trkpt lat="41.333928544530316" lon="1.6720872144301095"><ele>176.0</ele><time>2026-04-19T12:42:34.999Z</time></trkpt><trkpt lat="41.33389526172726" lon="1.6718086940648895"><ele>176.0</ele><time>2026-04-19T12:42:35.999Z</time></trkpt><trkpt lat="41.33386129322143" lon="1.6715294441803326"><ele>176.0</ele><time>2026-04-19T12:42:36.999Z</time></trkpt><trkpt lat="41.33382507783536" lon="1.6712517532848792"><ele>176.0</ele><time>2026-04-19T12:42:37.999Z</time></trkpt><trkpt lat="41.33378850032076" lon="1.6709840039057822"><ele>176.0</ele><time>2026-04-19T12:42:38.999Z</time></trkpt><trkpt lat="41.33375239668273" lon="1.6707235824884192"><ele>176.66666666666666</ele><time>2026-04-19T12:42:39.999Z</time></trkpt><trkpt lat="41.33371614235999" lon="1.6704623512177554"><ele>177.33333333333334</ele><time>2026-04-19T12:42:40.999Z</time></trkpt><trkpt lat="41.33367995464416" lon="1.670201600133136"><ele>178.0</ele><time>2026-04-19T12:42:41.999Z</time></trkpt><trkpt lat="41.33364391004325" lon="1.6699418797172016"><ele>178.0</ele><time>2026-04-19T12:42:42.999Z</time></trkpt><trkpt lat="41.33360754770971" lon="1.6696798623501032"><ele>178.0</ele><time>2026-04-19T12:42:43.999Z</time></trkpt><trkpt lat="41.33357122886884" lon="1.669418157190226"><ele>178.0</ele><time>2026-04-19T12:42:44.999Z</time></trkpt><trkpt lat="41.333501264244084" lon="1.6691606833198966"><ele>177.66666666666669</ele><time>2026-04-19T12:42:45.999Z</time></trkpt><trkpt lat="41.333458669512936" lon="1.6688952669322408"><ele>177.33333333333334</ele><time>2026-04-19T12:42:46.999Z</time></trkpt><trkpt lat="41.33341691216898" lon="1.6686329712061783"><ele>177.0</ele><time>2026-04-19T12:42:47.999Z</time></trkpt><trkpt lat="41.3333746970925" lon="1.6683743181048216"><ele>177.66666666666666</ele><time>2026-04-19T12:42:48.999Z</time></trkpt><trkpt lat="41.333337523204506" lon="1.6681182012716826"><ele>178.33333333333331</ele><time>2026-04-19T12:42:49.999Z</time></trkpt><trkpt lat="41.333298909314514" lon="1.667862906771685"><ele>179.0</ele><time>2026-04-19T12:42:50.999Z</time></trkpt><trkpt lat="41.33325822705357" lon="1.6676084834434048"><ele>181.0</ele><time>2026-04-19T12:42:51.999Z</time></trkpt><trkpt lat="41.33322146724285" lon="1.6673584620467685"><ele>183.0</ele><time>2026-04-19T12:42:52.999Z</time></trkpt><trkpt lat="41.333182649817005" lon="1.6671043944459902"><ele>185.0</ele><time>2026-04-19T12:42:53.999Z</time></trkpt><trkpt lat="41.33313976869324" lon="1.6668473189886321"><ele>185.0</ele><time>2026-04-19T12:42:54.999Z</time></trkpt><trkpt lat="41.333098326564624" lon="1.6665921877304188"><ele>185.0</ele><time>2026-04-19T12:42:55.999Z</time></trkpt><trkpt lat="41.33305816935941" lon="1.6663297421459844"><ele>185.0</ele><time>2026-04-19T12:42:56.999Z</time></trkpt><trkpt lat="41.33301681983862" lon="1.666059866723254"><ele>185.0</ele><time>2026-04-19T12:42:57.999Z</time></trkpt><trkpt lat="41.33297216737858" lon="1.665780132162205"><ele>185.0</ele><time>2026-04-19T12:42:58.999Z</time></trkpt><trkpt lat="41.33292792092706" lon="1.6654966046642374"><ele>185.0</ele><time>2026-04-19T12:42:59.999Z</time></trkpt><trkpt lat="41.33288675860591" lon="1.665206346250768"><ele>187.0</ele><time>2026-04-19T12:43:00.999Z</time></trkpt><trkpt lat="41.332844841161695" lon="1.6649082044142447"><ele>189.0</ele><time>2026-04-19T12:43:01.999Z</time></trkpt><trkpt lat="41.332803102341494" lon="1.6646052146669135"><ele>190.0</ele><time>2026-04-19T12:43:02.999Z</time></trkpt><trkpt lat="41.332762650321904" lon="1.6643009677259892"><ele>191.0</ele><time>2026-04-19T12:43:03.999Z</time></trkpt><trkpt lat="41.332725568821814" lon="1.663991130635699"><ele>191.0</ele><time>2026-04-19T12:43:04.999Z</time></trkpt><trkpt lat="41.332696914547874" lon="1.6636716724312297"><ele>191.0</ele><time>2026-04-19T12:43:06Z</time></trkpt><trkpt lat="41.33266545692006" lon="1.663360425767808"><ele>189.5</ele><time>2026-04-19T12:43:07Z</time></trkpt><trkpt lat="41.332633749112794" lon="1.6630429839233634"><ele>188.0</ele><time>2026-04-19T12:43:08Z</time></trkpt><trkpt lat="41.33261032400357" lon="1.6627350278629527"><ele>187.0</ele><time>2026-04-19T12:43:09Z</time></trkpt><trkpt lat="41.3325933472413" lon="1.6624210011703355"><ele>186.0</ele><time>2026-04-19T12:43:10Z</time></trkpt><trkpt lat="41.33257922472418" lon="1.6621096246358722"><ele>186.5</ele><time>2026-04-19T12:43:11Z</time></trkpt><trkpt lat="41.332564417357645" lon="1.6617973571249345"><ele>187.0</ele><time>2026-04-19T12:43:12Z</time></trkpt><trkpt lat="41.33254952619458" lon="1.6614879947328298"><ele>187.0</ele><time>2026-04-19T12:43:13Z</time></trkpt><trkpt lat="41.33253574888353" lon="1.6611803003714445"><ele>187.0</ele><time>2026-04-19T12:43:14Z</time></trkpt><trkpt lat="41.33252581743837" lon="1.660873587390138"><ele>184.5</ele><time>2026-04-19T12:43:15Z</time></trkpt><trkpt lat="41.3325175673399" lon="1.660567301282257"><ele>182.0</ele><time>2026-04-19T12:43:16Z</time></trkpt><trkpt lat="41.33250910178908" lon="1.660264720263789"><ele>180.5</ele><time>2026-04-19T12:43:17Z</time></trkpt><trkpt lat="41.33250018547141" lon="1.6599606645151368"><ele>179.0</ele><time>2026-04-19T12:43:18Z</time></trkpt><trkpt lat="41.33248876281217" lon="1.659660454565732"><ele>179.5</ele><time>2026-04-19T12:43:19Z</time></trkpt><trkpt lat="41.33247568913892" lon="1.6593592624463733"><ele>180.0</ele><time>2026-04-19T12:43:20Z</time></trkpt><trkpt lat="41.33245821984617" lon="1.6590567850342703"><ele>180.0</ele><time>2026-04-19T12:43:21Z</time></trkpt><trkpt lat="41.33243605557849" lon="1.6587563197482855"><ele>180.0</ele><time>2026-04-19T12:43:22Z</time></trkpt><trkpt lat="41.33240577326927" lon="1.6584576444712018"><ele>181.0</ele><time>2026-04-19T12:43:23Z</time></trkpt><trkpt lat="41.33236589533485" lon="1.6581600203515394"><ele>182.0</ele><time>2026-04-19T12:43:24Z</time></trkpt><trkpt lat="41.33231843508349" lon="1.6578642931473362"><ele>182.0</ele><time>2026-04-19T12:43:25Z</time></trkpt><trkpt lat="41.332261756711226" lon="1.6575727805629503"><ele>182.0</ele><time>2026-04-19T12:43:26Z</time></trkpt><trkpt lat="41.33219760921638" lon="1.6572824462710212"><ele>183.0</ele><time>2026-04-19T12:43:27Z</time></trkpt><trkpt lat="41.33212588994043" lon="1.6569992728189185"><ele>184.0</ele><time>2026-04-19T12:43:28Z</time></trkpt><trkpt lat="41.332045499577994" lon="1.6567141069005862"><ele>184.0</ele><time>2026-04-19T12:43:29Z</time></trkpt><trkpt lat="41.33196082241085" lon="1.6564339753438895"><ele>184.0</ele><time>2026-04-19T12:43:30Z</time></trkpt><trkpt lat="41.33187112559671" lon="1.6561480521120047"><ele>184.5</ele><time>2026-04-19T12:43:31Z</time></trkpt><trkpt lat="41.331771334646035" lon="1.6558694714111284"><ele>185.0</ele><time>2026-04-19T12:43:32Z</time></trkpt><trkpt lat="41.33166251309076" lon="1.6555909101250008"><ele>185.0</ele><time>2026-04-19T12:43:33Z</time></trkpt><trkpt lat="41.33154395991704" lon="1.6553192970185422"><ele>185.0</ele><time>2026-04-19T12:43:34Z</time></trkpt><trkpt lat="41.331414068285184" lon="1.6550469092732063"><ele>185.0</ele><time>2026-04-19T12:43:35Z</time></trkpt><trkpt lat="41.33127210586661" lon="1.6547597612546474"><ele>185.0</ele><time>2026-04-19T12:43:36Z</time></trkpt><trkpt lat="41.33111753682504" lon="1.6544730676840342"><ele>185.5</ele><time>2026-04-19T12:43:37Z</time></trkpt><trkpt lat="41.33095569723796" lon="1.6541974899070007"><ele>186.0</ele><time>2026-04-19T12:43:38Z</time></trkpt><trkpt lat="41.3307878795249" lon="1.6539261871455022"><ele>186.0</ele><time>2026-04-19T12:43:39Z</time></trkpt><trkpt lat="41.33061252639095" lon="1.6536647294637998"><ele>186.0</ele><time>2026-04-19T12:43:40Z</time></trkpt><trkpt lat="41.33043722706619" lon="1.6534050678972705"><ele>187.0</ele><time>2026-04-19T12:43:41Z</time></trkpt><trkpt lat="41.330262708346304" lon="1.653147033852727"><ele>188.0</ele><time>2026-04-19T12:43:42Z</time></trkpt><trkpt lat="41.3301004250777" lon="1.6528854918218083"><ele>190.0</ele><time>2026-04-19T12:43:43Z</time></trkpt><trkpt lat="41.32994141080797" lon="1.652627848354502"><ele>192.0</ele><time>2026-04-19T12:43:44Z</time></trkpt><trkpt lat="41.32978946989728" lon="1.6523709280385375"><ele>191.0</ele><time>2026-04-19T12:43:45Z</time></trkpt><trkpt lat="41.32964017654483" lon="1.6521037199166597"><ele>190.0</ele><time>2026-04-19T12:43:46Z</time></trkpt><trkpt lat="41.32949610091157" lon="1.6518267670268039"><ele>190.0</ele><time>2026-04-19T12:43:47Z</time></trkpt><trkpt lat="41.32936067439958" lon="1.6515450629554824"><ele>190.0</ele><time>2026-04-19T12:43:48Z</time></trkpt><trkpt lat="41.329228874450614" lon="1.6512578370402176"><ele>188.5</ele><time>2026-04-19T12:43:49Z</time></trkpt><trkpt lat="41.32912973229916" lon="1.6509438128236904"><ele>187.0</ele><time>2026-04-19T12:43:50Z</time></trkpt><trkpt lat="41.32900672973723" lon="1.6506421452739781"><ele>186.5</ele><time>2026-04-19T12:43:51Z</time></trkpt><trkpt lat="41.328889168828404" lon="1.650335353041163"><ele>186.0</ele><time>2026-04-19T12:43:52Z</time></trkpt><trkpt lat="41.32877824535848" lon="1.6500185648568382"><ele>186.0</ele><time>2026-04-19T12:43:53Z</time></trkpt><trkpt lat="41.32867471535137" lon="1.6496987081384926"><ele>186.0</ele><time>2026-04-19T12:43:54Z</time></trkpt><trkpt lat="41.32857912306587" lon="1.649377901591248"><ele>184.5</ele><time>2026-04-19T12:43:55Z</time></trkpt><trkpt lat="41.328489534038916" lon="1.649060741533587"><ele>183.0</ele><time>2026-04-19T12:43:56Z</time></trkpt><trkpt lat="41.32840551163165" lon="1.648740786660949"><ele>182.0</ele><time>2026-04-19T12:43:57Z</time></trkpt><trkpt lat="41.32832178890442" lon="1.6484224350792984"><ele>181.0</ele><time>2026-04-19T12:43:58Z</time></trkpt><trkpt lat="41.32823727487831" lon="1.6481018149162372"><ele>179.5</ele><time>2026-04-19T12:43:59Z</time></trkpt><trkpt lat="41.32815309231931" lon="1.647786582610241"><ele>178.0</ele><time>2026-04-19T12:44:00Z</time></trkpt><trkpt lat="41.32805892753589" lon="1.6474728763188244"><ele>177.5</ele><time>2026-04-19T12:44:01Z</time></trkpt><trkpt lat="41.32795233943587" lon="1.6471711895439072"><ele>177.0</ele><time>2026-04-19T12:44:02Z</time></trkpt><trkpt lat="41.32783474894512" lon="1.6468778828630168"><ele>176.0</ele><time>2026-04-19T12:44:03Z</time></trkpt><trkpt lat="41.32770495274833" lon="1.6465886826694125"><ele>175.0</ele><time>2026-04-19T12:44:04Z</time></trkpt><trkpt lat="41.32756168520891" lon="1.6463065640590318"><ele>175.5</ele><time>2026-04-19T12:44:05Z</time></trkpt><trkpt lat="41.32740323741615" lon="1.6460401351360452"><ele>176.0</ele><time>2026-04-19T12:44:06Z</time></trkpt><trkpt lat="41.3272341155004" lon="1.645781728510849"><ele>176.0</ele><time>2026-04-19T12:44:07Z</time></trkpt><trkpt lat="41.327054530229404" lon="1.6455356077921717"><ele>176.0</ele><time>2026-04-19T12:44:08Z</time></trkpt><trkpt lat="41.32686582650888" lon="1.6453034276454523"><ele>175.0</ele><time>2026-04-19T12:44:09Z</time></trkpt><trkpt lat="41.32666859125015" lon="1.6450852071697568"><ele>174.0</ele><time>2026-04-19T12:44:10Z</time></trkpt><trkpt lat="41.32646231826473" lon="1.6448842455600963"><ele>174.5</ele><time>2026-04-19T12:44:11Z</time></trkpt><trkpt lat="41.3262507606218" lon="1.6447016136094423"><ele>175.0</ele><time>2026-04-19T12:44:12Z</time></trkpt><trkpt lat="41.32603449086097" lon="1.6445360009072927"><ele>176.5</ele><time>2026-04-19T12:44:13Z</time></trkpt><trkpt lat="41.32580953121781" lon="1.6443860901281058"><ele>178.0</ele><time>2026-04-19T12:44:14Z</time></trkpt><trkpt lat="41.32558247509141" lon="1.644258492645421"><ele>179.0</ele><time>2026-04-19T12:44:15Z</time></trkpt><trkpt lat="41.32535466586837" lon="1.6441479547822442"><ele>180.0</ele><time>2026-04-19T12:44:16Z</time></trkpt><trkpt lat="41.3251261178182" lon="1.6440523419857036"><ele>180.0</ele><time>2026-04-19T12:44:17Z</time></trkpt><trkpt lat="41.324894697362915" lon="1.6439737415243925"><ele>180.0</ele><time>2026-04-19T12:44:18Z</time></trkpt><trkpt lat="41.324663368159754" lon="1.6439110466823879"><ele>179.5</ele><time>2026-04-19T12:44:19Z</time></trkpt><trkpt lat="41.324426346971016" lon="1.6438660462501242"><ele>179.0</ele><time>2026-04-19T12:44:20Z</time></trkpt><trkpt lat="41.3241946992616" lon="1.6438382328106935"><ele>179.0</ele><time>2026-04-19T12:44:21Z</time></trkpt><trkpt lat="41.32395987433208" lon="1.643828424522822"><ele>179.0</ele><time>2026-04-19T12:44:22Z</time></trkpt><trkpt lat="41.32372699390876" lon="1.6438378314512065"><ele>178.0</ele><time>2026-04-19T12:44:23Z</time></trkpt><trkpt lat="41.323495933671516" lon="1.6438566976457731"><ele>177.0</ele><time>2026-04-19T12:44:24Z</time></trkpt><trkpt lat="41.32326926418303" lon="1.643880965033328"><ele>177.0</ele><time>2026-04-19T12:44:25Z</time></trkpt><trkpt lat="41.323034463624126" lon="1.6439115368581383"><ele>177.0</ele><time>2026-04-19T12:44:26Z</time></trkpt><trkpt lat="41.32280644925483" lon="1.6439473909896767"><ele>177.0</ele><time>2026-04-19T12:44:27Z</time></trkpt><trkpt lat="41.32257337860607" lon="1.6439853471103476"><ele>177.0</ele><time>2026-04-19T12:44:28Z</time></trkpt><trkpt lat="41.32233971159783" lon="1.6440163833143726"><ele>174.5</ele><time>2026-04-19T12:44:29Z</time></trkpt><trkpt lat="41.32210467962192" lon="1.6440323489946762"><ele>172.0</ele><time>2026-04-19T12:44:30Z</time></trkpt><trkpt lat="41.32186959160067" lon="1.644032032682295"><ele>172.0</ele><time>2026-04-19T12:44:31Z</time></trkpt><trkpt lat="41.321631671177954" lon="1.6440144346153387"><ele>172.0</ele><time>2026-04-19T12:44:32Z</time></trkpt><trkpt lat="41.32139055164026" lon="1.6439828048138478"><ele>170.5</ele><time>2026-04-19T12:44:33Z</time></trkpt><trkpt lat="41.321151254926846" lon="1.6439286121447356"><ele>169.0</ele><time>2026-04-19T12:44:34Z</time></trkpt><trkpt lat="41.32090762632948" lon="1.643857704905199"><ele>169.0</ele><time>2026-04-19T12:44:35Z</time></trkpt><trkpt lat="41.32066715004381" lon="1.6437686323919265"><ele>169.0</ele><time>2026-04-19T12:44:36Z</time></trkpt><trkpt lat="41.3204262019384" lon="1.643659731771463"><ele>167.5</ele><time>2026-04-19T12:44:37Z</time></trkpt><trkpt lat="41.32018742871891" lon="1.6435379487529205"><ele>166.0</ele><time>2026-04-19T12:44:38Z</time></trkpt><trkpt lat="41.31995656323293" lon="1.6433900988249786"><ele>166.0</ele><time>2026-04-19T12:44:39Z</time></trkpt><trkpt lat="41.31973449924269" lon="1.6432274535810847"><ele>166.0</ele><time>2026-04-19T12:44:40Z</time></trkpt><trkpt lat="41.319512309391264" lon="1.6430507431148713"><ele>165.0</ele><time>2026-04-19T12:44:41Z</time></trkpt><trkpt lat="41.31929222989573" lon="1.6428680178190378"><ele>164.0</ele><time>2026-04-19T12:44:42Z</time></trkpt><trkpt lat="41.31906868802003" lon="1.6426795960336837"><ele>162.0</ele><time>2026-04-19T12:44:43Z</time></trkpt><trkpt lat="41.31884630288311" lon="1.6424921594068569"><ele>160.0</ele><time>2026-04-19T12:44:44Z</time></trkpt><trkpt lat="41.3186232700534" lon="1.6423041473699007"><ele>160.0</ele><time>2026-04-19T12:44:45Z</time></trkpt><trkpt lat="41.318403820077584" lon="1.6421222936886584"><ele>160.0</ele><time>2026-04-19T12:44:46Z</time></trkpt><trkpt lat="41.318155470762804" lon="1.6419982396493198"><ele>160.5</ele><time>2026-04-19T12:44:47Z</time></trkpt><trkpt lat="41.31792178465261" lon="1.6418437101453973"><ele>161.0</ele><time>2026-04-19T12:44:48Z</time></trkpt><trkpt lat="41.317692097995554" lon="1.6416966515554727"><ele>161.0</ele><time>2026-04-19T12:44:49Z</time></trkpt><trkpt lat="41.31746261648369" lon="1.6415547695983712"><ele>161.0</ele><time>2026-04-19T12:44:50Z</time></trkpt><trkpt lat="41.317232141982686" lon="1.641419453571217"><ele>160.5</ele><time>2026-04-19T12:44:50.999Z</time></trkpt><trkpt lat="41.31700169046774" lon="1.6413000339301544"><ele>160.0</ele><time>2026-04-19T12:44:51.999Z</time></trkpt><trkpt lat="41.31676711406843" lon="1.6411807369803668"><ele>160.0</ele><time>2026-04-19T12:44:52.999Z</time></trkpt><trkpt lat="41.31653618504983" lon="1.6410839962706738"><ele>160.0</ele><time>2026-04-19T12:44:53.999Z</time></trkpt><trkpt lat="41.31629779875501" lon="1.6409984764264718"><ele>160.0</ele><time>2026-04-19T12:44:54.999Z</time></trkpt><trkpt lat="41.3160579353668" lon="1.6409227024965902"><ele>160.0</ele><time>2026-04-19T12:44:55.999Z</time></trkpt><trkpt lat="41.315812172835635" lon="1.640851120297697"><ele>158.5</ele><time>2026-04-19T12:44:56.999Z</time></trkpt><trkpt lat="41.31556430214199" lon="1.6407814585915443"><ele>157.0</ele><time>2026-04-19T12:44:57.999Z</time></trkpt><trkpt lat="41.31531335376207" lon="1.6407215158548263"><ele>157.0</ele><time>2026-04-19T12:44:58.999Z</time></trkpt><trkpt lat="41.31505830265407" lon="1.6406675923692096"><ele>157.0</ele><time>2026-04-19T12:44:59.999Z</time></trkpt><trkpt lat="41.31480490463678" lon="1.6406241113433013"><ele>156.5</ele><time>2026-04-19T12:45:00.999Z</time></trkpt><trkpt lat="41.31455097210962" lon="1.640580938756725"><ele>156.0</ele><time>2026-04-19T12:45:01.999Z</time></trkpt><trkpt lat="41.3143009738627" lon="1.6405422006365802"><ele>156.0</ele><time>2026-04-19T12:45:02.999Z</time></trkpt><trkpt lat="41.31405455746275" lon="1.6405051379782254"><ele>156.0</ele><time>2026-04-19T12:45:03.999Z</time></trkpt><trkpt lat="41.31381560737999" lon="1.6404635087261297"><ele>157.0</ele><time>2026-04-19T12:45:04.999Z</time></trkpt><trkpt lat="41.31357953390975" lon="1.6404170475662436"><ele>158.0</ele><time>2026-04-19T12:45:05.999Z</time></trkpt><trkpt lat="41.3133415223625" lon="1.6403644460252296"><ele>158.0</ele><time>2026-04-19T12:45:06.999Z</time></trkpt><trkpt lat="41.31310305683285" lon="1.640301144144334"><ele>158.0</ele><time>2026-04-19T12:45:07.999Z</time></trkpt><trkpt lat="41.31286894784292" lon="1.6402267046329486"><ele>158.5</ele><time>2026-04-19T12:45:08.999Z</time></trkpt><trkpt lat="41.31263279690256" lon="1.6401465310327645"><ele>159.0</ele><time>2026-04-19T12:45:09.999Z</time></trkpt><trkpt lat="41.312399419781926" lon="1.6400632748365016"><ele>157.5</ele><time>2026-04-19T12:45:10.999Z</time></trkpt><trkpt lat="41.31216460251849" lon="1.6399702820923079"><ele>156.0</ele><time>2026-04-19T12:45:12Z</time></trkpt><trkpt lat="41.311933645109576" lon="1.6398593826899164"><ele>156.0</ele><time>2026-04-19T12:45:13Z</time></trkpt><trkpt lat="41.31170474263429" lon="1.639743166158373"><ele>156.0</ele><time>2026-04-19T12:45:14Z</time></trkpt><trkpt lat="41.31148107967249" lon="1.6396176684954393"><ele>155.5</ele><time>2026-04-19T12:45:15Z</time></trkpt><trkpt lat="41.3112499709292" lon="1.6394864104540674"><ele>155.0</ele><time>2026-04-19T12:45:16Z</time></trkpt><trkpt lat="41.31103446950797" lon="1.6393471615717485"><ele>155.0</ele><time>2026-04-19T12:45:17Z</time></trkpt><trkpt lat="41.310819901482226" lon="1.6392019264422872"><ele>155.0</ele><time>2026-04-19T12:45:18Z</time></trkpt><trkpt lat="41.31060777680553" lon="1.6390483790317871"><ele>155.5</ele><time>2026-04-19T12:45:19Z</time></trkpt><trkpt lat="41.31040160898214" lon="1.6388883974915829"><ele>156.0</ele><time>2026-04-19T12:45:20Z</time></trkpt><trkpt lat="41.31020155190324" lon="1.6387184320129828"><ele>154.5</ele><time>2026-04-19T12:45:21Z</time></trkpt><trkpt lat="41.30999863383012" lon="1.638554472213389"><ele>153.0</ele><time>2026-04-19T12:45:22Z</time></trkpt><trkpt lat="41.309804975893975" lon="1.6383815949035558"><ele>151.5</ele><time>2026-04-19T12:45:23Z</time></trkpt><trkpt lat="41.309616527978356" lon="1.638201803774957"><ele>150.0</ele><time>2026-04-19T12:45:24Z</time></trkpt><trkpt lat="41.309436924357854" lon="1.638012772695861"><ele>150.0</ele><time>2026-04-19T12:45:25Z</time></trkpt><trkpt lat="41.30925942335065" lon="1.6378179728238718"><ele>150.0</ele><time>2026-04-19T12:45:26Z</time></trkpt><trkpt lat="41.309081358138016" lon="1.6376135796674702"><ele>150.0</ele><time>2026-04-19T12:45:27Z</time></trkpt><trkpt lat="41.30890159322132" lon="1.6374132638236405"><ele>150.0</ele><time>2026-04-19T12:45:28Z</time></trkpt><trkpt lat="41.308723868836466" lon="1.6372014807345048"><ele>150.0</ele><time>2026-04-19T12:45:29Z</time></trkpt><trkpt lat="41.308543088196004" lon="1.6369846485380113"><ele>150.0</ele><time>2026-04-19T12:45:30Z</time></trkpt><trkpt lat="41.308360113102324" lon="1.6367765930441376"><ele>150.0</ele><time>2026-04-19T12:45:31Z</time></trkpt><trkpt lat="41.308175990122834" lon="1.636561952125493"><ele>150.0</ele><time>2026-04-19T12:45:32Z</time></trkpt><trkpt lat="41.307988802551776" lon="1.6363520895908499"><ele>150.0</ele><time>2026-04-19T12:45:33Z</time></trkpt><trkpt lat="41.30780114985865" lon="1.6361558959966473"><ele>150.0</ele><time>2026-04-19T12:45:34Z</time></trkpt><trkpt lat="41.30760281445843" lon="1.6359614878378017"><ele>149.0</ele><time>2026-04-19T12:45:35Z</time></trkpt><trkpt lat="41.307400950283444" lon="1.6357744111766062"><ele>148.0</ele><time>2026-04-19T12:45:36Z</time></trkpt><trkpt lat="41.30719246246394" lon="1.635601381503765"><ele>147.5</ele><time>2026-04-19T12:45:37Z</time></trkpt><trkpt lat="41.30697899443897" lon="1.635437706648657"><ele>147.0</ele><time>2026-04-19T12:45:38Z</time></trkpt><trkpt lat="41.306754913487154" lon="1.635273517407159"><ele>146.5</ele><time>2026-04-19T12:45:39Z</time></trkpt><trkpt lat="41.30651688513396" lon="1.635116956799071"><ele>146.0</ele><time>2026-04-19T12:45:40Z</time></trkpt><trkpt lat="41.30626530452788" lon="1.634971007835874"><ele>147.5</ele><time>2026-04-19T12:45:41Z</time></trkpt><trkpt lat="41.30600772241745" lon="1.6348377557368945"><ele>149.0</ele><time>2026-04-19T12:45:42Z</time></trkpt><trkpt lat="41.305744587345586" lon="1.6347229182180063"><ele>150.5</ele><time>2026-04-19T12:45:43Z</time></trkpt><trkpt lat="41.30547666129176" lon="1.6346171919633985"><ele>152.0</ele><time>2026-04-19T12:45:44Z</time></trkpt><trkpt lat="41.305208182475134" lon="1.6345306183982196"><ele>152.0</ele><time>2026-04-19T12:45:45Z</time></trkpt><trkpt lat="41.30493367496767" lon="1.6344653899526875"><ele>152.0</ele><time>2026-04-19T12:45:46Z</time></trkpt><trkpt lat="41.30465515154941" lon="1.6344218254834217"><ele>154.0</ele><time>2026-04-19T12:45:47Z</time></trkpt><trkpt lat="41.30437930090654" lon="1.6343970245894308"><ele>156.0</ele><time>2026-04-19T12:45:48Z</time></trkpt><trkpt lat="41.304106298720875" lon="1.6343983565517008"><ele>158.0</ele><time>2026-04-19T12:45:49Z</time></trkpt><trkpt lat="41.303842671667866" lon="1.6343998198950143"><ele>160.0</ele><time>2026-04-19T12:45:50Z</time></trkpt><trkpt lat="41.303578862827095" lon="1.6343919317538183"><ele>160.0</ele><time>2026-04-19T12:45:51Z</time></trkpt><trkpt lat="41.30333372528654" lon="1.6341710897692265"><ele>160.0</ele><time>2026-04-19T12:45:52Z</time></trkpt><trkpt lat="41.30307011388394" lon="1.634128378864729"><ele>158.5</ele><time>2026-04-19T12:45:53Z</time></trkpt><trkpt lat="41.30280692478771" lon="1.6340696080744985"><ele>157.0</ele><time>2026-04-19T12:45:54Z</time></trkpt><trkpt lat="41.30254835644076" lon="1.6340036171285777"><ele>157.0</ele><time>2026-04-19T12:45:55Z</time></trkpt><trkpt lat="41.302299977067136" lon="1.6339313032469027"><ele>157.0</ele><time>2026-04-19T12:45:56Z</time></trkpt><trkpt lat="41.30206801651368" lon="1.633858190942463"><ele>157.0</ele><time>2026-04-19T12:45:57Z</time></trkpt><trkpt lat="41.30183782183344" lon="1.6337839557897664"><ele>157.0</ele><time>2026-04-19T12:45:58Z</time></trkpt><trkpt lat="41.30163731729226" lon="1.6337192953734723"><ele>157.0</ele><time>2026-04-19T12:45:59Z</time></trkpt><trkpt lat="41.301397261943976" lon="1.6336418802677062"><ele>158.0</ele><time>2026-04-19T12:46:00Z</time></trkpt><trkpt lat="41.30115679646015" lon="1.633564332897724"><ele>159.0</ele><time>2026-04-19T12:46:01Z</time></trkpt><trkpt lat="41.300917377336425" lon="1.6334871229676367"><ele>159.0</ele><time>2026-04-19T12:46:02Z</time></trkpt><trkpt lat="41.30068381660743" lon="1.6334117598681526"><ele>159.0</ele><time>2026-04-19T12:46:03Z</time></trkpt><trkpt lat="41.30045267726615" lon="1.6333367047249225"><ele>158.5</ele><time>2026-04-19T12:46:04Z</time></trkpt><trkpt lat="41.30022304647538" lon="1.6332627506315245"><ele>158.0</ele><time>2026-04-19T12:46:05Z</time></trkpt><trkpt lat="41.299997625366395" lon="1.6331907391646021"><ele>158.0</ele><time>2026-04-19T12:46:06Z</time></trkpt><trkpt lat="41.299771818348795" lon="1.6331181831782968"><ele>158.0</ele><time>2026-04-19T12:46:07Z</time></trkpt><trkpt lat="41.299552753014765" lon="1.6330472073183584"><ele>156.5</ele><time>2026-04-19T12:46:08Z</time></trkpt><trkpt lat="41.29932907029463" lon="1.6329754388776165"><ele>155.0</ele><time>2026-04-19T12:46:09Z</time></trkpt><trkpt lat="41.29910530725899" lon="1.6329032589659958"><ele>155.5</ele><time>2026-04-19T12:46:10Z</time></trkpt><trkpt lat="41.29888322629024" lon="1.6328321287262053"><ele>156.0</ele><time>2026-04-19T12:46:11Z</time></trkpt><trkpt lat="41.29866526628881" lon="1.632762555314166"><ele>156.0</ele><time>2026-04-19T12:46:12Z</time></trkpt><trkpt lat="41.298448697244005" lon="1.632692905383662"><ele>156.0</ele><time>2026-04-19T12:46:13Z</time></trkpt><trkpt lat="41.29823765382178" lon="1.6326184159423518"><ele>156.0</ele><time>2026-04-19T12:46:14Z</time></trkpt><trkpt lat="41.298029056194174" lon="1.6325373319855099"><ele>155.66666666666666</ele><time>2026-04-19T12:46:15Z</time></trkpt><trkpt lat="41.29782525583887" lon="1.632451511481126"><ele>155.33333333333331</ele><time>2026-04-19T12:46:16Z</time></trkpt><trkpt lat="41.29763033334907" lon="1.6323545486716868"><ele>155.0</ele><time>2026-04-19T12:46:17Z</time></trkpt><trkpt lat="41.297440562165136" lon="1.6322384213684467"><ele>154.0</ele><time>2026-04-19T12:46:18Z</time></trkpt><trkpt lat="41.29725125066265" lon="1.6320991925440116"><ele>153.0</ele><time>2026-04-19T12:46:19Z</time></trkpt><trkpt lat="41.29706806382411" lon="1.6319367204284159"><ele>152.0</ele><time>2026-04-19T12:46:20Z</time></trkpt><trkpt lat="41.296892202892494" lon="1.6317536681307452"><ele>150.5</ele><time>2026-04-19T12:46:21Z</time></trkpt><trkpt lat="41.29672596486535" lon="1.6315543551908087"><ele>149.0</ele><time>2026-04-19T12:46:22Z</time></trkpt><trkpt lat="41.29656956469676" lon="1.631327250512138"><ele>147.0</ele><time>2026-04-19T12:46:23Z</time></trkpt><trkpt lat="41.296422134249745" lon="1.631083308143369"><ele>145.0</ele><time>2026-04-19T12:46:24Z</time></trkpt><trkpt lat="41.296290920242825" lon="1.6308224678373904"><ele>143.5</ele><time>2026-04-19T12:46:25Z</time></trkpt><trkpt lat="41.2961754804524" lon="1.630550326634101"><ele>142.0</ele><time>2026-04-19T12:46:26Z</time></trkpt><trkpt lat="41.296077249671306" lon="1.630280350136736"><ele>142.0</ele><time>2026-04-19T12:46:27Z</time></trkpt><trkpt lat="41.295988050481135" lon="1.6300173927734465"><ele>142.0</ele><time>2026-04-19T12:46:28Z</time></trkpt><trkpt lat="41.295910334810806" lon="1.629766173782592"><ele>142.0</ele><time>2026-04-19T12:46:29Z</time></trkpt><trkpt lat="41.29583464189466" lon="1.6295135261718943"><ele>143.66666666666669</ele><time>2026-04-19T12:46:30Z</time></trkpt><trkpt lat="41.29575962421993" lon="1.6292639617982385"><ele>145.33333333333334</ele><time>2026-04-19T12:46:31Z</time></trkpt><trkpt lat="41.29568884023204" lon="1.629027542886519"><ele>147.0</ele><time>2026-04-19T12:46:32Z</time></trkpt><trkpt lat="41.29562258949908" lon="1.6288018434712395"><ele>147.0</ele><time>2026-04-19T12:46:33Z</time></trkpt><trkpt lat="41.2955511771303" lon="1.6285613856842884"><ele>147.0</ele><time>2026-04-19T12:46:34Z</time></trkpt><trkpt lat="41.29547396381727" lon="1.6283186434962245"><ele>147.0</ele><time>2026-04-19T12:46:35Z</time></trkpt><trkpt lat="41.295391836228525" lon="1.6280790774076097"><ele>147.0</ele><time>2026-04-19T12:46:36Z</time></trkpt><trkpt lat="41.29530639025817" lon="1.627839029546402"><ele>147.0</ele><time>2026-04-19T12:46:37Z</time></trkpt><trkpt lat="41.295212538162275" lon="1.6275995444259357"><ele>147.0</ele><time>2026-04-19T12:46:38Z</time></trkpt><trkpt lat="41.29511022121221" lon="1.6273622773533456"><ele>147.33333333333334</ele><time>2026-04-19T12:46:39Z</time></trkpt><trkpt lat="41.29499918117286" lon="1.627131440930293"><ele>147.66666666666669</ele><time>2026-04-19T12:46:40Z</time></trkpt><trkpt lat="41.294881473658634" lon="1.626907967055461"><ele>148.0</ele><time>2026-04-19T12:46:41Z</time></trkpt><trkpt lat="41.29475753537105" lon="1.6266945287932497"><ele>147.66666666666669</ele><time>2026-04-19T12:46:42Z</time></trkpt><trkpt lat="41.294626745564884" lon="1.6264873362632535"><ele>147.33333333333334</ele><time>2026-04-19T12:46:43Z</time></trkpt><trkpt lat="41.29449273465712" lon="1.6262883455433021"><ele>147.0</ele><time>2026-04-19T12:46:44Z</time></trkpt><trkpt lat="41.29435605344188" lon="1.6260991179990334"><ele>147.0</ele><time>2026-04-19T12:46:45Z</time></trkpt><trkpt lat="41.29421941023917" lon="1.6259155608211457"><ele>147.0</ele><time>2026-04-19T12:46:46Z</time></trkpt><trkpt lat="41.29408041641148" lon="1.6257288466308208"><ele>147.0</ele><time>2026-04-19T12:46:47Z</time></trkpt><trkpt lat="41.29394167212533" lon="1.6255424676558046"><ele>147.0</ele><time>2026-04-19T12:46:48Z</time></trkpt><trkpt lat="41.29373147251974" lon="1.6254547807347082"><ele>147.0</ele><time>2026-04-19T12:46:49Z</time></trkpt><trkpt lat="41.29357521282469" lon="1.6253074228344246"><ele>147.0</ele><time>2026-04-19T12:46:50Z</time></trkpt><trkpt lat="41.293415794893626" lon="1.6251661954031345"><ele>147.0</ele><time>2026-04-19T12:46:51Z</time></trkpt><trkpt lat="41.29325851147202" lon="1.625029876857237"><ele>147.0</ele><time>2026-04-19T12:46:52Z</time></trkpt><trkpt lat="41.29309739620441" lon="1.624890775792007"><ele>147.0</ele><time>2026-04-19T12:46:53Z</time></trkpt><trkpt lat="41.292937149134566" lon="1.6247440608155799"><ele>147.33333333333334</ele><time>2026-04-19T12:46:54Z</time></trkpt><trkpt lat="41.292776312236604" lon="1.6246024472414484"><ele>147.66666666666669</ele><time>2026-04-19T12:46:55Z</time></trkpt><trkpt lat="41.292613477805965" lon="1.6244637921471383"><ele>148.0</ele><time>2026-04-19T12:46:56Z</time></trkpt><trkpt lat="41.29244981953601" lon="1.6243251492973578"><ele>148.66666666666669</ele><time>2026-04-19T12:46:57Z</time></trkpt><trkpt lat="41.292285644260616" lon="1.6241843833533058"><ele>149.33333333333334</ele><time>2026-04-19T12:46:58Z</time></trkpt><trkpt lat="41.292123126374" lon="1.6240417186144271"><ele>150.0</ele><time>2026-04-19T12:46:59Z</time></trkpt><trkpt lat="41.291961781618525" lon="1.623903178173771"><ele>150.33333333333334</ele><time>2026-04-19T12:47:00Z</time></trkpt><trkpt lat="41.2918059252238" lon="1.6237686338981336"><ele>150.66666666666669</ele><time>2026-04-19T12:47:01Z</time></trkpt><trkpt lat="41.29165782133815" lon="1.623642732060052"><ele>151.0</ele><time>2026-04-19T12:47:02Z</time></trkpt><trkpt lat="41.291511887561356" lon="1.6235119057886316"><ele>151.0</ele><time>2026-04-19T12:47:03Z</time></trkpt><trkpt lat="41.29136558797953" lon="1.623376684820606"><ele>151.0</ele><time>2026-04-19T12:47:04Z</time></trkpt><trkpt lat="41.291217474312944" lon="1.62322958428913"><ele>151.0</ele><time>2026-04-19T12:47:05Z</time></trkpt><trkpt lat="41.2910684221947" lon="1.6230789815122941"><ele>151.0</ele><time>2026-04-19T12:47:06Z</time></trkpt><trkpt lat="41.290918970541526" lon="1.6229234102684398"><ele>151.0</ele><time>2026-04-19T12:47:06.999Z</time></trkpt><trkpt lat="41.29076749163086" lon="1.622768443957082"><ele>151.0</ele><time>2026-04-19T12:47:07.999Z</time></trkpt><trkpt lat="41.290613937347516" lon="1.6226161969550215"><ele>149.0</ele><time>2026-04-19T12:47:08.999Z</time></trkpt><trkpt lat="41.29046619567582" lon="1.622454599751254"><ele>147.0</ele><time>2026-04-19T12:47:09.999Z</time></trkpt><trkpt lat="41.290319140517035" lon="1.6222769014712406"><ele>145.0</ele><time>2026-04-19T12:47:10.999Z</time></trkpt><trkpt lat="41.29016780904058" lon="1.6221210033279196"><ele>145.0</ele><time>2026-04-19T12:47:11.999Z</time></trkpt><trkpt lat="41.290001613401365" lon="1.621979241976183"><ele>145.0</ele><time>2026-04-19T12:47:12.999Z</time></trkpt><trkpt lat="41.28984108048804" lon="1.6218203400054785"><ele>145.0</ele><time>2026-04-19T12:47:13.999Z</time></trkpt><trkpt lat="41.28967929238814" lon="1.6216707292152976"><ele>144.0</ele><time>2026-04-19T12:47:14.999Z</time></trkpt><trkpt lat="41.289518465736585" lon="1.6215234985422982"><ele>143.0</ele><time>2026-04-19T12:47:15.999Z</time></trkpt><trkpt lat="41.289352119467985" lon="1.6213656030374888"><ele>142.0</ele><time>2026-04-19T12:47:16.999Z</time></trkpt><trkpt lat="41.28916743518213" lon="1.621194297168028"><ele>142.5</ele><time>2026-04-19T12:47:18Z</time></trkpt><trkpt lat="41.288972591364214" lon="1.621011559839253"><ele>143.0</ele><time>2026-04-19T12:47:19Z</time></trkpt><trkpt lat="41.28876761249338" lon="1.6208172858831018"><ele>143.5</ele><time>2026-04-19T12:47:20Z</time></trkpt><trkpt lat="41.28855671840376" lon="1.6206175920998265"><ele>144.0</ele><time>2026-04-19T12:47:21Z</time></trkpt><trkpt lat="41.28835152712505" lon="1.62041581677745"><ele>143.5</ele><time>2026-04-19T12:47:22Z</time></trkpt><trkpt lat="41.28814949115218" lon="1.6202131399671214"><ele>143.0</ele><time>2026-04-19T12:47:23Z</time></trkpt><trkpt lat="41.28794351109947" lon="1.6200098757900285"><ele>143.0</ele><time>2026-04-19T12:47:24Z</time></trkpt><trkpt lat="41.28773870347837" lon="1.619801828067909"><ele>143.0</ele><time>2026-04-19T12:47:25Z</time></trkpt><trkpt lat="41.28753404891185" lon="1.619594666532009"><ele>142.0</ele><time>2026-04-19T12:47:26Z</time></trkpt><trkpt lat="41.28733024793027" lon="1.6193915923675435"><ele>141.0</ele><time>2026-04-19T12:47:27Z</time></trkpt><trkpt lat="41.287128321775576" lon="1.6191882670515003"><ele>140.5</ele><time>2026-04-19T12:47:28Z</time></trkpt><trkpt lat="41.286929843963165" lon="1.6189804782460906"><ele>140.0</ele><time>2026-04-19T12:47:29Z</time></trkpt><trkpt lat="41.286731558712184" lon="1.6187834058277109"><ele>141.0</ele><time>2026-04-19T12:47:30Z</time></trkpt><trkpt lat="41.286533538827506" lon="1.6185905957879627"><ele>142.0</ele><time>2026-04-19T12:47:31Z</time></trkpt><trkpt lat="41.28633896599679" lon="1.6184012649214563"><ele>142.0</ele><time>2026-04-19T12:47:32Z</time></trkpt><trkpt lat="41.28614649710438" lon="1.6182117071911508"><ele>142.0</ele><time>2026-04-19T12:47:33Z</time></trkpt><trkpt lat="41.285958553321265" lon="1.6180267578791032"><ele>142.0</ele><time>2026-04-19T12:47:34Z</time></trkpt><trkpt lat="41.28576812588232" lon="1.6178493812465853"><ele>142.0</ele><time>2026-04-19T12:47:35Z</time></trkpt><trkpt lat="41.28557541821173" lon="1.617672431102161"><ele>140.0</ele><time>2026-04-19T12:47:36Z</time></trkpt><trkpt lat="41.285374584818385" lon="1.6175059716533777"><ele>138.0</ele><time>2026-04-19T12:47:37Z</time></trkpt><trkpt lat="41.28516461842704" lon="1.6173435152037683"><ele>138.0</ele><time>2026-04-19T12:47:38Z</time></trkpt><trkpt lat="41.28495015453705" lon="1.617177888654751"><ele>138.0</ele><time>2026-04-19T12:47:39Z</time></trkpt><trkpt lat="41.28474269714677" lon="1.6170063217754718"><ele>137.0</ele><time>2026-04-19T12:47:40Z</time></trkpt><trkpt lat="41.28454311466999" lon="1.6168191202587396"><ele>136.0</ele><time>2026-04-19T12:47:41Z</time></trkpt><trkpt lat="41.28435126689634" lon="1.6166185254824341"><ele>136.0</ele><time>2026-04-19T12:47:42Z</time></trkpt><trkpt lat="41.28414379726389" lon="1.616455602207387"><ele>136.0</ele><time>2026-04-19T12:47:43Z</time></trkpt><trkpt lat="41.284100674503506" lon="1.6159487788882345"><ele>135.5</ele><time>2026-04-19T12:47:44Z</time></trkpt><trkpt lat="41.28393117775859" lon="1.6157329646813199"><ele>135.0</ele><time>2026-04-19T12:47:45Z</time></trkpt><trkpt lat="41.28377192713274" lon="1.6155358565995124"><ele>135.33333333333334</ele><time>2026-04-19T12:47:46Z</time></trkpt><trkpt lat="41.283627134218825" lon="1.6153566271490025"><ele>135.66666666666669</ele><time>2026-04-19T12:47:47Z</time></trkpt><trkpt lat="41.28349124779244" lon="1.6151963413330102"><ele>136.0</ele><time>2026-04-19T12:47:48Z</time></trkpt><trkpt lat="41.28336369292206" lon="1.6150426545604062"><ele>136.0</ele><time>2026-04-19T12:47:49Z</time></trkpt><trkpt lat="41.28323960183359" lon="1.6148904294254443"><ele>136.0</ele><time>2026-04-19T12:47:50Z</time></trkpt><trkpt lat="41.283114403599214" lon="1.6147429989718631"><ele>136.0</ele><time>2026-04-19T12:47:51Z</time></trkpt><trkpt lat="41.282981981915846" lon="1.61460482892197"><ele>138.0</ele><time>2026-04-19T12:47:52Z</time></trkpt><trkpt lat="41.282846878132005" lon="1.614481431342705"><ele>140.0</ele><time>2026-04-19T12:47:53Z</time></trkpt><trkpt lat="41.282714328695675" lon="1.6143766496356555"><ele>142.0</ele><time>2026-04-19T12:47:54Z</time></trkpt><trkpt lat="41.28254279573566" lon="1.614276683766805"><ele>142.0</ele><time>2026-04-19T12:47:55Z</time></trkpt><trkpt lat="41.28234856344638" lon="1.614179877720539"><ele>142.0</ele><time>2026-04-19T12:47:56Z</time></trkpt><trkpt lat="41.282125760194766" lon="1.6140879548571139"><ele>142.0</ele><time>2026-04-19T12:47:57Z</time></trkpt><trkpt lat="41.28189766585126" lon="1.6139873934628137"><ele>141.0</ele><time>2026-04-19T12:47:58Z</time></trkpt><trkpt lat="41.28166548038535" lon="1.613916416307794"><ele>140.0</ele><time>2026-04-19T12:47:59Z</time></trkpt><trkpt lat="41.281445366172726" lon="1.6138223402420544"><ele>140.0</ele><time>2026-04-19T12:48:00Z</time></trkpt><trkpt lat="41.2812373184044" lon="1.6136956391464603"><ele>140.0</ele><time>2026-04-19T12:48:01Z</time></trkpt><trkpt lat="41.2810295048942" lon="1.6135852207433752"><ele>140.0</ele><time>2026-04-19T12:48:02Z</time></trkpt><trkpt lat="41.280826717070255" lon="1.6134777604908443"><ele>140.0</ele><time>2026-04-19T12:48:03Z</time></trkpt><trkpt lat="41.280613786660844" lon="1.613395261156956"><ele>140.0</ele><time>2026-04-19T12:48:04Z</time></trkpt><trkpt lat="41.28041847678103" lon="1.6132701673202707"><ele>139.33333333333331</ele><time>2026-04-19T12:48:05Z</time></trkpt><trkpt lat="41.28021168557086" lon="1.6131634748949517"><ele>138.66666666666666</ele><time>2026-04-19T12:48:06Z</time></trkpt><trkpt lat="41.28001493283564" lon="1.61306314457886"><ele>138.0</ele><time>2026-04-19T12:48:07Z</time></trkpt><trkpt lat="41.27980620369245" lon="1.6129876421574296"><ele>137.66666666666666</ele><time>2026-04-19T12:48:08Z</time></trkpt><trkpt lat="41.2796020769387" lon="1.6128814676749843"><ele>137.33333333333331</ele><time>2026-04-19T12:48:09Z</time></trkpt><trkpt lat="41.27940335114211" lon="1.61278246785158"><ele>137.0</ele><time>2026-04-19T12:48:10Z</time></trkpt><trkpt lat="41.27920811510802" lon="1.612687620443626"><ele>137.0</ele><time>2026-04-19T12:48:11Z</time></trkpt><trkpt lat="41.27902069627092" lon="1.612551355256248"><ele>137.0</ele><time>2026-04-19T12:48:12Z</time></trkpt><trkpt lat="41.27882115747907" lon="1.6124486832867475"><ele>137.0</ele><time>2026-04-19T12:48:13Z</time></trkpt><trkpt lat="41.27862208864104" lon="1.6123462531420336"><ele>136.66666666666666</ele><time>2026-04-19T12:48:14Z</time></trkpt><trkpt lat="41.27842230317699" lon="1.6122434541320791"><ele>136.33333333333334</ele><time>2026-04-19T12:48:15Z</time></trkpt><trkpt lat="41.27822607155937" lon="1.6121424856231767"><ele>136.0</ele><time>2026-04-19T12:48:16Z</time></trkpt><trkpt lat="41.27803323177387" lon="1.6120432606178152"><ele>136.0</ele><time>2026-04-19T12:48:17Z</time></trkpt><trkpt lat="41.27784296142481" lon="1.6119453580217484"><ele>136.0</ele><time>2026-04-19T12:48:18Z</time></trkpt><trkpt lat="41.27764703787587" lon="1.6118454830937152"><ele>136.0</ele><time>2026-04-19T12:48:19Z</time></trkpt><trkpt lat="41.27745233864575" lon="1.6117456775684789"><ele>135.66666666666669</ele><time>2026-04-19T12:48:20Z</time></trkpt><trkpt lat="41.27725861015525" lon="1.6116463696664356"><ele>135.33333333333334</ele><time>2026-04-19T12:48:21Z</time></trkpt><trkpt lat="41.27706500888378" lon="1.611547126984495"><ele>135.0</ele><time>2026-04-19T12:48:22Z</time></trkpt><trkpt lat="41.276872133959706" lon="1.6114482566336985"><ele>135.0</ele><time>2026-04-19T12:48:23Z</time></trkpt><trkpt lat="41.27668278864256" lon="1.6113508746015308"><ele>135.0</ele><time>2026-04-19T12:48:24Z</time></trkpt><trkpt lat="41.27649329510213" lon="1.611252930195587"><ele>135.0</ele><time>2026-04-19T12:48:25Z</time></trkpt><trkpt lat="41.27630187215483" lon="1.6111539885377293"><ele>135.0</ele><time>2026-04-19T12:48:26Z</time></trkpt><trkpt lat="41.276110434748915" lon="1.6110550394002052"><ele>135.0</ele><time>2026-04-19T12:48:27Z</time></trkpt><trkpt lat="41.275918274604166" lon="1.6109557167011908"><ele>135.0</ele><time>2026-04-19T12:48:28Z</time></trkpt><trkpt lat="41.27573127103037" lon="1.6108590592808596"><ele>135.33333333333334</ele><time>2026-04-19T12:48:29Z</time></trkpt><trkpt lat="41.275544914301356" lon="1.6107627362222363"><ele>135.66666666666669</ele><time>2026-04-19T12:48:30Z</time></trkpt><trkpt lat="41.275358848463426" lon="1.610666563518933"><ele>136.0</ele><time>2026-04-19T12:48:31Z</time></trkpt><trkpt lat="41.27517081887005" lon="1.6105693757972601"><ele>136.0</ele><time>2026-04-19T12:48:32Z</time></trkpt><trkpt lat="41.274986258651325" lon="1.610473981306834"><ele>136.0</ele><time>2026-04-19T12:48:33Z</time></trkpt><trkpt lat="41.274800983243225" lon="1.6103782171523808"><ele>136.0</ele><time>2026-04-19T12:48:34Z</time></trkpt><trkpt lat="41.27461662450698" lon="1.6102829267999352"><ele>136.66666666666669</ele><time>2026-04-19T12:48:35Z</time></trkpt><trkpt lat="41.27443045098075" lon="1.6101866984368438"><ele>137.33333333333334</ele><time>2026-04-19T12:48:36Z</time></trkpt><trkpt lat="41.27424296550386" lon="1.6100896363539299"><ele>138.0</ele><time>2026-04-19T12:48:37Z</time></trkpt><trkpt lat="41.274050429349806" lon="1.6099896955437611"><ele>136.66666666666666</ele><time>2026-04-19T12:48:38Z</time></trkpt><trkpt lat="41.27385473068997" lon="1.6098881132159149"><ele>135.33333333333331</ele><time>2026-04-19T12:48:39Z</time></trkpt><trkpt lat="41.273659425876545" lon="1.6097867351811754"><ele>134.0</ele><time>2026-04-19T12:48:40Z</time></trkpt><trkpt lat="41.273461839368906" lon="1.6096841727769107"><ele>134.0</ele><time>2026-04-19T12:48:41Z</time></trkpt><trkpt lat="41.27326522287448" lon="1.6095821140856446"><ele>134.0</ele><time>2026-04-19T12:48:42Z</time></trkpt><trkpt lat="41.27307568904892" lon="1.6094837332464107"><ele>134.0</ele><time>2026-04-19T12:48:43Z</time></trkpt><trkpt lat="41.272889249415236" lon="1.6093869569541563"><ele>133.33333333333331</ele><time>2026-04-19T12:48:44Z</time></trkpt><trkpt lat="41.2727027932933" lon="1.6092909036290546"><ele>132.66666666666666</ele><time>2026-04-19T12:48:45Z</time></trkpt><trkpt lat="41.27252191402964" lon="1.6091978336178743"><ele>132.0</ele><time>2026-04-19T12:48:46Z</time></trkpt><trkpt lat="41.272343579298756" lon="1.6091060728673354"><ele>132.33333333333334</ele><time>2026-04-19T12:48:47Z</time></trkpt><trkpt lat="41.272165292318356" lon="1.6090143366774876"><ele>132.66666666666669</ele><time>2026-04-19T12:48:48Z</time></trkpt><trkpt lat="41.27198726098595" lon="1.6089227320464705"><ele>133.0</ele><time>2026-04-19T12:48:49Z</time></trkpt><trkpt lat="41.27181290151417" lon="1.6088330167536238"><ele>133.0</ele><time>2026-04-19T12:48:50Z</time></trkpt><trkpt lat="41.271637277070575" lon="1.6087426505787545"><ele>133.0</ele><time>2026-04-19T12:48:50.999Z</time></trkpt><trkpt lat="41.2714597065997" lon="1.6086512457837627"><ele>133.0</ele><time>2026-04-19T12:48:51.999Z</time></trkpt><trkpt lat="41.2712805320901" lon="1.6085591189808959"><ele>134.66666666666669</ele><time>2026-04-19T12:48:52.999Z</time></trkpt><trkpt lat="41.27110094530228" lon="1.6084668939469082"><ele>136.33333333333334</ele><time>2026-04-19T12:48:53.999Z</time></trkpt><trkpt lat="41.270923329077036" lon="1.6083756808502756"><ele>138.0</ele><time>2026-04-19T12:48:54.999Z</time></trkpt><trkpt lat="41.270750793542746" lon="1.608287076889389"><ele>139.0</ele><time>2026-04-19T12:48:55.999Z</time></trkpt><trkpt lat="41.2705853474164" lon="1.608202113631173"><ele>140.0</ele><time>2026-04-19T12:48:56.999Z</time></trkpt><trkpt lat="41.2704201502331" lon="1.6081172781974515"><ele>141.0</ele><time>2026-04-19T12:48:57.999Z</time></trkpt><trkpt lat="41.270256554510375" lon="1.6080338706785455"><ele>141.0</ele><time>2026-04-19T12:48:58.999Z</time></trkpt><trkpt lat="41.2700943725898" lon="1.6079513591455463"><ele>141.0</ele><time>2026-04-19T12:48:59.999Z</time></trkpt><trkpt lat="41.26993815128345" lon="1.6078718801335938"><ele>141.0</ele><time>2026-04-19T12:49:00.999Z</time></trkpt><trkpt lat="41.26979080319097" lon="1.6077969154166598"><ele>142.75</ele><time>2026-04-19T12:49:01.999Z</time></trkpt><trkpt lat="41.269665508792194" lon="1.607733170751822"><ele>144.5</ele><time>2026-04-19T12:49:02.999Z</time></trkpt><trkpt lat="41.269539432859396" lon="1.607669028547148"><ele>146.25</ele><time>2026-04-19T12:49:03.999Z</time></trkpt><trkpt lat="41.26941312707937" lon="1.6076047700178755"><ele>148.0</ele><time>2026-04-19T12:49:04.999Z</time></trkpt><trkpt lat="41.269289173979075" lon="1.6075642303524103"><ele>148.0</ele><time>2026-04-19T12:49:05.999Z</time></trkpt><trkpt lat="41.26918513798673" lon="1.6074860868287562"><ele>148.0</ele><time>2026-04-19T12:49:06.999Z</time></trkpt><trkpt lat="41.26910427463307" lon="1.607393963310811"><ele>148.0</ele><time>2026-04-19T12:49:07.999Z</time></trkpt><trkpt lat="41.26904242300989" lon="1.6072999631135234"><ele>148.0</ele><time>2026-04-19T12:49:08.999Z</time></trkpt><trkpt lat="41.268977857166206" lon="1.607197968536149"><ele>148.0</ele><time>2026-04-19T12:49:09.999Z</time></trkpt><trkpt lat="41.268899987448464" lon="1.6071288619090216"><ele>148.0</ele><time>2026-04-19T12:49:10.999Z</time></trkpt><trkpt lat="41.268806652292525" lon="1.607092283366438"><ele>148.0</ele><time>2026-04-19T12:49:11.999Z</time></trkpt><trkpt lat="41.268699270353295" lon="1.6071027276173246"><ele>148.0</ele><time>2026-04-19T12:49:12.999Z</time></trkpt><trkpt lat="41.26858388857523" lon="1.6071274183090802"><ele>148.0</ele><time>2026-04-19T12:49:13.999Z</time></trkpt><trkpt lat="41.26846597821071" lon="1.6071265645169632"><ele>148.0</ele><time>2026-04-19T12:49:14.999Z</time></trkpt><trkpt lat="41.26834792133445" lon="1.6070806950255194"><ele>148.0</ele><time>2026-04-19T12:49:15.999Z</time></trkpt><trkpt lat="41.26823201342246" lon="1.6070259608812967"><ele>148.0</ele><time>2026-04-19T12:49:16.999Z</time></trkpt><trkpt lat="41.2681200180113" lon="1.6069689172434596"><ele>148.0</ele><time>2026-04-19T12:49:17.999Z</time></trkpt><trkpt lat="41.26801820448155" lon="1.606912159053135"><ele>148.0</ele><time>2026-04-19T12:49:18.999Z</time></trkpt><trkpt lat="41.26791600107351" lon="1.6068641726661956"><ele>148.75</ele><time>2026-04-19T12:49:19.999Z</time></trkpt><trkpt lat="41.26780784586128" lon="1.6068112915390271"><ele>149.5</ele><time>2026-04-19T12:49:20.999Z</time></trkpt><trkpt lat="41.26770025134855" lon="1.6067545601757742"><ele>150.25</ele><time>2026-04-19T12:49:21.999Z</time></trkpt><trkpt lat="41.26759471450503" lon="1.606698917943202"><ele>151.0</ele><time>2026-04-19T12:49:22.999Z</time></trkpt><trkpt lat="41.2674939514822" lon="1.606643160182049"><ele>151.0</ele><time>2026-04-19T12:49:24Z</time></trkpt><trkpt lat="41.26740232441242" lon="1.6066038828410258"><ele>151.0</ele><time>2026-04-19T12:49:25Z</time></trkpt><trkpt lat="41.26731176456522" lon="1.606562911919296"><ele>151.0</ele><time>2026-04-19T12:49:26Z</time></trkpt><trkpt lat="41.26721894568964" lon="1.6065137791568331"><ele>151.0</ele><time>2026-04-19T12:49:27Z</time></trkpt><trkpt lat="41.267124646608046" lon="1.6064647971574395"><ele>151.0</ele><time>2026-04-19T12:49:28Z</time></trkpt><trkpt lat="41.26703924775619" lon="1.6064141254598676"><ele>150.8</ele><time>2026-04-19T12:49:29Z</time></trkpt><trkpt lat="41.26695112364383" lon="1.6063667937293358"><ele>150.6</ele><time>2026-04-19T12:49:30Z</time></trkpt><trkpt lat="41.26686131690406" lon="1.6063233304572166"><ele>150.4</ele><time>2026-04-19T12:49:31Z</time></trkpt><trkpt lat="41.26677790027199" lon="1.6062796795004193"><ele>150.2</ele><time>2026-04-19T12:49:32Z</time></trkpt><trkpt lat="41.266692554884635" lon="1.6062321240701158"><ele>150.0</ele><time>2026-04-19T12:49:33Z</time></trkpt><trkpt lat="41.266602741607784" lon="1.606178145639945"><ele>151.2</ele><time>2026-04-19T12:49:34Z</time></trkpt><trkpt lat="41.26651108329925" lon="1.6061221272884214"><ele>152.4</ele><time>2026-04-19T12:49:35Z</time></trkpt><trkpt lat="41.26642525294331" lon="1.60605239754548"><ele>153.6</ele><time>2026-04-19T12:49:36Z</time></trkpt><trkpt lat="41.26634216387309" lon="1.6059745596316088"><ele>154.8</ele><time>2026-04-19T12:49:37Z</time></trkpt><trkpt lat="41.26626676305117" lon="1.6058652579878483"><ele>156.0</ele><time>2026-04-19T12:49:38Z</time></trkpt><trkpt lat="41.26619402852132" lon="1.6057570858105785"><ele>156.0</ele><time>2026-04-19T12:49:39Z</time></trkpt><trkpt lat="41.26612837699662" lon="1.6056243152453067"><ele>156.0</ele><time>2026-04-19T12:49:40Z</time></trkpt><trkpt lat="41.26605761864073" lon="1.6054865695392975"><ele>156.0</ele><time>2026-04-19T12:49:41Z</time></trkpt><trkpt lat="41.266002771568964" lon="1.6053380496353697"><ele>156.0</ele><time>2026-04-19T12:49:42Z</time></trkpt><trkpt lat="41.265939043106584" lon="1.6051979255191957"><ele>157.25</ele><time>2026-04-19T12:49:43Z</time></trkpt><trkpt lat="41.26587614043776" lon="1.6050606300011305"><ele>158.5</ele><time>2026-04-19T12:49:44Z</time></trkpt><trkpt lat="41.26581082821991" lon="1.6049277246758389"><ele>159.75</ele><time>2026-04-19T12:49:45Z</time></trkpt><trkpt lat="41.26575744131588" lon="1.60479263499486"><ele>161.0</ele><time>2026-04-19T12:49:46Z</time></trkpt><trkpt lat="41.26569894375545" lon="1.6046615047539219"><ele>161.0</ele><time>2026-04-19T12:49:47Z</time></trkpt><trkpt lat="41.26564779557396" lon="1.6045358567982912"><ele>161.0</ele><time>2026-04-19T12:49:48Z</time></trkpt><trkpt lat="41.26559557178838" lon="1.6044221195623212"><ele>161.0</ele><time>2026-04-19T12:49:49Z</time></trkpt><trkpt lat="41.265544138739635" lon="1.6043081733595521"><ele>161.0</ele><time>2026-04-19T12:49:50Z</time></trkpt><trkpt lat="41.26549231498361" lon="1.604202585926075"><ele>161.0</ele><time>2026-04-19T12:49:51Z</time></trkpt><trkpt lat="41.2654432409702" lon="1.604098755698687"><ele>160.4</ele><time>2026-04-19T12:49:52Z</time></trkpt><trkpt lat="41.265398101858395" lon="1.6039851693079246"><ele>159.8</ele><time>2026-04-19T12:49:53Z</time></trkpt><trkpt lat="41.26535468672802" lon="1.6038583704327456"><ele>159.20000000000002</ele><time>2026-04-19T12:49:54Z</time></trkpt><trkpt lat="41.26529840536756" lon="1.6037322482685974"><ele>158.60000000000002</ele><time>2026-04-19T12:49:55Z</time></trkpt><trkpt lat="41.2652355572882" lon="1.6036000352827289"><ele>158.0</ele><time>2026-04-19T12:49:56Z</time></trkpt><trkpt lat="41.26517800921676" lon="1.603478963932789"><ele>158.0</ele><time>2026-04-19T12:49:57Z</time></trkpt><trkpt lat="41.265124829103705" lon="1.6033632767266988"><ele>158.0</ele><time>2026-04-19T12:49:58Z</time></trkpt><trkpt lat="41.26508060150713" lon="1.6032253937107408"><ele>158.0</ele><time>2026-04-19T12:49:59Z</time></trkpt><trkpt lat="41.265023198272715" lon="1.6030972614961454"><ele>158.0</ele><time>2026-04-19T12:50:00Z</time></trkpt><trkpt lat="41.264960983269916" lon="1.6029564983900744"><ele>158.0</ele><time>2026-04-19T12:50:01Z</time></trkpt><trkpt lat="41.26489925184228" lon="1.6028167654953733"><ele>157.5</ele><time>2026-04-19T12:50:02Z</time></trkpt><trkpt lat="41.26483631235137" lon="1.602674657754989"><ele>157.0</ele><time>2026-04-19T12:50:03Z</time></trkpt><trkpt lat="41.26477323088649" lon="1.6025420715472545"><ele>156.5</ele><time>2026-04-19T12:50:04Z</time></trkpt><trkpt lat="41.264716099124385" lon="1.6024044440450942"><ele>156.0</ele><time>2026-04-19T12:50:05Z</time></trkpt><trkpt lat="41.26465957734066" lon="1.6022768387604958"><ele>155.4</ele><time>2026-04-19T12:50:06Z</time></trkpt><trkpt lat="41.26460779379461" lon="1.6021599306447525"><ele>154.8</ele><time>2026-04-19T12:50:07Z</time></trkpt><trkpt lat="41.26455525328469" lon="1.6020413807655296"><ele>154.20000000000002</ele><time>2026-04-19T12:50:08Z</time></trkpt><trkpt lat="41.264497375329476" lon="1.6019143840992622"><ele>153.6</ele><time>2026-04-19T12:50:09Z</time></trkpt><trkpt lat="41.26443827307609" lon="1.6017847010486246"><ele>153.0</ele><time>2026-04-19T12:50:10Z</time></trkpt><trkpt lat="41.26437421173741" lon="1.601654109062091"><ele>153.0</ele><time>2026-04-19T12:50:11Z</time></trkpt><trkpt lat="41.26429792198833" lon="1.6015411159078035"><ele>153.0</ele><time>2026-04-19T12:50:12Z</time></trkpt><trkpt lat="41.26423298852178" lon="1.6014133823064045"><ele>153.0</ele><time>2026-04-19T12:50:13Z</time></trkpt><trkpt lat="41.26415798126647" lon="1.6013001059789012"><ele>153.0</ele><time>2026-04-19T12:50:14Z</time></trkpt><trkpt lat="41.26407765735973" lon="1.601192723401048"><ele>152.25</ele><time>2026-04-19T12:50:15Z</time></trkpt><trkpt lat="41.26396882158196" lon="1.6011044536222094"><ele>151.5</ele><time>2026-04-19T12:50:16Z</time></trkpt><trkpt lat="41.26385616480082" lon="1.6010103154680468"><ele>150.75</ele><time>2026-04-19T12:50:17Z</time></trkpt><trkpt lat="41.26373086225131" lon="1.6009288455256647"><ele>150.0</ele><time>2026-04-19T12:50:18Z</time></trkpt><trkpt lat="41.263614379423885" lon="1.6008538113206148"><ele>149.5</ele><time>2026-04-19T12:50:19Z</time></trkpt><trkpt lat="41.263500931740396" lon="1.6007818723067369"><ele>149.0</ele><time>2026-04-19T12:50:20Z</time></trkpt><trkpt lat="41.26339058600871" lon="1.6007119002917791"><ele>148.5</ele><time>2026-04-19T12:50:21Z</time></trkpt><trkpt lat="41.26327292650174" lon="1.6006596596593308"><ele>148.0</ele><time>2026-04-19T12:50:22Z</time></trkpt><trkpt lat="41.26317715854573" lon="1.600583172288065"><ele>147.8</ele><time>2026-04-19T12:50:23Z</time></trkpt><trkpt lat="41.26308401390216" lon="1.6005192113943147"><ele>147.60000000000002</ele><time>2026-04-19T12:50:24Z</time></trkpt><trkpt lat="41.26299651533085" lon="1.6004537917002712"><ele>147.39999999999998</ele><time>2026-04-19T12:50:25Z</time></trkpt><trkpt lat="41.26291723926808" lon="1.6003871740298488"><ele>147.2</ele><time>2026-04-19T12:50:26Z</time></trkpt><trkpt lat="41.26284742956491" lon="1.6002968723428956"><ele>147.0</ele><time>2026-04-19T12:50:27Z</time></trkpt><trkpt lat="41.26278599019948" lon="1.6001885970609446"><ele>146.0</ele><time>2026-04-19T12:50:28Z</time></trkpt><trkpt lat="41.26272507661634" lon="1.600090205962054"><ele>145.0</ele><time>2026-04-19T12:50:29Z</time></trkpt><trkpt lat="41.26264109461953" lon="1.6000206953563123"><ele>144.0</ele><time>2026-04-19T12:50:30Z</time></trkpt><trkpt lat="41.26252249192433" lon="1.5999919053996572"><ele>143.0</ele><time>2026-04-19T12:50:31Z</time></trkpt><trkpt lat="41.26238655167972" lon="1.6000095524992584"><ele>142.25</ele><time>2026-04-19T12:50:32Z</time></trkpt><trkpt lat="41.26222467134597" lon="1.6000257185617666"><ele>141.5</ele><time>2026-04-19T12:50:33Z</time></trkpt><trkpt lat="41.26215505688813" lon="1.599967687276139"><ele>140.75</ele><time>2026-04-19T12:50:34Z</time></trkpt><trkpt lat="41.26198434289643" lon="1.5998922771836175"><ele>140.0</ele><time>2026-04-19T12:50:35Z</time></trkpt><trkpt lat="41.26180942056881" lon="1.5997831995860343"><ele>140.0</ele><time>2026-04-19T12:50:36Z</time></trkpt><trkpt lat="41.26167182162874" lon="1.5996373980765843"><ele>140.0</ele><time>2026-04-19T12:50:37Z</time></trkpt><trkpt lat="41.26152151822235" lon="1.599543085722063"><ele>140.0</ele><time>2026-04-19T12:50:38Z</time></trkpt><trkpt lat="41.26137181722386" lon="1.599449151554391"><ele>138.33333333333331</ele><time>2026-04-19T12:50:39Z</time></trkpt><trkpt lat="41.26119919488124" lon="1.599387080043249"><ele>136.66666666666666</ele><time>2026-04-19T12:50:40Z</time></trkpt><trkpt lat="41.2610345907223" lon="1.599285185904131"><ele>135.0</ele><time>2026-04-19T12:50:41Z</time></trkpt><trkpt lat="41.26087210171915" lon="1.5991888081506886"><ele>135.0</ele><time>2026-04-19T12:50:42Z</time></trkpt><trkpt lat="41.2607076914398" lon="1.5990916524609973"><ele>135.0</ele><time>2026-04-19T12:50:43Z</time></trkpt><trkpt lat="41.26056119543225" lon="1.598943586931969"><ele>135.0</ele><time>2026-04-19T12:50:44Z</time></trkpt><trkpt lat="41.26040147423919" lon="1.598843875062705"><ele>134.0</ele><time>2026-04-19T12:50:45Z</time></trkpt><trkpt lat="41.260238009758375" lon="1.5987418396337143"><ele>133.0</ele><time>2026-04-19T12:50:46Z</time></trkpt><trkpt lat="41.26007667001778" lon="1.5986418672312426"><ele>132.0</ele><time>2026-04-19T12:50:47Z</time></trkpt><trkpt lat="41.259914968117755" lon="1.5985416704253501"><ele>131.33333333333334</ele><time>2026-04-19T12:50:48Z</time></trkpt><trkpt lat="41.25975272620638" lon="1.5984411390072566"><ele>130.66666666666669</ele><time>2026-04-19T12:50:49Z</time></trkpt><trkpt lat="41.259592280108855" lon="1.598341435035392"><ele>130.0</ele><time>2026-04-19T12:50:50Z</time></trkpt><trkpt lat="41.25943514850165" lon="1.5982430673443262"><ele>130.0</ele><time>2026-04-19T12:50:51Z</time></trkpt><trkpt lat="41.259275707056034" lon="1.5981432536502158"><ele>130.0</ele><time>2026-04-19T12:50:52Z</time></trkpt><trkpt lat="41.25910211902045" lon="1.5980345838918835"><ele>130.0</ele><time>2026-04-19T12:50:52.999Z</time></trkpt><trkpt lat="41.25891984123437" lon="1.5979204741682789"><ele>130.66666666666669</ele><time>2026-04-19T12:50:53.999Z</time></trkpt><trkpt lat="41.2587397978906" lon="1.5978079846337703"><ele>131.33333333333334</ele><time>2026-04-19T12:50:54.999Z</time></trkpt><trkpt lat="41.258558754700445" lon="1.5976961777748957"><ele>132.0</ele><time>2026-04-19T12:50:55.999Z</time></trkpt><trkpt lat="41.25837946018932" lon="1.5975852833648438"><ele>132.0</ele><time>2026-04-19T12:50:56.999Z</time></trkpt><trkpt lat="41.258210267951476" lon="1.5974787563003516"><ele>132.0</ele><time>2026-04-19T12:50:57.999Z</time></trkpt><trkpt lat="41.25804003766472" lon="1.5973715756712754"><ele>132.0</ele><time>2026-04-19T12:50:58.999Z</time></trkpt><trkpt lat="41.257874291148056" lon="1.5972685739441395"><ele>132.0</ele><time>2026-04-19T12:50:59.999Z</time></trkpt><trkpt lat="41.25770961089599" lon="1.5971640201655697"><ele>132.0</ele><time>2026-04-19T12:51:00.999Z</time></trkpt><trkpt lat="41.257544872608285" lon="1.597044816353436"><ele>132.0</ele><time>2026-04-19T12:51:01.999Z</time></trkpt><trkpt lat="41.25739152726817" lon="1.5969078548491107"><ele>132.0</ele><time>2026-04-19T12:51:02.999Z</time></trkpt><trkpt lat="41.25723645451614" lon="1.5967507829817853"><ele>132.0</ele><time>2026-04-19T12:51:03.999Z</time></trkpt><trkpt lat="41.25708435664599" lon="1.596583902440576"><ele>132.0</ele><time>2026-04-19T12:51:04.999Z</time></trkpt><trkpt lat="41.256927081817956" lon="1.5964025109897926"><ele>132.0</ele><time>2026-04-19T12:51:05.999Z</time></trkpt><trkpt lat="41.25676512868506" lon="1.5962175689078897"><ele>132.0</ele><time>2026-04-19T12:51:06.999Z</time></trkpt><trkpt lat="41.25660270215343" lon="1.596031995855185"><ele>132.0</ele><time>2026-04-19T12:51:07.999Z</time></trkpt><trkpt lat="41.256444814720275" lon="1.5958514613344128"><ele>130.33333333333334</ele><time>2026-04-19T12:51:08.999Z</time></trkpt><trkpt lat="41.2563034046765" lon="1.5956897677054684"><ele>128.66666666666669</ele><time>2026-04-19T12:51:09.999Z</time></trkpt><trkpt lat="41.256170556293796" lon="1.5955378637923703"><ele>127.0</ele><time>2026-04-19T12:51:10.999Z</time></trkpt><trkpt lat="41.25604498496241" lon="1.5953944822122363"><ele>126.75</ele><time>2026-04-19T12:51:11.999Z</time></trkpt><trkpt lat="41.25593092844028" lon="1.5952646332452296"><ele>126.5</ele><time>2026-04-19T12:51:12.999Z</time></trkpt><trkpt lat="41.255822476946776" lon="1.5951411653999552"><ele>126.25</ele><time>2026-04-19T12:51:13.999Z</time></trkpt><trkpt lat="41.25572064941913" lon="1.5950252386698995"><ele>126.0</ele><time>2026-04-19T12:51:14.999Z</time></trkpt><trkpt lat="41.25562306131934" lon="1.5949141396163502"><ele>126.5</ele><time>2026-04-19T12:51:15.999Z</time></trkpt><trkpt lat="41.255533453433145" lon="1.5948121244477889"><ele>127.0</ele><time>2026-04-19T12:51:16.999Z</time></trkpt><trkpt lat="41.25544252804399" lon="1.594710000491988"><ele>127.5</ele><time>2026-04-19T12:51:17.999Z</time></trkpt><trkpt lat="41.255344912087" lon="1.5946003708335788"><ele>128.0</ele><time>2026-04-19T12:51:18.999Z</time></trkpt><trkpt lat="41.255245959396305" lon="1.5944891553614984"><ele>128.6</ele><time>2026-04-19T12:51:19.999Z</time></trkpt><trkpt lat="41.255155853373864" lon="1.5943876849113505"><ele>129.20000000000002</ele><time>2026-04-19T12:51:20.999Z</time></trkpt><trkpt lat="41.255072148628464" lon="1.5942934230836283"><ele>129.8</ele><time>2026-04-19T12:51:21.999Z</time></trkpt><trkpt lat="41.254990132755935" lon="1.5942010631429555"><ele>130.4</ele><time>2026-04-19T12:51:22.999Z</time></trkpt><trkpt lat="41.25491853068476" lon="1.5941204304267174"><ele>131.0</ele><time>2026-04-19T12:51:23.999Z</time></trkpt><trkpt lat="41.25483969179469" lon="1.5940316481440702"><ele>131.4</ele><time>2026-04-19T12:51:24.999Z</time></trkpt><trkpt lat="41.25476232505393" lon="1.5939445236965002"><ele>131.8</ele><time>2026-04-19T12:51:25.999Z</time></trkpt><trkpt lat="41.25467604117172" lon="1.5938482877679063"><ele>132.20000000000002</ele><time>2026-04-19T12:51:26.999Z</time></trkpt><trkpt lat="41.254589768595785" lon="1.593752674949422"><ele>132.6</ele><time>2026-04-19T12:51:27.999Z</time></trkpt><trkpt lat="41.254509333665126" lon="1.5936635317909507"><ele>133.0</ele><time>2026-04-19T12:51:29Z</time></trkpt><trkpt lat="41.254426993239" lon="1.5935723402875233"><ele>134.0</ele><time>2026-04-19T12:51:30Z</time></trkpt><trkpt lat="41.25434426983266" lon="1.593480749733118"><ele>135.0</ele><time>2026-04-19T12:51:31Z</time></trkpt><trkpt lat="41.2542563664304" lon="1.5933870141724813"><ele>136.0</ele><time>2026-04-19T12:51:32Z</time></trkpt><trkpt lat="41.254165079166945" lon="1.5932943367485721"><ele>137.0</ele><time>2026-04-19T12:51:33Z</time></trkpt><trkpt lat="41.25407084832301" lon="1.593206775849933"><ele>137.0</ele><time>2026-04-19T12:51:34Z</time></trkpt><trkpt lat="41.25396548162971" lon="1.5931186697685988"><ele>137.0</ele><time>2026-04-19T12:51:35Z</time></trkpt><trkpt lat="41.253845772654486" lon="1.5930218139398447"><ele>137.0</ele><time>2026-04-19T12:51:36Z</time></trkpt><trkpt lat="41.253701114775915" lon="1.5929169458653443"><ele>137.0</ele><time>2026-04-19T12:51:37Z</time></trkpt><trkpt lat="41.253546007775995" lon="1.5928074288031702"><ele>136.33333333333331</ele><time>2026-04-19T12:51:38Z</time></trkpt><trkpt lat="41.25338337914161" lon="1.5926963146467374"><ele>135.66666666666666</ele><time>2026-04-19T12:51:39Z</time></trkpt><trkpt lat="41.25318490105964" lon="1.5925661842947159"><ele>135.0</ele><time>2026-04-19T12:51:40Z</time></trkpt><trkpt lat="41.252986813033544" lon="1.5924384413865682"><ele>134.33333333333334</ele><time>2026-04-19T12:51:41Z</time></trkpt><trkpt lat="41.252793708241285" lon="1.59232046679441"><ele>133.66666666666669</ele><time>2026-04-19T12:51:42Z</time></trkpt><trkpt lat="41.25259478625057" lon="1.5921989382971073"><ele>133.0</ele><time>2026-04-19T12:51:43Z</time></trkpt><trkpt lat="41.25239726174639" lon="1.5920782635589041"><ele>132.66666666666669</ele><time>2026-04-19T12:51:44Z</time></trkpt><trkpt lat="41.25219850264773" lon="1.591956834570628"><ele>132.33333333333334</ele><time>2026-04-19T12:51:45Z</time></trkpt><trkpt lat="41.25200244204546" lon="1.5918364100491802"><ele>132.0</ele><time>2026-04-19T12:51:46Z</time></trkpt><trkpt lat="41.25181167863059" lon="1.5917191590992474"><ele>132.0</ele><time>2026-04-19T12:51:47Z</time></trkpt><trkpt lat="41.25163321895853" lon="1.5916094705157178"><ele>132.0</ele><time>2026-04-19T12:51:48Z</time></trkpt><trkpt lat="41.2514524284326" lon="1.5914983493167254"><ele>132.0</ele><time>2026-04-19T12:51:49Z</time></trkpt><trkpt lat="41.251276881548065" lon="1.591390451054983"><ele>132.66666666666666</ele><time>2026-04-19T12:51:50Z</time></trkpt><trkpt lat="41.25110188270884" lon="1.5912828896461595"><ele>133.33333333333331</ele><time>2026-04-19T12:51:51Z</time></trkpt><trkpt lat="41.25093521844264" lon="1.591180451014025"><ele>134.0</ele><time>2026-04-19T12:51:52Z</time></trkpt><trkpt lat="41.25076312269807" lon="1.591075127264849"><ele>134.0</ele><time>2026-04-19T12:51:53Z</time></trkpt><trkpt lat="41.25059077420309" lon="1.5909703240848334"><ele>134.0</ele><time>2026-04-19T12:51:54Z</time></trkpt><trkpt lat="41.25041560105912" lon="1.5908638033168083"><ele>134.0</ele><time>2026-04-19T12:51:55Z</time></trkpt><trkpt lat="41.25023873182056" lon="1.590756251102768"><ele>134.0</ele><time>2026-04-19T12:51:56Z</time></trkpt><trkpt lat="41.25006044378925" lon="1.5906460833169986"><ele>134.0</ele><time>2026-04-19T12:51:57Z</time></trkpt><trkpt lat="41.24988472992816" lon="1.5905292029818392"><ele>134.0</ele><time>2026-04-19T12:51:58Z</time></trkpt><trkpt lat="41.249705041096455" lon="1.590400151625426"><ele>134.0</ele><time>2026-04-19T12:51:59Z</time></trkpt><trkpt lat="41.249516532694486" lon="1.5902604256404456"><ele>134.0</ele><time>2026-04-19T12:52:00Z</time></trkpt><trkpt lat="41.24932127913323" lon="1.5901144914317256"><ele>134.0</ele><time>2026-04-19T12:52:01Z</time></trkpt><trkpt lat="41.24912468230347" lon="1.5899680041632156"><ele>132.66666666666666</ele><time>2026-04-19T12:52:02Z</time></trkpt><trkpt lat="41.24893287555111" lon="1.589824185546761"><ele>131.33333333333334</ele><time>2026-04-19T12:52:03Z</time></trkpt><trkpt lat="41.24874921613975" lon="1.5896849516098048"><ele>130.0</ele><time>2026-04-19T12:52:04Z</time></trkpt><trkpt lat="41.24856840459961" lon="1.5895487749319512"><ele>130.0</ele><time>2026-04-19T12:52:05Z</time></trkpt><trkpt lat="41.248393528849334" lon="1.589417949495217"><ele>130.0</ele><time>2026-04-19T12:52:06Z</time></trkpt><trkpt lat="41.24821521574677" lon="1.5892791989896244"><ele>130.0</ele><time>2026-04-19T12:52:07Z</time></trkpt><trkpt lat="41.24805355057401" lon="1.589120974391155"><ele>129.33333333333334</ele><time>2026-04-19T12:52:08Z</time></trkpt><trkpt lat="41.247906950247156" lon="1.5889381290332576"><ele>128.66666666666666</ele><time>2026-04-19T12:52:09Z</time></trkpt><trkpt lat="41.247765243781565" lon="1.5887414752525553"><ele>128.0</ele><time>2026-04-19T12:52:10Z</time></trkpt><trkpt lat="41.247623764773394" lon="1.5885385479073424"><ele>127.66666666666666</ele><time>2026-04-19T12:52:11Z</time></trkpt><trkpt lat="41.24748664538562" lon="1.5883395659169777"><ele>127.33333333333334</ele><time>2026-04-19T12:52:12Z</time></trkpt><trkpt lat="41.24736138219789" lon="1.5881577893757315"><ele>127.0</ele><time>2026-04-19T12:52:13Z</time></trkpt><trkpt lat="41.24724682073421" lon="1.5879903716027548"><ele>124.66666666666667</ele><time>2026-04-19T12:52:14Z</time></trkpt><trkpt lat="41.247136559542994" lon="1.5878291517386096"><ele>122.33333333333334</ele><time>2026-04-19T12:52:15Z</time></trkpt><trkpt lat="41.24702060712693" lon="1.5876880697374351"><ele>120.0</ele><time>2026-04-19T12:52:16Z</time></trkpt><trkpt lat="41.246926529431775" lon="1.5875344951431976"><ele>120.0</ele><time>2026-04-19T12:52:17Z</time></trkpt><trkpt lat="41.24682912642529" lon="1.587396220571187"><ele>120.0</ele><time>2026-04-19T12:52:18Z</time></trkpt><trkpt lat="41.246741013630455" lon="1.5872631776326327"><ele>120.0</ele><time>2026-04-19T12:52:19Z</time></trkpt><trkpt lat="41.24665463340462" lon="1.587125699284383"><ele>120.0</ele><time>2026-04-19T12:52:20Z</time></trkpt><trkpt lat="41.24657500351947" lon="1.5869953122722535"><ele>120.4</ele><time>2026-04-19T12:52:21Z</time></trkpt><trkpt lat="41.24650959041193" lon="1.5868717473910459"><ele>120.8</ele><time>2026-04-19T12:52:22Z</time></trkpt><trkpt lat="41.246450200609075" lon="1.5867500059755515"><ele>121.19999999999999</ele><time>2026-04-19T12:52:23Z</time></trkpt><trkpt lat="41.24639903780462" lon="1.586632183798248"><ele>121.6</ele><time>2026-04-19T12:52:24Z</time></trkpt><trkpt lat="41.24636496411524" lon="1.5865203886747212"><ele>122.0</ele><time>2026-04-19T12:52:25Z</time></trkpt><trkpt lat="41.246344915164144" lon="1.5864088732712183"><ele>121.99999999999999</ele><time>2026-04-19T12:52:26Z</time></trkpt><trkpt lat="41.246330374898086" lon="1.5862982091096969"><ele>122.0</ele><time>2026-04-19T12:52:27Z</time></trkpt><trkpt lat="41.24631478499422" lon="1.5861972496095227"><ele>122.0</ele><time>2026-04-19T12:52:28Z</time></trkpt><trkpt lat="41.246294027737946" lon="1.5861111444775273"><ele>122.0</ele><time>2026-04-19T12:52:29Z</time></trkpt><trkpt lat="41.24623140136308" lon="1.5860373683657718"><ele>121.99999999999999</ele><time>2026-04-19T12:52:31Z</time></trkpt><trkpt lat="41.2462769317436" lon="1.5858941550753334"><ele>122.0</ele><time>2026-04-19T12:52:34Z</time></trkpt><trkpt lat="41.2461511811963" lon="1.585935087373396"><ele>124.0</ele><time>2026-04-19T12:53:19.999Z</time></trkpt></trkseg><trkseg><trkpt lat="41.24640710342206" lon="1.5856807590093782"><ele>124.00000000000001</ele><time>2026-04-19T13:32:50.999Z</time></trkpt><trkpt lat="41.24634607048145" lon="1.5856416298325628"><ele>124.0</ele><time>2026-04-19T13:33:00.999Z</time></trkpt><trkpt lat="41.24632568295646" lon="1.5855186910430912"><ele>124.0</ele><time>2026-04-19T13:33:32.999Z</time></trkpt><trkpt lat="41.246277242045814" lon="1.585591591745073"><ele>124.0</ele><time>2026-04-19T13:33:35.999Z</time></trkpt><trkpt lat="41.24623269736049" lon="1.5856567574006166"><ele>124.00000000000001</ele><time>2026-04-19T13:33:36.999Z</time></trkpt><trkpt lat="41.24618992948977" lon="1.5857235155489948"><ele>124.0</ele><time>2026-04-19T13:33:37.999Z</time></trkpt><trkpt lat="41.24608342716461" lon="1.5857852006822235"><ele>124.00000000000001</ele><time>2026-04-19T13:33:39.999Z</time></trkpt><trkpt lat="41.24600579906538" lon="1.5857814198548292"><ele>124.0</ele><time>2026-04-19T13:33:40.999Z</time></trkpt><trkpt lat="41.24593197294897" lon="1.5857952218251896"><ele>124.0</ele><time>2026-04-19T13:33:41.999Z</time></trkpt><trkpt lat="41.245862234050485" lon="1.585794920299009"><ele>124.0</ele><time>2026-04-19T13:33:42.999Z</time></trkpt><trkpt lat="41.245740051684706" lon="1.5858332632715615"><ele>124.00000000000001</ele><time>2026-04-19T13:33:44.999Z</time></trkpt><trkpt lat="41.245673804164575" lon="1.585740515264845"><ele>124.0</ele><time>2026-04-19T13:33:45.999Z</time></trkpt><trkpt lat="41.24560702620587" lon="1.5856663543175382"><ele>124.16666666666667</ele><time>2026-04-19T13:33:47.999Z</time></trkpt><trkpt lat="41.24555312705932" lon="1.585609097093936"><ele>124.33333333333334</ele><time>2026-04-19T13:33:48.999Z</time></trkpt><trkpt lat="41.24550058066465" lon="1.5855498073723562"><ele>124.5</ele><time>2026-04-19T13:33:49.999Z</time></trkpt><trkpt lat="41.24544473730462" lon="1.585497494864578"><ele>124.66666666666666</ele><time>2026-04-19T13:33:50.999Z</time></trkpt><trkpt lat="41.24538936759385" lon="1.5854295311233664"><ele>124.83333333333333</ele><time>2026-04-19T13:33:51.999Z</time></trkpt><trkpt lat="41.24532770419155" lon="1.5853596927804396"><ele>125.0</ele><time>2026-04-19T13:33:52.999Z</time></trkpt><trkpt lat="41.245256419118725" lon="1.5852781219314058"><ele>124.99999999999999</ele><time>2026-04-19T13:33:53.999Z</time></trkpt><trkpt lat="41.24518630291036" lon="1.5851908451705097"><ele>125.0</ele><time>2026-04-19T13:33:54.999Z</time></trkpt><trkpt lat="41.24512033359386" lon="1.5851165678289982"><ele>125.0</ele><time>2026-04-19T13:33:55.999Z</time></trkpt><trkpt lat="41.245056935678306" lon="1.5850362489390188"><ele>125.0</ele><time>2026-04-19T13:33:56.999Z</time></trkpt><trkpt lat="41.245004071827594" lon="1.5849598313130933"><ele>124.99999999999999</ele><time>2026-04-19T13:33:57.999Z</time></trkpt><trkpt lat="41.244964240421474" lon="1.5848717386722493"><ele>125.0</ele><time>2026-04-19T13:33:58.999Z</time></trkpt><trkpt lat="41.244923661916935" lon="1.584770959048752"><ele>124.99999999999999</ele><time>2026-04-19T13:33:59.999Z</time></trkpt><trkpt lat="41.24488838126211" lon="1.584666471838835"><ele>125.0</ele><time>2026-04-19T13:34:00.999Z</time></trkpt><trkpt lat="41.2448483176983" lon="1.5845579164681973"><ele>125.0</ele><time>2026-04-19T13:34:01.999Z</time></trkpt><trkpt lat="41.24480227658237" lon="1.584475085688606"><ele>125.0</ele><time>2026-04-19T13:34:02.999Z</time></trkpt><trkpt lat="41.24477993036115" lon="1.5843775086291074"><ele>124.99999999999999</ele><time>2026-04-19T13:34:03.999Z</time></trkpt><trkpt lat="41.244765306161476" lon="1.584256561123992"><ele>125.0</ele><time>2026-04-19T13:34:04.999Z</time></trkpt><trkpt lat="41.244805371218696" lon="1.5841353669046547"><ele>123.99999999999999</ele><time>2026-04-19T13:34:05.999Z</time></trkpt><trkpt lat="41.24479753156679" lon="1.5840302623409686"><ele>123.0</ele><time>2026-04-19T13:34:06.999Z</time></trkpt><trkpt lat="41.244777283766695" lon="1.583938416689018"><ele>122.0</ele><time>2026-04-19T13:34:07.999Z</time></trkpt><trkpt lat="41.2446926706335" lon="1.583886726118245"><ele>121.0</ele><time>2026-04-19T13:34:08.999Z</time></trkpt><trkpt lat="41.2446221992041" lon="1.583891099707925"><ele>119.99999999999999</ele><time>2026-04-19T13:34:09.999Z</time></trkpt><trkpt lat="41.24454976460791" lon="1.583905559802095"><ele>119.0</ele><time>2026-04-19T13:34:10.999Z</time></trkpt><trkpt lat="41.24447587115537" lon="1.5839095293527712"><ele>119.0</ele><time>2026-04-19T13:34:11.999Z</time></trkpt><trkpt lat="41.24440670233157" lon="1.5841313886658526"><ele>119.0</ele><time>2026-04-19T13:34:12.999Z</time></trkpt><trkpt lat="41.24431060411266" lon="1.5841555203334243"><ele>119.0</ele><time>2026-04-19T13:34:13.999Z</time></trkpt><trkpt lat="41.2442170751535" lon="1.5841081015812493"><ele>119.0</ele><time>2026-04-19T13:34:14.999Z</time></trkpt><trkpt lat="41.244097211963506" lon="1.5840557144645357"><ele>119.0</ele><time>2026-04-19T13:34:15.999Z</time></trkpt><trkpt lat="41.243977842660264" lon="1.5840018345303515"><ele>119.0</ele><time>2026-04-19T13:34:16.999Z</time></trkpt><trkpt lat="41.24388026039366" lon="1.5839682414174234"><ele>119.0</ele><time>2026-04-19T13:34:17.999Z</time></trkpt><trkpt lat="41.243778440202696" lon="1.5839164285524472"><ele>119.0</ele><time>2026-04-19T13:34:18.999Z</time></trkpt><trkpt lat="41.243674207118325" lon="1.5838621934282184"><ele>119.0</ele><time>2026-04-19T13:34:19.999Z</time></trkpt><trkpt lat="41.24356590779332" lon="1.583802459705886"><ele>119.0</ele><time>2026-04-19T13:34:20.999Z</time></trkpt><trkpt lat="41.24341860915557" lon="1.5837204160828962"><ele>119.0</ele><time>2026-04-19T13:34:21.999Z</time></trkpt><trkpt lat="41.24324675779534" lon="1.5836287734738264"><ele>119.0</ele><time>2026-04-19T13:34:22.999Z</time></trkpt><trkpt lat="41.24304870367912" lon="1.5835146331067989"><ele>119.0</ele><time>2026-04-19T13:34:23.999Z</time></trkpt><trkpt lat="41.242822804872056" lon="1.583386391366914"><ele>119.0</ele><time>2026-04-19T13:34:24.999Z</time></trkpt><trkpt lat="41.242631722382036" lon="1.5832659524943982"><ele>119.0</ele><time>2026-04-19T13:34:25.999Z</time></trkpt><trkpt lat="41.24245012883988" lon="1.5831546086983723"><ele>119.0</ele><time>2026-04-19T13:34:26.999Z</time></trkpt><trkpt lat="41.24227012835059" lon="1.583047479658368"><ele>119.0</ele><time>2026-04-19T13:34:27.999Z</time></trkpt><trkpt lat="41.24209780856234" lon="1.5829396785897623"><ele>118.0</ele><time>2026-04-19T13:34:28.999Z</time></trkpt><trkpt lat="41.24192433746552" lon="1.5828338740309635"><ele>117.0</ele><time>2026-04-19T13:34:29.999Z</time></trkpt><trkpt lat="41.24173939414734" lon="1.5827188140119637"><ele>116.0</ele><time>2026-04-19T13:34:30.999Z</time></trkpt><trkpt lat="41.241546695619256" lon="1.5825947644561575"><ele>113.0</ele><time>2026-04-19T13:34:31.999Z</time></trkpt><trkpt lat="41.24136286986358" lon="1.5824805813658034"><ele>110.0</ele><time>2026-04-19T13:34:32.999Z</time></trkpt><trkpt lat="41.24118542419093" lon="1.5823495699663759"><ele>107.0</ele><time>2026-04-19T13:34:33.999Z</time></trkpt><trkpt lat="41.240997591964486" lon="1.5822518232668974"><ele>107.0</ele><time>2026-04-19T13:34:34.999Z</time></trkpt><trkpt lat="41.240819941595696" lon="1.582136195760269"><ele>107.0</ele><time>2026-04-19T13:34:35.999Z</time></trkpt><trkpt lat="41.24063656980653" lon="1.5820194987403"><ele>107.0</ele><time>2026-04-19T13:34:36.999Z</time></trkpt><trkpt lat="41.24045256949604" lon="1.5819062017323366"><ele>105.33333333333333</ele><time>2026-04-19T13:34:37.999Z</time></trkpt><trkpt lat="41.24026999920719" lon="1.5817891467600347"><ele>103.66666666666666</ele><time>2026-04-19T13:34:38.999Z</time></trkpt><trkpt lat="41.240093577423636" lon="1.581666241087089"><ele>102.0</ele><time>2026-04-19T13:34:39.999Z</time></trkpt><trkpt lat="41.23991724334848" lon="1.5815262042795055"><ele>101.0</ele><time>2026-04-19T13:34:40.999Z</time></trkpt><trkpt lat="41.239749428568864" lon="1.581374489605001"><ele>100.0</ele><time>2026-04-19T13:34:41.999Z</time></trkpt><trkpt lat="41.23958207198843" lon="1.5812091662594598"><ele>99.0</ele><time>2026-04-19T13:34:42.999Z</time></trkpt><trkpt lat="41.23942656723706" lon="1.5810342894813953"><ele>98.33333333333334</ele><time>2026-04-19T13:34:43.999Z</time></trkpt><trkpt lat="41.239278542557074" lon="1.5808490113832951"><ele>97.66666666666667</ele><time>2026-04-19T13:34:44.999Z</time></trkpt><trkpt lat="41.23913815453313" lon="1.5806628988940272"><ele>97.0</ele><time>2026-04-19T13:34:45.999Z</time></trkpt><trkpt lat="41.23900595543127" lon="1.5804719557602998"><ele>97.66666666666667</ele><time>2026-04-19T13:34:46.999Z</time></trkpt><trkpt lat="41.23888650007882" lon="1.5802767574523382"><ele>98.33333333333334</ele><time>2026-04-19T13:34:47.999Z</time></trkpt><trkpt lat="41.23877575276845" lon="1.580073034295989"><ele>99.0</ele><time>2026-04-19T13:34:48.999Z</time></trkpt><trkpt lat="41.23867477842996" lon="1.5798566499534596"><ele>99.0</ele><time>2026-04-19T13:34:49.999Z</time></trkpt><trkpt lat="41.23858148175335" lon="1.5796399383605284"><ele>99.0</ele><time>2026-04-19T13:34:50.999Z</time></trkpt><trkpt lat="41.23849815123155" lon="1.5794342206707201"><ele>99.0</ele><time>2026-04-19T13:34:51.999Z</time></trkpt><trkpt lat="41.23841852714865" lon="1.5792296192746074"><ele>99.66666666666666</ele><time>2026-04-19T13:34:52.999Z</time></trkpt><trkpt lat="41.238356295939994" lon="1.5790171681085359"><ele>100.33333333333333</ele><time>2026-04-19T13:34:53.999Z</time></trkpt><trkpt lat="41.23829481435626" lon="1.5788077082449596"><ele>101.0</ele><time>2026-04-19T13:34:54.999Z</time></trkpt><trkpt lat="41.23824310502877" lon="1.5785996285727344"><ele>101.0</ele><time>2026-04-19T13:34:55.999Z</time></trkpt><trkpt lat="41.238197470799435" lon="1.5783909897008053"><ele>101.0</ele><time>2026-04-19T13:34:56.999Z</time></trkpt><trkpt lat="41.23816607686693" lon="1.578207882443123"><ele>101.0</ele><time>2026-04-19T13:34:57.999Z</time></trkpt><trkpt lat="41.238135707864416" lon="1.5780417636900743"><ele>101.0</ele><time>2026-04-19T13:34:58.999Z</time></trkpt><trkpt lat="41.23811517349423" lon="1.5778772254044184"><ele>100.25</ele><time>2026-04-19T13:34:59.999Z</time></trkpt><trkpt lat="41.23809399892984" lon="1.5777050121318135"><ele>99.5</ele><time>2026-04-19T13:35:00.999Z</time></trkpt><trkpt lat="41.238068858321896" lon="1.5775312012185114"><ele>98.75</ele><time>2026-04-19T13:35:01.999Z</time></trkpt><trkpt lat="41.23805350083502" lon="1.5773521059914521"><ele>98.0</ele><time>2026-04-19T13:35:02.999Z</time></trkpt><trkpt lat="41.23804012912644" lon="1.5771763095068647"><ele>96.33333333333333</ele><time>2026-04-19T13:35:03.999Z</time></trkpt><trkpt lat="41.23800459471708" lon="1.5769866176903042"><ele>94.66666666666666</ele><time>2026-04-19T13:35:04.999Z</time></trkpt><trkpt lat="41.237970034734175" lon="1.576783576567678"><ele>93.0</ele><time>2026-04-19T13:35:05.999Z</time></trkpt><trkpt lat="41.237939624642635" lon="1.5765673817516843"><ele>93.0</ele><time>2026-04-19T13:35:06.999Z</time></trkpt><trkpt lat="41.23791171358476" lon="1.5763463819621455"><ele>93.0</ele><time>2026-04-19T13:35:07.999Z</time></trkpt><trkpt lat="41.23788373175481" lon="1.5761294590237567"><ele>93.0</ele><time>2026-04-19T13:35:08.999Z</time></trkpt><trkpt lat="41.23784668463187" lon="1.5759030115535313"><ele>92.33333333333333</ele><time>2026-04-19T13:35:09.999Z</time></trkpt><trkpt lat="41.2378155760812" lon="1.5756812185427704"><ele>91.66666666666666</ele><time>2026-04-19T13:35:10.999Z</time></trkpt><trkpt lat="41.23778322037055" lon="1.575440957005517"><ele>91.0</ele><time>2026-04-19T13:35:11.999Z</time></trkpt><trkpt lat="41.237751273694236" lon="1.5752001957717991"><ele>90.66666666666666</ele><time>2026-04-19T13:35:12.999Z</time></trkpt><trkpt lat="41.23772204075531" lon="1.5749632657540733"><ele>90.33333333333333</ele><time>2026-04-19T13:35:13.999Z</time></trkpt><trkpt lat="41.23769209300979" lon="1.574736174321563"><ele>90.0</ele><time>2026-04-19T13:35:14.999Z</time></trkpt><trkpt lat="41.2376625139261" lon="1.574507798168729"><ele>89.75</ele><time>2026-04-19T13:35:15.999Z</time></trkpt><trkpt lat="41.2376299140266" lon="1.5743059357149418"><ele>89.5</ele><time>2026-04-19T13:35:16.999Z</time></trkpt><trkpt lat="41.23759977683078" lon="1.5741170482540294"><ele>89.25</ele><time>2026-04-19T13:35:17.999Z</time></trkpt><trkpt lat="41.23757747815508" lon="1.5739370277905527"><ele>89.0</ele><time>2026-04-19T13:35:18.999Z</time></trkpt><trkpt lat="41.237551978523314" lon="1.57376430871839"><ele>88.80000000000001</ele><time>2026-04-19T13:35:19.999Z</time></trkpt><trkpt lat="41.23752330073345" lon="1.5736017029290594"><ele>88.60000000000001</ele><time>2026-04-19T13:35:20.999Z</time></trkpt><trkpt lat="41.237492061940586" lon="1.573455664020741"><ele>88.4</ele><time>2026-04-19T13:35:21.999Z</time></trkpt><trkpt lat="41.23745766797842" lon="1.5733222752404248"><ele>88.2</ele><time>2026-04-19T13:35:22.999Z</time></trkpt><trkpt lat="41.23742587542431" lon="1.573199265657859"><ele>88.0</ele><time>2026-04-19T13:35:23.999Z</time></trkpt><trkpt lat="41.23740301831239" lon="1.5730708556407376"><ele>88.0</ele><time>2026-04-19T13:35:24.999Z</time></trkpt><trkpt lat="41.23741006296664" lon="1.5729492174161628"><ele>88.0</ele><time>2026-04-19T13:35:25.999Z</time></trkpt><trkpt lat="41.23743690323489" lon="1.5728375956365577"><ele>88.0</ele><time>2026-04-19T13:35:26.999Z</time></trkpt><trkpt lat="41.23744697234492" lon="1.5727058485353997"><ele>88.0</ele><time>2026-04-19T13:35:27.999Z</time></trkpt><trkpt lat="41.23742123907286" lon="1.5725737013705876"><ele>88.0</ele><time>2026-04-19T13:35:28.999Z</time></trkpt><trkpt lat="41.23736457513206" lon="1.5724221398131095"><ele>87.66666666666666</ele><time>2026-04-19T13:35:29.999Z</time></trkpt><trkpt lat="41.23727756708502" lon="1.5722419653957873"><ele>87.33333333333333</ele><time>2026-04-19T13:35:30.999Z</time></trkpt><trkpt lat="41.23718183440436" lon="1.572025504420191"><ele>87.0</ele><time>2026-04-19T13:35:31.999Z</time></trkpt><trkpt lat="41.23709184367687" lon="1.5718003440150714"><ele>87.0</ele><time>2026-04-19T13:35:32.999Z</time></trkpt><trkpt lat="41.236994640816" lon="1.57157390603628"><ele>87.0</ele><time>2026-04-19T13:35:33.998Z</time></trkpt><trkpt lat="41.236893832076056" lon="1.5713570728566433"><ele>87.0</ele><time>2026-04-19T13:35:34.998Z</time></trkpt><trkpt lat="41.236791007047636" lon="1.5711430928821766"><ele>86.66666666666667</ele><time>2026-04-19T13:35:35.998Z</time></trkpt><trkpt lat="41.23668692101254" lon="1.5709278663259598"><ele>86.33333333333334</ele><time>2026-04-19T13:35:36.998Z</time></trkpt><trkpt lat="41.2365791275847" lon="1.570703416341006"><ele>86.0</ele><time>2026-04-19T13:35:37.998Z</time></trkpt><trkpt lat="41.23646918434335" lon="1.5704744491215592"><ele>86.0</ele><time>2026-04-19T13:35:38.998Z</time></trkpt><trkpt lat="41.23635878964102" lon="1.5702487218554226"><ele>86.0</ele><time>2026-04-19T13:35:39.998Z</time></trkpt><trkpt lat="41.23625208445584" lon="1.570026844022119"><ele>86.0</ele><time>2026-04-19T13:35:40.998Z</time></trkpt><trkpt lat="41.236147113972685" lon="1.5698098964590856"><ele>86.0</ele><time>2026-04-19T13:35:41.998Z</time></trkpt><trkpt lat="41.23603630966457" lon="1.5695794419425066"><ele>86.0</ele><time>2026-04-19T13:35:42.998Z</time></trkpt><trkpt lat="41.23592236628752" lon="1.5693480980400822"><ele>86.0</ele><time>2026-04-19T13:35:43.998Z</time></trkpt><trkpt lat="41.235812648859984" lon="1.5691169437100725"><ele>85.33333333333334</ele><time>2026-04-19T13:35:44.998Z</time></trkpt><trkpt lat="41.23570495279751" lon="1.5688907841932869"><ele>84.66666666666667</ele><time>2026-04-19T13:35:45.998Z</time></trkpt><trkpt lat="41.23559969382328" lon="1.568659790518141"><ele>84.0</ele><time>2026-04-19T13:35:46.999Z</time></trkpt><trkpt lat="41.23548935445241" lon="1.5684204647779343"><ele>83.0</ele><time>2026-04-19T13:35:47.999Z</time></trkpt><trkpt lat="41.23537331902501" lon="1.568188839299895"><ele>82.0</ele><time>2026-04-19T13:35:48.999Z</time></trkpt><trkpt lat="41.23526264166718" lon="1.5679575273872395"><ele>81.0</ele><time>2026-04-19T13:35:49.999Z</time></trkpt><trkpt lat="41.23515238679789" lon="1.5677236000415045"><ele>81.0</ele><time>2026-04-19T13:35:50.999Z</time></trkpt><trkpt lat="41.23504448946127" lon="1.5674860305560416"><ele>81.0</ele><time>2026-04-19T13:35:51.999Z</time></trkpt><trkpt lat="41.23493904761562" lon="1.5672566142584463"><ele>81.0</ele><time>2026-04-19T13:35:52.999Z</time></trkpt><trkpt lat="41.234834002920124" lon="1.567025450642163"><ele>80.33333333333333</ele><time>2026-04-19T13:35:53.999Z</time></trkpt><trkpt lat="41.23473106124875" lon="1.5667906220685375"><ele>79.66666666666666</ele><time>2026-04-19T13:35:54.999Z</time></trkpt><trkpt lat="41.23462873632002" lon="1.5665698491399196"><ele>79.0</ele><time>2026-04-19T13:35:55.999Z</time></trkpt><trkpt lat="41.234523366460365" lon="1.5663615572916885"><ele>79.0</ele><time>2026-04-19T13:35:56.999Z</time></trkpt><trkpt lat="41.234416836343705" lon="1.566152105679913"><ele>79.0</ele><time>2026-04-19T13:35:57.999Z</time></trkpt><trkpt lat="41.23430680902935" lon="1.5659275049183596"><ele>79.0</ele><time>2026-04-19T13:35:58.999Z</time></trkpt><trkpt lat="41.23419685957064" lon="1.565702341625319"><ele>79.0</ele><time>2026-04-19T13:35:59.999Z</time></trkpt><trkpt lat="41.23408082650622" lon="1.5654683235753726"><ele>79.0</ele><time>2026-04-19T13:36:00.999Z</time></trkpt><trkpt lat="41.233968211074874" lon="1.5652360653250894"><ele>79.0</ele><time>2026-04-19T13:36:01.999Z</time></trkpt><trkpt lat="41.23384785121252" lon="1.5650047618502896"><ele>79.0</ele><time>2026-04-19T13:36:02.999Z</time></trkpt><trkpt lat="41.233733456672816" lon="1.5647646818763428"><ele>79.0</ele><time>2026-04-19T13:36:03.999Z</time></trkpt><trkpt lat="41.2336159734495" lon="1.5645159347896245"><ele>79.0</ele><time>2026-04-19T13:36:04.999Z</time></trkpt><trkpt lat="41.2335036514226" lon="1.5642727540540615"><ele>79.0</ele><time>2026-04-19T13:36:05.999Z</time></trkpt><trkpt lat="41.23339222454776" lon="1.5640358111442278"><ele>79.0</ele><time>2026-04-19T13:36:06.999Z</time></trkpt><trkpt lat="41.2332819671604" lon="1.5638016703300806"><ele>79.0</ele><time>2026-04-19T13:36:07.999Z</time></trkpt><trkpt lat="41.23315918786663" lon="1.5635575597337337"><ele>78.33333333333333</ele><time>2026-04-19T13:36:08.999Z</time></trkpt><trkpt lat="41.23303573888152" lon="1.5633122082934614"><ele>77.66666666666667</ele><time>2026-04-19T13:36:09.999Z</time></trkpt><trkpt lat="41.23291828125257" lon="1.5630633576419826"><ele>77.0</ele><time>2026-04-19T13:36:10.999Z</time></trkpt><trkpt lat="41.232800579913096" lon="1.5628159219059499"><ele>76.0</ele><time>2026-04-19T13:36:11.999Z</time></trkpt><trkpt lat="41.23268090146637" lon="1.5625688380792564"><ele>75.0</ele><time>2026-04-19T13:36:12.999Z</time></trkpt><trkpt lat="41.232563245591734" lon="1.562328305510262"><ele>74.0</ele><time>2026-04-19T13:36:13.999Z</time></trkpt><trkpt lat="41.23244373502064" lon="1.562077265217833"><ele>73.66666666666667</ele><time>2026-04-19T13:36:14.999Z</time></trkpt><trkpt lat="41.23232438631115" lon="1.5618319943659282"><ele>73.33333333333333</ele><time>2026-04-19T13:36:15.999Z</time></trkpt><trkpt lat="41.23220082135383" lon="1.5615859692705314"><ele>73.0</ele><time>2026-04-19T13:36:16.999Z</time></trkpt><trkpt lat="41.2320831091268" lon="1.5613466291585911"><ele>73.0</ele><time>2026-04-19T13:36:17.999Z</time></trkpt><trkpt lat="41.231967825914495" lon="1.5611090144349995"><ele>73.0</ele><time>2026-04-19T13:36:18.999Z</time></trkpt><trkpt lat="41.23185472160082" lon="1.5608630608073424"><ele>73.0</ele><time>2026-04-19T13:36:19.999Z</time></trkpt><trkpt lat="41.23173960182734" lon="1.560622907706811"><ele>73.0</ele><time>2026-04-19T13:36:20.999Z</time></trkpt><trkpt lat="41.23162643701513" lon="1.560383560006247"><ele>73.0</ele><time>2026-04-19T13:36:21.999Z</time></trkpt><trkpt lat="41.231512213427095" lon="1.560144086748656"><ele>73.0</ele><time>2026-04-19T13:36:22.999Z</time></trkpt><trkpt lat="41.23139756649767" lon="1.5599058924473468"><ele>73.0</ele><time>2026-04-19T13:36:23.999Z</time></trkpt><trkpt lat="41.23128282136668" lon="1.5596722313480047"><ele>73.0</ele><time>2026-04-19T13:36:24.999Z</time></trkpt><trkpt lat="41.23117377387969" lon="1.5594380886685217"><ele>73.0</ele><time>2026-04-19T13:36:25.999Z</time></trkpt><trkpt lat="41.23106362983581" lon="1.559211124505515"><ele>72.66666666666666</ele><time>2026-04-19T13:36:26.999Z</time></trkpt><trkpt lat="41.23095244825501" lon="1.5589835014978044"><ele>72.33333333333333</ele><time>2026-04-19T13:36:27.999Z</time></trkpt><trkpt lat="41.23084216116344" lon="1.558755113091321"><ele>72.0</ele><time>2026-04-19T13:36:28.999Z</time></trkpt><trkpt lat="41.23073168985966" lon="1.5585291602270817"><ele>72.0</ele><time>2026-04-19T13:36:29.999Z</time></trkpt><trkpt lat="41.230622344056115" lon="1.558302865804079"><ele>72.0</ele><time>2026-04-19T13:36:30.999Z</time></trkpt><trkpt lat="41.23051366907507" lon="1.5580738501231286"><ele>72.0</ele><time>2026-04-19T13:36:31.999Z</time></trkpt><trkpt lat="41.23040422057156" lon="1.5578447616144573"><ele>72.0</ele><time>2026-04-19T13:36:32.999Z</time></trkpt><trkpt lat="41.23029761430585" lon="1.5576206967449135"><ele>72.0</ele><time>2026-04-19T13:36:33.999Z</time></trkpt><trkpt lat="41.230189446024205" lon="1.5573890049924621"><ele>72.0</ele><time>2026-04-19T13:36:34.999Z</time></trkpt><trkpt lat="41.230080577715384" lon="1.5571594636140844"><ele>71.66666666666667</ele><time>2026-04-19T13:36:35.999Z</time></trkpt><trkpt lat="41.22996841505092" lon="1.5569263060488983"><ele>71.33333333333334</ele><time>2026-04-19T13:36:36.999Z</time></trkpt><trkpt lat="41.229855888667466" lon="1.5566923065102738"><ele>71.0</ele><time>2026-04-19T13:36:37.999Z</time></trkpt><trkpt lat="41.22974326000601" lon="1.5564622543226279"><ele>71.0</ele><time>2026-04-19T13:36:38.999Z</time></trkpt><trkpt lat="41.22963076132393" lon="1.5562335441672726"><ele>71.0</ele><time>2026-04-19T13:36:39.999Z</time></trkpt><trkpt lat="41.22951763571899" lon="1.5560024576580131"><ele>71.0</ele><time>2026-04-19T13:36:40.999Z</time></trkpt><trkpt lat="41.22940576149594" lon="1.5557732652289669"><ele>71.33333333333334</ele><time>2026-04-19T13:36:41.999Z</time></trkpt><trkpt lat="41.229290493829716" lon="1.555538737790988"><ele>71.66666666666667</ele><time>2026-04-19T13:36:42.999Z</time></trkpt><trkpt lat="41.22918046029144" lon="1.5553117155497473"><ele>72.0</ele><time>2026-04-19T13:36:43.999Z</time></trkpt><trkpt lat="41.22906946293607" lon="1.555084494154758"><ele>72.0</ele><time>2026-04-19T13:36:44.999Z</time></trkpt><trkpt lat="41.22896307450045" lon="1.5548656964767584"><ele>72.0</ele><time>2026-04-19T13:36:45.999Z</time></trkpt><trkpt lat="41.22885901831028" lon="1.5546509805972828"><ele>72.0</ele><time>2026-04-19T13:36:46.999Z</time></trkpt><trkpt lat="41.22875336449362" lon="1.5544376156547206"><ele>72.0</ele><time>2026-04-19T13:36:47.999Z</time></trkpt><trkpt lat="41.2286503527678" lon="1.5542202841361836"><ele>72.0</ele><time>2026-04-19T13:36:48.999Z</time></trkpt><trkpt lat="41.22854504304498" lon="1.5539989785061632"><ele>72.0</ele><time>2026-04-19T13:36:49.999Z</time></trkpt><trkpt lat="41.228438064292384" lon="1.553777237979885"><ele>72.0</ele><time>2026-04-19T13:36:50.999Z</time></trkpt><trkpt lat="41.22833579458917" lon="1.5535485528386024"><ele>72.0</ele><time>2026-04-19T13:36:51.999Z</time></trkpt><trkpt lat="41.228236637637615" lon="1.5533116662448134"><ele>72.0</ele><time>2026-04-19T13:36:52.999Z</time></trkpt><trkpt lat="41.228134447321416" lon="1.5530742477781674"><ele>72.33333333333333</ele><time>2026-04-19T13:36:53.999Z</time></trkpt><trkpt lat="41.22804098935343" lon="1.5528345557071483"><ele>72.66666666666666</ele><time>2026-04-19T13:36:54.999Z</time></trkpt><trkpt lat="41.227944377539146" lon="1.5525945648315616"><ele>73.0</ele><time>2026-04-19T13:36:55.999Z</time></trkpt><trkpt lat="41.227844376468404" lon="1.5523490498090078"><ele>73.0</ele><time>2026-04-19T13:36:56.999Z</time></trkpt><trkpt lat="41.22774105558959" lon="1.5521056238702282"><ele>73.0</ele><time>2026-04-19T13:36:57.999Z</time></trkpt><trkpt lat="41.227637763345804" lon="1.5518523667840585"><ele>73.0</ele><time>2026-04-19T13:36:58.999Z</time></trkpt><trkpt lat="41.22753254945809" lon="1.5515904570002361"><ele>72.5</ele><time>2026-04-19T13:36:59.999Z</time></trkpt><trkpt lat="41.22742259649812" lon="1.5513151474071036"><ele>72.0</ele><time>2026-04-19T13:37:00.999Z</time></trkpt><trkpt lat="41.22731247965987" lon="1.5510432414853406"><ele>73.5</ele><time>2026-04-19T13:37:01.999Z</time></trkpt><trkpt lat="41.22720139757262" lon="1.550767898311368"><ele>75.0</ele><time>2026-04-19T13:37:02.999Z</time></trkpt><trkpt lat="41.22708957800864" lon="1.5504850549190752"><ele>73.0</ele><time>2026-04-19T13:37:03.999Z</time></trkpt><trkpt lat="41.226976299063935" lon="1.5502051662325"><ele>71.0</ele><time>2026-04-19T13:37:04.999Z</time></trkpt><trkpt lat="41.226866728093725" lon="1.5499355218648263"><ele>71.0</ele><time>2026-04-19T13:37:05.999Z</time></trkpt><trkpt lat="41.22675836021681" lon="1.549680171934227"><ele>71.0</ele><time>2026-04-19T13:37:06.999Z</time></trkpt><trkpt lat="41.226646595321974" lon="1.5494278334512166"><ele>71.0</ele><time>2026-04-19T13:37:07.999Z</time></trkpt><trkpt lat="41.22652562560428" lon="1.5491782324395522"><ele>71.0</ele><time>2026-04-19T13:37:08.999Z</time></trkpt><trkpt lat="41.22638924426374" lon="1.5489359213182508"><ele>71.0</ele><time>2026-04-19T13:37:09.999Z</time></trkpt><trkpt lat="41.22623997618148" lon="1.5487065870705234"><ele>70.33333333333334</ele><time>2026-04-19T13:37:10.999Z</time></trkpt><trkpt lat="41.22608370816957" lon="1.548489895842228"><ele>69.66666666666667</ele><time>2026-04-19T13:37:11.999Z</time></trkpt><trkpt lat="41.225921805778974" lon="1.5482943038638637"><ele>69.0</ele><time>2026-04-19T13:37:12.999Z</time></trkpt><trkpt lat="41.22575312623435" lon="1.5481068274539989"><ele>68.66666666666667</ele><time>2026-04-19T13:37:13.999Z</time></trkpt><trkpt lat="41.22558232493678" lon="1.5479432123569812"><ele>68.33333333333334</ele><time>2026-04-19T13:37:14.999Z</time></trkpt><trkpt lat="41.22540741007621" lon="1.5477821263312468"><ele>68.0</ele><time>2026-04-19T13:37:15.999Z</time></trkpt><trkpt lat="41.22521948020504" lon="1.5476477773247912"><ele>68.0</ele><time>2026-04-19T13:37:16.999Z</time></trkpt><trkpt lat="41.22502475577953" lon="1.547529992558168"><ele>68.0</ele><time>2026-04-19T13:37:17.999Z</time></trkpt><trkpt lat="41.22482282978477" lon="1.547424395737689"><ele>68.0</ele><time>2026-04-19T13:37:18.999Z</time></trkpt><trkpt lat="41.224615594497074" lon="1.5473314453746962"><ele>69.0</ele><time>2026-04-19T13:37:19.999Z</time></trkpt><trkpt lat="41.22440929705275" lon="1.5472526252256342"><ele>70.0</ele><time>2026-04-19T13:37:20.999Z</time></trkpt><trkpt lat="41.224205319315224" lon="1.5471906209937467"><ele>71.0</ele><time>2026-04-19T13:37:21.999Z</time></trkpt><trkpt lat="41.223994991988384" lon="1.5471474437100219"><ele>71.0</ele><time>2026-04-19T13:37:22.999Z</time></trkpt><trkpt lat="41.2237860339526" lon="1.5471248938267828"><ele>71.0</ele><time>2026-04-19T13:37:23.999Z</time></trkpt><trkpt lat="41.22357295846538" lon="1.547114779625895"><ele>71.0</ele><time>2026-04-19T13:37:24.999Z</time></trkpt><trkpt lat="41.22335857397031" lon="1.5471187870925782"><ele>69.66666666666667</ele><time>2026-04-19T13:37:25.999Z</time></trkpt><trkpt lat="41.22314123843624" lon="1.547139200197939"><ele>68.33333333333333</ele><time>2026-04-19T13:37:26.999Z</time></trkpt><trkpt lat="41.22292449683105" lon="1.547177559665671"><ele>67.0</ele><time>2026-04-19T13:37:27.999Z</time></trkpt><trkpt lat="41.22270680268105" lon="1.5472315230395524"><ele>67.0</ele><time>2026-04-19T13:37:28.999Z</time></trkpt><trkpt lat="41.222484494669644" lon="1.5472714377319015"><ele>67.0</ele><time>2026-04-19T13:37:29.999Z</time></trkpt><trkpt lat="41.22226505829972" lon="1.5473388378402664"><ele>68.0</ele><time>2026-04-19T13:37:30.999Z</time></trkpt><trkpt lat="41.22204380086791" lon="1.5474066278856393"><ele>69.0</ele><time>2026-04-19T13:37:31.999Z</time></trkpt><trkpt lat="41.221822271947914" lon="1.5474711441258875"><ele>69.0</ele><time>2026-04-19T13:37:32.999Z</time></trkpt><trkpt lat="41.2215979923818" lon="1.5475191128077759"><ele>69.0</ele><time>2026-04-19T13:37:33.999Z</time></trkpt><trkpt lat="41.22136889570128" lon="1.5475444864383405"><ele>69.66666666666667</ele><time>2026-04-19T13:37:34.999Z</time></trkpt><trkpt lat="41.22113934170537" lon="1.5475557417083687"><ele>70.33333333333334</ele><time>2026-04-19T13:37:35.999Z</time></trkpt><trkpt lat="41.22092075248321" lon="1.5475485551829733"><ele>71.0</ele><time>2026-04-19T13:37:36.999Z</time></trkpt><trkpt lat="41.22070773763691" lon="1.5475364232669366"><ele>70.33333333333334</ele><time>2026-04-19T13:37:37.999Z</time></trkpt><trkpt lat="41.22050371404459" lon="1.5474894231099239"><ele>69.66666666666667</ele><time>2026-04-19T13:37:38.999Z</time></trkpt><trkpt lat="41.2203064836019" lon="1.547422248588149"><ele>69.0</ele><time>2026-04-19T13:37:39.999Z</time></trkpt><trkpt lat="41.22011005556452" lon="1.547337005422146"><ele>69.0</ele><time>2026-04-19T13:37:40.999Z</time></trkpt><trkpt lat="41.2199181811632" lon="1.547232127114117"><ele>69.0</ele><time>2026-04-19T13:37:41.999Z</time></trkpt><trkpt lat="41.21973284804875" lon="1.5471142595002363"><ele>69.0</ele><time>2026-04-19T13:37:42.999Z</time></trkpt><trkpt lat="41.219549588616715" lon="1.5469771699627315"><ele>66.66666666666667</ele><time>2026-04-19T13:37:43.999Z</time></trkpt><trkpt lat="41.219373437215026" lon="1.546821123310461"><ele>64.33333333333334</ele><time>2026-04-19T13:37:44.999Z</time></trkpt><trkpt lat="41.21919810557142" lon="1.5466550570334343"><ele>62.0</ele><time>2026-04-19T13:37:45.999Z</time></trkpt><trkpt lat="41.21903539322068" lon="1.546458891312678"><ele>60.66666666666667</ele><time>2026-04-19T13:37:46.999Z</time></trkpt><trkpt lat="41.21888236400119" lon="1.5462535172024663"><ele>59.33333333333333</ele><time>2026-04-19T13:37:47.999Z</time></trkpt><trkpt lat="41.2187415721076" lon="1.5460363778442041"><ele>58.0</ele><time>2026-04-19T13:37:48.999Z</time></trkpt><trkpt lat="41.21861009444607" lon="1.5458148637736042"><ele>57.33333333333333</ele><time>2026-04-19T13:37:49.999Z</time></trkpt><trkpt lat="41.2184834008466" lon="1.5455904079451614"><ele>56.66666666666667</ele><time>2026-04-19T13:37:50.999Z</time></trkpt><trkpt lat="41.218352215026655" lon="1.5453746724217545"><ele>56.0</ele><time>2026-04-19T13:37:51.999Z</time></trkpt><trkpt lat="41.218222980643084" lon="1.5451587895041916"><ele>56.333333333333336</ele><time>2026-04-19T13:37:53Z</time></trkpt><trkpt lat="41.21808780655857" lon="1.5449355421385695"><ele>56.66666666666667</ele><time>2026-04-19T13:37:54Z</time></trkpt><trkpt lat="41.21794272794468" lon="1.5447177158378322"><ele>57.0</ele><time>2026-04-19T13:37:55Z</time></trkpt><trkpt lat="41.2177882038412" lon="1.5445107126034272"><ele>54.5</ele><time>2026-04-19T13:37:56Z</time></trkpt><trkpt lat="41.21761743144392" lon="1.5443133282185006"><ele>52.0</ele><time>2026-04-19T13:37:57Z</time></trkpt><trkpt lat="41.21743227940012" lon="1.5441289854390086"><ele>51.5</ele><time>2026-04-19T13:37:58Z</time></trkpt><trkpt lat="41.21724217149618" lon="1.543963227121933"><ele>51.0</ele><time>2026-04-19T13:37:59Z</time></trkpt><trkpt lat="41.21704579031452" lon="1.5438058884164774"><ele>50.0</ele><time>2026-04-19T13:38:00Z</time></trkpt><trkpt lat="41.216843726789094" lon="1.5436654604319138"><ele>49.0</ele><time>2026-04-19T13:38:01Z</time></trkpt><trkpt lat="41.216637443741526" lon="1.5435409033247898"><ele>48.666666666666664</ele><time>2026-04-19T13:38:02Z</time></trkpt><trkpt lat="41.216428634737404" lon="1.5434264985401782"><ele>48.33333333333333</ele><time>2026-04-19T13:38:03Z</time></trkpt><trkpt lat="41.21622410491974" lon="1.5433219106826754"><ele>48.0</ele><time>2026-04-19T13:38:04Z</time></trkpt><trkpt lat="41.21602108879659" lon="1.5432217173870586"><ele>48.0</ele><time>2026-04-19T13:38:05Z</time></trkpt><trkpt lat="41.21581499720799" lon="1.5431197111401402"><ele>48.0</ele><time>2026-04-19T13:38:06Z</time></trkpt><trkpt lat="41.21561076381114" lon="1.5430174617119201"><ele>48.0</ele><time>2026-04-19T13:38:07Z</time></trkpt><trkpt lat="41.215409074228674" lon="1.5429156218084579"><ele>50.0</ele><time>2026-04-19T13:38:08Z</time></trkpt><trkpt lat="41.215208924668154" lon="1.5428082905182032"><ele>52.0</ele><time>2026-04-19T13:38:09Z</time></trkpt><trkpt lat="41.21501200920129" lon="1.5427042760511795"><ele>54.0</ele><time>2026-04-19T13:38:10Z</time></trkpt><trkpt lat="41.214807356668906" lon="1.5425960716176128"><ele>56.5</ele><time>2026-04-19T13:38:11Z</time></trkpt><trkpt lat="41.214596716544804" lon="1.5424788435848067"><ele>59.0</ele><time>2026-04-19T13:38:12Z</time></trkpt><trkpt lat="41.21438533774796" lon="1.5423561960799892"><ele>59.0</ele><time>2026-04-19T13:38:13Z</time></trkpt><trkpt lat="41.214173760676054" lon="1.5422288506915378"><ele>59.0</ele><time>2026-04-19T13:38:14Z</time></trkpt><trkpt lat="41.21396151559723" lon="1.5420990135413553"><ele>61.0</ele><time>2026-04-19T13:38:15Z</time></trkpt><trkpt lat="41.21375176446968" lon="1.5419671239720478"><ele>63.0</ele><time>2026-04-19T13:38:16Z</time></trkpt><trkpt lat="41.21354798181723" lon="1.5418333504168809"><ele>63.0</ele><time>2026-04-19T13:38:17Z</time></trkpt><trkpt lat="41.21334656433122" lon="1.5416965670237905"><ele>63.0</ele><time>2026-04-19T13:38:18Z</time></trkpt><trkpt lat="41.21315075490635" lon="1.5415618392761652"><ele>63.0</ele><time>2026-04-19T13:38:19Z</time></trkpt><trkpt lat="41.21295658459102" lon="1.5414188983832748"><ele>62.0</ele><time>2026-04-19T13:38:20Z</time></trkpt><trkpt lat="41.212764737345665" lon="1.5412756898135023"><ele>61.0</ele><time>2026-04-19T13:38:21Z</time></trkpt><trkpt lat="41.21257120334116" lon="1.5411308358191782"><ele>60.0</ele><time>2026-04-19T13:38:22Z</time></trkpt><trkpt lat="41.212376802301414" lon="1.5409810038292067"><ele>58.5</ele><time>2026-04-19T13:38:23Z</time></trkpt><trkpt lat="41.21218318664392" lon="1.540827933101865"><ele>57.0</ele><time>2026-04-19T13:38:24Z</time></trkpt><trkpt lat="41.211987875277735" lon="1.5406631093640912"><ele>57.0</ele><time>2026-04-19T13:38:25Z</time></trkpt><trkpt lat="41.2117867740171" lon="1.5404868148820117"><ele>57.0</ele><time>2026-04-19T13:38:26Z</time></trkpt><trkpt lat="41.211564740761474" lon="1.5402910659540567"><ele>55.0</ele><time>2026-04-19T13:38:27Z</time></trkpt><trkpt lat="41.211345495310916" lon="1.540086469943446"><ele>53.0</ele><time>2026-04-19T13:38:28Z</time></trkpt><trkpt lat="41.21113590612061" lon="1.5398806123554463"><ele>53.0</ele><time>2026-04-19T13:38:29Z</time></trkpt><trkpt lat="41.21093496273278" lon="1.5396611676767102"><ele>53.0</ele><time>2026-04-19T13:38:30Z</time></trkpt><trkpt lat="41.2107442612883" lon="1.5394443672022644"><ele>52.5</ele><time>2026-04-19T13:38:31Z</time></trkpt><trkpt lat="41.21057027469364" lon="1.5392259217540507"><ele>52.0</ele><time>2026-04-19T13:38:32Z</time></trkpt><trkpt lat="41.210408269387905" lon="1.5390137027685267"><ele>52.0</ele><time>2026-04-19T13:38:33Z</time></trkpt><trkpt lat="41.21025000463741" lon="1.5387881719194165"><ele>52.0</ele><time>2026-04-19T13:38:34Z</time></trkpt><trkpt lat="41.21009268479166" lon="1.5385623421648018"><ele>52.0</ele><time>2026-04-19T13:38:35Z</time></trkpt><trkpt lat="41.20994206756174" lon="1.5383340374381282"><ele>52.0</ele><time>2026-04-19T13:38:36Z</time></trkpt><trkpt lat="41.20979425824807" lon="1.5381083190987477"><ele>49.0</ele><time>2026-04-19T13:38:37Z</time></trkpt><trkpt lat="41.2096405962198" lon="1.5378764938322669"><ele>46.0</ele><time>2026-04-19T13:38:38Z</time></trkpt><trkpt lat="41.20949500039715" lon="1.5376481675338678"><ele>46.0</ele><time>2026-04-19T13:38:38.999Z</time></trkpt><trkpt lat="41.209349587244546" lon="1.5374197152524467"><ele>46.0</ele><time>2026-04-19T13:38:39.999Z</time></trkpt><trkpt lat="41.20920957499436" lon="1.5371845725282631"><ele>43.5</ele><time>2026-04-19T13:38:40.999Z</time></trkpt><trkpt lat="41.209069335053925" lon="1.536948628407712"><ele>41.0</ele><time>2026-04-19T13:38:41.999Z</time></trkpt><trkpt lat="41.20892611633679" lon="1.5367041765363354"><ele>39.5</ele><time>2026-04-19T13:38:42.999Z</time></trkpt><trkpt lat="41.208782573166765" lon="1.5364615896062526"><ele>38.0</ele><time>2026-04-19T13:38:43.999Z</time></trkpt><trkpt lat="41.208642793514514" lon="1.5362199215332217"><ele>37.0</ele><time>2026-04-19T13:38:44.999Z</time></trkpt><trkpt lat="41.20850773273473" lon="1.535979367162538"><ele>36.0</ele><time>2026-04-19T13:38:45.999Z</time></trkpt><trkpt lat="41.208385742445955" lon="1.5357390405914904"><ele>35.0</ele><time>2026-04-19T13:38:46.999Z</time></trkpt><trkpt lat="41.20827718643617" lon="1.535480072226367"><ele>34.666666666666664</ele><time>2026-04-19T13:38:47.999Z</time></trkpt><trkpt lat="41.20817840682289" lon="1.535222006636022"><ele>34.333333333333336</ele><time>2026-04-19T13:38:48.999Z</time></trkpt><trkpt lat="41.208086109803645" lon="1.534953775223762"><ele>34.0</ele><time>2026-04-19T13:38:49.999Z</time></trkpt><trkpt lat="41.20799966658071" lon="1.5347018893026625"><ele>33.333333333333336</ele><time>2026-04-19T13:38:50.999Z</time></trkpt><trkpt lat="41.20791437893347" lon="1.5344485046673502"><ele>32.666666666666664</ele><time>2026-04-19T13:38:51.999Z</time></trkpt><trkpt lat="41.207832746625115" lon="1.5342000093532713"><ele>32.0</ele><time>2026-04-19T13:38:52.999Z</time></trkpt><trkpt lat="41.20774557788182" lon="1.5339526906547687"><ele>32.33333333333333</ele><time>2026-04-19T13:38:53.999Z</time></trkpt><trkpt lat="41.2076517391158" lon="1.533709062142325"><ele>32.666666666666664</ele><time>2026-04-19T13:38:54.999Z</time></trkpt><trkpt lat="41.20754552791071" lon="1.533463457005284"><ele>33.0</ele><time>2026-04-19T13:38:55.999Z</time></trkpt><trkpt lat="41.2074251402787" lon="1.5332321997706277"><ele>32.333333333333336</ele><time>2026-04-19T13:38:56.999Z</time></trkpt><trkpt lat="41.20729724956014" lon="1.5330131881328206"><ele>31.666666666666668</ele><time>2026-04-19T13:38:57.999Z</time></trkpt><trkpt lat="41.20715620541165" lon="1.5328009962055222"><ele>31.0</ele><time>2026-04-19T13:38:58.999Z</time></trkpt><trkpt lat="41.20700589072213" lon="1.5325957606832747"><ele>31.0</ele><time>2026-04-19T13:38:59.999Z</time></trkpt><trkpt lat="41.20684449754406" lon="1.532403393841554"><ele>31.0</ele><time>2026-04-19T13:39:00.999Z</time></trkpt><trkpt lat="41.20666624152189" lon="1.5322241061161241"><ele>31.0</ele><time>2026-04-19T13:39:01.999Z</time></trkpt><trkpt lat="41.20647393946017" lon="1.5320618108970285"><ele>30.5</ele><time>2026-04-19T13:39:02.999Z</time></trkpt><trkpt lat="41.206270521203145" lon="1.5319218020649465"><ele>30.0</ele><time>2026-04-19T13:39:03.999Z</time></trkpt><trkpt lat="41.20606049225032" lon="1.5318001180120917"><ele>30.0</ele><time>2026-04-19T13:39:04.999Z</time></trkpt><trkpt lat="41.20584608878674" lon="1.5316957573756176"><ele>30.0</ele><time>2026-04-19T13:39:05.999Z</time></trkpt><trkpt lat="41.205636491518426" lon="1.5315877831383107"><ele>30.0</ele><time>2026-04-19T13:39:06.999Z</time></trkpt><trkpt lat="41.2054280002811" lon="1.5314783445273679"><ele>30.0</ele><time>2026-04-19T13:39:07.999Z</time></trkpt><trkpt lat="41.205218475030385" lon="1.5313669145549638"><ele>30.0</ele><time>2026-04-19T13:39:08.999Z</time></trkpt><trkpt lat="41.205006117888146" lon="1.5312554252181627"><ele>30.0</ele><time>2026-04-19T13:39:09.999Z</time></trkpt><trkpt lat="41.20479483233468" lon="1.5311458542529575"><ele>29.0</ele><time>2026-04-19T13:39:10.999Z</time></trkpt><trkpt lat="41.204578626023356" lon="1.5310331477122539"><ele>28.0</ele><time>2026-04-19T13:39:11.999Z</time></trkpt><trkpt lat="41.204366111865355" lon="1.5309265557410783"><ele>28.0</ele><time>2026-04-19T13:39:12.999Z</time></trkpt><trkpt lat="41.20415535870896" lon="1.530816278893657"><ele>28.0</ele><time>2026-04-19T13:39:13.999Z</time></trkpt><trkpt lat="41.20393817883779" lon="1.5307004599985088"><ele>26.5</ele><time>2026-04-19T13:39:14.999Z</time></trkpt><trkpt lat="41.203723186038474" lon="1.5305842974561352"><ele>25.0</ele><time>2026-04-19T13:39:15.999Z</time></trkpt><trkpt lat="41.203506217961454" lon="1.5304706282526552"><ele>25.0</ele><time>2026-04-19T13:39:16.999Z</time></trkpt><trkpt lat="41.20328573053849" lon="1.5303568678378985"><ele>25.0</ele><time>2026-04-19T13:39:17.999Z</time></trkpt><trkpt lat="41.20306419763254" lon="1.5302381499048736"><ele>24.0</ele><time>2026-04-19T13:39:18.999Z</time></trkpt><trkpt lat="41.202849185642584" lon="1.5301184963562662"><ele>23.0</ele><time>2026-04-19T13:39:19.999Z</time></trkpt><trkpt lat="41.20263484060068" lon="1.529987532089188"><ele>23.0</ele><time>2026-04-19T13:39:20.999Z</time></trkpt><trkpt lat="41.202418028466425" lon="1.5298864393099516"><ele>23.0</ele><time>2026-04-19T13:39:21.999Z</time></trkpt><trkpt lat="41.20220455425001" lon="1.5297768249395434"><ele>23.0</ele><time>2026-04-19T13:39:22.999Z</time></trkpt><trkpt lat="41.20199336744358" lon="1.5296656444652867"><ele>23.0</ele><time>2026-04-19T13:39:23.999Z</time></trkpt><trkpt lat="41.2017844485258" lon="1.5295544530842768"><ele>23.0</ele><time>2026-04-19T13:39:24.999Z</time></trkpt><trkpt lat="41.20157696152498" lon="1.5294397237782924"><ele>23.0</ele><time>2026-04-19T13:39:25.999Z</time></trkpt><trkpt lat="41.20136933368863" lon="1.529329010905354"><ele>23.0</ele><time>2026-04-19T13:39:26.999Z</time></trkpt><trkpt lat="41.201164489801684" lon="1.5292187962089465"><ele>22.666666666666668</ele><time>2026-04-19T13:39:27.999Z</time></trkpt><trkpt lat="41.20096016129738" lon="1.5291122216448458"><ele>22.333333333333332</ele><time>2026-04-19T13:39:28.999Z</time></trkpt><trkpt lat="41.200756008629234" lon="1.5290056951017525"><ele>22.0</ele><time>2026-04-19T13:39:29.999Z</time></trkpt><trkpt lat="41.20055407208166" lon="1.5288974288673318"><ele>22.0</ele><time>2026-04-19T13:39:30.999Z</time></trkpt><trkpt lat="41.20035585498745" lon="1.5287929717896525"><ele>22.0</ele><time>2026-04-19T13:39:31.999Z</time></trkpt><trkpt lat="41.20015195611169" lon="1.528681076698119"><ele>22.0</ele><time>2026-04-19T13:39:32.999Z</time></trkpt><trkpt lat="41.19995067149304" lon="1.528576266758313"><ele>22.666666666666664</ele><time>2026-04-19T13:39:33.999Z</time></trkpt><trkpt lat="41.19974933269521" lon="1.5284638147082636"><ele>23.333333333333332</ele><time>2026-04-19T13:39:34.999Z</time></trkpt><trkpt lat="41.19955066441998" lon="1.52836099332523"><ele>24.0</ele><time>2026-04-19T13:39:35.999Z</time></trkpt><trkpt lat="41.19935096966703" lon="1.528258444873237"><ele>24.0</ele><time>2026-04-19T13:39:36.999Z</time></trkpt><trkpt lat="41.199148163949644" lon="1.5281598445045803"><ele>24.0</ele><time>2026-04-19T13:39:37.999Z</time></trkpt><trkpt lat="41.198939211538004" lon="1.5280736284081742"><ele>24.0</ele><time>2026-04-19T13:39:38.999Z</time></trkpt><trkpt lat="41.198729464691596" lon="1.5279987421458676"><ele>24.333333333333336</ele><time>2026-04-19T13:39:39.999Z</time></trkpt><trkpt lat="41.198513825436955" lon="1.5279347316290022"><ele>24.666666666666668</ele><time>2026-04-19T13:39:40.999Z</time></trkpt><trkpt lat="41.198295561530436" lon="1.5278735963598158"><ele>25.0</ele><time>2026-04-19T13:39:41.999Z</time></trkpt><trkpt lat="41.19808509343604" lon="1.5278096293763928"><ele>27.0</ele><time>2026-04-19T13:39:42.999Z</time></trkpt><trkpt lat="41.19787685795494" lon="1.5277467056150238"><ele>29.0</ele><time>2026-04-19T13:39:43.999Z</time></trkpt><trkpt lat="41.19767054803293" lon="1.5276794958742648"><ele>31.0</ele><time>2026-04-19T13:39:44.999Z</time></trkpt><trkpt lat="41.1974776669043" lon="1.5276025901586252"><ele>30.0</ele><time>2026-04-19T13:39:45.999Z</time></trkpt><trkpt lat="41.197291653354" lon="1.5275069310907248"><ele>29.0</ele><time>2026-04-19T13:39:46.999Z</time></trkpt><trkpt lat="41.1971087675482" lon="1.527388734845382"><ele>28.0</ele><time>2026-04-19T13:39:47.999Z</time></trkpt><trkpt lat="41.19692283412285" lon="1.527255070505966"><ele>28.0</ele><time>2026-04-19T13:39:48.999Z</time></trkpt><trkpt lat="41.1967355002587" lon="1.5271229257763872"><ele>28.0</ele><time>2026-04-19T13:39:49.999Z</time></trkpt><trkpt lat="41.19654925522438" lon="1.5269936178181225"><ele>28.0</ele><time>2026-04-19T13:39:50.999Z</time></trkpt><trkpt lat="41.196375236014724" lon="1.5268705533132012"><ele>28.0</ele><time>2026-04-19T13:39:51.999Z</time></trkpt><trkpt lat="41.19621590855729" lon="1.5267615371347636"><ele>28.0</ele><time>2026-04-19T13:39:52.999Z</time></trkpt><trkpt lat="41.19606307039347" lon="1.5266575857814912"><ele>28.0</ele><time>2026-04-19T13:39:53.999Z</time></trkpt><trkpt lat="41.195910853398445" lon="1.5265496756351549"><ele>28.0</ele><time>2026-04-19T13:39:54.999Z</time></trkpt><trkpt lat="41.19576897110263" lon="1.5264513049862283"><ele>28.0</ele><time>2026-04-19T13:39:55.999Z</time></trkpt><trkpt lat="41.19564271127548" lon="1.526357772949573"><ele>28.0</ele><time>2026-04-19T13:39:56.999Z</time></trkpt><trkpt lat="41.19551582730129" lon="1.5262671489176676"><ele>28.0</ele><time>2026-04-19T13:39:57.999Z</time></trkpt><trkpt lat="41.195403908031295" lon="1.5261855462464637"><ele>27.75</ele><time>2026-04-19T13:39:59Z</time></trkpt><trkpt lat="41.19530470347244" lon="1.5260962593052751"><ele>27.5</ele><time>2026-04-19T13:40:00Z</time></trkpt><trkpt lat="41.19521959311239" lon="1.525988326041114"><ele>27.25</ele><time>2026-04-19T13:40:01Z</time></trkpt><trkpt lat="41.195152887375855" lon="1.5258592014501249"><ele>27.0</ele><time>2026-04-19T13:40:02Z</time></trkpt><trkpt lat="41.195110281828896" lon="1.5256919457182971"><ele>27.0</ele><time>2026-04-19T13:40:03Z</time></trkpt><trkpt lat="41.195094045161056" lon="1.5255076788191622"><ele>27.0</ele><time>2026-04-19T13:40:04Z</time></trkpt><trkpt lat="41.19506569574971" lon="1.5253387223579908"><ele>27.0</ele><time>2026-04-19T13:40:05Z</time></trkpt><trkpt lat="41.195010128021295" lon="1.5251898589820252"><ele>27.0</ele><time>2026-04-19T13:40:06Z</time></trkpt><trkpt lat="41.194932064473676" lon="1.5250625837765233"><ele>27.0</ele><time>2026-04-19T13:40:07Z</time></trkpt><trkpt lat="41.1948370621302" lon="1.524963967708054"><ele>27.0</ele><time>2026-04-19T13:40:08Z</time></trkpt><trkpt lat="41.19472551898404" lon="1.524897854041495"><ele>27.0</ele><time>2026-04-19T13:40:09Z</time></trkpt><trkpt lat="41.19459667593297" lon="1.5248332931995454"><ele>27.0</ele><time>2026-04-19T13:40:10Z</time></trkpt><trkpt lat="41.19444807966575" lon="1.5248666922983698"><ele>27.0</ele><time>2026-04-19T13:40:11Z</time></trkpt><trkpt lat="41.19430728628252" lon="1.524941979065149"><ele>27.0</ele><time>2026-04-19T13:40:12Z</time></trkpt><trkpt lat="41.194175820535555" lon="1.5250102638955887"><ele>27.0</ele><time>2026-04-19T13:40:13Z</time></trkpt><trkpt lat="41.19404075209346" lon="1.5250670040600842"><ele>27.0</ele><time>2026-04-19T13:40:14Z</time></trkpt><trkpt lat="41.193901764465444" lon="1.5250818859884785"><ele>26.333333333333336</ele><time>2026-04-19T13:40:15Z</time></trkpt><trkpt lat="41.19376013742061" lon="1.5250410822983842"><ele>25.666666666666668</ele><time>2026-04-19T13:40:16Z</time></trkpt><trkpt lat="41.193625449833554" lon="1.524952499890412"><ele>25.0</ele><time>2026-04-19T13:40:17Z</time></trkpt><trkpt lat="41.19348676542305" lon="1.5248189187020091"><ele>25.0</ele><time>2026-04-19T13:40:18Z</time></trkpt><trkpt lat="41.193322283692744" lon="1.524650406911277"><ele>25.0</ele><time>2026-04-19T13:40:19Z</time></trkpt><trkpt lat="41.193152272511085" lon="1.5244692859362723"><ele>25.0</ele><time>2026-04-19T13:40:20Z</time></trkpt><trkpt lat="41.19297748597218" lon="1.5242689140475465"><ele>25.0</ele><time>2026-04-19T13:40:21Z</time></trkpt><trkpt lat="41.19282727679976" lon="1.524080617400935"><ele>25.0</ele><time>2026-04-19T13:40:22Z</time></trkpt><trkpt lat="41.19267258843839" lon="1.5238901762199815"><ele>25.0</ele><time>2026-04-19T13:40:23Z</time></trkpt><trkpt lat="41.192514069612876" lon="1.5236968391712176"><ele>25.0</ele><time>2026-04-19T13:40:24Z</time></trkpt><trkpt lat="41.19235965052825" lon="1.5235125305887776"><ele>25.0</ele><time>2026-04-19T13:40:25Z</time></trkpt><trkpt lat="41.19221133119062" lon="1.5233240513004374"><ele>25.0</ele><time>2026-04-19T13:40:26Z</time></trkpt><trkpt lat="41.19205924173377" lon="1.5231435330984664"><ele>24.666666666666668</ele><time>2026-04-19T13:40:27Z</time></trkpt><trkpt lat="41.19190657048141" lon="1.5229628351371474"><ele>24.333333333333336</ele><time>2026-04-19T13:40:28Z</time></trkpt><trkpt lat="41.191757804721284" lon="1.5227850147944575"><ele>24.0</ele><time>2026-04-19T13:40:29Z</time></trkpt><trkpt lat="41.19161329622789" lon="1.5226101047639256"><ele>23.333333333333332</ele><time>2026-04-19T13:40:30Z</time></trkpt><trkpt lat="41.19146661142855" lon="1.5224316262631459"><ele>22.666666666666664</ele><time>2026-04-19T13:40:31Z</time></trkpt><trkpt lat="41.191320939083816" lon="1.5222537691551188"><ele>22.0</ele><time>2026-04-19T13:40:32Z</time></trkpt><trkpt lat="41.191174002986635" lon="1.522071625884647"><ele>22.666666666666664</ele><time>2026-04-19T13:40:33Z</time></trkpt><trkpt lat="41.19102841512225" lon="1.5218898756510495"><ele>23.333333333333332</ele><time>2026-04-19T13:40:34Z</time></trkpt><trkpt lat="41.19088258144148" lon="1.5217099535310512"><ele>24.0</ele><time>2026-04-19T13:40:35Z</time></trkpt><trkpt lat="41.19073539980183" lon="1.521522221148309"><ele>23.666666666666668</ele><time>2026-04-19T13:40:36Z</time></trkpt><trkpt lat="41.1905920426748" lon="1.5213299057872982"><ele>23.333333333333336</ele><time>2026-04-19T13:40:37Z</time></trkpt><trkpt lat="41.19044999368001" lon="1.5211334670997634"><ele>23.0</ele><time>2026-04-19T13:40:38Z</time></trkpt><trkpt lat="41.19030814148854" lon="1.52092689635881"><ele>23.0</ele><time>2026-04-19T13:40:39Z</time></trkpt><trkpt lat="41.19016427449082" lon="1.5207169658919852"><ele>23.0</ele><time>2026-04-19T13:40:40Z</time></trkpt><trkpt lat="41.1900128496955" lon="1.5205076437146043"><ele>23.0</ele><time>2026-04-19T13:40:41Z</time></trkpt><trkpt lat="41.189853676321164" lon="1.5202970925915096"><ele>22.333333333333336</ele><time>2026-04-19T13:40:42Z</time></trkpt><trkpt lat="41.18970563012035" lon="1.5200822258035338"><ele>21.666666666666668</ele><time>2026-04-19T13:40:43Z</time></trkpt><trkpt lat="41.18955655938345" lon="1.5198679587653081"><ele>21.0</ele><time>2026-04-19T13:40:44Z</time></trkpt><trkpt lat="41.189402001788025" lon="1.5196579065915767"><ele>21.0</ele><time>2026-04-19T13:40:45Z</time></trkpt><trkpt lat="41.18925351063161" lon="1.519453723755538"><ele>21.0</ele><time>2026-04-19T13:40:46Z</time></trkpt><trkpt lat="41.189110463343134" lon="1.519234524946857"><ele>21.0</ele><time>2026-04-19T13:40:47Z</time></trkpt><trkpt lat="41.18895865317464" lon="1.5190350719948444"><ele>21.0</ele><time>2026-04-19T13:40:48Z</time></trkpt><trkpt lat="41.188820376772654" lon="1.5188275143343877"><ele>21.0</ele><time>2026-04-19T13:40:49Z</time></trkpt><trkpt lat="41.188687333823744" lon="1.5186157199459365"><ele>21.0</ele><time>2026-04-19T13:40:50Z</time></trkpt><trkpt lat="41.18855783436219" lon="1.5183969948084657"><ele>21.0</ele><time>2026-04-19T13:40:51Z</time></trkpt><trkpt lat="41.188424666936854" lon="1.5181794691219956"><ele>21.0</ele><time>2026-04-19T13:40:52Z</time></trkpt><trkpt lat="41.18829841396965" lon="1.5179563724016152"><ele>21.0</ele><time>2026-04-19T13:40:53Z</time></trkpt><trkpt lat="41.188177856249936" lon="1.517738903839837"><ele>20.666666666666668</ele><time>2026-04-19T13:40:54Z</time></trkpt><trkpt lat="41.188061002080104" lon="1.517530933801331"><ele>20.333333333333336</ele><time>2026-04-19T13:40:55Z</time></trkpt><trkpt lat="41.18794589563869" lon="1.5173199448959993"><ele>20.0</ele><time>2026-04-19T13:40:56Z</time></trkpt><trkpt lat="41.18782691757705" lon="1.5171054111746556"><ele>21.0</ele><time>2026-04-19T13:40:57Z</time></trkpt><trkpt lat="41.18770769291152" lon="1.5168866113453139"><ele>22.0</ele><time>2026-04-19T13:40:58Z</time></trkpt><trkpt lat="41.187588593338745" lon="1.5166689330545124"><ele>23.0</ele><time>2026-04-19T13:40:59Z</time></trkpt><trkpt lat="41.18747123871999" lon="1.5164535778065447"><ele>23.333333333333336</ele><time>2026-04-19T13:41:00Z</time></trkpt><trkpt lat="41.18735491470689" lon="1.5162361518590528"><ele>23.666666666666668</ele><time>2026-04-19T13:41:01Z</time></trkpt><trkpt lat="41.187235180388804" lon="1.5160147248375748"><ele>24.0</ele><time>2026-04-19T13:41:02Z</time></trkpt><trkpt lat="41.18711397644371" lon="1.5157972579374888"><ele>23.0</ele><time>2026-04-19T13:41:03Z</time></trkpt><trkpt lat="41.18698836489337" lon="1.515584495538886"><ele>22.0</ele><time>2026-04-19T13:41:04Z</time></trkpt><trkpt lat="41.186866972676754" lon="1.5153669594201156"><ele>21.0</ele><time>2026-04-19T13:41:05Z</time></trkpt><trkpt lat="41.18674654250727" lon="1.51514051552808"><ele>21.0</ele><time>2026-04-19T13:41:06Z</time></trkpt><trkpt lat="41.18662520063153" lon="1.514918274049354"><ele>21.0</ele><time>2026-04-19T13:41:06.999Z</time></trkpt><trkpt lat="41.18650468479224" lon="1.5146922938612002"><ele>21.0</ele><time>2026-04-19T13:41:07.999Z</time></trkpt><trkpt lat="41.18638066990009" lon="1.5144685403841027"><ele>20.0</ele><time>2026-04-19T13:41:08.999Z</time></trkpt><trkpt lat="41.18625483635878" lon="1.51423889952662"><ele>19.0</ele><time>2026-04-19T13:41:09.999Z</time></trkpt><trkpt lat="41.18612673632484" lon="1.5140098209596693"><ele>18.0</ele><time>2026-04-19T13:41:10.999Z</time></trkpt><trkpt lat="41.18599689782733" lon="1.513775954198526"><ele>18.333333333333332</ele><time>2026-04-19T13:41:11.999Z</time></trkpt><trkpt lat="41.18586489861285" lon="1.5135396144681303"><ele>18.666666666666664</ele><time>2026-04-19T13:41:12.999Z</time></trkpt><trkpt lat="41.18572527899217" lon="1.5133064649075665"><ele>19.0</ele><time>2026-04-19T13:41:13.999Z</time></trkpt><trkpt lat="41.18558083297922" lon="1.5130723714012229"><ele>18.0</ele><time>2026-04-19T13:41:14.999Z</time></trkpt><trkpt lat="41.18543473010374" lon="1.512844261985617"><ele>17.0</ele><time>2026-04-19T13:41:15.999Z</time></trkpt><trkpt lat="41.185288891425" lon="1.512610114519312"><ele>17.0</ele><time>2026-04-19T13:41:16.999Z</time></trkpt><trkpt lat="41.18514375596908" lon="1.5123856829019204"><ele>17.0</ele><time>2026-04-19T13:41:17.999Z</time></trkpt><trkpt lat="41.18498221370271" lon="1.512160961277005"><ele>19.0</ele><time>2026-04-19T13:41:18.999Z</time></trkpt><trkpt lat="41.18482095376081" lon="1.5119399652998657"><ele>21.0</ele><time>2026-04-19T13:41:19.999Z</time></trkpt><trkpt lat="41.18465784569418" lon="1.511706241029341"><ele>21.0</ele><time>2026-04-19T13:41:20.999Z</time></trkpt><trkpt lat="41.18449199675532" lon="1.5114674879137984"><ele>21.0</ele><time>2026-04-19T13:41:21.999Z</time></trkpt><trkpt lat="41.18432493587873" lon="1.5112163983686462"><ele>21.5</ele><time>2026-04-19T13:41:22.999Z</time></trkpt><trkpt lat="41.18416307286229" lon="1.5109633142770662"><ele>22.0</ele><time>2026-04-19T13:41:23.999Z</time></trkpt><trkpt lat="41.184004572779024" lon="1.5107114083089799"><ele>22.0</ele><time>2026-04-19T13:41:24.999Z</time></trkpt><trkpt lat="41.183844896392934" lon="1.5104581087792714"><ele>22.0</ele><time>2026-04-19T13:41:25.999Z</time></trkpt><trkpt lat="41.183698165073174" lon="1.5102006074590462"><ele>21.5</ele><time>2026-04-19T13:41:26.999Z</time></trkpt><trkpt lat="41.183559509627045" lon="1.50994275859273"><ele>21.0</ele><time>2026-04-19T13:41:27.999Z</time></trkpt><trkpt lat="41.1834348376784" lon="1.5096856489210895"><ele>21.666666666666668</ele><time>2026-04-19T13:41:28.999Z</time></trkpt><trkpt lat="41.18331626277321" lon="1.5094354224416393"><ele>22.333333333333336</ele><time>2026-04-19T13:41:29.999Z</time></trkpt><trkpt lat="41.183196524020445" lon="1.5091863933635505"><ele>23.0</ele><time>2026-04-19T13:41:30.999Z</time></trkpt><trkpt lat="41.18307922936687" lon="1.5089446621028961"><ele>24.0</ele><time>2026-04-19T13:41:31.999Z</time></trkpt><trkpt lat="41.18296111873182" lon="1.508707639710456"><ele>25.0</ele><time>2026-04-19T13:41:32.999Z</time></trkpt><trkpt lat="41.182843341762535" lon="1.5084712705133627"><ele>26.0</ele><time>2026-04-19T13:41:33.999Z</time></trkpt><trkpt lat="41.1827272186166" lon="1.508227890857547"><ele>26.0</ele><time>2026-04-19T13:41:34.999Z</time></trkpt><trkpt lat="41.18261821412791" lon="1.5079939117958363"><ele>26.0</ele><time>2026-04-19T13:41:35.999Z</time></trkpt><trkpt lat="41.182511834567606" lon="1.507755404085354"><ele>26.0</ele><time>2026-04-19T13:41:36.999Z</time></trkpt><trkpt lat="41.182405331870136" lon="1.5075107538038952"><ele>26.0</ele><time>2026-04-19T13:41:37.999Z</time></trkpt><trkpt lat="41.18229941564971" lon="1.507256731814145"><ele>26.0</ele><time>2026-04-19T13:41:38.999Z</time></trkpt><trkpt lat="41.182189974620556" lon="1.50699405674366"><ele>26.0</ele><time>2026-04-19T13:41:39.999Z</time></trkpt><trkpt lat="41.18208131355964" lon="1.5067258830645711"><ele>23.0</ele><time>2026-04-19T13:41:40.999Z</time></trkpt><trkpt lat="41.18196656811272" lon="1.5064563518747425"><ele>20.0</ele><time>2026-04-19T13:41:41.999Z</time></trkpt><trkpt lat="41.18184849883931" lon="1.5061835504962846"><ele>19.0</ele><time>2026-04-19T13:41:42.999Z</time></trkpt><trkpt lat="41.18174192634268" lon="1.5059147550910965"><ele>18.0</ele><time>2026-04-19T13:41:43.999Z</time></trkpt><trkpt lat="41.18163167125423" lon="1.5056464684671516"><ele>18.0</ele><time>2026-04-19T13:41:44.999Z</time></trkpt><trkpt lat="41.181520667389904" lon="1.5053773933601822"><ele>18.0</ele><time>2026-04-19T13:41:45.999Z</time></trkpt><trkpt lat="41.18140766668303" lon="1.5051084991769463"><ele>18.0</ele><time>2026-04-19T13:41:46.999Z</time></trkpt><trkpt lat="41.181292003586464" lon="1.5048382800423445"><ele>18.0</ele><time>2026-04-19T13:41:47.999Z</time></trkpt><trkpt lat="41.18118025996551" lon="1.5045715565004907"><ele>18.5</ele><time>2026-04-19T13:41:48.999Z</time></trkpt><trkpt lat="41.181068067055335" lon="1.5043009416554574"><ele>19.0</ele><time>2026-04-19T13:41:49.999Z</time></trkpt><trkpt lat="41.18095911021782" lon="1.5040386849035159"><ele>19.0</ele><time>2026-04-19T13:41:50.999Z</time></trkpt><trkpt lat="41.180851814736485" lon="1.5037755993904969"><ele>19.0</ele><time>2026-04-19T13:41:51.999Z</time></trkpt><trkpt lat="41.180751024437235" lon="1.503526088111008"><ele>19.0</ele><time>2026-04-19T13:41:52.999Z</time></trkpt><trkpt lat="41.180644101442844" lon="1.5032731590671793"><ele>19.0</ele><time>2026-04-19T13:41:53.999Z</time></trkpt><trkpt lat="41.18053898070187" lon="1.5030129446648737"><ele>19.0</ele><time>2026-04-19T13:41:54.999Z</time></trkpt><trkpt lat="41.18043319174373" lon="1.50275495196779"><ele>19.0</ele><time>2026-04-19T13:41:55.999Z</time></trkpt><trkpt lat="41.180326731149485" lon="1.5024950214974044"><ele>19.0</ele><time>2026-04-19T13:41:56.999Z</time></trkpt><trkpt lat="41.18022052578908" lon="1.5022396760435897"><ele>19.0</ele><time>2026-04-19T13:41:57.999Z</time></trkpt><trkpt lat="41.180118058753" lon="1.5019888251869573"><ele>19.0</ele><time>2026-04-19T13:41:58.999Z</time></trkpt><trkpt lat="41.18001388026219" lon="1.50173337800157"><ele>19.0</ele><time>2026-04-19T13:41:59.999Z</time></trkpt><trkpt lat="41.17990980510948" lon="1.5014835966235311"><ele>19.0</ele><time>2026-04-19T13:42:00.999Z</time></trkpt><trkpt lat="41.17980698803882" lon="1.5012320148250702"><ele>19.0</ele><time>2026-04-19T13:42:01.999Z</time></trkpt><trkpt lat="41.17970189978742" lon="1.5009793894202075"><ele>19.0</ele><time>2026-04-19T13:42:02.999Z</time></trkpt><trkpt lat="41.17959355161759" lon="1.5007257859981447"><ele>19.0</ele><time>2026-04-19T13:42:03.999Z</time></trkpt><trkpt lat="41.17948680185759" lon="1.5004770174266195"><ele>19.0</ele><time>2026-04-19T13:42:05Z</time></trkpt><trkpt lat="41.17938006402143" lon="1.5002256506598521"><ele>19.333333333333332</ele><time>2026-04-19T13:42:06Z</time></trkpt><trkpt lat="41.179277317388" lon="1.4999771045814165"><ele>19.666666666666668</ele><time>2026-04-19T13:42:07Z</time></trkpt><trkpt lat="41.17917893636396" lon="1.4997298482051495"><ele>20.0</ele><time>2026-04-19T13:42:08Z</time></trkpt><trkpt lat="41.17908765905992" lon="1.4994783675346435"><ele>19.333333333333336</ele><time>2026-04-19T13:42:09Z</time></trkpt><trkpt lat="41.17900758080455" lon="1.4992243252811264"><ele>18.666666666666668</ele><time>2026-04-19T13:42:10Z</time></trkpt><trkpt lat="41.178936847804" lon="1.4989735937443338"><ele>18.0</ele><time>2026-04-19T13:42:11Z</time></trkpt><trkpt lat="41.17888123060365" lon="1.4987131567057712"><ele>17.333333333333332</ele><time>2026-04-19T13:42:12Z</time></trkpt><trkpt lat="41.17883969229332" lon="1.4984529158010895"><ele>16.666666666666664</ele><time>2026-04-19T13:42:13Z</time></trkpt><trkpt lat="41.178809444806376" lon="1.4981823632860272"><ele>16.0</ele><time>2026-04-19T13:42:14Z</time></trkpt><trkpt lat="41.17879101479419" lon="1.497902635163374"><ele>15.666666666666666</ele><time>2026-04-19T13:42:15Z</time></trkpt><trkpt lat="41.17877007999728" lon="1.4976196005271887"><ele>15.333333333333332</ele><time>2026-04-19T13:42:16Z</time></trkpt><trkpt lat="41.178743142393735" lon="1.4973332597113762"><ele>15.0</ele><time>2026-04-19T13:42:17Z</time></trkpt><trkpt lat="41.17871802724387" lon="1.4970476939820925"><ele>15.0</ele><time>2026-04-19T13:42:18Z</time></trkpt><trkpt lat="41.178693618465005" lon="1.496756080246323"><ele>15.0</ele><time>2026-04-19T13:42:19Z</time></trkpt><trkpt lat="41.17867201354347" lon="1.4964686691873057"><ele>15.0</ele><time>2026-04-19T13:42:20Z</time></trkpt><trkpt lat="41.1786511530967" lon="1.4961858066431895"><ele>15.0</ele><time>2026-04-19T13:42:21Z</time></trkpt><trkpt lat="41.178628907430394" lon="1.4958986367976184"><ele>15.0</ele><time>2026-04-19T13:42:22Z</time></trkpt><trkpt lat="41.17860615832042" lon="1.4956017730691382"><ele>15.0</ele><time>2026-04-19T13:42:23Z</time></trkpt><trkpt lat="41.17858116086993" lon="1.4953078388610115"><ele>15.0</ele><time>2026-04-19T13:42:24Z</time></trkpt><trkpt lat="41.17855602673024" lon="1.495009942965897"><ele>15.0</ele><time>2026-04-19T13:42:25Z</time></trkpt><trkpt lat="41.1785313672239" lon="1.4947082841748358"><ele>15.333333333333332</ele><time>2026-04-19T13:42:26Z</time></trkpt><trkpt lat="41.17850844638085" lon="1.494409213909697"><ele>15.666666666666666</ele><time>2026-04-19T13:42:27Z</time></trkpt><trkpt lat="41.17848609998933" lon="1.494118359611953"><ele>16.0</ele><time>2026-04-19T13:42:28Z</time></trkpt><trkpt lat="41.17846176528535" lon="1.4938338598083882"><ele>16.333333333333332</ele><time>2026-04-19T13:42:29Z</time></trkpt><trkpt lat="41.17843865347834" lon="1.4935452023723261"><ele>16.666666666666668</ele><time>2026-04-19T13:42:30Z</time></trkpt><trkpt lat="41.17841693890055" lon="1.4932585332406778"><ele>17.0</ele><time>2026-04-19T13:42:31Z</time></trkpt><trkpt lat="41.178391788535876" lon="1.492971560783687"><ele>16.333333333333336</ele><time>2026-04-19T13:42:32Z</time></trkpt><trkpt lat="41.178369843195505" lon="1.492684249771026"><ele>15.666666666666668</ele><time>2026-04-19T13:42:33Z</time></trkpt><trkpt lat="41.17834894307083" lon="1.492408721627284"><ele>15.0</ele><time>2026-04-19T13:42:34Z</time></trkpt><trkpt lat="41.17832660094039" lon="1.492130919118037"><ele>14.666666666666668</ele><time>2026-04-19T13:42:35Z</time></trkpt><trkpt lat="41.17830208548375" lon="1.491852211083442"><ele>14.333333333333334</ele><time>2026-04-19T13:42:36Z</time></trkpt><trkpt lat="41.17827940370588" lon="1.4915771950481613"><ele>14.0</ele><time>2026-04-19T13:42:37Z</time></trkpt><trkpt lat="41.178259194023916" lon="1.491309302485636"><ele>14.666666666666668</ele><time>2026-04-19T13:42:38Z</time></trkpt><trkpt lat="41.17823947818359" lon="1.4910615625135475"><ele>15.333333333333332</ele><time>2026-04-19T13:42:39Z</time></trkpt><trkpt lat="41.17821941759796" lon="1.4908250521141853"><ele>16.0</ele><time>2026-04-19T13:42:40Z</time></trkpt><trkpt lat="41.17820415384654" lon="1.490596521051892"><ele>16.75</ele><time>2026-04-19T13:42:41Z</time></trkpt><trkpt lat="41.178196225703225" lon="1.4903884063700426"><ele>17.5</ele><time>2026-04-19T13:42:42Z</time></trkpt><trkpt lat="41.17819731015243" lon="1.4902057294767512"><ele>18.25</ele><time>2026-04-19T13:42:43Z</time></trkpt><trkpt lat="41.178209835518075" lon="1.4900308392456068"><ele>19.0</ele><time>2026-04-19T13:42:44Z</time></trkpt><trkpt lat="41.17823293127161" lon="1.4898666541120327"><ele>19.0</ele><time>2026-04-19T13:42:45Z</time></trkpt><trkpt lat="41.17827364681044" lon="1.4897253786123672"><ele>19.0</ele><time>2026-04-19T13:42:46Z</time></trkpt><trkpt lat="41.17831864725446" lon="1.489599826053397"><ele>19.0</ele><time>2026-04-19T13:42:47Z</time></trkpt><trkpt lat="41.17833268475793" lon="1.4894754751390342"><ele>19.0</ele><time>2026-04-19T13:42:48Z</time></trkpt><trkpt lat="41.178289036662186" lon="1.4893331476499794"><ele>19.0</ele><time>2026-04-19T13:42:49Z</time></trkpt><trkpt lat="41.1782124416972" lon="1.4891990102094945"><ele>19.0</ele><time>2026-04-19T13:42:50Z</time></trkpt><trkpt lat="41.17812986688159" lon="1.489053740678758"><ele>19.0</ele><time>2026-04-19T13:42:51Z</time></trkpt><trkpt lat="41.17807990499271" lon="1.488852418043869"><ele>19.0</ele><time>2026-04-19T13:42:52Z</time></trkpt><trkpt lat="41.17805305404199" lon="1.4886086826928897"><ele>19.0</ele><time>2026-04-19T13:42:53Z</time></trkpt><trkpt lat="41.178040171928366" lon="1.4883450936125326"><ele>19.0</ele><time>2026-04-19T13:42:54Z</time></trkpt><trkpt lat="41.17803039128832" lon="1.4880830174125836"><ele>19.0</ele><time>2026-04-19T13:42:55Z</time></trkpt><trkpt lat="41.178015960517605" lon="1.4877946098008554"><ele>18.5</ele><time>2026-04-19T13:42:56Z</time></trkpt><trkpt lat="41.17799515104334" lon="1.4875301489072958"><ele>18.0</ele><time>2026-04-19T13:42:57Z</time></trkpt><trkpt lat="41.17798152501196" lon="1.4871865773887192"><ele>18.0</ele><time>2026-04-19T13:42:58Z</time></trkpt><trkpt lat="41.17796506649693" lon="1.4868444096278564"><ele>18.0</ele><time>2026-04-19T13:42:59Z</time></trkpt><trkpt lat="41.17794783874662" lon="1.4865052663763811"><ele>17.5</ele><time>2026-04-19T13:43:00Z</time></trkpt><trkpt lat="41.17792651033266" lon="1.486151491895368"><ele>17.0</ele><time>2026-04-19T13:43:01Z</time></trkpt><trkpt lat="41.17790276574008" lon="1.4858054505178324"><ele>17.0</ele><time>2026-04-19T13:43:02Z</time></trkpt><trkpt lat="41.17787787154126" lon="1.4854478919134817"><ele>17.0</ele><time>2026-04-19T13:43:03Z</time></trkpt><trkpt lat="41.17785406381318" lon="1.4850848601727111"><ele>17.0</ele><time>2026-04-19T13:43:04Z</time></trkpt><trkpt lat="41.17783185203497" lon="1.4847082289912537"><ele>17.0</ele><time>2026-04-19T13:43:05Z</time></trkpt><trkpt lat="41.17780887528412" lon="1.4843503041300596"><ele>17.5</ele><time>2026-04-19T13:43:06Z</time></trkpt><trkpt lat="41.177785940927116" lon="1.4839960870003122"><ele>18.0</ele><time>2026-04-19T13:43:07Z</time></trkpt><trkpt lat="41.17776111181967" lon="1.483635383361784"><ele>18.5</ele><time>2026-04-19T13:43:08Z</time></trkpt><trkpt lat="41.17773327987919" lon="1.4832805959762798"><ele>19.0</ele><time>2026-04-19T13:43:09Z</time></trkpt><trkpt lat="41.17771202570849" lon="1.4829144579229883"><ele>20.5</ele><time>2026-04-19T13:43:10Z</time></trkpt><trkpt lat="41.177683820706086" lon="1.4825652573705541"><ele>22.0</ele><time>2026-04-19T13:43:11Z</time></trkpt><trkpt lat="41.17766186076854" lon="1.4822111082322724"><ele>23.5</ele><time>2026-04-19T13:43:12Z</time></trkpt><trkpt lat="41.17764070952879" lon="1.4818783616089533"><ele>25.0</ele><time>2026-04-19T13:43:13Z</time></trkpt><trkpt lat="41.17761696689233" lon="1.4815471077207019"><ele>25.5</ele><time>2026-04-19T13:43:14Z</time></trkpt><trkpt lat="41.177594212857294" lon="1.48122239080037"><ele>26.0</ele><time>2026-04-19T13:43:14.999Z</time></trkpt><trkpt lat="41.17757023520226" lon="1.4808935051837053"><ele>26.0</ele><time>2026-04-19T13:43:15.999Z</time></trkpt><trkpt lat="41.17754737065597" lon="1.480569575320987"><ele>26.0</ele><time>2026-04-19T13:43:16.999Z</time></trkpt><trkpt lat="41.17751449055217" lon="1.480248749547317"><ele>26.5</ele><time>2026-04-19T13:43:17.999Z</time></trkpt><trkpt lat="41.17747463454817" lon="1.4799227019705317"><ele>27.0</ele><time>2026-04-19T13:43:18.999Z</time></trkpt><trkpt lat="41.17741141774801" lon="1.4796288664326633"><ele>27.333333333333336</ele><time>2026-04-19T13:43:19.999Z</time></trkpt><trkpt lat="41.177358262147166" lon="1.4793379122470853"><ele>27.666666666666668</ele><time>2026-04-19T13:43:20.999Z</time></trkpt><trkpt lat="41.17730781407029" lon="1.4790730151231477"><ele>28.0</ele><time>2026-04-19T13:43:21.999Z</time></trkpt><trkpt lat="41.17726535046539" lon="1.4787849242488214"><ele>28.333333333333336</ele><time>2026-04-19T13:43:22.999Z</time></trkpt><trkpt lat="41.17722404020491" lon="1.4784975611158595"><ele>28.666666666666664</ele><time>2026-04-19T13:43:23.999Z</time></trkpt><trkpt lat="41.17717646198023" lon="1.4782167325391777"><ele>29.0</ele><time>2026-04-19T13:43:24.999Z</time></trkpt><trkpt lat="41.177129878130884" lon="1.4779375096044227"><ele>28.333333333333332</ele><time>2026-04-19T13:43:25.999Z</time></trkpt><trkpt lat="41.177084322243" lon="1.4776586886899459"><ele>27.666666666666664</ele><time>2026-04-19T13:43:26.999Z</time></trkpt><trkpt lat="41.17703995321682" lon="1.4773797932924462"><ele>27.0</ele><time>2026-04-19T13:43:27.999Z</time></trkpt><trkpt lat="41.17699429749851" lon="1.4771043786400269"><ele>27.333333333333336</ele><time>2026-04-19T13:43:28.999Z</time></trkpt><trkpt lat="41.17695161117084" lon="1.4768309675728784"><ele>27.666666666666668</ele><time>2026-04-19T13:43:29.999Z</time></trkpt><trkpt lat="41.176909690930096" lon="1.4765576143716839"><ele>28.0</ele><time>2026-04-19T13:43:30.999Z</time></trkpt><trkpt lat="41.176863352079415" lon="1.476281949451112"><ele>29.0</ele><time>2026-04-19T13:43:31.999Z</time></trkpt><trkpt lat="41.17682079070892" lon="1.476004969000245"><ele>30.0</ele><time>2026-04-19T13:43:32.999Z</time></trkpt><trkpt lat="41.176774925256034" lon="1.4757257297336648"><ele>31.0</ele><time>2026-04-19T13:43:33.999Z</time></trkpt><trkpt lat="41.17672877864999" lon="1.4754427769079654"><ele>31.0</ele><time>2026-04-19T13:43:34.999Z</time></trkpt><trkpt lat="41.17668021909424" lon="1.4751588474937074"><ele>31.0</ele><time>2026-04-19T13:43:35.999Z</time></trkpt><trkpt lat="41.17663186140747" lon="1.474877372571285"><ele>31.0</ele><time>2026-04-19T13:43:36.999Z</time></trkpt><trkpt lat="41.176574727873025" lon="1.4745995326306047"><ele>31.0</ele><time>2026-04-19T13:43:37.999Z</time></trkpt><trkpt lat="41.176498813942146" lon="1.4743286637106616"><ele>31.0</ele><time>2026-04-19T13:43:38.999Z</time></trkpt><trkpt lat="41.17639128485541" lon="1.4740664653309523"><ele>31.0</ele><time>2026-04-19T13:43:39.999Z</time></trkpt><trkpt lat="41.17626541682371" lon="1.4738217315376299"><ele>30.0</ele><time>2026-04-19T13:43:40.999Z</time></trkpt><trkpt lat="41.176153379159764" lon="1.473564581564582"><ele>29.0</ele><time>2026-04-19T13:43:41.999Z</time></trkpt><trkpt lat="41.176034781458306" lon="1.473311318102897"><ele>28.0</ele><time>2026-04-19T13:43:42.999Z</time></trkpt><trkpt lat="41.17590931237437" lon="1.4730569008976688"><ele>26.5</ele><time>2026-04-19T13:43:43.999Z</time></trkpt><trkpt lat="41.17567437445317" lon="1.4728879142491658"><ele>25.0</ele><time>2026-04-19T13:43:44.999Z</time></trkpt><trkpt lat="41.17552709675338" lon="1.4726549449666346"><ele>25.0</ele><time>2026-04-19T13:43:45.999Z</time></trkpt><trkpt lat="41.17537945915792" lon="1.4724276072368154"><ele>25.0</ele><time>2026-04-19T13:43:46.999Z</time></trkpt><trkpt lat="41.175231188803224" lon="1.4721937803040797"><ele>23.5</ele><time>2026-04-19T13:43:47.999Z</time></trkpt><trkpt lat="41.17508233731568" lon="1.4719541310655577"><ele>22.0</ele><time>2026-04-19T13:43:48.999Z</time></trkpt><trkpt lat="41.174933915397645" lon="1.4717156506913012"><ele>21.0</ele><time>2026-04-19T13:43:49.999Z</time></trkpt><trkpt lat="41.17478811514505" lon="1.4714810064451114"><ele>20.0</ele><time>2026-04-19T13:43:50.999Z</time></trkpt><trkpt lat="41.17464433345165" lon="1.4712525516257713"><ele>20.0</ele><time>2026-04-19T13:43:51.999Z</time></trkpt><trkpt lat="41.174509490907006" lon="1.471039316659577"><ele>20.0</ele><time>2026-04-19T13:43:52.999Z</time></trkpt><trkpt lat="41.17438288717248" lon="1.470842029690596"><ele>20.0</ele><time>2026-04-19T13:43:53.999Z</time></trkpt><trkpt lat="41.17426077644958" lon="1.4706487498572067"><ele>20.0</ele><time>2026-04-19T13:43:54.999Z</time></trkpt><trkpt lat="41.17414528798266" lon="1.4704548726987963"><ele>20.0</ele><time>2026-04-19T13:43:55.999Z</time></trkpt><trkpt lat="41.174031510071764" lon="1.470250161546103"><ele>20.0</ele><time>2026-04-19T13:43:56.999Z</time></trkpt><trkpt lat="41.17391743669725" lon="1.470027951409198"><ele>19.0</ele><time>2026-04-19T13:43:57.999Z</time></trkpt><trkpt lat="41.17381541901501" lon="1.46979863384684"><ele>18.0</ele><time>2026-04-19T13:43:58.999Z</time></trkpt><trkpt lat="41.173718433955095" lon="1.4695654332662254"><ele>17.0</ele><time>2026-04-19T13:43:59.999Z</time></trkpt><trkpt lat="41.17361600441128" lon="1.4693294393149836"><ele>16.666666666666668</ele><time>2026-04-19T13:44:00.999Z</time></trkpt><trkpt lat="41.17350597206191" lon="1.4691076061420911"><ele>16.333333333333332</ele><time>2026-04-19T13:44:01.999Z</time></trkpt><trkpt lat="41.173378639335546" lon="1.4688947232845149"><ele>16.0</ele><time>2026-04-19T13:44:02.999Z</time></trkpt><trkpt lat="41.173228738923235" lon="1.4687088036820006"><ele>15.0</ele><time>2026-04-19T13:44:03.999Z</time></trkpt><trkpt lat="41.17306227306679" lon="1.4685335412918796"><ele>14.0</ele><time>2026-04-19T13:44:04.999Z</time></trkpt><trkpt lat="41.17289704890715" lon="1.4683586796961097"><ele>13.0</ele><time>2026-04-19T13:44:05.999Z</time></trkpt><trkpt lat="41.17273891451807" lon="1.468167382701456"><ele>13.0</ele><time>2026-04-19T13:44:06.999Z</time></trkpt><trkpt lat="41.172591133901804" lon="1.4679558342935008"><ele>13.0</ele><time>2026-04-19T13:44:07.999Z</time></trkpt><trkpt lat="41.172448657964715" lon="1.4677369851038269"><ele>13.0</ele><time>2026-04-19T13:44:08.999Z</time></trkpt><trkpt lat="41.17230654482443" lon="1.4675161536833583"><ele>12.0</ele><time>2026-04-19T13:44:09.999Z</time></trkpt><trkpt lat="41.17216618021834" lon="1.4672963269784005"><ele>11.0</ele><time>2026-04-19T13:44:11Z</time></trkpt><trkpt lat="41.17202318293441" lon="1.4670735828704007"><ele>10.0</ele><time>2026-04-19T13:44:12Z</time></trkpt><trkpt lat="41.17188535579845" lon="1.466847542975036"><ele>10.0</ele><time>2026-04-19T13:44:13Z</time></trkpt><trkpt lat="41.17174750538331" lon="1.4666245467577552"><ele>10.0</ele><time>2026-04-19T13:44:14Z</time></trkpt><trkpt lat="41.1716081135249" lon="1.4663976951378546"><ele>10.0</ele><time>2026-04-19T13:44:15Z</time></trkpt><trkpt lat="41.17146565122503" lon="1.4661712621149365"><ele>9.666666666666668</ele><time>2026-04-19T13:44:16Z</time></trkpt><trkpt lat="41.171322647020936" lon="1.4659446471469961"><ele>9.333333333333334</ele><time>2026-04-19T13:44:17Z</time></trkpt><trkpt lat="41.17117807646134" lon="1.4657140898681458"><ele>9.0</ele><time>2026-04-19T13:44:18Z</time></trkpt><trkpt lat="41.17103470692446" lon="1.4654823105690427"><ele>9.5</ele><time>2026-04-19T13:44:19Z</time></trkpt><trkpt lat="41.1708878216389" lon="1.4652483532847267"><ele>10.0</ele><time>2026-04-19T13:44:20Z</time></trkpt><trkpt lat="41.17073893362554" lon="1.4650151193407068"><ele>10.0</ele><time>2026-04-19T13:44:21Z</time></trkpt><trkpt lat="41.17058660303956" lon="1.4647767889265975"><ele>10.0</ele><time>2026-04-19T13:44:22Z</time></trkpt><trkpt lat="41.17043623226146" lon="1.4645414827343721"><ele>10.333333333333334</ele><time>2026-04-19T13:44:23Z</time></trkpt><trkpt lat="41.17029365302536" lon="1.464311175253388"><ele>10.666666666666666</ele><time>2026-04-19T13:44:24Z</time></trkpt><trkpt lat="41.17016249077258" lon="1.4641034888961557"><ele>11.0</ele><time>2026-04-19T13:44:25Z</time></trkpt><trkpt lat="41.17004122257404" lon="1.4639167765840138"><ele>10.666666666666666</ele><time>2026-04-19T13:44:26Z</time></trkpt><trkpt lat="41.16992815851432" lon="1.4637404701354892"><ele>10.333333333333334</ele><time>2026-04-19T13:44:27Z</time></trkpt><trkpt lat="41.169826402724624" lon="1.4635758763684565"><ele>10.0</ele><time>2026-04-19T13:44:28Z</time></trkpt><trkpt lat="41.169730053856476" lon="1.4634149648173227"><ele>10.0</ele><time>2026-04-19T13:44:29Z</time></trkpt><trkpt lat="41.1696296810576" lon="1.4632498612690195"><ele>10.0</ele><time>2026-04-19T13:44:30Z</time></trkpt><trkpt lat="41.169539960598925" lon="1.4630869513585347"><ele>10.0</ele><time>2026-04-19T13:44:31Z</time></trkpt><trkpt lat="41.16946746361186" lon="1.4629393256194156"><ele>10.0</ele><time>2026-04-19T13:44:32Z</time></trkpt><trkpt lat="41.169410753961" lon="1.4628097286778605"><ele>10.0</ele><time>2026-04-19T13:44:33Z</time></trkpt><trkpt lat="41.169355712827546" lon="1.46268764623386"><ele>10.0</ele><time>2026-04-19T13:44:34Z</time></trkpt><trkpt lat="41.16929689817738" lon="1.4625640279540264"><ele>10.0</ele><time>2026-04-19T13:44:35Z</time></trkpt><trkpt lat="41.169243048788346" lon="1.4624381495152703"><ele>10.0</ele><time>2026-04-19T13:44:36Z</time></trkpt><trkpt lat="41.16919481580199" lon="1.4623134354783058"><ele>10.0</ele><time>2026-04-19T13:44:37Z</time></trkpt><trkpt lat="41.16914914936039" lon="1.462186004243576"><ele>9.75</ele><time>2026-04-19T13:44:38Z</time></trkpt><trkpt lat="41.169102069606076" lon="1.4620578895880385"><ele>9.5</ele><time>2026-04-19T13:44:39Z</time></trkpt><trkpt lat="41.16905336812042" lon="1.4619224141818095"><ele>9.25</ele><time>2026-04-19T13:44:40Z</time></trkpt><trkpt lat="41.169004281499014" lon="1.461785025107155"><ele>9.0</ele><time>2026-04-19T13:44:41Z</time></trkpt><trkpt lat="41.168952986831044" lon="1.461647629713607"><ele>8.25</ele><time>2026-04-19T13:44:42Z</time></trkpt><trkpt lat="41.16890354003576" lon="1.4615095794500867"><ele>7.5</ele><time>2026-04-19T13:44:43Z</time></trkpt><trkpt lat="41.16884852030246" lon="1.4613614944165025"><ele>6.75</ele><time>2026-04-19T13:44:44Z</time></trkpt><trkpt lat="41.16879699874314" lon="1.4612221964819088"><ele>6.0</ele><time>2026-04-19T13:44:45Z</time></trkpt><trkpt lat="41.16874841979803" lon="1.461091857188318"><ele>6.0</ele><time>2026-04-19T13:44:46Z</time></trkpt><trkpt lat="41.16869705118093" lon="1.460949555089104"><ele>6.0</ele><time>2026-04-19T13:44:47Z</time></trkpt><trkpt lat="41.168646715945876" lon="1.4607972321232687"><ele>6.0</ele><time>2026-04-19T13:44:48Z</time></trkpt><trkpt lat="41.16858642427947" lon="1.4606444220147496"><ele>6.0</ele><time>2026-04-19T13:44:49Z</time></trkpt><trkpt lat="41.1685198447182" lon="1.4604822858562214"><ele>6.25</ele><time>2026-04-19T13:44:50Z</time></trkpt><trkpt lat="41.168458412563986" lon="1.4603065326456444"><ele>6.5</ele><time>2026-04-19T13:44:51Z</time></trkpt><trkpt lat="41.168398381192425" lon="1.4601237907692357"><ele>6.75</ele><time>2026-04-19T13:44:52Z</time></trkpt><trkpt lat="41.16833476579828" lon="1.4599468095711308"><ele>7.0</ele><time>2026-04-19T13:44:53Z</time></trkpt><trkpt lat="41.168276406280015" lon="1.459776590931648"><ele>7.0</ele><time>2026-04-19T13:44:54Z</time></trkpt><trkpt lat="41.16821691567831" lon="1.4596195262462717"><ele>7.0</ele><time>2026-04-19T13:44:55Z</time></trkpt><trkpt lat="41.16816879922806" lon="1.459452955232575"><ele>7.0</ele><time>2026-04-19T13:44:56Z</time></trkpt><trkpt lat="41.16813076554656" lon="1.4593027262811393"><ele>7.0</ele><time>2026-04-19T13:44:57Z</time></trkpt><trkpt lat="41.16809976316993" lon="1.459164173722"><ele>7.199999999999999</ele><time>2026-04-19T13:44:58Z</time></trkpt><trkpt lat="41.16807909146131" lon="1.4590247415876585"><ele>7.3999999999999995</ele><time>2026-04-19T13:44:59Z</time></trkpt><trkpt lat="41.16807673887866" lon="1.4588778457459908"><ele>7.6000000000000005</ele><time>2026-04-19T13:45:00Z</time></trkpt><trkpt lat="41.16809521964216" lon="1.458731375922132"><ele>7.800000000000001</ele><time>2026-04-19T13:45:01Z</time></trkpt><trkpt lat="41.168102991732574" lon="1.458603406784303"><ele>8.0</ele><time>2026-04-19T13:45:02Z</time></trkpt><trkpt lat="41.168065865886206" lon="1.4584992448215697"><ele>8.0</ele><time>2026-04-19T13:45:03Z</time></trkpt><trkpt lat="41.167989782470904" lon="1.4583949217295595"><ele>8.0</ele><time>2026-04-19T13:45:04Z</time></trkpt><trkpt lat="41.1678908822314" lon="1.4583003502926162"><ele>8.0</ele><time>2026-04-19T13:45:05Z</time></trkpt><trkpt lat="41.167782401939874" lon="1.458173021885573"><ele>8.0</ele><time>2026-04-19T13:45:06Z</time></trkpt><trkpt lat="41.167683247316305" lon="1.4579783664066084"><ele>8.0</ele><time>2026-04-19T13:45:07Z</time></trkpt><trkpt lat="41.16759785610646" lon="1.4577372397843116"><ele>8.0</ele><time>2026-04-19T13:45:08Z</time></trkpt><trkpt lat="41.167506714666864" lon="1.457436352395632"><ele>8.0</ele><time>2026-04-19T13:45:09Z</time></trkpt><trkpt lat="41.16739170336672" lon="1.4570662769913103"><ele>8.0</ele><time>2026-04-19T13:45:10Z</time></trkpt><trkpt lat="41.1672593635694" lon="1.4566601711980836"><ele>8.0</ele><time>2026-04-19T13:45:11Z</time></trkpt><trkpt lat="41.16714224392706" lon="1.4562126613972033"><ele>8.0</ele><time>2026-04-19T13:45:12Z</time></trkpt><trkpt lat="41.166999152802774" lon="1.4557772206817436"><ele>8.0</ele><time>2026-04-19T13:45:13Z</time></trkpt><trkpt lat="41.166887654683705" lon="1.4553915361673406"><ele>8.0</ele><time>2026-04-19T13:45:14Z</time></trkpt><trkpt lat="41.16679421902895" lon="1.4550466048908652"><ele>8.0</ele><time>2026-04-19T13:45:15Z</time></trkpt><trkpt lat="41.16671600022674" lon="1.4547162354693828"><ele>7.0</ele><time>2026-04-19T13:45:16Z</time></trkpt><trkpt lat="41.16665650467695" lon="1.4543994343534223"><ele>6.0</ele><time>2026-04-19T13:45:17Z</time></trkpt><trkpt lat="41.16660618220133" lon="1.4540889027531916"><ele>6.0</ele><time>2026-04-19T13:45:18Z</time></trkpt><trkpt lat="41.1665570848697" lon="1.4537933968625185"><ele>6.0</ele><time>2026-04-19T13:45:19Z</time></trkpt><trkpt lat="41.16650155035813" lon="1.453503582230225"><ele>6.0</ele><time>2026-04-19T13:45:20Z</time></trkpt><trkpt lat="41.16644702364548" lon="1.453214554168292"><ele>6.0</ele><time>2026-04-19T13:45:21Z</time></trkpt><trkpt lat="41.16639745370123" lon="1.4529521014742441"><ele>6.0</ele><time>2026-04-19T13:45:22Z</time></trkpt><trkpt lat="41.166355047810555" lon="1.4527042837800046"><ele>6.0</ele><time>2026-04-19T13:45:23Z</time></trkpt><trkpt lat="41.166304979520795" lon="1.4524611548811028"><ele>6.0</ele><time>2026-04-19T13:45:24Z</time></trkpt><trkpt lat="41.16624701457662" lon="1.4522167511163615"><ele>6.0</ele><time>2026-04-19T13:45:24.999Z</time></trkpt><trkpt lat="41.166182511425745" lon="1.4519921732486072"><ele>6.0</ele><time>2026-04-19T13:45:25.999Z</time></trkpt><trkpt lat="41.16611526835326" lon="1.4517643747684286"><ele>6.0</ele><time>2026-04-19T13:45:26.999Z</time></trkpt><trkpt lat="41.166045104109045" lon="1.4515568105340109"><ele>6.0</ele><time>2026-04-19T13:45:27.999Z</time></trkpt><trkpt lat="41.16596941609705" lon="1.4513567357492227"><ele>6.666666666666666</ele><time>2026-04-19T13:45:28.999Z</time></trkpt><trkpt lat="41.16589340565481" lon="1.4511579999285873"><ele>7.333333333333333</ele><time>2026-04-19T13:45:29.999Z</time></trkpt><trkpt lat="41.16582490422694" lon="1.4509557847924848"><ele>8.0</ele><time>2026-04-19T13:45:30.999Z</time></trkpt><trkpt lat="41.165755479155806" lon="1.450759317418809"><ele>8.0</ele><time>2026-04-19T13:45:31.999Z</time></trkpt><trkpt lat="41.16568188165526" lon="1.4505521852766643"><ele>8.0</ele><time>2026-04-19T13:45:32.999Z</time></trkpt><trkpt lat="41.165608314551086" lon="1.4503395481555719"><ele>8.0</ele><time>2026-04-19T13:45:33.999Z</time></trkpt><trkpt lat="41.16552768880895" lon="1.4501290204628845"><ele>8.0</ele><time>2026-04-19T13:45:34.999Z</time></trkpt><trkpt lat="41.16544813297572" lon="1.449907323415944"><ele>8.0</ele><time>2026-04-19T13:45:35.999Z</time></trkpt><trkpt lat="41.165367569278054" lon="1.4496917901019382"><ele>8.0</ele><time>2026-04-19T13:45:36.999Z</time></trkpt><trkpt lat="41.16529002166805" lon="1.4494768657735713"><ele>7.333333333333333</ele><time>2026-04-19T13:45:37.999Z</time></trkpt><trkpt lat="41.165207483838934" lon="1.4492565203002798"><ele>6.666666666666666</ele><time>2026-04-19T13:45:38.999Z</time></trkpt><trkpt lat="41.165125477542325" lon="1.4490372583745148"><ele>6.0</ele><time>2026-04-19T13:45:39.999Z</time></trkpt><trkpt lat="41.165035965539154" lon="1.4488077955442118"><ele>6.666666666666666</ele><time>2026-04-19T13:45:40.999Z</time></trkpt><trkpt lat="41.16494766628327" lon="1.448581484857816"><ele>7.333333333333333</ele><time>2026-04-19T13:45:41.999Z</time></trkpt><trkpt lat="41.16486558838552" lon="1.448360320863292"><ele>8.0</ele><time>2026-04-19T13:45:42.999Z</time></trkpt><trkpt lat="41.1647771158551" lon="1.4481378595408303"><ele>7.666666666666666</ele><time>2026-04-19T13:45:43.999Z</time></trkpt><trkpt lat="41.164688434652135" lon="1.447909337452423"><ele>7.333333333333334</ele><time>2026-04-19T13:45:44.999Z</time></trkpt><trkpt lat="41.1646048876293" lon="1.447681630744237"><ele>7.0</ele><time>2026-04-19T13:45:45.999Z</time></trkpt><trkpt lat="41.16452012097746" lon="1.4474481208713978"><ele>7.0</ele><time>2026-04-19T13:45:46.999Z</time></trkpt><trkpt lat="41.1644341633991" lon="1.4472172558592844"><ele>7.0</ele><time>2026-04-19T13:45:47.999Z</time></trkpt><trkpt lat="41.164343169881356" lon="1.4469836697661855"><ele>7.0</ele><time>2026-04-19T13:45:48.999Z</time></trkpt><trkpt lat="41.16424937185585" lon="1.446757118226747"><ele>7.333333333333334</ele><time>2026-04-19T13:45:49.999Z</time></trkpt><trkpt lat="41.164162937842214" lon="1.4465297108096848"><ele>7.666666666666666</ele><time>2026-04-19T13:45:50.999Z</time></trkpt><trkpt lat="41.164078392224766" lon="1.4462961787851494"><ele>8.0</ele><time>2026-04-19T13:45:51.999Z</time></trkpt><trkpt lat="41.163990775038336" lon="1.4460656534268364"><ele>8.0</ele><time>2026-04-19T13:45:52.999Z</time></trkpt><trkpt lat="41.16390508646891" lon="1.4458361481431168"><ele>8.0</ele><time>2026-04-19T13:45:53.999Z</time></trkpt><trkpt lat="41.16381958878912" lon="1.4456084648830858"><ele>8.0</ele><time>2026-04-19T13:45:54.999Z</time></trkpt><trkpt lat="41.16373192168893" lon="1.4453816558766577"><ele>8.666666666666666</ele><time>2026-04-19T13:45:55.999Z</time></trkpt><trkpt lat="41.163646494543286" lon="1.445150353419767"><ele>9.333333333333334</ele><time>2026-04-19T13:45:56.999Z</time></trkpt><trkpt lat="41.1635615410358" lon="1.4449192572504734"><ele>10.0</ele><time>2026-04-19T13:45:57.999Z</time></trkpt><trkpt lat="41.163474629583554" lon="1.444693401371086"><ele>10.0</ele><time>2026-04-19T13:45:58.999Z</time></trkpt><trkpt lat="41.163385779901276" lon="1.4444627959679535"><ele>10.0</ele><time>2026-04-19T13:45:59.999Z</time></trkpt><trkpt lat="41.16330167386788" lon="1.4442342655969755"><ele>10.0</ele><time>2026-04-19T13:46:00.999Z</time></trkpt><trkpt lat="41.163216947236705" lon="1.444012232211314"><ele>9.333333333333334</ele><time>2026-04-19T13:46:01.999Z</time></trkpt><trkpt lat="41.16313159994281" lon="1.4437840938749338"><ele>8.666666666666666</ele><time>2026-04-19T13:46:02.999Z</time></trkpt><trkpt lat="41.16304556320569" lon="1.443548828456724"><ele>8.0</ele><time>2026-04-19T13:46:03.999Z</time></trkpt><trkpt lat="41.162962929975436" lon="1.4433125235281894"><ele>8.0</ele><time>2026-04-19T13:46:04.999Z</time></trkpt><trkpt lat="41.16288841133271" lon="1.4430699174160928"><ele>8.0</ele><time>2026-04-19T13:46:05.999Z</time></trkpt><trkpt lat="41.16282526986027" lon="1.442817450913335"><ele>8.0</ele><time>2026-04-19T13:46:06.999Z</time></trkpt><trkpt lat="41.16276792346956" lon="1.4425604276486237"><ele>8.333333333333332</ele><time>2026-04-19T13:46:07.999Z</time></trkpt><trkpt lat="41.162712381709014" lon="1.4422991110568024"><ele>8.666666666666666</ele><time>2026-04-19T13:46:08.999Z</time></trkpt><trkpt lat="41.16265216037803" lon="1.442034017067669"><ele>9.0</ele><time>2026-04-19T13:46:09.999Z</time></trkpt><trkpt lat="41.16259769780291" lon="1.4417794836993403"><ele>9.0</ele><time>2026-04-19T13:46:10.999Z</time></trkpt><trkpt lat="41.16254008956687" lon="1.4415312782826069"><ele>9.0</ele><time>2026-04-19T13:46:11.999Z</time></trkpt><trkpt lat="41.1624855636406" lon="1.4412942613893918"><ele>9.0</ele><time>2026-04-19T13:46:12.999Z</time></trkpt><trkpt lat="41.16242928997777" lon="1.4410611276746075"><ele>8.666666666666666</ele><time>2026-04-19T13:46:13.999Z</time></trkpt><trkpt lat="41.16237104268141" lon="1.4408388421348926"><ele>8.333333333333332</ele><time>2026-04-19T13:46:14.999Z</time></trkpt><trkpt lat="41.16231486977414" lon="1.4406231462352137"><ele>8.0</ele><time>2026-04-19T13:46:15.999Z</time></trkpt><trkpt lat="41.16226102287617" lon="1.4404044251465042"><ele>8.0</ele><time>2026-04-19T13:46:17.001Z</time></trkpt><trkpt lat="41.1622073351163" lon="1.440187913902588"><ele>8.0</ele><time>2026-04-19T13:46:18.001Z</time></trkpt><trkpt lat="41.16215180181159" lon="1.4399641704718975"><ele>8.0</ele><time>2026-04-19T13:46:19.001Z</time></trkpt><trkpt lat="41.16209279125319" lon="1.439746510965872"><ele>8.0</ele><time>2026-04-19T13:46:20.001Z</time></trkpt><trkpt lat="41.16203375768078" lon="1.439522451679952"><ele>8.0</ele><time>2026-04-19T13:46:21.001Z</time></trkpt><trkpt lat="41.161981200562934" lon="1.4393100656966966"><ele>8.0</ele><time>2026-04-19T13:46:22Z</time></trkpt><trkpt lat="41.161928684526735" lon="1.439088709977744"><ele>8.0</ele><time>2026-04-19T13:46:23Z</time></trkpt><trkpt lat="41.16187712150312" lon="1.4388700980486588"><ele>8.0</ele><time>2026-04-19T13:46:24Z</time></trkpt><trkpt lat="41.161822941939974" lon="1.4386429089456827"><ele>8.0</ele><time>2026-04-19T13:46:25Z</time></trkpt><trkpt lat="41.161766919267826" lon="1.4384135106781657"><ele>8.333333333333332</ele><time>2026-04-19T13:46:26Z</time></trkpt><trkpt lat="41.16170781816243" lon="1.4381796876281157"><ele>8.666666666666666</ele><time>2026-04-19T13:46:27Z</time></trkpt><trkpt lat="41.161645386662265" lon="1.4379499045089918"><ele>9.0</ele><time>2026-04-19T13:46:28Z</time></trkpt><trkpt lat="41.16157703277435" lon="1.4377269493409925"><ele>9.0</ele><time>2026-04-19T13:46:29Z</time></trkpt><trkpt lat="41.16149647453566" lon="1.4375144185615383"><ele>9.0</ele><time>2026-04-19T13:46:30Z</time></trkpt><trkpt lat="41.16140795072937" lon="1.4373108745616354"><ele>9.0</ele><time>2026-04-19T13:46:31Z</time></trkpt><trkpt lat="41.16131005074613" lon="1.437119092867461"><ele>9.0</ele><time>2026-04-19T13:46:32Z</time></trkpt><trkpt lat="41.16121165165303" lon="1.4369402416607375"><ele>9.0</ele><time>2026-04-19T13:46:33Z</time></trkpt><trkpt lat="41.16110643777174" lon="1.4367687785471446"><ele>9.0</ele><time>2026-04-19T13:46:34Z</time></trkpt><trkpt lat="41.16099352759876" lon="1.4366064115584454"><ele>9.0</ele><time>2026-04-19T13:46:35Z</time></trkpt><trkpt lat="41.16087574813169" lon="1.4364494819487457"><ele>9.0</ele><time>2026-04-19T13:46:36Z</time></trkpt><trkpt lat="41.16075142593662" lon="1.4362981047575294"><ele>9.0</ele><time>2026-04-19T13:46:37Z</time></trkpt><trkpt lat="41.16062041038613" lon="1.436157900606665"><ele>9.0</ele><time>2026-04-19T13:46:38Z</time></trkpt><trkpt lat="41.160487218111804" lon="1.4360166405215888"><ele>9.0</ele><time>2026-04-19T13:46:39Z</time></trkpt><trkpt lat="41.16035536931326" lon="1.435877668140621"><ele>9.0</ele><time>2026-04-19T13:46:40Z</time></trkpt><trkpt lat="41.160222315122994" lon="1.4357345352860762"><ele>9.0</ele><time>2026-04-19T13:46:41Z</time></trkpt><trkpt lat="41.16009800471584" lon="1.4355992789049667"><ele>9.0</ele><time>2026-04-19T13:46:42Z</time></trkpt><trkpt lat="41.15997983264582" lon="1.4354768506108002"><ele>9.0</ele><time>2026-04-19T13:46:43Z</time></trkpt><trkpt lat="41.15987427626952" lon="1.4353544473339677"><ele>8.5</ele><time>2026-04-19T13:46:44Z</time></trkpt><trkpt lat="41.15977054175046" lon="1.4352349857033644"><ele>8.0</ele><time>2026-04-19T13:46:45Z</time></trkpt><trkpt lat="41.159664544614934" lon="1.4351172998647856"><ele>7.5</ele><time>2026-04-19T13:46:46Z</time></trkpt><trkpt lat="41.15955555176206" lon="1.4349915526454304"><ele>7.0</ele><time>2026-04-19T13:46:47Z</time></trkpt><trkpt lat="41.159447634112624" lon="1.4348621319512622"><ele>7.0</ele><time>2026-04-19T13:46:48Z</time></trkpt><trkpt lat="41.15933612973135" lon="1.4347316356696727"><ele>7.0</ele><time>2026-04-19T13:46:49Z</time></trkpt><trkpt lat="41.15922541576642" lon="1.434592370069985"><ele>7.0</ele><time>2026-04-19T13:46:50Z</time></trkpt><trkpt lat="41.15911317530186" lon="1.4344404014235645"><ele>6.0</ele><time>2026-04-19T13:46:51Z</time></trkpt><trkpt lat="41.159007167720375" lon="1.4342578387282594"><ele>5.0</ele><time>2026-04-19T13:46:52Z</time></trkpt><trkpt lat="41.15890234307719" lon="1.434076440079822"><ele>4.0</ele><time>2026-04-19T13:46:53Z</time></trkpt><trkpt lat="41.158791410898004" lon="1.4338762288808227"><ele>4.666666666666666</ele><time>2026-04-19T13:46:54Z</time></trkpt><trkpt lat="41.158680758574135" lon="1.4336729086357523"><ele>5.333333333333333</ele><time>2026-04-19T13:46:55Z</time></trkpt><trkpt lat="41.15856547425444" lon="1.4334665754137816"><ele>6.0</ele><time>2026-04-19T13:46:56Z</time></trkpt><trkpt lat="41.15845629959617" lon="1.4332574167531977"><ele>6.0</ele><time>2026-04-19T13:46:57Z</time></trkpt><trkpt lat="41.15833954459967" lon="1.4330612795759339"><ele>6.0</ele><time>2026-04-19T13:46:58Z</time></trkpt><trkpt lat="41.15822794962166" lon="1.4328554862299074"><ele>6.0</ele><time>2026-04-19T13:46:59Z</time></trkpt><trkpt lat="41.15812219337687" lon="1.432658304480112"><ele>6.333333333333334</ele><time>2026-04-19T13:47:00Z</time></trkpt><trkpt lat="41.15801747135142" lon="1.432474096694854"><ele>6.666666666666667</ele><time>2026-04-19T13:47:01Z</time></trkpt><trkpt lat="41.15791085770643" lon="1.4322909468513167"><ele>7.0</ele><time>2026-04-19T13:47:02Z</time></trkpt><trkpt lat="41.15781450054337" lon="1.4321187420871155"><ele>7.0</ele><time>2026-04-19T13:47:03Z</time></trkpt><trkpt lat="41.15772365144556" lon="1.4319526701560008"><ele>7.0</ele><time>2026-04-19T13:47:04Z</time></trkpt><trkpt lat="41.15763486597762" lon="1.431798874214506"><ele>7.0</ele><time>2026-04-19T13:47:05Z</time></trkpt><trkpt lat="41.157549792965185" lon="1.431658873043063"><ele>7.0</ele><time>2026-04-19T13:47:06Z</time></trkpt><trkpt lat="41.157462861839726" lon="1.4315173200791218"><ele>7.0</ele><time>2026-04-19T13:47:07Z</time></trkpt><trkpt lat="41.157381433835404" lon="1.4313753552703978"><ele>7.0</ele><time>2026-04-19T13:47:08Z</time></trkpt><trkpt lat="41.15730051477866" lon="1.4312456937089637"><ele>7.0</ele><time>2026-04-19T13:47:09Z</time></trkpt><trkpt lat="41.15721504160517" lon="1.4311200413345242"><ele>7.0</ele><time>2026-04-19T13:47:10Z</time></trkpt><trkpt lat="41.15712989069721" lon="1.4309987357142135"><ele>6.0</ele><time>2026-04-19T13:47:11Z</time></trkpt><trkpt lat="41.157048172634205" lon="1.4308847519274053"><ele>5.0</ele><time>2026-04-19T13:47:12Z</time></trkpt><trkpt lat="41.1569742435928" lon="1.4307735591825017"><ele>4.0</ele><time>2026-04-19T13:47:13Z</time></trkpt><trkpt lat="41.15690161826861" lon="1.4306631522430253"><ele>3.0</ele><time>2026-04-19T13:47:14Z</time></trkpt><trkpt lat="41.15683049019082" lon="1.430523086566742"><ele>2.5</ele><time>2026-04-19T13:47:15Z</time></trkpt><trkpt lat="41.15675450017992" lon="1.430399721147536"><ele>2.0</ele><time>2026-04-19T13:47:16Z</time></trkpt><trkpt lat="41.156685087001726" lon="1.430278706410082"><ele>1.5</ele><time>2026-04-19T13:47:17Z</time></trkpt><trkpt lat="41.156624290187665" lon="1.4301498619125959"><ele>1.0</ele><time>2026-04-19T13:47:18Z</time></trkpt><trkpt lat="41.15656937158297" lon="1.4300230172262722"><ele>1.0</ele><time>2026-04-19T13:47:19Z</time></trkpt><trkpt lat="41.1565146823274" lon="1.4299120193365065"><ele>1.0</ele><time>2026-04-19T13:47:20Z</time></trkpt><trkpt lat="41.156453638658604" lon="1.429772198666256"><ele>1.0</ele><time>2026-04-19T13:47:21Z</time></trkpt><trkpt lat="41.156407655582804" lon="1.429648566907132"><ele>1.0</ele><time>2026-04-19T13:47:22Z</time></trkpt><trkpt lat="41.15637034254928" lon="1.4295382607249816"><ele>1.0</ele><time>2026-04-19T13:47:23Z</time></trkpt><trkpt lat="41.1563339147095" lon="1.4294272493141187"><ele>1.3333333333333333</ele><time>2026-04-19T13:47:24Z</time></trkpt><trkpt lat="41.15630069557745" lon="1.4293232159180569"><ele>1.6666666666666665</ele><time>2026-04-19T13:47:25Z</time></trkpt><trkpt lat="41.156268456567865" lon="1.4292299286584702"><ele>2.0</ele><time>2026-04-19T13:47:26Z</time></trkpt><trkpt lat="41.15623869913394" lon="1.4291402628363372"><ele>2.3333333333333335</ele><time>2026-04-19T13:47:27Z</time></trkpt><trkpt lat="41.15621165455867" lon="1.4290502385523416"><ele>2.6666666666666665</ele><time>2026-04-19T13:47:28Z</time></trkpt><trkpt lat="41.156188554040725" lon="1.4289644103657682"><ele>3.0</ele><time>2026-04-19T13:47:29Z</time></trkpt><trkpt lat="41.1561669753913" lon="1.428870385708645"><ele>3.4</ele><time>2026-04-19T13:47:29.999Z</time></trkpt><trkpt lat="41.156157888149515" lon="1.428780573466321"><ele>3.8</ele><time>2026-04-19T13:47:30.999Z</time></trkpt><trkpt lat="41.15616370630713" lon="1.4286664861764828"><ele>4.2</ele><time>2026-04-19T13:47:31.999Z</time></trkpt><trkpt lat="41.156189375415906" lon="1.4285413807683116"><ele>4.6</ele><time>2026-04-19T13:47:32.999Z</time></trkpt><trkpt lat="41.1562274974424" lon="1.4284081941717999"><ele>5.0</ele><time>2026-04-19T13:47:33.999Z</time></trkpt><trkpt lat="41.15624497111615" lon="1.4282817341015883"><ele>5.0</ele><time>2026-04-19T13:47:34.999Z</time></trkpt><trkpt lat="41.156233743969146" lon="1.4281503531173356"><ele>5.0</ele><time>2026-04-19T13:47:35.999Z</time></trkpt><trkpt lat="41.15618874165562" lon="1.4280287947170685"><ele>5.0</ele><time>2026-04-19T13:47:36.999Z</time></trkpt><trkpt lat="41.15611636254512" lon="1.4279110813327813"><ele>5.0</ele><time>2026-04-19T13:47:37.999Z</time></trkpt><trkpt lat="41.15608246712738" lon="1.4277555073319697"><ele>5.0</ele><time>2026-04-19T13:47:38.999Z</time></trkpt><trkpt lat="41.15609292785416" lon="1.4275678654734167"><ele>5.0</ele><time>2026-04-19T13:47:39.999Z</time></trkpt><trkpt lat="41.15613587207975" lon="1.4273601800839077"><ele>5.0</ele><time>2026-04-19T13:47:40.999Z</time></trkpt><trkpt lat="41.156195634194134" lon="1.4271264343760424"><ele>5.0</ele><time>2026-04-19T13:47:41.999Z</time></trkpt><trkpt lat="41.156255951233355" lon="1.4268873604148478"><ele>5.0</ele><time>2026-04-19T13:47:42.999Z</time></trkpt><trkpt lat="41.15631997375579" lon="1.4266566788533181"><ele>5.0</ele><time>2026-04-19T13:47:43.999Z</time></trkpt><trkpt lat="41.15638986201959" lon="1.4264199259508514"><ele>5.0</ele><time>2026-04-19T13:47:44.999Z</time></trkpt><trkpt lat="41.156474270254016" lon="1.4261809227773954"><ele>6.333333333333334</ele><time>2026-04-19T13:47:45.999Z</time></trkpt><trkpt lat="41.15657038762455" lon="1.4259387782320914"><ele>7.666666666666667</ele><time>2026-04-19T13:47:46.999Z</time></trkpt><trkpt lat="41.15668841932258" lon="1.4256725867765763"><ele>9.0</ele><time>2026-04-19T13:47:47.999Z</time></trkpt><trkpt lat="41.156815474098956" lon="1.4254163119477177"><ele>9.333333333333334</ele><time>2026-04-19T13:47:48.999Z</time></trkpt><trkpt lat="41.15694609771623" lon="1.4251740770963919"><ele>9.666666666666668</ele><time>2026-04-19T13:47:49.999Z</time></trkpt><trkpt lat="41.157084055661876" lon="1.424941747292113"><ele>10.0</ele><time>2026-04-19T13:47:50.999Z</time></trkpt><trkpt lat="41.15722749047894" lon="1.424723746870487"><ele>10.666666666666668</ele><time>2026-04-19T13:47:51.999Z</time></trkpt><trkpt lat="41.157376121661386" lon="1.4245126302422504"><ele>11.333333333333334</ele><time>2026-04-19T13:47:52.999Z</time></trkpt><trkpt lat="41.15751687458174" lon="1.4243069440464577"><ele>12.0</ele><time>2026-04-19T13:47:53.999Z</time></trkpt><trkpt lat="41.157653907810655" lon="1.4240981788453182"><ele>12.0</ele><time>2026-04-19T13:47:54.999Z</time></trkpt><trkpt lat="41.15779250877125" lon="1.423884492565025"><ele>12.0</ele><time>2026-04-19T13:47:55.999Z</time></trkpt><trkpt lat="41.157930086885784" lon="1.4236720427015632"><ele>12.0</ele><time>2026-04-19T13:47:56.999Z</time></trkpt><trkpt lat="41.15805494355579" lon="1.4234647461620744"><ele>12.0</ele><time>2026-04-19T13:47:57.999Z</time></trkpt><trkpt lat="41.15817484831007" lon="1.423259301579735"><ele>12.0</ele><time>2026-04-19T13:47:58.999Z</time></trkpt><trkpt lat="41.158293341814165" lon="1.4230460295170568"><ele>12.0</ele><time>2026-04-19T13:47:59.999Z</time></trkpt><trkpt lat="41.15840842551813" lon="1.422825746813297"><ele>13.333333333333332</ele><time>2026-04-19T13:48:00.999Z</time></trkpt><trkpt lat="41.15852017663356" lon="1.422607234702216"><ele>14.666666666666666</ele><time>2026-04-19T13:48:01.999Z</time></trkpt><trkpt lat="41.15862621917723" lon="1.4223877044073954"><ele>16.0</ele><time>2026-04-19T13:48:02.999Z</time></trkpt><trkpt lat="41.15873284127472" lon="1.4221621312586457"><ele>15.666666666666666</ele><time>2026-04-19T13:48:03.999Z</time></trkpt><trkpt lat="41.1588380949686" lon="1.4219309462550318"><ele>15.333333333333332</ele><time>2026-04-19T13:48:04.999Z</time></trkpt><trkpt lat="41.15894391671867" lon="1.421674359933666"><ele>15.0</ele><time>2026-04-19T13:48:05.999Z</time></trkpt><trkpt lat="41.159049219812246" lon="1.4214075874796968"><ele>18.5</ele><time>2026-04-19T13:48:06.999Z</time></trkpt><trkpt lat="41.159152369383975" lon="1.4211199051181713"><ele>22.0</ele><time>2026-04-19T13:48:07.999Z</time></trkpt><trkpt lat="41.15925701482934" lon="1.420822814519965"><ele>22.0</ele><time>2026-04-19T13:48:08.999Z</time></trkpt><trkpt lat="41.15936295433213" lon="1.420511066921696"><ele>22.0</ele><time>2026-04-19T13:48:09.999Z</time></trkpt><trkpt lat="41.159474325311834" lon="1.4201926208078446"><ele>24.5</ele><time>2026-04-19T13:48:10.999Z</time></trkpt><trkpt lat="41.15958728875324" lon="1.4198669253692051"><ele>27.0</ele><time>2026-04-19T13:48:11.999Z</time></trkpt><trkpt lat="41.159697679249376" lon="1.4195502519375993"><ele>28.5</ele><time>2026-04-19T13:48:12.999Z</time></trkpt><trkpt lat="41.159803775162075" lon="1.4192361956081123"><ele>30.0</ele><time>2026-04-19T13:48:13.999Z</time></trkpt><trkpt lat="41.159913781974424" lon="1.4189139314677062"><ele>34.0</ele><time>2026-04-19T13:48:14.999Z</time></trkpt><trkpt lat="41.160020419566614" lon="1.41860353200222"><ele>38.0</ele><time>2026-04-19T13:48:15.999Z</time></trkpt><trkpt lat="41.160123647316695" lon="1.4183053579141043"><ele>38.0</ele><time>2026-04-19T13:48:16.999Z</time></trkpt><trkpt lat="41.160222391055456" lon="1.4180168046409518"><ele>38.0</ele><time>2026-04-19T13:48:17.999Z</time></trkpt><trkpt lat="41.16031590402587" lon="1.4177412505173725"><ele>38.0</ele><time>2026-04-19T13:48:18.999Z</time></trkpt><trkpt lat="41.160400628788835" lon="1.4174854554695664"><ele>38.0</ele><time>2026-04-19T13:48:19.999Z</time></trkpt><trkpt lat="41.160484902719084" lon="1.4172261292091852"><ele>38.0</ele><time>2026-04-19T13:48:20.999Z</time></trkpt><trkpt lat="41.16056743196917" lon="1.416955651523483"><ele>38.0</ele><time>2026-04-19T13:48:21.999Z</time></trkpt><trkpt lat="41.160654152898964" lon="1.4166802399618268"><ele>38.0</ele><time>2026-04-19T13:48:23Z</time></trkpt><trkpt lat="41.160734919357196" lon="1.4164059086138252"><ele>38.0</ele><time>2026-04-19T13:48:24Z</time></trkpt><trkpt lat="41.16080961662211" lon="1.4161293437980402"><ele>38.5</ele><time>2026-04-19T13:48:25Z</time></trkpt><trkpt lat="41.16088629371062" lon="1.4158365171775495"><ele>39.0</ele><time>2026-04-19T13:48:26Z</time></trkpt><trkpt lat="41.16096467161305" lon="1.4155402818919869"><ele>40.5</ele><time>2026-04-19T13:48:27Z</time></trkpt><trkpt lat="41.16104397855542" lon="1.4152461738206437"><ele>42.0</ele><time>2026-04-19T13:48:28Z</time></trkpt><trkpt lat="41.161122614947644" lon="1.4149586877304607"><ele>42.0</ele><time>2026-04-19T13:48:29Z</time></trkpt><trkpt lat="41.16120567088813" lon="1.414669546997565"><ele>42.0</ele><time>2026-04-19T13:48:30Z</time></trkpt><trkpt lat="41.16128485674523" lon="1.4143820917362804"><ele>42.5</ele><time>2026-04-19T13:48:31Z</time></trkpt><trkpt lat="41.161358901102275" lon="1.4140892150980646"><ele>43.0</ele><time>2026-04-19T13:48:32Z</time></trkpt><trkpt lat="41.16142904419624" lon="1.4137970264982656"><ele>44.5</ele><time>2026-04-19T13:48:33Z</time></trkpt><trkpt lat="41.161498131495684" lon="1.4135025162855266"><ele>46.0</ele><time>2026-04-19T13:48:34Z</time></trkpt><trkpt lat="41.16156733529232" lon="1.4132070070937126"><ele>50.0</ele><time>2026-04-19T13:48:35Z</time></trkpt><trkpt lat="41.1616354920436" lon="1.4129054767172657"><ele>54.0</ele><time>2026-04-19T13:48:36Z</time></trkpt><trkpt lat="41.16170001614657" lon="1.4126045502536995"><ele>54.0</ele><time>2026-04-19T13:48:37Z</time></trkpt><trkpt lat="41.16176366545584" lon="1.4123018132880687"><ele>54.0</ele><time>2026-04-19T13:48:38Z</time></trkpt><trkpt lat="41.16182632153706" lon="1.411996589637511"><ele>53.0</ele><time>2026-04-19T13:48:39Z</time></trkpt><trkpt lat="41.16188475671276" lon="1.411687368562439"><ele>52.0</ele><time>2026-04-19T13:48:40Z</time></trkpt><trkpt lat="41.16194075283644" lon="1.411376344530706"><ele>50.0</ele><time>2026-04-19T13:48:41Z</time></trkpt><trkpt lat="41.16199616205458" lon="1.4110663504358134"><ele>48.0</ele><time>2026-04-19T13:48:42Z</time></trkpt><trkpt lat="41.162044580115726" lon="1.410765589429098"><ele>47.333333333333336</ele><time>2026-04-19T13:48:43Z</time></trkpt><trkpt lat="41.16209527241941" lon="1.4104737515984245"><ele>46.66666666666667</ele><time>2026-04-19T13:48:44Z</time></trkpt><trkpt lat="41.16213769642766" lon="1.4101820556642073"><ele>46.0</ele><time>2026-04-19T13:48:45Z</time></trkpt><trkpt lat="41.16217431990989" lon="1.4098894947899931"><ele>44.0</ele><time>2026-04-19T13:48:46Z</time></trkpt><trkpt lat="41.16220428028041" lon="1.4095946098629566"><ele>42.0</ele><time>2026-04-19T13:48:47Z</time></trkpt><trkpt lat="41.162229251557136" lon="1.4093004847300954"><ele>40.0</ele><time>2026-04-19T13:48:48Z</time></trkpt><trkpt lat="41.16224995547518" lon="1.4090206786287862"><ele>38.0</ele><time>2026-04-19T13:48:49Z</time></trkpt><trkpt lat="41.162266167914474" lon="1.408741175681399"><ele>36.0</ele><time>2026-04-19T13:48:50Z</time></trkpt><trkpt lat="41.162278690924836" lon="1.4084688558676193"><ele>34.0</ele><time>2026-04-19T13:48:51Z</time></trkpt><trkpt lat="41.16228866100975" lon="1.4081927806118197"><ele>32.66666666666667</ele><time>2026-04-19T13:48:52Z</time></trkpt><trkpt lat="41.16229794355356" lon="1.407920504281185"><ele>31.333333333333336</ele><time>2026-04-19T13:48:53Z</time></trkpt><trkpt lat="41.1623018909333" lon="1.4076427700158116"><ele>30.0</ele><time>2026-04-19T13:48:54Z</time></trkpt><trkpt lat="41.16230018739932" lon="1.4073698164378239"><ele>29.333333333333336</ele><time>2026-04-19T13:48:55Z</time></trkpt><trkpt lat="41.162292822132486" lon="1.4070932070007598"><ele>28.666666666666668</ele><time>2026-04-19T13:48:56Z</time></trkpt><trkpt lat="41.16228067978693" lon="1.4068149572412019"><ele>28.0</ele><time>2026-04-19T13:48:57Z</time></trkpt><trkpt lat="41.16226422683159" lon="1.406534233684768"><ele>27.666666666666668</ele><time>2026-04-19T13:48:58Z</time></trkpt><trkpt lat="41.16224483311417" lon="1.40624922927677"><ele>27.333333333333336</ele><time>2026-04-19T13:48:59Z</time></trkpt><trkpt lat="41.162219819071346" lon="1.4059662315041395"><ele>27.0</ele><time>2026-04-19T13:49:00Z</time></trkpt><trkpt lat="41.16219424586345" lon="1.4056863020269807"><ele>27.333333333333336</ele><time>2026-04-19T13:49:01Z</time></trkpt><trkpt lat="41.16216259007401" lon="1.405407266956871"><ele>27.666666666666668</ele><time>2026-04-19T13:49:02Z</time></trkpt><trkpt lat="41.162121855481736" lon="1.4051302299941621"><ele>28.0</ele><time>2026-04-19T13:49:03Z</time></trkpt><trkpt lat="41.16207798936211" lon="1.4048481501714198"><ele>29.0</ele><time>2026-04-19T13:49:04Z</time></trkpt><trkpt lat="41.16203151490728" lon="1.4045675166083664"><ele>30.0</ele><time>2026-04-19T13:49:05Z</time></trkpt><trkpt lat="41.16198022098758" lon="1.4042890302910342"><ele>31.0</ele><time>2026-04-19T13:49:06Z</time></trkpt><trkpt lat="41.16192328381935" lon="1.4040162886413647"><ele>32.66666666666667</ele><time>2026-04-19T13:49:07Z</time></trkpt><trkpt lat="41.161861095068424" lon="1.4037480018201514"><ele>34.333333333333336</ele><time>2026-04-19T13:49:08Z</time></trkpt><trkpt lat="41.16179612830039" lon="1.4034920226742191"><ele>36.0</ele><time>2026-04-19T13:49:09Z</time></trkpt><trkpt lat="41.16173450817644" lon="1.40324677438959"><ele>36.0</ele><time>2026-04-19T13:49:10Z</time></trkpt><trkpt lat="41.16167086306283" lon="1.403018850724642"><ele>36.0</ele><time>2026-04-19T13:49:11Z</time></trkpt><trkpt lat="41.16160997925026" lon="1.4027981583392388"><ele>36.0</ele><time>2026-04-19T13:49:12Z</time></trkpt><trkpt lat="41.16154067152032" lon="1.4025747731549445"><ele>36.333333333333336</ele><time>2026-04-19T13:49:13Z</time></trkpt><trkpt lat="41.16146884689403" lon="1.4023433346543983"><ele>36.66666666666667</ele><time>2026-04-19T13:49:14Z</time></trkpt><trkpt lat="41.161393708685836" lon="1.4021149430542457"><ele>37.0</ele><time>2026-04-19T13:49:15Z</time></trkpt><trkpt lat="41.16131791052399" lon="1.4018879037371976"><ele>37.333333333333336</ele><time>2026-04-19T13:49:16Z</time></trkpt><trkpt lat="41.1612441226441" lon="1.4016530959071953"><ele>37.666666666666664</ele><time>2026-04-19T13:49:17Z</time></trkpt><trkpt lat="41.16116970209533" lon="1.4014143440670392"><ele>38.0</ele><time>2026-04-19T13:49:18Z</time></trkpt><trkpt lat="41.16109232402471" lon="1.4011802941493312"><ele>38.0</ele><time>2026-04-19T13:49:19Z</time></trkpt><trkpt lat="41.16101419752745" lon="1.4009426742747555"><ele>38.0</ele><time>2026-04-19T13:49:20Z</time></trkpt><trkpt lat="41.16093804471205" lon="1.400695654651056"><ele>38.0</ele><time>2026-04-19T13:49:21Z</time></trkpt><trkpt lat="41.160855527893695" lon="1.4004472373187893"><ele>38.0</ele><time>2026-04-19T13:49:22Z</time></trkpt><trkpt lat="41.16077465132286" lon="1.400197594577425"><ele>38.0</ele><time>2026-04-19T13:49:23Z</time></trkpt><trkpt lat="41.16069480664775" lon="1.3999479471430811"><ele>38.0</ele><time>2026-04-19T13:49:23.999Z</time></trkpt><trkpt lat="41.16061331260222" lon="1.3996980871671794"><ele>38.666666666666664</ele><time>2026-04-19T13:49:24.999Z</time></trkpt><trkpt lat="41.16052815237236" lon="1.3994367330838688"><ele>39.333333333333336</ele><time>2026-04-19T13:49:25.999Z</time></trkpt><trkpt lat="41.16044365944642" lon="1.3991743291936365"><ele>40.0</ele><time>2026-04-19T13:49:26.999Z</time></trkpt><trkpt lat="41.160358208668995" lon="1.3989067523403877"><ele>40.66666666666667</ele><time>2026-04-19T13:49:27.999Z</time></trkpt><trkpt lat="41.160271490891816" lon="1.3986400630376308"><ele>41.333333333333336</ele><time>2026-04-19T13:49:28.999Z</time></trkpt><trkpt lat="41.16018265356483" lon="1.3983746341238312"><ele>42.0</ele><time>2026-04-19T13:49:29.999Z</time></trkpt><trkpt lat="41.16009770796327" lon="1.398118164138808"><ele>43.333333333333336</ele><time>2026-04-19T13:49:30.999Z</time></trkpt><trkpt lat="41.1600150755662" lon="1.397875942382105"><ele>44.66666666666667</ele><time>2026-04-19T13:49:31.999Z</time></trkpt><trkpt lat="41.15993760271426" lon="1.3976415758545837"><ele>46.0</ele><time>2026-04-19T13:49:32.999Z</time></trkpt><trkpt lat="41.159867556010354" lon="1.3974276031541928"><ele>47.0</ele><time>2026-04-19T13:49:33.999Z</time></trkpt><trkpt lat="41.159804515960694" lon="1.3972313153981228"><ele>48.0</ele><time>2026-04-19T13:49:34.999Z</time></trkpt><trkpt lat="41.15974382551175" lon="1.3970354561705753"><ele>49.0</ele><time>2026-04-19T13:49:35.999Z</time></trkpt><trkpt lat="41.15968420385731" lon="1.396841391484076"><ele>50.666666666666664</ele><time>2026-04-19T13:49:36.999Z</time></trkpt><trkpt lat="41.15962386655338" lon="1.3966518106014798"><ele>52.33333333333333</ele><time>2026-04-19T13:49:37.999Z</time></trkpt><trkpt lat="41.15955713496312" lon="1.3964609606577123"><ele>54.0</ele><time>2026-04-19T13:49:38.999Z</time></trkpt><trkpt lat="41.15949374293703" lon="1.3962689945012012"><ele>54.0</ele><time>2026-04-19T13:49:39.999Z</time></trkpt><trkpt lat="41.15943781772684" lon="1.3960762349406657"><ele>54.0</ele><time>2026-04-19T13:49:40.999Z</time></trkpt><trkpt lat="41.15938555811636" lon="1.3958743734027907"><ele>54.0</ele><time>2026-04-19T13:49:41.999Z</time></trkpt><trkpt lat="41.15933307540875" lon="1.3956733073719214"><ele>53.0</ele><time>2026-04-19T13:49:42.999Z</time></trkpt><trkpt lat="41.15927872864718" lon="1.3954710344696475"><ele>52.0</ele><time>2026-04-19T13:49:43.999Z</time></trkpt><trkpt lat="41.15922118234307" lon="1.3952749758022855"><ele>51.0</ele><time>2026-04-19T13:49:44.999Z</time></trkpt><trkpt lat="41.1591677618708" lon="1.3950806530399453"><ele>51.0</ele><time>2026-04-19T13:49:45.999Z</time></trkpt><trkpt lat="41.15912572820248" lon="1.3948937966762294"><ele>51.0</ele><time>2026-04-19T13:49:46.999Z</time></trkpt><trkpt lat="41.159074357697676" lon="1.394705271156639"><ele>51.0</ele><time>2026-04-19T13:49:47.999Z</time></trkpt><trkpt lat="41.15902126669053" lon="1.3945047564159285"><ele>50.66666666666667</ele><time>2026-04-19T13:49:48.999Z</time></trkpt><trkpt lat="41.15898378213825" lon="1.394302655961598"><ele>50.333333333333336</ele><time>2026-04-19T13:49:49.999Z</time></trkpt><trkpt lat="41.158940190572324" lon="1.3941137061322506"><ele>50.0</ele><time>2026-04-19T13:49:50.999Z</time></trkpt><trkpt lat="41.15890147231653" lon="1.3939223013574085"><ele>49.0</ele><time>2026-04-19T13:49:51.999Z</time></trkpt><trkpt lat="41.15886872459114" lon="1.3937294392742783"><ele>48.0</ele><time>2026-04-19T13:49:52.999Z</time></trkpt><trkpt lat="41.15883879000275" lon="1.3935328580432644"><ele>47.0</ele><time>2026-04-19T13:49:53.999Z</time></trkpt><trkpt lat="41.15879953924385" lon="1.3933355565070833"><ele>47.0</ele><time>2026-04-19T13:49:54.999Z</time></trkpt><trkpt lat="41.15876435634225" lon="1.3931359886561305"><ele>47.0</ele><time>2026-04-19T13:49:55.999Z</time></trkpt><trkpt lat="41.158732954841504" lon="1.3929370567548605"><ele>47.0</ele><time>2026-04-19T13:49:56.999Z</time></trkpt><trkpt lat="41.15870849056203" lon="1.3927358515015136"><ele>47.0</ele><time>2026-04-19T13:49:57.999Z</time></trkpt><trkpt lat="41.15868001306064" lon="1.3925303863510323"><ele>47.0</ele><time>2026-04-19T13:49:58.999Z</time></trkpt><trkpt lat="41.158653241469885" lon="1.3923260464193405"><ele>47.0</ele><time>2026-04-19T13:49:59.999Z</time></trkpt><trkpt lat="41.158624374616856" lon="1.392109807214582"><ele>46.0</ele><time>2026-04-19T13:50:00.999Z</time></trkpt><trkpt lat="41.15860079491309" lon="1.3918831431331813"><ele>45.0</ele><time>2026-04-19T13:50:01.999Z</time></trkpt><trkpt lat="41.15857389375055" lon="1.3916587083838616"><ele>44.0</ele><time>2026-04-19T13:50:02.999Z</time></trkpt><trkpt lat="41.1585469927676" lon="1.3914290926294008"><ele>42.666666666666664</ele><time>2026-04-19T13:50:03.999Z</time></trkpt><trkpt lat="41.15851251413738" lon="1.3912075909406527"><ele>41.333333333333336</ele><time>2026-04-19T13:50:04.999Z</time></trkpt><trkpt lat="41.158488495124764" lon="1.3909801945033535"><ele>40.0</ele><time>2026-04-19T13:50:05.999Z</time></trkpt><trkpt lat="41.15845139875912" lon="1.390748115229479"><ele>40.0</ele><time>2026-04-19T13:50:06.999Z</time></trkpt><trkpt lat="41.15841159884956" lon="1.3905158120820351"><ele>40.0</ele><time>2026-04-19T13:50:07.999Z</time></trkpt><trkpt lat="41.158368766450735" lon="1.3902934440390877"><ele>40.0</ele><time>2026-04-19T13:50:08.999Z</time></trkpt><trkpt lat="41.15832660760637" lon="1.3900652284867094"><ele>39.0</ele><time>2026-04-19T13:50:09.999Z</time></trkpt><trkpt lat="41.158283920131815" lon="1.3898358458143658"><ele>38.0</ele><time>2026-04-19T13:50:10.999Z</time></trkpt><trkpt lat="41.158233503223705" lon="1.389604819625623"><ele>37.0</ele><time>2026-04-19T13:50:11.999Z</time></trkpt><trkpt lat="41.15817847997191" lon="1.3893726795154087"><ele>37.66666666666667</ele><time>2026-04-19T13:50:12.999Z</time></trkpt><trkpt lat="41.15812252243696" lon="1.3891415706657788"><ele>38.333333333333336</ele><time>2026-04-19T13:50:13.999Z</time></trkpt><trkpt lat="41.15805803632429" lon="1.3889214600404989"><ele>39.0</ele><time>2026-04-19T13:50:14.999Z</time></trkpt><trkpt lat="41.15799246399477" lon="1.3886931023951257"><ele>39.0</ele><time>2026-04-19T13:50:15.999Z</time></trkpt><trkpt lat="41.15791669830985" lon="1.3884651216713082"><ele>39.0</ele><time>2026-04-19T13:50:16.999Z</time></trkpt><trkpt lat="41.15783875557382" lon="1.3882301706860172"><ele>39.0</ele><time>2026-04-19T13:50:17.999Z</time></trkpt><trkpt lat="41.15775532113715" lon="1.3879934656626054"><ele>39.0</ele><time>2026-04-19T13:50:18.999Z</time></trkpt><trkpt lat="41.157662487027224" lon="1.3877572801199298"><ele>39.0</ele><time>2026-04-19T13:50:19.999Z</time></trkpt><trkpt lat="41.157573300851055" lon="1.3875183359158834"><ele>39.0</ele><time>2026-04-19T13:50:20.999Z</time></trkpt><trkpt lat="41.15747815878372" lon="1.3872793717257839"><ele>40.0</ele><time>2026-04-19T13:50:21.999Z</time></trkpt><trkpt lat="41.15737593476608" lon="1.3870424005152184"><ele>41.0</ele><time>2026-04-19T13:50:22.999Z</time></trkpt><trkpt lat="41.1572695479072" lon="1.3868058365039753"><ele>42.0</ele><time>2026-04-19T13:50:23.999Z</time></trkpt><trkpt lat="41.157159622607466" lon="1.3865683327562082"><ele>42.666666666666664</ele><time>2026-04-19T13:50:24.999Z</time></trkpt><trkpt lat="41.157048279944455" lon="1.3863256942034854"><ele>43.33333333333333</ele><time>2026-04-19T13:50:25.999Z</time></trkpt><trkpt lat="41.15693366749005" lon="1.3860862951860127"><ele>44.0</ele><time>2026-04-19T13:50:26.999Z</time></trkpt><trkpt lat="41.1568186108307" lon="1.385873928605027"><ele>44.0</ele><time>2026-04-19T13:50:27.999Z</time></trkpt><trkpt lat="41.156709681673306" lon="1.3856694130748106"><ele>44.0</ele><time>2026-04-19T13:50:29Z</time></trkpt><trkpt lat="41.15660587832176" lon="1.385454108581871"><ele>44.0</ele><time>2026-04-19T13:50:30Z</time></trkpt><trkpt lat="41.15650447020658" lon="1.385238754665778"><ele>45.0</ele><time>2026-04-19T13:50:31Z</time></trkpt><trkpt lat="41.15640716431403" lon="1.3850201306026007"><ele>46.0</ele><time>2026-04-19T13:50:32Z</time></trkpt><trkpt lat="41.1563052339945" lon="1.3848045614236013"><ele>47.0</ele><time>2026-04-19T13:50:33Z</time></trkpt><trkpt lat="41.15621656252065" lon="1.3845983698882494"><ele>48.0</ele><time>2026-04-19T13:50:34Z</time></trkpt><trkpt lat="41.156140619778036" lon="1.3844038880500977"><ele>49.0</ele><time>2026-04-19T13:50:35Z</time></trkpt><trkpt lat="41.15606306445286" lon="1.384207972453711"><ele>50.0</ele><time>2026-04-19T13:50:36Z</time></trkpt><trkpt lat="41.15599682908401" lon="1.3839996114939184"><ele>50.0</ele><time>2026-04-19T13:50:37Z</time></trkpt><trkpt lat="41.155933038014695" lon="1.383779909756113"><ele>50.0</ele><time>2026-04-19T13:50:38Z</time></trkpt><trkpt lat="41.155864022343714" lon="1.383569555521069"><ele>50.0</ele><time>2026-04-19T13:50:39Z</time></trkpt><trkpt lat="41.15580223981883" lon="1.3833560021166453"><ele>50.0</ele><time>2026-04-19T13:50:40Z</time></trkpt><trkpt lat="41.15574949665328" lon="1.383143449928657"><ele>50.0</ele><time>2026-04-19T13:50:41Z</time></trkpt><trkpt lat="41.155698288750486" lon="1.3829232924257187"><ele>50.0</ele><time>2026-04-19T13:50:42Z</time></trkpt><trkpt lat="41.15565390189154" lon="1.382693810623576"><ele>48.333333333333336</ele><time>2026-04-19T13:50:43Z</time></trkpt><trkpt lat="41.155611980431395" lon="1.3824617498724003"><ele>46.66666666666667</ele><time>2026-04-19T13:50:44Z</time></trkpt><trkpt lat="41.155576829726606" lon="1.3822204852119293"><ele>45.0</ele><time>2026-04-19T13:50:45Z</time></trkpt><trkpt lat="41.15554651642153" lon="1.3819867396664725"><ele>44.0</ele><time>2026-04-19T13:50:46Z</time></trkpt><trkpt lat="41.15552432457945" lon="1.3817416281804138"><ele>43.0</ele><time>2026-04-19T13:50:47Z</time></trkpt><trkpt lat="41.15550497194437" lon="1.381501534966373"><ele>42.0</ele><time>2026-04-19T13:50:48Z</time></trkpt><trkpt lat="41.15548667463746" lon="1.3812506235836146"><ele>41.666666666666664</ele><time>2026-04-19T13:50:49Z</time></trkpt><trkpt lat="41.155473651046535" lon="1.3810064266370772"><ele>41.33333333333333</ele><time>2026-04-19T13:50:50Z</time></trkpt><trkpt lat="41.155468932105926" lon="1.3807481162895585"><ele>41.0</ele><time>2026-04-19T13:50:51Z</time></trkpt><trkpt lat="41.15547310073613" lon="1.3804974737213835"><ele>42.33333333333333</ele><time>2026-04-19T13:50:52Z</time></trkpt><trkpt lat="41.15547959184611" lon="1.3802487191542303"><ele>43.666666666666664</ele><time>2026-04-19T13:50:53Z</time></trkpt><trkpt lat="41.155490581649474" lon="1.3800036936709523"><ele>45.0</ele><time>2026-04-19T13:50:54Z</time></trkpt><trkpt lat="41.15551552728719" lon="1.3797536231240868"><ele>45.333333333333336</ele><time>2026-04-19T13:50:55Z</time></trkpt><trkpt lat="41.155541811725556" lon="1.379500613312254"><ele>45.66666666666667</ele><time>2026-04-19T13:50:56Z</time></trkpt><trkpt lat="41.15556736350919" lon="1.3792522022107252"><ele>46.0</ele><time>2026-04-19T13:50:57Z</time></trkpt><trkpt lat="41.15560224374056" lon="1.3790178130242705"><ele>44.66666666666667</ele><time>2026-04-19T13:50:58Z</time></trkpt><trkpt lat="41.155638943662595" lon="1.37879082133422"><ele>43.333333333333336</ele><time>2026-04-19T13:50:59Z</time></trkpt><trkpt lat="41.15567686537975" lon="1.3785518472926757"><ele>42.0</ele><time>2026-04-19T13:51:00Z</time></trkpt><trkpt lat="41.15572371804532" lon="1.3783161155728307"><ele>42.0</ele><time>2026-04-19T13:51:01Z</time></trkpt><trkpt lat="41.155777215660535" lon="1.3780799480816057"><ele>42.0</ele><time>2026-04-19T13:51:02Z</time></trkpt><trkpt lat="41.15583307454003" lon="1.3778445583026546"><ele>42.0</ele><time>2026-04-19T13:51:03Z</time></trkpt><trkpt lat="41.15588514917605" lon="1.3776161879499131"><ele>42.666666666666664</ele><time>2026-04-19T13:51:04Z</time></trkpt><trkpt lat="41.155937204901804" lon="1.3773862276507896"><ele>43.33333333333333</ele><time>2026-04-19T13:51:05Z</time></trkpt><trkpt lat="41.155984728162565" lon="1.3771501613814738"><ele>44.0</ele><time>2026-04-19T13:51:06Z</time></trkpt><trkpt lat="41.156031510816604" lon="1.3769155578103547"><ele>44.33333333333333</ele><time>2026-04-19T13:51:07Z</time></trkpt><trkpt lat="41.156074272223016" lon="1.376680607652179"><ele>44.666666666666664</ele><time>2026-04-19T13:51:08Z</time></trkpt><trkpt lat="41.15611254302179" lon="1.3764558864654504"><ele>45.0</ele><time>2026-04-19T13:51:09Z</time></trkpt><trkpt lat="41.156149474380975" lon="1.3762229890851994"><ele>45.0</ele><time>2026-04-19T13:51:10Z</time></trkpt><trkpt lat="41.15618241864632" lon="1.3759689721911386"><ele>45.0</ele><time>2026-04-19T13:51:11Z</time></trkpt><trkpt lat="41.15621180540841" lon="1.3757158056078636"><ele>45.0</ele><time>2026-04-19T13:51:12Z</time></trkpt><trkpt lat="41.1562358960283" lon="1.375450068829282"><ele>44.0</ele><time>2026-04-19T13:51:13Z</time></trkpt><trkpt lat="41.156253599229636" lon="1.3751771600119624"><ele>43.0</ele><time>2026-04-19T13:51:14Z</time></trkpt><trkpt lat="41.156266771638194" lon="1.3749030444973143"><ele>42.0</ele><time>2026-04-19T13:51:15Z</time></trkpt><trkpt lat="41.156266499998665" lon="1.3746278209034353"><ele>41.0</ele><time>2026-04-19T13:51:16Z</time></trkpt><trkpt lat="41.156258955954655" lon="1.3743399483190035"><ele>40.0</ele><time>2026-04-19T13:51:17Z</time></trkpt><trkpt lat="41.15623862164944" lon="1.374022185457932"><ele>41.0</ele><time>2026-04-19T13:51:18Z</time></trkpt><trkpt lat="41.15621960522455" lon="1.3736671445697226"><ele>42.0</ele><time>2026-04-19T13:51:19Z</time></trkpt><trkpt lat="41.15619164293904" lon="1.3732969757455984"><ele>41.0</ele><time>2026-04-19T13:51:20Z</time></trkpt><trkpt lat="41.156150414190385" lon="1.3729172875060185"><ele>40.0</ele><time>2026-04-19T13:51:20.999Z</time></trkpt><trkpt lat="41.156095330286654" lon="1.372550668237294"><ele>40.0</ele><time>2026-04-19T13:51:21.999Z</time></trkpt><trkpt lat="41.15602534242842" lon="1.3722231737904198"><ele>40.0</ele><time>2026-04-19T13:51:22.999Z</time></trkpt><trkpt lat="41.15594620831399" lon="1.3719056520034605"><ele>37.0</ele><time>2026-04-19T13:51:23.999Z</time></trkpt><trkpt lat="41.15586009220189" lon="1.3715951647997853"><ele>34.0</ele><time>2026-04-19T13:51:24.999Z</time></trkpt><trkpt lat="41.15577026910185" lon="1.371295710984124"><ele>40.0</ele><time>2026-04-19T13:51:25.999Z</time></trkpt><trkpt lat="41.15567544176935" lon="1.3709985899291661"><ele>46.0</ele><time>2026-04-19T13:51:26.999Z</time></trkpt><trkpt lat="41.155572949333646" lon="1.370709533567678"><ele>43.0</ele><time>2026-04-19T13:51:27.999Z</time></trkpt><trkpt lat="41.15546002035084" lon="1.370425173612309"><ele>40.0</ele><time>2026-04-19T13:51:28.999Z</time></trkpt><trkpt lat="41.155339390094845" lon="1.370147938600172"><ele>40.0</ele><time>2026-04-19T13:51:29.999Z</time></trkpt><trkpt lat="41.15520659622835" lon="1.3698782469155504"><ele>40.0</ele><time>2026-04-19T13:51:30.999Z</time></trkpt><trkpt lat="41.15506806712663" lon="1.3696182408066502"><ele>35.0</ele><time>2026-04-19T13:51:31.999Z</time></trkpt><trkpt lat="41.154925812654554" lon="1.3693588302336805"><ele>30.0</ele><time>2026-04-19T13:51:32.999Z</time></trkpt><trkpt lat="41.15478030525823" lon="1.369109242914042"><ele>30.0</ele><time>2026-04-19T13:51:33.999Z</time></trkpt><trkpt lat="41.15463043497271" lon="1.368864645265917"><ele>30.0</ele><time>2026-04-19T13:51:34.999Z</time></trkpt><trkpt lat="41.15446973132316" lon="1.368635585983986"><ele>25.0</ele><time>2026-04-19T13:51:35.999Z</time></trkpt><trkpt lat="41.15430240143668" lon="1.3684148109025058"><ele>20.0</ele><time>2026-04-19T13:51:36.999Z</time></trkpt><trkpt lat="41.15413401606898" lon="1.3682092467699605"><ele>18.5</ele><time>2026-04-19T13:51:37.999Z</time></trkpt><trkpt lat="41.15395776398457" lon="1.3680123099119847"><ele>17.0</ele><time>2026-04-19T13:51:38.999Z</time></trkpt><trkpt lat="41.153778009758184" lon="1.3678189912492822"><ele>17.0</ele><time>2026-04-19T13:51:39.999Z</time></trkpt><trkpt lat="41.153586879384704" lon="1.3676310291588964"><ele>17.0</ele><time>2026-04-19T13:51:40.999Z</time></trkpt><trkpt lat="41.15339579107994" lon="1.36745813784161"><ele>16.5</ele><time>2026-04-19T13:51:41.999Z</time></trkpt><trkpt lat="41.15319628105961" lon="1.3672892763554843"><ele>16.0</ele><time>2026-04-19T13:51:42.999Z</time></trkpt><trkpt lat="41.152997829946884" lon="1.367131765069269"><ele>15.5</ele><time>2026-04-19T13:51:43.999Z</time></trkpt><trkpt lat="41.15279130403608" lon="1.366980506286362"><ele>15.0</ele><time>2026-04-19T13:51:44.999Z</time></trkpt><trkpt lat="41.15258100072545" lon="1.3668390722787556"><ele>16.0</ele><time>2026-04-19T13:51:45.999Z</time></trkpt><trkpt lat="41.15237038622626" lon="1.3666977857090854"><ele>17.0</ele><time>2026-04-19T13:51:46.999Z</time></trkpt><trkpt lat="41.15215932977363" lon="1.3665585111098544"><ele>17.0</ele><time>2026-04-19T13:51:47.999Z</time></trkpt><trkpt lat="41.1519485133261" lon="1.3664178617363099"><ele>17.0</ele><time>2026-04-19T13:51:48.999Z</time></trkpt><trkpt lat="41.15174349661787" lon="1.3662750443054488"><ele>15.5</ele><time>2026-04-19T13:51:49.999Z</time></trkpt><trkpt lat="41.15154256263903" lon="1.3661228054241121"><ele>14.0</ele><time>2026-04-19T13:51:50.999Z</time></trkpt><trkpt lat="41.15134858999262" lon="1.365958442851264"><ele>14.0</ele><time>2026-04-19T13:51:51.999Z</time></trkpt><trkpt lat="41.151162595074574" lon="1.3657817552641898"><ele>14.0</ele><time>2026-04-19T13:51:52.999Z</time></trkpt><trkpt lat="41.150987506594355" lon="1.3655881390500122"><ele>13.5</ele><time>2026-04-19T13:51:53.999Z</time></trkpt><trkpt lat="41.15082042373939" lon="1.3653854455134313"><ele>13.0</ele><time>2026-04-19T13:51:54.999Z</time></trkpt><trkpt lat="41.15065498642626" lon="1.3651726267281854"><ele>12.5</ele><time>2026-04-19T13:51:55.999Z</time></trkpt><trkpt lat="41.15049485291355" lon="1.3649505603301655"><ele>12.0</ele><time>2026-04-19T13:51:56.999Z</time></trkpt><trkpt lat="41.150343581308015" lon="1.3647139663377092"><ele>13.0</ele><time>2026-04-19T13:51:57.999Z</time></trkpt><trkpt lat="41.150196720778716" lon="1.3644647815572628"><ele>14.0</ele><time>2026-04-19T13:51:58.999Z</time></trkpt><trkpt lat="41.150061500232866" lon="1.3642003623794068"><ele>14.0</ele><time>2026-04-19T13:51:59.999Z</time></trkpt><trkpt lat="41.14993948810143" lon="1.3639288762809592"><ele>14.0</ele><time>2026-04-19T13:52:00.999Z</time></trkpt><trkpt lat="41.149831953888174" lon="1.3636532358636928"><ele>13.5</ele><time>2026-04-19T13:52:01.999Z</time></trkpt><trkpt lat="41.14972980818577" lon="1.3633678681859003"><ele>13.0</ele><time>2026-04-19T13:52:02.999Z</time></trkpt><trkpt lat="41.14963005767411" lon="1.3630881310722898"><ele>13.0</ele><time>2026-04-19T13:52:03.999Z</time></trkpt><trkpt lat="41.1495305084135" lon="1.3628039788221744"><ele>13.0</ele><time>2026-04-19T13:52:04.999Z</time></trkpt><trkpt lat="41.149427791983506" lon="1.362524413211488"><ele>13.0</ele><time>2026-04-19T13:52:05.999Z</time></trkpt><trkpt lat="41.14932352398451" lon="1.362246138503348"><ele>13.0</ele><time>2026-04-19T13:52:06.999Z</time></trkpt><trkpt lat="41.14921417221379" lon="1.3619718094205417"><ele>12.5</ele><time>2026-04-19T13:52:07.999Z</time></trkpt><trkpt lat="41.14910124677109" lon="1.3617031180669548"><ele>12.0</ele><time>2026-04-19T13:52:08.999Z</time></trkpt><trkpt lat="41.14898592980357" lon="1.3614456560905273"><ele>11.5</ele><time>2026-04-19T13:52:09.999Z</time></trkpt><trkpt lat="41.148866536633555" lon="1.3611898014680512"><ele>11.0</ele><time>2026-04-19T13:52:10.999Z</time></trkpt><trkpt lat="41.148742071834754" lon="1.3609324094591"><ele>11.0</ele><time>2026-04-19T13:52:11.999Z</time></trkpt><trkpt lat="41.14861937292512" lon="1.3606800524981861"><ele>11.0</ele><time>2026-04-19T13:52:12.999Z</time></trkpt><trkpt lat="41.14849456435813" lon="1.3604244261086191"><ele>12.0</ele><time>2026-04-19T13:52:13.999Z</time></trkpt><trkpt lat="41.14837195140169" lon="1.3601667826607728"><ele>13.0</ele><time>2026-04-19T13:52:14.999Z</time></trkpt><trkpt lat="41.14824899020779" lon="1.3599035982522554"><ele>12.0</ele><time>2026-04-19T13:52:15.999Z</time></trkpt><trkpt lat="41.148131699351815" lon="1.359637860281944"><ele>11.0</ele><time>2026-04-19T13:52:16.999Z</time></trkpt><trkpt lat="41.148016795872486" lon="1.3593709179493714"><ele>11.0</ele><time>2026-04-19T13:52:17.999Z</time></trkpt><trkpt lat="41.1479054396101" lon="1.3590935514712688"><ele>11.0</ele><time>2026-04-19T13:52:18.999Z</time></trkpt><trkpt lat="41.14780155852523" lon="1.3588134928800701"><ele>13.5</ele><time>2026-04-19T13:52:19.999Z</time></trkpt><trkpt lat="41.14770096696054" lon="1.3585319963573252"><ele>16.0</ele><time>2026-04-19T13:52:20.999Z</time></trkpt><trkpt lat="41.14760335844052" lon="1.3582429814335786"><ele>16.5</ele><time>2026-04-19T13:52:21.999Z</time></trkpt><trkpt lat="41.147512650310006" lon="1.3579502973235458"><ele>17.0</ele><time>2026-04-19T13:52:22.999Z</time></trkpt><trkpt lat="41.147430339050985" lon="1.357652799719151"><ele>16.5</ele><time>2026-04-19T13:52:23.999Z</time></trkpt><trkpt lat="41.1473487037894" lon="1.3573550913145798"><ele>16.0</ele><time>2026-04-19T13:52:24.999Z</time></trkpt><trkpt lat="41.14726938111201" lon="1.3570570573207268"><ele>18.0</ele><time>2026-04-19T13:52:25.999Z</time></trkpt><trkpt lat="41.147190195133774" lon="1.3567605350406664"><ele>20.0</ele><time>2026-04-19T13:52:26.999Z</time></trkpt><trkpt lat="41.147114168497" lon="1.356465558494711"><ele>19.0</ele><time>2026-04-19T13:52:27.999Z</time></trkpt><trkpt lat="41.1470449140258" lon="1.3561743698862505"><ele>18.0</ele><time>2026-04-19T13:52:28.999Z</time></trkpt><trkpt lat="41.14697513215016" lon="1.355879943913451"><ele>18.0</ele><time>2026-04-19T13:52:29.998Z</time></trkpt><trkpt lat="41.146901587600084" lon="1.3555905385017601"><ele>18.0</ele><time>2026-04-19T13:52:30.998Z</time></trkpt><trkpt lat="41.14681466504101" lon="1.3552998169805661"><ele>18.0</ele><time>2026-04-19T13:52:31.998Z</time></trkpt><trkpt lat="41.14671885435431" lon="1.3550142943353938"><ele>18.0</ele><time>2026-04-19T13:52:32.998Z</time></trkpt><trkpt lat="41.14661139803998" lon="1.3547346718274935"><ele>19.5</ele><time>2026-04-19T13:52:33.998Z</time></trkpt><trkpt lat="41.146495791580286" lon="1.354459389983624"><ele>21.0</ele><time>2026-04-19T13:52:35Z</time></trkpt><trkpt lat="41.146372130444774" lon="1.3541860735429008"><ele>21.0</ele><time>2026-04-19T13:52:36Z</time></trkpt><trkpt lat="41.146235650486695" lon="1.3539135442674555"><ele>21.0</ele><time>2026-04-19T13:52:37Z</time></trkpt><trkpt lat="41.14608779614997" lon="1.3536548986414467"><ele>21.0</ele><time>2026-04-19T13:52:38Z</time></trkpt><trkpt lat="41.14592823613764" lon="1.3534041020480028"><ele>21.0</ele><time>2026-04-19T13:52:39Z</time></trkpt><trkpt lat="41.14576245929669" lon="1.353162588040675"><ele>19.5</ele><time>2026-04-19T13:52:40Z</time></trkpt><trkpt lat="41.145588688359716" lon="1.3529267489205006"><ele>18.0</ele><time>2026-04-19T13:52:41Z</time></trkpt><trkpt lat="41.145408244249104" lon="1.3527068385991987"><ele>18.0</ele><time>2026-04-19T13:52:42Z</time></trkpt><trkpt lat="41.14521916569381" lon="1.3524969973676104"><ele>18.0</ele><time>2026-04-19T13:52:43Z</time></trkpt><trkpt lat="41.145028167495376" lon="1.35230077615009"><ele>19.0</ele><time>2026-04-19T13:52:44Z</time></trkpt><trkpt lat="41.14483090928777" lon="1.3521195374905335"><ele>20.0</ele><time>2026-04-19T13:52:45Z</time></trkpt><trkpt lat="41.14462981190779" lon="1.351953209079298"><ele>20.0</ele><time>2026-04-19T13:52:46Z</time></trkpt><trkpt lat="41.14442193291422" lon="1.35179437061594"><ele>20.0</ele><time>2026-04-19T13:52:47Z</time></trkpt><trkpt lat="41.14421292863778" lon="1.3516523484421206"><ele>17.5</ele><time>2026-04-19T13:52:48Z</time></trkpt><trkpt lat="41.14399716280495" lon="1.35151231054254"><ele>15.0</ele><time>2026-04-19T13:52:49Z</time></trkpt><trkpt lat="41.14377708331072" lon="1.3513942347171155"><ele>16.0</ele><time>2026-04-19T13:52:50Z</time></trkpt><trkpt lat="41.1435516958891" lon="1.3512889151057643"><ele>17.0</ele><time>2026-04-19T13:52:51Z</time></trkpt><trkpt lat="41.14332078128655" lon="1.351202175417877"><ele>14.5</ele><time>2026-04-19T13:52:52Z</time></trkpt><trkpt lat="41.14308792409945" lon="1.351122712391668"><ele>12.0</ele><time>2026-04-19T13:52:53Z</time></trkpt><trkpt lat="41.14285870659651" lon="1.351051373177235"><ele>12.0</ele><time>2026-04-19T13:52:54Z</time></trkpt><trkpt lat="41.14263538229983" lon="1.3509899498811444"><ele>12.0</ele><time>2026-04-19T13:52:55Z</time></trkpt><trkpt lat="41.14242083780352" lon="1.350938060048318"><ele>12.0</ele><time>2026-04-19T13:52:56Z</time></trkpt><trkpt lat="41.14220624580228" lon="1.3508708194278674"><ele>10.0</ele><time>2026-04-19T13:52:57Z</time></trkpt><trkpt lat="41.14198526399606" lon="1.350794297188541"><ele>8.0</ele><time>2026-04-19T13:52:58Z</time></trkpt><trkpt lat="41.141768593554495" lon="1.350703918419208"><ele>8.0</ele><time>2026-04-19T13:52:59Z</time></trkpt><trkpt lat="41.14156632410047" lon="1.3506068008616785"><ele>8.0</ele><time>2026-04-19T13:53:00Z</time></trkpt><trkpt lat="41.14138507315247" lon="1.350493971937745"><ele>8.0</ele><time>2026-04-19T13:53:01Z</time></trkpt><trkpt lat="41.14120205255956" lon="1.350367797118572"><ele>8.0</ele><time>2026-04-19T13:53:02Z</time></trkpt><trkpt lat="41.14102137456332" lon="1.3502267778319816"><ele>8.0</ele><time>2026-04-19T13:53:03Z</time></trkpt><trkpt lat="41.14084324206434" lon="1.3500739857577528"><ele>8.0</ele><time>2026-04-19T13:53:04Z</time></trkpt><trkpt lat="41.140673802133655" lon="1.349912295876969"><ele>8.0</ele><time>2026-04-19T13:53:05Z</time></trkpt><trkpt lat="41.1405181427449" lon="1.3497423839886427"><ele>8.0</ele><time>2026-04-19T13:53:06Z</time></trkpt><trkpt lat="41.14036652199695" lon="1.34956419434625"><ele>8.0</ele><time>2026-04-19T13:53:07Z</time></trkpt><trkpt lat="41.14022100637335" lon="1.3493686868388244"><ele>9.0</ele><time>2026-04-19T13:53:08Z</time></trkpt><trkpt lat="41.14008142417341" lon="1.3491710282779714"><ele>10.0</ele><time>2026-04-19T13:53:09Z</time></trkpt><trkpt lat="41.13994756141917" lon="1.3489560671786751"><ele>11.0</ele><time>2026-04-19T13:53:10Z</time></trkpt><trkpt lat="41.139820718309984" lon="1.3487450998843948"><ele>12.666666666666666</ele><time>2026-04-19T13:53:11Z</time></trkpt><trkpt lat="41.13970402859047" lon="1.348523040727309"><ele>14.333333333333332</ele><time>2026-04-19T13:53:12Z</time></trkpt><trkpt lat="41.13959403563681" lon="1.348295952200288"><ele>16.0</ele><time>2026-04-19T13:53:13Z</time></trkpt><trkpt lat="41.13949903387518" lon="1.3480633261197768"><ele>16.0</ele><time>2026-04-19T13:53:14Z</time></trkpt><trkpt lat="41.13941297715709" lon="1.3478247424298286"><ele>16.0</ele><time>2026-04-19T13:53:15Z</time></trkpt><trkpt lat="41.13934607005418" lon="1.347574934653588"><ele>16.0</ele><time>2026-04-19T13:53:16Z</time></trkpt><trkpt lat="41.13929415555541" lon="1.347326755881888"><ele>16.333333333333332</ele><time>2026-04-19T13:53:17Z</time></trkpt><trkpt lat="41.13924633911966" lon="1.3470881476916985"><ele>16.666666666666668</ele><time>2026-04-19T13:53:18Z</time></trkpt><trkpt lat="41.13922070669603" lon="1.3468787761049872"><ele>17.0</ele><time>2026-04-19T13:53:19Z</time></trkpt><trkpt lat="41.1391981894438" lon="1.3466925470782036"><ele>17.0</ele><time>2026-04-19T13:53:20Z</time></trkpt><trkpt lat="41.13916743897071" lon="1.3464928609295954"><ele>17.0</ele><time>2026-04-19T13:53:21Z</time></trkpt><trkpt lat="41.13915791494001" lon="1.3463305812854998"><ele>17.0</ele><time>2026-04-19T13:53:21.999Z</time></trkpt><trkpt lat="41.13915247411871" lon="1.3461765046380163"><ele>17.0</ele><time>2026-04-19T13:53:22.999Z</time></trkpt><trkpt lat="41.13914619728428" lon="1.3460162455533111"><ele>17.0</ele><time>2026-04-19T13:53:23.999Z</time></trkpt><trkpt lat="41.13914638815267" lon="1.3458682544163094"><ele>17.0</ele><time>2026-04-19T13:53:24.999Z</time></trkpt><trkpt lat="41.1391367025826" lon="1.3457342373804557"><ele>17.0</ele><time>2026-04-19T13:53:25.999Z</time></trkpt><trkpt lat="41.13916769171435" lon="1.345605474443279"><ele>17.0</ele><time>2026-04-19T13:53:26.999Z</time></trkpt><trkpt lat="41.139178287241954" lon="1.3454592017422689"><ele>17.0</ele><time>2026-04-19T13:53:27.999Z</time></trkpt><trkpt lat="41.13916587928788" lon="1.3453136412392113"><ele>17.0</ele><time>2026-04-19T13:53:28.999Z</time></trkpt><trkpt lat="41.13910780274166" lon="1.345196276291412"><ele>17.0</ele><time>2026-04-19T13:53:29.999Z</time></trkpt><trkpt lat="41.13904378909659" lon="1.3451133102975754"><ele>17.0</ele><time>2026-04-19T13:53:30.999Z</time></trkpt><trkpt lat="41.138966293136335" lon="1.345014187924324"><ele>17.0</ele><time>2026-04-19T13:53:31.999Z</time></trkpt><trkpt lat="41.13885882181766" lon="1.3449786702810411"><ele>17.0</ele><time>2026-04-19T13:53:32.999Z</time></trkpt><trkpt lat="41.13874438483172" lon="1.3449822106579343"><ele>16.6</ele><time>2026-04-19T13:53:33.999Z</time></trkpt><trkpt lat="41.138631172176616" lon="1.345027688767621"><ele>16.2</ele><time>2026-04-19T13:53:34.999Z</time></trkpt><trkpt lat="41.13852410508548" lon="1.3450851068044989"><ele>15.8</ele><time>2026-04-19T13:53:35.999Z</time></trkpt><trkpt lat="41.138428198587356" lon="1.345093460600594"><ele>15.4</ele><time>2026-04-19T13:53:36.999Z</time></trkpt><trkpt lat="41.13834170538439" lon="1.3450205610408663"><ele>15.0</ele><time>2026-04-19T13:53:37.999Z</time></trkpt><trkpt lat="41.13826861144543" lon="1.3448790267369461"><ele>14.0</ele><time>2026-04-19T13:53:38.999Z</time></trkpt><trkpt lat="41.13821286887073" lon="1.344696486618116"><ele>13.0</ele><time>2026-04-19T13:53:39.999Z</time></trkpt><trkpt lat="41.138153647634034" lon="1.34448250293903"><ele>12.0</ele><time>2026-04-19T13:53:40.999Z</time></trkpt><trkpt lat="41.138075751577034" lon="1.3442503507842052"><ele>12.0</ele><time>2026-04-19T13:53:41.999Z</time></trkpt><trkpt lat="41.13799348479308" lon="1.344011967810641"><ele>12.0</ele><time>2026-04-19T13:53:42.999Z</time></trkpt><trkpt lat="41.13791131788357" lon="1.343731734832766"><ele>12.0</ele><time>2026-04-19T13:53:43.999Z</time></trkpt><trkpt lat="41.137832569288335" lon="1.343504630696556"><ele>11.333333333333334</ele><time>2026-04-19T13:53:44.999Z</time></trkpt><trkpt lat="41.13773674286811" lon="1.3432926430675594"><ele>10.666666666666668</ele><time>2026-04-19T13:53:45.999Z</time></trkpt><trkpt lat="41.13764575534637" lon="1.3431130785475662"><ele>10.0</ele><time>2026-04-19T13:53:46.999Z</time></trkpt><trkpt lat="41.13750171198625" lon="1.3428027040998534"><ele>9.333333333333334</ele><time>2026-04-19T13:53:47.999Z</time></trkpt><trkpt lat="41.13741678591736" lon="1.342552444694436"><ele>8.666666666666666</ele><time>2026-04-19T13:53:48.999Z</time></trkpt><trkpt lat="41.137346011356556" lon="1.3422927805970883"><ele>8.0</ele><time>2026-04-19T13:53:49.999Z</time></trkpt><trkpt lat="41.137270756544005" lon="1.3420274686480695"><ele>7.666666666666666</ele><time>2026-04-19T13:53:50.999Z</time></trkpt><trkpt lat="41.1371919689297" lon="1.3417593733971527"><ele>7.333333333333334</ele><time>2026-04-19T13:53:51.999Z</time></trkpt><trkpt lat="41.13710742743791" lon="1.341482230499351"><ele>7.0</ele><time>2026-04-19T13:53:52.999Z</time></trkpt><trkpt lat="41.137021881081004" lon="1.3411965044084508"><ele>7.0</ele><time>2026-04-19T13:53:53.999Z</time></trkpt><trkpt lat="41.13693484966997" lon="1.3409057963069566"><ele>7.0</ele><time>2026-04-19T13:53:54.999Z</time></trkpt><trkpt lat="41.136847716307464" lon="1.3406107672008225"><ele>8.0</ele><time>2026-04-19T13:53:55.999Z</time></trkpt><trkpt lat="41.13676121699729" lon="1.340312034423608"><ele>9.0</ele><time>2026-04-19T13:53:56.999Z</time></trkpt><trkpt lat="41.13667266788069" lon="1.3400092943427926"><ele>9.5</ele><time>2026-04-19T13:53:57.999Z</time></trkpt><trkpt lat="41.136583805010304" lon="1.339709519137211"><ele>10.0</ele><time>2026-04-19T13:53:58.999Z</time></trkpt><trkpt lat="41.136497700890565" lon="1.3394179414012748"><ele>8.0</ele><time>2026-04-19T13:53:59.999Z</time></trkpt><trkpt lat="41.13641136788829" lon="1.3391277712318372"><ele>6.0</ele><time>2026-04-19T13:54:00.999Z</time></trkpt><trkpt lat="41.136323681518135" lon="1.338828224327206"><ele>6.0</ele><time>2026-04-19T13:54:01.999Z</time></trkpt><trkpt lat="41.13623388634991" lon="1.3385322285003876"><ele>6.0</ele><time>2026-04-19T13:54:02.999Z</time></trkpt><trkpt lat="41.13614093123008" lon="1.3382305174820703"><ele>6.0</ele><time>2026-04-19T13:54:03.999Z</time></trkpt><trkpt lat="41.136047852435816" lon="1.3379321764064933"><ele>6.0</ele><time>2026-04-19T13:54:04.999Z</time></trkpt><trkpt lat="41.135954592947805" lon="1.3376354203643295"><ele>6.0</ele><time>2026-04-19T13:54:05.999Z</time></trkpt><trkpt lat="41.13586027324251" lon="1.3373364863501342"><ele>6.0</ele><time>2026-04-19T13:54:06.999Z</time></trkpt><trkpt lat="41.13576630258266" lon="1.3370416749029428"><ele>5.0</ele><time>2026-04-19T13:54:07.999Z</time></trkpt><trkpt lat="41.135672932362766" lon="1.3367552868872072"><ele>4.0</ele><time>2026-04-19T13:54:08.999Z</time></trkpt><trkpt lat="41.13557990841683" lon="1.3364734415614452"><ele>5.0</ele><time>2026-04-19T13:54:09.999Z</time></trkpt><trkpt lat="41.13548689675745" lon="1.3361850981147418"><ele>6.0</ele><time>2026-04-19T13:54:10.999Z</time></trkpt><trkpt lat="41.13539533429846" lon="1.3358986215499769"><ele>6.0</ele><time>2026-04-19T13:54:11.999Z</time></trkpt><trkpt lat="41.13530016902281" lon="1.3356100253067793"><ele>6.0</ele><time>2026-04-19T13:54:12.999Z</time></trkpt><trkpt lat="41.13520374904826" lon="1.3353226836927752"><ele>6.5</ele><time>2026-04-19T13:54:13.999Z</time></trkpt><trkpt lat="41.13510651025179" lon="1.3350296398302348"><ele>7.0</ele><time>2026-04-19T13:54:14.999Z</time></trkpt><trkpt lat="41.13501015623313" lon="1.3347420286268592"><ele>7.5</ele><time>2026-04-19T13:54:15.999Z</time></trkpt><trkpt lat="41.13491506223875" lon="1.3344527784297957"><ele>8.0</ele><time>2026-04-19T13:54:16.999Z</time></trkpt><trkpt lat="41.13482035762152" lon="1.3341623134194625"><ele>9.0</ele><time>2026-04-19T13:54:17.999Z</time></trkpt><trkpt lat="41.134724765753674" lon="1.3338742485959947"><ele>10.0</ele><time>2026-04-19T13:54:18.999Z</time></trkpt><trkpt lat="41.13463033182444" lon="1.3335768942851347"><ele>10.0</ele><time>2026-04-19T13:54:19.999Z</time></trkpt><trkpt lat="41.13453682412083" lon="1.3332771907279943"><ele>10.0</ele><time>2026-04-19T13:54:20.999Z</time></trkpt><trkpt lat="41.13443751635238" lon="1.3329693971549144"><ele>10.5</ele><time>2026-04-19T13:54:21.999Z</time></trkpt><trkpt lat="41.13433639460558" lon="1.3326588910378807"><ele>11.0</ele><time>2026-04-19T13:54:22.999Z</time></trkpt><trkpt lat="41.13423322498969" lon="1.3323366253490547"><ele>11.5</ele><time>2026-04-19T13:54:23.999Z</time></trkpt><trkpt lat="41.134130214449705" lon="1.3320173152883206"><ele>12.0</ele><time>2026-04-19T13:54:24.999Z</time></trkpt><trkpt lat="41.13402342481563" lon="1.331701102980657"><ele>13.0</ele><time>2026-04-19T13:54:25.999Z</time></trkpt><trkpt lat="41.13391964452035" lon="1.3313848324606568"><ele>14.0</ele><time>2026-04-19T13:54:26.999Z</time></trkpt><trkpt lat="41.13382105302422" lon="1.3310722002838913"><ele>14.0</ele><time>2026-04-19T13:54:27.999Z</time></trkpt><trkpt lat="41.13372267511775" lon="1.3307644269786034"><ele>14.0</ele><time>2026-04-19T13:54:28.999Z</time></trkpt><trkpt lat="41.133624070403656" lon="1.330459631184471"><ele>15.0</ele><time>2026-04-19T13:54:29.999Z</time></trkpt><trkpt lat="41.13352517062731" lon="1.33016052777222"><ele>16.0</ele><time>2026-04-19T13:54:30.999Z</time></trkpt><trkpt lat="41.13343007936182" lon="1.3298615934598281"><ele>16.0</ele><time>2026-04-19T13:54:31.998Z</time></trkpt><trkpt lat="41.13333489912181" lon="1.3295656429746137"><ele>16.0</ele><time>2026-04-19T13:54:32.998Z</time></trkpt><trkpt lat="41.133237283037175" lon="1.3292680654984885"><ele>16.5</ele><time>2026-04-19T13:54:33.998Z</time></trkpt><trkpt lat="41.13314226492268" lon="1.328983508229122"><ele>17.0</ele><time>2026-04-19T13:54:34.998Z</time></trkpt><trkpt lat="41.133045932408756" lon="1.3286952408937347"><ele>17.0</ele><time>2026-04-19T13:54:35.998Z</time></trkpt><trkpt lat="41.13295338796568" lon="1.3284045046578972"><ele>17.0</ele><time>2026-04-19T13:54:36.998Z</time></trkpt><trkpt lat="41.132857086906405" lon="1.3281142824151342"><ele>15.5</ele><time>2026-04-19T13:54:37.998Z</time></trkpt><trkpt lat="41.132761390716226" lon="1.3278242629768136"><ele>14.0</ele><time>2026-04-19T13:54:38.998Z</time></trkpt><trkpt lat="41.13267166649458" lon="1.3275439870350776"><ele>14.0</ele><time>2026-04-19T13:54:39.998Z</time></trkpt><trkpt lat="41.1325818016725" lon="1.3272728583303142"><ele>14.0</ele><time>2026-04-19T13:54:41Z</time></trkpt><trkpt lat="41.13250357508231" lon="1.3270106635621097"><ele>14.0</ele><time>2026-04-19T13:54:42Z</time></trkpt><trkpt lat="41.132441697675404" lon="1.326746249295843"><ele>13.0</ele><time>2026-04-19T13:54:43Z</time></trkpt><trkpt lat="41.13240316585686" lon="1.3264552340709155"><ele>12.0</ele><time>2026-04-19T13:54:44Z</time></trkpt><trkpt lat="41.132387177691754" lon="1.326138608675764"><ele>12.0</ele><time>2026-04-19T13:54:45Z</time></trkpt><trkpt lat="41.132370857397376" lon="1.3258354072311058"><ele>12.0</ele><time>2026-04-19T13:54:46Z</time></trkpt><trkpt lat="41.13235018691791" lon="1.3255403288687557"><ele>11.333333333333334</ele><time>2026-04-19T13:54:47Z</time></trkpt><trkpt lat="41.13233054551276" lon="1.3252471597745874"><ele>10.666666666666668</ele><time>2026-04-19T13:54:48Z</time></trkpt><trkpt lat="41.13231065295648" lon="1.3249518944252863"><ele>10.0</ele><time>2026-04-19T13:54:49Z</time></trkpt><trkpt lat="41.13229067477786" lon="1.324651624102752"><ele>9.5</ele><time>2026-04-19T13:54:50Z</time></trkpt><trkpt lat="41.132271635699254" lon="1.3243553614705255"><ele>9.0</ele><time>2026-04-19T13:54:51Z</time></trkpt><trkpt lat="41.13225238587254" lon="1.3240556353946347"><ele>8.0</ele><time>2026-04-19T13:54:52Z</time></trkpt><trkpt lat="41.13223196432427" lon="1.3237548181000625"><ele>7.0</ele><time>2026-04-19T13:54:53Z</time></trkpt><trkpt lat="41.13221144147636" lon="1.3234513627609203"><ele>7.0</ele><time>2026-04-19T13:54:54Z</time></trkpt><trkpt lat="41.132192293900005" lon="1.3231474766693647"><ele>7.0</ele><time>2026-04-19T13:54:55Z</time></trkpt><trkpt lat="41.13217139144276" lon="1.322842951621079"><ele>6.5</ele><time>2026-04-19T13:54:56Z</time></trkpt><trkpt lat="41.13215232264958" lon="1.3225426580089874"><ele>6.0</ele><time>2026-04-19T13:54:57Z</time></trkpt><trkpt lat="41.13213309469426" lon="1.3222407595934138"><ele>5.5</ele><time>2026-04-19T13:54:58Z</time></trkpt><trkpt lat="41.132113893276866" lon="1.3219359592167024"><ele>5.0</ele><time>2026-04-19T13:54:59Z</time></trkpt><trkpt lat="41.13209614781585" lon="1.3216339317823664"><ele>6.0</ele><time>2026-04-19T13:55:00Z</time></trkpt><trkpt lat="41.13207675818637" lon="1.3213299866184431"><ele>7.0</ele><time>2026-04-19T13:55:01Z</time></trkpt><trkpt lat="41.13205574492332" lon="1.3210197816388947"><ele>7.0</ele><time>2026-04-19T13:55:02Z</time></trkpt><trkpt lat="41.13203433817168" lon="1.320708272988494"><ele>7.0</ele><time>2026-04-19T13:55:03Z</time></trkpt><trkpt lat="41.13201360233961" lon="1.3203978201608821"><ele>8.0</ele><time>2026-04-19T13:55:04Z</time></trkpt><trkpt lat="41.131986969074354" lon="1.320092924692043"><ele>9.0</ele><time>2026-04-19T13:55:05Z</time></trkpt><trkpt lat="41.13194434389067" lon="1.3198006839872047"><ele>10.0</ele><time>2026-04-19T13:55:06Z</time></trkpt><trkpt lat="41.131883779833004" lon="1.319521516473868"><ele>11.0</ele><time>2026-04-19T13:55:07Z</time></trkpt><trkpt lat="41.131809751284194" lon="1.319254897746959"><ele>12.0</ele><time>2026-04-19T13:55:08Z</time></trkpt><trkpt lat="41.13174556508217" lon="1.319005596774442"><ele>11.5</ele><time>2026-04-19T13:55:09Z</time></trkpt><trkpt lat="41.13170744294101" lon="1.3187257436512174"><ele>11.0</ele><time>2026-04-19T13:55:10Z</time></trkpt><trkpt lat="41.13168805821251" lon="1.3184138415465108"><ele>11.0</ele><time>2026-04-19T13:55:11Z</time></trkpt><trkpt lat="41.13168237748909" lon="1.3180958836447572"><ele>11.0</ele><time>2026-04-19T13:55:12Z</time></trkpt><trkpt lat="41.13167765672854" lon="1.3177812869712562"><ele>11.333333333333332</ele><time>2026-04-19T13:55:13Z</time></trkpt><trkpt lat="41.13167689034569" lon="1.3174807315402122"><ele>11.666666666666666</ele><time>2026-04-19T13:55:14Z</time></trkpt><trkpt lat="41.13167255968135" lon="1.3171906427274922"><ele>12.0</ele><time>2026-04-19T13:55:15Z</time></trkpt><trkpt lat="41.131667308590096" lon="1.3169053117086011"><ele>12.0</ele><time>2026-04-19T13:55:16Z</time></trkpt><trkpt lat="41.131661477259854" lon="1.316621326285848"><ele>12.0</ele><time>2026-04-19T13:55:17Z</time></trkpt><trkpt lat="41.13165115602052" lon="1.316331771296891"><ele>12.0</ele><time>2026-04-19T13:55:18Z</time></trkpt><trkpt lat="41.13164017302268" lon="1.3160437977069113"><ele>11.333333333333334</ele><time>2026-04-19T13:55:19Z</time></trkpt><trkpt lat="41.131646295130636" lon="1.3157543997744992"><ele>10.666666666666668</ele><time>2026-04-19T13:55:20Z</time></trkpt><trkpt lat="41.1316629233867" lon="1.315461161005288"><ele>10.0</ele><time>2026-04-19T13:55:21Z</time></trkpt><trkpt lat="41.131705998946806" lon="1.31517119700858"><ele>8.5</ele><time>2026-04-19T13:55:22Z</time></trkpt><trkpt lat="41.131762899311795" lon="1.3148731000802647"><ele>7.0</ele><time>2026-04-19T13:55:23Z</time></trkpt><trkpt lat="41.1318415288711" lon="1.314585193308231"><ele>6.0</ele><time>2026-04-19T13:55:24Z</time></trkpt><trkpt lat="41.13191080400448" lon="1.3143011025993503"><ele>5.0</ele><time>2026-04-19T13:55:25Z</time></trkpt><trkpt lat="41.13196640729181" lon="1.3140091734733386"><ele>4.333333333333334</ele><time>2026-04-19T13:55:26Z</time></trkpt><trkpt lat="41.13200178690742" lon="1.3137180678086897"><ele>3.666666666666667</ele><time>2026-04-19T13:55:26.999Z</time></trkpt><trkpt lat="41.13201013098832" lon="1.3134227490798713"><ele>3.0</ele><time>2026-04-19T13:55:27.999Z</time></trkpt><trkpt lat="41.13201766932614" lon="1.3131348320863236"><ele>4.0</ele><time>2026-04-19T13:55:28.999Z</time></trkpt><trkpt lat="41.132028645689196" lon="1.3128577792780955"><ele>5.0</ele><time>2026-04-19T13:55:29.999Z</time></trkpt><trkpt lat="41.13203855663694" lon="1.3125885311764967"><ele>6.0</ele><time>2026-04-19T13:55:30.999Z</time></trkpt><trkpt lat="41.132046510875114" lon="1.312322714386785"><ele>7.0</ele><time>2026-04-19T13:55:31.999Z</time></trkpt><trkpt lat="41.13205155009925" lon="1.3120643411094002"><ele>8.0</ele><time>2026-04-19T13:55:32.999Z</time></trkpt><trkpt lat="41.13206141829415" lon="1.311811814520293"><ele>9.0</ele><time>2026-04-19T13:55:33.999Z</time></trkpt><trkpt lat="41.13207329654069" lon="1.3115589284401783"><ele>9.333333333333334</ele><time>2026-04-19T13:55:34.999Z</time></trkpt><trkpt lat="41.13209025435195" lon="1.3112995033109929"><ele>9.666666666666668</ele><time>2026-04-19T13:55:35.999Z</time></trkpt><trkpt lat="41.13210776321061" lon="1.3110361765330283"><ele>10.0</ele><time>2026-04-19T13:55:36.999Z</time></trkpt><trkpt lat="41.13212850341137" lon="1.31078681149387"><ele>9.0</ele><time>2026-04-19T13:55:37.999Z</time></trkpt><trkpt lat="41.132148462115126" lon="1.3105556501512217"><ele>8.0</ele><time>2026-04-19T13:55:38.999Z</time></trkpt><trkpt lat="41.13216840689434" lon="1.3103491088193373"><ele>7.0</ele><time>2026-04-19T13:55:39.999Z</time></trkpt><trkpt lat="41.13218776365843" lon="1.3101677983136903"><ele>7.0</ele><time>2026-04-19T13:55:40.999Z</time></trkpt><trkpt lat="41.132208251351365" lon="1.3099988458916687"><ele>7.0</ele><time>2026-04-19T13:55:41.999Z</time></trkpt><trkpt lat="41.13222527719009" lon="1.3098075513902085"><ele>7.0</ele><time>2026-04-19T13:55:42.999Z</time></trkpt><trkpt lat="41.13223834148863" lon="1.309584461158183"><ele>7.0</ele><time>2026-04-19T13:55:43.999Z</time></trkpt><trkpt lat="41.132250685051275" lon="1.3093446644408864"><ele>7.0</ele><time>2026-04-19T13:55:44.999Z</time></trkpt><trkpt lat="41.13227296480705" lon="1.3090977265266293"><ele>7.0</ele><time>2026-04-19T13:55:45.999Z</time></trkpt><trkpt lat="41.132310206248235" lon="1.3088506310296983"><ele>7.0</ele><time>2026-04-19T13:55:46.999Z</time></trkpt><trkpt lat="41.13233651827305" lon="1.3085919713099121"><ele>7.666666666666667</ele><time>2026-04-19T13:55:47.999Z</time></trkpt><trkpt lat="41.13236433354973" lon="1.3083551089031855"><ele>8.333333333333334</ele><time>2026-04-19T13:55:48.999Z</time></trkpt><trkpt lat="41.13238411379625" lon="1.3081219903716816"><ele>9.0</ele><time>2026-04-19T13:55:49.999Z</time></trkpt><trkpt lat="41.13240240834324" lon="1.3078954406881775"><ele>10.0</ele><time>2026-04-19T13:55:50.999Z</time></trkpt><trkpt lat="41.13240112282744" lon="1.307671998926444"><ele>11.0</ele><time>2026-04-19T13:55:51.999Z</time></trkpt><trkpt lat="41.13236382430878" lon="1.3074496920645018"><ele>12.0</ele><time>2026-04-19T13:55:52.999Z</time></trkpt><trkpt lat="41.13229331933863" lon="1.307232791808876"><ele>12.666666666666668</ele><time>2026-04-19T13:55:53.999Z</time></trkpt><trkpt lat="41.13219686075101" lon="1.3070188600717185"><ele>13.333333333333334</ele><time>2026-04-19T13:55:54.999Z</time></trkpt><trkpt lat="41.13208508268294" lon="1.3068220665751904"><ele>14.0</ele><time>2026-04-19T13:55:55.999Z</time></trkpt><trkpt lat="41.13195394136725" lon="1.3066358028240597"><ele>14.0</ele><time>2026-04-19T13:55:56.999Z</time></trkpt><trkpt lat="41.131811782726984" lon="1.3064539958728243"><ele>14.0</ele><time>2026-04-19T13:55:57.999Z</time></trkpt><trkpt lat="41.13168780910853" lon="1.3062869455345016"><ele>14.0</ele><time>2026-04-19T13:55:58.999Z</time></trkpt><trkpt lat="41.131586738648586" lon="1.3061052366492047"><ele>12.0</ele><time>2026-04-19T13:55:59.999Z</time></trkpt><trkpt lat="41.13150266054416" lon="1.30591948444424"><ele>10.0</ele><time>2026-04-19T13:56:00.999Z</time></trkpt><trkpt lat="41.13144247500563" lon="1.3057208464183552"><ele>8.0</ele><time>2026-04-19T13:56:01.999Z</time></trkpt><trkpt lat="41.1313884860162" lon="1.3055256160076403"><ele>7.666666666666666</ele><time>2026-04-19T13:56:02.999Z</time></trkpt><trkpt lat="41.131357686804954" lon="1.3053305522462264"><ele>7.333333333333334</ele><time>2026-04-19T13:56:03.999Z</time></trkpt><trkpt lat="41.13130219733291" lon="1.3051223753797263"><ele>7.0</ele><time>2026-04-19T13:56:04.999Z</time></trkpt><trkpt lat="41.13125949625851" lon="1.3049335627098986"><ele>7.0</ele><time>2026-04-19T13:56:05.999Z</time></trkpt><trkpt lat="41.13123054819585" lon="1.304763813035601"><ele>6.999999999999999</ele><time>2026-04-19T13:56:06.999Z</time></trkpt><trkpt lat="41.13121132795357" lon="1.3046152448944577"><ele>6.999999999999999</ele><time>2026-04-19T13:56:07.999Z</time></trkpt><trkpt lat="41.13120177699535" lon="1.3044913766309163"><ele>7.0</ele><time>2026-04-19T13:56:08.999Z</time></trkpt><trkpt lat="41.13119719725553" lon="1.3043908671985704"><ele>7.0</ele><time>2026-04-19T13:56:09.999Z</time></trkpt><trkpt lat="41.131202703861646" lon="1.3042713587787869"><ele>6.25</ele><time>2026-04-19T13:56:12.999Z</time></trkpt><trkpt lat="41.13119911509354" lon="1.3040929195996878"><ele>5.5</ele><time>2026-04-19T13:56:14.999Z</time></trkpt><trkpt lat="41.131192934166286" lon="1.303933124095362"><ele>4.75</ele><time>2026-04-19T13:56:15.999Z</time></trkpt><trkpt lat="41.131128360189734" lon="1.3038213709344215"><ele>4.0</ele><time>2026-04-19T13:56:16.999Z</time></trkpt><trkpt lat="41.13102555390454" lon="1.3037625001300983"><ele>4.0</ele><time>2026-04-19T13:56:17.999Z</time></trkpt><trkpt lat="41.13102670798824" lon="1.3036145871208351"><ele>4.0</ele><time>2026-04-19T13:56:18.999Z</time></trkpt><trkpt lat="41.13098114148843" lon="1.303439064259209"><ele>4.0</ele><time>2026-04-19T13:56:19.999Z</time></trkpt><trkpt lat="41.130949551310486" lon="1.3032771880022576"><ele>4.0</ele><time>2026-04-19T13:56:20.999Z</time></trkpt><trkpt lat="41.13091825700773" lon="1.303055992371332"><ele>3.333333333333333</ele><time>2026-04-19T13:56:21.999Z</time></trkpt><trkpt lat="41.13088515111577" lon="1.3027987252462885"><ele>2.6666666666666665</ele><time>2026-04-19T13:56:22.999Z</time></trkpt><trkpt lat="41.1308483731755" lon="1.3025189062232911"><ele>2.0</ele><time>2026-04-19T13:56:23.999Z</time></trkpt><trkpt lat="41.13081071507567" lon="1.302246756163041"><ele>4.333333333333333</ele><time>2026-04-19T13:56:24.999Z</time></trkpt><trkpt lat="41.13077594809591" lon="1.3019777455444224"><ele>6.666666666666667</ele><time>2026-04-19T13:56:25.999Z</time></trkpt><trkpt lat="41.13074167017154" lon="1.3017096033390219"><ele>9.0</ele><time>2026-04-19T13:56:26.999Z</time></trkpt><trkpt lat="41.13071465461954" lon="1.301444367325458"><ele>8.0</ele><time>2026-04-19T13:56:27.999Z</time></trkpt><trkpt lat="41.1306905793225" lon="1.3011925091799106"><ele>7.0</ele><time>2026-04-19T13:56:28.999Z</time></trkpt><trkpt lat="41.13065515522374" lon="1.300964854843047"><ele>6.0</ele><time>2026-04-19T13:56:29.999Z</time></trkpt><trkpt lat="41.13062189824248" lon="1.300763178579071"><ele>6.333333333333334</ele><time>2026-04-19T13:56:30.999Z</time></trkpt><trkpt lat="41.13059116304076" lon="1.300578259961594"><ele>6.666666666666667</ele><time>2026-04-19T13:56:31.999Z</time></trkpt><trkpt lat="41.13054752903749" lon="1.3003775086385185"><ele>7.0</ele><time>2026-04-19T13:56:32.999Z</time></trkpt><trkpt lat="41.13049702030559" lon="1.3001656877653982"><ele>7.0</ele><time>2026-04-19T13:56:33.999Z</time></trkpt><trkpt lat="41.13044085756178" lon="1.2999517798819036"><ele>7.0</ele><time>2026-04-19T13:56:34.999Z</time></trkpt><trkpt lat="41.13037993431178" lon="1.299746726152344"><ele>7.0</ele><time>2026-04-19T13:56:35.999Z</time></trkpt><trkpt lat="41.130308527922175" lon="1.2995425166503571"><ele>9.0</ele><time>2026-04-19T13:56:36.998Z</time></trkpt><trkpt lat="41.1302336925847" lon="1.2993547911769496"><ele>11.0</ele><time>2026-04-19T13:56:37.998Z</time></trkpt><trkpt lat="41.130157549019884" lon="1.2991687555503848"><ele>13.0</ele><time>2026-04-19T13:56:38.998Z</time></trkpt><trkpt lat="41.1300719001251" lon="1.2989755772029286"><ele>12.333333333333332</ele><time>2026-04-19T13:56:39.998Z</time></trkpt><trkpt lat="41.12997730386633" lon="1.2987913126362747"><ele>11.666666666666666</ele><time>2026-04-19T13:56:40.998Z</time></trkpt><trkpt lat="41.129881594738194" lon="1.2986125064010994"><ele>11.0</ele><time>2026-04-19T13:56:41.998Z</time></trkpt><trkpt lat="41.129776123748314" lon="1.298434291400347"><ele>11.0</ele><time>2026-04-19T13:56:42.998Z</time></trkpt><trkpt lat="41.12965281666267" lon="1.2982722890023854"><ele>11.0</ele><time>2026-04-19T13:56:43.998Z</time></trkpt><trkpt lat="41.12953624647777" lon="1.2981055737509815"><ele>11.0</ele><time>2026-04-19T13:56:44.998Z</time></trkpt><trkpt lat="41.12942320994368" lon="1.2979398124097277"><ele>10.333333333333332</ele><time>2026-04-19T13:56:45.998Z</time></trkpt><trkpt lat="41.12929852754516" lon="1.2977777021655388"><ele>9.666666666666666</ele><time>2026-04-19T13:56:47Z</time></trkpt><trkpt lat="41.129172616779236" lon="1.2976233473236616"><ele>9.0</ele><time>2026-04-19T13:56:48Z</time></trkpt><trkpt lat="41.12904325974321" lon="1.297468418295253"><ele>9.0</ele><time>2026-04-19T13:56:49Z</time></trkpt><trkpt lat="41.12890924249885" lon="1.2973119134943158"><ele>9.0</ele><time>2026-04-19T13:56:50Z</time></trkpt><trkpt lat="41.12877708926678" lon="1.2971471926322982"><ele>9.0</ele><time>2026-04-19T13:56:51Z</time></trkpt><trkpt lat="41.12865004581711" lon="1.2969838226267174"><ele>11.0</ele><time>2026-04-19T13:56:52Z</time></trkpt><trkpt lat="41.128524954583135" lon="1.29680271336238"><ele>13.0</ele><time>2026-04-19T13:56:53Z</time></trkpt><trkpt lat="41.128406706753246" lon="1.296609985339316"><ele>15.0</ele><time>2026-04-19T13:56:54Z</time></trkpt><trkpt lat="41.12829416107947" lon="1.296402477865877"><ele>12.333333333333334</ele><time>2026-04-19T13:56:55Z</time></trkpt><trkpt lat="41.12818815095548" lon="1.2961955988577332"><ele>9.666666666666668</ele><time>2026-04-19T13:56:56Z</time></trkpt><trkpt lat="41.12809421516187" lon="1.2959963236954104"><ele>7.0</ele><time>2026-04-19T13:56:57Z</time></trkpt><trkpt lat="41.12799133994085" lon="1.2957766194558946"><ele>8.333333333333334</ele><time>2026-04-19T13:56:58Z</time></trkpt><trkpt lat="41.12789485040084" lon="1.2955514545167368"><ele>9.666666666666666</ele><time>2026-04-19T13:56:59Z</time></trkpt><trkpt lat="41.12779845595239" lon="1.295317031941383"><ele>11.0</ele><time>2026-04-19T13:57:00Z</time></trkpt><trkpt lat="41.12770766280946" lon="1.2950808702706078"><ele>11.0</ele><time>2026-04-19T13:57:01Z</time></trkpt><trkpt lat="41.12761901138294" lon="1.2948488550023496"><ele>11.0</ele><time>2026-04-19T13:57:02Z</time></trkpt><trkpt lat="41.12753120914837" lon="1.2946177381534452"><ele>11.0</ele><time>2026-04-19T13:57:03Z</time></trkpt><trkpt lat="41.12744091529112" lon="1.294382484591977"><ele>9.333333333333332</ele><time>2026-04-19T13:57:04Z</time></trkpt><trkpt lat="41.12735369161903" lon="1.2941491032344319"><ele>7.666666666666666</ele><time>2026-04-19T13:57:05Z</time></trkpt><trkpt lat="41.12726706243552" lon="1.2939122331536015"><ele>6.0</ele><time>2026-04-19T13:57:06Z</time></trkpt><trkpt lat="41.127181867994224" lon="1.2936822313596388"><ele>6.0</ele><time>2026-04-19T13:57:07Z</time></trkpt><trkpt lat="41.127093361802245" lon="1.2934590657659404"><ele>6.0</ele><time>2026-04-19T13:57:08Z</time></trkpt><trkpt lat="41.12700665806346" lon="1.2932390012555524"><ele>6.0</ele><time>2026-04-19T13:57:09Z</time></trkpt><trkpt lat="41.1269252823633" lon="1.2930231651418505"><ele>6.666666666666666</ele><time>2026-04-19T13:57:10Z</time></trkpt><trkpt lat="41.12684777917776" lon="1.2928073272917089"><ele>7.333333333333333</ele><time>2026-04-19T13:57:11Z</time></trkpt><trkpt lat="41.12677258327769" lon="1.292597732621466"><ele>8.0</ele><time>2026-04-19T13:57:12Z</time></trkpt><trkpt lat="41.12670545723881" lon="1.292392042011466"><ele>8.666666666666666</ele><time>2026-04-19T13:57:13Z</time></trkpt><trkpt lat="41.12663701063368" lon="1.2921940168465658"><ele>9.333333333333334</ele><time>2026-04-19T13:57:14Z</time></trkpt><trkpt lat="41.126561663363795" lon="1.2919941422715442"><ele>10.0</ele><time>2026-04-19T13:57:15Z</time></trkpt><trkpt lat="41.12648744580223" lon="1.291792385577539"><ele>10.0</ele><time>2026-04-19T13:57:16Z</time></trkpt><trkpt lat="41.12640841306132" lon="1.2915949184489404"><ele>10.0</ele><time>2026-04-19T13:57:17Z</time></trkpt><trkpt lat="41.12633535780993" lon="1.2913935216788939"><ele>10.0</ele><time>2026-04-19T13:57:18Z</time></trkpt><trkpt lat="41.12625816996954" lon="1.2911874012624713"><ele>11.0</ele><time>2026-04-19T13:57:19Z</time></trkpt><trkpt lat="41.12617063928141" lon="1.290979329437163"><ele>12.0</ele><time>2026-04-19T13:57:20Z</time></trkpt><trkpt lat="41.12609608099216" lon="1.2907732078858605"><ele>13.0</ele><time>2026-04-19T13:57:21Z</time></trkpt><trkpt lat="41.12601224126901" lon="1.290555048136028"><ele>13.666666666666666</ele><time>2026-04-19T13:57:22Z</time></trkpt><trkpt lat="41.12592676369762" lon="1.2903369798588287"><ele>14.333333333333332</ele><time>2026-04-19T13:57:23Z</time></trkpt><trkpt lat="41.12584488309424" lon="1.2901253138259032"><ele>15.0</ele><time>2026-04-19T13:57:24Z</time></trkpt><trkpt lat="41.1257660402882" lon="1.289916801783755"><ele>14.333333333333332</ele><time>2026-04-19T13:57:25Z</time></trkpt><trkpt lat="41.12568606244104" lon="1.289701188318901"><ele>13.666666666666666</ele><time>2026-04-19T13:57:26Z</time></trkpt><trkpt lat="41.12560575574958" lon="1.2894823345410003"><ele>13.0</ele><time>2026-04-19T13:57:27Z</time></trkpt><trkpt lat="41.12552793118329" lon="1.2892653840945838"><ele>13.0</ele><time>2026-04-19T13:57:28Z</time></trkpt><trkpt lat="41.125446263705406" lon="1.289053940517375"><ele>13.0</ele><time>2026-04-19T13:57:29Z</time></trkpt><trkpt lat="41.12537102890846" lon="1.2888524777225663"><ele>13.0</ele><time>2026-04-19T13:57:30Z</time></trkpt><trkpt lat="41.12529586378557" lon="1.2886486402208752"><ele>14.333333333333332</ele><time>2026-04-19T13:57:31Z</time></trkpt><trkpt lat="41.1252342787409" lon="1.2884419899202875"><ele>15.666666666666668</ele><time>2026-04-19T13:57:31.999Z</time></trkpt><trkpt lat="41.12519624513837" lon="1.288222144278868"><ele>17.0</ele><time>2026-04-19T13:57:32.999Z</time></trkpt><trkpt lat="41.12518535097407" lon="1.287993814256135"><ele>18.0</ele><time>2026-04-19T13:57:33.999Z</time></trkpt><trkpt lat="41.125197749070765" lon="1.2877615896793952"><ele>19.0</ele><time>2026-04-19T13:57:34.999Z</time></trkpt><trkpt lat="41.12521236731531" lon="1.2875190528853633"><ele>20.0</ele><time>2026-04-19T13:57:35.999Z</time></trkpt><trkpt lat="41.1252213083364" lon="1.2872664263420128"><ele>19.666666666666668</ele><time>2026-04-19T13:57:36.999Z</time></trkpt><trkpt lat="41.125218264507794" lon="1.2870140998959274"><ele>19.333333333333332</ele><time>2026-04-19T13:57:37.999Z</time></trkpt><trkpt lat="41.12519083152528" lon="1.2867752568672377"><ele>19.0</ele><time>2026-04-19T13:57:38.999Z</time></trkpt><trkpt lat="41.125146346629116" lon="1.2865654331890912"><ele>20.25</ele><time>2026-04-19T13:57:39.999Z</time></trkpt><trkpt lat="41.12509725447484" lon="1.286369537284151"><ele>21.5</ele><time>2026-04-19T13:57:40.999Z</time></trkpt><trkpt lat="41.125049288612594" lon="1.2861901183542237"><ele>22.75</ele><time>2026-04-19T13:57:41.999Z</time></trkpt><trkpt lat="41.125001447790005" lon="1.2860246648693687"><ele>24.0</ele><time>2026-04-19T13:57:42.999Z</time></trkpt><trkpt lat="41.12496200583531" lon="1.28587096925878"><ele>24.0</ele><time>2026-04-19T13:57:43.999Z</time></trkpt><trkpt lat="41.124923616189065" lon="1.285727950298293"><ele>24.0</ele><time>2026-04-19T13:57:44.999Z</time></trkpt><trkpt lat="41.12488670869821" lon="1.285585914316835"><ele>24.0</ele><time>2026-04-19T13:57:45.999Z</time></trkpt><trkpt lat="41.12484488779626" lon="1.285443968716696"><ele>24.0</ele><time>2026-04-19T13:57:46.999Z</time></trkpt><trkpt lat="41.124808687385816" lon="1.2853076981908675"><ele>22.25</ele><time>2026-04-19T13:57:47.999Z</time></trkpt><trkpt lat="41.12476645077248" lon="1.2851632436642078"><ele>20.5</ele><time>2026-04-19T13:57:48.999Z</time></trkpt><trkpt lat="41.12472088213407" lon="1.2849925334111594"><ele>18.75</ele><time>2026-04-19T13:57:49.999Z</time></trkpt><trkpt lat="41.1246510139907" lon="1.284787923031658"><ele>17.0</ele><time>2026-04-19T13:57:50.999Z</time></trkpt><trkpt lat="41.1245657841749" lon="1.2845683911321535"><ele>17.0</ele><time>2026-04-19T13:57:51.999Z</time></trkpt><trkpt lat="41.12449313067113" lon="1.2843267392888489"><ele>17.0</ele><time>2026-04-19T13:57:52.999Z</time></trkpt><trkpt lat="41.124396421268166" lon="1.2841220447311996"><ele>17.0</ele><time>2026-04-19T13:57:53.999Z</time></trkpt><trkpt lat="41.12432783839771" lon="1.283922218385175"><ele>17.25</ele><time>2026-04-19T13:57:54.999Z</time></trkpt><trkpt lat="41.12426324246297" lon="1.283736420857992"><ele>17.5</ele><time>2026-04-19T13:57:55.999Z</time></trkpt><trkpt lat="41.12420155582905" lon="1.2835674867670013"><ele>17.75</ele><time>2026-04-19T13:57:56.999Z</time></trkpt><trkpt lat="41.12414780648782" lon="1.283407786633431"><ele>18.0</ele><time>2026-04-19T13:57:57.999Z</time></trkpt><trkpt lat="41.12409579587978" lon="1.2832468123206056"><ele>17.0</ele><time>2026-04-19T13:57:58.999Z</time></trkpt><trkpt lat="41.12403782563657" lon="1.2830997349784161"><ele>16.0</ele><time>2026-04-19T13:57:59.999Z</time></trkpt><trkpt lat="41.12397982010433" lon="1.2829422665505825"><ele>15.0</ele><time>2026-04-19T13:58:00.999Z</time></trkpt><trkpt lat="41.123915060234374" lon="1.2827801878465037"><ele>14.0</ele><time>2026-04-19T13:58:01.999Z</time></trkpt><trkpt lat="41.1238438388715" lon="1.2825966262678175"><ele>14.0</ele><time>2026-04-19T13:58:02.999Z</time></trkpt><trkpt lat="41.12376476590557" lon="1.2823839309026315"><ele>14.0</ele><time>2026-04-19T13:58:03.999Z</time></trkpt><trkpt lat="41.12367331379031" lon="1.2821501413135727"><ele>14.0</ele><time>2026-04-19T13:58:04.999Z</time></trkpt><trkpt lat="41.12360490269735" lon="1.2819020936992203"><ele>15.666666666666668</ele><time>2026-04-19T13:58:05.999Z</time></trkpt><trkpt lat="41.12353569746607" lon="1.2816925294252446"><ele>17.333333333333332</ele><time>2026-04-19T13:58:06.999Z</time></trkpt><trkpt lat="41.123464922239506" lon="1.2814977677405253"><ele>19.0</ele><time>2026-04-19T13:58:07.999Z</time></trkpt><trkpt lat="41.123404312749045" lon="1.2812976771542628"><ele>19.0</ele><time>2026-04-19T13:58:08.999Z</time></trkpt><trkpt lat="41.12333922115347" lon="1.2810889260363325"><ele>19.0</ele><time>2026-04-19T13:58:09.999Z</time></trkpt><trkpt lat="41.12327695278901" lon="1.2808714564945927"><ele>19.0</ele><time>2026-04-19T13:58:10.999Z</time></trkpt><trkpt lat="41.123223554142285" lon="1.2806599239441443"><ele>18.0</ele><time>2026-04-19T13:58:11.999Z</time></trkpt><trkpt lat="41.123178935603825" lon="1.2804631834474147"><ele>17.0</ele><time>2026-04-19T13:58:12.999Z</time></trkpt><trkpt lat="41.12314031866662" lon="1.2802682439761102"><ele>16.0</ele><time>2026-04-19T13:58:13.999Z</time></trkpt><trkpt lat="41.12310552872958" lon="1.2800584655795029"><ele>16.0</ele><time>2026-04-19T13:58:14.999Z</time></trkpt><trkpt lat="41.123078595159505" lon="1.2798433698802842"><ele>16.0</ele><time>2026-04-19T13:58:15.999Z</time></trkpt><trkpt lat="41.12305684914483" lon="1.2796260161202775"><ele>16.0</ele><time>2026-04-19T13:58:16.999Z</time></trkpt><trkpt lat="41.12304106337766" lon="1.2794232617006478"><ele>15.5</ele><time>2026-04-19T13:58:17.999Z</time></trkpt><trkpt lat="41.123033565591186" lon="1.2792426300655877"><ele>15.0</ele><time>2026-04-19T13:58:18.999Z</time></trkpt><trkpt lat="41.123036085521186" lon="1.2790820166571775"><ele>14.5</ele><time>2026-04-19T13:58:19.999Z</time></trkpt><trkpt lat="41.12306211308076" lon="1.2789463064652176"><ele>14.0</ele><time>2026-04-19T13:58:20.999Z</time></trkpt><trkpt lat="41.123112680808774" lon="1.2788292807135748"><ele>14.0</ele><time>2026-04-19T13:58:21.999Z</time></trkpt><trkpt lat="41.12320609531042" lon="1.278744548504941"><ele>13.999999999999998</ele><time>2026-04-19T13:58:22.999Z</time></trkpt><trkpt lat="41.123300642351424" lon="1.2786645930338905"><ele>13.999999999999998</ele><time>2026-04-19T13:58:23.999Z</time></trkpt><trkpt lat="41.123364885981005" lon="1.278578350621893"><ele>14.0</ele><time>2026-04-19T13:58:24.999Z</time></trkpt><trkpt lat="41.12339698314814" lon="1.2784679631846136"><ele>14.0</ele><time>2026-04-19T13:58:25.999Z</time></trkpt><trkpt lat="41.123399062515354" lon="1.2783373871126122"><ele>14.0</ele><time>2026-04-19T13:58:26.999Z</time></trkpt><trkpt lat="41.123372884300885" lon="1.2782065708320876"><ele>13.999999999999998</ele><time>2026-04-19T13:58:27.999Z</time></trkpt><trkpt lat="41.123315103685215" lon="1.278097274898782"><ele>13.999999999999998</ele><time>2026-04-19T13:58:28.999Z</time></trkpt><trkpt lat="41.123225712385974" lon="1.2780203451301537"><ele>14.0</ele><time>2026-04-19T13:58:29.999Z</time></trkpt><trkpt lat="41.123111863741606" lon="1.2779743528090446"><ele>14.0</ele><time>2026-04-19T13:58:30.999Z</time></trkpt><trkpt lat="41.12298860561033" lon="1.2779693356743027"><ele>13.5</ele><time>2026-04-19T13:58:31.999Z</time></trkpt><trkpt lat="41.12285988803014" lon="1.2779716645195391"><ele>13.0</ele><time>2026-04-19T13:58:32.999Z</time></trkpt><trkpt lat="41.12273927124541" lon="1.2779040849631573"><ele>12.5</ele><time>2026-04-19T13:58:33.999Z</time></trkpt><trkpt lat="41.122638066157" lon="1.2777726290938018"><ele>12.0</ele><time>2026-04-19T13:58:34.999Z</time></trkpt><trkpt lat="41.12258542382259" lon="1.2775514120236346"><ele>12.0</ele><time>2026-04-19T13:58:35.999Z</time></trkpt><trkpt lat="41.12248511997711" lon="1.2773549307378023"><ele>12.0</ele><time>2026-04-19T13:58:36.999Z</time></trkpt><trkpt lat="41.12239995016878" lon="1.27714833059926"><ele>12.0</ele><time>2026-04-19T13:58:37.999Z</time></trkpt><trkpt lat="41.122317766072584" lon="1.276957978545833"><ele>11.25</ele><time>2026-04-19T13:58:38.999Z</time></trkpt><trkpt lat="41.12224071251944" lon="1.2767839782710917"><ele>10.5</ele><time>2026-04-19T13:58:39.999Z</time></trkpt><trkpt lat="41.122160837898555" lon="1.2766112383545845"><ele>9.75</ele><time>2026-04-19T13:58:40.999Z</time></trkpt><trkpt lat="41.12208959279934" lon="1.2764507677281767"><ele>9.0</ele><time>2026-04-19T13:58:41.998Z</time></trkpt><trkpt lat="41.12202867426609" lon="1.2763076342488966"><ele>9.0</ele><time>2026-04-19T13:58:42.998Z</time></trkpt><trkpt lat="41.1219814536997" lon="1.2761727695810303"><ele>9.0</ele><time>2026-04-19T13:58:43.998Z</time></trkpt><trkpt lat="41.12193611283521" lon="1.2760428781601219"><ele>9.0</ele><time>2026-04-19T13:58:44.998Z</time></trkpt><trkpt lat="41.121903227212904" lon="1.275921156475862"><ele>9.0</ele><time>2026-04-19T13:58:45.998Z</time></trkpt><trkpt lat="41.12188870067358" lon="1.275800002063839"><ele>9.0</ele><time>2026-04-19T13:58:46.998Z</time></trkpt><trkpt lat="41.12188260651578" lon="1.275675150343503"><ele>9.166666666666666</ele><time>2026-04-19T13:58:47.998Z</time></trkpt><trkpt lat="41.12186029698229" lon="1.2755701203073686"><ele>9.333333333333334</ele><time>2026-04-19T13:58:48.998Z</time></trkpt><trkpt lat="41.12180699689232" lon="1.2755075194802246"><ele>9.5</ele><time>2026-04-19T13:58:49.998Z</time></trkpt><trkpt lat="41.12171833748073" lon="1.275462193415005"><ele>9.666666666666668</ele><time>2026-04-19T13:58:50.998Z</time></trkpt><trkpt lat="41.12163279105826" lon="1.2754147617076013"><ele>9.833333333333334</ele><time>2026-04-19T13:58:51.998Z</time></trkpt><trkpt lat="41.121575288662015" lon="1.2753427337377807"><ele>10.0</ele><time>2026-04-19T13:58:53Z</time></trkpt><trkpt lat="41.12153028269728" lon="1.2752368888460115"><ele>9.4</ele><time>2026-04-19T13:58:54Z</time></trkpt><trkpt lat="41.12148583660988" lon="1.2751021111383198"><ele>8.8</ele><time>2026-04-19T13:58:55Z</time></trkpt><trkpt lat="41.12144075330771" lon="1.2749808676056853"><ele>8.2</ele><time>2026-04-19T13:58:56Z</time></trkpt><trkpt lat="41.12139102899817" lon="1.2748728167166872"><ele>7.6</ele><time>2026-04-19T13:58:57Z</time></trkpt><trkpt lat="41.121345876966" lon="1.2747570529220003"><ele>7.0</ele><time>2026-04-19T13:58:58Z</time></trkpt><trkpt lat="41.1212898320797" lon="1.2746325382025352"><ele>7.0</ele><time>2026-04-19T13:58:59Z</time></trkpt><trkpt lat="41.121241895868046" lon="1.274522510251371"><ele>6.999999999999999</ele><time>2026-04-19T13:59:00Z</time></trkpt><trkpt lat="41.12120870719926" lon="1.2744087251244558"><ele>6.999999999999999</ele><time>2026-04-19T13:59:01Z</time></trkpt><trkpt lat="41.12116920915749" lon="1.2743129196992788"><ele>7.0</ele><time>2026-04-19T13:59:02Z</time></trkpt><trkpt lat="41.12112754851796" lon="1.2742123203933837"><ele>7.0</ele><time>2026-04-19T13:59:03Z</time></trkpt><trkpt lat="41.12106996061927" lon="1.2741150582521725"><ele>7.0</ele><time>2026-04-19T13:59:04Z</time></trkpt><trkpt lat="41.1210223319823" lon="1.2740043879796263"><ele>6.999999999999999</ele><time>2026-04-19T13:59:05Z</time></trkpt><trkpt lat="41.12097686306629" lon="1.273885907446295"><ele>6.999999999999999</ele><time>2026-04-19T13:59:06Z</time></trkpt><trkpt lat="41.12094102114449" lon="1.273758499706759"><ele>7.0</ele><time>2026-04-19T13:59:07Z</time></trkpt><trkpt lat="41.120886323702926" lon="1.2736359944849904"><ele>7.0</ele><time>2026-04-19T13:59:08Z</time></trkpt><trkpt lat="41.12083720435599" lon="1.2735121664946414"><ele>7.0</ele><time>2026-04-19T13:59:09Z</time></trkpt><trkpt lat="41.12078186763138" lon="1.2733789777398652"><ele>7.0</ele><time>2026-04-19T13:59:10Z</time></trkpt><trkpt lat="41.12072297860602" lon="1.273246998632891"><ele>7.0</ele><time>2026-04-19T13:59:11Z</time></trkpt><trkpt lat="41.12066837218911" lon="1.2731046821933023"><ele>7.0</ele><time>2026-04-19T13:59:12Z</time></trkpt><trkpt lat="41.120611360307656" lon="1.2729569838936978"><ele>7.0</ele><time>2026-04-19T13:59:13Z</time></trkpt><trkpt lat="41.12054491801302" lon="1.2727974728120086"><ele>7.0</ele><time>2026-04-19T13:59:14Z</time></trkpt><trkpt lat="41.120482242032445" lon="1.272638924272749"><ele>7.0</ele><time>2026-04-19T13:59:15Z</time></trkpt><trkpt lat="41.12041662902639" lon="1.2724835605281866"><ele>7.0</ele><time>2026-04-19T13:59:16Z</time></trkpt><trkpt lat="41.120355582246226" lon="1.2723336782649244"><ele>7.75</ele><time>2026-04-19T13:59:17Z</time></trkpt><trkpt lat="41.120295663181764" lon="1.2721963123635984"><ele>8.5</ele><time>2026-04-19T13:59:18Z</time></trkpt><trkpt lat="41.120228478351855" lon="1.272049626000029"><ele>9.25</ele><time>2026-04-19T13:59:19Z</time></trkpt><trkpt lat="41.120164684619034" lon="1.2719001311822185"><ele>10.0</ele><time>2026-04-19T13:59:20Z</time></trkpt><trkpt lat="41.12009428424946" lon="1.2717300311027364"><ele>10.0</ele><time>2026-04-19T13:59:21Z</time></trkpt><trkpt lat="41.12002681533115" lon="1.2715653730806122"><ele>10.0</ele><time>2026-04-19T13:59:22Z</time></trkpt><trkpt lat="41.1199564323078" lon="1.2713981711193392"><ele>10.0</ele><time>2026-04-19T13:59:23Z</time></trkpt><trkpt lat="41.11988399665888" lon="1.2712302470500068"><ele>10.0</ele><time>2026-04-19T13:59:24Z</time></trkpt><trkpt lat="41.11981612991305" lon="1.2710691004396428"><ele>12.0</ele><time>2026-04-19T13:59:25Z</time></trkpt><trkpt lat="41.11974785760515" lon="1.270919894100523"><ele>14.0</ele><time>2026-04-19T13:59:26Z</time></trkpt><trkpt lat="41.11968830836904" lon="1.270762937007139"><ele>16.0</ele><time>2026-04-19T13:59:27Z</time></trkpt><trkpt lat="41.11962805281579" lon="1.2706153307112518"><ele>18.0</ele><time>2026-04-19T13:59:28Z</time></trkpt><trkpt lat="41.11956998595584" lon="1.2704699442898892"><ele>18.5</ele><time>2026-04-19T13:59:29Z</time></trkpt><trkpt lat="41.1195075617378" lon="1.2703395782239646"><ele>19.0</ele><time>2026-04-19T13:59:30Z</time></trkpt><trkpt lat="41.119453821119606" lon="1.2702026081034834"><ele>19.5</ele><time>2026-04-19T13:59:31Z</time></trkpt><trkpt lat="41.119394645959126" lon="1.270073468564549"><ele>20.0</ele><time>2026-04-19T13:59:32Z</time></trkpt><trkpt lat="41.11935292878542" lon="1.2699437450771547"><ele>20.0</ele><time>2026-04-19T13:59:33Z</time></trkpt><trkpt lat="41.11930803905484" lon="1.2698319624871364"><ele>20.0</ele><time>2026-04-19T13:59:34Z</time></trkpt><trkpt lat="41.119281450818505" lon="1.2697266593487455"><ele>20.0</ele><time>2026-04-19T13:59:35Z</time></trkpt><trkpt lat="41.119273668862306" lon="1.2696127674308464"><ele>20.0</ele><time>2026-04-19T13:59:36Z</time></trkpt><trkpt lat="41.11929078577604" lon="1.2694888773677233"><ele>20.0</ele><time>2026-04-19T13:59:37Z</time></trkpt><trkpt lat="41.11928098536303" lon="1.2693815480331974"><ele>20.0</ele><time>2026-04-19T13:59:37.999Z</time></trkpt><trkpt lat="41.119233888542844" lon="1.2692816965551375"><ele>20.0</ele><time>2026-04-19T13:59:38.999Z</time></trkpt><trkpt lat="41.11914685562855" lon="1.2692046871621008"><ele>20.0</ele><time>2026-04-19T13:59:39.999Z</time></trkpt><trkpt lat="41.11904260913194" lon="1.2691445095828997"><ele>20.0</ele><time>2026-04-19T13:59:40.999Z</time></trkpt><trkpt lat="41.1189767591027" lon="1.2690213912516406"><ele>20.0</ele><time>2026-04-19T13:59:41.999Z</time></trkpt><trkpt lat="41.11891876420436" lon="1.2688794563751582"><ele>22.0</ele><time>2026-04-19T13:59:42.999Z</time></trkpt><trkpt lat="41.1188513417849" lon="1.26871444851988"><ele>24.0</ele><time>2026-04-19T13:59:43.999Z</time></trkpt><trkpt lat="41.11879221684383" lon="1.2685799573612824"><ele>26.0</ele><time>2026-04-19T13:59:44.999Z</time></trkpt><trkpt lat="41.11873641843915" lon="1.2684582541084612"><ele>28.0</ele><time>2026-04-19T13:59:45.999Z</time></trkpt><trkpt lat="41.11868451918217" lon="1.2683325301705501"><ele>28.0</ele><time>2026-04-19T13:59:46.999Z</time></trkpt><trkpt lat="41.11862791407429" lon="1.2681967641215652"><ele>28.0</ele><time>2026-04-19T13:59:47.999Z</time></trkpt><trkpt lat="41.1185665104196" lon="1.2680466993474402"><ele>28.0</ele><time>2026-04-19T13:59:48.999Z</time></trkpt><trkpt lat="41.11850150545321" lon="1.2678849910406156"><ele>28.0</ele><time>2026-04-19T13:59:49.999Z</time></trkpt><trkpt lat="41.1184324979913" lon="1.267715709778721"><ele>30.0</ele><time>2026-04-19T13:59:50.999Z</time></trkpt><trkpt lat="41.11835486459422" lon="1.2675353610945543"><ele>32.0</ele><time>2026-04-19T13:59:51.999Z</time></trkpt><trkpt lat="41.11827633753582" lon="1.267349264795031"><ele>34.0</ele><time>2026-04-19T13:59:52.999Z</time></trkpt><trkpt lat="41.11819711671875" lon="1.2671674712862313"><ele>34.25</ele><time>2026-04-19T13:59:53.999Z</time></trkpt><trkpt lat="41.11812085618239" lon="1.266984827254"><ele>34.5</ele><time>2026-04-19T13:59:54.999Z</time></trkpt><trkpt lat="41.11805017621217" lon="1.2668127023681905"><ele>34.75</ele><time>2026-04-19T13:59:55.999Z</time></trkpt><trkpt lat="41.11798833825443" lon="1.2666609669881093"><ele>35.0</ele><time>2026-04-19T13:59:56.999Z</time></trkpt><trkpt lat="41.1179454587616" lon="1.2665140175352234"><ele>35.75</ele><time>2026-04-19T13:59:57.999Z</time></trkpt><trkpt lat="41.11788633813116" lon="1.2663942637001802"><ele>36.5</ele><time>2026-04-19T13:59:58.999Z</time></trkpt><trkpt lat="41.117831469607545" lon="1.2662594589410554"><ele>37.25</ele><time>2026-04-19T13:59:59.999Z</time></trkpt><trkpt lat="41.117778641861946" lon="1.2661237201426303"><ele>38.0</ele><time>2026-04-19T14:00:00.999Z</time></trkpt><trkpt lat="41.117728543654216" lon="1.2659912087810699"><ele>38.0</ele><time>2026-04-19T14:00:01.999Z</time></trkpt><trkpt lat="41.11768692595986" lon="1.2658670583847889"><ele>38.0</ele><time>2026-04-19T14:00:02.999Z</time></trkpt><trkpt lat="41.11764297676838" lon="1.265746154036454"><ele>38.0</ele><time>2026-04-19T14:00:03.999Z</time></trkpt><trkpt lat="41.11760217238438" lon="1.2656157540631936"><ele>38.0</ele><time>2026-04-19T14:00:04.999Z</time></trkpt><trkpt lat="41.11755617891841" lon="1.2654811367234422"><ele>38.0</ele><time>2026-04-19T14:00:05.999Z</time></trkpt><trkpt lat="41.11751596798544" lon="1.265341684329178"><ele>38.33333333333333</ele><time>2026-04-19T14:00:06.999Z</time></trkpt><trkpt lat="41.11747884501849" lon="1.2652285674695458"><ele>38.666666666666664</ele><time>2026-04-19T14:00:07.999Z</time></trkpt><trkpt lat="41.117442114730224" lon="1.2651359281258905"><ele>39.0</ele><time>2026-04-19T14:00:08.999Z</time></trkpt><trkpt lat="41.11740555954132" lon="1.265021151973951"><ele>39.333333333333336</ele><time>2026-04-19T14:00:10.999Z</time></trkpt><trkpt lat="41.117375857828" lon="1.2649313010736445"><ele>39.66666666666667</ele><time>2026-04-19T14:00:14.999Z</time></trkpt><trkpt lat="41.117358402987996" lon="1.2648422132804724"><ele>40.0</ele><time>2026-04-19T14:00:37.999Z</time></trkpt><trkpt lat="41.117333122013285" lon="1.2647521587213006"><ele>38.75</ele><time>2026-04-19T14:00:38.999Z</time></trkpt><trkpt lat="41.117299139032816" lon="1.2646311063210427"><ele>37.5</ele><time>2026-04-19T14:00:39.999Z</time></trkpt><trkpt lat="41.11726152167123" lon="1.2644937504075622"><ele>36.25</ele><time>2026-04-19T14:00:40.999Z</time></trkpt><trkpt lat="41.11721696654683" lon="1.2643309867997463"><ele>35.0</ele><time>2026-04-19T14:00:41.999Z</time></trkpt><trkpt lat="41.11717889405229" lon="1.2641863801586535"><ele>35.0</ele><time>2026-04-19T14:00:42.999Z</time></trkpt><trkpt lat="41.117132350281445" lon="1.2640539392246455"><ele>35.0</ele><time>2026-04-19T14:00:43.999Z</time></trkpt><trkpt lat="41.11711119501363" lon="1.2639133927578747"><ele>35.0</ele><time>2026-04-19T14:00:44.999Z</time></trkpt><trkpt lat="41.11706747494445" lon="1.2637722871685066"><ele>35.0</ele><time>2026-04-19T14:00:45.999Z</time></trkpt><trkpt lat="41.117022808137534" lon="1.2636190041200879"><ele>34.5</ele><time>2026-04-19T14:00:46.998Z</time></trkpt><trkpt lat="41.11697994833119" lon="1.263462872337389"><ele>34.0</ele><time>2026-04-19T14:00:47.998Z</time></trkpt><trkpt lat="41.11694450274733" lon="1.2633150558367632"><ele>33.5</ele><time>2026-04-19T14:00:48.998Z</time></trkpt><trkpt lat="41.11690188997579" lon="1.2631822960283772"><ele>33.0</ele><time>2026-04-19T14:00:49.998Z</time></trkpt><trkpt lat="41.11687489092372" lon="1.263052982227711"><ele>32.6</ele><time>2026-04-19T14:00:50.998Z</time></trkpt><trkpt lat="41.11683971093836" lon="1.2629215920218604"><ele>32.199999999999996</ele><time>2026-04-19T14:00:51.998Z</time></trkpt><trkpt lat="41.11681018009509" lon="1.2627967379051594"><ele>31.8</ele><time>2026-04-19T14:00:52.998Z</time></trkpt><trkpt lat="41.11677227915995" lon="1.2626887456639937"><ele>31.4</ele><time>2026-04-19T14:00:53.998Z</time></trkpt><trkpt lat="41.11675841428244" lon="1.2625740795389853"><ele>31.0</ele><time>2026-04-19T14:00:54.998Z</time></trkpt><trkpt lat="41.11672785027755" lon="1.2624544702998521"><ele>31.0</ele><time>2026-04-19T14:00:55.998Z</time></trkpt><trkpt lat="41.11668383108505" lon="1.262337713526639"><ele>31.0</ele><time>2026-04-19T14:00:56.998Z</time></trkpt><trkpt lat="41.11665733295162" lon="1.2622058237632374"><ele>31.0</ele><time>2026-04-19T14:00:57.998Z</time></trkpt><trkpt lat="41.116626319520726" lon="1.2620736761120133"><ele>31.0</ele><time>2026-04-19T14:00:59Z</time></trkpt><trkpt lat="41.1165955707751" lon="1.261951176058814"><ele>31.0</ele><time>2026-04-19T14:01:00Z</time></trkpt><trkpt lat="41.11656347243259" lon="1.261829951326431"><ele>31.0</ele><time>2026-04-19T14:01:01Z</time></trkpt><trkpt lat="41.1165310499522" lon="1.261701715818499"><ele>31.0</ele><time>2026-04-19T14:01:02Z</time></trkpt><trkpt lat="41.11649770450275" lon="1.2615724422214614"><ele>31.0</ele><time>2026-04-19T14:01:03Z</time></trkpt><trkpt lat="41.116462887427076" lon="1.2614391649791465"><ele>31.0</ele><time>2026-04-19T14:01:04Z</time></trkpt><trkpt lat="41.11642780062504" lon="1.2613130958917982"><ele>31.0</ele><time>2026-04-19T14:01:05Z</time></trkpt><trkpt lat="41.11639521253176" lon="1.26118049418495"><ele>31.0</ele><time>2026-04-19T14:01:06Z</time></trkpt><trkpt lat="41.116361038922975" lon="1.261045883628182"><ele>31.0</ele><time>2026-04-19T14:01:07Z</time></trkpt><trkpt lat="41.11632501939606" lon="1.2609123893018481"><ele>31.0</ele><time>2026-04-19T14:01:08Z</time></trkpt><trkpt lat="41.116292639407305" lon="1.260782682834867"><ele>31.0</ele><time>2026-04-19T14:01:09Z</time></trkpt><trkpt lat="41.11625754410043" lon="1.260649759054212"><ele>31.0</ele><time>2026-04-19T14:01:10Z</time></trkpt><trkpt lat="41.11622445459637" lon="1.2605177840893718"><ele>32.8</ele><time>2026-04-19T14:01:11Z</time></trkpt><trkpt lat="41.1161934651051" lon="1.2604005310733422"><ele>34.6</ele><time>2026-04-19T14:01:12Z</time></trkpt><trkpt lat="41.11616185162678" lon="1.2602809311108372"><ele>36.4</ele><time>2026-04-19T14:01:13Z</time></trkpt><trkpt lat="41.116134209396705" lon="1.2601637739765532"><ele>38.2</ele><time>2026-04-19T14:01:14Z</time></trkpt><trkpt lat="41.11609807537918" lon="1.2600667739596922"><ele>40.0</ele><time>2026-04-19T14:01:15Z</time></trkpt><trkpt lat="41.11604989231238" lon="1.2599136869221121"><ele>40.0</ele><time>2026-04-19T14:01:17Z</time></trkpt><trkpt lat="41.11602911103831" lon="1.2598150219839783"><ele>40.0</ele><time>2026-04-19T14:01:19Z</time></trkpt><trkpt lat="41.11601971085568" lon="1.2597259350408718"><ele>40.0</ele><time>2026-04-19T14:01:31Z</time></trkpt><trkpt lat="41.11599578161598" lon="1.2596452213974298"><ele>40.0</ele><time>2026-04-19T14:01:32Z</time></trkpt><trkpt lat="41.115974505021875" lon="1.2595662440160396"><ele>40.0</ele><time>2026-04-19T14:01:33Z</time></trkpt><trkpt lat="41.11595343675578" lon="1.259429431532335"><ele>40.0</ele><time>2026-04-19T14:01:35Z</time></trkpt><trkpt lat="41.11592023416076" lon="1.2593136698256944"><ele>41.0</ele><time>2026-04-19T14:01:37Z</time></trkpt><trkpt lat="41.11587992774712" lon="1.2591616111161827"><ele>42.0</ele><time>2026-04-19T14:01:39Z</time></trkpt><trkpt lat="41.11585473960933" lon="1.259055595830712"><ele>43.0</ele><time>2026-04-19T14:01:40Z</time></trkpt><trkpt lat="41.115825242631054" lon="1.2589367662916242"><ele>44.0</ele><time>2026-04-19T14:01:41Z</time></trkpt><trkpt lat="41.115791770813736" lon="1.2588251523079026"><ele>45.0</ele><time>2026-04-19T14:01:42Z</time></trkpt><trkpt lat="41.11576358275452" lon="1.2587304049779602"><ele>45.166666666666664</ele><time>2026-04-19T14:01:42.999Z</time></trkpt><trkpt lat="41.11573652662807" lon="1.2586347034315777"><ele>45.333333333333336</ele><time>2026-04-19T14:01:43.999Z</time></trkpt><trkpt lat="41.11571210382372" lon="1.2585269376318204"><ele>45.5</ele><time>2026-04-19T14:01:44.999Z</time></trkpt><trkpt lat="41.11568710605408" lon="1.2584165729937786"><ele>45.66666666666667</ele><time>2026-04-19T14:01:45.999Z</time></trkpt><trkpt lat="41.11566538929133" lon="1.2583117806905948"><ele>45.833333333333336</ele><time>2026-04-19T14:01:46.999Z</time></trkpt><trkpt lat="41.115640746869836" lon="1.258211628302471"><ele>46.0</ele><time>2026-04-19T14:01:47.999Z</time></trkpt><trkpt lat="41.115622167845125" lon="1.2581167670466986"><ele>46.0</ele><time>2026-04-19T14:01:48.999Z</time></trkpt><trkpt lat="41.115606444313904" lon="1.2580302774600998"><ele>46.0</ele><time>2026-04-19T14:01:49.999Z</time></trkpt><trkpt lat="41.11557356555796" lon="1.2578887705138204"><ele>46.0</ele><time>2026-04-19T14:01:51.999Z</time></trkpt><trkpt lat="41.11554868424016" lon="1.2577942463676"><ele>46.0</ele><time>2026-04-19T14:01:53.999Z</time></trkpt><trkpt lat="41.1155389016895" lon="1.2576719700037484"><ele>46.0</ele><time>2026-04-19T14:01:56.999Z</time></trkpt><trkpt lat="41.11553712187027" lon="1.2574965376569534"><ele>46.0</ele><time>2026-04-19T14:01:58.999Z</time></trkpt><trkpt lat="41.115497386006346" lon="1.2573475682112787"><ele>46.0</ele><time>2026-04-19T14:02:00.999Z</time></trkpt><trkpt lat="41.11547318823278" lon="1.257262164236141"><ele>46.0</ele><time>2026-04-19T14:02:01.999Z</time></trkpt><trkpt lat="41.115470970262145" lon="1.2571625262533472"><ele>46.0</ele><time>2026-04-19T14:02:02.999Z</time></trkpt><trkpt lat="41.11549582872633" lon="1.2570611335218687"><ele>46.0</ele><time>2026-04-19T14:02:03.999Z</time></trkpt><trkpt lat="41.115538298126786" lon="1.2569555006452704"><ele>46.0</ele><time>2026-04-19T14:02:04.999Z</time></trkpt><trkpt lat="41.11559754374141" lon="1.2568393713434414"><ele>47.4</ele><time>2026-04-19T14:02:05.999Z</time></trkpt><trkpt lat="41.11565288252819" lon="1.256722948296795"><ele>48.8</ele><time>2026-04-19T14:02:06.999Z</time></trkpt><trkpt lat="41.115697254569994" lon="1.2566199367449806"><ele>50.199999999999996</ele><time>2026-04-19T14:02:07.999Z</time></trkpt><trkpt lat="41.1157438445834" lon="1.2565133314690238"><ele>51.599999999999994</ele><time>2026-04-19T14:02:08.999Z</time></trkpt><trkpt lat="41.11579258581299" lon="1.256401268708247"><ele>53.0</ele><time>2026-04-19T14:02:09.999Z</time></trkpt><trkpt lat="41.11583959894548" lon="1.2563011394566068"><ele>53.66666666666667</ele><time>2026-04-19T14:02:10.999Z</time></trkpt><trkpt lat="41.11587982620653" lon="1.256199051077781"><ele>54.333333333333336</ele><time>2026-04-19T14:02:11.999Z</time></trkpt><trkpt lat="41.11592159512084" lon="1.256107280184893"><ele>55.0</ele><time>2026-04-19T14:02:12.999Z</time></trkpt><trkpt lat="41.11596143834487" lon="1.2560203101296252"><ele>55.66666666666667</ele><time>2026-04-19T14:02:13.999Z</time></trkpt><trkpt lat="41.11599913250721" lon="1.2559461467601358"><ele>56.333333333333336</ele><time>2026-04-19T14:02:14.999Z</time></trkpt><trkpt lat="41.11603860196131" lon="1.2558744244226456"><ele>57.0</ele><time>2026-04-19T14:02:15.999Z</time></trkpt><trkpt lat="41.116086725805374" lon="1.255753172946989"><ele>57.0</ele><time>2026-04-19T14:02:17.999Z</time></trkpt><trkpt lat="41.11613708479716" lon="1.2556451532798518"><ele>57.0</ele><time>2026-04-19T14:02:48.999Z</time></trkpt><trkpt lat="41.11621217915197" lon="1.2554916525210964"><ele>57.0</ele><time>2026-04-19T14:02:50.999Z</time></trkpt><trkpt lat="41.11626753816024" lon="1.2553799667505552"><ele>57.0</ele><time>2026-04-19T14:02:51.999Z</time></trkpt><trkpt lat="41.11633673868575" lon="1.2552400825580559"><ele>57.0</ele><time>2026-04-19T14:02:52.999Z</time></trkpt><trkpt lat="41.116395010588626" lon="1.255122428792637"><ele>57.0</ele><time>2026-04-19T14:02:53.998Z</time></trkpt><trkpt lat="41.116452948261845" lon="1.2550055489319114"><ele>57.0</ele><time>2026-04-19T14:02:54.998Z</time></trkpt><trkpt lat="41.11651245698557" lon="1.2548854997249839"><ele>57.0</ele><time>2026-04-19T14:02:55.998Z</time></trkpt><trkpt lat="41.11657243195278" lon="1.2547638257930018"><ele>57.0</ele><time>2026-04-19T14:02:56.998Z</time></trkpt><trkpt lat="41.11662703807151" lon="1.2546512174604951"><ele>57.0</ele><time>2026-04-19T14:02:57.998Z</time></trkpt><trkpt lat="41.11667550713414" lon="1.2545512654268698"><ele>57.0</ele><time>2026-04-19T14:02:58.998Z</time></trkpt><trkpt lat="41.11671595137133" lon="1.2544678614759095"><ele>57.0</ele><time>2026-04-19T14:02:59.998Z</time></trkpt><trkpt lat="41.11675956895433" lon="1.254377914090271"><ele>57.0</ele><time>2026-04-19T14:03:00.998Z</time></trkpt><trkpt lat="41.11681119961811" lon="1.254270570656533"><ele>57.0</ele><time>2026-04-19T14:03:01.998Z</time></trkpt><trkpt lat="41.116864187971025" lon="1.2541604271805773"><ele>57.0</ele><time>2026-04-19T14:03:02.998Z</time></trkpt><trkpt lat="41.116920388394576" lon="1.2540436067541905"><ele>56.666666666666664</ele><time>2026-04-19T14:03:03.998Z</time></trkpt><trkpt lat="41.11697325430683" lon="1.253933717770105"><ele>56.33333333333333</ele><time>2026-04-19T14:03:05Z</time></trkpt><trkpt lat="41.11701961860069" lon="1.2538373431837024"><ele>56.0</ele><time>2026-04-19T14:03:06Z</time></trkpt><trkpt lat="41.11705864185135" lon="1.2537562280023853"><ele>55.666666666666664</ele><time>2026-04-19T14:03:07Z</time></trkpt><trkpt lat="41.11711000025553" lon="1.2536516502379653"><ele>55.33333333333333</ele><time>2026-04-19T14:03:08Z</time></trkpt><trkpt lat="41.11715661831249" lon="1.2535569300792437"><ele>55.0</ele><time>2026-04-19T14:03:09Z</time></trkpt><trkpt lat="41.11721084892381" lon="1.2534493628061527"><ele>55.0</ele><time>2026-04-19T14:03:10Z</time></trkpt><trkpt lat="41.11726241715581" lon="1.2533461783578437"><ele>55.0</ele><time>2026-04-19T14:03:11Z</time></trkpt><trkpt lat="41.11731301715394" lon="1.2532449312542944"><ele>55.0</ele><time>2026-04-19T14:03:12Z</time></trkpt><trkpt lat="41.11736646845585" lon="1.2531346862734103"><ele>55.0</ele><time>2026-04-19T14:03:13Z</time></trkpt><trkpt lat="41.11742028266682" lon="1.2530199585551094"><ele>55.0</ele><time>2026-04-19T14:03:14Z</time></trkpt><trkpt lat="41.11747155900618" lon="1.25290376557337"><ele>54.6</ele><time>2026-04-19T14:03:15Z</time></trkpt><trkpt lat="41.11751075947492" lon="1.2527919162945893"><ele>54.2</ele><time>2026-04-19T14:03:16Z</time></trkpt><trkpt lat="41.11754310559892" lon="1.252677841522165"><ele>53.8</ele><time>2026-04-19T14:03:17Z</time></trkpt><trkpt lat="41.11756984246744" lon="1.2525630055415742"><ele>53.4</ele><time>2026-04-19T14:03:18Z</time></trkpt><trkpt lat="41.11759737839931" lon="1.2524412828955633"><ele>53.0</ele><time>2026-04-19T14:03:19Z</time></trkpt><trkpt lat="41.117624501341474" lon="1.2523263829469948"><ele>52.66666666666667</ele><time>2026-04-19T14:03:20Z</time></trkpt><trkpt lat="41.117649984796856" lon="1.252214245871566"><ele>52.333333333333336</ele><time>2026-04-19T14:03:21Z</time></trkpt><trkpt lat="41.11767440201629" lon="1.252105053324006"><ele>52.0</ele><time>2026-04-19T14:03:22Z</time></trkpt><trkpt lat="41.11769701961858" lon="1.2520039095494189"><ele>51.66666666666667</ele><time>2026-04-19T14:03:23Z</time></trkpt><trkpt lat="41.11771719617663" lon="1.251908472541903"><ele>51.333333333333336</ele><time>2026-04-19T14:03:24Z</time></trkpt><trkpt lat="41.117737017956586" lon="1.2518155812619995"><ele>51.0</ele><time>2026-04-19T14:03:25Z</time></trkpt><trkpt lat="41.11775650175006" lon="1.2517224992003049"><ele>51.0</ele><time>2026-04-19T14:03:26Z</time></trkpt><trkpt lat="41.11777451412461" lon="1.251636095841868"><ele>51.0</ele><time>2026-04-19T14:03:27Z</time></trkpt><trkpt lat="41.117798438109375" lon="1.2515213360491837"><ele>51.0</ele><time>2026-04-19T14:03:28Z</time></trkpt><trkpt lat="41.11782102872532" lon="1.2514080001702481"><ele>51.0</ele><time>2026-04-19T14:03:29Z</time></trkpt><trkpt lat="41.117843985256904" lon="1.2512960128705262"><ele>51.0</ele><time>2026-04-19T14:03:30Z</time></trkpt><trkpt lat="41.11786210309144" lon="1.251175836988745"><ele>51.0</ele><time>2026-04-19T14:03:31Z</time></trkpt><trkpt lat="41.117886196850435" lon="1.251062935200688"><ele>50.666666666666664</ele><time>2026-04-19T14:03:32Z</time></trkpt><trkpt lat="41.11788269287651" lon="1.2509583826820752"><ele>50.33333333333333</ele><time>2026-04-19T14:03:33Z</time></trkpt><trkpt lat="41.117900616387814" lon="1.2508730707306508"><ele>50.0</ele><time>2026-04-19T14:03:34Z</time></trkpt><trkpt lat="41.11794691954422" lon="1.2507869972241485"><ele>49.666666666666664</ele><time>2026-04-19T14:03:35Z</time></trkpt><trkpt lat="41.1179817894482" lon="1.2506662931665131"><ele>49.33333333333333</ele><time>2026-04-19T14:03:36Z</time></trkpt><trkpt lat="41.11801040991922" lon="1.2505452500995393"><ele>49.0</ele><time>2026-04-19T14:03:37Z</time></trkpt><trkpt lat="41.11802768586373" lon="1.2504364632746379"><ele>48.33333333333333</ele><time>2026-04-19T14:03:38Z</time></trkpt><trkpt lat="41.11804418956127" lon="1.250336220958558"><ele>47.666666666666664</ele><time>2026-04-19T14:03:39Z</time></trkpt><trkpt lat="41.11806508711278" lon="1.2502406195506686"><ele>47.0</ele><time>2026-04-19T14:03:40Z</time></trkpt><trkpt lat="41.1180962425325" lon="1.2501448285923236"><ele>46.33333333333333</ele><time>2026-04-19T14:03:41Z</time></trkpt><trkpt lat="41.118114890156036" lon="1.2500346862133689"><ele>45.666666666666664</ele><time>2026-04-19T14:03:42Z</time></trkpt><trkpt lat="41.118136632867326" lon="1.249927906962198"><ele>45.0</ele><time>2026-04-19T14:03:43Z</time></trkpt><trkpt lat="41.11815449220292" lon="1.2498291999252584"><ele>45.0</ele><time>2026-04-19T14:03:44Z</time></trkpt><trkpt lat="41.1181710017798" lon="1.2497407943862435"><ele>45.0</ele><time>2026-04-19T14:03:45Z</time></trkpt><trkpt lat="41.118184802683295" lon="1.2496513484630056"><ele>45.0</ele><time>2026-04-19T14:03:45.999Z</time></trkpt><trkpt lat="41.11820165486929" lon="1.2495510005390098"><ele>45.0</ele><time>2026-04-19T14:03:46.999Z</time></trkpt><trkpt lat="41.1182222569719" lon="1.2494689766895923"><ele>45.0</ele><time>2026-04-19T14:03:47.999Z</time></trkpt><trkpt lat="41.118242970828206" lon="1.2493900181776723"><ele>45.0</ele><time>2026-04-19T14:03:48.999Z</time></trkpt><trkpt lat="41.11828212660685" lon="1.2492458042195809"><ele>43.5</ele><time>2026-04-19T14:03:50.999Z</time></trkpt><trkpt lat="41.11832002538964" lon="1.2491070814691494"><ele>42.0</ele><time>2026-04-19T14:03:52.999Z</time></trkpt><trkpt lat="41.11833587972705" lon="1.2489735045856087"><ele>40.5</ele><time>2026-04-19T14:03:54.999Z</time></trkpt><trkpt lat="41.118359884023114" lon="1.248837979421763"><ele>39.0</ele><time>2026-04-19T14:03:56.999Z</time></trkpt><trkpt lat="41.118401153440374" lon="1.2486710539869053"><ele>39.0</ele><time>2026-04-19T14:03:58.999Z</time></trkpt><trkpt lat="41.118424815182564" lon="1.2485562407625619"><ele>39.0</ele><time>2026-04-19T14:03:59.999Z</time></trkpt><trkpt lat="41.118451307145655" lon="1.2484504146740028"><ele>39.0</ele><time>2026-04-19T14:04:00.999Z</time></trkpt><trkpt lat="41.11847704820074" lon="1.2483592951056786"><ele>39.0</ele><time>2026-04-19T14:04:01.999Z</time></trkpt><trkpt lat="41.11849977198823" lon="1.248253874653441"><ele>39.0</ele><time>2026-04-19T14:04:02.999Z</time></trkpt><trkpt lat="41.118502949622574" lon="1.248143271389117"><ele>39.0</ele><time>2026-04-19T14:04:03.999Z</time></trkpt><trkpt lat="41.1185276341805" lon="1.2480056594719158"><ele>38.5</ele><time>2026-04-19T14:04:04.999Z</time></trkpt><trkpt lat="41.118560202119575" lon="1.2478608737612573"><ele>38.0</ele><time>2026-04-19T14:04:05.999Z</time></trkpt><trkpt lat="41.11859466243483" lon="1.2477106341455357"><ele>37.5</ele><time>2026-04-19T14:04:06.999Z</time></trkpt><trkpt lat="41.11863520959683" lon="1.2475332751126385"><ele>37.0</ele><time>2026-04-19T14:04:07.999Z</time></trkpt><trkpt lat="41.11868178754635" lon="1.2473210262974996"><ele>36.25</ele><time>2026-04-19T14:04:08.999Z</time></trkpt><trkpt lat="41.11872144467509" lon="1.247128188146516"><ele>35.5</ele><time>2026-04-19T14:04:09.999Z</time></trkpt><trkpt lat="41.11875998395444" lon="1.2469425189019743"><ele>34.75</ele><time>2026-04-19T14:04:10.999Z</time></trkpt><trkpt lat="41.11879571611083" lon="1.2467798389594065"><ele>34.0</ele><time>2026-04-19T14:04:11.999Z</time></trkpt><trkpt lat="41.11883047917945" lon="1.2466317679703482"><ele>34.0</ele><time>2026-04-19T14:04:12.999Z</time></trkpt><trkpt lat="41.118861680201796" lon="1.2465051032397432"><ele>34.0</ele><time>2026-04-19T14:04:13.999Z</time></trkpt><trkpt lat="41.11888434199484" lon="1.2463828595158675"><ele>34.0</ele><time>2026-04-19T14:04:14.999Z</time></trkpt><trkpt lat="41.118917330139176" lon="1.2462876639626355"><ele>34.0</ele><time>2026-04-19T14:04:15.999Z</time></trkpt><trkpt lat="41.11896097601892" lon="1.2462228226105405"><ele>34.0</ele><time>2026-04-19T14:05:16Z</time></trkpt><trkpt lat="41.11903659420191" lon="1.246061998590704"><ele>32.333333333333336</ele><time>2026-04-19T14:05:18Z</time></trkpt><trkpt lat="41.119092114648645" lon="1.2459945955002865"><ele>30.666666666666668</ele><time>2026-04-19T14:05:19Z</time></trkpt><trkpt lat="41.11915519389054" lon="1.2459230717139715"><ele>29.0</ele><time>2026-04-19T14:05:20Z</time></trkpt><trkpt lat="41.11920588617291" lon="1.2458387714417294"><ele>27.333333333333336</ele><time>2026-04-19T14:05:21Z</time></trkpt><trkpt lat="41.119251490289685" lon="1.2457529531133356"><ele>25.666666666666668</ele><time>2026-04-19T14:05:22Z</time></trkpt><trkpt lat="41.11929474219626" lon="1.245688116987085"><ele>24.0</ele><time>2026-04-19T14:05:23Z</time></trkpt><trkpt lat="41.11937336253488" lon="1.2455749018250988"><ele>23.833333333333332</ele><time>2026-04-19T14:05:25Z</time></trkpt><trkpt lat="41.119403198471495" lon="1.2454788657974625"><ele>23.666666666666668</ele><time>2026-04-19T14:05:26Z</time></trkpt><trkpt lat="41.11941975740155" lon="1.2453701168330051"><ele>23.5</ele><time>2026-04-19T14:05:27Z</time></trkpt><trkpt lat="41.11943050267835" lon="1.2452544572524746"><ele>23.333333333333336</ele><time>2026-04-19T14:05:28Z</time></trkpt><trkpt lat="41.1194187246848" lon="1.2451446211896815"><ele>23.166666666666668</ele><time>2026-04-19T14:05:29Z</time></trkpt><trkpt lat="41.11939935526951" lon="1.2450484197057876"><ele>23.0</ele><time>2026-04-19T14:05:30Z</time></trkpt><trkpt lat="41.119331223727656" lon="1.244966611046679"><ele>23.0</ele><time>2026-04-19T14:05:31Z</time></trkpt><trkpt lat="41.1192111357489" lon="1.2448838399854636"><ele>23.0</ele><time>2026-04-19T14:05:32Z</time></trkpt><trkpt lat="41.11913474308265" lon="1.2448134533120634"><ele>23.0</ele><time>2026-04-19T14:05:33Z</time></trkpt><trkpt lat="41.11907159964913" lon="1.24475764017123"><ele>23.0</ele><time>2026-04-19T14:05:34Z</time></trkpt><trkpt lat="41.119012687308825" lon="1.2447093749148945"><ele>23.0</ele><time>2026-04-19T14:05:35Z</time></trkpt><trkpt lat="41.118943172423634" lon="1.24463971346092"><ele>23.25</ele><time>2026-04-19T14:05:36Z</time></trkpt><trkpt lat="41.118871826829825" lon="1.2445395402130945"><ele>23.5</ele><time>2026-04-19T14:05:37Z</time></trkpt><trkpt lat="41.1188315412592" lon="1.2443925045114521"><ele>23.75</ele><time>2026-04-19T14:05:38Z</time></trkpt><trkpt lat="41.11883017823053" lon="1.244228311419069"><ele>24.0</ele><time>2026-04-19T14:05:39Z</time></trkpt><trkpt lat="41.118822337281486" lon="1.2440567859510832"><ele>25.75</ele><time>2026-04-19T14:05:40Z</time></trkpt><trkpt lat="41.11880323736161" lon="1.2438769264699152"><ele>27.5</ele><time>2026-04-19T14:05:41Z</time></trkpt><trkpt lat="41.11877633576912" lon="1.243700307002069"><ele>29.25</ele><time>2026-04-19T14:05:42Z</time></trkpt><trkpt lat="41.11874192597234" lon="1.2435493113309568"><ele>31.0</ele><time>2026-04-19T14:05:43Z</time></trkpt><trkpt lat="41.11871598897813" lon="1.2433795912603016"><ele>31.0</ele><time>2026-04-19T14:05:44Z</time></trkpt><trkpt lat="41.118692785841326" lon="1.243208918176666"><ele>31.0</ele><time>2026-04-19T14:05:45Z</time></trkpt><trkpt lat="41.11866595257255" lon="1.2430565748312807"><ele>31.0</ele><time>2026-04-19T14:05:46Z</time></trkpt><trkpt lat="41.118637034544925" lon="1.2429107707892315"><ele>31.0</ele><time>2026-04-19T14:05:47Z</time></trkpt><trkpt lat="41.11862860786101" lon="1.2427665327922053"><ele>30.6</ele><time>2026-04-19T14:05:48Z</time></trkpt><trkpt lat="41.11860161753539" lon="1.2426151345980245"><ele>30.200000000000003</ele><time>2026-04-19T14:05:49Z</time></trkpt><trkpt lat="41.11857814496113" lon="1.2424664580825404"><ele>29.799999999999997</ele><time>2026-04-19T14:05:50Z</time></trkpt><trkpt lat="41.11855251277977" lon="1.2423217705150305"><ele>29.4</ele><time>2026-04-19T14:05:51Z</time></trkpt><trkpt lat="41.118528726776844" lon="1.2421848295210391"><ele>29.0</ele><time>2026-04-19T14:05:52Z</time></trkpt><trkpt lat="41.118508122542295" lon="1.2420748961820374"><ele>28.499999999999996</ele><time>2026-04-19T14:05:53Z</time></trkpt><trkpt lat="41.118482132365244" lon="1.241965892035802"><ele>28.0</ele><time>2026-04-19T14:05:54Z</time></trkpt><trkpt lat="41.11844905602187" lon="1.241880375285038"><ele>27.5</ele><time>2026-04-19T14:05:55Z</time></trkpt><trkpt lat="41.11839800942629" lon="1.2418147763645253"><ele>27.0</ele><time>2026-04-19T14:05:57Z</time></trkpt><trkpt lat="41.118459846715155" lon="1.2417930636089463"><ele>26.499999999999996</ele><time>2026-04-19T14:06:21.999Z</time></trkpt><trkpt lat="41.11844534901013" lon="1.2417041368619894"><ele>26.0</ele><time>2026-04-19T14:06:22.999Z</time></trkpt><trkpt lat="41.11840473308871" lon="1.2414513697401113"><ele>25.75</ele><time>2026-04-19T14:06:24.999Z</time></trkpt><trkpt lat="41.11836550463855" lon="1.2412113996710719"><ele>25.5</ele><time>2026-04-19T14:06:25.999Z</time></trkpt><trkpt lat="41.11833715940385" lon="1.241038004929843"><ele>25.25</ele><time>2026-04-19T14:06:26.999Z</time></trkpt><trkpt lat="41.118298269586575" lon="1.24088071474283"><ele>25.0</ele><time>2026-04-19T14:06:27.999Z</time></trkpt><trkpt lat="41.11826919154926" lon="1.2407122550811829"><ele>23.75</ele><time>2026-04-19T14:06:28.999Z</time></trkpt><trkpt lat="41.11824458165519" lon="1.2405306949376256"><ele>22.5</ele><time>2026-04-19T14:06:29.999Z</time></trkpt><trkpt lat="41.1182161974948" lon="1.2403642699986892"><ele>21.25</ele><time>2026-04-19T14:06:30.999Z</time></trkpt><trkpt lat="41.11818361759705" lon="1.2401986059425327"><ele>20.0</ele><time>2026-04-19T14:06:31.999Z</time></trkpt><trkpt lat="41.11815002749971" lon="1.2399994460987398"><ele>20.0</ele><time>2026-04-19T14:06:32.999Z</time></trkpt><trkpt lat="41.11811662464325" lon="1.2398132158581268"><ele>20.0</ele><time>2026-04-19T14:06:33.999Z</time></trkpt><trkpt lat="41.11808274409162" lon="1.2396210845683233"><ele>20.0</ele><time>2026-04-19T14:06:34.999Z</time></trkpt><trkpt lat="41.11805491383671" lon="1.2394362344825365"><ele>20.0</ele><time>2026-04-19T14:06:35.999Z</time></trkpt><trkpt lat="41.118027987706334" lon="1.239248116665637"><ele>19.0</ele><time>2026-04-19T14:06:36.999Z</time></trkpt><trkpt lat="41.11799604526231" lon="1.2390521534434142"><ele>18.0</ele><time>2026-04-19T14:06:37.999Z</time></trkpt><trkpt lat="41.117972767306625" lon="1.2388578398880428"><ele>17.0</ele><time>2026-04-19T14:06:38.999Z</time></trkpt><trkpt lat="41.11792773191138" lon="1.2386626406662136"><ele>17.0</ele><time>2026-04-19T14:06:39.999Z</time></trkpt><trkpt lat="41.11789305962797" lon="1.238475280195673"><ele>17.0</ele><time>2026-04-19T14:06:40.999Z</time></trkpt><trkpt lat="41.11786545287722" lon="1.2382789348721754"><ele>17.0</ele><time>2026-04-19T14:06:41.999Z</time></trkpt><trkpt lat="41.117833996100295" lon="1.2380792390226523"><ele>17.0</ele><time>2026-04-19T14:06:42.999Z</time></trkpt><trkpt lat="41.11779548024" lon="1.237869779790883"><ele>16.0</ele><time>2026-04-19T14:06:43.999Z</time></trkpt><trkpt lat="41.11775686478963" lon="1.2376653899777104"><ele>15.0</ele><time>2026-04-19T14:06:44.999Z</time></trkpt><trkpt lat="41.117716345510466" lon="1.237451199550325"><ele>14.0</ele><time>2026-04-19T14:06:45.999Z</time></trkpt><trkpt lat="41.1176767789001" lon="1.237243472509678"><ele>12.0</ele><time>2026-04-19T14:06:46.999Z</time></trkpt><trkpt lat="41.11763958498863" lon="1.2370225117986717"><ele>10.0</ele><time>2026-04-19T14:06:47.999Z</time></trkpt><trkpt lat="41.11760840377915" lon="1.2368118437508584"><ele>8.0</ele><time>2026-04-19T14:06:48.999Z</time></trkpt><trkpt lat="41.11757101648116" lon="1.2366001590753783"><ele>7.333333333333333</ele><time>2026-04-19T14:06:49.999Z</time></trkpt><trkpt lat="41.11757525007221" lon="1.2363802194309066"><ele>6.666666666666666</ele><time>2026-04-19T14:06:50.999Z</time></trkpt><trkpt lat="41.117542665274314" lon="1.236182084039202"><ele>6.0</ele><time>2026-04-19T14:06:51.999Z</time></trkpt><trkpt lat="41.117511195090444" lon="1.2359907260715088"><ele>6.0</ele><time>2026-04-19T14:06:52.999Z</time></trkpt><trkpt lat="41.11748103288987" lon="1.23580732151528"><ele>6.0</ele><time>2026-04-19T14:06:53.999Z</time></trkpt><trkpt lat="41.117438269332695" lon="1.2356220095349328"><ele>6.0</ele><time>2026-04-19T14:06:54.999Z</time></trkpt><trkpt lat="41.11740813400042" lon="1.2354306530602155"><ele>6.0</ele><time>2026-04-19T14:06:55.999Z</time></trkpt><trkpt lat="41.1173828153123" lon="1.2352333873090258"><ele>6.666666666666666</ele><time>2026-04-19T14:06:56.999Z</time></trkpt><trkpt lat="41.11735075481977" lon="1.2350348843955163"><ele>7.333333333333333</ele><time>2026-04-19T14:06:57.999Z</time></trkpt><trkpt lat="41.11731827545449" lon="1.2348353639102185"><ele>8.0</ele><time>2026-04-19T14:06:58.999Z</time></trkpt><trkpt lat="41.117289215975326" lon="1.2346408134947127"><ele>8.0</ele><time>2026-04-19T14:06:59.999Z</time></trkpt><trkpt lat="41.117259051816035" lon="1.2344496820935826"><ele>8.0</ele><time>2026-04-19T14:07:00.999Z</time></trkpt><trkpt lat="41.11723188439173" lon="1.2342636467039045"><ele>8.0</ele><time>2026-04-19T14:07:01.999Z</time></trkpt><trkpt lat="41.11720247615479" lon="1.2340824405330633"><ele>8.0</ele><time>2026-04-19T14:07:02.999Z</time></trkpt><trkpt lat="41.11717311415693" lon="1.2339108980096114"><ele>7.800000000000001</ele><time>2026-04-19T14:07:03.999Z</time></trkpt><trkpt lat="41.117145162738844" lon="1.2337589839035317"><ele>7.6000000000000005</ele><time>2026-04-19T14:07:04.999Z</time></trkpt><trkpt lat="41.1171276790002" lon="1.2336256226967433"><ele>7.3999999999999995</ele><time>2026-04-19T14:07:05.999Z</time></trkpt><trkpt lat="41.11712042039697" lon="1.233505109251999"><ele>7.199999999999999</ele><time>2026-04-19T14:07:06.999Z</time></trkpt><trkpt lat="41.11714278642319" lon="1.2333839227110084"><ele>7.0</ele><time>2026-04-19T14:07:07.999Z</time></trkpt><trkpt lat="41.117173313009225" lon="1.2332751240200044"><ele>7.0</ele><time>2026-04-19T14:07:08.999Z</time></trkpt><trkpt lat="41.117209726621034" lon="1.2331590748566257"><ele>6.999999999999999</ele><time>2026-04-19T14:07:09.999Z</time></trkpt><trkpt lat="41.11720504440854" lon="1.2330521245815758"><ele>6.999999999999999</ele><time>2026-04-19T14:07:10.999Z</time></trkpt><trkpt lat="41.11715313951846" lon="1.232939994266992"><ele>7.0</ele><time>2026-04-19T14:07:11.999Z</time></trkpt><trkpt lat="41.11707056578202" lon="1.2328302398272093"><ele>7.0</ele><time>2026-04-19T14:07:12.999Z</time></trkpt><trkpt lat="41.11698150621084" lon="1.2327074111281082"><ele>7.0</ele><time>2026-04-19T14:07:13.998Z</time></trkpt><trkpt lat="41.11691878481869" lon="1.2325373020852042"><ele>7.0</ele><time>2026-04-19T14:07:14.998Z</time></trkpt><trkpt lat="41.11688131804684" lon="1.2323087688477647"><ele>7.0</ele><time>2026-04-19T14:07:15.998Z</time></trkpt><trkpt lat="41.116852779381105" lon="1.2320463732897229"><ele>7.0</ele><time>2026-04-19T14:07:17Z</time></trkpt><trkpt lat="41.116814319928196" lon="1.2317879227354618"><ele>7.0</ele><time>2026-04-19T14:07:18Z</time></trkpt><trkpt lat="41.11677149057619" lon="1.2315526765820293"><ele>7.0</ele><time>2026-04-19T14:07:19Z</time></trkpt><trkpt lat="41.116736034935876" lon="1.231320496168842"><ele>7.0</ele><time>2026-04-19T14:07:20Z</time></trkpt><trkpt lat="41.11670165279494" lon="1.2310854317597015"><ele>7.0</ele><time>2026-04-19T14:07:21Z</time></trkpt><trkpt lat="41.11666548154088" lon="1.2308695211803817"><ele>7.0</ele><time>2026-04-19T14:07:22Z</time></trkpt><trkpt lat="41.11663141979104" lon="1.2306625805423503"><ele>7.0</ele><time>2026-04-19T14:07:23Z</time></trkpt><trkpt lat="41.11660059299199" lon="1.2304809743844503"><ele>7.0</ele><time>2026-04-19T14:07:24Z</time></trkpt><trkpt lat="41.116571345219505" lon="1.2302920704001445"><ele>7.0</ele><time>2026-04-19T14:07:25Z</time></trkpt><trkpt lat="41.116540541908776" lon="1.230099665041632"><ele>7.0</ele><time>2026-04-19T14:07:26Z</time></trkpt><trkpt lat="41.116507937058934" lon="1.2299106905824135"><ele>7.5</ele><time>2026-04-19T14:07:27Z</time></trkpt><trkpt lat="41.11647718272711" lon="1.229735364390537"><ele>8.0</ele><time>2026-04-19T14:07:28Z</time></trkpt><trkpt lat="41.11645115297383" lon="1.2295611209706798"><ele>8.5</ele><time>2026-04-19T14:07:29Z</time></trkpt><trkpt lat="41.116422329984566" lon="1.2293806272321013"><ele>9.0</ele><time>2026-04-19T14:07:30Z</time></trkpt><trkpt lat="41.116391552826464" lon="1.2291903799734496"><ele>9.0</ele><time>2026-04-19T14:07:31Z</time></trkpt><trkpt lat="41.11635986447972" lon="1.2290003688275868"><ele>9.0</ele><time>2026-04-19T14:07:32Z</time></trkpt><trkpt lat="41.1163258991058" lon="1.2288129969983563"><ele>9.0</ele><time>2026-04-19T14:07:33Z</time></trkpt><trkpt lat="41.11629510341021" lon="1.2286282547027902"><ele>9.0</ele><time>2026-04-19T14:07:34Z</time></trkpt><trkpt lat="41.116262719927" lon="1.2284566405865482"><ele>9.0</ele><time>2026-04-19T14:07:35Z</time></trkpt><trkpt lat="41.11623247142617" lon="1.2282925817559167"><ele>9.0</ele><time>2026-04-19T14:07:36Z</time></trkpt><trkpt lat="41.11620569866823" lon="1.2281321677607924"><ele>9.0</ele><time>2026-04-19T14:07:37Z</time></trkpt><trkpt lat="41.11618103320179" lon="1.2279672902724483"><ele>9.0</ele><time>2026-04-19T14:07:38Z</time></trkpt><trkpt lat="41.116151900389596" lon="1.2277941606861154"><ele>9.0</ele><time>2026-04-19T14:07:39Z</time></trkpt><trkpt lat="41.116124132305586" lon="1.227610662897141"><ele>9.0</ele><time>2026-04-19T14:07:40Z</time></trkpt><trkpt lat="41.116094483467535" lon="1.2274342728035297"><ele>9.0</ele><time>2026-04-19T14:07:41Z</time></trkpt><trkpt lat="41.116067816744554" lon="1.2272637684640415"><ele>9.0</ele><time>2026-04-19T14:07:42Z</time></trkpt><trkpt lat="41.116068614779046" lon="1.2270877241000318"><ele>8.25</ele><time>2026-04-19T14:07:43Z</time></trkpt><trkpt lat="41.11604059283277" lon="1.2269140726259407"><ele>7.5</ele><time>2026-04-19T14:07:44Z</time></trkpt><trkpt lat="41.11599850782159" lon="1.226725343654093"><ele>6.75</ele><time>2026-04-19T14:07:45Z</time></trkpt><trkpt lat="41.11597285952058" lon="1.2265699703186304"><ele>6.0</ele><time>2026-04-19T14:07:46Z</time></trkpt><trkpt lat="41.11594647814394" lon="1.2264209058429565"><ele>6.0</ele><time>2026-04-19T14:07:47Z</time></trkpt><trkpt lat="41.115932636446296" lon="1.2262672152367258"><ele>6.0</ele><time>2026-04-19T14:07:48Z</time></trkpt><trkpt lat="41.11590587066306" lon="1.2261456533826678"><ele>6.0</ele><time>2026-04-19T14:07:49Z</time></trkpt><trkpt lat="41.11588407136801" lon="1.2260332733842243"><ele>6.0</ele><time>2026-04-19T14:07:50Z</time></trkpt><trkpt lat="41.11588194385295" lon="1.2259284870408518"><ele>6.0</ele><time>2026-04-19T14:07:51Z</time></trkpt><trkpt lat="41.115890976903884" lon="1.2258327345028164"><ele>6.0</ele><time>2026-04-19T14:07:52Z</time></trkpt><trkpt lat="41.11589350765474" lon="1.2257038960936286"><ele>6.0</ele><time>2026-04-19T14:07:53Z</time></trkpt><trkpt lat="41.11587181564759" lon="1.225559603999256"><ele>6.0</ele><time>2026-04-19T14:07:54Z</time></trkpt><trkpt lat="41.11581057278905" lon="1.2254265990657611"><ele>6.0</ele><time>2026-04-19T14:07:55Z</time></trkpt><trkpt lat="41.11574045413134" lon="1.2252945212985609"><ele>6.0</ele><time>2026-04-19T14:07:56Z</time></trkpt><trkpt lat="41.11570952321959" lon="1.225160876538567"><ele>6.0</ele><time>2026-04-19T14:07:57Z</time></trkpt><trkpt lat="41.115697903681124" lon="1.2250505895074109"><ele>6.0</ele><time>2026-04-19T14:07:58Z</time></trkpt><trkpt lat="41.115683597871296" lon="1.2249636074611512"><ele>6.0</ele><time>2026-04-19T14:07:59Z</time></trkpt><trkpt lat="41.11566965616726" lon="1.2248769756225502"><ele>6.0</ele><time>2026-04-19T14:08:00.999Z</time></trkpt><trkpt lat="41.11564993843525" lon="1.2247395948840623"><ele>6.0</ele><time>2026-04-19T14:08:22.999Z</time></trkpt><trkpt lat="41.11563193823895" lon="1.2246099119923042"><ele>6.0</ele><time>2026-04-19T14:08:23.999Z</time></trkpt><trkpt lat="41.11560893742753" lon="1.2244593585019887"><ele>6.0</ele><time>2026-04-19T14:08:24.999Z</time></trkpt><trkpt lat="41.11559592145009" lon="1.2243044324844283"><ele>6.0</ele><time>2026-04-19T14:08:25.999Z</time></trkpt><trkpt lat="41.115579487419105" lon="1.224127450818342"><ele>6.0</ele><time>2026-04-19T14:08:26.999Z</time></trkpt><trkpt lat="41.115571064594135" lon="1.2239449187219609"><ele>6.0</ele><time>2026-04-19T14:08:27.999Z</time></trkpt><trkpt lat="41.11555522313674" lon="1.223744506716368"><ele>6.666666666666666</ele><time>2026-04-19T14:08:28.999Z</time></trkpt><trkpt lat="41.11554169913255" lon="1.2235198131615608"><ele>7.333333333333333</ele><time>2026-04-19T14:08:29.999Z</time></trkpt><trkpt lat="41.115529865812995" lon="1.2233162690487713"><ele>8.0</ele><time>2026-04-19T14:08:30.999Z</time></trkpt><trkpt lat="41.11552100155217" lon="1.2231256688928573"><ele>8.0</ele><time>2026-04-19T14:08:31.999Z</time></trkpt><trkpt lat="41.11550579566641" lon="1.2229496512635094"><ele>8.0</ele><time>2026-04-19T14:08:32.999Z</time></trkpt><trkpt lat="41.1154931871219" lon="1.2227841218985902"><ele>8.0</ele><time>2026-04-19T14:08:33.999Z</time></trkpt><trkpt lat="41.115487975322154" lon="1.2226147512414682"><ele>8.0</ele><time>2026-04-19T14:08:34.999Z</time></trkpt><trkpt lat="41.115490248107754" lon="1.2224599063686938"><ele>8.0</ele><time>2026-04-19T14:08:35.999Z</time></trkpt><trkpt lat="41.1154992374127" lon="1.2223242708082906"><ele>8.0</ele><time>2026-04-19T14:08:36.999Z</time></trkpt><trkpt lat="41.11550938655967" lon="1.2221995770931502"><ele>8.0</ele><time>2026-04-19T14:08:37.999Z</time></trkpt><trkpt lat="41.115521728041315" lon="1.2220814962290267"><ele>8.0</ele><time>2026-04-19T14:08:38.999Z</time></trkpt><trkpt lat="41.115528597156874" lon="1.2219677539350915"><ele>8.0</ele><time>2026-04-19T14:08:39.999Z</time></trkpt><trkpt lat="41.11552274314111" lon="1.2218611208798484"><ele>7.833333333333333</ele><time>2026-04-19T14:08:40.999Z</time></trkpt><trkpt lat="41.115496478956146" lon="1.2217641036986995"><ele>7.666666666666666</ele><time>2026-04-19T14:08:41.999Z</time></trkpt><trkpt lat="41.11559080835515" lon="1.2216691393842356"><ele>7.5</ele><time>2026-04-19T14:08:43.999Z</time></trkpt><trkpt lat="41.11552127182887" lon="1.2216777368389704"><ele>7.333333333333334</ele><time>2026-04-19T14:09:27Z</time></trkpt><trkpt lat="41.11545203539551" lon="1.2216320084496923"><ele>7.166666666666667</ele><time>2026-04-19T14:09:28Z</time></trkpt><trkpt lat="41.11537014736571" lon="1.2215646116248167"><ele>7.0</ele><time>2026-04-19T14:09:29Z</time></trkpt><trkpt lat="41.115273454280896" lon="1.2216033493308407"><ele>7.0</ele><time>2026-04-19T14:09:30Z</time></trkpt><trkpt lat="41.11516616201332" lon="1.221575827039733"><ele>7.0</ele><time>2026-04-19T14:09:31Z</time></trkpt><trkpt lat="41.11505977550442" lon="1.2215500577607858"><ele>7.0</ele><time>2026-04-19T14:09:32Z</time></trkpt><trkpt lat="41.114952893161444" lon="1.2214809465995595"><ele>7.0</ele><time>2026-04-19T14:09:33Z</time></trkpt><trkpt lat="41.114855939299154" lon="1.2213751504075008"><ele>7.0</ele><time>2026-04-19T14:09:34Z</time></trkpt><trkpt lat="41.11475096113552" lon="1.2212776639618776"><ele>7.0</ele><time>2026-04-19T14:09:35Z</time></trkpt><trkpt lat="41.11466342701607" lon="1.221145580373113"><ele>7.0</ele><time>2026-04-19T14:09:36Z</time></trkpt><trkpt lat="41.114579181217024" lon="1.2210041033670682"><ele>7.0</ele><time>2026-04-19T14:09:37Z</time></trkpt><trkpt lat="41.11449722581103" lon="1.220852147649432"><ele>7.0</ele><time>2026-04-19T14:09:38Z</time></trkpt><trkpt lat="41.114430015347004" lon="1.2206760479833565"><ele>7.0</ele><time>2026-04-19T14:09:39Z</time></trkpt><trkpt lat="41.114370032043624" lon="1.2204869559675708"><ele>7.0</ele><time>2026-04-19T14:09:40Z</time></trkpt><trkpt lat="41.11431026125198" lon="1.220281462666615"><ele>7.333333333333334</ele><time>2026-04-19T14:09:41Z</time></trkpt><trkpt lat="41.114261200952555" lon="1.220066794710526"><ele>7.666666666666666</ele><time>2026-04-19T14:09:42Z</time></trkpt><trkpt lat="41.11422381264695" lon="1.2198527228472722"><ele>8.0</ele><time>2026-04-19T14:09:43Z</time></trkpt><trkpt lat="41.11418768887548" lon="1.2196361050746898"><ele>8.666666666666666</ele><time>2026-04-19T14:09:44Z</time></trkpt><trkpt lat="41.1141495235685" lon="1.2194200527690848"><ele>9.333333333333334</ele><time>2026-04-19T14:09:45Z</time></trkpt><trkpt lat="41.11411042212524" lon="1.219209447005815"><ele>10.0</ele><time>2026-04-19T14:09:46Z</time></trkpt><trkpt lat="41.114073220695076" lon="1.218998796704117"><ele>9.666666666666668</ele><time>2026-04-19T14:09:47Z</time></trkpt><trkpt lat="41.114036229588685" lon="1.2187814465611837"><ele>9.333333333333334</ele><time>2026-04-19T14:09:48Z</time></trkpt><trkpt lat="41.11399747381925" lon="1.2185655155729567"><ele>9.0</ele><time>2026-04-19T14:09:49Z</time></trkpt><trkpt lat="41.113954592360805" lon="1.2183405000735674"><ele>9.666666666666666</ele><time>2026-04-19T14:09:50Z</time></trkpt><trkpt lat="41.11391419587851" lon="1.2181086942698662"><ele>10.333333333333332</ele><time>2026-04-19T14:09:51Z</time></trkpt><trkpt lat="41.11387174551977" lon="1.2178734495305545"><ele>11.0</ele><time>2026-04-19T14:09:52Z</time></trkpt><trkpt lat="41.11383198204828" lon="1.2176363987980037"><ele>11.0</ele><time>2026-04-19T14:09:53Z</time></trkpt><trkpt lat="41.113794248080666" lon="1.217411203827158"><ele>11.0</ele><time>2026-04-19T14:09:54Z</time></trkpt><trkpt lat="41.11375643339634" lon="1.2172112743855095"><ele>11.0</ele><time>2026-04-19T14:09:55Z</time></trkpt><trkpt lat="41.11371918691081" lon="1.217011582984449"><ele>10.333333333333332</ele><time>2026-04-19T14:09:56Z</time></trkpt><trkpt lat="41.113681798462615" lon="1.2168068063928847"><ele>9.666666666666666</ele><time>2026-04-19T14:09:57Z</time></trkpt><trkpt lat="41.1136432335645" lon="1.216592704435976"><ele>9.0</ele><time>2026-04-19T14:09:58Z</time></trkpt><trkpt lat="41.113602117940296" lon="1.2163748848405775"><ele>9.0</ele><time>2026-04-19T14:09:59Z</time></trkpt><trkpt lat="41.11355913692462" lon="1.2161518050675557"><ele>9.0</ele><time>2026-04-19T14:10:00Z</time></trkpt><trkpt lat="41.11351482931692" lon="1.215925319186389"><ele>9.0</ele><time>2026-04-19T14:10:01Z</time></trkpt><trkpt lat="41.11347381138822" lon="1.2156963390208542"><ele>9.666666666666666</ele><time>2026-04-19T14:10:01.999Z</time></trkpt><trkpt lat="41.1134270364783" lon="1.2154628816909792"><ele>10.333333333333332</ele><time>2026-04-19T14:10:02.999Z</time></trkpt><trkpt lat="41.11337696817731" lon="1.2152346201257016"><ele>11.0</ele><time>2026-04-19T14:10:03.999Z</time></trkpt><trkpt lat="41.113325482845084" lon="1.2150074656406733"><ele>11.0</ele><time>2026-04-19T14:10:04.999Z</time></trkpt><trkpt lat="41.11327592501107" lon="1.2147750325584497"><ele>11.0</ele><time>2026-04-19T14:10:05.999Z</time></trkpt><trkpt lat="41.11322643846217" lon="1.2145495676334466"><ele>11.0</ele><time>2026-04-19T14:10:06.999Z</time></trkpt><trkpt lat="41.113179379134834" lon="1.2143197543912954"><ele>10.333333333333332</ele><time>2026-04-19T14:10:07.999Z</time></trkpt><trkpt lat="41.113130976697775" lon="1.2140972217911732"><ele>9.666666666666666</ele><time>2026-04-19T14:10:08.999Z</time></trkpt><trkpt lat="41.113087912721724" lon="1.213875994704152"><ele>9.0</ele><time>2026-04-19T14:10:09.999Z</time></trkpt><trkpt lat="41.11304320671778" lon="1.2136526198440254"><ele>9.0</ele><time>2026-04-19T14:10:10.999Z</time></trkpt><trkpt lat="41.112994917058906" lon="1.2134295927681833"><ele>9.0</ele><time>2026-04-19T14:10:11.999Z</time></trkpt><trkpt lat="41.11294521171984" lon="1.2132019465174284"><ele>9.0</ele><time>2026-04-19T14:10:12.999Z</time></trkpt><trkpt lat="41.11289482983476" lon="1.212973467432825"><ele>9.0</ele><time>2026-04-19T14:10:13.999Z</time></trkpt><trkpt lat="41.11284671443708" lon="1.2127405305976318"><ele>9.0</ele><time>2026-04-19T14:10:14.999Z</time></trkpt><trkpt lat="41.11279282964095" lon="1.2125137161726949"><ele>9.0</ele><time>2026-04-19T14:10:15.999Z</time></trkpt><trkpt lat="41.112724819177735" lon="1.2122968236710228"><ele>9.0</ele><time>2026-04-19T14:10:16.999Z</time></trkpt><trkpt lat="41.11263570410469" lon="1.2120896170970519"><ele>9.0</ele><time>2026-04-19T14:10:17.999Z</time></trkpt><trkpt lat="41.112530458117504" lon="1.2118865854442744"><ele>9.0</ele><time>2026-04-19T14:10:18.999Z</time></trkpt><trkpt lat="41.11240687912123" lon="1.2117022933234414"><ele>8.333333333333334</ele><time>2026-04-19T14:10:19.999Z</time></trkpt><trkpt lat="41.11226806430644" lon="1.2115315329619814"><ele>7.666666666666667</ele><time>2026-04-19T14:10:20.999Z</time></trkpt><trkpt lat="41.112118290412276" lon="1.2113822942785333"><ele>7.0</ele><time>2026-04-19T14:10:21.999Z</time></trkpt><trkpt lat="41.11195963221701" lon="1.2112468665698204"><ele>6.666666666666667</ele><time>2026-04-19T14:10:22.999Z</time></trkpt><trkpt lat="41.11179264881768" lon="1.211133832302996"><ele>6.333333333333334</ele><time>2026-04-19T14:10:23.999Z</time></trkpt><trkpt lat="41.111613440861646" lon="1.2110707914286014"><ele>6.0</ele><time>2026-04-19T14:10:24.999Z</time></trkpt><trkpt lat="41.11144242161501" lon="1.2110105819857397"><ele>5.666666666666667</ele><time>2026-04-19T14:10:25.999Z</time></trkpt><trkpt lat="41.11126152098022" lon="1.2109691419720225"><ele>5.333333333333334</ele><time>2026-04-19T14:10:26.999Z</time></trkpt><trkpt lat="41.111076374420186" lon="1.2109452672788705"><ele>5.0</ele><time>2026-04-19T14:10:27.999Z</time></trkpt><trkpt lat="41.11089526241645" lon="1.210944179185671"><ele>4.666666666666667</ele><time>2026-04-19T14:10:28.999Z</time></trkpt><trkpt lat="41.11071420260892" lon="1.2109486832567924"><ele>4.333333333333333</ele><time>2026-04-19T14:10:29.999Z</time></trkpt><trkpt lat="41.11053755379947" lon="1.2109505311002762"><ele>4.0</ele><time>2026-04-19T14:10:30.999Z</time></trkpt><trkpt lat="41.11035688459094" lon="1.2109465798023225"><ele>4.0</ele><time>2026-04-19T14:10:31.999Z</time></trkpt><trkpt lat="41.11017512228827" lon="1.2109384764030446"><ele>4.0</ele><time>2026-04-19T14:10:32.999Z</time></trkpt><trkpt lat="41.10998523651516" lon="1.210934064418908"><ele>4.0</ele><time>2026-04-19T14:10:33.999Z</time></trkpt><trkpt lat="41.10979038032206" lon="1.210930212699342"><ele>4.333333333333333</ele><time>2026-04-19T14:10:34.999Z</time></trkpt><trkpt lat="41.10959555129688" lon="1.210928100347442"><ele>4.666666666666667</ele><time>2026-04-19T14:10:35.999Z</time></trkpt><trkpt lat="41.10940390446769" lon="1.2109218344281125"><ele>5.0</ele><time>2026-04-19T14:10:36.999Z</time></trkpt><trkpt lat="41.10922139067038" lon="1.2109124777815334"><ele>5.0</ele><time>2026-04-19T14:10:37.999Z</time></trkpt><trkpt lat="41.10905152274414" lon="1.2109094052213434"><ele>5.0</ele><time>2026-04-19T14:10:38.999Z</time></trkpt><trkpt lat="41.10888456179774" lon="1.2109054662612913"><ele>5.0</ele><time>2026-04-19T14:10:39.999Z</time></trkpt><trkpt lat="41.108714863266094" lon="1.2109014420433868"><ele>5.0</ele><time>2026-04-19T14:10:40.999Z</time></trkpt><trkpt lat="41.10854287859518" lon="1.2108929894871427"><ele>5.0</ele><time>2026-04-19T14:10:41.999Z</time></trkpt><trkpt lat="41.108378608724564" lon="1.2108891708195566"><ele>5.0</ele><time>2026-04-19T14:10:42.999Z</time></trkpt><trkpt lat="41.10821237050779" lon="1.210884556297023"><ele>5.0</ele><time>2026-04-19T14:10:43.999Z</time></trkpt><trkpt lat="41.10805381528378" lon="1.210875552122492"><ele>5.0</ele><time>2026-04-19T14:10:44.999Z</time></trkpt><trkpt lat="41.107890133131335" lon="1.2108653079116554"><ele>5.0</ele><time>2026-04-19T14:10:45.999Z</time></trkpt><trkpt lat="41.10772719178629" lon="1.2108403406544057"><ele>5.0</ele><time>2026-04-19T14:10:46.999Z</time></trkpt><trkpt lat="41.10755969683972" lon="1.2107868068778762"><ele>5.0</ele><time>2026-04-19T14:10:47.999Z</time></trkpt><trkpt lat="41.10739851229026" lon="1.2107079058734946"><ele>5.0</ele><time>2026-04-19T14:10:48.999Z</time></trkpt><trkpt lat="41.10724017551318" lon="1.2106167606098122"><ele>4.666666666666667</ele><time>2026-04-19T14:10:49.999Z</time></trkpt><trkpt lat="41.107084934830596" lon="1.21051434962176"><ele>4.333333333333333</ele><time>2026-04-19T14:10:50.999Z</time></trkpt><trkpt lat="41.106939058540505" lon="1.2103828457032133"><ele>4.0</ele><time>2026-04-19T14:10:51.999Z</time></trkpt><trkpt lat="41.10680003228311" lon="1.210232362802434"><ele>4.0</ele><time>2026-04-19T14:10:52.999Z</time></trkpt><trkpt lat="41.106671894044986" lon="1.2100636671954124"><ele>4.0</ele><time>2026-04-19T14:10:53.999Z</time></trkpt><trkpt lat="41.10656324532297" lon="1.2098996201768828"><ele>4.0</ele><time>2026-04-19T14:10:54.999Z</time></trkpt><trkpt lat="41.10647398839909" lon="1.2097398832417898"><ele>4.0</ele><time>2026-04-19T14:10:55.999Z</time></trkpt><trkpt lat="41.10639721926756" lon="1.2095744640095747"><ele>4.0</ele><time>2026-04-19T14:10:56.999Z</time></trkpt><trkpt lat="41.10633796426855" lon="1.2094139060373668"><ele>4.0</ele><time>2026-04-19T14:10:57.999Z</time></trkpt><trkpt lat="41.10629316695697" lon="1.2092667038112288"><ele>4.0</ele><time>2026-04-19T14:10:58.999Z</time></trkpt><trkpt lat="41.10625351877248" lon="1.2091261274355827"><ele>4.2</ele><time>2026-04-19T14:10:59.999Z</time></trkpt><trkpt lat="41.106224037700784" lon="1.2089868779654347"><ele>4.4</ele><time>2026-04-19T14:11:00.999Z</time></trkpt><trkpt lat="41.10621203067242" lon="1.2088553437720464"><ele>4.6</ele><time>2026-04-19T14:11:01.999Z</time></trkpt><trkpt lat="41.10623299940164" lon="1.208727646616331"><ele>4.8</ele><time>2026-04-19T14:11:02.999Z</time></trkpt><trkpt lat="41.10627141894662" lon="1.208584422438008"><ele>5.0</ele><time>2026-04-19T14:11:03.999Z</time></trkpt><trkpt lat="41.10628743548274" lon="1.208439420549355"><ele>5.0</ele><time>2026-04-19T14:11:04.999Z</time></trkpt><trkpt lat="41.10626783699323" lon="1.2082831343368081"><ele>5.0</ele><time>2026-04-19T14:11:05.999Z</time></trkpt><trkpt lat="41.106210037825605" lon="1.2081236123216657"><ele>5.0</ele><time>2026-04-19T14:11:06.999Z</time></trkpt><trkpt lat="41.10614343389341" lon="1.2079495252456247"><ele>5.0</ele><time>2026-04-19T14:11:07.999Z</time></trkpt><trkpt lat="41.106106001385676" lon="1.2077376745852197"><ele>6.333333333333334</ele><time>2026-04-19T14:11:08.999Z</time></trkpt><trkpt lat="41.1061008345112" lon="1.2074779873491452"><ele>7.666666666666667</ele><time>2026-04-19T14:11:09.999Z</time></trkpt><trkpt lat="41.106104222676045" lon="1.2072024044203715"><ele>9.0</ele><time>2026-04-19T14:11:10.999Z</time></trkpt><trkpt lat="41.10609329300554" lon="1.2068964343505908"><ele>9.5</ele><time>2026-04-19T14:11:11.999Z</time></trkpt><trkpt lat="41.106064456548246" lon="1.2065812003012206"><ele>10.0</ele><time>2026-04-19T14:11:12.999Z</time></trkpt><trkpt lat="41.10601997501806" lon="1.2062701192938674"><ele>10.0</ele><time>2026-04-19T14:11:13.999Z</time></trkpt><trkpt lat="41.10596431298181" lon="1.2059704162059313"><ele>10.0</ele><time>2026-04-19T14:11:14.999Z</time></trkpt><trkpt lat="41.105897421205746" lon="1.20568476346103"><ele>10.0</ele><time>2026-04-19T14:11:15.999Z</time></trkpt><trkpt lat="41.10582444694312" lon="1.2053999693915671"><ele>10.0</ele><time>2026-04-19T14:11:16.999Z</time></trkpt><trkpt lat="41.10574138479786" lon="1.2051178074343878"><ele>9.5</ele><time>2026-04-19T14:11:17.999Z</time></trkpt><trkpt lat="41.10564782399416" lon="1.2048382676173823"><ele>9.0</ele><time>2026-04-19T14:11:18.999Z</time></trkpt><trkpt lat="41.10555143247401" lon="1.2045583352424816"><ele>9.0</ele><time>2026-04-19T14:11:19.999Z</time></trkpt><trkpt lat="41.10545421074148" lon="1.20428417997663"><ele>9.0</ele><time>2026-04-19T14:11:20.999Z</time></trkpt><trkpt lat="41.10535767038137" lon="1.2040253675230472"><ele>9.0</ele><time>2026-04-19T14:11:21.999Z</time></trkpt><trkpt lat="41.10526467173797" lon="1.2037553557792144"><ele>8.0</ele><time>2026-04-19T14:11:22.999Z</time></trkpt><trkpt lat="41.10517890593038" lon="1.2034752058943592"><ele>7.0</ele><time>2026-04-19T14:11:23.999Z</time></trkpt><trkpt lat="41.10510116317156" lon="1.2031900611328932"><ele>6.5</ele><time>2026-04-19T14:11:24.999Z</time></trkpt><trkpt lat="41.10503147806464" lon="1.202898621580482"><ele>6.0</ele><time>2026-04-19T14:11:25.999Z</time></trkpt><trkpt lat="41.10497309665939" lon="1.2025989679381115"><ele>6.5</ele><time>2026-04-19T14:11:26.999Z</time></trkpt><trkpt lat="41.104926896073316" lon="1.2023009614091564"><ele>7.0</ele><time>2026-04-19T14:11:27.999Z</time></trkpt><trkpt lat="41.104899581447135" lon="1.2019963154645896"><ele>6.0</ele><time>2026-04-19T14:11:29Z</time></trkpt><trkpt lat="41.104880069939234" lon="1.201688132462312"><ele>5.0</ele><time>2026-04-19T14:11:30Z</time></trkpt><trkpt lat="41.104858277670864" lon="1.2013826344076814"><ele>5.0</ele><time>2026-04-19T14:11:31Z</time></trkpt><trkpt lat="41.10484199753168" lon="1.2010788018911331"><ele>5.0</ele><time>2026-04-19T14:11:32Z</time></trkpt><trkpt lat="41.10483131470966" lon="1.2007723885548554"><ele>5.0</ele><time>2026-04-19T14:11:33Z</time></trkpt><trkpt lat="41.10482314994499" lon="1.2004622328393684"><ele>5.0</ele><time>2026-04-19T14:11:34Z</time></trkpt><trkpt lat="41.10481290329295" lon="1.2001513956967347"><ele>5.0</ele><time>2026-04-19T14:11:35Z</time></trkpt><trkpt lat="41.104798127155014" lon="1.199841114671081"><ele>5.0</ele><time>2026-04-19T14:11:36Z</time></trkpt><trkpt lat="41.10477243975064" lon="1.1995352205942547"><ele>6.0</ele><time>2026-04-19T14:11:37Z</time></trkpt><trkpt lat="41.10473824411651" lon="1.199236920823397"><ele>7.0</ele><time>2026-04-19T14:11:38Z</time></trkpt><trkpt lat="41.104697216504405" lon="1.1989467321624228"><ele>7.0</ele><time>2026-04-19T14:11:39Z</time></trkpt><trkpt lat="41.10464424869018" lon="1.198661109504903"><ele>7.0</ele><time>2026-04-19T14:11:40Z</time></trkpt><trkpt lat="41.104577774953455" lon="1.1983747523029957"><ele>7.0</ele><time>2026-04-19T14:11:41Z</time></trkpt><trkpt lat="41.104500295132354" lon="1.1980930136866856"><ele>8.0</ele><time>2026-04-19T14:11:42Z</time></trkpt><trkpt lat="41.10441578976393" lon="1.1978087277512262"><ele>9.0</ele><time>2026-04-19T14:11:43Z</time></trkpt><trkpt lat="41.10432535602605" lon="1.1975298191526342"><ele>9.5</ele><time>2026-04-19T14:11:44Z</time></trkpt><trkpt lat="41.1042260446763" lon="1.1972561410688478"><ele>10.0</ele><time>2026-04-19T14:11:45Z</time></trkpt><trkpt lat="41.10411429336774" lon="1.196985344109371"><ele>8.0</ele><time>2026-04-19T14:11:46Z</time></trkpt><trkpt lat="41.104000170767314" lon="1.1967142701245999"><ele>6.0</ele><time>2026-04-19T14:11:47Z</time></trkpt><trkpt lat="41.103890858580385" lon="1.1964434835896522"><ele>6.0</ele><time>2026-04-19T14:11:48Z</time></trkpt><trkpt lat="41.10378319322515" lon="1.1961695739625582"><ele>6.0</ele><time>2026-04-19T14:11:49Z</time></trkpt><trkpt lat="41.103669026984825" lon="1.19590064105522"><ele>6.0</ele><time>2026-04-19T14:11:50Z</time></trkpt><trkpt lat="41.10355225552237" lon="1.195626272970575"><ele>6.0</ele><time>2026-04-19T14:11:51Z</time></trkpt><trkpt lat="41.10344129647019" lon="1.1953566314033308"><ele>6.0</ele><time>2026-04-19T14:11:52Z</time></trkpt><trkpt lat="41.10332510467276" lon="1.1950892254624"><ele>6.0</ele><time>2026-04-19T14:11:53Z</time></trkpt><trkpt lat="41.103207020908975" lon="1.1948154875170698"><ele>4.5</ele><time>2026-04-19T14:11:54Z</time></trkpt><trkpt lat="41.1030932502878" lon="1.1945406728127463"><ele>3.0</ele><time>2026-04-19T14:11:55Z</time></trkpt><trkpt lat="41.10297538355496" lon="1.1942644660256037"><ele>4.5</ele><time>2026-04-19T14:11:56Z</time></trkpt><trkpt lat="41.10285847669732" lon="1.193989959378525"><ele>6.0</ele><time>2026-04-19T14:11:57Z</time></trkpt><trkpt lat="41.10274068797317" lon="1.193716193661701"><ele>6.0</ele><time>2026-04-19T14:11:58Z</time></trkpt><trkpt lat="41.102626949632196" lon="1.1934422477743416"><ele>6.0</ele><time>2026-04-19T14:11:59Z</time></trkpt><trkpt lat="41.10251996246601" lon="1.193180705649055"><ele>5.666666666666667</ele><time>2026-04-19T14:12:00Z</time></trkpt><trkpt lat="41.10241840442016" lon="1.192935653285467"><ele>5.333333333333334</ele><time>2026-04-19T14:12:01Z</time></trkpt><trkpt lat="41.102331877860074" lon="1.1926783009142414"><ele>5.0</ele><time>2026-04-19T14:12:02Z</time></trkpt><trkpt lat="41.10224905542017" lon="1.1924175344569368"><ele>5.5</ele><time>2026-04-19T14:12:03Z</time></trkpt><trkpt lat="41.10216022235449" lon="1.1921455791531501"><ele>6.0</ele><time>2026-04-19T14:12:04Z</time></trkpt><trkpt lat="41.10208459262283" lon="1.1918601607150359"><ele>6.0</ele><time>2026-04-19T14:12:05Z</time></trkpt><trkpt lat="41.102008351144136" lon="1.1915817492703975"><ele>6.0</ele><time>2026-04-19T14:12:06Z</time></trkpt><trkpt lat="41.10193637377674" lon="1.1913097008115574"><ele>6.0</ele><time>2026-04-19T14:12:07Z</time></trkpt><trkpt lat="41.101869315709436" lon="1.191034421132459"><ele>6.0</ele><time>2026-04-19T14:12:08Z</time></trkpt><trkpt lat="41.10180334141508" lon="1.1907624231011116"><ele>6.0</ele><time>2026-04-19T14:12:09Z</time></trkpt><trkpt lat="41.10173703921883" lon="1.1904930718361426"><ele>6.0</ele><time>2026-04-19T14:12:10Z</time></trkpt><trkpt lat="41.10166635915542" lon="1.19022954790018"><ele>6.333333333333334</ele><time>2026-04-19T14:12:11Z</time></trkpt><trkpt lat="41.10159667279916" lon="1.189974146130412"><ele>6.666666666666667</ele><time>2026-04-19T14:12:12Z</time></trkpt><trkpt lat="41.10152851184683" lon="1.1897185019767613"><ele>7.0</ele><time>2026-04-19T14:12:13Z</time></trkpt><trkpt lat="41.101465003643916" lon="1.1894628118571"><ele>7.0</ele><time>2026-04-19T14:12:14Z</time></trkpt><trkpt lat="41.10140556947217" lon="1.1892223892738354"><ele>7.0</ele><time>2026-04-19T14:12:15Z</time></trkpt><trkpt lat="41.101339253166344" lon="1.1889846531629176"><ele>7.0</ele><time>2026-04-19T14:12:16Z</time></trkpt><trkpt lat="41.10127075787516" lon="1.1887351438625318"><ele>7.0</ele><time>2026-04-19T14:12:17Z</time></trkpt><trkpt lat="41.10120763426729" lon="1.1884914777893267"><ele>7.0</ele><time>2026-04-19T14:12:18Z</time></trkpt><trkpt lat="41.101136700658536" lon="1.1882591533061437"><ele>7.0</ele><time>2026-04-19T14:12:19Z</time></trkpt><trkpt lat="41.10105644705072" lon="1.1880312422918065"><ele>7.333333333333334</ele><time>2026-04-19T14:12:20Z</time></trkpt><trkpt lat="41.10097252499932" lon="1.1877999913844572"><ele>7.666666666666666</ele><time>2026-04-19T14:12:21Z</time></trkpt><trkpt lat="41.10088387517467" lon="1.1875710653443134"><ele>8.0</ele><time>2026-04-19T14:12:22Z</time></trkpt><trkpt lat="41.10078830584959" lon="1.1873425874959884"><ele>8.0</ele><time>2026-04-19T14:12:23Z</time></trkpt><trkpt lat="41.10078068693669" lon="1.1870452329348071"><ele>8.0</ele><time>2026-04-19T14:12:24Z</time></trkpt><trkpt lat="41.10067999543415" lon="1.1868163855419802"><ele>8.0</ele><time>2026-04-19T14:12:24.999Z</time></trkpt><trkpt lat="41.100578769397366" lon="1.1865863232823395"><ele>8.333333333333332</ele><time>2026-04-19T14:12:25.999Z</time></trkpt><trkpt lat="41.10037328200779" lon="1.1864385582277333"><ele>8.666666666666666</ele><time>2026-04-19T14:12:26.999Z</time></trkpt><trkpt lat="41.10025341088756" lon="1.186223820421462"><ele>9.0</ele><time>2026-04-19T14:12:27.999Z</time></trkpt><trkpt lat="41.10012400468272" lon="1.1860075832846235"><ele>9.0</ele><time>2026-04-19T14:12:28.999Z</time></trkpt><trkpt lat="41.09998921270033" lon="1.1857976760208624"><ele>9.0</ele><time>2026-04-19T14:12:29.999Z</time></trkpt><trkpt lat="41.099859698534246" lon="1.185587316916645"><ele>9.0</ele><time>2026-04-19T14:12:30.999Z</time></trkpt><trkpt lat="41.09972841018075" lon="1.1853734002569316"><ele>8.666666666666666</ele><time>2026-04-19T14:12:31.999Z</time></trkpt><trkpt lat="41.09959489724247" lon="1.1851612143727868"><ele>8.333333333333332</ele><time>2026-04-19T14:12:32.999Z</time></trkpt><trkpt lat="41.09945991167934" lon="1.1849472300371977"><ele>8.0</ele><time>2026-04-19T14:12:33.999Z</time></trkpt><trkpt lat="41.09932381692787" lon="1.184729870094511"><ele>8.0</ele><time>2026-04-19T14:12:34.999Z</time></trkpt><trkpt lat="41.0991873389297" lon="1.1845116705183296"><ele>8.0</ele><time>2026-04-19T14:12:35.999Z</time></trkpt><trkpt lat="41.099050219483324" lon="1.184290828774809"><ele>8.0</ele><time>2026-04-19T14:12:36.999Z</time></trkpt><trkpt lat="41.09891550205983" lon="1.1840703533856887"><ele>8.666666666666666</ele><time>2026-04-19T14:12:37.999Z</time></trkpt><trkpt lat="41.098779157308115" lon="1.1838554219935173"><ele>9.333333333333334</ele><time>2026-04-19T14:12:38.999Z</time></trkpt><trkpt lat="41.098644634860214" lon="1.1836463149271954"><ele>10.0</ele><time>2026-04-19T14:12:39.999Z</time></trkpt><trkpt lat="41.09851189475793" lon="1.1834390929061023"><ele>10.0</ele><time>2026-04-19T14:12:40.999Z</time></trkpt><trkpt lat="41.098379972108894" lon="1.1832302989114114"><ele>10.0</ele><time>2026-04-19T14:12:41.999Z</time></trkpt><trkpt lat="41.09825139560836" lon="1.1830276504138086"><ele>10.0</ele><time>2026-04-19T14:12:42.999Z</time></trkpt><trkpt lat="41.098123426562104" lon="1.1828266645054266"><ele>10.0</ele><time>2026-04-19T14:12:43.999Z</time></trkpt><trkpt lat="41.097993169317675" lon="1.1826245493522065"><ele>10.0</ele><time>2026-04-19T14:12:44.999Z</time></trkpt><trkpt lat="41.09786283312326" lon="1.182416863597611"><ele>10.0</ele><time>2026-04-19T14:12:45.999Z</time></trkpt><trkpt lat="41.09773142587788" lon="1.1822067187142316"><ele>10.0</ele><time>2026-04-19T14:12:46.999Z</time></trkpt><trkpt lat="41.09759956345547" lon="1.181993136137097"><ele>10.0</ele><time>2026-04-19T14:12:47.999Z</time></trkpt><trkpt lat="41.097464646687655" lon="1.1817781355849524"><ele>10.0</ele><time>2026-04-19T14:12:48.999Z</time></trkpt><trkpt lat="41.09732768503555" lon="1.1815622665685417"><ele>10.666666666666668</ele><time>2026-04-19T14:12:49.999Z</time></trkpt><trkpt lat="41.097188155550036" lon="1.1813470611052543"><ele>11.333333333333334</ele><time>2026-04-19T14:12:50.999Z</time></trkpt><trkpt lat="41.09704536713714" lon="1.1811228358869708"><ele>12.0</ele><time>2026-04-19T14:12:51.999Z</time></trkpt><trkpt lat="41.09690214352049" lon="1.1808926365566381"><ele>12.0</ele><time>2026-04-19T14:12:52.999Z</time></trkpt><trkpt lat="41.09675895570034" lon="1.1806627034808261"><ele>12.0</ele><time>2026-04-19T14:12:53.999Z</time></trkpt><trkpt lat="41.09661755737476" lon="1.180438349586779"><ele>12.0</ele><time>2026-04-19T14:12:54.999Z</time></trkpt><trkpt lat="41.09647813717996" lon="1.1802210061474134"><ele>12.0</ele><time>2026-04-19T14:12:55.999Z</time></trkpt><trkpt lat="41.096340838578264" lon="1.1800076391666496"><ele>12.0</ele><time>2026-04-19T14:12:56.999Z</time></trkpt><trkpt lat="41.09620757967768" lon="1.179796041217535"><ele>12.0</ele><time>2026-04-19T14:12:57.999Z</time></trkpt><trkpt lat="41.09607255823817" lon="1.179582833537254"><ele>11.333333333333334</ele><time>2026-04-19T14:12:58.999Z</time></trkpt><trkpt lat="41.0959423985012" lon="1.1793608698646183"><ele>10.666666666666668</ele><time>2026-04-19T14:12:59.999Z</time></trkpt><trkpt lat="41.09581323417322" lon="1.1791612300479875"><ele>10.0</ele><time>2026-04-19T14:13:00.999Z</time></trkpt><trkpt lat="41.095683287358284" lon="1.178954393077001"><ele>10.0</ele><time>2026-04-19T14:13:01.999Z</time></trkpt><trkpt lat="41.09555130314106" lon="1.1787469404864728"><ele>10.0</ele><time>2026-04-19T14:13:02.999Z</time></trkpt><trkpt lat="41.0954171222282" lon="1.178540861450065"><ele>10.0</ele><time>2026-04-19T14:13:03.999Z</time></trkpt><trkpt lat="41.09528489357903" lon="1.1783343233342465"><ele>9.666666666666668</ele><time>2026-04-19T14:13:04.999Z</time></trkpt><trkpt lat="41.095153012464515" lon="1.1781226709398598"><ele>9.333333333333334</ele><time>2026-04-19T14:13:05.999Z</time></trkpt><trkpt lat="41.095020875485815" lon="1.1779114401017348"><ele>9.0</ele><time>2026-04-19T14:13:06.999Z</time></trkpt><trkpt lat="41.09489910845175" lon="1.1776828767086132"><ele>8.0</ele><time>2026-04-19T14:13:07.999Z</time></trkpt><trkpt lat="41.09476992305296" lon="1.1774747483538028"><ele>7.0</ele><time>2026-04-19T14:13:08.999Z</time></trkpt><trkpt lat="41.09462845917268" lon="1.1772648762537352"><ele>6.0</ele><time>2026-04-19T14:13:09.999Z</time></trkpt><trkpt lat="41.09448392989355" lon="1.1770552669147059"><ele>5.666666666666667</ele><time>2026-04-19T14:13:10.999Z</time></trkpt><trkpt lat="41.09434449227377" lon="1.176851141808833"><ele>5.333333333333334</ele><time>2026-04-19T14:13:11.999Z</time></trkpt><trkpt lat="41.09420415996654" lon="1.1766541295546211"><ele>5.0</ele><time>2026-04-19T14:13:12.999Z</time></trkpt><trkpt lat="41.09406121846372" lon="1.1764640636706922"><ele>6.333333333333334</ele><time>2026-04-19T14:13:13.999Z</time></trkpt><trkpt lat="41.09391317139652" lon="1.1762705554983803"><ele>7.666666666666667</ele><time>2026-04-19T14:13:14.999Z</time></trkpt><trkpt lat="41.09376265146158" lon="1.1760849121426322"><ele>9.0</ele><time>2026-04-19T14:13:15.999Z</time></trkpt><trkpt lat="41.0936090600346" lon="1.1759050558087647"><ele>9.0</ele><time>2026-04-19T14:13:16.999Z</time></trkpt><trkpt lat="41.09345747623232" lon="1.1757340837957548"><ele>9.0</ele><time>2026-04-19T14:13:17.999Z</time></trkpt><trkpt lat="41.09329961863463" lon="1.1755603791966103"><ele>9.0</ele><time>2026-04-19T14:13:18.999Z</time></trkpt><trkpt lat="41.09313711597263" lon="1.1753852862190122"><ele>9.0</ele><time>2026-04-19T14:13:19.999Z</time></trkpt><trkpt lat="41.092978762557166" lon="1.1752203298968174"><ele>9.0</ele><time>2026-04-19T14:13:20.999Z</time></trkpt><trkpt lat="41.0928183138126" lon="1.1750591674400286"><ele>9.0</ele><time>2026-04-19T14:13:21.999Z</time></trkpt><trkpt lat="41.09266302239024" lon="1.1749012135900065"><ele>8.0</ele><time>2026-04-19T14:13:22.999Z</time></trkpt><trkpt lat="41.092506579027265" lon="1.1747612860314007"><ele>7.0</ele><time>2026-04-19T14:13:23.999Z</time></trkpt><trkpt lat="41.09234288293103" lon="1.174624143245332"><ele>6.0</ele><time>2026-04-19T14:13:24.999Z</time></trkpt><trkpt lat="41.09217839086893" lon="1.1744838241819986"><ele>6.0</ele><time>2026-04-19T14:13:25.999Z</time></trkpt><trkpt lat="41.092027782326795" lon="1.1743597490414732"><ele>6.0</ele><time>2026-04-19T14:13:26.999Z</time></trkpt><trkpt lat="41.09187474824478" lon="1.1742371506923674"><ele>6.0</ele><time>2026-04-19T14:13:27.999Z</time></trkpt><trkpt lat="41.091721040083655" lon="1.1741171700525541"><ele>5.0</ele><time>2026-04-19T14:13:28.999Z</time></trkpt><trkpt lat="41.09155647451316" lon="1.1739949328962977"><ele>4.0</ele><time>2026-04-19T14:13:29.999Z</time></trkpt><trkpt lat="41.09137877330998" lon="1.1738844013569913"><ele>3.0</ele><time>2026-04-19T14:13:30.999Z</time></trkpt><trkpt lat="41.091206250592855" lon="1.1737701420470925"><ele>3.0</ele><time>2026-04-19T14:13:31.999Z</time></trkpt><trkpt lat="41.09103177115018" lon="1.173654873522841"><ele>3.0</ele><time>2026-04-19T14:13:32.999Z</time></trkpt><trkpt lat="41.09085774624276" lon="1.1735504351400068"><ele>3.0</ele><time>2026-04-19T14:13:33.999Z</time></trkpt><trkpt lat="41.090677615944614" lon="1.173441605790124"><ele>3.0</ele><time>2026-04-19T14:13:35Z</time></trkpt><trkpt lat="41.090490242995735" lon="1.1733378146526063"><ele>3.0</ele><time>2026-04-19T14:13:36Z</time></trkpt><trkpt lat="41.09029635933344" lon="1.173238409376912"><ele>3.0</ele><time>2026-04-19T14:13:37Z</time></trkpt><trkpt lat="41.09009686020314" lon="1.1731361947610535"><ele>2.6666666666666665</ele><time>2026-04-19T14:13:38Z</time></trkpt><trkpt lat="41.089892362307815" lon="1.1730354315810523"><ele>2.333333333333333</ele><time>2026-04-19T14:13:39Z</time></trkpt><trkpt lat="41.08968120710906" lon="1.172946032891579"><ele>2.0</ele><time>2026-04-19T14:13:40Z</time></trkpt><trkpt lat="41.08947376072472" lon="1.1728577441765204"><ele>2.0</ele><time>2026-04-19T14:13:41Z</time></trkpt><trkpt lat="41.08927201393299" lon="1.1727752400772775"><ele>2.0</ele><time>2026-04-19T14:13:42Z</time></trkpt><trkpt lat="41.089077168813816" lon="1.1726960205898758"><ele>2.0</ele><time>2026-04-19T14:13:43Z</time></trkpt><trkpt lat="41.08888321822895" lon="1.1726082486395715"><ele>2.6666666666666665</ele><time>2026-04-19T14:13:44Z</time></trkpt><trkpt lat="41.088689815105056" lon="1.1725278635220018"><ele>3.333333333333333</ele><time>2026-04-19T14:13:45Z</time></trkpt><trkpt lat="41.08849032926932" lon="1.1724521500284573"><ele>4.0</ele><time>2026-04-19T14:13:46Z</time></trkpt><trkpt lat="41.088294331326466" lon="1.1723678851891524"><ele>3.333333333333333</ele><time>2026-04-19T14:13:47Z</time></trkpt><trkpt lat="41.08809278024536" lon="1.1722850685229593"><ele>2.6666666666666665</ele><time>2026-04-19T14:13:48Z</time></trkpt><trkpt lat="41.08789078309838" lon="1.1721956074483326"><ele>2.0</ele><time>2026-04-19T14:13:49Z</time></trkpt><trkpt lat="41.0876915150133" lon="1.1721012495695233"><ele>2.0</ele><time>2026-04-19T14:13:50Z</time></trkpt><trkpt lat="41.08748609960961" lon="1.1719952948808878"><ele>2.0</ele><time>2026-04-19T14:13:51Z</time></trkpt><trkpt lat="41.08728101443382" lon="1.171879797962241"><ele>2.0</ele><time>2026-04-19T14:13:52Z</time></trkpt><trkpt lat="41.08708042991546" lon="1.17175090444682"><ele>2.6666666666666665</ele><time>2026-04-19T14:13:53Z</time></trkpt><trkpt lat="41.086881719136755" lon="1.1716100964442822"><ele>3.333333333333333</ele><time>2026-04-19T14:13:54Z</time></trkpt><trkpt lat="41.08668899256616" lon="1.17145825981242"><ele>4.0</ele><time>2026-04-19T14:13:55Z</time></trkpt><trkpt lat="41.08649284988344" lon="1.1713010322558586"><ele>4.0</ele><time>2026-04-19T14:13:56Z</time></trkpt><trkpt lat="41.086299166409276" lon="1.1711354073163183"><ele>4.0</ele><time>2026-04-19T14:13:57Z</time></trkpt><trkpt lat="41.086112457528124" lon="1.170962507883579"><ele>4.0</ele><time>2026-04-19T14:13:58Z</time></trkpt><trkpt lat="41.08592826216381" lon="1.1707782771943036"><ele>4.0</ele><time>2026-04-19T14:13:59Z</time></trkpt><trkpt lat="41.08575057769846" lon="1.1705859601039383"><ele>5.0</ele><time>2026-04-19T14:14:00Z</time></trkpt><trkpt lat="41.085578041070875" lon="1.1703833314452146"><ele>6.0</ele><time>2026-04-19T14:14:01Z</time></trkpt><trkpt lat="41.08540932476936" lon="1.1701728647670788"><ele>6.0</ele><time>2026-04-19T14:14:02Z</time></trkpt><trkpt lat="41.08524553562193" lon="1.1699617576499868"><ele>6.0</ele><time>2026-04-19T14:14:03Z</time></trkpt><trkpt lat="41.08509444719405" lon="1.169757218098855"><ele>6.0</ele><time>2026-04-19T14:14:04Z</time></trkpt><trkpt lat="41.08495228613861" lon="1.1695529385664702"><ele>6.333333333333334</ele><time>2026-04-19T14:14:05Z</time></trkpt><trkpt lat="41.084820071755814" lon="1.1693467245803346"><ele>6.666666666666667</ele><time>2026-04-19T14:14:06Z</time></trkpt><trkpt lat="41.08469019423632" lon="1.169138828216502"><ele>7.0</ele><time>2026-04-19T14:14:07Z</time></trkpt><trkpt lat="41.08456856333733" lon="1.168920210677186"><ele>8.333333333333334</ele><time>2026-04-19T14:14:08Z</time></trkpt><trkpt lat="41.084447799844284" lon="1.1686943296129162"><ele>9.666666666666666</ele><time>2026-04-19T14:14:09Z</time></trkpt><trkpt lat="41.0843335522311" lon="1.1684640814877016"><ele>11.0</ele><time>2026-04-19T14:14:10Z</time></trkpt><trkpt lat="41.08422395686738" lon="1.1682279831960343"><ele>11.666666666666666</ele><time>2026-04-19T14:14:11Z</time></trkpt><trkpt lat="41.084120272828024" lon="1.1679842526161568"><ele>12.333333333333332</ele><time>2026-04-19T14:14:12Z</time></trkpt><trkpt lat="41.08401244179675" lon="1.1677338726161832"><ele>13.0</ele><time>2026-04-19T14:14:13Z</time></trkpt><trkpt lat="41.08390088540028" lon="1.1674690006933213"><ele>11.5</ele><time>2026-04-19T14:14:14Z</time></trkpt><trkpt lat="41.08378920931894" lon="1.16719043556015"><ele>10.0</ele><time>2026-04-19T14:14:15Z</time></trkpt><trkpt lat="41.08367589607239" lon="1.1669053782294356"><ele>10.0</ele><time>2026-04-19T14:14:16Z</time></trkpt><trkpt lat="41.08356284357197" lon="1.1666110939623562"><ele>10.0</ele><time>2026-04-19T14:14:17Z</time></trkpt><trkpt lat="41.08345151313767" lon="1.1663188335812145"><ele>10.0</ele><time>2026-04-19T14:14:18Z</time></trkpt><trkpt lat="41.083342030893895" lon="1.1660277654004916"><ele>10.0</ele><time>2026-04-19T14:14:19Z</time></trkpt><trkpt lat="41.08323068561106" lon="1.1657439928812428"><ele>9.5</ele><time>2026-04-19T14:14:20Z</time></trkpt><trkpt lat="41.083121038795994" lon="1.1654566989967328"><ele>9.0</ele><time>2026-04-19T14:14:21Z</time></trkpt><trkpt lat="41.08301036391674" lon="1.1651725193277336"><ele>9.0</ele><time>2026-04-19T14:14:22Z</time></trkpt><trkpt lat="41.082898036871185" lon="1.1648845707542068"><ele>9.0</ele><time>2026-04-19T14:14:23Z</time></trkpt><trkpt lat="41.082783448124395" lon="1.1645945883408502"><ele>10.0</ele><time>2026-04-19T14:14:24Z</time></trkpt><trkpt lat="41.082669625988814" lon="1.164311640117724"><ele>11.0</ele><time>2026-04-19T14:14:25Z</time></trkpt><trkpt lat="41.08255894257817" lon="1.1640236443557144"><ele>13.0</ele><time>2026-04-19T14:14:26Z</time></trkpt><trkpt lat="41.08245294428363" lon="1.163746228006251"><ele>15.0</ele><time>2026-04-19T14:14:27Z</time></trkpt><trkpt lat="41.08235170007359" lon="1.163480887731342"><ele>15.0</ele><time>2026-04-19T14:14:28Z</time></trkpt><trkpt lat="41.08224591482328" lon="1.1632131734436406"><ele>15.0</ele><time>2026-04-19T14:14:29Z</time></trkpt><trkpt lat="41.08213998956694" lon="1.1629486143517938"><ele>16.333333333333332</ele><time>2026-04-19T14:14:29.999Z</time></trkpt><trkpt lat="41.082038105298835" lon="1.1626884012746583"><ele>17.666666666666664</ele><time>2026-04-19T14:14:30.999Z</time></trkpt><trkpt lat="41.08194160368874" lon="1.1624303040595914"><ele>19.0</ele><time>2026-04-19T14:14:31.999Z</time></trkpt><trkpt lat="41.081846354031256" lon="1.1621763132587888"><ele>19.0</ele><time>2026-04-19T14:14:32.999Z</time></trkpt><trkpt lat="41.08174783447211" lon="1.1619216318034877"><ele>19.0</ele><time>2026-04-19T14:14:33.999Z</time></trkpt><trkpt lat="41.08164466010336" lon="1.1616588414306581"><ele>19.0</ele><time>2026-04-19T14:14:34.999Z</time></trkpt><trkpt lat="41.08153919633492" lon="1.161388284403664"><ele>19.0</ele><time>2026-04-19T14:14:35.999Z</time></trkpt><trkpt lat="41.08143485625294" lon="1.1611192367478411"><ele>19.0</ele><time>2026-04-19T14:14:36.999Z</time></trkpt><trkpt lat="41.08132828338518" lon="1.1608453651779116"><ele>22.0</ele><time>2026-04-19T14:14:37.999Z</time></trkpt><trkpt lat="41.08121684821421" lon="1.1605607042518278"><ele>25.0</ele><time>2026-04-19T14:14:38.999Z</time></trkpt><trkpt lat="41.08110209970774" lon="1.1602677217798352"><ele>25.0</ele><time>2026-04-19T14:14:39.999Z</time></trkpt><trkpt lat="41.08098500243352" lon="1.1599626214017904"><ele>25.0</ele><time>2026-04-19T14:14:40.999Z</time></trkpt><trkpt lat="41.080861841341545" lon="1.1596480386848311"><ele>30.0</ele><time>2026-04-19T14:14:41.999Z</time></trkpt><trkpt lat="41.08074211479358" lon="1.1593532203643726"><ele>35.0</ele><time>2026-04-19T14:14:42.999Z</time></trkpt><trkpt lat="41.08062494432981" lon="1.159054005562824"><ele>34.5</ele><time>2026-04-19T14:14:43.999Z</time></trkpt><trkpt lat="41.080504911618924" lon="1.158753915928215"><ele>34.0</ele><time>2026-04-19T14:14:44.999Z</time></trkpt><trkpt lat="41.0803914220644" lon="1.1584483802239944"><ele>32.5</ele><time>2026-04-19T14:14:45.999Z</time></trkpt><trkpt lat="41.08027391882272" lon="1.1581444800560512"><ele>31.0</ele><time>2026-04-19T14:14:46.999Z</time></trkpt><trkpt lat="41.08015543964196" lon="1.157841613136275"><ele>31.0</ele><time>2026-04-19T14:14:47.999Z</time></trkpt><trkpt lat="41.08003730416887" lon="1.1575401532026786"><ele>31.0</ele><time>2026-04-19T14:14:48.999Z</time></trkpt><trkpt lat="41.07992108418542" lon="1.157251897102449"><ele>30.0</ele><time>2026-04-19T14:14:49.999Z</time></trkpt><trkpt lat="41.079809874270644" lon="1.1569564922512812"><ele>29.0</ele><time>2026-04-19T14:14:50.999Z</time></trkpt><trkpt lat="41.07969667460533" lon="1.1566672536701132"><ele>29.0</ele><time>2026-04-19T14:14:51.999Z</time></trkpt><trkpt lat="41.079581009059645" lon="1.1563787996678945"><ele>29.0</ele><time>2026-04-19T14:14:52.999Z</time></trkpt><trkpt lat="41.07946606161808" lon="1.1560974183376314"><ele>29.0</ele><time>2026-04-19T14:14:53.999Z</time></trkpt><trkpt lat="41.07935437576269" lon="1.155815713968238"><ele>29.0</ele><time>2026-04-19T14:14:54.999Z</time></trkpt><trkpt lat="41.07924832318397" lon="1.155538668984762"><ele>28.5</ele><time>2026-04-19T14:14:55.999Z</time></trkpt><trkpt lat="41.07914823178831" lon="1.155259605813341"><ele>28.0</ele><time>2026-04-19T14:14:56.999Z</time></trkpt><trkpt lat="41.07906078873021" lon="1.154976789981874"><ele>25.5</ele><time>2026-04-19T14:14:57.999Z</time></trkpt><trkpt lat="41.078980991293626" lon="1.1546875618667782"><ele>23.0</ele><time>2026-04-19T14:14:58.999Z</time></trkpt><trkpt lat="41.078908824179095" lon="1.1543936576204412"><ele>23.0</ele><time>2026-04-19T14:14:59.999Z</time></trkpt><trkpt lat="41.07884343857106" lon="1.1540948364247827"><ele>23.0</ele><time>2026-04-19T14:15:00.999Z</time></trkpt><trkpt lat="41.07878254248432" lon="1.153788819334165"><ele>22.0</ele><time>2026-04-19T14:15:01.999Z</time></trkpt><trkpt lat="41.078723754668424" lon="1.1534823250503703"><ele>21.0</ele><time>2026-04-19T14:15:02.999Z</time></trkpt><trkpt lat="41.07866302732997" lon="1.1531805220918372"><ele>21.0</ele><time>2026-04-19T14:15:03.999Z</time></trkpt><trkpt lat="41.07860084914271" lon="1.152879325374009"><ele>21.0</ele><time>2026-04-19T14:15:04.999Z</time></trkpt><trkpt lat="41.078538321963194" lon="1.1525770940597466"><ele>20.666666666666668</ele><time>2026-04-19T14:15:05.999Z</time></trkpt><trkpt lat="41.07847199281625" lon="1.1522812238869151"><ele>20.333333333333336</ele><time>2026-04-19T14:15:06.999Z</time></trkpt><trkpt lat="41.07840250877829" lon="1.1520103926165464"><ele>20.0</ele><time>2026-04-19T14:15:07.999Z</time></trkpt><trkpt lat="41.07832743628247" lon="1.1517762988290605"><ele>19.0</ele><time>2026-04-19T14:15:08.999Z</time></trkpt><trkpt lat="41.07824744399033" lon="1.1515603922104136"><ele>18.0</ele><time>2026-04-19T14:15:09.999Z</time></trkpt><trkpt lat="41.07815924657903" lon="1.1513541558655478"><ele>17.0</ele><time>2026-04-19T14:15:10.999Z</time></trkpt><trkpt lat="41.07805804898134" lon="1.1511595732246345"><ele>17.0</ele><time>2026-04-19T14:15:11.999Z</time></trkpt><trkpt lat="41.07795729744041" lon="1.1509565275508524"><ele>17.0</ele><time>2026-04-19T14:15:12.999Z</time></trkpt><trkpt lat="41.07785542728868" lon="1.1507517627538166"><ele>17.0</ele><time>2026-04-19T14:15:13.999Z</time></trkpt><trkpt lat="41.077747775698356" lon="1.1505542744501598"><ele>16.333333333333336</ele><time>2026-04-19T14:15:14.999Z</time></trkpt><trkpt lat="41.07764317919068" lon="1.1503652733136474"><ele>15.666666666666668</ele><time>2026-04-19T14:15:15.999Z</time></trkpt><trkpt lat="41.077547223644686" lon="1.1501844778470443"><ele>15.0</ele><time>2026-04-19T14:15:16.999Z</time></trkpt><trkpt lat="41.07745282654108" lon="1.1500216089200461"><ele>13.5</ele><time>2026-04-19T14:15:17.999Z</time></trkpt><trkpt lat="41.077367077528784" lon="1.1498526107655365"><ele>12.0</ele><time>2026-04-19T14:15:18.999Z</time></trkpt><trkpt lat="41.077287061341174" lon="1.1496958717768087"><ele>10.5</ele><time>2026-04-19T14:15:19.999Z</time></trkpt><trkpt lat="41.07721014800083" lon="1.1495433519017788"><ele>9.0</ele><time>2026-04-19T14:15:20.999Z</time></trkpt><trkpt lat="41.07714256672795" lon="1.1493904375925763"><ele>9.0</ele><time>2026-04-19T14:15:21.999Z</time></trkpt><trkpt lat="41.07708400461747" lon="1.1492353282432333"><ele>9.0</ele><time>2026-04-19T14:15:22.999Z</time></trkpt><trkpt lat="41.07703244559729" lon="1.149092675157355"><ele>9.0</ele><time>2026-04-19T14:15:23.999Z</time></trkpt><trkpt lat="41.076988739608126" lon="1.1489703406864087"><ele>9.0</ele><time>2026-04-19T14:15:24.999Z</time></trkpt><trkpt lat="41.076956933393454" lon="1.1488768719300764"><ele>9.0</ele><time>2026-04-19T14:15:25.999Z</time></trkpt><trkpt lat="41.07693470902804" lon="1.148798556021925"><ele>8.833333333333334</ele><time>2026-04-19T14:15:26.999Z</time></trkpt><trkpt lat="41.07690559385958" lon="1.1486782673862348"><ele>8.666666666666666</ele><time>2026-04-19T14:15:28.999Z</time></trkpt><trkpt lat="41.076889036354075" lon="1.1485864039418152"><ele>8.5</ele><time>2026-04-19T14:15:30.999Z</time></trkpt><trkpt lat="41.07687132186319" lon="1.1485046358786324"><ele>8.333333333333332</ele><time>2026-04-19T14:15:33.999Z</time></trkpt><trkpt lat="41.0768438306777" lon="1.1483725053632434"><ele>8.166666666666666</ele><time>2026-04-19T14:15:44Z</time></trkpt><trkpt lat="41.076823843826695" lon="1.1482912812850983"><ele>8.0</ele><time>2026-04-19T14:15:45Z</time></trkpt><trkpt lat="41.07680206327034" lon="1.1481812202710624"><ele>7.800000000000001</ele><time>2026-04-19T14:15:46Z</time></trkpt><trkpt lat="41.076786921978" lon="1.1480621345861401"><ele>7.6000000000000005</ele><time>2026-04-19T14:15:47Z</time></trkpt><trkpt lat="41.07676688521639" lon="1.147949168720675"><ele>7.3999999999999995</ele><time>2026-04-19T14:15:48Z</time></trkpt><trkpt lat="41.07674937043673" lon="1.147819658931938"><ele>7.199999999999999</ele><time>2026-04-19T14:15:49Z</time></trkpt><trkpt lat="41.07674125507858" lon="1.1476677369991697"><ele>7.0</ele><time>2026-04-19T14:15:50Z</time></trkpt><trkpt lat="41.07673628327277" lon="1.147511809486455"><ele>7.0</ele><time>2026-04-19T14:15:51Z</time></trkpt><trkpt lat="41.076735947091464" lon="1.1473510612052173"><ele>7.0</ele><time>2026-04-19T14:15:52Z</time></trkpt><trkpt lat="41.07674153629353" lon="1.1471819596823978"><ele>7.0</ele><time>2026-04-19T14:15:53Z</time></trkpt><trkpt lat="41.07675119322629" lon="1.1470222085248654"><ele>7.0</ele><time>2026-04-19T14:15:54Z</time></trkpt><trkpt lat="41.076754632612165" lon="1.14686444878495"><ele>7.0</ele><time>2026-04-19T14:15:55Z</time></trkpt><trkpt lat="41.07676570285127" lon="1.1467002878828683"><ele>7.0</ele><time>2026-04-19T14:15:56Z</time></trkpt><trkpt lat="41.07677587363323" lon="1.146526729369499"><ele>7.0</ele><time>2026-04-19T14:15:57Z</time></trkpt><trkpt lat="41.07678635884155" lon="1.1463498386640485"><ele>7.0</ele><time>2026-04-19T14:15:58Z</time></trkpt><trkpt lat="41.076800547142135" lon="1.1461532471077527"><ele>6.75</ele><time>2026-04-19T14:15:59Z</time></trkpt><trkpt lat="41.0768096167558" lon="1.1459516499832594"><ele>6.5</ele><time>2026-04-19T14:16:00Z</time></trkpt><trkpt lat="41.07682068896646" lon="1.1457552402676245"><ele>6.25</ele><time>2026-04-19T14:16:01Z</time></trkpt><trkpt lat="41.0768298026235" lon="1.1455702590660377"><ele>6.0</ele><time>2026-04-19T14:16:02Z</time></trkpt><trkpt lat="41.07683050083038" lon="1.1454033810971802"><ele>5.8</ele><time>2026-04-19T14:16:03Z</time></trkpt><trkpt lat="41.076830181047114" lon="1.1452534170502284"><ele>5.6</ele><time>2026-04-19T14:16:04Z</time></trkpt><trkpt lat="41.07683604245243" lon="1.1451154711838223"><ele>5.4</ele><time>2026-04-19T14:16:05Z</time></trkpt><trkpt lat="41.07684800664185" lon="1.1449930781417716"><ele>5.2</ele><time>2026-04-19T14:16:06Z</time></trkpt><trkpt lat="41.0768496396993" lon="1.1448742423030867"><ele>5.0</ele><time>2026-04-19T14:16:07Z</time></trkpt><trkpt lat="41.07685442100334" lon="1.1447630517775773"><ele>5.0</ele><time>2026-04-19T14:16:08Z</time></trkpt><trkpt lat="41.07686748970986" lon="1.144674834965091"><ele>5.0</ele><time>2026-04-19T14:16:09Z</time></trkpt><trkpt lat="41.07688756123542" lon="1.144594158324267"><ele>5.0</ele><time>2026-04-19T14:16:10Z</time></trkpt><trkpt lat="41.07691464538907" lon="1.1444808255934122"><ele>5.0</ele><time>2026-04-19T14:16:11Z</time></trkpt><trkpt lat="41.07697823616235" lon="1.1443824441690837"><ele>5.0</ele><time>2026-04-19T14:16:12Z</time></trkpt><trkpt lat="41.07706030775197" lon="1.144314933067424"><ele>5.0</ele><time>2026-04-19T14:16:13Z</time></trkpt><trkpt lat="41.07710448366174" lon="1.144208982147339"><ele>5.0</ele><time>2026-04-19T14:16:14Z</time></trkpt><trkpt lat="41.077126132705914" lon="1.1440967430202122"><ele>5.0</ele><time>2026-04-19T14:16:15Z</time></trkpt><trkpt lat="41.077127312258035" lon="1.1439916843668898"><ele>5.0</ele><time>2026-04-19T14:16:16Z</time></trkpt><trkpt lat="41.07710295884286" lon="1.1438894323994095"><ele>5.0</ele><time>2026-04-19T14:16:17Z</time></trkpt><trkpt lat="41.07707592759881" lon="1.1437897093863316"><ele>5.0</ele><time>2026-04-19T14:16:18Z</time></trkpt><trkpt lat="41.07705991846249" lon="1.1436699106890282"><ele>5.0</ele><time>2026-04-19T14:16:19Z</time></trkpt><trkpt lat="41.07706566663554" lon="1.1435603489283346"><ele>4.8</ele><time>2026-04-19T14:16:20Z</time></trkpt><trkpt lat="41.07707774923287" lon="1.143469477120037"><ele>4.6</ele><time>2026-04-19T14:16:21Z</time></trkpt><trkpt lat="41.077117967099504" lon="1.1433349756986253"><ele>4.4</ele><time>2026-04-19T14:16:23Z</time></trkpt><trkpt lat="41.07713930887808" lon="1.1431869090766351"><ele>4.2</ele><time>2026-04-19T14:16:39Z</time></trkpt><trkpt lat="41.07718716856494" lon="1.1430851029077103"><ele>4.0</ele><time>2026-04-19T14:16:40Z</time></trkpt><trkpt lat="41.07724535588863" lon="1.142988296258527"><ele>4.5</ele><time>2026-04-19T14:16:41Z</time></trkpt><trkpt lat="41.07731064536789" lon="1.142874416096251"><ele>5.0</ele><time>2026-04-19T14:16:41.999Z</time></trkpt><trkpt lat="41.07739261056857" lon="1.1427296592622516"><ele>5.5</ele><time>2026-04-19T14:16:42.999Z</time></trkpt><trkpt lat="41.077471556187966" lon="1.1425831063198748"><ele>6.0</ele><time>2026-04-19T14:16:43.999Z</time></trkpt><trkpt lat="41.0775483288233" lon="1.1424448468698076"><ele>5.666666666666667</ele><time>2026-04-19T14:16:44.999Z</time></trkpt><trkpt lat="41.07763918256153" lon="1.1422913750961"><ele>5.333333333333334</ele><time>2026-04-19T14:16:45.999Z</time></trkpt><trkpt lat="41.07773539976981" lon="1.1421268576154373"><ele>5.0</ele><time>2026-04-19T14:16:46.999Z</time></trkpt><trkpt lat="41.07782590061023" lon="1.141967267942348"><ele>5.0</ele><time>2026-04-19T14:16:47.999Z</time></trkpt><trkpt lat="41.07792548893224" lon="1.1418101972850954"><ele>5.0</ele><time>2026-04-19T14:16:48.999Z</time></trkpt><trkpt lat="41.07801940300337" lon="1.1416519045057396"><ele>5.0</ele><time>2026-04-19T14:16:49.999Z</time></trkpt><trkpt lat="41.07812336126668" lon="1.1414910851312308"><ele>4.75</ele><time>2026-04-19T14:16:50.999Z</time></trkpt><trkpt lat="41.07822627303403" lon="1.141337706646396"><ele>4.5</ele><time>2026-04-19T14:16:51.999Z</time></trkpt><trkpt lat="41.07831854922067" lon="1.1411971896465654"><ele>4.25</ele><time>2026-04-19T14:16:52.999Z</time></trkpt><trkpt lat="41.07840774344122" lon="1.1410466056018083"><ele>4.0</ele><time>2026-04-19T14:16:53.999Z</time></trkpt><trkpt lat="41.07849877073893" lon="1.1408928312059563"><ele>4.0</ele><time>2026-04-19T14:16:54.999Z</time></trkpt><trkpt lat="41.07858796188674" lon="1.140748517808425"><ele>4.0</ele><time>2026-04-19T14:16:55.999Z</time></trkpt><trkpt lat="41.078676051419365" lon="1.1406014884576925"><ele>4.0</ele><time>2026-04-19T14:16:56.999Z</time></trkpt><trkpt lat="41.07873927536958" lon="1.1404671522671395"><ele>4.0</ele><time>2026-04-19T14:16:57.999Z</time></trkpt><trkpt lat="41.07882360016545" lon="1.140329859351613"><ele>4.0</ele><time>2026-04-19T14:16:58.999Z</time></trkpt><trkpt lat="41.07890781809086" lon="1.140196944060985"><ele>4.0</ele><time>2026-04-19T14:16:59.999Z</time></trkpt><trkpt lat="41.078994832773134" lon="1.1400583145656837"><ele>4.0</ele><time>2026-04-19T14:17:00.999Z</time></trkpt><trkpt lat="41.07907867281043" lon="1.139922623640495"><ele>4.0</ele><time>2026-04-19T14:17:01.999Z</time></trkpt><trkpt lat="41.079157137774274" lon="1.1397886885923736"><ele>5.0</ele><time>2026-04-19T14:17:02.999Z</time></trkpt><trkpt lat="41.079237058584354" lon="1.1396553214793408"><ele>6.0</ele><time>2026-04-19T14:17:03.999Z</time></trkpt><trkpt lat="41.07932852075597" lon="1.1395240722296787"><ele>7.0</ele><time>2026-04-19T14:17:04.999Z</time></trkpt><trkpt lat="41.07942329572477" lon="1.1393967964543232"><ele>8.0</ele><time>2026-04-19T14:17:05.999Z</time></trkpt><trkpt lat="41.079523325670536" lon="1.1392707119278649"><ele>8.0</ele><time>2026-04-19T14:17:06.999Z</time></trkpt><trkpt lat="41.079626367037555" lon="1.1391475799861048"><ele>8.0</ele><time>2026-04-19T14:17:07.999Z</time></trkpt><trkpt lat="41.0797270398848" lon="1.1390353042725947"><ele>8.0</ele><time>2026-04-19T14:17:08.999Z</time></trkpt><trkpt lat="41.07983352761638" lon="1.1389323015274144"><ele>8.0</ele><time>2026-04-19T14:17:09.999Z</time></trkpt><trkpt lat="41.079942267608956" lon="1.1388324823515716"><ele>8.25</ele><time>2026-04-19T14:17:10.999Z</time></trkpt><trkpt lat="41.08005851304107" lon="1.1387335288511398"><ele>8.5</ele><time>2026-04-19T14:17:11.999Z</time></trkpt><trkpt lat="41.08017681510403" lon="1.1386369097346005"><ele>8.75</ele><time>2026-04-19T14:17:12.999Z</time></trkpt><trkpt lat="41.08030659084897" lon="1.1385398582294461"><ele>9.0</ele><time>2026-04-19T14:17:13.999Z</time></trkpt><trkpt lat="41.080446423649555" lon="1.1384570282658724"><ele>9.0</ele><time>2026-04-19T14:17:14.999Z</time></trkpt><trkpt lat="41.08058746732485" lon="1.138372676863037"><ele>9.0</ele><time>2026-04-19T14:17:15.999Z</time></trkpt><trkpt lat="41.080731673824005" lon="1.1383034821478284"><ele>9.0</ele><time>2026-04-19T14:17:16.999Z</time></trkpt><trkpt lat="41.08088864117506" lon="1.1382407555327134"><ele>10.333333333333332</ele><time>2026-04-19T14:17:17.999Z</time></trkpt><trkpt lat="41.08104920374607" lon="1.1381834207014143"><ele>11.666666666666666</ele><time>2026-04-19T14:17:18.999Z</time></trkpt><trkpt lat="41.08120837899846" lon="1.138129832765383"><ele>13.0</ele><time>2026-04-19T14:17:19.999Z</time></trkpt><trkpt lat="41.081358064819234" lon="1.138083326483127"><ele>13.0</ele><time>2026-04-19T14:17:20.999Z</time></trkpt><trkpt lat="41.081500277796906" lon="1.138048072891308"><ele>13.0</ele><time>2026-04-19T14:17:21.999Z</time></trkpt><trkpt lat="41.08164225290996" lon="1.1380160437495237"><ele>13.0</ele><time>2026-04-19T14:17:22.999Z</time></trkpt><trkpt lat="41.08178832015071" lon="1.1379840352496027"><ele>13.0</ele><time>2026-04-19T14:17:23.999Z</time></trkpt><trkpt lat="41.08193369078759" lon="1.137952512068382"><ele>13.0</ele><time>2026-04-19T14:17:24.999Z</time></trkpt><trkpt lat="41.082072852481595" lon="1.1379253256887483"><ele>13.0</ele><time>2026-04-19T14:17:25.999Z</time></trkpt><trkpt lat="41.082210996715425" lon="1.1378930363366864"><ele>13.0</ele><time>2026-04-19T14:17:26.999Z</time></trkpt><trkpt lat="41.082347930626085" lon="1.1378619751790906"><ele>13.0</ele><time>2026-04-19T14:17:27.999Z</time></trkpt><trkpt lat="41.08247547435443" lon="1.1378293342904215"><ele>12.0</ele><time>2026-04-19T14:17:28.999Z</time></trkpt><trkpt lat="41.08259692192559" lon="1.137802680507372"><ele>11.0</ele><time>2026-04-19T14:17:29.999Z</time></trkpt><trkpt lat="41.08271043212584" lon="1.1377828330837148"><ele>10.0</ele><time>2026-04-19T14:17:30.999Z</time></trkpt><trkpt lat="41.08281202891018" lon="1.137749623932785"><ele>9.0</ele><time>2026-04-19T14:17:31.999Z</time></trkpt><trkpt lat="41.08291270301532" lon="1.137720458091745"><ele>8.0</ele><time>2026-04-19T14:17:32.999Z</time></trkpt><trkpt lat="41.08300886264132" lon="1.137698634151549"><ele>7.999999999999999</ele><time>2026-04-19T14:17:33.999Z</time></trkpt><trkpt lat="41.08309668882854" lon="1.1376742142262086"><ele>8.0</ele><time>2026-04-19T14:17:34.999Z</time></trkpt><trkpt lat="41.083188982762934" lon="1.1376501852849983"><ele>8.0</ele><time>2026-04-19T14:17:35.999Z</time></trkpt><trkpt lat="41.083282426418705" lon="1.137622139302547"><ele>8.0</ele><time>2026-04-19T14:17:36.999Z</time></trkpt><trkpt lat="41.08336796502896" lon="1.1375964125050748"><ele>7.999999999999999</ele><time>2026-04-19T14:17:37.999Z</time></trkpt><trkpt lat="41.08344490884797" lon="1.1375734133089428"><ele>8.0</ele><time>2026-04-19T14:17:38.999Z</time></trkpt><trkpt lat="41.083530322629834" lon="1.1375495367839947"><ele>8.5</ele><time>2026-04-19T14:17:39.999Z</time></trkpt><trkpt lat="41.08362551897706" lon="1.1375237647048237"><ele>9.0</ele><time>2026-04-19T14:17:40.999Z</time></trkpt><trkpt lat="41.08370931558474" lon="1.1375005781892304"><ele>9.5</ele><time>2026-04-19T14:17:41.999Z</time></trkpt><trkpt lat="41.08378097505509" lon="1.1374856052073437"><ele>10.0</ele><time>2026-04-19T14:17:42.999Z</time></trkpt><trkpt lat="41.08384520360635" lon="1.137472952061763"><ele>10.5</ele><time>2026-04-19T14:17:43.999Z</time></trkpt><trkpt lat="41.08394999560682" lon="1.137465343131758"><ele>11.0</ele><time>2026-04-19T14:17:45.999Z</time></trkpt><trkpt lat="41.08405689346621" lon="1.1375048513808994"><ele>11.428571428571429</ele><time>2026-04-19T14:17:48Z</time></trkpt><trkpt lat="41.0841081679762" lon="1.1375543374191264"><ele>11.857142857142858</ele><time>2026-04-19T14:17:49Z</time></trkpt><trkpt lat="41.08416541249359" lon="1.1376050159670277"><ele>12.285714285714285</ele><time>2026-04-19T14:17:50Z</time></trkpt><trkpt lat="41.084231355469974" lon="1.1376309729077634"><ele>12.714285714285715</ele><time>2026-04-19T14:17:51Z</time></trkpt><trkpt lat="41.084304346057976" lon="1.137624788155905"><ele>13.142857142857142</ele><time>2026-04-19T14:17:52Z</time></trkpt><trkpt lat="41.0843659157989" lon="1.1375705674479781"><ele>13.571428571428571</ele><time>2026-04-19T14:17:53Z</time></trkpt><trkpt lat="41.08440770792548" lon="1.1374982102971951"><ele>14.0</ele><time>2026-04-19T14:17:54Z</time></trkpt><trkpt lat="41.08444386582639" lon="1.1373445793581665"><ele>14.000000000000002</ele><time>2026-04-19T14:17:56Z</time></trkpt><trkpt lat="41.084467432595964" lon="1.1372592712737701"><ele>14.0</ele><time>2026-04-19T14:17:57Z</time></trkpt><trkpt lat="41.08450639393355" lon="1.1371751970345256"><ele>14.0</ele><time>2026-04-19T14:17:58Z</time></trkpt><trkpt lat="41.08456728326827" lon="1.1370931362398147"><ele>14.0</ele><time>2026-04-19T14:17:59Z</time></trkpt><trkpt lat="41.08465428104427" lon="1.1370270269502876"><ele>14.000000000000002</ele><time>2026-04-19T14:18:00Z</time></trkpt><trkpt lat="41.08475402096928" lon="1.1369701856079664"><ele>14.0</ele><time>2026-04-19T14:18:01Z</time></trkpt><trkpt lat="41.08487253957013" lon="1.1368915945946767"><ele>13.333333333333334</ele><time>2026-04-19T14:18:02Z</time></trkpt><trkpt lat="41.08501944669068" lon="1.1367944979729998"><ele>12.666666666666668</ele><time>2026-04-19T14:18:03Z</time></trkpt><trkpt lat="41.08517629096487" lon="1.1366820042482053"><ele>12.0</ele><time>2026-04-19T14:18:04Z</time></trkpt><trkpt lat="41.085349427274" lon="1.1365526173956564"><ele>11.333333333333334</ele><time>2026-04-19T14:18:05Z</time></trkpt><trkpt lat="41.08552413461743" lon="1.1364302665091721"><ele>10.666666666666668</ele><time>2026-04-19T14:18:06Z</time></trkpt><trkpt lat="41.085710784216914" lon="1.1362947704301134"><ele>10.0</ele><time>2026-04-19T14:18:07Z</time></trkpt><trkpt lat="41.08588080806065" lon="1.1361544559008048"><ele>11.666666666666668</ele><time>2026-04-19T14:18:08Z</time></trkpt><trkpt lat="41.086034149891915" lon="1.1360098254689897"><ele>13.333333333333334</ele><time>2026-04-19T14:18:09Z</time></trkpt><trkpt lat="41.08616773110284" lon="1.1358717131092464"><ele>15.0</ele><time>2026-04-19T14:18:10Z</time></trkpt><trkpt lat="41.08629682032825" lon="1.1357342227269578"><ele>15.0</ele><time>2026-04-19T14:18:11Z</time></trkpt><trkpt lat="41.0864279984037" lon="1.1355899622334953"><ele>15.0</ele><time>2026-04-19T14:18:12Z</time></trkpt><trkpt lat="41.086563189229494" lon="1.1354410835499926"><ele>15.0</ele><time>2026-04-19T14:18:13Z</time></trkpt><trkpt lat="41.08669541536362" lon="1.1352836445935717"><ele>15.0</ele><time>2026-04-19T14:18:14Z</time></trkpt><trkpt lat="41.08681429118249" lon="1.1351283744528609"><ele>15.0</ele><time>2026-04-19T14:18:15Z</time></trkpt><trkpt lat="41.08692125614585" lon="1.1349829800352835"><ele>15.0</ele><time>2026-04-19T14:18:16Z</time></trkpt><trkpt lat="41.08702476392736" lon="1.1348350028059522"><ele>14.666666666666668</ele><time>2026-04-19T14:18:17Z</time></trkpt><trkpt lat="41.08712547332018" lon="1.1346825061365384"><ele>14.333333333333334</ele><time>2026-04-19T14:18:18Z</time></trkpt><trkpt lat="41.08722851112651" lon="1.1345295078123392"><ele>14.0</ele><time>2026-04-19T14:18:19Z</time></trkpt><trkpt lat="41.08733195269569" lon="1.1343759484099314"><ele>14.25</ele><time>2026-04-19T14:18:20Z</time></trkpt><trkpt lat="41.08742990745968" lon="1.134226675679488"><ele>14.5</ele><time>2026-04-19T14:18:21Z</time></trkpt><trkpt lat="41.08752008117172" lon="1.1340876224949807"><ele>14.75</ele><time>2026-04-19T14:18:22Z</time></trkpt><trkpt lat="41.08759944877061" lon="1.1339571781882143"><ele>15.0</ele><time>2026-04-19T14:18:23Z</time></trkpt><trkpt lat="41.087681312018766" lon="1.1338408024015558"><ele>15.0</ele><time>2026-04-19T14:18:24Z</time></trkpt><trkpt lat="41.08776061043446" lon="1.1337657572193922"><ele>15.0</ele><time>2026-04-19T14:18:25Z</time></trkpt><trkpt lat="41.08785296907389" lon="1.1337507161639622"><ele>15.0</ele><time>2026-04-19T14:18:26Z</time></trkpt><trkpt lat="41.087942761753496" lon="1.1337592130769076"><ele>15.0</ele><time>2026-04-19T14:18:27Z</time></trkpt><trkpt lat="41.0880152830342" lon="1.133725528129566"><ele>15.0</ele><time>2026-04-19T14:18:28Z</time></trkpt><trkpt lat="41.08806892346952" lon="1.1336428050182035"><ele>15.0</ele><time>2026-04-19T14:18:29Z</time></trkpt><trkpt lat="41.08811013910763" lon="1.1335407032033729"><ele>15.0</ele><time>2026-04-19T14:18:30Z</time></trkpt><trkpt lat="41.088122689685356" lon="1.1334119906250615"><ele>15.0</ele><time>2026-04-19T14:18:31Z</time></trkpt><trkpt lat="41.08810308640061" lon="1.1332718796782197"><ele>15.0</ele><time>2026-04-19T14:18:32Z</time></trkpt><trkpt lat="41.08805336908859" lon="1.1331311248967049"><ele>15.0</ele><time>2026-04-19T14:18:33Z</time></trkpt><trkpt lat="41.0880626363051" lon="1.1329424482425552"><ele>15.25</ele><time>2026-04-19T14:18:34Z</time></trkpt><trkpt lat="41.08810016076171" lon="1.1327668745576895"><ele>15.5</ele><time>2026-04-19T14:18:35Z</time></trkpt><trkpt lat="41.088178690093365" lon="1.1325900305032042"><ele>15.75</ele><time>2026-04-19T14:18:36Z</time></trkpt><trkpt lat="41.08826303178981" lon="1.132414812838366"><ele>16.0</ele><time>2026-04-19T14:18:37Z</time></trkpt><trkpt lat="41.08833665869937" lon="1.1322456259420581"><ele>16.0</ele><time>2026-04-19T14:18:38Z</time></trkpt><trkpt lat="41.0884015862327" lon="1.1320853546128844"><ele>16.0</ele><time>2026-04-19T14:18:39Z</time></trkpt><trkpt lat="41.08846466423529" lon="1.1319290505707829"><ele>16.0</ele><time>2026-04-19T14:18:40Z</time></trkpt><trkpt lat="41.08853444705076" lon="1.1317753386746516"><ele>16.0</ele><time>2026-04-19T14:18:41Z</time></trkpt><trkpt lat="41.088611977933766" lon="1.131626327915195"><ele>16.0</ele><time>2026-04-19T14:18:42Z</time></trkpt><trkpt lat="41.088687988546724" lon="1.1314927564185464"><ele>16.0</ele><time>2026-04-19T14:18:42.999Z</time></trkpt><trkpt lat="41.088758395917985" lon="1.1313744847251828"><ele>16.0</ele><time>2026-04-19T14:18:43.999Z</time></trkpt><trkpt lat="41.08882742540205" lon="1.1312725012987674"><ele>16.0</ele><time>2026-04-19T14:18:44.999Z</time></trkpt><trkpt lat="41.08890319769241" lon="1.1311696182112563"><ele>16.0</ele><time>2026-04-19T14:18:45.999Z</time></trkpt><trkpt lat="41.088977248793476" lon="1.1310711776248261"><ele>16.0</ele><time>2026-04-19T14:18:46.999Z</time></trkpt><trkpt lat="41.0890491953905" lon="1.130984799025258"><ele>16.0</ele><time>2026-04-19T14:18:47.999Z</time></trkpt><trkpt lat="41.08911623253931" lon="1.1309187872367632"><ele>16.0</ele><time>2026-04-19T14:18:48.999Z</time></trkpt><trkpt lat="41.0891785544179" lon="1.1308642658202555"><ele>16.0</ele><time>2026-04-19T14:18:49.999Z</time></trkpt><trkpt lat="41.089260642946634" lon="1.1307898450419918"><ele>16.6</ele><time>2026-04-19T14:18:51.999Z</time></trkpt><trkpt lat="41.08933397732032" lon="1.1307287835720066"><ele>17.200000000000003</ele><time>2026-04-19T14:18:55.999Z</time></trkpt><trkpt lat="41.08942697457528" lon="1.1306861406979085"><ele>17.799999999999997</ele><time>2026-04-19T14:18:57.999Z</time></trkpt><trkpt lat="41.08954507140411" lon="1.1307020699350052"><ele>18.4</ele><time>2026-04-19T14:18:59.999Z</time></trkpt><trkpt lat="41.08961828192338" lon="1.130719492546212"><ele>19.0</ele><time>2026-04-19T14:19:00.999Z</time></trkpt><trkpt lat="41.089699018304415" lon="1.1307239017342143"><ele>19.0</ele><time>2026-04-19T14:19:01.999Z</time></trkpt><trkpt lat="41.0897736256208" lon="1.1306907471654641"><ele>19.0</ele><time>2026-04-19T14:19:02.999Z</time></trkpt><trkpt lat="41.08983564890458" lon="1.1306233278374718"><ele>19.0</ele><time>2026-04-19T14:19:03.999Z</time></trkpt><trkpt lat="41.089891079273436" lon="1.1305284191219933"><ele>19.0</ele><time>2026-04-19T14:19:04.999Z</time></trkpt><trkpt lat="41.089918427097984" lon="1.1304137365187217"><ele>19.0</ele><time>2026-04-19T14:19:05.999Z</time></trkpt><trkpt lat="41.089911126934865" lon="1.1302955273873674"><ele>19.0</ele><time>2026-04-19T14:19:06.999Z</time></trkpt><trkpt lat="41.089877377194185" lon="1.1301721324635972"><ele>19.0</ele><time>2026-04-19T14:19:07.999Z</time></trkpt><trkpt lat="41.08980441283393" lon="1.1300519196315073"><ele>19.0</ele><time>2026-04-19T14:19:08.999Z</time></trkpt><trkpt lat="41.08971139884483" lon="1.1299723768651024"><ele>19.0</ele><time>2026-04-19T14:19:09.999Z</time></trkpt><trkpt lat="41.08961564169306" lon="1.1298495415569403"><ele>19.0</ele><time>2026-04-19T14:19:10.999Z</time></trkpt><trkpt lat="41.089542955855876" lon="1.129699738934528"><ele>19.333333333333332</ele><time>2026-04-19T14:19:11.999Z</time></trkpt><trkpt lat="41.08947138696521" lon="1.1295159625855125"><ele>19.666666666666668</ele><time>2026-04-19T14:19:12.999Z</time></trkpt><trkpt lat="41.08939034263825" lon="1.1293058563514622"><ele>20.0</ele><time>2026-04-19T14:19:13.999Z</time></trkpt><trkpt lat="41.08929465415549" lon="1.1290836817409577"><ele>20.0</ele><time>2026-04-19T14:19:14.999Z</time></trkpt><trkpt lat="41.08919951446753" lon="1.1288404422890363"><ele>20.0</ele><time>2026-04-19T14:19:15.999Z</time></trkpt><trkpt lat="41.08910552062133" lon="1.1285613886398609"><ele>20.0</ele><time>2026-04-19T14:19:16.999Z</time></trkpt><trkpt lat="41.08900659403569" lon="1.1282864515204287"><ele>18.0</ele><time>2026-04-19T14:19:17.999Z</time></trkpt><trkpt lat="41.088908297833754" lon="1.1280333078970823"><ele>16.0</ele><time>2026-04-19T14:19:18.999Z</time></trkpt><trkpt lat="41.08880267993295" lon="1.1277758982191877"><ele>14.0</ele><time>2026-04-19T14:19:19.999Z</time></trkpt><trkpt lat="41.08870033432458" lon="1.127508193001813"><ele>14.0</ele><time>2026-04-19T14:19:20.999Z</time></trkpt><trkpt lat="41.088597775397496" lon="1.127239704689798"><ele>14.0</ele><time>2026-04-19T14:19:21.999Z</time></trkpt><trkpt lat="41.08848621101872" lon="1.1269752507589952"><ele>14.0</ele><time>2026-04-19T14:19:22.999Z</time></trkpt><trkpt lat="41.088373880091176" lon="1.1267254773939273"><ele>14.0</ele><time>2026-04-19T14:19:23.999Z</time></trkpt><trkpt lat="41.088261565564956" lon="1.126497665573456"><ele>14.0</ele><time>2026-04-19T14:19:24.999Z</time></trkpt><trkpt lat="41.08814997612872" lon="1.1262948284576535"><ele>13.666666666666668</ele><time>2026-04-19T14:19:25.999Z</time></trkpt><trkpt lat="41.08804424284578" lon="1.1261075727143275"><ele>13.333333333333332</ele><time>2026-04-19T14:19:26.999Z</time></trkpt><trkpt lat="41.08794036211816" lon="1.1259312233746144"><ele>13.0</ele><time>2026-04-19T14:19:27.999Z</time></trkpt><trkpt lat="41.08783555685547" lon="1.1257731824255186"><ele>13.25</ele><time>2026-04-19T14:19:28.999Z</time></trkpt><trkpt lat="41.087742485468134" lon="1.1256222926962256"><ele>13.5</ele><time>2026-04-19T14:19:29.999Z</time></trkpt><trkpt lat="41.08765381450767" lon="1.1254905359411276"><ele>13.75</ele><time>2026-04-19T14:19:30.999Z</time></trkpt><trkpt lat="41.087577620750984" lon="1.1253713169891282"><ele>14.0</ele><time>2026-04-19T14:19:31.999Z</time></trkpt><trkpt lat="41.08752101632361" lon="1.1252511419031792"><ele>14.0</ele><time>2026-04-19T14:19:32.999Z</time></trkpt><trkpt lat="41.08748592523296" lon="1.125130516163571"><ele>13.999999999999998</ele><time>2026-04-19T14:19:33.999Z</time></trkpt><trkpt lat="41.08746742118664" lon="1.1250024375861174"><ele>13.999999999999998</ele><time>2026-04-19T14:19:34.999Z</time></trkpt><trkpt lat="41.08739791358707" lon="1.1248868876708835"><ele>14.0</ele><time>2026-04-19T14:19:35.999Z</time></trkpt><trkpt lat="41.08728161638254" lon="1.1248168534272458"><ele>14.0</ele><time>2026-04-19T14:19:36.999Z</time></trkpt><trkpt lat="41.087156513870966" lon="1.1247197406232445"><ele>14.0</ele><time>2026-04-19T14:19:37.999Z</time></trkpt><trkpt lat="41.08702567457678" lon="1.1245667365512129"><ele>14.0</ele><time>2026-04-19T14:19:38.999Z</time></trkpt><trkpt lat="41.08689885106891" lon="1.1243645179101005"><ele>14.0</ele><time>2026-04-19T14:19:39.999Z</time></trkpt><trkpt lat="41.08677623307593" lon="1.1241573013900197"><ele>13.666666666666668</ele><time>2026-04-19T14:19:40.999Z</time></trkpt><trkpt lat="41.08664870959965" lon="1.123959742278366"><ele>13.333333333333332</ele><time>2026-04-19T14:19:41.999Z</time></trkpt><trkpt lat="41.0865311075759" lon="1.1237809929207343"><ele>13.0</ele><time>2026-04-19T14:19:42.999Z</time></trkpt><trkpt lat="41.086408279769564" lon="1.1235944862054075"><ele>13.0</ele><time>2026-04-19T14:19:43.999Z</time></trkpt><trkpt lat="41.08628647864885" lon="1.1234096076506743"><ele>13.0</ele><time>2026-04-19T14:19:44.999Z</time></trkpt><trkpt lat="41.086170483217174" lon="1.1232408350597225"><ele>13.0</ele><time>2026-04-19T14:19:45.999Z</time></trkpt><trkpt lat="41.08606498027269" lon="1.1230922305668973"><ele>12.666666666666666</ele><time>2026-04-19T14:19:46.999Z</time></trkpt><trkpt lat="41.08596682948217" lon="1.122940080596615"><ele>12.333333333333332</ele><time>2026-04-19T14:19:47.999Z</time></trkpt><trkpt lat="41.085865058687986" lon="1.1227874613817803"><ele>12.0</ele><time>2026-04-19T14:19:48.999Z</time></trkpt><trkpt lat="41.08576360916824" lon="1.1226325954868788"><ele>12.0</ele><time>2026-04-19T14:19:49.999Z</time></trkpt><trkpt lat="41.085662066713375" lon="1.1224813335414607"><ele>12.0</ele><time>2026-04-19T14:19:50.999Z</time></trkpt><trkpt lat="41.08556251049746" lon="1.1223326353449972"><ele>12.0</ele><time>2026-04-19T14:19:51.999Z</time></trkpt><trkpt lat="41.08546650100571" lon="1.122187969116799"><ele>12.0</ele><time>2026-04-19T14:19:53Z</time></trkpt><trkpt lat="41.08537414272707" lon="1.122046125226636"><ele>12.0</ele><time>2026-04-19T14:19:54Z</time></trkpt><trkpt lat="41.085283592354614" lon="1.1219092759031613"><ele>12.0</ele><time>2026-04-19T14:19:55Z</time></trkpt><trkpt lat="41.08519244848845" lon="1.1217734187414465"><ele>12.0</ele><time>2026-04-19T14:19:56Z</time></trkpt><trkpt lat="41.08509812908427" lon="1.1216359744973088"><ele>12.0</ele><time>2026-04-19T14:19:57Z</time></trkpt><trkpt lat="41.0850016729233" lon="1.121492413146571"><ele>11.75</ele><time>2026-04-19T14:19:58Z</time></trkpt><trkpt lat="41.08491225802008" lon="1.1213598686515174"><ele>11.5</ele><time>2026-04-19T14:19:59Z</time></trkpt><trkpt lat="41.08482934193912" lon="1.1212408945759196"><ele>11.25</ele><time>2026-04-19T14:20:00Z</time></trkpt><trkpt lat="41.08475368665147" lon="1.1211149705718129"><ele>11.0</ele><time>2026-04-19T14:20:01Z</time></trkpt><trkpt lat="41.08468721058653" lon="1.1210013634396383"><ele>11.0</ele><time>2026-04-19T14:20:02Z</time></trkpt><trkpt lat="41.08462745068623" lon="1.120892255152311"><ele>11.0</ele><time>2026-04-19T14:20:03Z</time></trkpt><trkpt lat="41.084577283507834" lon="1.120775643764908"><ele>11.0</ele><time>2026-04-19T14:20:04Z</time></trkpt><trkpt lat="41.08455433508936" lon="1.1206271608540133"><ele>11.0</ele><time>2026-04-19T14:20:05Z</time></trkpt><trkpt lat="41.0844892531915" lon="1.120513429829768"><ele>11.0</ele><time>2026-04-19T14:20:06Z</time></trkpt><trkpt lat="41.08437942844944" lon="1.1204401691702361"><ele>10.666666666666666</ele><time>2026-04-19T14:20:07Z</time></trkpt><trkpt lat="41.0842495577739" lon="1.1203731314044367"><ele>10.333333333333334</ele><time>2026-04-19T14:20:08Z</time></trkpt><trkpt lat="41.08415948875967" lon="1.1202079979224273"><ele>10.0</ele><time>2026-04-19T14:20:09Z</time></trkpt><trkpt lat="41.084060327324174" lon="1.1200211771556128"><ele>10.0</ele><time>2026-04-19T14:20:10Z</time></trkpt><trkpt lat="41.08395180061961" lon="1.1198277054397758"><ele>10.0</ele><time>2026-04-19T14:20:11Z</time></trkpt><trkpt lat="41.083857065976915" lon="1.1196363286322892"><ele>10.0</ele><time>2026-04-19T14:20:12Z</time></trkpt><trkpt lat="41.08375964802767" lon="1.1194479341972912"><ele>10.0</ele><time>2026-04-19T14:20:13Z</time></trkpt><trkpt lat="41.08366163147418" lon="1.1192583161574632"><ele>10.0</ele><time>2026-04-19T14:20:14Z</time></trkpt><trkpt lat="41.08356620776308" lon="1.1190686858692807"><ele>10.0</ele><time>2026-04-19T14:20:15Z</time></trkpt><trkpt lat="41.0834713260951" lon="1.118863215353293"><ele>10.333333333333334</ele><time>2026-04-19T14:20:16Z</time></trkpt><trkpt lat="41.08336284853646" lon="1.1186553093493685"><ele>10.666666666666666</ele><time>2026-04-19T14:20:17Z</time></trkpt><trkpt lat="41.08326639825548" lon="1.1184389554070988"><ele>11.0</ele><time>2026-04-19T14:20:18Z</time></trkpt><trkpt lat="41.08316098658848" lon="1.1182007552440911"><ele>10.333333333333332</ele><time>2026-04-19T14:20:19Z</time></trkpt><trkpt lat="41.08307842210642" lon="1.1180090560837774"><ele>9.666666666666666</ele><time>2026-04-19T14:20:20Z</time></trkpt><trkpt lat="41.08299512803898" lon="1.1177957057091623"><ele>9.0</ele><time>2026-04-19T14:20:21Z</time></trkpt><trkpt lat="41.08291501684844" lon="1.1175840727182422"><ele>9.0</ele><time>2026-04-19T14:20:22Z</time></trkpt><trkpt lat="41.082838011875275" lon="1.1173641389974833"><ele>9.0</ele><time>2026-04-19T14:20:23Z</time></trkpt><trkpt lat="41.08276198155857" lon="1.1171464506507918"><ele>9.0</ele><time>2026-04-19T14:20:24Z</time></trkpt><trkpt lat="41.08268255973812" lon="1.1169253101048697"><ele>9.0</ele><time>2026-04-19T14:20:25Z</time></trkpt><trkpt lat="41.08261186417048" lon="1.116697147370151"><ele>9.0</ele><time>2026-04-19T14:20:26Z</time></trkpt><trkpt lat="41.08254716543327" lon="1.1164727466665245"><ele>9.0</ele><time>2026-04-19T14:20:27Z</time></trkpt><trkpt lat="41.08248548702715" lon="1.1162608511233352"><ele>9.333333333333334</ele><time>2026-04-19T14:20:28Z</time></trkpt><trkpt lat="41.08242868549535" lon="1.1160512954961173"><ele>9.666666666666668</ele><time>2026-04-19T14:20:29Z</time></trkpt><trkpt lat="41.082370911986104" lon="1.1158464478819747"><ele>10.0</ele><time>2026-04-19T14:20:30Z</time></trkpt><trkpt lat="41.08231920478053" lon="1.1156497208820815"><ele>10.25</ele><time>2026-04-19T14:20:31Z</time></trkpt><trkpt lat="41.08227114119362" lon="1.1154675530657667"><ele>10.5</ele><time>2026-04-19T14:20:32Z</time></trkpt><trkpt lat="41.08222423079336" lon="1.115299414955187"><ele>10.75</ele><time>2026-04-19T14:20:33Z</time></trkpt><trkpt lat="41.08218350411562" lon="1.115136753458974"><ele>11.0</ele><time>2026-04-19T14:20:34Z</time></trkpt><trkpt lat="41.08214792610183" lon="1.1149861662416"><ele>11.4</ele><time>2026-04-19T14:20:35Z</time></trkpt><trkpt lat="41.08210960158124" lon="1.114839940292579"><ele>11.8</ele><time>2026-04-19T14:20:36Z</time></trkpt><trkpt lat="41.082072839179965" lon="1.1146978361624993"><ele>12.200000000000001</ele><time>2026-04-19T14:20:37Z</time></trkpt><trkpt lat="41.082051419773784" lon="1.1145652724056352"><ele>12.600000000000001</ele><time>2026-04-19T14:20:38Z</time></trkpt><trkpt lat="41.08204987515315" lon="1.1144304623123262"><ele>13.0</ele><time>2026-04-19T14:20:39Z</time></trkpt><trkpt lat="41.08203245848295" lon="1.1142932900114295"><ele>13.0</ele><time>2026-04-19T14:20:40Z</time></trkpt><trkpt lat="41.081959717727734" lon="1.1141828365022057"><ele>13.0</ele><time>2026-04-19T14:20:41Z</time></trkpt><trkpt lat="41.08190831328748" lon="1.1140424869678258"><ele>13.0</ele><time>2026-04-19T14:20:42Z</time></trkpt><trkpt lat="41.081851265697004" lon="1.1138795263201697"><ele>13.0</ele><time>2026-04-19T14:20:43Z</time></trkpt><trkpt lat="41.08181517913535" lon="1.1136895459704335"><ele>13.333333333333332</ele><time>2026-04-19T14:20:44Z</time></trkpt><trkpt lat="41.08177283649621" lon="1.1134846969676342"><ele>13.666666666666668</ele><time>2026-04-19T14:20:45Z</time></trkpt><trkpt lat="41.081724152647894" lon="1.1132374616438871"><ele>14.0</ele><time>2026-04-19T14:20:45.999Z</time></trkpt><trkpt lat="41.08167443772767" lon="1.11298760032355"><ele>14.0</ele><time>2026-04-19T14:20:46.999Z</time></trkpt><trkpt lat="41.081626847768256" lon="1.1127435248790905"><ele>14.0</ele><time>2026-04-19T14:20:47.999Z</time></trkpt><trkpt lat="41.081584461674474" lon="1.1124920395691824"><ele>14.0</ele><time>2026-04-19T14:20:48.999Z</time></trkpt><trkpt lat="41.08154795971307" lon="1.1122391884161702"><ele>14.0</ele><time>2026-04-19T14:20:49.999Z</time></trkpt><trkpt lat="41.081510520165956" lon="1.1119932372771875"><ele>14.0</ele><time>2026-04-19T14:20:50.999Z</time></trkpt><trkpt lat="41.08147696568118" lon="1.1117499993885167"><ele>14.0</ele><time>2026-04-19T14:20:51.999Z</time></trkpt><trkpt lat="41.08144253188324" lon="1.1114965052617285"><ele>14.0</ele><time>2026-04-19T14:20:52.999Z</time></trkpt><trkpt lat="41.08141197215072" lon="1.111256590946881"><ele>14.0</ele><time>2026-04-19T14:20:53.999Z</time></trkpt><trkpt lat="41.08138009542741" lon="1.1110190323798463"><ele>14.0</ele><time>2026-04-19T14:20:54.999Z</time></trkpt><trkpt lat="41.081346754949294" lon="1.1107916277723182"><ele>14.333333333333334</ele><time>2026-04-19T14:20:55.999Z</time></trkpt><trkpt lat="41.08131186896372" lon="1.1105680294470501"><ele>14.666666666666668</ele><time>2026-04-19T14:20:56.999Z</time></trkpt><trkpt lat="41.08128750309329" lon="1.1103565660823973"><ele>15.0</ele><time>2026-04-19T14:20:57.999Z</time></trkpt><trkpt lat="41.08126268026907" lon="1.1101676401546972"><ele>15.0</ele><time>2026-04-19T14:20:58.999Z</time></trkpt><trkpt lat="41.08123679936121" lon="1.1099771729219592"><ele>15.0</ele><time>2026-04-19T14:20:59.999Z</time></trkpt><trkpt lat="41.08120565966016" lon="1.109774062455316"><ele>15.0</ele><time>2026-04-19T14:21:00.999Z</time></trkpt><trkpt lat="41.081173841744146" lon="1.1095615078151173"><ele>15.0</ele><time>2026-04-19T14:21:01.999Z</time></trkpt><trkpt lat="41.08114672718608" lon="1.1093521158518156"><ele>15.0</ele><time>2026-04-19T14:21:02.999Z</time></trkpt><trkpt lat="41.08111341365289" lon="1.1091392435094944"><ele>15.0</ele><time>2026-04-19T14:21:03.999Z</time></trkpt><trkpt lat="41.08109010189687" lon="1.1089274103109166"><ele>15.666666666666668</ele><time>2026-04-19T14:21:04.999Z</time></trkpt><trkpt lat="41.08106086287509" lon="1.1087139043680838"><ele>16.333333333333336</ele><time>2026-04-19T14:21:05.999Z</time></trkpt><trkpt lat="41.0810312453748" lon="1.1085102758430927"><ele>17.0</ele><time>2026-04-19T14:21:06.999Z</time></trkpt><trkpt lat="41.081004317915394" lon="1.108311724873922"><ele>17.0</ele><time>2026-04-19T14:21:07.999Z</time></trkpt><trkpt lat="41.08097628746679" lon="1.1081195728469857"><ele>17.0</ele><time>2026-04-19T14:21:08.999Z</time></trkpt><trkpt lat="41.080949540093904" lon="1.1079284946921693"><ele>17.0</ele><time>2026-04-19T14:21:09.999Z</time></trkpt><trkpt lat="41.080923387522226" lon="1.1077434158097506"><ele>17.0</ele><time>2026-04-19T14:21:10.999Z</time></trkpt><trkpt lat="41.08089851039352" lon="1.1075619154070728"><ele>17.0</ele><time>2026-04-19T14:21:11.999Z</time></trkpt><trkpt lat="41.08087417129549" lon="1.1073879903780544"><ele>17.0</ele><time>2026-04-19T14:21:12.999Z</time></trkpt><trkpt lat="41.080851935486955" lon="1.1072362584471047"><ele>17.0</ele><time>2026-04-19T14:21:13.999Z</time></trkpt><trkpt lat="41.08084311633564" lon="1.1071039060583785"><ele>17.0</ele><time>2026-04-19T14:21:14.999Z</time></trkpt><trkpt lat="41.0808510637132" lon="1.1069822916586218"><ele>17.0</ele><time>2026-04-19T14:21:15.999Z</time></trkpt><trkpt lat="41.08086337523571" lon="1.106868152115468"><ele>17.0</ele><time>2026-04-19T14:21:16.999Z</time></trkpt><trkpt lat="41.080845733471136" lon="1.1067570199218209"><ele>17.0</ele><time>2026-04-19T14:21:17.999Z</time></trkpt><trkpt lat="41.080786137508426" lon="1.1066451276010933"><ele>17.0</ele><time>2026-04-19T14:21:18.999Z</time></trkpt><trkpt lat="41.08070355960525" lon="1.1065375265713515"><ele>17.0</ele><time>2026-04-19T14:21:19.999Z</time></trkpt><trkpt lat="41.08063700191217" lon="1.1064029600144878"><ele>17.0</ele><time>2026-04-19T14:21:20.999Z</time></trkpt><trkpt lat="41.08058975280529" lon="1.1062351704110427"><ele>17.0</ele><time>2026-04-19T14:21:21.999Z</time></trkpt><trkpt lat="41.080522680201106" lon="1.1060482516229226"><ele>17.0</ele><time>2026-04-19T14:21:22.999Z</time></trkpt><trkpt lat="41.080433200997604" lon="1.1058558940163692"><ele>17.0</ele><time>2026-04-19T14:21:23.999Z</time></trkpt><trkpt lat="41.08033387940042" lon="1.1056617164494333"><ele>17.5</ele><time>2026-04-19T14:21:24.999Z</time></trkpt><trkpt lat="41.080237937661614" lon="1.1054950176739384"><ele>18.0</ele><time>2026-04-19T14:21:25.999Z</time></trkpt><trkpt lat="41.0801527188682" lon="1.10535436317572"><ele>18.5</ele><time>2026-04-19T14:21:26.999Z</time></trkpt><trkpt lat="41.08007332956109" lon="1.1052204909378285"><ele>19.0</ele><time>2026-04-19T14:21:27.999Z</time></trkpt><trkpt lat="41.0800046330776" lon="1.1051044808287815"><ele>19.0</ele><time>2026-04-19T14:21:28.999Z</time></trkpt><trkpt lat="41.07993818063445" lon="1.104997045462142"><ele>19.0</ele><time>2026-04-19T14:21:29.999Z</time></trkpt><trkpt lat="41.07987881516804" lon="1.1048919512647595"><ele>19.0</ele><time>2026-04-19T14:21:30.999Z</time></trkpt><trkpt lat="41.07981531443228" lon="1.1047915106743844"><ele>19.0</ele><time>2026-04-19T14:21:31.999Z</time></trkpt><trkpt lat="41.0797470630932" lon="1.1046819793760885"><ele>19.0</ele><time>2026-04-19T14:21:32.999Z</time></trkpt><trkpt lat="41.0796780684733" lon="1.1045637969194304"><ele>19.5</ele><time>2026-04-19T14:21:33.999Z</time></trkpt><trkpt lat="41.07961208848677" lon="1.104453558528813"><ele>20.0</ele><time>2026-04-19T14:21:34.999Z</time></trkpt><trkpt lat="41.07955133402399" lon="1.1043481072094796"><ele>20.5</ele><time>2026-04-19T14:21:35.999Z</time></trkpt><trkpt lat="41.07949652502024" lon="1.1042552796863303"><ele>21.0</ele><time>2026-04-19T14:21:36.999Z</time></trkpt><trkpt lat="41.07944584539911" lon="1.1041701276009572"><ele>21.5</ele><time>2026-04-19T14:21:37.999Z</time></trkpt><trkpt lat="41.07940040618038" lon="1.104099382146663"><ele>22.0</ele><time>2026-04-19T14:21:38.999Z</time></trkpt><trkpt lat="41.079341567241144" lon="1.1040103141015525"><ele>22.200000000000003</ele><time>2026-04-19T14:21:40.999Z</time></trkpt><trkpt lat="41.07930343209187" lon="1.1039149124573289"><ele>22.4</ele><time>2026-04-19T14:21:42.999Z</time></trkpt><trkpt lat="41.07926496734191" lon="1.1038364878349063"><ele>22.6</ele><time>2026-04-19T14:21:44.999Z</time></trkpt><trkpt lat="41.0792594653606" lon="1.103711988169605"><ele>22.799999999999997</ele><time>2026-04-19T14:21:46.999Z</time></trkpt><trkpt lat="41.07920471783566" lon="1.1036032056193605"><ele>23.0</ele><time>2026-04-19T14:21:48.999Z</time></trkpt><trkpt lat="41.07911400648031" lon="1.1035208648954002"><ele>23.0</ele><time>2026-04-19T14:21:50.999Z</time></trkpt><trkpt lat="41.079035713111274" lon="1.1034729770754426"><ele>23.0</ele><time>2026-04-19T14:21:51.999Z</time></trkpt><trkpt lat="41.078966035945676" lon="1.1033919351457315"><ele>23.0</ele><time>2026-04-19T14:21:52.999Z</time></trkpt><trkpt lat="41.07890410439117" lon="1.1032979027690748"><ele>23.0</ele><time>2026-04-19T14:21:53.999Z</time></trkpt><trkpt lat="41.07884060402498" lon="1.1031833062200476"><ele>23.0</ele><time>2026-04-19T14:21:54.999Z</time></trkpt><trkpt lat="41.07877193057347" lon="1.103049630922455"><ele>23.0</ele><time>2026-04-19T14:21:55.999Z</time></trkpt><trkpt lat="41.078696166251795" lon="1.102920222802001"><ele>23.0</ele><time>2026-04-19T14:21:56.999Z</time></trkpt><trkpt lat="41.07861399685972" lon="1.1027834031064558"><ele>23.0</ele><time>2026-04-19T14:21:57.999Z</time></trkpt><trkpt lat="41.07853570459189" lon="1.1026365814643226"><ele>23.0</ele><time>2026-04-19T14:21:59Z</time></trkpt><trkpt lat="41.07845892057653" lon="1.1024904053561788"><ele>23.0</ele><time>2026-04-19T14:22:00Z</time></trkpt><trkpt lat="41.078388244018996" lon="1.1023589393639819"><ele>23.0</ele><time>2026-04-19T14:22:01Z</time></trkpt><trkpt lat="41.07831847590554" lon="1.1022209900888256"><ele>23.0</ele><time>2026-04-19T14:22:02Z</time></trkpt><trkpt lat="41.078241974576564" lon="1.1020988547141133"><ele>23.0</ele><time>2026-04-19T14:22:03Z</time></trkpt><trkpt lat="41.07817212914755" lon="1.1019893966486316"><ele>22.25</ele><time>2026-04-19T14:22:04Z</time></trkpt><trkpt lat="41.07809769767794" lon="1.1018676820839883"><ele>21.5</ele><time>2026-04-19T14:22:05Z</time></trkpt><trkpt lat="41.07801759627498" lon="1.1017328353768845"><ele>20.75</ele><time>2026-04-19T14:22:06Z</time></trkpt><trkpt lat="41.07793205735035" lon="1.1015808714990412"><ele>20.0</ele><time>2026-04-19T14:22:07Z</time></trkpt><trkpt lat="41.07784264756387" lon="1.1014135581943998"><ele>19.75</ele><time>2026-04-19T14:22:08Z</time></trkpt><trkpt lat="41.07775555545589" lon="1.1012581681036353"><ele>19.5</ele><time>2026-04-19T14:22:09Z</time></trkpt><trkpt lat="41.07767064564543" lon="1.101106750761732"><ele>19.25</ele><time>2026-04-19T14:22:10Z</time></trkpt><trkpt lat="41.077585119548964" lon="1.100941064812119"><ele>19.0</ele><time>2026-04-19T14:22:11Z</time></trkpt><trkpt lat="41.077495246413854" lon="1.100793248192603"><ele>18.0</ele><time>2026-04-19T14:22:12Z</time></trkpt><trkpt lat="41.077408929562594" lon="1.1006337185427952"><ele>17.0</ele><time>2026-04-19T14:22:13Z</time></trkpt><trkpt lat="41.07732690713989" lon="1.1004646325367875"><ele>16.0</ele><time>2026-04-19T14:22:14Z</time></trkpt><trkpt lat="41.077253002510716" lon="1.1002872175975489"><ele>16.0</ele><time>2026-04-19T14:22:15Z</time></trkpt><trkpt lat="41.07718811063263" lon="1.1000966956979825"><ele>16.0</ele><time>2026-04-19T14:22:16Z</time></trkpt><trkpt lat="41.077134739465826" lon="1.09990415093139"><ele>16.0</ele><time>2026-04-19T14:22:17Z</time></trkpt><trkpt lat="41.07709254312789" lon="1.0997066147429568"><ele>16.5</ele><time>2026-04-19T14:22:18Z</time></trkpt><trkpt lat="41.07706342121831" lon="1.0995172598044176"><ele>17.0</ele><time>2026-04-19T14:22:19Z</time></trkpt><trkpt lat="41.07704309335404" lon="1.0993237065606865"><ele>17.5</ele><time>2026-04-19T14:22:20Z</time></trkpt><trkpt lat="41.07702291027649" lon="1.0991224613716535"><ele>18.0</ele><time>2026-04-19T14:22:21Z</time></trkpt><trkpt lat="41.07700367434504" lon="1.0989247225915493"><ele>18.333333333333332</ele><time>2026-04-19T14:22:22Z</time></trkpt><trkpt lat="41.07698787273085" lon="1.0987279878929537"><ele>18.666666666666664</ele><time>2026-04-19T14:22:23Z</time></trkpt><trkpt lat="41.07697285859284" lon="1.0985220737093446"><ele>19.0</ele><time>2026-04-19T14:22:24Z</time></trkpt><trkpt lat="41.07696182907304" lon="1.0983081958954548"><ele>19.666666666666664</ele><time>2026-04-19T14:22:25Z</time></trkpt><trkpt lat="41.076942362153666" lon="1.0980878860626793"><ele>20.333333333333332</ele><time>2026-04-19T14:22:26Z</time></trkpt><trkpt lat="41.07692137025868" lon="1.0978704748216617"><ele>21.0</ele><time>2026-04-19T14:22:27Z</time></trkpt><trkpt lat="41.076904160509216" lon="1.0976634950041"><ele>21.0</ele><time>2026-04-19T14:22:28Z</time></trkpt><trkpt lat="41.076888875306985" lon="1.0974681081590543"><ele>21.0</ele><time>2026-04-19T14:22:29Z</time></trkpt><trkpt lat="41.07687241718392" lon="1.0972821938345312"><ele>21.0</ele><time>2026-04-19T14:22:30Z</time></trkpt><trkpt lat="41.07685666402634" lon="1.0971033857258279"><ele>21.0</ele><time>2026-04-19T14:22:31Z</time></trkpt><trkpt lat="41.07684804207478" lon="1.096940554176712"><ele>21.0</ele><time>2026-04-19T14:22:32Z</time></trkpt><trkpt lat="41.07683305851203" lon="1.0968006454953731"><ele>21.0</ele><time>2026-04-19T14:22:33Z</time></trkpt><trkpt lat="41.07681871435887" lon="1.0966831416600258"><ele>21.0</ele><time>2026-04-19T14:22:34Z</time></trkpt><trkpt lat="41.07681210029102" lon="1.0965888451404173"><ele>21.0</ele><time>2026-04-19T14:22:35Z</time></trkpt><trkpt lat="41.07681704824416" lon="1.0964801398891912"><ele>21.0</ele><time>2026-04-19T14:22:37Z</time></trkpt><trkpt lat="41.07683645099202" lon="1.096335678490371"><ele>21.0</ele><time>2026-04-19T14:22:39Z</time></trkpt><trkpt lat="41.07682934746987" lon="1.096237537297914"><ele>21.0</ele><time>2026-04-19T14:22:40Z</time></trkpt><trkpt lat="41.07678843603015" lon="1.0961231323016027"><ele>21.0</ele><time>2026-04-19T14:22:41Z</time></trkpt><trkpt lat="41.07675164153525" lon="1.0960033379321337"><ele>21.0</ele><time>2026-04-19T14:22:42Z</time></trkpt><trkpt lat="41.0767058782989" lon="1.0958279573917893"><ele>21.0</ele><time>2026-04-19T14:22:43Z</time></trkpt><trkpt lat="41.076685786395586" lon="1.095633417369339"><ele>19.666666666666668</ele><time>2026-04-19T14:22:44Z</time></trkpt><trkpt lat="41.076668894177764" lon="1.0954315812707554"><ele>18.333333333333336</ele><time>2026-04-19T14:22:45Z</time></trkpt><trkpt lat="41.076633819589816" lon="1.095229732591545"><ele>17.0</ele><time>2026-04-19T14:22:46Z</time></trkpt><trkpt lat="41.07659871218348" lon="1.0950183206058648"><ele>16.0</ele><time>2026-04-19T14:22:47Z</time></trkpt><trkpt lat="41.07655533928013" lon="1.0948097346680605"><ele>15.0</ele><time>2026-04-19T14:22:48Z</time></trkpt><trkpt lat="41.07650773768089" lon="1.0946026920421397"><ele>14.0</ele><time>2026-04-19T14:22:48.999Z</time></trkpt><trkpt lat="41.07646799739839" lon="1.0944099068964661"><ele>14.0</ele><time>2026-04-19T14:22:49.999Z</time></trkpt><trkpt lat="41.0764227417832" lon="1.0942224470961357"><ele>14.0</ele><time>2026-04-19T14:22:50.999Z</time></trkpt><trkpt lat="41.076379803040254" lon="1.094033712364244"><ele>14.0</ele><time>2026-04-19T14:22:51.999Z</time></trkpt><trkpt lat="41.07632850794555" lon="1.0938501398411005"><ele>14.0</ele><time>2026-04-19T14:22:52.999Z</time></trkpt><trkpt lat="41.076276022330596" lon="1.0936581480395031"><ele>14.333333333333334</ele><time>2026-04-19T14:22:53.999Z</time></trkpt><trkpt lat="41.07621898556396" lon="1.0934675083067555"><ele>14.666666666666668</ele><time>2026-04-19T14:22:54.999Z</time></trkpt><trkpt lat="41.07615892372126" lon="1.0932635576203913"><ele>15.0</ele><time>2026-04-19T14:22:55.999Z</time></trkpt><trkpt lat="41.076096457498814" lon="1.0930570231838614"><ele>15.0</ele><time>2026-04-19T14:22:56.999Z</time></trkpt><trkpt lat="41.07603778090736" lon="1.0928572391798104"><ele>15.0</ele><time>2026-04-19T14:22:57.999Z</time></trkpt><trkpt lat="41.07598158830347" lon="1.0926671603213094"><ele>15.0</ele><time>2026-04-19T14:22:58.999Z</time></trkpt><trkpt lat="41.075928758556515" lon="1.0924806131529838"><ele>15.0</ele><time>2026-04-19T14:22:59.999Z</time></trkpt><trkpt lat="41.075870407790994" lon="1.0923054079764232"><ele>15.0</ele><time>2026-04-19T14:23:00.999Z</time></trkpt><trkpt lat="41.07581955531036" lon="1.0921282070492822"><ele>15.0</ele><time>2026-04-19T14:23:01.999Z</time></trkpt><trkpt lat="41.07576986711967" lon="1.0919571633961633"><ele>15.0</ele><time>2026-04-19T14:23:02.999Z</time></trkpt><trkpt lat="41.07572072690586" lon="1.0917844323367114"><ele>14.75</ele><time>2026-04-19T14:23:03.999Z</time></trkpt><trkpt lat="41.07566928412506" lon="1.0916169339494746"><ele>14.5</ele><time>2026-04-19T14:23:04.999Z</time></trkpt><trkpt lat="41.07561395727964" lon="1.091448305441194"><ele>14.25</ele><time>2026-04-19T14:23:05.999Z</time></trkpt><trkpt lat="41.075560781606384" lon="1.0912686485764667"><ele>14.0</ele><time>2026-04-19T14:23:06.999Z</time></trkpt><trkpt lat="41.07551029989703" lon="1.0910853225172157"><ele>14.333333333333334</ele><time>2026-04-19T14:23:07.999Z</time></trkpt><trkpt lat="41.07545492676544" lon="1.0909025010558433"><ele>14.666666666666668</ele><time>2026-04-19T14:23:08.999Z</time></trkpt><trkpt lat="41.075396819140984" lon="1.0907195974609978"><ele>15.0</ele><time>2026-04-19T14:23:09.999Z</time></trkpt><trkpt lat="41.075341063383384" lon="1.0905317290911543"><ele>15.0</ele><time>2026-04-19T14:23:10.999Z</time></trkpt><trkpt lat="41.075287404949236" lon="1.0903477336750154"><ele>15.0</ele><time>2026-04-19T14:23:11.999Z</time></trkpt><trkpt lat="41.075237809099036" lon="1.0901752479111493"><ele>15.0</ele><time>2026-04-19T14:23:12.999Z</time></trkpt><trkpt lat="41.075188130511165" lon="1.0900255954005307"><ele>15.0</ele><time>2026-04-19T14:23:13.999Z</time></trkpt><trkpt lat="41.07514405337653" lon="1.0898855665018776"><ele>14.6</ele><time>2026-04-19T14:23:14.999Z</time></trkpt><trkpt lat="41.075114755100486" lon="1.0897494398987237"><ele>14.2</ele><time>2026-04-19T14:23:15.999Z</time></trkpt><trkpt lat="41.075097387646615" lon="1.0896064186145584"><ele>13.8</ele><time>2026-04-19T14:23:16.999Z</time></trkpt><trkpt lat="41.0750792152787" lon="1.0894591969587082"><ele>13.4</ele><time>2026-04-19T14:23:17.999Z</time></trkpt><trkpt lat="41.0750504623496" lon="1.0893219629864286"><ele>13.0</ele><time>2026-04-19T14:23:18.999Z</time></trkpt><trkpt lat="41.075002805727024" lon="1.089192779328022"><ele>12.75</ele><time>2026-04-19T14:23:19.999Z</time></trkpt><trkpt lat="41.07493961086034" lon="1.089060569163255"><ele>12.5</ele><time>2026-04-19T14:23:20.999Z</time></trkpt><trkpt lat="41.07489871586668" lon="1.0889158923717313"><ele>12.25</ele><time>2026-04-19T14:23:21.999Z</time></trkpt><trkpt lat="41.074811440212315" lon="1.0887457297140806"><ele>12.0</ele><time>2026-04-19T14:23:22.999Z</time></trkpt><trkpt lat="41.07475666269351" lon="1.0885359349410986"><ele>12.0</ele><time>2026-04-19T14:23:23.999Z</time></trkpt><trkpt lat="41.07469413259086" lon="1.08832706420093"><ele>12.0</ele><time>2026-04-19T14:23:24.999Z</time></trkpt><trkpt lat="41.074630072500234" lon="1.0881291305857648"><ele>12.0</ele><time>2026-04-19T14:23:25.999Z</time></trkpt><trkpt lat="41.07456418789227" lon="1.0879357940209906"><ele>12.666666666666668</ele><time>2026-04-19T14:23:26.999Z</time></trkpt><trkpt lat="41.07450429060254" lon="1.0877274801884524"><ele>13.333333333333334</ele><time>2026-04-19T14:23:27.999Z</time></trkpt><trkpt lat="41.07444121394181" lon="1.0875180348396387"><ele>14.0</ele><time>2026-04-19T14:23:28.999Z</time></trkpt><trkpt lat="41.074375873499676" lon="1.0873000102590655"><ele>15.0</ele><time>2026-04-19T14:23:29.999Z</time></trkpt><trkpt lat="41.074305554582956" lon="1.0870785100000524"><ele>16.0</ele><time>2026-04-19T14:23:30.999Z</time></trkpt><trkpt lat="41.07424437841555" lon="1.0868629466921764"><ele>17.0</ele><time>2026-04-19T14:23:31.999Z</time></trkpt><trkpt lat="41.074185801744946" lon="1.0866768057636396"><ele>16.75</ele><time>2026-04-19T14:23:32.999Z</time></trkpt><trkpt lat="41.074133966356676" lon="1.0865117734810155"><ele>16.5</ele><time>2026-04-19T14:23:33.999Z</time></trkpt><trkpt lat="41.07408501856271" lon="1.0863564030526207"><ele>16.25</ele><time>2026-04-19T14:23:34.999Z</time></trkpt><trkpt lat="41.07403917789588" lon="1.086210597866358"><ele>16.0</ele><time>2026-04-19T14:23:35.999Z</time></trkpt><trkpt lat="41.07399784058312" lon="1.0860774683854337"><ele>15.666666666666666</ele><time>2026-04-19T14:23:36.999Z</time></trkpt><trkpt lat="41.07396221007761" lon="1.0859606850256385"><ele>15.333333333333332</ele><time>2026-04-19T14:23:37.999Z</time></trkpt><trkpt lat="41.07392787840118" lon="1.085854378630747"><ele>15.0</ele><time>2026-04-19T14:23:38.999Z</time></trkpt><trkpt lat="41.073900377976116" lon="1.085757073441882"><ele>14.666666666666668</ele><time>2026-04-19T14:23:39.999Z</time></trkpt><trkpt lat="41.07387247843149" lon="1.0856720438781002"><ele>14.333333333333334</ele><time>2026-04-19T14:23:40.999Z</time></trkpt><trkpt lat="41.07384676465457" lon="1.0855814890215867"><ele>14.0</ele><time>2026-04-19T14:23:41.999Z</time></trkpt><trkpt lat="41.07382826643204" lon="1.0854707671606272"><ele>14.0</ele><time>2026-04-19T14:23:42.999Z</time></trkpt><trkpt lat="41.0738198371384" lon="1.0853419272646174"><ele>13.999999999999998</ele><time>2026-04-19T14:23:43.999Z</time></trkpt><trkpt lat="41.07379943034762" lon="1.0852172955794042"><ele>13.999999999999998</ele><time>2026-04-19T14:23:44.999Z</time></trkpt><trkpt lat="41.073749451326236" lon="1.0851019969156332"><ele>14.0</ele><time>2026-04-19T14:23:45.999Z</time></trkpt><trkpt lat="41.07369574623009" lon="1.0850113663937906"><ele>14.0</ele><time>2026-04-19T14:23:46.999Z</time></trkpt><trkpt lat="41.07365055014238" lon="1.0849180678189552"><ele>13.6</ele><time>2026-04-19T14:23:47.999Z</time></trkpt><trkpt lat="41.07362297807779" lon="1.0848098001967548"><ele>13.2</ele><time>2026-04-19T14:23:48.999Z</time></trkpt><trkpt lat="41.073600140072266" lon="1.084687740636489"><ele>12.799999999999999</ele><time>2026-04-19T14:23:49.999Z</time></trkpt><trkpt lat="41.073572946755874" lon="1.0845622654973908"><ele>12.399999999999999</ele><time>2026-04-19T14:23:50.999Z</time></trkpt><trkpt lat="41.073535911447244" lon="1.0843984256772217"><ele>12.0</ele><time>2026-04-19T14:23:51.999Z</time></trkpt><trkpt lat="41.0734970045123" lon="1.0842003860154144"><ele>12.333333333333332</ele><time>2026-04-19T14:23:52.999Z</time></trkpt><trkpt lat="41.073456872940426" lon="1.0839679816606556"><ele>12.666666666666666</ele><time>2026-04-19T14:23:53.999Z</time></trkpt><trkpt lat="41.07341953035418" lon="1.08372940025522"><ele>13.0</ele><time>2026-04-19T14:23:54.999Z</time></trkpt><trkpt lat="41.07338095010688" lon="1.0835085250089003"><ele>13.0</ele><time>2026-04-19T14:23:55.999Z</time></trkpt><trkpt lat="41.07333643725326" lon="1.0832987156363159"><ele>13.0</ele><time>2026-04-19T14:23:56.999Z</time></trkpt><trkpt lat="41.07329349379216" lon="1.0830843198770932"><ele>13.0</ele><time>2026-04-19T14:23:57.999Z</time></trkpt><trkpt lat="41.073253929393" lon="1.0828646085734297"><ele>12.0</ele><time>2026-04-19T14:23:58.999Z</time></trkpt><trkpt lat="41.07321764831142" lon="1.0826390563103383"><ele>11.0</ele><time>2026-04-19T14:23:59.999Z</time></trkpt><trkpt lat="41.07318483020119" lon="1.0824024928606504"><ele>10.0</ele><time>2026-04-19T14:24:00.999Z</time></trkpt><trkpt lat="41.07314857239388" lon="1.0821527077917008"><ele>10.0</ele><time>2026-04-19T14:24:01.999Z</time></trkpt><trkpt lat="41.07311680842596" lon="1.0818861643881512"><ele>10.0</ele><time>2026-04-19T14:24:02.999Z</time></trkpt><trkpt lat="41.073095345253456" lon="1.0816134379775977"><ele>10.0</ele><time>2026-04-19T14:24:03.999Z</time></trkpt><trkpt lat="41.07309182980181" lon="1.0813295473855107"><ele>10.0</ele><time>2026-04-19T14:24:05Z</time></trkpt><trkpt lat="41.073101926524615" lon="1.0810460169666016"><ele>10.0</ele><time>2026-04-19T14:24:06Z</time></trkpt><trkpt lat="41.07311965968153" lon="1.080773455674574"><ele>10.0</ele><time>2026-04-19T14:24:07Z</time></trkpt><trkpt lat="41.07315033800695" lon="1.080506668083939"><ele>10.0</ele><time>2026-04-19T14:24:08Z</time></trkpt><trkpt lat="41.07318597499044" lon="1.0802431421029373"><ele>10.0</ele><time>2026-04-19T14:24:09Z</time></trkpt><trkpt lat="41.07321864188277" lon="1.079996125236361"><ele>10.0</ele><time>2026-04-19T14:24:10Z</time></trkpt><trkpt lat="41.07325153365699" lon="1.0797531980192008"><ele>11.0</ele><time>2026-04-19T14:24:11Z</time></trkpt><trkpt lat="41.07328812043596" lon="1.079512004852614"><ele>12.0</ele><time>2026-04-19T14:24:12Z</time></trkpt><trkpt lat="41.07332419411014" lon="1.0792606924643018"><ele>13.0</ele><time>2026-04-19T14:24:13Z</time></trkpt><trkpt lat="41.073335025735474" lon="1.0790047224912986"><ele>13.333333333333332</ele><time>2026-04-19T14:24:14Z</time></trkpt><trkpt lat="41.07334920456113" lon="1.0787357025344306"><ele>13.666666666666668</ele><time>2026-04-19T14:24:15Z</time></trkpt><trkpt lat="41.07333968608982" lon="1.0784636403438976"><ele>14.0</ele><time>2026-04-19T14:24:16Z</time></trkpt><trkpt lat="41.07330531523262" lon="1.0782026698646998"><ele>12.666666666666668</ele><time>2026-04-19T14:24:17Z</time></trkpt><trkpt lat="41.07324527609332" lon="1.0779490812975567"><ele>11.333333333333334</ele><time>2026-04-19T14:24:18Z</time></trkpt><trkpt lat="41.07317122221869" lon="1.077709705856583"><ele>10.0</ele><time>2026-04-19T14:24:19Z</time></trkpt><trkpt lat="41.07309076667136" lon="1.0775052783020194"><ele>10.666666666666668</ele><time>2026-04-19T14:24:20Z</time></trkpt><trkpt lat="41.07301008838744" lon="1.0773046915094238"><ele>11.333333333333334</ele><time>2026-04-19T14:24:21Z</time></trkpt><trkpt lat="41.07293042616181" lon="1.0771026782467465"><ele>12.0</ele><time>2026-04-19T14:24:22Z</time></trkpt><trkpt lat="41.07285560420826" lon="1.0769090943585662"><ele>12.0</ele><time>2026-04-19T14:24:23Z</time></trkpt><trkpt lat="41.0727856588979" lon="1.0767306746862058"><ele>12.0</ele><time>2026-04-19T14:24:24Z</time></trkpt><trkpt lat="41.07271491050748" lon="1.076546981882486"><ele>12.0</ele><time>2026-04-19T14:24:25Z</time></trkpt><trkpt lat="41.07264930029912" lon="1.0763831851844698"><ele>12.0</ele><time>2026-04-19T14:24:26Z</time></trkpt><trkpt lat="41.0725909707268" lon="1.07622824044908"><ele>12.0</ele><time>2026-04-19T14:24:27Z</time></trkpt><trkpt lat="41.072538101305845" lon="1.0760919438470837"><ele>12.0</ele><time>2026-04-19T14:24:28Z</time></trkpt><trkpt lat="41.072491487099114" lon="1.0759794180639997"><ele>12.0</ele><time>2026-04-19T14:24:29Z</time></trkpt><trkpt lat="41.07245156723448" lon="1.0758666025446912"><ele>12.0</ele><time>2026-04-19T14:24:30Z</time></trkpt><trkpt lat="41.072421044159825" lon="1.075753871925617"><ele>12.0</ele><time>2026-04-19T14:24:31Z</time></trkpt><trkpt lat="41.072403545758725" lon="1.0756288428916732"><ele>12.2</ele><time>2026-04-19T14:24:32Z</time></trkpt><trkpt lat="41.072384248691144" lon="1.0754959471040888"><ele>12.399999999999999</ele><time>2026-04-19T14:24:33Z</time></trkpt><trkpt lat="41.072342262576875" lon="1.0753875647863502"><ele>12.600000000000001</ele><time>2026-04-19T14:24:34Z</time></trkpt><trkpt lat="41.072266390981014" lon="1.0752889805270793"><ele>12.8</ele><time>2026-04-19T14:24:35Z</time></trkpt><trkpt lat="41.072178074573095" lon="1.0751569237415495"><ele>13.0</ele><time>2026-04-19T14:24:36Z</time></trkpt><trkpt lat="41.07210327187265" lon="1.0749993699349918"><ele>13.0</ele><time>2026-04-19T14:24:37Z</time></trkpt><trkpt lat="41.07204398096465" lon="1.0748362797401365"><ele>13.0</ele><time>2026-04-19T14:24:38Z</time></trkpt><trkpt lat="41.07197880536276" lon="1.0746681692001674"><ele>13.0</ele><time>2026-04-19T14:24:39Z</time></trkpt><trkpt lat="41.07191046709938" lon="1.0745022427706512"><ele>13.0</ele><time>2026-04-19T14:24:40Z</time></trkpt><trkpt lat="41.07184367164605" lon="1.0743387753648523"><ele>13.0</ele><time>2026-04-19T14:24:41Z</time></trkpt><trkpt lat="41.07178119903638" lon="1.0741852107261283"><ele>13.0</ele><time>2026-04-19T14:24:42Z</time></trkpt><trkpt lat="41.07172310403562" lon="1.0740455558393498"><ele>13.0</ele><time>2026-04-19T14:24:43Z</time></trkpt><trkpt lat="41.07167073500399" lon="1.07391335512226"><ele>13.0</ele><time>2026-04-19T14:24:44Z</time></trkpt><trkpt lat="41.07161753251018" lon="1.0737823629848073"><ele>13.0</ele><time>2026-04-19T14:24:45Z</time></trkpt><trkpt lat="41.07156645401175" lon="1.0736453172439868"><ele>13.0</ele><time>2026-04-19T14:24:46Z</time></trkpt><trkpt lat="41.07152075257378" lon="1.073505753806571"><ele>13.0</ele><time>2026-04-19T14:24:47Z</time></trkpt><trkpt lat="41.071473663490885" lon="1.0733686132759104"><ele>13.0</ele><time>2026-04-19T14:24:48Z</time></trkpt><trkpt lat="41.07142566414243" lon="1.0732366169232936"><ele>12.8</ele><time>2026-04-19T14:24:49Z</time></trkpt><trkpt lat="41.07137428092469" lon="1.0731077149586083"><ele>12.600000000000001</ele><time>2026-04-19T14:24:50Z</time></trkpt><trkpt lat="41.07132662614199" lon="1.0729807886373262"><ele>12.399999999999999</ele><time>2026-04-19T14:24:51Z</time></trkpt><trkpt lat="41.07128318155408" lon="1.0728545150400655"><ele>12.2</ele><time>2026-04-19T14:24:52Z</time></trkpt><trkpt lat="41.07124036960637" lon="1.0727262685745187"><ele>12.0</ele><time>2026-04-19T14:24:53Z</time></trkpt><trkpt lat="41.07119441374213" lon="1.07260064557402"><ele>12.0</ele><time>2026-04-19T14:24:54Z</time></trkpt><trkpt lat="41.07114888535167" lon="1.0724772012580839"><ele>12.0</ele><time>2026-04-19T14:24:55Z</time></trkpt><trkpt lat="41.071099440479955" lon="1.0723406816491892"><ele>12.0</ele><time>2026-04-19T14:24:56Z</time></trkpt><trkpt lat="41.071046488877336" lon="1.0722044005806204"><ele>12.0</ele><time>2026-04-19T14:24:57Z</time></trkpt><trkpt lat="41.070993217633344" lon="1.0720645327345573"><ele>12.399999999999999</ele><time>2026-04-19T14:24:57.999Z</time></trkpt><trkpt lat="41.07094801365803" lon="1.0719390601892667"><ele>12.799999999999999</ele><time>2026-04-19T14:24:58.999Z</time></trkpt><trkpt lat="41.07091055757156" lon="1.071831730571641"><ele>13.2</ele><time>2026-04-19T14:24:59.999Z</time></trkpt><trkpt lat="41.07088619814874" lon="1.071754032157049"><ele>13.6</ele><time>2026-04-19T14:25:00.999Z</time></trkpt><trkpt lat="41.070858833411336" lon="1.071627844470532"><ele>14.0</ele><time>2026-04-19T14:25:02.999Z</time></trkpt><trkpt lat="41.07085817168717" lon="1.0715042943410034"><ele>14.0</ele><time>2026-04-19T14:25:04.999Z</time></trkpt><trkpt lat="41.07084746497574" lon="1.0713559253460616"><ele>13.999999999999998</ele><time>2026-04-19T14:25:06.999Z</time></trkpt><trkpt lat="41.07081072316014" lon="1.0712803390900583"><ele>13.999999999999998</ele><time>2026-04-19T14:25:07.999Z</time></trkpt><trkpt lat="41.07074739216795" lon="1.0712057467152998"><ele>14.0</ele><time>2026-04-19T14:25:08.999Z</time></trkpt><trkpt lat="41.070666528763155" lon="1.0711298018344304"><ele>14.0</ele><time>2026-04-19T14:25:09.999Z</time></trkpt><trkpt lat="41.07060146932555" lon="1.0710344746982683"><ele>13.75</ele><time>2026-04-19T14:25:10.999Z</time></trkpt><trkpt lat="41.070559404064056" lon="1.0709072630720793"><ele>13.5</ele><time>2026-04-19T14:25:11.999Z</time></trkpt><trkpt lat="41.07054178608948" lon="1.0707589055740114"><ele>13.25</ele><time>2026-04-19T14:25:12.999Z</time></trkpt><trkpt lat="41.07053697185737" lon="1.070600230111771"><ele>13.0</ele><time>2026-04-19T14:25:13.999Z</time></trkpt><trkpt lat="41.070548026875215" lon="1.0704454040931384"><ele>12.75</ele><time>2026-04-19T14:25:14.999Z</time></trkpt><trkpt lat="41.070567366336824" lon="1.070293962883548"><ele>12.5</ele><time>2026-04-19T14:25:15.999Z</time></trkpt><trkpt lat="41.070587483055654" lon="1.0701409904333838"><ele>12.25</ele><time>2026-04-19T14:25:16.999Z</time></trkpt><trkpt lat="41.07059823334568" lon="1.0699852359736346"><ele>12.0</ele><time>2026-04-19T14:25:17.999Z</time></trkpt><trkpt lat="41.07060564906058" lon="1.069841414464265"><ele>11.8</ele><time>2026-04-19T14:25:18.999Z</time></trkpt><trkpt lat="41.070592114388184" lon="1.0697013021916035"><ele>11.6</ele><time>2026-04-19T14:25:19.999Z</time></trkpt><trkpt lat="41.07054970600212" lon="1.0695648302032403"><ele>11.4</ele><time>2026-04-19T14:25:20.999Z</time></trkpt><trkpt lat="41.07048954553076" lon="1.0694388881498438"><ele>11.200000000000001</ele><time>2026-04-19T14:25:21.999Z</time></trkpt><trkpt lat="41.070410433705995" lon="1.0693384532828083"><ele>11.0</ele><time>2026-04-19T14:25:22.999Z</time></trkpt><trkpt lat="41.0703157167998" lon="1.0692559895395854"><ele>11.0</ele><time>2026-04-19T14:25:23.999Z</time></trkpt><trkpt lat="41.07023611697371" lon="1.06917275568638"><ele>11.0</ele><time>2026-04-19T14:25:24.999Z</time></trkpt><trkpt lat="41.070187374462066" lon="1.069065257604737"><ele>11.0</ele><time>2026-04-19T14:25:25.999Z</time></trkpt><trkpt lat="41.070170815870334" lon="1.068906704627975"><ele>11.0</ele><time>2026-04-19T14:25:26.999Z</time></trkpt><trkpt lat="41.07017715028185" lon="1.0687295108996735"><ele>11.0</ele><time>2026-04-19T14:25:27.999Z</time></trkpt><trkpt lat="41.07017966037983" lon="1.0685659002479158"><ele>11.0</ele><time>2026-04-19T14:25:28.999Z</time></trkpt><trkpt lat="41.07016994234756" lon="1.0684063656810472"><ele>11.0</ele><time>2026-04-19T14:25:29.999Z</time></trkpt><trkpt lat="41.070158923653764" lon="1.0682469997695947"><ele>11.0</ele><time>2026-04-19T14:25:30.999Z</time></trkpt><trkpt lat="41.0701477632502" lon="1.0680718075514195"><ele>11.0</ele><time>2026-04-19T14:25:31.999Z</time></trkpt><trkpt lat="41.07014247457037" lon="1.0678841552953535"><ele>11.0</ele><time>2026-04-19T14:25:32.999Z</time></trkpt><trkpt lat="41.0701310419013" lon="1.0677072532264449"><ele>11.0</ele><time>2026-04-19T14:25:33.999Z</time></trkpt><trkpt lat="41.070119387362176" lon="1.0675322875584443"><ele>11.0</ele><time>2026-04-19T14:25:34.999Z</time></trkpt><trkpt lat="41.070110595222914" lon="1.0673487193567528"><ele>10.75</ele><time>2026-04-19T14:25:35.999Z</time></trkpt><trkpt lat="41.07010042149015" lon="1.0671552491218295"><ele>10.5</ele><time>2026-04-19T14:25:36.999Z</time></trkpt><trkpt lat="41.07008745404415" lon="1.066973155658033"><ele>10.25</ele><time>2026-04-19T14:25:37.999Z</time></trkpt><trkpt lat="41.07007452661703" lon="1.0667846483059935"><ele>10.0</ele><time>2026-04-19T14:25:38.999Z</time></trkpt><trkpt lat="41.070069905604306" lon="1.0665857769255471"><ele>9.333333333333334</ele><time>2026-04-19T14:25:39.999Z</time></trkpt><trkpt lat="41.0700631961061" lon="1.0663811996707893"><ele>8.666666666666666</ele><time>2026-04-19T14:25:40.999Z</time></trkpt><trkpt lat="41.07005510737149" lon="1.0661787430796743"><ele>8.0</ele><time>2026-04-19T14:25:41.999Z</time></trkpt><trkpt lat="41.07004393989745" lon="1.0659801033746439"><ele>8.0</ele><time>2026-04-19T14:25:42.999Z</time></trkpt><trkpt lat="41.07003458053808" lon="1.0657973414939907"><ele>8.0</ele><time>2026-04-19T14:25:43.999Z</time></trkpt><trkpt lat="41.07002391010894" lon="1.0656340242294415"><ele>8.0</ele><time>2026-04-19T14:25:44.999Z</time></trkpt><trkpt lat="41.07002043241054" lon="1.0654814841490623"><ele>8.0</ele><time>2026-04-19T14:25:45.999Z</time></trkpt><trkpt lat="41.07002164429112" lon="1.0653460890081399"><ele>7.833333333333333</ele><time>2026-04-19T14:25:46.999Z</time></trkpt><trkpt lat="41.07002444942354" lon="1.0652332979580867"><ele>7.666666666666666</ele><time>2026-04-19T14:25:47.999Z</time></trkpt><trkpt lat="41.07003170535182" lon="1.0651343916358635"><ele>7.5</ele><time>2026-04-19T14:25:48.999Z</time></trkpt><trkpt lat="41.070053124393404" lon="1.06503661080594"><ele>7.333333333333334</ele><time>2026-04-19T14:25:49.999Z</time></trkpt><trkpt lat="41.070101253463626" lon="1.06493155708574"><ele>7.166666666666667</ele><time>2026-04-19T14:25:50.999Z</time></trkpt><trkpt lat="41.070165094271324" lon="1.0648449667353235"><ele>7.0</ele><time>2026-04-19T14:25:51.999Z</time></trkpt><trkpt lat="41.07020343411371" lon="1.0647587176757036"><ele>7.0</ele><time>2026-04-19T14:25:52.999Z</time></trkpt><trkpt lat="41.070200493226885" lon="1.064656405537388"><ele>6.999999999999999</ele><time>2026-04-19T14:25:53.999Z</time></trkpt><trkpt lat="41.070165034489236" lon="1.0645557907139547"><ele>6.999999999999999</ele><time>2026-04-19T14:25:54.999Z</time></trkpt><trkpt lat="41.070084872706566" lon="1.0644662361941803"><ele>7.0</ele><time>2026-04-19T14:25:55.999Z</time></trkpt><trkpt lat="41.07003071780568" lon="1.0643559287966362"><ele>7.0</ele><time>2026-04-19T14:25:56.999Z</time></trkpt><trkpt lat="41.0699912714734" lon="1.0641732099399726"><ele>7.5</ele><time>2026-04-19T14:25:57.999Z</time></trkpt><trkpt lat="41.06996403933716" lon="1.0639632032488227"><ele>8.0</ele><time>2026-04-19T14:25:58.999Z</time></trkpt><trkpt lat="41.06994122120576" lon="1.0637680246835914"><ele>8.5</ele><time>2026-04-19T14:25:59.999Z</time></trkpt><trkpt lat="41.069913219405706" lon="1.063586241279683"><ele>9.0</ele><time>2026-04-19T14:26:00.999Z</time></trkpt><trkpt lat="41.06989519383146" lon="1.063415045509178"><ele>9.25</ele><time>2026-04-19T14:26:01.999Z</time></trkpt><trkpt lat="41.0698860933095" lon="1.0632510663051409"><ele>9.5</ele><time>2026-04-19T14:26:02.999Z</time></trkpt><trkpt lat="41.06987924800157" lon="1.0630852346561126"><ele>9.75</ele><time>2026-04-19T14:26:03.999Z</time></trkpt><trkpt lat="41.069873031039265" lon="1.0629138943585836"><ele>10.0</ele><time>2026-04-19T14:26:04.999Z</time></trkpt><trkpt lat="41.069865039314024" lon="1.062740659599767"><ele>10.0</ele><time>2026-04-19T14:26:05.999Z</time></trkpt><trkpt lat="41.06985514868933" lon="1.0625731448801699"><ele>10.0</ele><time>2026-04-19T14:26:06.999Z</time></trkpt><trkpt lat="41.06984313506307" lon="1.0623993391597704"><ele>10.0</ele><time>2026-04-19T14:26:07.999Z</time></trkpt><trkpt lat="41.069826904179216" lon="1.0622182876480484"><ele>10.0</ele><time>2026-04-19T14:26:08.999Z</time></trkpt><trkpt lat="41.06981125727643" lon="1.062029612088517"><ele>9.75</ele><time>2026-04-19T14:26:09.999Z</time></trkpt><trkpt lat="41.0698015633205" lon="1.0618368747567548"><ele>9.5</ele><time>2026-04-19T14:26:11Z</time></trkpt><trkpt lat="41.06979157002724" lon="1.0616454641853863"><ele>9.25</ele><time>2026-04-19T14:26:12Z</time></trkpt><trkpt lat="41.06980023629089" lon="1.0614701231435677"><ele>9.0</ele><time>2026-04-19T14:26:13Z</time></trkpt><trkpt lat="41.06979778504336" lon="1.0613067883138885"><ele>10.25</ele><time>2026-04-19T14:26:14Z</time></trkpt><trkpt lat="41.06980087830352" lon="1.0611385824838346"><ele>11.5</ele><time>2026-04-19T14:26:15Z</time></trkpt><trkpt lat="41.06980778521855" lon="1.0609609707649648"><ele>12.75</ele><time>2026-04-19T14:26:16Z</time></trkpt><trkpt lat="41.06980592774616" lon="1.0607963347502223"><ele>14.0</ele><time>2026-04-19T14:26:17Z</time></trkpt><trkpt lat="41.069821975350926" lon="1.0606533750982117"><ele>14.399999999999999</ele><time>2026-04-19T14:26:18Z</time></trkpt><trkpt lat="41.069836735851496" lon="1.0605134958980933"><ele>14.799999999999999</ele><time>2026-04-19T14:26:19Z</time></trkpt><trkpt lat="41.06987581625729" lon="1.0603819907660772"><ele>15.200000000000001</ele><time>2026-04-19T14:26:20Z</time></trkpt><trkpt lat="41.06993846492209" lon="1.060289903634926"><ele>15.600000000000001</ele><time>2026-04-19T14:26:21Z</time></trkpt><trkpt lat="41.06998534144651" lon="1.0601775190678093"><ele>16.0</ele><time>2026-04-19T14:26:22Z</time></trkpt><trkpt lat="41.07003204042355" lon="1.0600446616671957"><ele>15.25</ele><time>2026-04-19T14:26:23Z</time></trkpt><trkpt lat="41.0701099562889" lon="1.059928652698589"><ele>14.5</ele><time>2026-04-19T14:26:24Z</time></trkpt><trkpt lat="41.07020824485032" lon="1.0598371407021228"><ele>13.75</ele><time>2026-04-19T14:26:25Z</time></trkpt><trkpt lat="41.070321854361126" lon="1.0597570741599467"><ele>13.0</ele><time>2026-04-19T14:26:26Z</time></trkpt><trkpt lat="41.07043345991293" lon="1.0596559568185775"><ele>13.0</ele><time>2026-04-19T14:26:27Z</time></trkpt><trkpt lat="41.07053445864685" lon="1.0595337116878305"><ele>13.0</ele><time>2026-04-19T14:26:28Z</time></trkpt><trkpt lat="41.07062371570724" lon="1.0594194012793876"><ele>13.0</ele><time>2026-04-19T14:26:29Z</time></trkpt><trkpt lat="41.07071119833782" lon="1.0593091534596975"><ele>13.0</ele><time>2026-04-19T14:26:30Z</time></trkpt><trkpt lat="41.07079896089354" lon="1.059201520996138"><ele>13.5</ele><time>2026-04-19T14:26:31Z</time></trkpt><trkpt lat="41.07088709900074" lon="1.059093009484588"><ele>14.0</ele><time>2026-04-19T14:26:32Z</time></trkpt><trkpt lat="41.07091945984901" lon="1.0589466224743498"><ele>14.5</ele><time>2026-04-19T14:26:33Z</time></trkpt><trkpt lat="41.0710026843542" lon="1.058839975956335"><ele>15.0</ele><time>2026-04-19T14:26:34Z</time></trkpt><trkpt lat="41.07108147300508" lon="1.0587401849073048"><ele>15.0</ele><time>2026-04-19T14:26:35Z</time></trkpt><trkpt lat="41.071142375574325" lon="1.0586512871486757"><ele>15.0</ele><time>2026-04-19T14:26:36Z</time></trkpt><trkpt lat="41.071208551025656" lon="1.058587379725908"><ele>15.0</ele><time>2026-04-19T14:26:37Z</time></trkpt><trkpt lat="41.07128590300397" lon="1.058556483662889"><ele>15.0</ele><time>2026-04-19T14:26:38Z</time></trkpt><trkpt lat="41.07135709021269" lon="1.0585456990846414"><ele>15.0</ele><time>2026-04-19T14:26:39Z</time></trkpt><trkpt lat="41.07145732451718" lon="1.0584524126619628"><ele>15.0</ele><time>2026-04-19T14:26:41Z</time></trkpt><trkpt lat="41.07146538948858" lon="1.0583657460752636"><ele>15.2</ele><time>2026-04-19T14:26:42Z</time></trkpt><trkpt lat="41.071434616732596" lon="1.0582721654228815"><ele>15.4</ele><time>2026-04-19T14:26:43Z</time></trkpt><trkpt lat="41.07137550442981" lon="1.058171625822464"><ele>15.600000000000001</ele><time>2026-04-19T14:26:44Z</time></trkpt><trkpt lat="41.07131291290588" lon="1.0580667959802152"><ele>15.8</ele><time>2026-04-19T14:26:45Z</time></trkpt><trkpt lat="41.071329419811335" lon="1.0579060341170072"><ele>16.0</ele><time>2026-04-19T14:26:46Z</time></trkpt><trkpt lat="41.07133684610795" lon="1.0577472962218881"><ele>16.0</ele><time>2026-04-19T14:26:47Z</time></trkpt><trkpt lat="41.07133622386197" lon="1.0576011780394514"><ele>16.0</ele><time>2026-04-19T14:26:48Z</time></trkpt><trkpt lat="41.071328257659054" lon="1.0574603777582305"><ele>16.0</ele><time>2026-04-19T14:26:49Z</time></trkpt><trkpt lat="41.0713329537696" lon="1.0573228523534106"><ele>16.0</ele><time>2026-04-19T14:26:50Z</time></trkpt><trkpt lat="41.071320861767624" lon="1.0571586154242478"><ele>16.0</ele><time>2026-04-19T14:26:51Z</time></trkpt><trkpt lat="41.071319506657495" lon="1.057008102747863"><ele>15.8</ele><time>2026-04-19T14:26:52Z</time></trkpt><trkpt lat="41.07133411780803" lon="1.0568805810832738"><ele>15.600000000000001</ele><time>2026-04-19T14:26:53Z</time></trkpt><trkpt lat="41.07131882337719" lon="1.0567679600735964"><ele>15.4</ele><time>2026-04-19T14:26:54Z</time></trkpt><trkpt lat="41.071330428684725" lon="1.0566761236707263"><ele>15.2</ele><time>2026-04-19T14:26:55Z</time></trkpt><trkpt lat="41.07135298034627" lon="1.0565139489055482"><ele>15.0</ele><time>2026-04-19T14:26:57Z</time></trkpt><trkpt lat="41.071438681058105" lon="1.0564155737598733"><ele>15.0</ele><time>2026-04-19T14:26:58Z</time></trkpt><trkpt lat="41.071454060033695" lon="1.0563212966938862"><ele>15.0</ele><time>2026-04-19T14:26:59Z</time></trkpt><trkpt lat="41.071467142537365" lon="1.0562350732541457"><ele>15.0</ele><time>2026-04-19T14:27:00Z</time></trkpt><trkpt lat="41.071391245389066" lon="1.056137365240346"><ele>15.0</ele><time>2026-04-19T14:27:01Z</time></trkpt><trkpt lat="41.07136991209673" lon="1.0560347342844363"><ele>15.0</ele><time>2026-04-19T14:27:02Z</time></trkpt><trkpt lat="41.071347094276206" lon="1.0559464452702383"><ele>15.0</ele><time>2026-04-19T14:27:03Z</time></trkpt><trkpt lat="41.07135229535283" lon="1.0558317325779059"><ele>16.0</ele><time>2026-04-19T14:27:04Z</time></trkpt><trkpt lat="41.071354890782956" lon="1.055728190559582"><ele>17.0</ele><time>2026-04-19T14:27:05Z</time></trkpt><trkpt lat="41.07135152853231" lon="1.0555997946354847"><ele>18.0</ele><time>2026-04-19T14:27:07Z</time></trkpt><trkpt lat="41.071093399112975" lon="1.0556273666704798"><ele>19.0</ele><time>2026-04-19T14:27:10Z</time></trkpt><trkpt lat="41.07096974296287" lon="1.0556303074575923"><ele>19.0</ele><time>2026-04-19T14:27:11Z</time></trkpt><trkpt lat="41.070837010308445" lon="1.055647719463409"><ele>19.0</ele><time>2026-04-19T14:27:12Z</time></trkpt><trkpt lat="41.070694495323124" lon="1.0556759287929791"><ele>19.0</ele><time>2026-04-19T14:27:12.999Z</time></trkpt><trkpt lat="41.070568558882165" lon="1.0556830992552637"><ele>19.0</ele><time>2026-04-19T14:27:13.999Z</time></trkpt><trkpt lat="41.070459652477595" lon="1.0556893083903665"><ele>18.333333333333332</ele><time>2026-04-19T14:27:14.999Z</time></trkpt><trkpt lat="41.070359385928384" lon="1.0556927373779197"><ele>17.666666666666664</ele><time>2026-04-19T14:27:15.999Z</time></trkpt><trkpt lat="41.07026658292965" lon="1.0557002703766956"><ele>17.0</ele><time>2026-04-19T14:27:16.999Z</time></trkpt><trkpt lat="41.07017633665516" lon="1.0557127177352414"><ele>16.333333333333332</ele><time>2026-04-19T14:27:17.999Z</time></trkpt><trkpt lat="41.0700875062365" lon="1.0557176773184405"><ele>15.666666666666666</ele><time>2026-04-19T14:27:18.999Z</time></trkpt><trkpt lat="41.070014802623035" lon="1.0557228562023004"><ele>15.0</ele><time>2026-04-19T14:27:19.999Z</time></trkpt><trkpt lat="41.06988712607098" lon="1.055742456008142"><ele>14.8</ele><time>2026-04-19T14:27:21.999Z</time></trkpt><trkpt lat="41.069771235590515" lon="1.0557441104958731"><ele>14.6</ele><time>2026-04-19T14:27:22.999Z</time></trkpt><trkpt lat="41.069685008764075" lon="1.0557479361909825"><ele>14.399999999999999</ele><time>2026-04-19T14:27:23.999Z</time></trkpt><trkpt lat="41.069596567722826" lon="1.0557514095730687"><ele>14.2</ele><time>2026-04-19T14:27:24.999Z</time></trkpt><trkpt lat="41.069500476725025" lon="1.0557587574144334"><ele>14.0</ele><time>2026-04-19T14:27:25.999Z</time></trkpt><trkpt lat="41.069408154087725" lon="1.055771196051445"><ele>14.000000000000002</ele><time>2026-04-19T14:27:26.999Z</time></trkpt><trkpt lat="41.06932081661936" lon="1.055779044879102"><ele>14.0</ele><time>2026-04-19T14:27:27.999Z</time></trkpt><trkpt lat="41.06923318627401" lon="1.055778424209078"><ele>14.0</ele><time>2026-04-19T14:27:28.999Z</time></trkpt><trkpt lat="41.06915195774618" lon="1.0557839407545302"><ele>14.0</ele><time>2026-04-19T14:27:29.999Z</time></trkpt><trkpt lat="41.06906006741484" lon="1.0557855620299548"><ele>14.000000000000002</ele><time>2026-04-19T14:27:30.999Z</time></trkpt><trkpt lat="41.068960119762544" lon="1.055784129761329"><ele>14.0</ele><time>2026-04-19T14:27:31.999Z</time></trkpt><trkpt lat="41.068859472573074" lon="1.055772356610206"><ele>13.5</ele><time>2026-04-19T14:27:32.999Z</time></trkpt><trkpt lat="41.06877122894639" lon="1.0557597892888475"><ele>13.0</ele><time>2026-04-19T14:27:33.999Z</time></trkpt><trkpt lat="41.06869949989807" lon="1.055726419623935"><ele>12.5</ele><time>2026-04-19T14:27:34.999Z</time></trkpt><trkpt lat="41.06859165558312" lon="1.0557152220791095"><ele>12.0</ele><time>2026-04-19T14:27:36.999Z</time></trkpt><trkpt lat="41.068593368042244" lon="1.0554496338885608"><ele>12.0</ele><time>2026-04-19T14:27:37.999Z</time></trkpt><trkpt lat="41.0685912608232" lon="1.055323691105692"><ele>12.0</ele><time>2026-04-19T14:27:38.999Z</time></trkpt><trkpt lat="41.068597206744556" lon="1.0552014944067518"><ele>12.0</ele><time>2026-04-19T14:27:39.999Z</time></trkpt><trkpt lat="41.06859372674407" lon="1.0550697812401744"><ele>12.0</ele><time>2026-04-19T14:27:40.999Z</time></trkpt><trkpt lat="41.068587292499075" lon="1.0549101024798786"><ele>12.0</ele><time>2026-04-19T14:27:41.999Z</time></trkpt><trkpt lat="41.06857992140361" lon="1.0547361093074084"><ele>12.0</ele><time>2026-04-19T14:27:42.999Z</time></trkpt><trkpt lat="41.06857012327317" lon="1.0545573963387678"><ele>12.0</ele><time>2026-04-19T14:27:43.999Z</time></trkpt><trkpt lat="41.068560029985385" lon="1.0543630542402753"><ele>12.0</ele><time>2026-04-19T14:27:44.999Z</time></trkpt><trkpt lat="41.0685556250888" lon="1.0541674976648119"><ele>12.0</ele><time>2026-04-19T14:27:45.999Z</time></trkpt><trkpt lat="41.068549380444004" lon="1.0539955281463689"><ele>11.6</ele><time>2026-04-19T14:27:46.999Z</time></trkpt><trkpt lat="41.06855345544928" lon="1.0538472798618286"><ele>11.2</ele><time>2026-04-19T14:27:47.999Z</time></trkpt><trkpt lat="41.068534774295955" lon="1.0537007051245528"><ele>10.8</ele><time>2026-04-19T14:27:48.999Z</time></trkpt><trkpt lat="41.0685404628026" lon="1.0535786373296288"><ele>10.4</ele><time>2026-04-19T14:27:49.999Z</time></trkpt><trkpt lat="41.06854449054773" lon="1.053473801428246"><ele>10.0</ele><time>2026-04-19T14:27:50.999Z</time></trkpt><trkpt lat="41.068567533042184" lon="1.0533672994027006"><ele>10.0</ele><time>2026-04-19T14:27:51.999Z</time></trkpt><trkpt lat="41.068627225969465" lon="1.0532910300392806"><ele>10.0</ele><time>2026-04-19T14:27:52.999Z</time></trkpt><trkpt lat="41.068670510399926" lon="1.0532156751224315"><ele>10.0</ele><time>2026-04-19T14:27:53.999Z</time></trkpt><trkpt lat="41.06868344533632" lon="1.0531252571687906"><ele>10.0</ele><time>2026-04-19T14:27:54.999Z</time></trkpt><trkpt lat="41.06866629438843" lon="1.05302771197885"><ele>10.0</ele><time>2026-04-19T14:27:55.999Z</time></trkpt><trkpt lat="41.06862360355829" lon="1.0529403976033314"><ele>10.0</ele><time>2026-04-19T14:27:56.999Z</time></trkpt><trkpt lat="41.068558105004364" lon="1.0528679098097846"><ele>10.0</ele><time>2026-04-19T14:27:57.999Z</time></trkpt><trkpt lat="41.06849998716384" lon="1.052788417026289"><ele>10.0</ele><time>2026-04-19T14:27:58.999Z</time></trkpt><trkpt lat="41.06849312589523" lon="1.0526630091788343"><ele>10.0</ele><time>2026-04-19T14:27:59.999Z</time></trkpt><trkpt lat="41.068477207114036" lon="1.0525236078773557"><ele>10.0</ele><time>2026-04-19T14:28:00.999Z</time></trkpt><trkpt lat="41.068474248397706" lon="1.0523735319177132"><ele>10.0</ele><time>2026-04-19T14:28:01.999Z</time></trkpt><trkpt lat="41.06845907381703" lon="1.0522130482033587"><ele>10.0</ele><time>2026-04-19T14:28:02.999Z</time></trkpt><trkpt lat="41.06844051154352" lon="1.0520512730985911"><ele>10.0</ele><time>2026-04-19T14:28:03.999Z</time></trkpt><trkpt lat="41.06842358452988" lon="1.0518779150838895"><ele>10.0</ele><time>2026-04-19T14:28:04.999Z</time></trkpt><trkpt lat="41.06840904856532" lon="1.0517169474353816"><ele>10.0</ele><time>2026-04-19T14:28:05.999Z</time></trkpt><trkpt lat="41.06839360530833" lon="1.051570270340324"><ele>10.25</ele><time>2026-04-19T14:28:06.999Z</time></trkpt><trkpt lat="41.06837770710217" lon="1.051427380758313"><ele>10.5</ele><time>2026-04-19T14:28:07.999Z</time></trkpt><trkpt lat="41.06836490570797" lon="1.0512796374823037"><ele>10.75</ele><time>2026-04-19T14:28:08.999Z</time></trkpt><trkpt lat="41.06835274318126" lon="1.0511176856489992"><ele>11.0</ele><time>2026-04-19T14:28:09.999Z</time></trkpt><trkpt lat="41.06835474519834" lon="1.0509569086990458"><ele>11.25</ele><time>2026-04-19T14:28:10.999Z</time></trkpt><trkpt lat="41.06833864144908" lon="1.050789138378488"><ele>11.5</ele><time>2026-04-19T14:28:11.999Z</time></trkpt><trkpt lat="41.06833052623691" lon="1.0506341245311652"><ele>11.75</ele><time>2026-04-19T14:28:12.999Z</time></trkpt><trkpt lat="41.06832384977299" lon="1.0504852665462705"><ele>12.0</ele><time>2026-04-19T14:28:13.999Z</time></trkpt><trkpt lat="41.068324074606736" lon="1.0503268858199064"><ele>12.0</ele><time>2026-04-19T14:28:14.999Z</time></trkpt><trkpt lat="41.06832145234202" lon="1.0501769843083841"><ele>12.0</ele><time>2026-04-19T14:28:15.999Z</time></trkpt><trkpt lat="41.068316494552555" lon="1.050034639821976"><ele>12.0</ele><time>2026-04-19T14:28:17Z</time></trkpt><trkpt lat="41.06831236411944" lon="1.0498867001098775"><ele>12.0</ele><time>2026-04-19T14:28:18Z</time></trkpt><trkpt lat="41.068312564650974" lon="1.0497376748287517"><ele>12.0</ele><time>2026-04-19T14:28:19Z</time></trkpt><trkpt lat="41.06831276378572" lon="1.0496074748180566"><ele>12.2</ele><time>2026-04-19T14:28:20Z</time></trkpt><trkpt lat="41.06831254296553" lon="1.0494777915592042"><ele>12.399999999999999</ele><time>2026-04-19T14:28:21Z</time></trkpt><trkpt lat="41.06830754528409" lon="1.0493380171302698"><ele>12.600000000000001</ele><time>2026-04-19T14:28:22Z</time></trkpt><trkpt lat="41.06831144448733" lon="1.0492106940272874"><ele>12.8</ele><time>2026-04-19T14:28:23Z</time></trkpt><trkpt lat="41.06831254622534" lon="1.0490971556346063"><ele>13.0</ele><time>2026-04-19T14:28:24Z</time></trkpt><trkpt lat="41.06830788114477" lon="1.048999078729872"><ele>13.0</ele><time>2026-04-19T14:28:25Z</time></trkpt><trkpt lat="41.06828673570288" lon="1.0488963698375797"><ele>13.0</ele><time>2026-04-19T14:28:26Z</time></trkpt><trkpt lat="41.06824246315305" lon="1.0487865463782189"><ele>13.0</ele><time>2026-04-19T14:28:27Z</time></trkpt><trkpt lat="41.06818937673795" lon="1.048672065251845"><ele>13.0</ele><time>2026-04-19T14:28:28Z</time></trkpt><trkpt lat="41.06815476769353" lon="1.0485288829889254"><ele>13.0</ele><time>2026-04-19T14:28:29Z</time></trkpt><trkpt lat="41.068085908574375" lon="1.0483832381661984"><ele>13.0</ele><time>2026-04-19T14:28:30Z</time></trkpt><trkpt lat="41.06803462908767" lon="1.0482362219756918"><ele>13.0</ele><time>2026-04-19T14:28:31Z</time></trkpt><trkpt lat="41.067985720029185" lon="1.0481014726313875"><ele>13.0</ele><time>2026-04-19T14:28:32Z</time></trkpt><trkpt lat="41.06793109827053" lon="1.0479472191630204"><ele>13.0</ele><time>2026-04-19T14:28:33Z</time></trkpt><trkpt lat="41.06785887196478" lon="1.0477525638288945"><ele>13.0</ele><time>2026-04-19T14:28:34Z</time></trkpt><trkpt lat="41.06779836116356" lon="1.0476000787552484"><ele>13.0</ele><time>2026-04-19T14:28:35Z</time></trkpt><trkpt lat="41.067758753197154" lon="1.047501313542508"><ele>13.0</ele><time>2026-04-19T14:28:36Z</time></trkpt><trkpt lat="41.067723223739364" lon="1.0474104558200468"><ele>13.0</ele><time>2026-04-19T14:28:37Z</time></trkpt><trkpt lat="41.0676794957497" lon="1.0472955250268055"><ele>13.0</ele><time>2026-04-19T14:28:38Z</time></trkpt><trkpt lat="41.06761535976918" lon="1.047127491590405"><ele>13.0</ele><time>2026-04-19T14:28:39Z</time></trkpt><trkpt lat="41.06755639856128" lon="1.046973935474864"><ele>13.0</ele><time>2026-04-19T14:28:40Z</time></trkpt><trkpt lat="41.06751171352706" lon="1.0468509799566734"><ele>13.0</ele><time>2026-04-19T14:28:41Z</time></trkpt><trkpt lat="41.067468239680665" lon="1.0467457596775687"><ele>13.0</ele><time>2026-04-19T14:28:42Z</time></trkpt><trkpt lat="41.06742710608009" lon="1.046624462485739"><ele>13.0</ele><time>2026-04-19T14:28:43Z</time></trkpt><trkpt lat="41.06738373170086" lon="1.0465084513702072"><ele>13.0</ele><time>2026-04-19T14:28:44Z</time></trkpt><trkpt lat="41.067337974921486" lon="1.0463928181772744"><ele>13.0</ele><time>2026-04-19T14:28:45Z</time></trkpt><trkpt lat="41.067292761999205" lon="1.0462716035800719"><ele>13.0</ele><time>2026-04-19T14:28:46Z</time></trkpt><trkpt lat="41.06724745620354" lon="1.04615463139605"><ele>13.0</ele><time>2026-04-19T14:28:47Z</time></trkpt><trkpt lat="41.06720087261498" lon="1.0460397837193134"><ele>13.0</ele><time>2026-04-19T14:28:48Z</time></trkpt><trkpt lat="41.067163500296566" lon="1.0459186825703817"><ele>13.4</ele><time>2026-04-19T14:28:49Z</time></trkpt><trkpt lat="41.06711319948805" lon="1.0457944959362089"><ele>13.8</ele><time>2026-04-19T14:28:50Z</time></trkpt><trkpt lat="41.06706170294205" lon="1.0456577449596225"><ele>14.2</ele><time>2026-04-19T14:28:51Z</time></trkpt><trkpt lat="41.06701409160037" lon="1.045530699854009"><ele>14.6</ele><time>2026-04-19T14:28:52Z</time></trkpt><trkpt lat="41.06696721038621" lon="1.045410493783568"><ele>15.0</ele><time>2026-04-19T14:28:53Z</time></trkpt><trkpt lat="41.06692860085261" lon="1.0452989198381715"><ele>15.0</ele><time>2026-04-19T14:28:54Z</time></trkpt><trkpt lat="41.06689378483596" lon="1.0451965300749653"><ele>15.0</ele><time>2026-04-19T14:28:55Z</time></trkpt><trkpt lat="41.06685129305075" lon="1.0450814650425406"><ele>15.0</ele><time>2026-04-19T14:28:56Z</time></trkpt><trkpt lat="41.066820285317874" lon="1.0449894013895384"><ele>15.0</ele><time>2026-04-19T14:28:57Z</time></trkpt><trkpt lat="41.06679413255431" lon="1.0448681437854659"><ele>15.0</ele><time>2026-04-19T14:28:59Z</time></trkpt><trkpt lat="41.066988544379235" lon="1.0447073756812615"><ele>15.0</ele><time>2026-04-19T14:29:01Z</time></trkpt><trkpt lat="41.067114509323936" lon="1.044638497087389"><ele>15.0</ele><time>2026-04-19T14:29:02Z</time></trkpt><trkpt lat="41.067240972553186" lon="1.0445351191983376"><ele>15.0</ele><time>2026-04-19T14:29:03Z</time></trkpt><trkpt lat="41.0673855945161" lon="1.0444337102631052"><ele>15.0</ele><time>2026-04-19T14:29:04Z</time></trkpt><trkpt lat="41.067551086336294" lon="1.0443325067592366"><ele>15.0</ele><time>2026-04-19T14:29:05Z</time></trkpt><trkpt lat="41.067714376409256" lon="1.0442636298080987"><ele>15.0</ele><time>2026-04-19T14:29:06Z</time></trkpt><trkpt lat="41.0678645002717" lon="1.0442111627633923"><ele>15.0</ele><time>2026-04-19T14:29:07Z</time></trkpt><trkpt lat="41.067997447242945" lon="1.0441519695859958"><ele>15.4</ele><time>2026-04-19T14:29:08Z</time></trkpt><trkpt lat="41.06811084510479" lon="1.0441261979249588"><ele>15.8</ele><time>2026-04-19T14:29:09Z</time></trkpt><trkpt lat="41.06821366237951" lon="1.0440865091208422"><ele>16.2</ele><time>2026-04-19T14:29:10Z</time></trkpt><trkpt lat="41.06832084039436" lon="1.0440497176246286"><ele>16.6</ele><time>2026-04-19T14:29:11Z</time></trkpt><trkpt lat="41.06842271649256" lon="1.04401222912242"><ele>17.0</ele><time>2026-04-19T14:29:11.999Z</time></trkpt><trkpt lat="41.06851648677835" lon="1.0439681569722146"><ele>17.0</ele><time>2026-04-19T14:29:12.999Z</time></trkpt><trkpt lat="41.06859717117784" lon="1.0439179717068743"><ele>17.0</ele><time>2026-04-19T14:29:13.999Z</time></trkpt><trkpt lat="41.068668653374175" lon="1.0438638514126188"><ele>17.0</ele><time>2026-04-19T14:29:14.999Z</time></trkpt><trkpt lat="41.068744372572624" lon="1.043813018440346"><ele>17.0</ele><time>2026-04-19T14:29:15.999Z</time></trkpt><trkpt lat="41.068799194756856" lon="1.0437532722683291"><ele>17.0</ele><time>2026-04-19T14:29:16.999Z</time></trkpt><trkpt lat="41.06885259096429" lon="1.0437078219620508"><ele>17.0</ele><time>2026-04-19T14:29:17.999Z</time></trkpt><trkpt lat="41.068926472744856" lon="1.0436534171173386"><ele>17.0</ele><time>2026-04-19T14:29:19.999Z</time></trkpt><trkpt lat="41.06897298296384" lon="1.0435909559448626"><ele>17.0</ele><time>2026-04-19T14:29:56.999Z</time></trkpt><trkpt lat="41.06898728632269" lon="1.0433910455569764"><ele>17.0</ele><time>2026-04-19T14:29:58.999Z</time></trkpt><trkpt lat="41.06894849161206" lon="1.043254332094184"><ele>17.0</ele><time>2026-04-19T14:29:59.999Z</time></trkpt><trkpt lat="41.06889958538516" lon="1.0430568020205002"><ele>16.75</ele><time>2026-04-19T14:30:00.999Z</time></trkpt><trkpt lat="41.06884622860138" lon="1.042868754326869"><ele>16.5</ele><time>2026-04-19T14:30:01.999Z</time></trkpt><trkpt lat="41.068793507898484" lon="1.0426887481035843"><ele>16.25</ele><time>2026-04-19T14:30:02.999Z</time></trkpt><trkpt lat="41.06873829425132" lon="1.0425086097935166"><ele>16.0</ele><time>2026-04-19T14:30:03.999Z</time></trkpt><trkpt lat="41.06868277341628" lon="1.042303117197537"><ele>17.0</ele><time>2026-04-19T14:30:04.999Z</time></trkpt><trkpt lat="41.068626394145454" lon="1.0420800728633153"><ele>18.0</ele><time>2026-04-19T14:30:05.999Z</time></trkpt><trkpt lat="41.06856962102407" lon="1.0418377502731757"><ele>19.0</ele><time>2026-04-19T14:30:06.999Z</time></trkpt><trkpt lat="41.06849913650743" lon="1.0415637556272368"><ele>19.5</ele><time>2026-04-19T14:30:07.999Z</time></trkpt><trkpt lat="41.06842916467105" lon="1.0412659453937931"><ele>20.0</ele><time>2026-04-19T14:30:08.999Z</time></trkpt><trkpt lat="41.06834843424979" lon="1.0409277154071055"><ele>20.0</ele><time>2026-04-19T14:30:09.999Z</time></trkpt><trkpt lat="41.06826948988575" lon="1.0405718128305539"><ele>20.0</ele><time>2026-04-19T14:30:10.999Z</time></trkpt><trkpt lat="41.06818773888139" lon="1.0402035604381525"><ele>20.5</ele><time>2026-04-19T14:30:11.999Z</time></trkpt><trkpt lat="41.06812279767944" lon="1.0398819177608951"><ele>21.0</ele><time>2026-04-19T14:30:12.999Z</time></trkpt><trkpt lat="41.06806068523369" lon="1.0395845360734177"><ele>21.0</ele><time>2026-04-19T14:30:13.999Z</time></trkpt><trkpt lat="41.06798299548198" lon="1.0393165523441217"><ele>21.0</ele><time>2026-04-19T14:30:14.999Z</time></trkpt><trkpt lat="41.067896797084146" lon="1.0390587438474768"><ele>21.0</ele><time>2026-04-19T14:30:15.999Z</time></trkpt><trkpt lat="41.067815766159576" lon="1.038815935644604"><ele>20.666666666666668</ele><time>2026-04-19T14:30:16.999Z</time></trkpt><trkpt lat="41.06772101809688" lon="1.038562268203871"><ele>20.333333333333336</ele><time>2026-04-19T14:30:17.999Z</time></trkpt><trkpt lat="41.06763477591963" lon="1.0382981103856939"><ele>20.0</ele><time>2026-04-19T14:30:18.999Z</time></trkpt><trkpt lat="41.06752368416631" lon="1.0380315329135563"><ele>19.5</ele><time>2026-04-19T14:30:19.999Z</time></trkpt><trkpt lat="41.06740693104463" lon="1.037760305752344"><ele>19.0</ele><time>2026-04-19T14:30:20.999Z</time></trkpt><trkpt lat="41.067290110732664" lon="1.0374949986765782"><ele>18.333333333333332</ele><time>2026-04-19T14:30:21.998Z</time></trkpt><trkpt lat="41.06717696304615" lon="1.0372381658583303"><ele>17.666666666666668</ele><time>2026-04-19T14:30:23Z</time></trkpt><trkpt lat="41.06706645182717" lon="1.0369879079281483"><ele>17.0</ele><time>2026-04-19T14:30:24Z</time></trkpt><trkpt lat="41.06696511837497" lon="1.0367575370373658"><ele>16.333333333333336</ele><time>2026-04-19T14:30:25Z</time></trkpt><trkpt lat="41.066855515580166" lon="1.0365083624652287"><ele>15.666666666666668</ele><time>2026-04-19T14:30:26Z</time></trkpt><trkpt lat="41.06673837414644" lon="1.036260808810054"><ele>15.0</ele><time>2026-04-19T14:30:27Z</time></trkpt><trkpt lat="41.066634365335595" lon="1.035994186823489"><ele>15.0</ele><time>2026-04-19T14:30:28Z</time></trkpt><trkpt lat="41.066522595812565" lon="1.0357295100295614"><ele>15.0</ele><time>2026-04-19T14:30:29Z</time></trkpt><trkpt lat="41.06641035863567" lon="1.0354623592680652"><ele>15.0</ele><time>2026-04-19T14:30:30Z</time></trkpt><trkpt lat="41.06629865889795" lon="1.0352029446302584"><ele>15.0</ele><time>2026-04-19T14:30:31Z</time></trkpt><trkpt lat="41.066190571550386" lon="1.0349452440921354"><ele>15.0</ele><time>2026-04-19T14:30:32Z</time></trkpt><trkpt lat="41.06608421870299" lon="1.0346889757501492"><ele>16.333333333333332</ele><time>2026-04-19T14:30:33Z</time></trkpt><trkpt lat="41.06598186090016" lon="1.0344407549811563"><ele>17.666666666666664</ele><time>2026-04-19T14:30:34Z</time></trkpt><trkpt lat="41.06588152642412" lon="1.0341909058293872"><ele>19.0</ele><time>2026-04-19T14:30:35Z</time></trkpt><trkpt lat="41.06578233906608" lon="1.0339397126187586"><ele>19.333333333333332</ele><time>2026-04-19T14:30:36Z</time></trkpt><trkpt lat="41.0656876840842" lon="1.0336893616457719"><ele>19.666666666666668</ele><time>2026-04-19T14:30:37Z</time></trkpt><trkpt lat="41.06559488967272" lon="1.033448591084126"><ele>20.0</ele><time>2026-04-19T14:30:38Z</time></trkpt><trkpt lat="41.065505778418725" lon="1.0332249097469008"><ele>20.0</ele><time>2026-04-19T14:30:39Z</time></trkpt><trkpt lat="41.06542310319276" lon="1.0329906578852932"><ele>20.0</ele><time>2026-04-19T14:30:40Z</time></trkpt><trkpt lat="41.065336233810235" lon="1.0327488409990864"><ele>20.0</ele><time>2026-04-19T14:30:41Z</time></trkpt><trkpt lat="41.06525005151266" lon="1.0325008423385735"><ele>19.333333333333336</ele><time>2026-04-19T14:30:42Z</time></trkpt><trkpt lat="41.06516451397649" lon="1.0322559216206686"><ele>18.666666666666668</ele><time>2026-04-19T14:30:43Z</time></trkpt><trkpt lat="41.06508159043198" lon="1.0320100245106159"><ele>18.0</ele><time>2026-04-19T14:30:44Z</time></trkpt><trkpt lat="41.0649968704412" lon="1.0317659614084387"><ele>18.0</ele><time>2026-04-19T14:30:45Z</time></trkpt><trkpt lat="41.06491167426743" lon="1.0315245424397192"><ele>18.0</ele><time>2026-04-19T14:30:46Z</time></trkpt><trkpt lat="41.06482384663951" lon="1.0312873684406383"><ele>18.0</ele><time>2026-04-19T14:30:47Z</time></trkpt><trkpt lat="41.06474356562183" lon="1.0310487336902832"><ele>18.0</ele><time>2026-04-19T14:30:48Z</time></trkpt><trkpt lat="41.06466554592234" lon="1.0308101486728378"><ele>18.0</ele><time>2026-04-19T14:30:49Z</time></trkpt><trkpt lat="41.064579865554364" lon="1.0305725892572322"><ele>18.0</ele><time>2026-04-19T14:30:50Z</time></trkpt><trkpt lat="41.06451962598828" lon="1.030322202453883"><ele>18.333333333333332</ele><time>2026-04-19T14:30:51Z</time></trkpt><trkpt lat="41.06447737673475" lon="1.0300574124834554"><ele>18.666666666666664</ele><time>2026-04-19T14:30:52Z</time></trkpt><trkpt lat="41.06444971136814" lon="1.0297848031071926"><ele>19.0</ele><time>2026-04-19T14:30:53Z</time></trkpt><trkpt lat="41.064431520181486" lon="1.0295027716125595"><ele>19.666666666666664</ele><time>2026-04-19T14:30:54Z</time></trkpt><trkpt lat="41.06439964268737" lon="1.0292281095182771"><ele>20.333333333333332</ele><time>2026-04-19T14:30:55Z</time></trkpt><trkpt lat="41.0643672730514" lon="1.0289499958908175"><ele>21.0</ele><time>2026-04-19T14:30:56Z</time></trkpt><trkpt lat="41.06433874732952" lon="1.028668870080612"><ele>21.0</ele><time>2026-04-19T14:30:57Z</time></trkpt><trkpt lat="41.0643085270996" lon="1.0283929949413244"><ele>21.0</ele><time>2026-04-19T14:30:58Z</time></trkpt><trkpt lat="41.0642815137385" lon="1.0281215640731587"><ele>21.0</ele><time>2026-04-19T14:30:59Z</time></trkpt><trkpt lat="41.06425374369917" lon="1.0278568386151723"><ele>21.0</ele><time>2026-04-19T14:31:00Z</time></trkpt><trkpt lat="41.064227186683645" lon="1.0275882294785461"><ele>21.0</ele><time>2026-04-19T14:31:01Z</time></trkpt><trkpt lat="41.064194101058554" lon="1.0273153138411615"><ele>21.0</ele><time>2026-04-19T14:31:02Z</time></trkpt><trkpt lat="41.06416782933705" lon="1.0270382555457471"><ele>21.0</ele><time>2026-04-19T14:31:03Z</time></trkpt><trkpt lat="41.06413511039446" lon="1.0267595684094681"><ele>21.0</ele><time>2026-04-19T14:31:04Z</time></trkpt><trkpt lat="41.06408724289841" lon="1.0264937274752364"><ele>21.0</ele><time>2026-04-19T14:31:05Z</time></trkpt><trkpt lat="41.06403360386894" lon="1.026223278884837"><ele>21.0</ele><time>2026-04-19T14:31:06Z</time></trkpt><trkpt lat="41.06397132486493" lon="1.0259575016166997"><ele>21.0</ele><time>2026-04-19T14:31:07Z</time></trkpt><trkpt lat="41.06381472165731" lon="1.0257319634527509"><ele>21.0</ele><time>2026-04-19T14:31:08Z</time></trkpt><trkpt lat="41.063706138523216" lon="1.0254845314825674"><ele>21.0</ele><time>2026-04-19T14:31:08.999Z</time></trkpt><trkpt lat="41.06359939750458" lon="1.025232991467845"><ele>21.0</ele><time>2026-04-19T14:31:09.999Z</time></trkpt><trkpt lat="41.063495516347665" lon="1.024979500682374"><ele>21.0</ele><time>2026-04-19T14:31:10.999Z</time></trkpt><trkpt lat="41.06339126656036" lon="1.0247384339702905"><ele>20.333333333333332</ele><time>2026-04-19T14:31:11.999Z</time></trkpt><trkpt lat="41.063294315204416" lon="1.0244916128746109"><ele>19.666666666666664</ele><time>2026-04-19T14:31:12.999Z</time></trkpt><trkpt lat="41.06319177723937" lon="1.0242485752547328"><ele>19.0</ele><time>2026-04-19T14:31:13.999Z</time></trkpt><trkpt lat="41.063094283544835" lon="1.024006222651185"><ele>18.666666666666664</ele><time>2026-04-19T14:31:14.999Z</time></trkpt><trkpt lat="41.06299385907406" lon="1.0237625190607313"><ele>18.333333333333332</ele><time>2026-04-19T14:31:15.999Z</time></trkpt><trkpt lat="41.0628911169105" lon="1.0235164088084097"><ele>18.0</ele><time>2026-04-19T14:31:16.999Z</time></trkpt><trkpt lat="41.06278872186526" lon="1.0232719375691095"><ele>18.0</ele><time>2026-04-19T14:31:17.999Z</time></trkpt><trkpt lat="41.06268418047473" lon="1.0230264957336082"><ele>18.0</ele><time>2026-04-19T14:31:18.999Z</time></trkpt><trkpt lat="41.062580964799146" lon="1.022777651277926"><ele>18.0</ele><time>2026-04-19T14:31:19.999Z</time></trkpt><trkpt lat="41.06247065331467" lon="1.0225236627768108"><ele>18.666666666666668</ele><time>2026-04-19T14:31:20.999Z</time></trkpt><trkpt lat="41.062366260438324" lon="1.022270552349112"><ele>19.333333333333336</ele><time>2026-04-19T14:31:21.999Z</time></trkpt><trkpt lat="41.062263016993896" lon="1.0220186104998854"><ele>20.0</ele><time>2026-04-19T14:31:22.999Z</time></trkpt><trkpt lat="41.06215855340901" lon="1.0217662481389598"><ele>20.0</ele><time>2026-04-19T14:31:23.999Z</time></trkpt><trkpt lat="41.06204924335038" lon="1.0215165861976303"><ele>20.0</ele><time>2026-04-19T14:31:24.999Z</time></trkpt><trkpt lat="41.061944449546196" lon="1.0212716395146106"><ele>20.0</ele><time>2026-04-19T14:31:25.999Z</time></trkpt><trkpt lat="41.06182450042406" lon="1.0209816130124905"><ele>20.0</ele><time>2026-04-19T14:31:26.999Z</time></trkpt><trkpt lat="41.0617327717189" lon="1.0207598142875152"><ele>20.0</ele><time>2026-04-19T14:31:27.999Z</time></trkpt><trkpt lat="41.06162885219102" lon="1.0205200240001813"><ele>20.0</ele><time>2026-04-19T14:31:28.999Z</time></trkpt><trkpt lat="41.061532151316435" lon="1.0202859193532456"><ele>19.666666666666668</ele><time>2026-04-19T14:31:29.999Z</time></trkpt><trkpt lat="41.061426098377765" lon="1.0200328383555288"><ele>19.333333333333332</ele><time>2026-04-19T14:31:30.999Z</time></trkpt><trkpt lat="41.06131469390798" lon="1.0197829031771841"><ele>19.0</ele><time>2026-04-19T14:31:31.999Z</time></trkpt><trkpt lat="41.061203941771396" lon="1.0195260071694576"><ele>19.0</ele><time>2026-04-19T14:31:32.999Z</time></trkpt><trkpt lat="41.061091764933714" lon="1.0192661085266206"><ele>19.0</ele><time>2026-04-19T14:31:33.999Z</time></trkpt><trkpt lat="41.06097993015922" lon="1.0190044065342714"><ele>19.0</ele><time>2026-04-19T14:31:34.999Z</time></trkpt><trkpt lat="41.06086916272682" lon="1.0187351987937976"><ele>19.0</ele><time>2026-04-19T14:31:35.999Z</time></trkpt><trkpt lat="41.060760951876205" lon="1.01846751274222"><ele>17.5</ele><time>2026-04-19T14:31:36.999Z</time></trkpt><trkpt lat="41.06065091659639" lon="1.0181921951344193"><ele>16.0</ele><time>2026-04-19T14:31:37.999Z</time></trkpt><trkpt lat="41.0605387823311" lon="1.0179211306314255"><ele>16.0</ele><time>2026-04-19T14:31:38.999Z</time></trkpt><trkpt lat="41.060430425969805" lon="1.0176540724259242"><ele>16.0</ele><time>2026-04-19T14:31:39.999Z</time></trkpt><trkpt lat="41.060322879137445" lon="1.0173888161440137"><ele>15.666666666666666</ele><time>2026-04-19T14:31:40.999Z</time></trkpt><trkpt lat="41.060218983090095" lon="1.0171299007316772"><ele>15.333333333333332</ele><time>2026-04-19T14:31:41.999Z</time></trkpt><trkpt lat="41.06011538011175" lon="1.0168640281093055"><ele>15.0</ele><time>2026-04-19T14:31:42.999Z</time></trkpt><trkpt lat="41.06000753978869" lon="1.0165997804416713"><ele>14.5</ele><time>2026-04-19T14:31:43.999Z</time></trkpt><trkpt lat="41.05989779612687" lon="1.0163325960300735"><ele>14.0</ele><time>2026-04-19T14:31:44.999Z</time></trkpt><trkpt lat="41.059789862463894" lon="1.0160678999384003"><ele>14.333333333333334</ele><time>2026-04-19T14:31:45.999Z</time></trkpt><trkpt lat="41.05968841608363" lon="1.0158153739435574"><ele>14.666666666666668</ele><time>2026-04-19T14:31:46.999Z</time></trkpt><trkpt lat="41.05958749387812" lon="1.0155812632987997"><ele>15.0</ele><time>2026-04-19T14:31:47.999Z</time></trkpt><trkpt lat="41.059491917786595" lon="1.0153418464690511"><ele>15.0</ele><time>2026-04-19T14:31:48.999Z</time></trkpt><trkpt lat="41.05940534254005" lon="1.0151281333833826"><ele>15.0</ele><time>2026-04-19T14:31:49.999Z</time></trkpt><trkpt lat="41.05930741167142" lon="1.0149033690150095"><ele>15.0</ele><time>2026-04-19T14:31:50.999Z</time></trkpt><trkpt lat="41.05921952816778" lon="1.0146968638680636"><ele>14.666666666666668</ele><time>2026-04-19T14:31:51.999Z</time></trkpt><trkpt lat="41.05913246807103" lon="1.0144897604050898"><ele>14.333333333333334</ele><time>2026-04-19T14:31:52.999Z</time></trkpt><trkpt lat="41.0590372436916" lon="1.0142635089106313"><ele>14.0</ele><time>2026-04-19T14:31:53.999Z</time></trkpt><trkpt lat="41.058950542912996" lon="1.0140448268571323"><ele>14.666666666666668</ele><time>2026-04-19T14:31:54.999Z</time></trkpt><trkpt lat="41.058869180334746" lon="1.0138482980220027"><ele>15.333333333333332</ele><time>2026-04-19T14:31:55.999Z</time></trkpt><trkpt lat="41.05879363256137" lon="1.0136649898245702"><ele>16.0</ele><time>2026-04-19T14:31:56.999Z</time></trkpt><trkpt lat="41.0587187297561" lon="1.0134757028830765"><ele>16.666666666666664</ele><time>2026-04-19T14:31:57.999Z</time></trkpt><trkpt lat="41.05863847561046" lon="1.0132683905201758"><ele>17.333333333333332</ele><time>2026-04-19T14:31:58.999Z</time></trkpt><trkpt lat="41.058554922900186" lon="1.0130581203330162"><ele>18.0</ele><time>2026-04-19T14:31:59.999Z</time></trkpt><trkpt lat="41.05846738907428" lon="1.0128412238487199"><ele>18.0</ele><time>2026-04-19T14:32:00.999Z</time></trkpt><trkpt lat="41.05838137991443" lon="1.012631584803886"><ele>18.0</ele><time>2026-04-19T14:32:01.999Z</time></trkpt><trkpt lat="41.05829281069402" lon="1.0124131661915983"><ele>18.0</ele><time>2026-04-19T14:32:02.999Z</time></trkpt><trkpt lat="41.05820423365461" lon="1.0121945919362036"><ele>18.0</ele><time>2026-04-19T14:32:03.999Z</time></trkpt><trkpt lat="41.05811407685572" lon="1.01197408450957"><ele>18.0</ele><time>2026-04-19T14:32:04.999Z</time></trkpt><trkpt lat="41.058023116480385" lon="1.0117524945713894"><ele>18.0</ele><time>2026-04-19T14:32:05.999Z</time></trkpt><trkpt lat="41.057930267501" lon="1.011527942110243"><ele>18.0</ele><time>2026-04-19T14:32:06.999Z</time></trkpt><trkpt lat="41.05783603710774" lon="1.0112966198556343"><ele>18.0</ele><time>2026-04-19T14:32:07.999Z</time></trkpt><trkpt lat="41.057732109878394" lon="1.0110638698394117"><ele>18.0</ele><time>2026-04-19T14:32:08.999Z</time></trkpt><trkpt lat="41.05762500282796" lon="1.0108395550272422"><ele>18.0</ele><time>2026-04-19T14:32:09.999Z</time></trkpt><trkpt lat="41.05750617048923" lon="1.0106108232049693"><ele>18.0</ele><time>2026-04-19T14:32:10.999Z</time></trkpt><trkpt lat="41.05736954454927" lon="1.0103957169506315"><ele>18.0</ele><time>2026-04-19T14:32:11.999Z</time></trkpt><trkpt lat="41.057220029707196" lon="1.010195088398291"><ele>17.333333333333332</ele><time>2026-04-19T14:32:12.999Z</time></trkpt><trkpt lat="41.057077320836164" lon="1.0099937892282183"><ele>16.666666666666664</ele><time>2026-04-19T14:32:13.999Z</time></trkpt><trkpt lat="41.05693628318505" lon="1.0097971277315072"><ele>16.0</ele><time>2026-04-19T14:32:14.999Z</time></trkpt><trkpt lat="41.056795892198885" lon="1.0095995992868714"><ele>16.0</ele><time>2026-04-19T14:32:15.999Z</time></trkpt><trkpt lat="41.05665394690161" lon="1.0094037604361064"><ele>16.0</ele><time>2026-04-19T14:32:16.998Z</time></trkpt><trkpt lat="41.0565169024285" lon="1.0092098359918196"><ele>16.0</ele><time>2026-04-19T14:32:17.998Z</time></trkpt><trkpt lat="41.05638159902673" lon="1.0090143834622516"><ele>16.0</ele><time>2026-04-19T14:32:18.998Z</time></trkpt><trkpt lat="41.05625160709459" lon="1.008828348916675"><ele>16.0</ele><time>2026-04-19T14:32:19.998Z</time></trkpt><trkpt lat="41.05612187989891" lon="1.0086456941368902"><ele>16.0</ele><time>2026-04-19T14:32:20.998Z</time></trkpt><trkpt lat="41.055992915568666" lon="1.0084636354330911"><ele>16.0</ele><time>2026-04-19T14:32:21.998Z</time></trkpt><trkpt lat="41.055862321056466" lon="1.008272955301498"><ele>16.0</ele><time>2026-04-19T14:32:22.998Z</time></trkpt><trkpt lat="41.05572846439758" lon="1.0080851316750958"><ele>16.0</ele><time>2026-04-19T14:32:23.998Z</time></trkpt><trkpt lat="41.055595613085394" lon="1.007891793161959"><ele>16.0</ele><time>2026-04-19T14:32:24.998Z</time></trkpt><trkpt lat="41.055462944479714" lon="1.0077012887561596"><ele>16.0</ele><time>2026-04-19T14:32:25.998Z</time></trkpt><trkpt lat="41.05532849803716" lon="1.0075136176040365"><ele>16.0</ele><time>2026-04-19T14:32:26.998Z</time></trkpt><trkpt lat="41.05519887084473" lon="1.0073320057447583"><ele>16.0</ele><time>2026-04-19T14:32:27.998Z</time></trkpt><trkpt lat="41.05507404537849" lon="1.0071558328333676"><ele>16.0</ele><time>2026-04-19T14:32:29Z</time></trkpt><trkpt lat="41.05494619123171" lon="1.0069695492061774"><ele>16.0</ele><time>2026-04-19T14:32:30Z</time></trkpt><trkpt lat="41.054818869774444" lon="1.006787878274422"><ele>16.333333333333332</ele><time>2026-04-19T14:32:31Z</time></trkpt><trkpt lat="41.05469237397704" lon="1.0066089439045425"><ele>16.666666666666668</ele><time>2026-04-19T14:32:32Z</time></trkpt><trkpt lat="41.05456289177839" lon="1.0064269825875491"><ele>17.0</ele><time>2026-04-19T14:32:33Z</time></trkpt><trkpt lat="41.05443665866822" lon="1.0062475036037615"><ele>17.0</ele><time>2026-04-19T14:32:34Z</time></trkpt><trkpt lat="41.05430585653626" lon="1.0060608641446582"><ele>17.0</ele><time>2026-04-19T14:32:35Z</time></trkpt><trkpt lat="41.05417377641384" lon="1.0058688197107146"><ele>17.0</ele><time>2026-04-19T14:32:36Z</time></trkpt><trkpt lat="41.05404346082588" lon="1.0056806819305497"><ele>16.666666666666668</ele><time>2026-04-19T14:32:37Z</time></trkpt><trkpt lat="41.053916451281864" lon="1.0054982925027027"><ele>16.333333333333332</ele><time>2026-04-19T14:32:38Z</time></trkpt><trkpt lat="41.05378405873555" lon="1.0053181958547914"><ele>16.0</ele><time>2026-04-19T14:32:39Z</time></trkpt><trkpt lat="41.053650479942796" lon="1.0051372800258715"><ele>15.666666666666666</ele><time>2026-04-19T14:32:40Z</time></trkpt><trkpt lat="41.053519112356085" lon="1.0049558654099804"><ele>15.333333333333332</ele><time>2026-04-19T14:32:41Z</time></trkpt><trkpt lat="41.05339264754311" lon="1.0047728047939946"><ele>15.0</ele><time>2026-04-19T14:32:42Z</time></trkpt><trkpt lat="41.05325926776842" lon="1.0045811969734328"><ele>15.0</ele><time>2026-04-19T14:32:43Z</time></trkpt><trkpt lat="41.053124926736054" lon="1.004391433634836"><ele>15.0</ele><time>2026-04-19T14:32:44Z</time></trkpt><trkpt lat="41.05298314556169" lon="1.004190555675287"><ele>15.0</ele><time>2026-04-19T14:32:45Z</time></trkpt><trkpt lat="41.052841025768366" lon="1.0039874910928257"><ele>14.666666666666668</ele><time>2026-04-19T14:32:46Z</time></trkpt><trkpt lat="41.05269835801136" lon="1.0037830588968897"><ele>14.333333333333334</ele><time>2026-04-19T14:32:47Z</time></trkpt><trkpt lat="41.05255514254028" lon="1.0035899101454435"><ele>14.0</ele><time>2026-04-19T14:32:48Z</time></trkpt><trkpt lat="41.05241770491178" lon="1.0033920855739515"><ele>13.0</ele><time>2026-04-19T14:32:49Z</time></trkpt><trkpt lat="41.05228248452551" lon="1.0032020854274517"><ele>12.0</ele><time>2026-04-19T14:32:50Z</time></trkpt><trkpt lat="41.05214740142209" lon="1.0030111996365574"><ele>11.0</ele><time>2026-04-19T14:32:51Z</time></trkpt><trkpt lat="41.052008352175" lon="1.0028154855492075"><ele>11.0</ele><time>2026-04-19T14:32:52Z</time></trkpt><trkpt lat="41.05186376917254" lon="1.0026099009618157"><ele>11.0</ele><time>2026-04-19T14:32:53Z</time></trkpt><trkpt lat="41.05170862364969" lon="1.002390863113853"><ele>11.0</ele><time>2026-04-19T14:32:54Z</time></trkpt><trkpt lat="41.05154877746576" lon="1.0021715072083477"><ele>10.5</ele><time>2026-04-19T14:32:55Z</time></trkpt><trkpt lat="41.05138775784635" lon="1.001951597050193"><ele>10.0</ele><time>2026-04-19T14:32:56Z</time></trkpt><trkpt lat="41.05122760668212" lon="1.0016951488654948"><ele>11.0</ele><time>2026-04-19T14:32:57Z</time></trkpt><trkpt lat="41.051069393759015" lon="1.0014711628961233"><ele>12.0</ele><time>2026-04-19T14:32:58Z</time></trkpt><trkpt lat="41.05092074678433" lon="1.0012856707942719"><ele>13.0</ele><time>2026-04-19T14:32:59Z</time></trkpt><trkpt lat="41.05080374580461" lon="1.001110508611349"><ele>13.0</ele><time>2026-04-19T14:33:00Z</time></trkpt><trkpt lat="41.0506904014541" lon="1.0009451114253303"><ele>13.0</ele><time>2026-04-19T14:33:01Z</time></trkpt><trkpt lat="41.05059330810295" lon="1.0008119724039917"><ele>13.0</ele><time>2026-04-19T14:33:02Z</time></trkpt><trkpt lat="41.05050197060581" lon="1.0006843274888033"><ele>13.0</ele><time>2026-04-19T14:33:03Z</time></trkpt><trkpt lat="41.05042174841488" lon="1.0005658511819855"><ele>12.999999999999998</ele><time>2026-04-19T14:33:04Z</time></trkpt><trkpt lat="41.05035064870935" lon="1.0004634444585863"><ele>13.0</ele><time>2026-04-19T14:33:05Z</time></trkpt><trkpt lat="41.05028894312965" lon="1.0003776483656543"><ele>13.0</ele><time>2026-04-19T14:33:06Z</time></trkpt><trkpt lat="41.0502347490092" lon="1.000305253178623"><ele>13.0</ele><time>2026-04-19T14:33:07Z</time></trkpt><trkpt lat="41.05019023347085" lon="1.0002432871711364"><ele>12.999999999999998</ele><time>2026-04-19T14:33:08Z</time></trkpt><trkpt lat="41.05013829691773" lon="1.0001373101490139"><ele>13.0</ele><time>2026-04-19T14:33:10Z</time></trkpt><trkpt lat="41.05011146716471" lon="1.0000210385163255"><ele>12.999999999999998</ele><time>2026-04-19T14:33:12Z</time></trkpt><trkpt lat="41.05009719439082" lon="0.9998474995087969"><ele>13.0</ele><time>2026-04-19T14:33:14Z</time></trkpt><trkpt lat="41.05008248836585" lon="0.999754753785174"><ele>13.0</ele><time>2026-04-19T14:33:15Z</time></trkpt><trkpt lat="41.050045922214515" lon="0.9996745826957945"><ele>13.0</ele><time>2026-04-19T14:33:16Z</time></trkpt><trkpt lat="41.04999521733185" lon="0.9996055513533961"><ele>12.999999999999998</ele><time>2026-04-19T14:33:17Z</time></trkpt><trkpt lat="41.0499280499316" lon="0.999570849543659"><ele>13.0</ele><time>2026-04-19T14:33:17.999Z</time></trkpt><trkpt lat="41.04984347231283" lon="0.9995597729487962"><ele>12.833333333333332</ele><time>2026-04-19T14:33:18.999Z</time></trkpt><trkpt lat="41.049768708717664" lon="0.9995472115525648"><ele>12.666666666666666</ele><time>2026-04-19T14:33:19.999Z</time></trkpt><trkpt lat="41.04969996714766" lon="0.9995124103026469"><ele>12.5</ele><time>2026-04-19T14:33:20.999Z</time></trkpt><trkpt lat="41.04963540769661" lon="0.9994509297826748"><ele>12.333333333333332</ele><time>2026-04-19T14:33:21.999Z</time></trkpt><trkpt lat="41.04957202663504" lon="0.9993756292542025"><ele>12.166666666666666</ele><time>2026-04-19T14:33:22.999Z</time></trkpt><trkpt lat="41.049507606910396" lon="0.9992769739893819"><ele>12.0</ele><time>2026-04-19T14:33:23.999Z</time></trkpt><trkpt lat="41.04942607428952" lon="0.9991624376571723"><ele>12.0</ele><time>2026-04-19T14:33:24.999Z</time></trkpt><trkpt lat="41.04931560001154" lon="0.9990066005607773"><ele>12.0</ele><time>2026-04-19T14:33:25.999Z</time></trkpt><trkpt lat="41.04918401130471" lon="0.998825112984939"><ele>12.0</ele><time>2026-04-19T14:33:26.999Z</time></trkpt><trkpt lat="41.0490376482622" lon="0.9986222533423711"><ele>12.0</ele><time>2026-04-19T14:33:27.999Z</time></trkpt><trkpt lat="41.04889193215243" lon="0.9983763896106297"><ele>12.0</ele><time>2026-04-19T14:33:28.999Z</time></trkpt><trkpt lat="41.04871618170963" lon="0.9981475623376147"><ele>12.0</ele><time>2026-04-19T14:33:29.999Z</time></trkpt><trkpt lat="41.04854948850705" lon="0.997886297388022"><ele>12.0</ele><time>2026-04-19T14:33:30.999Z</time></trkpt><trkpt lat="41.04837710436543" lon="0.9976241856969639"><ele>11.0</ele><time>2026-04-19T14:33:31.999Z</time></trkpt><trkpt lat="41.04819951322153" lon="0.9973735007985841"><ele>10.0</ele><time>2026-04-19T14:33:32.999Z</time></trkpt><trkpt lat="41.048025080976686" lon="0.9971328616077589"><ele>10.0</ele><time>2026-04-19T14:33:33.999Z</time></trkpt><trkpt lat="41.047862197116665" lon="0.9968995614291575"><ele>10.0</ele><time>2026-04-19T14:33:34.999Z</time></trkpt><trkpt lat="41.04771720172917" lon="0.996670636184026"><ele>10.333333333333334</ele><time>2026-04-19T14:33:35.999Z</time></trkpt><trkpt lat="41.047583770864655" lon="0.9964274046728094"><ele>10.666666666666666</ele><time>2026-04-19T14:33:36.999Z</time></trkpt><trkpt lat="41.04747705373065" lon="0.9961699034967885"><ele>11.0</ele><time>2026-04-19T14:33:37.999Z</time></trkpt><trkpt lat="41.047385298099265" lon="0.9959166548677469"><ele>10.333333333333332</ele><time>2026-04-19T14:33:38.999Z</time></trkpt><trkpt lat="41.047311313016806" lon="0.9956555518151843"><ele>9.666666666666666</ele><time>2026-04-19T14:33:39.999Z</time></trkpt><trkpt lat="41.047244805976796" lon="0.995389758080363"><ele>9.0</ele><time>2026-04-19T14:33:40.999Z</time></trkpt><trkpt lat="41.04717955728929" lon="0.9951183296227839"><ele>9.333333333333334</ele><time>2026-04-19T14:33:41.999Z</time></trkpt><trkpt lat="41.0471084142065" lon="0.9948510909989973"><ele>9.666666666666668</ele><time>2026-04-19T14:33:42.999Z</time></trkpt><trkpt lat="41.0470386328186" lon="0.9945846691701771"><ele>10.0</ele><time>2026-04-19T14:33:43.999Z</time></trkpt><trkpt lat="41.04697120859024" lon="0.9943319462158665"><ele>10.333333333333334</ele><time>2026-04-19T14:33:44.999Z</time></trkpt><trkpt lat="41.04690233708864" lon="0.9940776737400074"><ele>10.666666666666666</ele><time>2026-04-19T14:33:45.999Z</time></trkpt><trkpt lat="41.04683416116074" lon="0.9938164722712566"><ele>11.0</ele><time>2026-04-19T14:33:46.999Z</time></trkpt><trkpt lat="41.04676717616928" lon="0.993556289526137"><ele>11.333333333333332</ele><time>2026-04-19T14:33:47.999Z</time></trkpt><trkpt lat="41.04669816632878" lon="0.993298624271542"><ele>11.666666666666666</ele><time>2026-04-19T14:33:48.999Z</time></trkpt><trkpt lat="41.04663159395095" lon="0.99304628183472"><ele>12.0</ele><time>2026-04-19T14:33:49.999Z</time></trkpt><trkpt lat="41.04656906671037" lon="0.9928040049304897"><ele>11.666666666666666</ele><time>2026-04-19T14:33:50.999Z</time></trkpt><trkpt lat="41.046504874723816" lon="0.9925659768967013"><ele>11.333333333333332</ele><time>2026-04-19T14:33:51.999Z</time></trkpt><trkpt lat="41.04644300605203" lon="0.9923218628883081"><ele>11.0</ele><time>2026-04-19T14:33:52.999Z</time></trkpt><trkpt lat="41.04638212313768" lon="0.9920767601364581"><ele>11.0</ele><time>2026-04-19T14:33:53.999Z</time></trkpt><trkpt lat="41.046319223576255" lon="0.9918319090677506"><ele>11.0</ele><time>2026-04-19T14:33:54.999Z</time></trkpt><trkpt lat="41.04625126148662" lon="0.9915948549574868"><ele>11.0</ele><time>2026-04-19T14:33:55.999Z</time></trkpt><trkpt lat="41.04617894805355" lon="0.9913576720562579"><ele>11.333333333333332</ele><time>2026-04-19T14:33:56.999Z</time></trkpt><trkpt lat="41.04609101771139" lon="0.991122977824898"><ele>11.666666666666666</ele><time>2026-04-19T14:33:57.999Z</time></trkpt><trkpt lat="41.04598700070035" lon="0.9908941443652352"><ele>12.0</ele><time>2026-04-19T14:33:58.999Z</time></trkpt><trkpt lat="41.04587454925023" lon="0.9906748666150296"><ele>11.666666666666666</ele><time>2026-04-19T14:33:59.999Z</time></trkpt><trkpt lat="41.04576270537544" lon="0.9904495994636914"><ele>11.333333333333332</ele><time>2026-04-19T14:34:00.999Z</time></trkpt><trkpt lat="41.04566169937341" lon="0.9902396278427592"><ele>11.0</ele><time>2026-04-19T14:34:01.999Z</time></trkpt><trkpt lat="41.04556044640259" lon="0.9900286677664333"><ele>11.333333333333332</ele><time>2026-04-19T14:34:02.999Z</time></trkpt><trkpt lat="41.045456171552395" lon="0.9898121447115785"><ele>11.666666666666666</ele><time>2026-04-19T14:34:03.999Z</time></trkpt><trkpt lat="41.04534581341338" lon="0.9895907288576168"><ele>12.0</ele><time>2026-04-19T14:34:04.999Z</time></trkpt><trkpt lat="41.045238058856135" lon="0.9893668177787723"><ele>12.0</ele><time>2026-04-19T14:34:05.999Z</time></trkpt><trkpt lat="41.0451359707087" lon="0.989152513331247"><ele>12.0</ele><time>2026-04-19T14:34:06.999Z</time></trkpt><trkpt lat="41.04503967862534" lon="0.9889473710996268"><ele>12.0</ele><time>2026-04-19T14:34:07.999Z</time></trkpt><trkpt lat="41.04493780775173" lon="0.9887337282453055"><ele>12.0</ele><time>2026-04-19T14:34:08.999Z</time></trkpt><trkpt lat="41.044830835347845" lon="0.988512911238226"><ele>12.0</ele><time>2026-04-19T14:34:09.999Z</time></trkpt><trkpt lat="41.04472021877695" lon="0.988291890810754"><ele>12.0</ele><time>2026-04-19T14:34:10.999Z</time></trkpt><trkpt lat="41.044610107764505" lon="0.9880633136166416"><ele>11.666666666666666</ele><time>2026-04-19T14:34:11.999Z</time></trkpt><trkpt lat="41.04449884623649" lon="0.9878327242276421"><ele>11.333333333333332</ele><time>2026-04-19T14:34:12.999Z</time></trkpt><trkpt lat="41.04438956771642" lon="0.9875974792144888"><ele>11.0</ele><time>2026-04-19T14:34:13.999Z</time></trkpt><trkpt lat="41.044281448066535" lon="0.9873695434457687"><ele>11.0</ele><time>2026-04-19T14:34:14.999Z</time></trkpt><trkpt lat="41.04417553865145" lon="0.98714885943059"><ele>11.0</ele><time>2026-04-19T14:34:15.999Z</time></trkpt><trkpt lat="41.04406768032998" lon="0.9869276306818582"><ele>11.0</ele><time>2026-04-19T14:34:16.999Z</time></trkpt><trkpt lat="41.04396259046975" lon="0.986713015268171"><ele>11.666666666666666</ele><time>2026-04-19T14:34:17.999Z</time></trkpt><trkpt lat="41.04385804087015" lon="0.986494546266992"><ele>12.333333333333332</ele><time>2026-04-19T14:34:18.999Z</time></trkpt><trkpt lat="41.04375311377078" lon="0.9862762192794047"><ele>13.0</ele><time>2026-04-19T14:34:19.999Z</time></trkpt><trkpt lat="41.043648626678745" lon="0.9860564271309723"><ele>12.666666666666666</ele><time>2026-04-19T14:34:20.999Z</time></trkpt><trkpt lat="41.04354363241884" lon="0.9858353509664248"><ele>12.333333333333332</ele><time>2026-04-19T14:34:21.999Z</time></trkpt><trkpt lat="41.0434361412886" lon="0.985613477040743"><ele>12.0</ele><time>2026-04-19T14:34:22.999Z</time></trkpt><trkpt lat="41.04332887371502" lon="0.9853893528750833"><ele>11.666666666666666</ele><time>2026-04-19T14:34:23.999Z</time></trkpt><trkpt lat="41.04322538353674" lon="0.9851713602855565"><ele>11.333333333333332</ele><time>2026-04-19T14:34:24.999Z</time></trkpt><trkpt lat="41.04312139328832" lon="0.9849532552260372"><ele>11.0</ele><time>2026-04-19T14:34:25.999Z</time></trkpt><trkpt lat="41.043016789616196" lon="0.9847336482518824"><ele>11.0</ele><time>2026-04-19T14:34:26.998Z</time></trkpt><trkpt lat="41.042913038089324" lon="0.9845107883808757"><ele>11.0</ele><time>2026-04-19T14:34:27.998Z</time></trkpt><trkpt lat="41.04280562805392" lon="0.9842902824958342"><ele>11.0</ele><time>2026-04-19T14:34:28.998Z</time></trkpt><trkpt lat="41.04270074104702" lon="0.9840729334129588"><ele>11.333333333333332</ele><time>2026-04-19T14:34:29.998Z</time></trkpt><trkpt lat="41.04259632548616" lon="0.9838588089043107"><ele>11.666666666666666</ele><time>2026-04-19T14:34:30.998Z</time></trkpt><trkpt lat="41.04249291387179" lon="0.9836480550980313"><ele>12.0</ele><time>2026-04-19T14:34:31.998Z</time></trkpt><trkpt lat="41.042391293630416" lon="0.9834357176266939"><ele>11.333333333333334</ele><time>2026-04-19T14:34:32.998Z</time></trkpt><trkpt lat="41.04229420089172" lon="0.983225191620924"><ele>10.666666666666668</ele><time>2026-04-19T14:34:33.998Z</time></trkpt><trkpt lat="41.04219512055515" lon="0.9830141591028309"><ele>10.0</ele><time>2026-04-19T14:34:35Z</time></trkpt><trkpt lat="41.04209272354714" lon="0.9827988574822251"><ele>10.0</ele><time>2026-04-19T14:34:36Z</time></trkpt><trkpt lat="41.0419887838715" lon="0.9825819829871102"><ele>10.0</ele><time>2026-04-19T14:34:37Z</time></trkpt><trkpt lat="41.04188280528047" lon="0.98236440727554"><ele>10.0</ele><time>2026-04-19T14:34:38Z</time></trkpt><trkpt lat="41.041777914610655" lon="0.982141324807496"><ele>10.0</ele><time>2026-04-19T14:34:39Z</time></trkpt><trkpt lat="41.04167488070077" lon="0.981923298280195"><ele>10.0</ele><time>2026-04-19T14:34:40Z</time></trkpt><trkpt lat="41.04156669377182" lon="0.9817038768580832"><ele>10.0</ele><time>2026-04-19T14:34:41Z</time></trkpt><trkpt lat="41.041461010570096" lon="0.9814826529489948"><ele>9.666666666666668</ele><time>2026-04-19T14:34:42Z</time></trkpt><trkpt lat="41.041355270990536" lon="0.9812622745230565"><ele>9.333333333333334</ele><time>2026-04-19T14:34:43Z</time></trkpt><trkpt lat="41.04125222449277" lon="0.981046088984631"><ele>9.0</ele><time>2026-04-19T14:34:44Z</time></trkpt><trkpt lat="41.04114827137608" lon="0.9808242514119073"><ele>10.0</ele><time>2026-04-19T14:34:45Z</time></trkpt><trkpt lat="41.041044640642234" lon="0.9806082500988376"><ele>11.0</ele><time>2026-04-19T14:34:46Z</time></trkpt><trkpt lat="41.04094145873729" lon="0.9803950211600144"><ele>12.0</ele><time>2026-04-19T14:34:47Z</time></trkpt><trkpt lat="41.04083952584241" lon="0.9801813331461725"><ele>11.0</ele><time>2026-04-19T14:34:48Z</time></trkpt><trkpt lat="41.04073314078346" lon="0.9799685735620288"><ele>10.0</ele><time>2026-04-19T14:34:49Z</time></trkpt><trkpt lat="41.040627339718135" lon="0.9797518528419915"><ele>9.0</ele><time>2026-04-19T14:34:50Z</time></trkpt><trkpt lat="41.04052376087098" lon="0.9795320922785147"><ele>9.0</ele><time>2026-04-19T14:34:51Z</time></trkpt><trkpt lat="41.04042016367914" lon="0.9793155948180018"><ele>9.0</ele><time>2026-04-19T14:34:52Z</time></trkpt><trkpt lat="41.04031837751558" lon="0.9790980224472755"><ele>9.0</ele><time>2026-04-19T14:34:53Z</time></trkpt><trkpt lat="41.04021467115802" lon="0.9788819024850283"><ele>9.0</ele><time>2026-04-19T14:34:54Z</time></trkpt><trkpt lat="41.04011096151976" lon="0.9786682132659612"><ele>9.0</ele><time>2026-04-19T14:34:55Z</time></trkpt><trkpt lat="41.04000581544624" lon="0.9784514196419967"><ele>9.0</ele><time>2026-04-19T14:34:56Z</time></trkpt><trkpt lat="41.0399048575297" lon="0.9782348028072718"><ele>9.333333333333334</ele><time>2026-04-19T14:34:57Z</time></trkpt><trkpt lat="41.039804099646" lon="0.97801902009565"><ele>9.666666666666668</ele><time>2026-04-19T14:34:58Z</time></trkpt><trkpt lat="41.039699606434034" lon="0.977808189096487"><ele>10.0</ele><time>2026-04-19T14:34:59Z</time></trkpt><trkpt lat="41.03959481990306" lon="0.9775942985799695"><ele>11.0</ele><time>2026-04-19T14:35:00Z</time></trkpt><trkpt lat="41.03949148411867" lon="0.9773803396902997"><ele>12.0</ele><time>2026-04-19T14:35:01Z</time></trkpt><trkpt lat="41.0393879068692" lon="0.9771622757350819"><ele>13.0</ele><time>2026-04-19T14:35:02Z</time></trkpt><trkpt lat="41.03928220529415" lon="0.9769407197238947"><ele>13.0</ele><time>2026-04-19T14:35:03Z</time></trkpt><trkpt lat="41.03917620360815" lon="0.9767196724218007"><ele>13.0</ele><time>2026-04-19T14:35:04Z</time></trkpt><trkpt lat="41.039069949108544" lon="0.9764989404343029"><ele>13.0</ele><time>2026-04-19T14:35:05Z</time></trkpt><trkpt lat="41.038963142407844" lon="0.9762826837624653"><ele>12.666666666666666</ele><time>2026-04-19T14:35:06Z</time></trkpt><trkpt lat="41.03885364775691" lon="0.9760684082826327"><ele>12.333333333333332</ele><time>2026-04-19T14:35:07Z</time></trkpt><trkpt lat="41.038749012453344" lon="0.9758541886551623"><ele>12.0</ele><time>2026-04-19T14:35:08Z</time></trkpt><trkpt lat="41.03864326534215" lon="0.9756383941130845"><ele>12.0</ele><time>2026-04-19T14:35:09Z</time></trkpt><trkpt lat="41.03854042998715" lon="0.9754239900517543"><ele>12.0</ele><time>2026-04-19T14:35:10Z</time></trkpt><trkpt lat="41.0384342717635" lon="0.9752113220995806"><ele>12.0</ele><time>2026-04-19T14:35:11Z</time></trkpt><trkpt lat="41.03833220877299" lon="0.9749961005217251"><ele>12.333333333333332</ele><time>2026-04-19T14:35:12Z</time></trkpt><trkpt lat="41.03823122860814" lon="0.9747803197797824"><ele>12.666666666666666</ele><time>2026-04-19T14:35:13Z</time></trkpt><trkpt lat="41.038134195234775" lon="0.974573134676052"><ele>13.0</ele><time>2026-04-19T14:35:14Z</time></trkpt><trkpt lat="41.038033214269944" lon="0.9743628548814872"><ele>13.0</ele><time>2026-04-19T14:35:15Z</time></trkpt><trkpt lat="41.03792997904859" lon="0.9741494486248246"><ele>13.0</ele><time>2026-04-19T14:35:16Z</time></trkpt><trkpt lat="41.0378270819515" lon="0.9739392029362859"><ele>13.0</ele><time>2026-04-19T14:35:17Z</time></trkpt><trkpt lat="41.037723769042984" lon="0.9737277156872082"><ele>13.0</ele><time>2026-04-19T14:35:18Z</time></trkpt><trkpt lat="41.03761457666279" lon="0.9735075022589311"><ele>13.0</ele><time>2026-04-19T14:35:19Z</time></trkpt><trkpt lat="41.03750930687228" lon="0.9732815873107393"><ele>13.0</ele><time>2026-04-19T14:35:20Z</time></trkpt><trkpt lat="41.037405334860104" lon="0.9730559487835689"><ele>12.666666666666666</ele><time>2026-04-19T14:35:21Z</time></trkpt><trkpt lat="41.03729341379912" lon="0.9728327668787311"><ele>12.333333333333332</ele><time>2026-04-19T14:35:22Z</time></trkpt><trkpt lat="41.03718482048893" lon="0.9726126299127938"><ele>12.0</ele><time>2026-04-19T14:35:22.999Z</time></trkpt><trkpt lat="41.037079113149495" lon="0.9724008923424972"><ele>12.666666666666668</ele><time>2026-04-19T14:35:23.999Z</time></trkpt><trkpt lat="41.03697443868302" lon="0.9721906471763825"><ele>13.333333333333334</ele><time>2026-04-19T14:35:24.999Z</time></trkpt><trkpt lat="41.036868679508665" lon="0.9719793089866624"><ele>14.0</ele><time>2026-04-19T14:35:25.999Z</time></trkpt><trkpt lat="41.03676777371314" lon="0.9717561862066164"><ele>14.0</ele><time>2026-04-19T14:35:26.999Z</time></trkpt><trkpt lat="41.03665941103785" lon="0.9715347540956947"><ele>14.0</ele><time>2026-04-19T14:35:27.999Z</time></trkpt><trkpt lat="41.03654599863941" lon="0.9713267610365076"><ele>14.0</ele><time>2026-04-19T14:35:28.999Z</time></trkpt><trkpt lat="41.03641525027813" lon="0.9711325523349115"><ele>14.0</ele><time>2026-04-19T14:35:29.999Z</time></trkpt><trkpt lat="41.03627317457588" lon="0.9709498101853953"><ele>14.0</ele><time>2026-04-19T14:35:30.999Z</time></trkpt><trkpt lat="41.03611584366692" lon="0.9707910447130106"><ele>14.0</ele><time>2026-04-19T14:35:31.999Z</time></trkpt><trkpt lat="41.03594865254614" lon="0.9706356142706122"><ele>14.0</ele><time>2026-04-19T14:35:32.999Z</time></trkpt><trkpt lat="41.035778837942075" lon="0.9704768262319607"><ele>14.0</ele><time>2026-04-19T14:35:33.999Z</time></trkpt><trkpt lat="41.03560850684695" lon="0.9703099986105895"><ele>14.0</ele><time>2026-04-19T14:35:34.999Z</time></trkpt><trkpt lat="41.035438513457876" lon="0.9701483594052841"><ele>13.666666666666668</ele><time>2026-04-19T14:35:35.999Z</time></trkpt><trkpt lat="41.03527137375345" lon="0.9699808153221071"><ele>13.333333333333332</ele><time>2026-04-19T14:35:36.999Z</time></trkpt><trkpt lat="41.035104434122445" lon="0.9698181823562722"><ele>13.0</ele><time>2026-04-19T14:35:37.999Z</time></trkpt><trkpt lat="41.03493900513452" lon="0.9696629021548391"><ele>12.666666666666666</ele><time>2026-04-19T14:35:38.999Z</time></trkpt><trkpt lat="41.03478940803814" lon="0.9694920199649267"><ele>12.333333333333332</ele><time>2026-04-19T14:35:39.999Z</time></trkpt><trkpt lat="41.03462864666233" lon="0.9693338239293646"><ele>12.0</ele><time>2026-04-19T14:35:40.999Z</time></trkpt><trkpt lat="41.03445301135922" lon="0.9691915689333735"><ele>12.0</ele><time>2026-04-19T14:35:41.999Z</time></trkpt><trkpt lat="41.034290849107904" lon="0.9690385253732271"><ele>12.0</ele><time>2026-04-19T14:35:42.999Z</time></trkpt><trkpt lat="41.03413178151935" lon="0.9688848288940803"><ele>12.0</ele><time>2026-04-19T14:35:43.999Z</time></trkpt><trkpt lat="41.03397359710119" lon="0.968725900906808"><ele>11.666666666666666</ele><time>2026-04-19T14:35:44.999Z</time></trkpt><trkpt lat="41.0338166070812" lon="0.9685708667020075"><ele>11.333333333333332</ele><time>2026-04-19T14:35:45.999Z</time></trkpt><trkpt lat="41.03366078448208" lon="0.9684245226274228"><ele>11.0</ele><time>2026-04-19T14:35:46.999Z</time></trkpt><trkpt lat="41.03349940654624" lon="0.9682691850286772"><ele>10.666666666666666</ele><time>2026-04-19T14:35:47.999Z</time></trkpt><trkpt lat="41.033341538075035" lon="0.9681160018551614"><ele>10.333333333333334</ele><time>2026-04-19T14:35:48.999Z</time></trkpt><trkpt lat="41.03318265543302" lon="0.9679624692144638"><ele>10.0</ele><time>2026-04-19T14:35:49.999Z</time></trkpt><trkpt lat="41.03302674483622" lon="0.967809525647642"><ele>10.0</ele><time>2026-04-19T14:35:50.999Z</time></trkpt><trkpt lat="41.03287173450337" lon="0.9676595724003739"><ele>10.0</ele><time>2026-04-19T14:35:51.999Z</time></trkpt><trkpt lat="41.03271886830699" lon="0.9675084173694769"><ele>10.0</ele><time>2026-04-19T14:35:52.999Z</time></trkpt><trkpt lat="41.032574582954354" lon="0.9673426990768752"><ele>9.333333333333334</ele><time>2026-04-19T14:35:53.999Z</time></trkpt><trkpt lat="41.03241628065416" lon="0.9671877636425146"><ele>8.666666666666666</ele><time>2026-04-19T14:35:54.999Z</time></trkpt><trkpt lat="41.032253246676234" lon="0.9670281972592674"><ele>8.0</ele><time>2026-04-19T14:35:55.999Z</time></trkpt><trkpt lat="41.03207468728399" lon="0.9668892737985292"><ele>8.0</ele><time>2026-04-19T14:35:56.999Z</time></trkpt><trkpt lat="41.031904915379044" lon="0.9667230037547396"><ele>8.0</ele><time>2026-04-19T14:35:57.999Z</time></trkpt><trkpt lat="41.031737429227206" lon="0.9665555991305377"><ele>8.0</ele><time>2026-04-19T14:35:58.999Z</time></trkpt><trkpt lat="41.031569843792134" lon="0.966392213141286"><ele>8.0</ele><time>2026-04-19T14:35:59.999Z</time></trkpt><trkpt lat="41.03141038811693" lon="0.9662275748434322"><ele>8.0</ele><time>2026-04-19T14:36:00.999Z</time></trkpt><trkpt lat="41.03124486480304" lon="0.9660699401460736"><ele>8.0</ele><time>2026-04-19T14:36:01.999Z</time></trkpt><trkpt lat="41.031084119291386" lon="0.9659081539404639"><ele>8.0</ele><time>2026-04-19T14:36:02.999Z</time></trkpt><trkpt lat="41.03091740822153" lon="0.9657477135672883"><ele>8.0</ele><time>2026-04-19T14:36:03.999Z</time></trkpt><trkpt lat="41.030751459282975" lon="0.9655851154781484"><ele>8.0</ele><time>2026-04-19T14:36:04.999Z</time></trkpt><trkpt lat="41.03058508561972" lon="0.9654225328148605"><ele>8.0</ele><time>2026-04-19T14:36:05.999Z</time></trkpt><trkpt lat="41.030422844978844" lon="0.965263858481494"><ele>8.0</ele><time>2026-04-19T14:36:06.999Z</time></trkpt><trkpt lat="41.03026918207287" lon="0.9650842251847696"><ele>8.0</ele><time>2026-04-19T14:36:07.999Z</time></trkpt><trkpt lat="41.03009968775545" lon="0.9649447880025411"><ele>7.0</ele><time>2026-04-19T14:36:08.999Z</time></trkpt><trkpt lat="41.02994062564413" lon="0.9647845332863464"><ele>6.0</ele><time>2026-04-19T14:36:09.999Z</time></trkpt><trkpt lat="41.029780012116916" lon="0.9646238651800694"><ele>5.0</ele><time>2026-04-19T14:36:10.999Z</time></trkpt><trkpt lat="41.02961756711616" lon="0.9644639874437616"><ele>5.0</ele><time>2026-04-19T14:36:11.999Z</time></trkpt><trkpt lat="41.0294567715099" lon="0.9643040704756664"><ele>5.0</ele><time>2026-04-19T14:36:12.999Z</time></trkpt><trkpt lat="41.029291545969855" lon="0.9641471104790275"><ele>5.0</ele><time>2026-04-19T14:36:13.999Z</time></trkpt><trkpt lat="41.02913995836738" lon="0.9639660375353235"><ele>4.666666666666667</ele><time>2026-04-19T14:36:14.999Z</time></trkpt><trkpt lat="41.02896739229876" lon="0.9638144199484412"><ele>4.333333333333333</ele><time>2026-04-19T14:36:15.999Z</time></trkpt><trkpt lat="41.02881793515196" lon="0.9636321786407753"><ele>4.0</ele><time>2026-04-19T14:36:16.999Z</time></trkpt><trkpt lat="41.02865653108886" lon="0.9634591681450481"><ele>4.0</ele><time>2026-04-19T14:36:17.999Z</time></trkpt><trkpt lat="41.02849391857343" lon="0.9632883563137749"><ele>4.0</ele><time>2026-04-19T14:36:18.999Z</time></trkpt><trkpt lat="41.028333880891466" lon="0.9631196066203785"><ele>4.0</ele><time>2026-04-19T14:36:19.999Z</time></trkpt><trkpt lat="41.02816843941936" lon="0.9629434119543223"><ele>4.0</ele><time>2026-04-19T14:36:20.999Z</time></trkpt><trkpt lat="41.027993305747934" lon="0.9627764306935025"><ele>4.0</ele><time>2026-04-19T14:36:21.999Z</time></trkpt><trkpt lat="41.02783948853823" lon="0.9625805533779548"><ele>4.0</ele><time>2026-04-19T14:36:22.999Z</time></trkpt><trkpt lat="41.027673795279256" lon="0.9624160198152548"><ele>4.333333333333333</ele><time>2026-04-19T14:36:23.999Z</time></trkpt><trkpt lat="41.02752016969851" lon="0.9622251811698761"><ele>4.666666666666667</ele><time>2026-04-19T14:36:24.999Z</time></trkpt><trkpt lat="41.02739511931896" lon="0.9620026412644858"><ele>5.0</ele><time>2026-04-19T14:36:25.999Z</time></trkpt><trkpt lat="41.02726169264974" lon="0.9617841608266859"><ele>5.0</ele><time>2026-04-19T14:36:26.999Z</time></trkpt><trkpt lat="41.02712682849061" lon="0.9615625967157962"><ele>5.0</ele><time>2026-04-19T14:36:27.999Z</time></trkpt><trkpt lat="41.02700994894787" lon="0.9613131144231862"><ele>5.0</ele><time>2026-04-19T14:36:28.998Z</time></trkpt><trkpt lat="41.02691626924885" lon="0.9610457241626598"><ele>4.333333333333334</ele><time>2026-04-19T14:36:29.998Z</time></trkpt><trkpt lat="41.026803909520225" lon="0.9607966750147535"><ele>3.666666666666667</ele><time>2026-04-19T14:36:30.998Z</time></trkpt><trkpt lat="41.02671299846005" lon="0.9605493822854744"><ele>3.0</ele><time>2026-04-19T14:36:31.998Z</time></trkpt><trkpt lat="41.02662511035066" lon="0.9603031065144065"><ele>3.0</ele><time>2026-04-19T14:36:32.998Z</time></trkpt><trkpt lat="41.02653720720795" lon="0.9600619529830783"><ele>3.0</ele><time>2026-04-19T14:36:33.998Z</time></trkpt><trkpt lat="41.02644354625731" lon="0.9598359061101587"><ele>3.0</ele><time>2026-04-19T14:36:34.998Z</time></trkpt><trkpt lat="41.02634913886673" lon="0.9595976544494919"><ele>3.666666666666667</ele><time>2026-04-19T14:36:35.998Z</time></trkpt><trkpt lat="41.02624915628761" lon="0.9593662679851439"><ele>4.333333333333334</ele><time>2026-04-19T14:36:36.998Z</time></trkpt><trkpt lat="41.02613745166258" lon="0.9591385834093964"><ele>5.0</ele><time>2026-04-19T14:36:37.998Z</time></trkpt><trkpt lat="41.02601486980514" lon="0.9589123590925412"><ele>4.333333333333334</ele><time>2026-04-19T14:36:38.998Z</time></trkpt><trkpt lat="41.02588398164977" lon="0.9586875922726228"><ele>3.666666666666667</ele><time>2026-04-19T14:36:39.998Z</time></trkpt><trkpt lat="41.025744697271676" lon="0.958457817744738"><ele>3.0</ele><time>2026-04-19T14:36:41Z</time></trkpt><trkpt lat="41.02560080713273" lon="0.9582411957615893"><ele>3.0</ele><time>2026-04-19T14:36:42Z</time></trkpt><trkpt lat="41.025447738340425" lon="0.9580209071724661"><ele>3.0</ele><time>2026-04-19T14:36:43Z</time></trkpt><trkpt lat="41.0253012472346" lon="0.9577962947199438"><ele>3.0</ele><time>2026-04-19T14:36:44Z</time></trkpt><trkpt lat="41.02515031500891" lon="0.9575774030852324"><ele>3.0</ele><time>2026-04-19T14:36:45Z</time></trkpt><trkpt lat="41.02500478992806" lon="0.957362745833211"><ele>3.0</ele><time>2026-04-19T14:36:46Z</time></trkpt><trkpt lat="41.02486111823415" lon="0.9571576626325368"><ele>4.333333333333334</ele><time>2026-04-19T14:36:47Z</time></trkpt><trkpt lat="41.024720604812" lon="0.9569547702066153"><ele>5.666666666666667</ele><time>2026-04-19T14:36:48Z</time></trkpt><trkpt lat="41.02458399446173" lon="0.9567534666624465"><ele>7.0</ele><time>2026-04-19T14:36:49Z</time></trkpt><trkpt lat="41.02444703024027" lon="0.9565589028991996"><ele>7.333333333333334</ele><time>2026-04-19T14:36:50Z</time></trkpt><trkpt lat="41.0243051160138" lon="0.9563656686728212"><ele>7.666666666666666</ele><time>2026-04-19T14:36:51Z</time></trkpt><trkpt lat="41.02415317564534" lon="0.9561831020544838"><ele>8.0</ele><time>2026-04-19T14:36:52Z</time></trkpt><trkpt lat="41.02400302093214" lon="0.9560097050542299"><ele>8.666666666666666</ele><time>2026-04-19T14:36:53Z</time></trkpt><trkpt lat="41.02384970934278" lon="0.955843383663122"><ele>9.333333333333334</ele><time>2026-04-19T14:36:54Z</time></trkpt><trkpt lat="41.023695771944396" lon="0.9556813214507393"><ele>10.0</ele><time>2026-04-19T14:36:55Z</time></trkpt><trkpt lat="41.0235323068364" lon="0.9555379281008004"><ele>10.0</ele><time>2026-04-19T14:36:56Z</time></trkpt><trkpt lat="41.02337311533179" lon="0.9553860868441978"><ele>10.0</ele><time>2026-04-19T14:36:57Z</time></trkpt><trkpt lat="41.023212100482226" lon="0.9552375613916653"><ele>10.0</ele><time>2026-04-19T14:36:58Z</time></trkpt><trkpt lat="41.023041519190215" lon="0.955088343991674"><ele>9.0</ele><time>2026-04-19T14:36:59Z</time></trkpt><trkpt lat="41.02286413500265" lon="0.9549366678011771"><ele>8.0</ele><time>2026-04-19T14:37:00Z</time></trkpt><trkpt lat="41.022686872003234" lon="0.9547858167916602"><ele>7.0</ele><time>2026-04-19T14:37:01Z</time></trkpt><trkpt lat="41.02251038942471" lon="0.9546347999577088"><ele>7.0</ele><time>2026-04-19T14:37:02Z</time></trkpt><trkpt lat="41.022335713764136" lon="0.9544850537425275"><ele>7.0</ele><time>2026-04-19T14:37:03Z</time></trkpt><trkpt lat="41.02216280406782" lon="0.954333785767555"><ele>7.0</ele><time>2026-04-19T14:37:04Z</time></trkpt><trkpt lat="41.02199605518985" lon="0.9541887040096838"><ele>6.333333333333334</ele><time>2026-04-19T14:37:05Z</time></trkpt><trkpt lat="41.02182671561262" lon="0.9540471408432775"><ele>5.666666666666667</ele><time>2026-04-19T14:37:06Z</time></trkpt><trkpt lat="41.021654963890754" lon="0.9538985334296584"><ele>5.0</ele><time>2026-04-19T14:37:07Z</time></trkpt><trkpt lat="41.02148257334336" lon="0.9537502135997675"><ele>6.333333333333334</ele><time>2026-04-19T14:37:08Z</time></trkpt><trkpt lat="41.02131077767307" lon="0.9536019406978486"><ele>7.666666666666667</ele><time>2026-04-19T14:37:09Z</time></trkpt><trkpt lat="41.02114032852312" lon="0.9534500983334012"><ele>9.0</ele><time>2026-04-19T14:37:10Z</time></trkpt><trkpt lat="41.02097150061486" lon="0.9533021527000624"><ele>10.0</ele><time>2026-04-19T14:37:11Z</time></trkpt><trkpt lat="41.02080756820596" lon="0.9531550041172338"><ele>11.0</ele><time>2026-04-19T14:37:12Z</time></trkpt><trkpt lat="41.02064690661765" lon="0.9530087664300936"><ele>12.0</ele><time>2026-04-19T14:37:13Z</time></trkpt><trkpt lat="41.020493607809755" lon="0.9528569092590675"><ele>12.0</ele><time>2026-04-19T14:37:14Z</time></trkpt><trkpt lat="41.020347027233534" lon="0.9527108201938972"><ele>12.0</ele><time>2026-04-19T14:37:15Z</time></trkpt><trkpt lat="41.020202329961435" lon="0.9525645254554079"><ele>12.0</ele><time>2026-04-19T14:37:16Z</time></trkpt><trkpt lat="41.02005882027634" lon="0.9524162904802352"><ele>12.666666666666668</ele><time>2026-04-19T14:37:17Z</time></trkpt><trkpt lat="41.019917725201616" lon="0.952275699309469"><ele>13.333333333333334</ele><time>2026-04-19T14:37:18Z</time></trkpt><trkpt lat="41.01978324248614" lon="0.9521378592814336"><ele>14.0</ele><time>2026-04-19T14:37:19Z</time></trkpt><trkpt lat="41.0196532742081" lon="0.9520048418643652"><ele>14.0</ele><time>2026-04-19T14:37:20Z</time></trkpt><trkpt lat="41.01953447784384" lon="0.9518797096434338"><ele>14.0</ele><time>2026-04-19T14:37:21Z</time></trkpt><trkpt lat="41.019410366033064" lon="0.9517524610072357"><ele>14.0</ele><time>2026-04-19T14:37:22Z</time></trkpt><trkpt lat="41.0192863298846" lon="0.9516213345225447"><ele>14.0</ele><time>2026-04-19T14:37:23Z</time></trkpt><trkpt lat="41.01916276089757" lon="0.9514886370123026"><ele>14.0</ele><time>2026-04-19T14:37:24Z</time></trkpt><trkpt lat="41.01903533612575" lon="0.9513484285164238"><ele>14.0</ele><time>2026-04-19T14:37:25Z</time></trkpt><trkpt lat="41.018906186122884" lon="0.9512116297926629"><ele>15.0</ele><time>2026-04-19T14:37:26Z</time></trkpt><trkpt lat="41.01877925055885" lon="0.9510791526957242"><ele>16.0</ele><time>2026-04-19T14:37:27Z</time></trkpt><trkpt lat="41.01865046908341" lon="0.9509487749910498"><ele>17.0</ele><time>2026-04-19T14:37:28Z</time></trkpt><trkpt lat="41.01852099087622" lon="0.9508170845959526"><ele>17.0</ele><time>2026-04-19T14:37:29Z</time></trkpt><trkpt lat="41.01839569155664" lon="0.9506836600508235"><ele>17.0</ele><time>2026-04-19T14:37:30Z</time></trkpt><trkpt lat="41.01826062380588" lon="0.9505440917545163"><ele>17.0</ele><time>2026-04-19T14:37:31Z</time></trkpt><trkpt lat="41.01812447120122" lon="0.9504041635713804"><ele>17.333333333333336</ele><time>2026-04-19T14:37:31.999Z</time></trkpt><trkpt lat="41.0179907300245" lon="0.9502675815145258"><ele>17.666666666666668</ele><time>2026-04-19T14:37:32.999Z</time></trkpt><trkpt lat="41.01786062747483" lon="0.9501313255914928"><ele>18.0</ele><time>2026-04-19T14:37:33.999Z</time></trkpt><trkpt lat="41.01773092771792" lon="0.9499969082319323"><ele>17.666666666666668</ele><time>2026-04-19T14:37:34.999Z</time></trkpt><trkpt lat="41.017600537233236" lon="0.9498626095795506"><ele>17.333333333333336</ele><time>2026-04-19T14:37:35.999Z</time></trkpt><trkpt lat="41.017468461808" lon="0.949723640008784"><ele>17.0</ele><time>2026-04-19T14:37:36.999Z</time></trkpt><trkpt lat="41.01734039006332" lon="0.9495901428958634"><ele>17.0</ele><time>2026-04-19T14:37:37.999Z</time></trkpt><trkpt lat="41.017213887623555" lon="0.9494593959132175"><ele>17.0</ele><time>2026-04-19T14:37:38.999Z</time></trkpt><trkpt lat="41.01709202055049" lon="0.9493338533879957"><ele>17.0</ele><time>2026-04-19T14:37:39.999Z</time></trkpt><trkpt lat="41.016974033188575" lon="0.9492107646924988"><ele>17.0</ele><time>2026-04-19T14:37:40.999Z</time></trkpt><trkpt lat="41.01685820618574" lon="0.9490906441311109"><ele>17.0</ele><time>2026-04-19T14:37:41.999Z</time></trkpt><trkpt lat="41.01674578528208" lon="0.9489752138274925"><ele>17.0</ele><time>2026-04-19T14:37:42.999Z</time></trkpt><trkpt lat="41.016639109510336" lon="0.948863352271731"><ele>17.0</ele><time>2026-04-19T14:37:43.999Z</time></trkpt><trkpt lat="41.016537250008675" lon="0.9487500885128209"><ele>17.25</ele><time>2026-04-19T14:37:44.999Z</time></trkpt><trkpt lat="41.016431854701494" lon="0.948642093857978"><ele>17.5</ele><time>2026-04-19T14:37:45.999Z</time></trkpt><trkpt lat="41.01634007868773" lon="0.9485481127434822"><ele>17.75</ele><time>2026-04-19T14:37:46.999Z</time></trkpt><trkpt lat="41.01625089849721" lon="0.9484542310677829"><ele>18.0</ele><time>2026-04-19T14:37:47.999Z</time></trkpt><trkpt lat="41.016156650686746" lon="0.9483595260192014"><ele>18.5</ele><time>2026-04-19T14:37:48.999Z</time></trkpt><trkpt lat="41.016060687272066" lon="0.9482584969237504"><ele>19.0</ele><time>2026-04-19T14:37:49.999Z</time></trkpt><trkpt lat="41.015958908223936" lon="0.9481484749116311"><ele>19.5</ele><time>2026-04-19T14:37:50.999Z</time></trkpt><trkpt lat="41.01586270378853" lon="0.9480407232913237"><ele>20.0</ele><time>2026-04-19T14:37:51.999Z</time></trkpt><trkpt lat="41.01576689121215" lon="0.9479243230214358"><ele>20.25</ele><time>2026-04-19T14:37:52.999Z</time></trkpt><trkpt lat="41.015675700710275" lon="0.9477946694111159"><ele>20.5</ele><time>2026-04-19T14:37:53.999Z</time></trkpt><trkpt lat="41.0155818408999" lon="0.9476644715797709"><ele>20.75</ele><time>2026-04-19T14:37:54.999Z</time></trkpt><trkpt lat="41.0154827618792" lon="0.947535869556361"><ele>21.0</ele><time>2026-04-19T14:37:55.999Z</time></trkpt><trkpt lat="41.01538732563436" lon="0.9474063063181103"><ele>20.5</ele><time>2026-04-19T14:37:56.999Z</time></trkpt><trkpt lat="41.01529159021364" lon="0.9472700874309176"><ele>20.0</ele><time>2026-04-19T14:37:57.999Z</time></trkpt><trkpt lat="41.01519728958121" lon="0.9471336995435717"><ele>19.5</ele><time>2026-04-19T14:37:58.999Z</time></trkpt><trkpt lat="41.01509992717007" lon="0.9470068640030364"><ele>19.0</ele><time>2026-04-19T14:37:59.999Z</time></trkpt><trkpt lat="41.01500605640726" lon="0.946879743242088"><ele>19.25</ele><time>2026-04-19T14:38:00.999Z</time></trkpt><trkpt lat="41.01491612542449" lon="0.9467588292537459"><ele>19.5</ele><time>2026-04-19T14:38:01.999Z</time></trkpt><trkpt lat="41.01483442469869" lon="0.9466337859706963"><ele>19.75</ele><time>2026-04-19T14:38:02.999Z</time></trkpt><trkpt lat="41.01475112952067" lon="0.946505690836832"><ele>20.0</ele><time>2026-04-19T14:38:03.999Z</time></trkpt><trkpt lat="41.01466269235456" lon="0.9463842528694957"><ele>20.5</ele><time>2026-04-19T14:38:04.999Z</time></trkpt><trkpt lat="41.014578350066486" lon="0.9462707654871454"><ele>21.0</ele><time>2026-04-19T14:38:05.999Z</time></trkpt><trkpt lat="41.01449610326244" lon="0.9461533953652045"><ele>21.5</ele><time>2026-04-19T14:38:06.999Z</time></trkpt><trkpt lat="41.0144134585832" lon="0.9460341987938243"><ele>22.0</ele><time>2026-04-19T14:38:07.999Z</time></trkpt><trkpt lat="41.01433069106159" lon="0.9459173268552571"><ele>22.0</ele><time>2026-04-19T14:38:08.999Z</time></trkpt><trkpt lat="41.01424943129237" lon="0.9458076023161267"><ele>22.0</ele><time>2026-04-19T14:38:09.999Z</time></trkpt><trkpt lat="41.01417359942351" lon="0.9456977535736772"><ele>22.0</ele><time>2026-04-19T14:38:10.999Z</time></trkpt><trkpt lat="41.01410093601647" lon="0.9455779603968777"><ele>22.0</ele><time>2026-04-19T14:38:11.999Z</time></trkpt><trkpt lat="41.01402421027528" lon="0.9454699313195799"><ele>22.0</ele><time>2026-04-19T14:38:12.999Z</time></trkpt><trkpt lat="41.0139315269397" lon="0.9453813908328579"><ele>22.0</ele><time>2026-04-19T14:38:13.999Z</time></trkpt><trkpt lat="41.01385972637012" lon="0.9452760603171954"><ele>22.0</ele><time>2026-04-19T14:38:14.999Z</time></trkpt><trkpt lat="41.01379216658824" lon="0.9451631052482714"><ele>22.0</ele><time>2026-04-19T14:38:15.999Z</time></trkpt><trkpt lat="41.01372368131348" lon="0.9450514818419778"><ele>22.0</ele><time>2026-04-19T14:38:16.999Z</time></trkpt><trkpt lat="41.013663189301354" lon="0.9449746445154172"><ele>22.166666666666664</ele><time>2026-04-19T14:38:17.999Z</time></trkpt><trkpt lat="41.01361322504153" lon="0.9448958635001166"><ele>22.333333333333332</ele><time>2026-04-19T14:38:18.999Z</time></trkpt><trkpt lat="41.01355253357555" lon="0.9448226871985552"><ele>22.5</ele><time>2026-04-19T14:38:19.999Z</time></trkpt><trkpt lat="41.01349964146285" lon="0.9447545135182273"><ele>22.666666666666668</ele><time>2026-04-19T14:38:20.999Z</time></trkpt><trkpt lat="41.013459614567324" lon="0.9446812980526232"><ele>22.833333333333336</ele><time>2026-04-19T14:38:21.999Z</time></trkpt><trkpt lat="41.01339741734201" lon="0.9445722896757351"><ele>23.0</ele><time>2026-04-19T14:38:23.999Z</time></trkpt><trkpt lat="41.01329829427271" lon="0.9446664139789047"><ele>23.0</ele><time>2026-04-19T14:38:26.999Z</time></trkpt><trkpt lat="41.01328007593971" lon="0.9447829131470672"><ele>23.0</ele><time>2026-04-19T14:38:27.999Z</time></trkpt><trkpt lat="41.013215539777654" lon="0.9448954284636665"><ele>23.0</ele><time>2026-04-19T14:38:28.999Z</time></trkpt><trkpt lat="41.01314803402072" lon="0.9450413194455445"><ele>23.0</ele><time>2026-04-19T14:38:29.999Z</time></trkpt><trkpt lat="41.013082257191755" lon="0.945165332939103"><ele>23.0</ele><time>2026-04-19T14:38:30.999Z</time></trkpt><trkpt lat="41.01302002031089" lon="0.9452763983744119"><ele>22.799999999999997</ele><time>2026-04-19T14:38:31.999Z</time></trkpt><trkpt lat="41.0129708472938" lon="0.9453653481095364"><ele>22.6</ele><time>2026-04-19T14:38:32.999Z</time></trkpt><trkpt lat="41.0129370834785" lon="0.9454396903574833"><ele>22.4</ele><time>2026-04-19T14:38:33.999Z</time></trkpt><trkpt lat="41.01286414248384" lon="0.9455221329485946"><ele>22.200000000000003</ele><time>2026-04-19T14:38:35.999Z</time></trkpt><trkpt lat="41.01275763204387" lon="0.9454171335785327"><ele>22.0</ele><time>2026-04-19T14:38:37.998Z</time></trkpt><trkpt lat="41.012678266162254" lon="0.9453400662028365"><ele>22.0</ele><time>2026-04-19T14:38:38.998Z</time></trkpt><trkpt lat="41.01257865174909" lon="0.945242536377977"><ele>22.0</ele><time>2026-04-19T14:38:39.998Z</time></trkpt><trkpt lat="41.01246989669511" lon="0.9451357712588295"><ele>22.0</ele><time>2026-04-19T14:38:40.998Z</time></trkpt><trkpt lat="41.012358255802035" lon="0.9450261731010325"><ele>22.0</ele><time>2026-04-19T14:38:41.998Z</time></trkpt><trkpt lat="41.012257292227524" lon="0.9449416013855828"><ele>22.200000000000003</ele><time>2026-04-19T14:38:42.998Z</time></trkpt><trkpt lat="41.01217714988048" lon="0.944865289667286"><ele>22.4</ele><time>2026-04-19T14:38:43.998Z</time></trkpt><trkpt lat="41.012105757468575" lon="0.9448019250417738"><ele>22.6</ele><time>2026-04-19T14:38:44.998Z</time></trkpt><trkpt lat="41.0120441479694" lon="0.944731707026643"><ele>22.799999999999997</ele><time>2026-04-19T14:38:45.998Z</time></trkpt><trkpt lat="41.0119907788685" lon="0.9446758291979782"><ele>23.0</ele><time>2026-04-19T14:38:47Z</time></trkpt><trkpt lat="41.01190003584245" lon="0.9445757903411995"><ele>23.0</ele><time>2026-04-19T14:38:49Z</time></trkpt><trkpt lat="41.011842984107595" lon="0.9445367636955183"><ele>23.0</ele><time>2026-04-19T14:38:52Z</time></trkpt><trkpt lat="41.011776219310356" lon="0.9446943787261359"><ele>23.0</ele><time>2026-04-19T14:38:53Z</time></trkpt><trkpt lat="41.0117325729975" lon="0.944758274436768"><ele>23.0</ele><time>2026-04-19T14:38:59Z</time></trkpt><trkpt lat="41.011811411825505" lon="0.9448952048049618"><ele>23.0</ele><time>2026-04-19T14:39:35Z</time></trkpt><trkpt lat="41.01189136962306" lon="0.9449597135729605"><ele>23.0</ele><time>2026-04-19T14:39:35.999Z</time></trkpt><trkpt lat="41.01195707379913" lon="0.9450297902862526"><ele>23.0</ele><time>2026-04-19T14:39:36.999Z</time></trkpt><trkpt lat="41.012021604987034" lon="0.9451181970328227"><ele>23.0</ele><time>2026-04-19T14:39:38.999Z</time></trkpt><trkpt lat="41.01209067182872" lon="0.9451697063528501"><ele>23.0</ele><time>2026-04-19T14:41:45.999Z</time></trkpt><trkpt lat="41.01215500332535" lon="0.9452075148381234"><ele>23.0</ele><time>2026-04-19T14:41:46.999Z</time></trkpt><trkpt lat="41.01221841317262" lon="0.9452914330388982"><ele>23.0</ele><time>2026-04-19T14:41:47.999Z</time></trkpt><trkpt lat="41.0123038571547" lon="0.9453491182020554"><ele>22.75</ele><time>2026-04-19T14:41:48.999Z</time></trkpt><trkpt lat="41.012409026715765" lon="0.9454516158995525"><ele>22.5</ele><time>2026-04-19T14:41:49.999Z</time></trkpt><trkpt lat="41.01250997758685" lon="0.9455714993203279"><ele>22.25</ele><time>2026-04-19T14:41:50.999Z</time></trkpt><trkpt lat="41.0126140133163" lon="0.9456698378547455"><ele>22.0</ele><time>2026-04-19T14:41:51.999Z</time></trkpt><trkpt lat="41.01272419038578" lon="0.945773981419438"><ele>22.0</ele><time>2026-04-19T14:41:52.999Z</time></trkpt><trkpt lat="41.01282088044348" lon="0.945870405443024"><ele>22.0</ele><time>2026-04-19T14:41:53.999Z</time></trkpt><trkpt lat="41.0129207500803" lon="0.9459703244215216"><ele>22.0</ele><time>2026-04-19T14:41:54.999Z</time></trkpt><trkpt lat="41.01302548026503" lon="0.946075921222461"><ele>22.0</ele><time>2026-04-19T14:41:55.999Z</time></trkpt><trkpt lat="41.01312802902682" lon="0.9462165189097251"><ele>22.0</ele><time>2026-04-19T14:41:56.999Z</time></trkpt><trkpt lat="41.01324000011573" lon="0.9463202542009118"><ele>22.0</ele><time>2026-04-19T14:41:57.999Z</time></trkpt><trkpt lat="41.01334217578143" lon="0.9464149145494888"><ele>22.0</ele><time>2026-04-19T14:41:58.999Z</time></trkpt><trkpt lat="41.01343469789028" lon="0.9465016331289894"><ele>22.0</ele><time>2026-04-19T14:41:59.999Z</time></trkpt><trkpt lat="41.013522457637066" lon="0.9465842735566666"><ele>22.0</ele><time>2026-04-19T14:42:00.999Z</time></trkpt><trkpt lat="41.01359671394409" lon="0.9466580963715634"><ele>22.0</ele><time>2026-04-19T14:42:01.999Z</time></trkpt><trkpt lat="41.013656994909795" lon="0.9467187705993567"><ele>22.0</ele><time>2026-04-19T14:42:02.999Z</time></trkpt><trkpt lat="41.01373110432753" lon="0.9467933634919838"><ele>22.0</ele><time>2026-04-19T14:42:04.999Z</time></trkpt><trkpt lat="41.0138514890338" lon="0.9466718933935683"><ele>22.0</ele><time>2026-04-19T14:42:06.999Z</time></trkpt><trkpt lat="41.0138970866715" lon="0.946600164469967"><ele>22.0</ele><time>2026-04-19T14:42:08.999Z</time></trkpt><trkpt lat="41.01393033533329" lon="0.946517990535903"><ele>22.0</ele><time>2026-04-19T14:42:11.999Z</time></trkpt><trkpt lat="41.013818799405215" lon="0.9464242979717691"><ele>22.0</ele><time>2026-04-19T14:42:14.999Z</time></trkpt><trkpt lat="41.01373193218471" lon="0.9463598055829001"><ele>22.0</ele><time>2026-04-19T14:42:15.999Z</time></trkpt><trkpt lat="41.01365485655411" lon="0.9462938506576826"><ele>22.0</ele><time>2026-04-19T14:42:16.999Z</time></trkpt><trkpt lat="41.01355885917984" lon="0.9462099386058346"><ele>22.0</ele><time>2026-04-19T14:42:17.999Z</time></trkpt><trkpt lat="41.01347227071248" lon="0.946125202889663"><ele>22.0</ele><time>2026-04-19T14:42:18.999Z</time></trkpt><trkpt lat="41.01337752974312" lon="0.9460298758447961"><ele>22.0</ele><time>2026-04-19T14:42:19.999Z</time></trkpt><trkpt lat="41.01328216516897" lon="0.9459316377902228"><ele>22.0</ele><time>2026-04-19T14:42:20.999Z</time></trkpt><trkpt lat="41.013185801395494" lon="0.9458402851663849"><ele>22.0</ele><time>2026-04-19T14:42:21.999Z</time></trkpt><trkpt lat="41.013084796244335" lon="0.9457450657820992"><ele>22.0</ele><time>2026-04-19T14:42:22.999Z</time></trkpt><trkpt lat="41.01299408451952" lon="0.945648037796586"><ele>22.0</ele><time>2026-04-19T14:42:23.999Z</time></trkpt><trkpt lat="41.01289825664292" lon="0.9455618834410332"><ele>22.0</ele><time>2026-04-19T14:42:24.999Z</time></trkpt><trkpt lat="41.012808348253856" lon="0.9454714496147977"><ele>22.0</ele><time>2026-04-19T14:42:25.999Z</time></trkpt><trkpt lat="41.012715508949526" lon="0.9453826099131244"><ele>22.0</ele><time>2026-04-19T14:42:26.999Z</time></trkpt><trkpt lat="41.01262301302915" lon="0.9453004794744533"><ele>22.0</ele><time>2026-04-19T14:42:27.999Z</time></trkpt><trkpt lat="41.012533120625065" lon="0.9452146397317117"><ele>22.0</ele><time>2026-04-19T14:42:28.999Z</time></trkpt><trkpt lat="41.01243958853886" lon="0.9451255184277747"><ele>22.200000000000003</ele><time>2026-04-19T14:42:29.999Z</time></trkpt><trkpt lat="41.01234880088977" lon="0.945038883117791"><ele>22.4</ele><time>2026-04-19T14:42:30.999Z</time></trkpt><trkpt lat="41.012266579321604" lon="0.9449542892499534"><ele>22.6</ele><time>2026-04-19T14:42:31.999Z</time></trkpt><trkpt lat="41.01219220682303" lon="0.9448791652276359"><ele>22.799999999999997</ele><time>2026-04-19T14:42:32.999Z</time></trkpt><trkpt lat="41.01213447764149" lon="0.9448173357467253"><ele>23.0</ele><time>2026-04-19T14:42:33.999Z</time></trkpt><trkpt lat="41.01206108296785" lon="0.9447061439611352"><ele>23.0</ele><time>2026-04-19T14:42:35.999Z</time></trkpt><trkpt lat="41.012017709181194" lon="0.9446384380493147"><ele>23.0</ele><time>2026-04-19T14:42:37.999Z</time></trkpt><trkpt lat="41.01192735221971" lon="0.9445788470757837"><ele>23.0</ele><time>2026-04-19T14:42:39.999Z</time></trkpt><trkpt lat="41.01185539111408" lon="0.9444926193628149"><ele>23.0</ele><time>2026-04-19T14:42:42.999Z</time></trkpt><trkpt lat="41.01178282728917" lon="0.9444178490779814"><ele>23.0</ele><time>2026-04-19T14:42:44.998Z</time></trkpt><trkpt lat="41.011691745733515" lon="0.9443715304550314"><ele>22.599999999999998</ele><time>2026-04-19T14:42:46.998Z</time></trkpt><trkpt lat="41.01158708147161" lon="0.9442753175473935"><ele>22.2</ele><time>2026-04-19T14:42:48.998Z</time></trkpt><trkpt lat="41.01151285035616" lon="0.9442066998030016"><ele>21.8</ele><time>2026-04-19T14:42:49.998Z</time></trkpt><trkpt lat="41.011431242999556" lon="0.9441309647078906"><ele>21.4</ele><time>2026-04-19T14:42:50.998Z</time></trkpt><trkpt lat="41.01136180232968" lon="0.9440451408398153"><ele>21.0</ele><time>2026-04-19T14:42:51.998Z</time></trkpt><trkpt lat="41.01128267745384" lon="0.9439625802092734"><ele>21.0</ele><time>2026-04-19T14:42:52.998Z</time></trkpt><trkpt lat="41.01119405845234" lon="0.9438736702385387"><ele>21.0</ele><time>2026-04-19T14:42:53.998Z</time></trkpt><trkpt lat="41.011099455218684" lon="0.9437880136843452"><ele>21.0</ele><time>2026-04-19T14:42:54.998Z</time></trkpt><trkpt lat="41.01101039828003" lon="0.9437040406828955"><ele>21.0</ele><time>2026-04-19T14:42:55.998Z</time></trkpt><trkpt lat="41.0109212134814" lon="0.9436249635639008"><ele>21.0</ele><time>2026-04-19T14:42:56.998Z</time></trkpt><trkpt lat="41.01082554229408" lon="0.9435372042640542"><ele>20.8</ele><time>2026-04-19T14:42:57.998Z</time></trkpt><trkpt lat="41.010732498317466" lon="0.9434550909255531"><ele>20.6</ele><time>2026-04-19T14:42:59Z</time></trkpt><trkpt lat="41.01064483213347" lon="0.9433654108975076"><ele>20.4</ele><time>2026-04-19T14:43:00Z</time></trkpt><trkpt lat="41.01055343144795" lon="0.9432888873458859"><ele>20.2</ele><time>2026-04-19T14:43:01Z</time></trkpt><trkpt lat="41.01047813485667" lon="0.9431882303307751"><ele>20.0</ele><time>2026-04-19T14:43:02Z</time></trkpt><trkpt lat="41.010395071269784" lon="0.9431071587581237"><ele>20.0</ele><time>2026-04-19T14:43:03Z</time></trkpt><trkpt lat="41.010310044697924" lon="0.9430433146226124"><ele>20.0</ele><time>2026-04-19T14:43:04Z</time></trkpt><trkpt lat="41.01023181949266" lon="0.9429620884616402"><ele>20.0</ele><time>2026-04-19T14:43:05Z</time></trkpt><trkpt lat="41.01015268871616" lon="0.9428964649664872"><ele>20.0</ele><time>2026-04-19T14:43:06Z</time></trkpt><trkpt lat="41.01008231307727" lon="0.942826708462245"><ele>20.0</ele><time>2026-04-19T14:43:07Z</time></trkpt><trkpt lat="41.0100199671559" lon="0.9427648980134615"><ele>19.5</ele><time>2026-04-19T14:43:08Z</time></trkpt><trkpt lat="41.00995891298603" lon="0.9427013334037383"><ele>19.0</ele><time>2026-04-19T14:43:09Z</time></trkpt><trkpt lat="41.00989424689438" lon="0.9426177736145175"><ele>18.5</ele><time>2026-04-19T14:43:10Z</time></trkpt><trkpt lat="41.00982131352325" lon="0.9425464701235003"><ele>18.0</ele><time>2026-04-19T14:43:11Z</time></trkpt><trkpt lat="41.00975650812699" lon="0.9424831129792791"><ele>17.5</ele><time>2026-04-19T14:43:12Z</time></trkpt><trkpt lat="41.0096888459741" lon="0.9424176530727024"><ele>17.0</ele><time>2026-04-19T14:43:13Z</time></trkpt><trkpt lat="41.00961997010297" lon="0.942350939933606"><ele>17.0</ele><time>2026-04-19T14:43:14Z</time></trkpt><trkpt lat="41.00955173185481" lon="0.9422848443975147"><ele>17.0</ele><time>2026-04-19T14:43:15Z</time></trkpt><trkpt lat="41.00948150941079" lon="0.9422411127479613"><ele>17.0</ele><time>2026-04-19T14:43:16Z</time></trkpt><trkpt lat="41.009432786014244" lon="0.9421768889603854"><ele>17.0</ele><time>2026-04-19T14:43:17Z</time></trkpt><trkpt lat="41.00937860156825" lon="0.9421273439372598"><ele>17.0</ele><time>2026-04-19T14:43:18Z</time></trkpt><trkpt lat="41.00929543215999" lon="0.9420300217718965"><ele>17.0</ele><time>2026-04-19T14:43:20Z</time></trkpt><trkpt lat="41.00922241533771" lon="0.9419654483331067"><ele>17.0</ele><time>2026-04-19T14:43:22Z</time></trkpt><trkpt lat="41.00916428592278" lon="0.9419217693531848"><ele>17.0</ele><time>2026-04-19T14:43:24Z</time></trkpt><trkpt lat="41.009099613703924" lon="0.9418449036902266"><ele>17.0</ele><time>2026-04-19T14:43:27Z</time></trkpt><trkpt lat="41.009153490667615" lon="0.9418961775798028"><ele>17.0</ele><time>2026-04-19T14:44:02.999Z</time></trkpt><trkpt lat="41.00920614808229" lon="0.9419483337067558"><ele>17.0</ele><time>2026-04-19T14:44:03.999Z</time></trkpt><trkpt lat="41.00930520303336" lon="0.9420460567005033"><ele>17.0</ele><time>2026-04-19T14:44:05.999Z</time></trkpt><trkpt lat="41.00935815873152" lon="0.9420973495445398"><ele>17.0</ele><time>2026-04-19T14:44:06.999Z</time></trkpt><trkpt lat="41.00941513409471" lon="0.9421525358253777"><ele>17.0</ele><time>2026-04-19T14:44:07.999Z</time></trkpt><trkpt lat="41.00947485749407" lon="0.9422103838719333"><ele>17.0</ele><time>2026-04-19T14:44:08.999Z</time></trkpt><trkpt lat="41.00952584752738" lon="0.9422597727742557"><ele>17.0</ele><time>2026-04-19T14:44:09.999Z</time></trkpt><trkpt lat="41.009578788577286" lon="0.9423110514262857"><ele>17.0</ele><time>2026-04-19T14:44:10.999Z</time></trkpt><trkpt lat="41.0096806644744" lon="0.9424097283810807"><ele>17.0</ele><time>2026-04-19T14:44:12.999Z</time></trkpt><trkpt lat="41.00974516431329" lon="0.942472202875863"><ele>17.0</ele><time>2026-04-19T14:44:13.999Z</time></trkpt><trkpt lat="41.00978921743498" lon="0.9425392220507411"><ele>17.0</ele><time>2026-04-19T14:44:14.999Z</time></trkpt><trkpt lat="41.009861524869265" lon="0.9426069328269864"><ele>17.0</ele><time>2026-04-19T14:44:16.999Z</time></trkpt><trkpt lat="41.009822074584484" lon="0.9425183289128987"><ele>17.0</ele><time>2026-04-19T14:44:37.999Z</time></trkpt><trkpt lat="41.009824023920636" lon="0.9423934472987058"><ele>17.0</ele><time>2026-04-19T14:44:39.999Z</time></trkpt><trkpt lat="41.00986246081063" lon="0.9423210753541134"><ele>17.0</ele><time>2026-04-19T14:44:40.999Z</time></trkpt><trkpt lat="41.009918075033866" lon="0.9422542054549116"><ele>17.0</ele><time>2026-04-19T14:44:41.999Z</time></trkpt><trkpt lat="41.00998013431843" lon="0.9421710075356117"><ele>17.0</ele><time>2026-04-19T14:44:42.999Z</time></trkpt><trkpt lat="41.010035238297256" lon="0.942021163456682"><ele>17.0</ele><time>2026-04-19T14:44:43.999Z</time></trkpt><trkpt lat="41.01009967113668" lon="0.9418906983909799"><ele>17.0</ele><time>2026-04-19T14:44:44.999Z</time></trkpt><trkpt lat="41.010150124834766" lon="0.9417885385957101"><ele>17.0</ele><time>2026-04-19T14:44:45.999Z</time></trkpt><trkpt lat="41.01019369007771" lon="0.9416935388914685"><ele>17.833333333333336</ele><time>2026-04-19T14:44:46.999Z</time></trkpt><trkpt lat="41.0102224460067" lon="0.9416000834229495"><ele>18.666666666666668</ele><time>2026-04-19T14:44:47.999Z</time></trkpt><trkpt lat="41.010261939501326" lon="0.9415218671794745"><ele>19.5</ele><time>2026-04-19T14:44:49.998Z</time></trkpt><trkpt lat="41.010315713719784" lon="0.9414129840364847"><ele>20.333333333333332</ele><time>2026-04-19T14:44:51.998Z</time></trkpt><trkpt lat="41.01034614122702" lon="0.9413111581307544"><ele>21.166666666666664</ele><time>2026-04-19T14:44:54.998Z</time></trkpt><trkpt lat="41.01033366874779" lon="0.9414134735232985"><ele>22.0</ele><time>2026-04-19T14:45:48.999Z</time></trkpt><trkpt lat="41.0102795898995" lon="0.9415751110808465"><ele>22.0</ele><time>2026-04-19T14:45:50.999Z</time></trkpt><trkpt lat="41.01018993559471" lon="0.9416621702216464"><ele>22.0</ele><time>2026-04-19T14:45:51.999Z</time></trkpt><trkpt lat="41.01014548381722" lon="0.9417267641423362"><ele>22.0</ele><time>2026-04-19T14:45:52.999Z</time></trkpt><trkpt lat="41.01006875774112" lon="0.9418324927349706"><ele>22.0</ele><time>2026-04-19T14:45:54.999Z</time></trkpt><trkpt lat="41.01001248586757" lon="0.9419464333049891"><ele>22.0</ele><time>2026-04-19T14:45:56.999Z</time></trkpt><trkpt lat="41.009976988694355" lon="0.9420183087817472"><ele>21.166666666666664</ele><time>2026-04-19T14:45:57.999Z</time></trkpt><trkpt lat="41.00994960079372" lon="0.9420989717106506"><ele>20.333333333333332</ele><time>2026-04-19T14:45:58.999Z</time></trkpt><trkpt lat="41.009910919281154" lon="0.9421736590000612"><ele>19.5</ele><time>2026-04-19T14:45:59.999Z</time></trkpt><trkpt lat="41.00984812858487" lon="0.9422916240225649"><ele>18.666666666666668</ele><time>2026-04-19T14:46:01.999Z</time></trkpt><trkpt lat="41.00979695576231" lon="0.9423803602666407"><ele>17.833333333333336</ele><time>2026-04-19T14:46:03.999Z</time></trkpt><trkpt lat="41.00976212594941" lon="0.9424727791746224"><ele>17.0</ele><time>2026-04-19T14:46:22.999Z</time></trkpt><trkpt lat="41.0098591940005" lon="0.9426149773007432"><ele>17.6</ele><time>2026-04-19T14:46:25.999Z</time></trkpt><trkpt lat="41.00992103662647" lon="0.9426986965103452"><ele>18.2</ele><time>2026-04-19T14:46:26.999Z</time></trkpt><trkpt lat="41.010002815342084" lon="0.9427786476746327"><ele>18.8</ele><time>2026-04-19T14:46:27.999Z</time></trkpt><trkpt lat="41.010075370348424" lon="0.9428495812557302"><ele>19.4</ele><time>2026-04-19T14:46:28.999Z</time></trkpt><trkpt lat="41.01014625805994" lon="0.9429188848005416"><ele>20.0</ele><time>2026-04-19T14:46:29.999Z</time></trkpt><trkpt lat="41.010214146159115" lon="0.9429852557681829"><ele>20.0</ele><time>2026-04-19T14:46:30.999Z</time></trkpt><trkpt lat="41.01028127921401" lon="0.943050795104339"><ele>20.0</ele><time>2026-04-19T14:46:31.999Z</time></trkpt><trkpt lat="41.010350642050774" lon="0.9431180484064193"><ele>20.0</ele><time>2026-04-19T14:46:32.999Z</time></trkpt><trkpt lat="41.01040418410381" lon="0.9431981022507395"><ele>20.0</ele><time>2026-04-19T14:46:33.999Z</time></trkpt><trkpt lat="41.01046643934867" lon="0.9432588645067275"><ele>20.0</ele><time>2026-04-19T14:46:34.999Z</time></trkpt><trkpt lat="41.01053126933152" lon="0.9433221397533306"><ele>20.0</ele><time>2026-04-19T14:46:35.999Z</time></trkpt><trkpt lat="41.01059341873712" lon="0.943382798703231"><ele>20.2</ele><time>2026-04-19T14:46:36.999Z</time></trkpt><trkpt lat="41.01066557241178" lon="0.9434532220034151"><ele>20.4</ele><time>2026-04-19T14:46:37.999Z</time></trkpt><trkpt lat="41.0107258995123" lon="0.9435114116787365"><ele>20.6</ele><time>2026-04-19T14:46:38.999Z</time></trkpt><trkpt lat="41.010844104314465" lon="0.9435967432718074"><ele>20.8</ele><time>2026-04-19T14:46:39.999Z</time></trkpt><trkpt lat="41.01091938716884" lon="0.9436683531529613"><ele>21.0</ele><time>2026-04-19T14:46:40.999Z</time></trkpt><trkpt lat="41.01099770343683" lon="0.9437428484469655"><ele>21.0</ele><time>2026-04-19T14:46:41.999Z</time></trkpt><trkpt lat="41.01108079822989" lon="0.9438218891320929"><ele>21.0</ele><time>2026-04-19T14:46:42.999Z</time></trkpt><trkpt lat="41.011162949666925" lon="0.9439000324831045"><ele>21.0</ele><time>2026-04-19T14:46:43.999Z</time></trkpt><trkpt lat="41.011234571178186" lon="0.9439681596493699"><ele>21.0</ele><time>2026-04-19T14:46:44.999Z</time></trkpt><trkpt lat="41.01130851181313" lon="0.9440390484006249"><ele>21.0</ele><time>2026-04-19T14:46:45.999Z</time></trkpt><trkpt lat="41.01137748267609" lon="0.9441060884169156"><ele>21.0</ele><time>2026-04-19T14:46:46.999Z</time></trkpt><trkpt lat="41.01145360492298" lon="0.9441800796110117"><ele>21.0</ele><time>2026-04-19T14:46:47.999Z</time></trkpt><trkpt lat="41.0115404315657" lon="0.9442651864716816"><ele>21.0</ele><time>2026-04-19T14:46:48.999Z</time></trkpt><trkpt lat="41.0116225576196" lon="0.9443220728638191"><ele>21.0</ele><time>2026-04-19T14:46:49.999Z</time></trkpt><trkpt lat="41.01168418445079" lon="0.9443910861608598"><ele>21.0</ele><time>2026-04-19T14:46:50.999Z</time></trkpt><trkpt lat="41.011747257697245" lon="0.9444512429669546"><ele>21.4</ele><time>2026-04-19T14:46:51.999Z</time></trkpt><trkpt lat="41.01182686826255" lon="0.9445455324746073"><ele>21.8</ele><time>2026-04-19T14:46:53.999Z</time></trkpt><trkpt lat="41.01191074631113" lon="0.9446351958042029"><ele>22.2</ele><time>2026-04-19T14:46:55.999Z</time></trkpt><trkpt lat="41.011971896871344" lon="0.9446906463465817"><ele>22.599999999999998</ele><time>2026-04-19T14:46:56.998Z</time></trkpt><trkpt lat="41.01204040561081" lon="0.9447413116661098"><ele>23.0</ele><time>2026-04-19T14:46:57.998Z</time></trkpt><trkpt lat="41.012114285316315" lon="0.9448414773490548"><ele>23.0</ele><time>2026-04-19T14:46:58.998Z</time></trkpt><trkpt lat="41.012214395148696" lon="0.944939758248991"><ele>23.0</ele><time>2026-04-19T14:46:59.998Z</time></trkpt><trkpt lat="41.01232548874862" lon="0.945035220760387"><ele>23.0</ele><time>2026-04-19T14:47:00.998Z</time></trkpt><trkpt lat="41.01245206735957" lon="0.9451583154013714"><ele>23.0</ele><time>2026-04-19T14:47:01.998Z</time></trkpt><trkpt lat="41.012558901931456" lon="0.9452530833147041"><ele>22.75</ele><time>2026-04-19T14:47:02.998Z</time></trkpt><trkpt lat="41.012652277390565" lon="0.9453463188974575"><ele>22.5</ele><time>2026-04-19T14:47:03.998Z</time></trkpt><trkpt lat="41.01274002445912" lon="0.9454321519393889"><ele>22.25</ele><time>2026-04-19T14:47:04.998Z</time></trkpt><trkpt lat="41.01283189512301" lon="0.9455301102721555"><ele>22.0</ele><time>2026-04-19T14:47:05.998Z</time></trkpt><trkpt lat="41.01293175065787" lon="0.9456188599738515"><ele>22.0</ele><time>2026-04-19T14:47:06.998Z</time></trkpt><trkpt lat="41.01302642512918" lon="0.9457082871760271"><ele>22.0</ele><time>2026-04-19T14:47:07.998Z</time></trkpt><trkpt lat="41.01312104622037" lon="0.9458001661875763"><ele>22.0</ele><time>2026-04-19T14:47:08.998Z</time></trkpt><trkpt lat="41.01321431486961" lon="0.9458892318544502"><ele>22.0</ele><time>2026-04-19T14:47:09.998Z</time></trkpt><trkpt lat="41.013298294984075" lon="0.9459807649458173"><ele>22.0</ele><time>2026-04-19T14:47:10.999Z</time></trkpt><trkpt lat="41.01338768558934" lon="0.9460582549967832"><ele>22.0</ele><time>2026-04-19T14:47:11.999Z</time></trkpt><trkpt lat="41.01346303281803" lon="0.9461395832984906"><ele>22.0</ele><time>2026-04-19T14:47:12.999Z</time></trkpt><trkpt lat="41.013546602305254" lon="0.9462192147144589"><ele>22.0</ele><time>2026-04-19T14:47:13.999Z</time></trkpt><trkpt lat="41.01363020361414" lon="0.9462982566009358"><ele>22.0</ele><time>2026-04-19T14:47:14.999Z</time></trkpt><trkpt lat="41.01370194407682" lon="0.9463674965303178"><ele>22.0</ele><time>2026-04-19T14:47:15.999Z</time></trkpt><trkpt lat="41.013758246327065" lon="0.9464445430047014"><ele>22.0</ele><time>2026-04-19T14:47:16.999Z</time></trkpt><trkpt lat="41.013811177677404" lon="0.9464967788003679"><ele>22.0</ele><time>2026-04-19T14:47:17.999Z</time></trkpt><trkpt lat="41.01387587547583" lon="0.9465606264316021"><ele>22.0</ele><time>2026-04-19T14:47:19.999Z</time></trkpt><trkpt lat="41.01398583060342" lon="0.9464361702914016"><ele>22.0</ele><time>2026-04-19T14:47:20.999Z</time></trkpt><trkpt lat="41.01403857442785" lon="0.9463481003081277"><ele>22.0</ele><time>2026-04-19T14:47:21.999Z</time></trkpt><trkpt lat="41.014089250979225" lon="0.9462398874214779"><ele>22.0</ele><time>2026-04-19T14:47:22.999Z</time></trkpt><trkpt lat="41.01414711594634" lon="0.9461494425611109"><ele>22.0</ele><time>2026-04-19T14:47:23.999Z</time></trkpt><trkpt lat="41.01418952260562" lon="0.9460720086489098"><ele>22.0</ele><time>2026-04-19T14:47:24.999Z</time></trkpt><trkpt lat="41.01423753060257" lon="0.9459719694419964"><ele>22.0</ele><time>2026-04-19T14:47:26.999Z</time></trkpt><trkpt lat="41.01425803784128" lon="0.9458798823358203"><ele>22.0</ele><time>2026-04-19T14:47:29.999Z</time></trkpt><trkpt lat="41.01419521680373" lon="0.9456905343487539"><ele>22.0</ele><time>2026-04-19T14:47:31.999Z</time></trkpt><trkpt lat="41.01412411831545" lon="0.9455941150991328"><ele>22.0</ele><time>2026-04-19T14:47:32.999Z</time></trkpt><trkpt lat="41.014038196252024" lon="0.945470580320213"><ele>22.0</ele><time>2026-04-19T14:47:33.999Z</time></trkpt><trkpt lat="41.01394584158628" lon="0.9453562185937544"><ele>22.0</ele><time>2026-04-19T14:47:34.999Z</time></trkpt><trkpt lat="41.01385427663026" lon="0.945230260573714"><ele>22.0</ele><time>2026-04-19T14:47:35.999Z</time></trkpt><trkpt lat="41.01377008606851" lon="0.9451126793813338"><ele>22.0</ele><time>2026-04-19T14:47:36.999Z</time></trkpt><trkpt lat="41.013693482376055" lon="0.9450007273746817"><ele>22.0</ele><time>2026-04-19T14:47:37.999Z</time></trkpt><trkpt lat="41.013617877133946" lon="0.9449070478042053"><ele>22.0</ele><time>2026-04-19T14:47:38.999Z</time></trkpt><trkpt lat="41.01355408902012" lon="0.9448151690342023"><ele>22.0</ele><time>2026-04-19T14:47:39.999Z</time></trkpt><trkpt lat="41.013499137707704" lon="0.9447359826778132"><ele>22.166666666666664</ele><time>2026-04-19T14:47:40.999Z</time></trkpt><trkpt lat="41.01346136037874" lon="0.944649474877386"><ele>22.333333333333332</ele><time>2026-04-19T14:47:41.999Z</time></trkpt><trkpt lat="41.01345634782618" lon="0.9445494027887387"><ele>22.5</ele><time>2026-04-19T14:47:42.999Z</time></trkpt><trkpt lat="41.013478816671565" lon="0.9444484025299248"><ele>22.666666666666668</ele><time>2026-04-19T14:47:43.999Z</time></trkpt><trkpt lat="41.01352753148405" lon="0.9443468784121014"><ele>22.833333333333336</ele><time>2026-04-19T14:47:44.999Z</time></trkpt><trkpt lat="41.013598920604935" lon="0.94424556099802"><ele>23.0</ele><time>2026-04-19T14:47:45.999Z</time></trkpt><trkpt lat="41.013675198550146" lon="0.9441280541886329"><ele>23.4</ele><time>2026-04-19T14:47:46.999Z</time></trkpt><trkpt lat="41.013740708516664" lon="0.9440109456134469"><ele>23.799999999999997</ele><time>2026-04-19T14:47:47.999Z</time></trkpt><trkpt lat="41.01378144766681" lon="0.9439246002291576"><ele>24.2</ele><time>2026-04-19T14:47:48.999Z</time></trkpt><trkpt lat="41.013816044838585" lon="0.9438541589678777"><ele>24.6</ele><time>2026-04-19T14:47:49.999Z</time></trkpt><trkpt lat="41.0138559459765" lon="0.9437563777933243"><ele>25.0</ele><time>2026-04-19T14:47:51.999Z</time></trkpt><trkpt lat="41.01367906561029" lon="0.9435433993172896"><ele>25.0</ele><time>2026-04-19T14:47:53.999Z</time></trkpt><trkpt lat="41.01358150751963" lon="0.9433988975188308"><ele>25.0</ele><time>2026-04-19T14:47:54.999Z</time></trkpt><trkpt lat="41.01347034235741" lon="0.9432453145381376"><ele>25.0</ele><time>2026-04-19T14:47:55.999Z</time></trkpt><trkpt lat="41.01336416539864" lon="0.9430993962379289"><ele>25.0</ele><time>2026-04-19T14:47:56.999Z</time></trkpt><trkpt lat="41.01327298617019" lon="0.9429740892178539"><ele>25.0</ele><time>2026-04-19T14:47:57.999Z</time></trkpt><trkpt lat="41.01318912459842" lon="0.942858838797289"><ele>25.0</ele><time>2026-04-19T14:47:58.999Z</time></trkpt><trkpt lat="41.01312032702453" lon="0.9427642907423119"><ele>25.0</ele><time>2026-04-19T14:47:59.999Z</time></trkpt><trkpt lat="41.013061464667054" lon="0.9426838727084094"><ele>25.0</ele><time>2026-04-19T14:48:00.999Z</time></trkpt><trkpt lat="41.01300475346497" lon="0.9426317948997668"><ele>25.5</ele><time>2026-04-19T14:48:01.999Z</time></trkpt><trkpt lat="41.01297287105875" lon="0.9425333129883149"><ele>26.0</ele><time>2026-04-19T14:48:03.999Z</time></trkpt><trkpt lat="41.01305997197193" lon="0.9423137482682761"><ele>26.5</ele><time>2026-04-19T14:48:05.999Z</time></trkpt><trkpt lat="41.01315600092651" lon="0.9421600702314162"><ele>27.0</ele><time>2026-04-19T14:48:06.999Z</time></trkpt><trkpt lat="41.01325274648824" lon="0.9420035817001464"><ele>27.333333333333336</ele><time>2026-04-19T14:48:07.999Z</time></trkpt><trkpt lat="41.013347707985986" lon="0.9418265360166769"><ele>27.666666666666668</ele><time>2026-04-19T14:48:08.999Z</time></trkpt><trkpt lat="41.013437754773506" lon="0.9416493379669302"><ele>28.0</ele><time>2026-04-19T14:48:09.999Z</time></trkpt><trkpt lat="41.01352955202334" lon="0.9414705445504243"><ele>28.0</ele><time>2026-04-19T14:48:10.999Z</time></trkpt><trkpt lat="41.013611361634254" lon="0.9413219189652211"><ele>28.0</ele><time>2026-04-19T14:48:11.999Z</time></trkpt><trkpt lat="41.013685786027274" lon="0.9411845770780459"><ele>28.0</ele><time>2026-04-19T14:48:12.999Z</time></trkpt><trkpt lat="41.01375555408253" lon="0.9410509605899416"><ele>28.0</ele><time>2026-04-19T14:48:13.999Z</time></trkpt><trkpt lat="41.01382854598141" lon="0.9409186150424759"><ele>28.25</ele><time>2026-04-19T14:48:14.999Z</time></trkpt><trkpt lat="41.013903391977756" lon="0.9407785518102492"><ele>28.5</ele><time>2026-04-19T14:48:15.999Z</time></trkpt><trkpt lat="41.01397698850857" lon="0.9406377725026374"><ele>28.75</ele><time>2026-04-19T14:48:16.999Z</time></trkpt><trkpt lat="41.01405056422753" lon="0.9404897791807671"><ele>29.0</ele><time>2026-04-19T14:48:17.999Z</time></trkpt><trkpt lat="41.01412843134556" lon="0.940343150514051"><ele>29.25</ele><time>2026-04-19T14:48:18.999Z</time></trkpt><trkpt lat="41.014213492335145" lon="0.940189923323642"><ele>29.5</ele><time>2026-04-19T14:48:19.999Z</time></trkpt><trkpt lat="41.014297359436256" lon="0.9400387815688026"><ele>29.75</ele><time>2026-04-19T14:48:20.999Z</time></trkpt><trkpt lat="41.01437708622005" lon="0.9398841453481188"><ele>30.0</ele><time>2026-04-19T14:48:21.999Z</time></trkpt><trkpt lat="41.0144578867215" lon="0.9397268613555226"><ele>30.0</ele><time>2026-04-19T14:48:22.999Z</time></trkpt><trkpt lat="41.01454038871542" lon="0.939572833188126"><ele>30.0</ele><time>2026-04-19T14:48:23.999Z</time></trkpt><trkpt lat="41.01463082797136" lon="0.9394147720560444"><ele>30.0</ele><time>2026-04-19T14:48:24.999Z</time></trkpt><trkpt lat="41.014709755528564" lon="0.9392697472237359"><ele>30.0</ele><time>2026-04-19T14:48:25.999Z</time></trkpt><trkpt lat="41.01479221617129" lon="0.9391132195264"><ele>30.25</ele><time>2026-04-19T14:48:26.999Z</time></trkpt><trkpt lat="41.01487021969253" lon="0.9389571456245398"><ele>30.5</ele><time>2026-04-19T14:48:27.999Z</time></trkpt><trkpt lat="41.0149508366927" lon="0.9388023627015007"><ele>30.75</ele><time>2026-04-19T14:48:28.999Z</time></trkpt><trkpt lat="41.01503597541949" lon="0.9386477750171441"><ele>31.0</ele><time>2026-04-19T14:48:29.999Z</time></trkpt><trkpt lat="41.01512381493203" lon="0.9384887438535736"><ele>32.0</ele><time>2026-04-19T14:48:30.999Z</time></trkpt><trkpt lat="41.01520999330365" lon="0.9383286288242989"><ele>33.0</ele><time>2026-04-19T14:48:31.999Z</time></trkpt><trkpt lat="41.01529674309385" lon="0.9381727617945996"><ele>34.0</ele><time>2026-04-19T14:48:32.999Z</time></trkpt><trkpt lat="41.01538173603366" lon="0.9380129326005713"><ele>35.0</ele><time>2026-04-19T14:48:33.999Z</time></trkpt><trkpt lat="41.01546125806356" lon="0.9378643914562346"><ele>35.0</ele><time>2026-04-19T14:48:34.999Z</time></trkpt><trkpt lat="41.01553357605226" lon="0.9377167723326857"><ele>35.0</ele><time>2026-04-19T14:48:35.999Z</time></trkpt><trkpt lat="41.015604452496895" lon="0.9375807975936675"><ele>35.0</ele><time>2026-04-19T14:48:36.999Z</time></trkpt><trkpt lat="41.01567298060882" lon="0.9374507304436932"><ele>35.0</ele><time>2026-04-19T14:48:37.999Z</time></trkpt><trkpt lat="41.01573581286483" lon="0.9373360245715486"><ele>35.2</ele><time>2026-04-19T14:48:38.999Z</time></trkpt><trkpt lat="41.015784361632804" lon="0.9372438421617237"><ele>35.4</ele><time>2026-04-19T14:48:39.999Z</time></trkpt><trkpt lat="41.01585339232663" lon="0.9371345092053499"><ele>35.6</ele><time>2026-04-19T14:48:41.999Z</time></trkpt><trkpt lat="41.01593643773619" lon="0.9370694351972684"><ele>35.8</ele><time>2026-04-19T14:48:43.999Z</time></trkpt><trkpt lat="41.015962972450396" lon="0.9369331959889186"><ele>36.0</ele><time>2026-04-19T14:48:45.999Z</time></trkpt><trkpt lat="41.015844136521245" lon="0.9368493800500204"><ele>36.0</ele><time>2026-04-19T14:48:47.999Z</time></trkpt><trkpt lat="41.015750104963246" lon="0.9368203038837006"><ele>36.0</ele><time>2026-04-19T14:48:48.999Z</time></trkpt><trkpt lat="41.01565105779854" lon="0.9367539932571531"><ele>36.0</ele><time>2026-04-19T14:48:49.999Z</time></trkpt><trkpt lat="41.01553080280208" lon="0.9366424383097124"><ele>36.0</ele><time>2026-04-19T14:48:50.999Z</time></trkpt><trkpt lat="41.015406067975334" lon="0.9365309139789306"><ele>36.0</ele><time>2026-04-19T14:48:51.999Z</time></trkpt><trkpt lat="41.01528275049774" lon="0.9364202129509399"><ele>36.0</ele><time>2026-04-19T14:48:52.999Z</time></trkpt><trkpt lat="41.01516417658924" lon="0.9363164278951358"><ele>36.0</ele><time>2026-04-19T14:48:53.999Z</time></trkpt><trkpt lat="41.01505071019631" lon="0.9362226217290263"><ele>36.0</ele><time>2026-04-19T14:48:54.999Z</time></trkpt><trkpt lat="41.01494557396768" lon="0.9361331350204855"><ele>36.0</ele><time>2026-04-19T14:48:55.999Z</time></trkpt><trkpt lat="41.014835228880344" lon="0.9360403778346027"><ele>36.0</ele><time>2026-04-19T14:48:56.999Z</time></trkpt><trkpt lat="41.01471831831834" lon="0.9359320930123785"><ele>36.0</ele><time>2026-04-19T14:48:57.999Z</time></trkpt><trkpt lat="41.01458628768265" lon="0.9358243115970951"><ele>36.0</ele><time>2026-04-19T14:48:58.999Z</time></trkpt><trkpt lat="41.01444610315386" lon="0.9357060479518059"><ele>36.333333333333336</ele><time>2026-04-19T14:48:59.999Z</time></trkpt><trkpt lat="41.01430851008395" lon="0.9355895681564455"><ele>36.66666666666667</ele><time>2026-04-19T14:49:00.999Z</time></trkpt><trkpt lat="41.01417754153374" lon="0.9354786986198267"><ele>37.0</ele><time>2026-04-19T14:49:01.999Z</time></trkpt><trkpt lat="41.014044601181" lon="0.9353637751247775"><ele>36.5</ele><time>2026-04-19T14:49:02.999Z</time></trkpt><trkpt lat="41.01391754427279" lon="0.9352586742764324"><ele>36.0</ele><time>2026-04-19T14:49:03.999Z</time></trkpt><trkpt lat="41.01379631177901" lon="0.9351546417326887"><ele>35.5</ele><time>2026-04-19T14:49:04.998Z</time></trkpt><trkpt lat="41.01368500364292" lon="0.9350581261403705"><ele>35.0</ele><time>2026-04-19T14:49:05.998Z</time></trkpt><trkpt lat="41.013588291075195" lon="0.9349772242404432"><ele>35.0</ele><time>2026-04-19T14:49:06.998Z</time></trkpt><trkpt lat="41.01348876968884" lon="0.9349035056421694"><ele>35.0</ele><time>2026-04-19T14:49:07.998Z</time></trkpt><trkpt lat="41.01339907817057" lon="0.9348362919176363"><ele>35.0</ele><time>2026-04-19T14:49:08.998Z</time></trkpt><trkpt lat="41.01332584158158" lon="0.9347741055421915"><ele>35.0</ele><time>2026-04-19T14:49:09.998Z</time></trkpt><trkpt lat="41.01326197235454" lon="0.9347195648269785"><ele>35.0</ele><time>2026-04-19T14:49:10.998Z</time></trkpt><trkpt lat="41.0132093084146" lon="0.9346655920172026"><ele>35.0</ele><time>2026-04-19T14:49:11.998Z</time></trkpt><trkpt lat="41.01315001091975" lon="0.9345884063909895"><ele>34.75</ele><time>2026-04-19T14:49:12.998Z</time></trkpt><trkpt lat="41.01309687719532" lon="0.9344814745005037"><ele>34.5</ele><time>2026-04-19T14:49:13.998Z</time></trkpt><trkpt lat="41.01298291865014" lon="0.9344436778721869"><ele>34.25</ele><time>2026-04-19T14:49:14.998Z</time></trkpt><trkpt lat="41.012877685019795" lon="0.9343782223919062"><ele>34.0</ele><time>2026-04-19T14:49:15.998Z</time></trkpt><trkpt lat="41.012761980545555" lon="0.9342851243705378"><ele>34.0</ele><time>2026-04-19T14:49:16.999Z</time></trkpt><trkpt lat="41.012662582332915" lon="0.93418492518909"><ele>34.0</ele><time>2026-04-19T14:49:17.999Z</time></trkpt><trkpt lat="41.01255452679202" lon="0.9340887199493483"><ele>34.0</ele><time>2026-04-19T14:49:18.999Z</time></trkpt><trkpt lat="41.012443637157034" lon="0.9339957996649997"><ele>34.0</ele><time>2026-04-19T14:49:19.999Z</time></trkpt><trkpt lat="41.01232938259534" lon="0.9338928477869771"><ele>34.0</ele><time>2026-04-19T14:49:20.999Z</time></trkpt><trkpt lat="41.01221880649943" lon="0.9337953126325407"><ele>34.0</ele><time>2026-04-19T14:49:21.999Z</time></trkpt><trkpt lat="41.01211241114486" lon="0.9337087435796475"><ele>34.0</ele><time>2026-04-19T14:49:22.999Z</time></trkpt><trkpt lat="41.012018214971945" lon="0.933632215106102"><ele>34.0</ele><time>2026-04-19T14:49:23.999Z</time></trkpt><trkpt lat="41.01193003190769" lon="0.9335553375453983"><ele>34.0</ele><time>2026-04-19T14:49:24.999Z</time></trkpt><trkpt lat="41.01183528140471" lon="0.933475995685723"><ele>34.0</ele><time>2026-04-19T14:49:25.999Z</time></trkpt><trkpt lat="41.01173847704757" lon="0.933393935660728"><ele>34.0</ele><time>2026-04-19T14:49:27Z</time></trkpt><trkpt lat="41.01163411823909" lon="0.9333071552130477"><ele>34.0</ele><time>2026-04-19T14:49:28Z</time></trkpt><trkpt lat="41.011521700629224" lon="0.9332065278023173"><ele>34.0</ele><time>2026-04-19T14:49:29Z</time></trkpt><trkpt lat="41.01140666406998" lon="0.9331075285798358"><ele>34.0</ele><time>2026-04-19T14:49:30Z</time></trkpt><trkpt lat="41.01128462241757" lon="0.9330087393016785"><ele>34.0</ele><time>2026-04-19T14:49:31Z</time></trkpt><trkpt lat="41.01116360288814" lon="0.9329099375141561"><ele>34.0</ele><time>2026-04-19T14:49:32Z</time></trkpt><trkpt lat="41.01103853220256" lon="0.9328086716031009"><ele>34.0</ele><time>2026-04-19T14:49:33Z</time></trkpt><trkpt lat="41.01091111247321" lon="0.932701055758141"><ele>34.0</ele><time>2026-04-19T14:49:34Z</time></trkpt><trkpt lat="41.01077771812427" lon="0.9325911418415459"><ele>34.0</ele><time>2026-04-19T14:49:35Z</time></trkpt><trkpt lat="41.0106450008226" lon="0.9324767060274076"><ele>34.66666666666667</ele><time>2026-04-19T14:49:36Z</time></trkpt><trkpt lat="41.0105136337044" lon="0.9323668698337721"><ele>35.333333333333336</ele><time>2026-04-19T14:49:37Z</time></trkpt><trkpt lat="41.01038280839054" lon="0.9322533868595582"><ele>36.0</ele><time>2026-04-19T14:49:38Z</time></trkpt><trkpt lat="41.01025317335064" lon="0.9321423371915255"><ele>36.0</ele><time>2026-04-19T14:49:39Z</time></trkpt><trkpt lat="41.01012946937497" lon="0.9320345927815165"><ele>36.0</ele><time>2026-04-19T14:49:40Z</time></trkpt><trkpt lat="41.0100146098962" lon="0.9319381570449963"><ele>36.0</ele><time>2026-04-19T14:49:41Z</time></trkpt><trkpt lat="41.00991154693636" lon="0.9318482496786873"><ele>36.0</ele><time>2026-04-19T14:49:42Z</time></trkpt><trkpt lat="41.009815794019794" lon="0.9317643151164313"><ele>36.2</ele><time>2026-04-19T14:49:43Z</time></trkpt><trkpt lat="41.009726636774076" lon="0.9316877028720254"><ele>36.400000000000006</ele><time>2026-04-19T14:49:44Z</time></trkpt><trkpt lat="41.00963943016857" lon="0.9316136393621106"><ele>36.6</ele><time>2026-04-19T14:49:45Z</time></trkpt><trkpt lat="41.009561155054065" lon="0.931548811455089"><ele>36.800000000000004</ele><time>2026-04-19T14:49:46Z</time></trkpt><trkpt lat="41.009489614410505" lon="0.9314840054905387"><ele>37.0</ele><time>2026-04-19T14:49:47Z</time></trkpt><trkpt lat="41.00941595956241" lon="0.9314237949573294"><ele>37.0</ele><time>2026-04-19T14:49:48Z</time></trkpt><trkpt lat="41.00934520205537" lon="0.9313672391952309"><ele>37.0</ele><time>2026-04-19T14:49:49Z</time></trkpt><trkpt lat="41.009290737308156" lon="0.9313162777132262"><ele>37.0</ele><time>2026-04-19T14:49:49.999Z</time></trkpt><trkpt lat="41.00923334003473" lon="0.9312547723789835"><ele>37.0</ele><time>2026-04-19T14:49:50.999Z</time></trkpt><trkpt lat="41.009188760736826" lon="0.9311400334928845"><ele>37.0</ele><time>2026-04-19T14:49:51.999Z</time></trkpt><trkpt lat="41.009114905171124" lon="0.931059524437445"><ele>37.0</ele><time>2026-04-19T14:49:52.999Z</time></trkpt><trkpt lat="41.008990307830956" lon="0.9310448790230738"><ele>36.5</ele><time>2026-04-19T14:49:53.999Z</time></trkpt><trkpt lat="41.00888093570549" lon="0.9309648754432323"><ele>36.0</ele><time>2026-04-19T14:49:54.999Z</time></trkpt><trkpt lat="41.008766010512005" lon="0.9308631957968065"><ele>35.5</ele><time>2026-04-19T14:49:55.999Z</time></trkpt><trkpt lat="41.008640913754256" lon="0.9307540949120902"><ele>35.0</ele><time>2026-04-19T14:49:56.999Z</time></trkpt><trkpt lat="41.00852392591587" lon="0.9306567205504725"><ele>35.0</ele><time>2026-04-19T14:49:57.999Z</time></trkpt><trkpt lat="41.00841650459574" lon="0.9305651738457398"><ele>35.0</ele><time>2026-04-19T14:49:58.999Z</time></trkpt><trkpt lat="41.008312424302204" lon="0.9304725298070624"><ele>35.0</ele><time>2026-04-19T14:49:59.999Z</time></trkpt><trkpt lat="41.00821589413436" lon="0.9303904875818881"><ele>35.0</ele><time>2026-04-19T14:50:00.999Z</time></trkpt><trkpt lat="41.0081297024017" lon="0.9303118337086382"><ele>34.75</ele><time>2026-04-19T14:50:01.999Z</time></trkpt><trkpt lat="41.008043170503136" lon="0.9302383857985468"><ele>34.5</ele><time>2026-04-19T14:50:02.999Z</time></trkpt><trkpt lat="41.00795003835768" lon="0.9301557607660659"><ele>34.25</ele><time>2026-04-19T14:50:03.999Z</time></trkpt><trkpt lat="41.00784513871714" lon="0.930065156783572"><ele>34.0</ele><time>2026-04-19T14:50:04.999Z</time></trkpt><trkpt lat="41.007735332182214" lon="0.9299733201577611"><ele>34.25</ele><time>2026-04-19T14:50:05.999Z</time></trkpt><trkpt lat="41.007625362132615" lon="0.9298835580818523"><ele>34.5</ele><time>2026-04-19T14:50:06.999Z</time></trkpt><trkpt lat="41.00752446693501" lon="0.9298048826685383"><ele>34.75</ele><time>2026-04-19T14:50:07.999Z</time></trkpt><trkpt lat="41.00743466941767" lon="0.929731095897367"><ele>35.0</ele><time>2026-04-19T14:50:08.999Z</time></trkpt><trkpt lat="41.00735027803076" lon="0.9296503441078866"><ele>35.0</ele><time>2026-04-19T14:50:09.999Z</time></trkpt><trkpt lat="41.00727121871211" lon="0.9295967901911396"><ele>35.0</ele><time>2026-04-19T14:50:10.999Z</time></trkpt><trkpt lat="41.007202191182266" lon="0.9295405828082224"><ele>35.0</ele><time>2026-04-19T14:50:11.999Z</time></trkpt><trkpt lat="41.0071425250471" lon="0.9294735535006519"><ele>35.0</ele><time>2026-04-19T14:50:12.999Z</time></trkpt><trkpt lat="41.007078403520765" lon="0.9293934602870187"><ele>35.0</ele><time>2026-04-19T14:50:13.999Z</time></trkpt><trkpt lat="41.00703362192717" lon="0.9292960678421066"><ele>35.0</ele><time>2026-04-19T14:50:14.999Z</time></trkpt><trkpt lat="41.00692419545571" lon="0.9292694289570996"><ele>34.75</ele><time>2026-04-19T14:50:15.999Z</time></trkpt><trkpt lat="41.00682081940573" lon="0.9291959312046348"><ele>34.5</ele><time>2026-04-19T14:50:16.999Z</time></trkpt><trkpt lat="41.006712120547085" lon="0.9290974844041995"><ele>34.25</ele><time>2026-04-19T14:50:17.999Z</time></trkpt><trkpt lat="41.00659797710802" lon="0.9289866767627408"><ele>34.0</ele><time>2026-04-19T14:50:18.999Z</time></trkpt><trkpt lat="41.00646920042375" lon="0.9288668690616589"><ele>34.0</ele><time>2026-04-19T14:50:19.999Z</time></trkpt><trkpt lat="41.00635191202206" lon="0.9287535360622082"><ele>34.0</ele><time>2026-04-19T14:50:20.999Z</time></trkpt><trkpt lat="41.00624989679944" lon="0.9286351423473925"><ele>34.0</ele><time>2026-04-19T14:50:21.999Z</time></trkpt><trkpt lat="41.00613131629895" lon="0.928523559996139"><ele>34.0</ele><time>2026-04-19T14:50:22.999Z</time></trkpt><trkpt lat="41.00602736916358" lon="0.9284225534705525"><ele>34.0</ele><time>2026-04-19T14:50:23.999Z</time></trkpt><trkpt lat="41.005933396389196" lon="0.9283368095220073"><ele>34.0</ele><time>2026-04-19T14:50:24.999Z</time></trkpt><trkpt lat="41.005857979674474" lon="0.9282630200393643"><ele>34.0</ele><time>2026-04-19T14:50:25.999Z</time></trkpt><trkpt lat="41.00578982175096" lon="0.9281925198137387"><ele>34.0</ele><time>2026-04-19T14:50:26.999Z</time></trkpt><trkpt lat="41.005739602462455" lon="0.928112717463566"><ele>34.0</ele><time>2026-04-19T14:50:27.999Z</time></trkpt><trkpt lat="41.00570517558133" lon="0.9280118629446846"><ele>34.0</ele><time>2026-04-19T14:50:28.999Z</time></trkpt><trkpt lat="41.00559387362639" lon="0.9279630478984026"><ele>34.0</ele><time>2026-04-19T14:50:29.999Z</time></trkpt><trkpt lat="41.00548623054307" lon="0.9278803088548455"><ele>34.0</ele><time>2026-04-19T14:50:30.999Z</time></trkpt><trkpt lat="41.00538263683626" lon="0.9277711074898255"><ele>34.0</ele><time>2026-04-19T14:50:31.999Z</time></trkpt><trkpt lat="41.005284747784344" lon="0.9276628371049198"><ele>34.0</ele><time>2026-04-19T14:50:32.999Z</time></trkpt><trkpt lat="41.00520368290908" lon="0.9275676572901789"><ele>34.0</ele><time>2026-04-19T14:50:33.999Z</time></trkpt><trkpt lat="41.0051338883844" lon="0.9274856047922861"><ele>34.0</ele><time>2026-04-19T14:50:34.999Z</time></trkpt><trkpt lat="41.00506952065844" lon="0.9274035580344475"><ele>34.0</ele><time>2026-04-19T14:50:35.999Z</time></trkpt><trkpt lat="41.0050138723159" lon="0.9273362121005784"><ele>34.0</ele><time>2026-04-19T14:50:36.999Z</time></trkpt><trkpt lat="41.0049527120789" lon="0.9272648469133141"><ele>34.0</ele><time>2026-04-19T14:50:37.999Z</time></trkpt><trkpt lat="41.004892762530666" lon="0.927189852466632"><ele>33.6</ele><time>2026-04-19T14:50:38.999Z</time></trkpt><trkpt lat="41.004833233259255" lon="0.9271145086886764"><ele>33.2</ele><time>2026-04-19T14:50:39.999Z</time></trkpt><trkpt lat="41.00475456397446" lon="0.9270196208754284"><ele>32.800000000000004</ele><time>2026-04-19T14:50:40.999Z</time></trkpt><trkpt lat="41.004692417222415" lon="0.9269351122644132"><ele>32.4</ele><time>2026-04-19T14:50:41.999Z</time></trkpt><trkpt lat="41.00462393311101" lon="0.9268472367243311"><ele>32.0</ele><time>2026-04-19T14:50:42.999Z</time></trkpt><trkpt lat="41.00454897515915" lon="0.9267429744605926"><ele>32.25</ele><time>2026-04-19T14:50:43.999Z</time></trkpt><trkpt lat="41.004461498456834" lon="0.9266296004313448"><ele>32.5</ele><time>2026-04-19T14:50:44.999Z</time></trkpt><trkpt lat="41.00437521279829" lon="0.9265095774478492"><ele>32.75</ele><time>2026-04-19T14:50:45.999Z</time></trkpt><trkpt lat="41.004278776951054" lon="0.9263881093761495"><ele>33.0</ele><time>2026-04-19T14:50:46.999Z</time></trkpt><trkpt lat="41.0041787010917" lon="0.9262712152464533"><ele>32.6</ele><time>2026-04-19T14:50:47.999Z</time></trkpt><trkpt lat="41.004095353078334" lon="0.92616476616965"><ele>32.199999999999996</ele><time>2026-04-19T14:50:48.999Z</time></trkpt><trkpt lat="41.00402197306368" lon="0.926066137998987"><ele>31.8</ele><time>2026-04-19T14:50:49.999Z</time></trkpt><trkpt lat="41.00395223256999" lon="0.9259657401014656"><ele>31.4</ele><time>2026-04-19T14:50:50.999Z</time></trkpt><trkpt lat="41.003889700865365" lon="0.9258808863929844"><ele>31.0</ele><time>2026-04-19T14:50:51.999Z</time></trkpt><trkpt lat="41.003826186890045" lon="0.9258034408337279"><ele>31.0</ele><time>2026-04-19T14:50:52.999Z</time></trkpt><trkpt lat="41.00376199742662" lon="0.9257245537725979"><ele>31.0</ele><time>2026-04-19T14:50:53.999Z</time></trkpt><trkpt lat="41.00371294347157" lon="0.9256607243362037"><ele>31.0</ele><time>2026-04-19T14:50:54.999Z</time></trkpt><trkpt lat="41.00362718431202" lon="0.9255599786102081"><ele>31.0</ele><time>2026-04-19T14:50:56.999Z</time></trkpt><trkpt lat="41.00351793810369" lon="0.9255855674340434"><ele>31.0</ele><time>2026-04-19T14:50:58.999Z</time></trkpt><trkpt lat="41.0034511803378" lon="0.9256656450184878"><ele>31.0</ele><time>2026-04-19T14:50:59.999Z</time></trkpt><trkpt lat="41.00336900485463" lon="0.9257639151534355"><ele>31.0</ele><time>2026-04-19T14:51:00.999Z</time></trkpt><trkpt lat="41.00326841036185" lon="0.925907785405367"><ele>31.0</ele><time>2026-04-19T14:51:01.999Z</time></trkpt><trkpt lat="41.00316025744447" lon="0.9260568972409268"><ele>31.0</ele><time>2026-04-19T14:51:02.999Z</time></trkpt><trkpt lat="41.00304296969708" lon="0.9262131892856442"><ele>30.5</ele><time>2026-04-19T14:51:03.999Z</time></trkpt><trkpt lat="41.00292732441141" lon="0.9263663571438842"><ele>30.0</ele><time>2026-04-19T14:51:04.999Z</time></trkpt><trkpt lat="41.0028283768793" lon="0.9264955588688238"><ele>29.5</ele><time>2026-04-19T14:51:05.999Z</time></trkpt><trkpt lat="41.00272506528046" lon="0.9266305732262357"><ele>29.0</ele><time>2026-04-19T14:51:06.999Z</time></trkpt><trkpt lat="41.00260988044424" lon="0.926782229029708"><ele>28.0</ele><time>2026-04-19T14:51:07.999Z</time></trkpt><trkpt lat="41.00249440582508" lon="0.9269368255507735"><ele>27.0</ele><time>2026-04-19T14:51:08.999Z</time></trkpt><trkpt lat="41.00238991090409" lon="0.9270685499028994"><ele>26.0</ele><time>2026-04-19T14:51:09.999Z</time></trkpt><trkpt lat="41.00228835445967" lon="0.9271818280446007"><ele>25.0</ele><time>2026-04-19T14:51:10.999Z</time></trkpt><trkpt lat="41.00219818067652" lon="0.9272982165713338"><ele>25.0</ele><time>2026-04-19T14:51:11.999Z</time></trkpt><trkpt lat="41.00211503104432" lon="0.9274091570037688"><ele>25.0</ele><time>2026-04-19T14:51:12.999Z</time></trkpt><trkpt lat="41.0020349522272" lon="0.9275160002734504"><ele>25.0</ele><time>2026-04-19T14:51:13.999Z</time></trkpt><trkpt lat="41.00195618471702" lon="0.9276210939644574"><ele>25.0</ele><time>2026-04-19T14:51:14.999Z</time></trkpt><trkpt lat="41.00188038825178" lon="0.9277197661157465"><ele>25.6</ele><time>2026-04-19T14:51:15.999Z</time></trkpt><trkpt lat="41.00180702706059" lon="0.927815119661989"><ele>26.2</ele><time>2026-04-19T14:51:16.999Z</time></trkpt><trkpt lat="41.00172856882712" lon="0.9279170982517111"><ele>26.799999999999997</ele><time>2026-04-19T14:51:17.999Z</time></trkpt><trkpt lat="41.00165216193384" lon="0.9280164105467509"><ele>27.4</ele><time>2026-04-19T14:51:18.999Z</time></trkpt><trkpt lat="41.001576402889036" lon="0.9281125302639688"><ele>28.0</ele><time>2026-04-19T14:51:19.999Z</time></trkpt><trkpt lat="41.00150246815322" lon="0.9282062178583109"><ele>28.0</ele><time>2026-04-19T14:51:20.999Z</time></trkpt><trkpt lat="41.00142748069065" lon="0.9283015989292448"><ele>27.999999999999996</ele><time>2026-04-19T14:51:21.999Z</time></trkpt><trkpt lat="41.001350264493915" lon="0.9284030996359602"><ele>27.999999999999996</ele><time>2026-04-19T14:51:23Z</time></trkpt><trkpt lat="41.00127261174898" lon="0.9285052639051663"><ele>28.0</ele><time>2026-04-19T14:51:24Z</time></trkpt><trkpt lat="41.001193737841156" lon="0.92860903480647"><ele>28.0</ele><time>2026-04-19T14:51:25Z</time></trkpt><trkpt lat="41.00111067819175" lon="0.9287274019539474"><ele>27.799999999999997</ele><time>2026-04-19T14:51:26Z</time></trkpt><trkpt lat="41.00104682344281" lon="0.9288279913719113"><ele>27.599999999999998</ele><time>2026-04-19T14:51:27Z</time></trkpt><trkpt lat="41.0009803289595" lon="0.9288927886532172"><ele>27.400000000000002</ele><time>2026-04-19T14:51:28Z</time></trkpt><trkpt lat="41.00091893196318" lon="0.928974644768758"><ele>27.200000000000003</ele><time>2026-04-19T14:51:29Z</time></trkpt><trkpt lat="41.000855942723234" lon="0.9290586236834061"><ele>27.0</ele><time>2026-04-19T14:51:30Z</time></trkpt><trkpt lat="41.000787604959875" lon="0.9291504710527009"><ele>26.833333333333332</ele><time>2026-04-19T14:51:31Z</time></trkpt><trkpt lat="41.00071666901752" lon="0.9292460803612573"><ele>26.666666666666664</ele><time>2026-04-19T14:51:32Z</time></trkpt><trkpt lat="41.000652897058416" lon="0.9293320338775509"><ele>26.5</ele><time>2026-04-19T14:51:33Z</time></trkpt><trkpt lat="41.00060036652156" lon="0.9294028358996991"><ele>26.333333333333332</ele><time>2026-04-19T14:51:34Z</time></trkpt><trkpt lat="41.000552950862506" lon="0.9294656696362696"><ele>26.166666666666664</ele><time>2026-04-19T14:51:35Z</time></trkpt><trkpt lat="41.0004604103453" lon="0.9295516660717537"><ele>26.0</ele><time>2026-04-19T14:51:37Z</time></trkpt><trkpt lat="41.00040058951943" lon="0.9295810761869483"><ele>25.999999999999996</ele><time>2026-04-19T14:51:38Z</time></trkpt><trkpt lat="41.00035042101011" lon="0.929640740866167"><ele>26.0</ele><time>2026-04-19T14:51:39Z</time></trkpt><trkpt lat="41.00029644330014" lon="0.9297035331628717"><ele>26.0</ele><time>2026-04-19T14:51:40Z</time></trkpt><trkpt lat="41.00022353878741" lon="0.9297663937632077"><ele>26.0</ele><time>2026-04-19T14:51:41Z</time></trkpt><trkpt lat="41.000140122561724" lon="0.9298319379828328"><ele>25.999999999999996</ele><time>2026-04-19T14:51:42Z</time></trkpt><trkpt lat="41.00006824891445" lon="0.9298778158299922"><ele>26.0</ele><time>2026-04-19T14:51:43Z</time></trkpt><trkpt lat="41.00000768698803" lon="0.9299191543997734"><ele>26.0</ele><time>2026-04-19T14:51:44Z</time></trkpt><trkpt lat="40.99992413796688" lon="0.9299861578294402"><ele>26.0</ele><time>2026-04-19T14:51:46Z</time></trkpt><trkpt lat="40.99983537738811" lon="0.9299930855900229"><ele>26.0</ele><time>2026-04-19T14:51:52Z</time></trkpt><trkpt lat="40.999849294167305" lon="0.9301693028989649"><ele>26.0</ele><time>2026-04-19T14:51:54Z</time></trkpt><trkpt lat="40.99989200321191" lon="0.9302648300577508"><ele>26.0</ele><time>2026-04-19T14:51:55Z</time></trkpt><trkpt lat="40.99992785488096" lon="0.930368611478338"><ele>25.5</ele><time>2026-04-19T14:51:56Z</time></trkpt><trkpt lat="40.99998359371722" lon="0.930498807827946"><ele>25.0</ele><time>2026-04-19T14:51:57Z</time></trkpt><trkpt lat="41.00004805541653" lon="0.930647835186385"><ele>24.5</ele><time>2026-04-19T14:51:58Z</time></trkpt><trkpt lat="41.00011209691017" lon="0.9307931824213884"><ele>24.0</ele><time>2026-04-19T14:51:59Z</time></trkpt><trkpt lat="41.00016735922329" lon="0.930918604585647"><ele>24.0</ele><time>2026-04-19T14:52:00Z</time></trkpt><trkpt lat="41.00021142139534" lon="0.9310186071613976"><ele>24.0</ele><time>2026-04-19T14:52:01Z</time></trkpt><trkpt lat="41.00024974232444" lon="0.9311055795348007"><ele>24.0</ele><time>2026-04-19T14:52:02Z</time></trkpt><trkpt lat="41.00028664837069" lon="0.9312330780108091"><ele>24.0</ele><time>2026-04-19T14:52:04Z</time></trkpt><trkpt lat="41.00018091814098" lon="0.9312988605611034"><ele>24.0</ele><time>2026-04-19T14:52:05Z</time></trkpt><trkpt lat="41.00012553991352" lon="0.9314006221279156"><ele>24.0</ele><time>2026-04-19T14:52:06Z</time></trkpt><trkpt lat="41.000069567156885" lon="0.9315003153516593"><ele>24.0</ele><time>2026-04-19T14:52:07Z</time></trkpt><trkpt lat="41.000011611598524" lon="0.9315811088242161"><ele>24.0</ele><time>2026-04-19T14:52:08Z</time></trkpt><trkpt lat="40.99995468036655" lon="0.931652017379423"><ele>24.0</ele><time>2026-04-19T14:52:09Z</time></trkpt><trkpt lat="40.999891869686856" lon="0.9317414494350011"><ele>24.0</ele><time>2026-04-19T14:52:10Z</time></trkpt><trkpt lat="40.99979349989856" lon="0.9318494546930067"><ele>24.0</ele><time>2026-04-19T14:52:11Z</time></trkpt><trkpt lat="40.999679944027676" lon="0.9319763642967043"><ele>24.0</ele><time>2026-04-19T14:52:12Z</time></trkpt><trkpt lat="40.9995478613759" lon="0.9320778112318944"><ele>24.0</ele><time>2026-04-19T14:52:13Z</time></trkpt><trkpt lat="40.99941301899183" lon="0.9321842973169538"><ele>24.0</ele><time>2026-04-19T14:52:14Z</time></trkpt><trkpt lat="40.999291466126515" lon="0.9322973672534921"><ele>24.0</ele><time>2026-04-19T14:52:14.999Z</time></trkpt><trkpt lat="40.999172661108844" lon="0.9323787914494537"><ele>24.0</ele><time>2026-04-19T14:52:15.999Z</time></trkpt><trkpt lat="40.99905812644002" lon="0.9324623473555355"><ele>24.0</ele><time>2026-04-19T14:52:16.999Z</time></trkpt><trkpt lat="40.99896045377007" lon="0.9325524530722544"><ele>22.599999999999998</ele><time>2026-04-19T14:52:17.999Z</time></trkpt><trkpt lat="40.99887714851614" lon="0.9326502796491994"><ele>21.2</ele><time>2026-04-19T14:52:18.999Z</time></trkpt><trkpt lat="40.99880409728166" lon="0.9327554940035797"><ele>19.799999999999997</ele><time>2026-04-19T14:52:19.999Z</time></trkpt><trkpt lat="40.998721952193435" lon="0.932840698414978"><ele>18.4</ele><time>2026-04-19T14:52:20.999Z</time></trkpt><trkpt lat="40.99865883805137" lon="0.9329473456179767"><ele>17.0</ele><time>2026-04-19T14:52:21.999Z</time></trkpt><trkpt lat="40.99860125496572" lon="0.9330573796419527"><ele>17.0</ele><time>2026-04-19T14:52:22.999Z</time></trkpt><trkpt lat="40.99855883336658" lon="0.9331897921868398"><ele>17.0</ele><time>2026-04-19T14:52:23.999Z</time></trkpt><trkpt lat="40.99853430080789" lon="0.9333407233252302"><ele>17.0</ele><time>2026-04-19T14:52:24.999Z</time></trkpt><trkpt lat="40.99854553504202" lon="0.9334892011503216"><ele>17.0</ele><time>2026-04-19T14:52:25.999Z</time></trkpt><trkpt lat="40.99853286834138" lon="0.9336242852738541"><ele>17.0</ele><time>2026-04-19T14:52:26.999Z</time></trkpt><trkpt lat="40.99853801993734" lon="0.9337452741370939"><ele>16.333333333333336</ele><time>2026-04-19T14:52:27.999Z</time></trkpt><trkpt lat="40.99854623000397" lon="0.9338583145869118"><ele>15.666666666666668</ele><time>2026-04-19T14:52:28.999Z</time></trkpt><trkpt lat="40.99855901999494" lon="0.9339617477942206"><ele>15.0</ele><time>2026-04-19T14:52:29.999Z</time></trkpt><trkpt lat="40.998572128509586" lon="0.9340576242117472"><ele>14.333333333333332</ele><time>2026-04-19T14:52:30.999Z</time></trkpt><trkpt lat="40.998539916930966" lon="0.9341779628619983"><ele>13.666666666666666</ele><time>2026-04-19T14:52:32.999Z</time></trkpt><trkpt lat="40.998477137726944" lon="0.9341996266162073"><ele>13.0</ele><time>2026-04-19T14:52:33.999Z</time></trkpt><trkpt lat="40.998370069304045" lon="0.934137993490114"><ele>11.666666666666666</ele><time>2026-04-19T14:52:35.999Z</time></trkpt><trkpt lat="40.99828258398773" lon="0.9340830436850781"><ele>10.333333333333332</ele><time>2026-04-19T14:52:37.999Z</time></trkpt><trkpt lat="40.99822031543183" lon="0.9340580931627436"><ele>9.0</ele><time>2026-04-19T14:52:38.999Z</time></trkpt><trkpt lat="40.99814294527345" lon="0.9340119122510983"><ele>7.666666666666666</ele><time>2026-04-19T14:52:39.999Z</time></trkpt><trkpt lat="40.99805666855171" lon="0.9339763827321211"><ele>6.333333333333334</ele><time>2026-04-19T14:52:40.999Z</time></trkpt><trkpt lat="40.99796566480146" lon="0.9339316219792939"><ele>5.0</ele><time>2026-04-19T14:52:41.999Z</time></trkpt><trkpt lat="40.99786698729586" lon="0.9338775956997277"><ele>5.0</ele><time>2026-04-19T14:52:42.999Z</time></trkpt><trkpt lat="40.997757292624854" lon="0.9338339632596886"><ele>5.0</ele><time>2026-04-19T14:52:43.999Z</time></trkpt><trkpt lat="40.99765143738835" lon="0.9337714411388075"><ele>5.0</ele><time>2026-04-19T14:52:44.999Z</time></trkpt><trkpt lat="40.99755564542988" lon="0.9337272315996407"><ele>5.0</ele><time>2026-04-19T14:52:45.999Z</time></trkpt><trkpt lat="40.99747109446951" lon="0.9336867730537918"><ele>5.0</ele><time>2026-04-19T14:52:46.999Z</time></trkpt><trkpt lat="40.997392381177974" lon="0.9336387597689131"><ele>4.5</ele><time>2026-04-19T14:52:47.999Z</time></trkpt><trkpt lat="40.99731839163723" lon="0.933600439876447"><ele>4.0</ele><time>2026-04-19T14:52:48.999Z</time></trkpt><trkpt lat="40.997259825612645" lon="0.9335660110838004"><ele>3.5</ele><time>2026-04-19T14:52:49.999Z</time></trkpt><trkpt lat="40.99715320126295" lon="0.9335171432107009"><ele>3.0</ele><time>2026-04-19T14:52:51.999Z</time></trkpt><trkpt lat="40.997095671981434" lon="0.9334685083255276"><ele>2.5</ele><time>2026-04-19T14:52:52.999Z</time></trkpt><trkpt lat="40.99703154043255" lon="0.9334324866031829"><ele>2.0</ele><time>2026-04-19T14:52:53.999Z</time></trkpt><trkpt lat="40.99697372776222" lon="0.9333968591178066"><ele>2.0</ele><time>2026-04-19T14:52:54.999Z</time></trkpt><trkpt lat="40.99686427622734" lon="0.933332305600001"><ele>4.0</ele><time>2026-04-19T14:52:56.999Z</time></trkpt><trkpt lat="40.99676579817099" lon="0.9332732479045186"><ele>4.0</ele><time>2026-04-19T14:52:58.999Z</time></trkpt><trkpt lat="40.99670082571919" lon="0.9332171919385263"><ele>4.0</ele><time>2026-04-19T14:53:00.999Z</time></trkpt><trkpt lat="40.99664108875904" lon="0.9331783068943328"><ele>3.0</ele><time>2026-04-19T14:53:03.999Z</time></trkpt></trkseg><trkseg><trkpt lat="40.984556939225556" lon="0.8938971846750098"><ele>68.0</ele><time>2026-04-19T16:09:04.998Z</time></trkpt><trkpt lat="40.9844295124021" lon="0.8936557978801787"><ele>68.0</ele><time>2026-04-19T16:09:05.998Z</time></trkpt><trkpt lat="40.984300735087984" lon="0.8934020141409448"><ele>67.0</ele><time>2026-04-19T16:09:06.998Z</time></trkpt><trkpt lat="40.984167936476695" lon="0.8931311548224827"><ele>66.0</ele><time>2026-04-19T16:09:07.998Z</time></trkpt><trkpt lat="40.9840297063487" lon="0.8928419819748409"><ele>67.5</ele><time>2026-04-19T16:09:08.998Z</time></trkpt><trkpt lat="40.9838913851836" lon="0.8925493657557624"><ele>69.0</ele><time>2026-04-19T16:09:09.998Z</time></trkpt><trkpt lat="40.98375670489031" lon="0.8922548545095734"><ele>69.0</ele><time>2026-04-19T16:09:10.998Z</time></trkpt><trkpt lat="40.983626266991635" lon="0.8919730671489883"><ele>69.0</ele><time>2026-04-19T16:09:11.998Z</time></trkpt><trkpt lat="40.98350005375976" lon="0.8916918181087591"><ele>70.0</ele><time>2026-04-19T16:09:12.998Z</time></trkpt><trkpt lat="40.98337170848934" lon="0.8914065440320305"><ele>71.0</ele><time>2026-04-19T16:09:13.998Z</time></trkpt><trkpt lat="40.98324492297039" lon="0.8911168898355762"><ele>68.5</ele><time>2026-04-19T16:09:15Z</time></trkpt><trkpt lat="40.98311542091118" lon="0.8908316081861172"><ele>66.0</ele><time>2026-04-19T16:09:16Z</time></trkpt><trkpt lat="40.982982538956875" lon="0.890540679140254"><ele>66.0</ele><time>2026-04-19T16:09:17Z</time></trkpt><trkpt lat="40.98284563137411" lon="0.8902473531954037"><ele>66.0</ele><time>2026-04-19T16:09:18Z</time></trkpt><trkpt lat="40.982711718615576" lon="0.8899562659768836"><ele>66.5</ele><time>2026-04-19T16:09:19Z</time></trkpt><trkpt lat="40.982572959059375" lon="0.8896689427781282"><ele>67.0</ele><time>2026-04-19T16:09:20Z</time></trkpt><trkpt lat="40.98243410723587" lon="0.889380342447539"><ele>65.5</ele><time>2026-04-19T16:09:21Z</time></trkpt><trkpt lat="40.982287357099864" lon="0.8890886476505436"><ele>64.0</ele><time>2026-04-19T16:09:22Z</time></trkpt><trkpt lat="40.98213774085361" lon="0.888802730692508"><ele>64.0</ele><time>2026-04-19T16:09:23Z</time></trkpt><trkpt lat="40.98198412035518" lon="0.8885176529740163"><ele>64.0</ele><time>2026-04-19T16:09:24Z</time></trkpt><trkpt lat="40.98182918247628" lon="0.8882373649923275"><ele>65.5</ele><time>2026-04-19T16:09:25Z</time></trkpt><trkpt lat="40.98167945456577" lon="0.8879715671153745"><ele>67.0</ele><time>2026-04-19T16:09:26Z</time></trkpt><trkpt lat="40.98153167619523" lon="0.8877106568282084"><ele>68.0</ele><time>2026-04-19T16:09:27Z</time></trkpt><trkpt lat="40.98137926841821" lon="0.8874524385758461"><ele>69.0</ele><time>2026-04-19T16:09:28Z</time></trkpt><trkpt lat="40.98121963210787" lon="0.887199965602045"><ele>69.0</ele><time>2026-04-19T16:09:29Z</time></trkpt><trkpt lat="40.98105949586905" lon="0.886936959792103"><ele>69.0</ele><time>2026-04-19T16:09:30Z</time></trkpt><trkpt lat="40.98088307620351" lon="0.8866527252361127"><ele>70.0</ele><time>2026-04-19T16:09:31Z</time></trkpt><trkpt lat="40.98068571426875" lon="0.886356090087281"><ele>71.0</ele><time>2026-04-19T16:09:32Z</time></trkpt><trkpt lat="40.98046763701219" lon="0.8860506248474403"><ele>73.5</ele><time>2026-04-19T16:09:33Z</time></trkpt><trkpt lat="40.98026238915682" lon="0.885758680302127"><ele>76.0</ele><time>2026-04-19T16:09:34Z</time></trkpt><trkpt lat="40.980065920317195" lon="0.885487788336977"><ele>74.0</ele><time>2026-04-19T16:09:35Z</time></trkpt><trkpt lat="40.979874926627225" lon="0.8852270632882094"><ele>72.0</ele><time>2026-04-19T16:09:36Z</time></trkpt><trkpt lat="40.97967637940345" lon="0.8849713527416663"><ele>76.0</ele><time>2026-04-19T16:09:37Z</time></trkpt><trkpt lat="40.979468453387085" lon="0.8847015312081422"><ele>80.0</ele><time>2026-04-19T16:09:38Z</time></trkpt><trkpt lat="40.97926266199132" lon="0.8844385475173548"><ele>80.0</ele><time>2026-04-19T16:09:39Z</time></trkpt><trkpt lat="40.97905713428882" lon="0.8841783940899003"><ele>80.0</ele><time>2026-04-19T16:09:40Z</time></trkpt><trkpt lat="40.97885646705694" lon="0.8839156938066302"><ele>80.0</ele><time>2026-04-19T16:09:41Z</time></trkpt><trkpt lat="40.97864615486143" lon="0.8836677601211349"><ele>80.0</ele><time>2026-04-19T16:09:42Z</time></trkpt><trkpt lat="40.97843365893026" lon="0.8834389917049688"><ele>82.5</ele><time>2026-04-19T16:09:43Z</time></trkpt><trkpt lat="40.97821630247788" lon="0.8832106745619849"><ele>85.0</ele><time>2026-04-19T16:09:44Z</time></trkpt><trkpt lat="40.978000296369935" lon="0.8829893638783609"><ele>85.0</ele><time>2026-04-19T16:09:45Z</time></trkpt><trkpt lat="40.97777532563432" lon="0.882774358619243"><ele>85.0</ele><time>2026-04-19T16:09:46Z</time></trkpt><trkpt lat="40.97755332461112" lon="0.8825716342062437"><ele>85.5</ele><time>2026-04-19T16:09:47Z</time></trkpt><trkpt lat="40.97733002360271" lon="0.8823740270340807"><ele>86.0</ele><time>2026-04-19T16:09:48Z</time></trkpt><trkpt lat="40.977107386840636" lon="0.882180022027423"><ele>86.0</ele><time>2026-04-19T16:09:49Z</time></trkpt><trkpt lat="40.976883323128256" lon="0.8819921227203821"><ele>86.0</ele><time>2026-04-19T16:09:50Z</time></trkpt><trkpt lat="40.97665861061085" lon="0.8818107757366777"><ele>87.5</ele><time>2026-04-19T16:09:51Z</time></trkpt><trkpt lat="40.97643552863971" lon="0.8816345531854657"><ele>89.0</ele><time>2026-04-19T16:09:52Z</time></trkpt><trkpt lat="40.9762133148136" lon="0.8814640181744188"><ele>89.0</ele><time>2026-04-19T16:09:53Z</time></trkpt><trkpt lat="40.97598515448052" lon="0.8813005175234205"><ele>89.0</ele><time>2026-04-19T16:09:54Z</time></trkpt><trkpt lat="40.97574204500821" lon="0.8811281350429645"><ele>90.5</ele><time>2026-04-19T16:09:55Z</time></trkpt><trkpt lat="40.97549224722586" lon="0.8809578207546492"><ele>92.0</ele><time>2026-04-19T16:09:56Z</time></trkpt><trkpt lat="40.97523973865707" lon="0.8807959951416864"><ele>89.0</ele><time>2026-04-19T16:09:57Z</time></trkpt><trkpt lat="40.974984646709416" lon="0.8806377876086667"><ele>86.0</ele><time>2026-04-19T16:09:57.999Z</time></trkpt><trkpt lat="40.97472908798886" lon="0.8804863865079734"><ele>86.0</ele><time>2026-04-19T16:09:58.999Z</time></trkpt><trkpt lat="40.97447211371756" lon="0.8803431410175392"><ele>86.0</ele><time>2026-04-19T16:09:59.999Z</time></trkpt><trkpt lat="40.97421714938627" lon="0.880196460829062"><ele>88.0</ele><time>2026-04-19T16:10:00.999Z</time></trkpt><trkpt lat="40.97396388445981" lon="0.8800517211954453"><ele>90.0</ele><time>2026-04-19T16:10:01.999Z</time></trkpt><trkpt lat="40.9737083612844" lon="0.8799108743575812"><ele>90.0</ele><time>2026-04-19T16:10:02.999Z</time></trkpt><trkpt lat="40.97344939469519" lon="0.8797553311179307"><ele>90.0</ele><time>2026-04-19T16:10:03.999Z</time></trkpt><trkpt lat="40.97318904741773" lon="0.8796111166515603"><ele>89.5</ele><time>2026-04-19T16:10:04.999Z</time></trkpt><trkpt lat="40.97292960819544" lon="0.8794572627170043"><ele>89.0</ele><time>2026-04-19T16:10:05.999Z</time></trkpt><trkpt lat="40.972668608299365" lon="0.8793022964987877"><ele>89.5</ele><time>2026-04-19T16:10:06.999Z</time></trkpt><trkpt lat="40.97240588140018" lon="0.8791493631345044"><ele>90.0</ele><time>2026-04-19T16:10:07.999Z</time></trkpt><trkpt lat="40.972144072056146" lon="0.8789955091323848"><ele>90.0</ele><time>2026-04-19T16:10:08.999Z</time></trkpt><trkpt lat="40.971886950993344" lon="0.8788370332447158"><ele>90.0</ele><time>2026-04-19T16:10:09.999Z</time></trkpt><trkpt lat="40.97163137434023" lon="0.8786655310912462"><ele>89.5</ele><time>2026-04-19T16:10:10.999Z</time></trkpt><trkpt lat="40.97137189980828" lon="0.8785145873621083"><ele>89.0</ele><time>2026-04-19T16:10:11.999Z</time></trkpt><trkpt lat="40.97111748092257" lon="0.8783589275874311"><ele>90.0</ele><time>2026-04-19T16:10:12.999Z</time></trkpt><trkpt lat="40.970863982161276" lon="0.8782004442445661"><ele>91.0</ele><time>2026-04-19T16:10:13.999Z</time></trkpt><trkpt lat="40.97061481281011" lon="0.8780392320841833"><ele>91.0</ele><time>2026-04-19T16:10:14.999Z</time></trkpt><trkpt lat="40.97037278955615" lon="0.8778789282877658"><ele>91.0</ele><time>2026-04-19T16:10:15.999Z</time></trkpt><trkpt lat="40.970131584594064" lon="0.8777231117035129"><ele>91.0</ele><time>2026-04-19T16:10:16.999Z</time></trkpt><trkpt lat="40.969893528327106" lon="0.8775637055988216"><ele>91.0</ele><time>2026-04-19T16:10:17.999Z</time></trkpt><trkpt lat="40.969656246399275" lon="0.8774014970544108"><ele>91.0</ele><time>2026-04-19T16:10:18.999Z</time></trkpt><trkpt lat="40.96941148075691" lon="0.8772467647156171"><ele>91.0</ele><time>2026-04-19T16:10:19.999Z</time></trkpt><trkpt lat="40.96917854422292" lon="0.8770729565829493"><ele>93.0</ele><time>2026-04-19T16:10:20.999Z</time></trkpt><trkpt lat="40.96894235946463" lon="0.8769023816102124"><ele>95.0</ele><time>2026-04-19T16:10:21.999Z</time></trkpt><trkpt lat="40.968711026255036" lon="0.8767256798324992"><ele>95.0</ele><time>2026-04-19T16:10:22.999Z</time></trkpt><trkpt lat="40.9684844504484" lon="0.8765376243208758"><ele>95.0</ele><time>2026-04-19T16:10:23.999Z</time></trkpt><trkpt lat="40.968251821689755" lon="0.8763581777694466"><ele>88.0</ele><time>2026-04-19T16:10:24.999Z</time></trkpt><trkpt lat="40.968018537459606" lon="0.8761760949049744"><ele>81.0</ele><time>2026-04-19T16:10:25.999Z</time></trkpt><trkpt lat="40.967785547420206" lon="0.8759857029706706"><ele>78.5</ele><time>2026-04-19T16:10:26.999Z</time></trkpt><trkpt lat="40.967548987267214" lon="0.8757912884199726"><ele>76.0</ele><time>2026-04-19T16:10:27.999Z</time></trkpt><trkpt lat="40.96731274029772" lon="0.8755916940322751"><ele>76.0</ele><time>2026-04-19T16:10:28.999Z</time></trkpt><trkpt lat="40.96707824285365" lon="0.8753876953519233"><ele>76.0</ele><time>2026-04-19T16:10:29.999Z</time></trkpt><trkpt lat="40.96684961972913" lon="0.875174876811999"><ele>72.5</ele><time>2026-04-19T16:10:30.999Z</time></trkpt><trkpt lat="40.96661849759031" lon="0.8749652569833237"><ele>69.0</ele><time>2026-04-19T16:10:31.999Z</time></trkpt><trkpt lat="40.96639120764081" lon="0.874753027517213"><ele>69.0</ele><time>2026-04-19T16:10:32.999Z</time></trkpt><trkpt lat="40.96616813528442" lon="0.8745329995758023"><ele>69.0</ele><time>2026-04-19T16:10:33.999Z</time></trkpt><trkpt lat="40.96595058309299" lon="0.8743129574190173"><ele>73.0</ele><time>2026-04-19T16:10:34.999Z</time></trkpt><trkpt lat="40.965740208814196" lon="0.8740864563537092"><ele>77.0</ele><time>2026-04-19T16:10:35.999Z</time></trkpt><trkpt lat="40.96552977323529" lon="0.873859232010446"><ele>77.0</ele><time>2026-04-19T16:10:36.999Z</time></trkpt><trkpt lat="40.965316553767664" lon="0.873633907179438"><ele>77.0</ele><time>2026-04-19T16:10:37.999Z</time></trkpt><trkpt lat="40.965103435663075" lon="0.8734118870725226"><ele>78.0</ele><time>2026-04-19T16:10:38.999Z</time></trkpt><trkpt lat="40.96489063044462" lon="0.8731924791601283"><ele>79.0</ele><time>2026-04-19T16:10:39.999Z</time></trkpt><trkpt lat="40.964680294787925" lon="0.8729748722696047"><ele>79.0</ele><time>2026-04-19T16:10:40.999Z</time></trkpt><trkpt lat="40.96447275731096" lon="0.8727448466923026"><ele>79.0</ele><time>2026-04-19T16:10:41.999Z</time></trkpt><trkpt lat="40.9642621977035" lon="0.8725088124043018"><ele>75.5</ele><time>2026-04-19T16:10:42.999Z</time></trkpt><trkpt lat="40.96404613478559" lon="0.8722693007708779"><ele>72.0</ele><time>2026-04-19T16:10:43.999Z</time></trkpt><trkpt lat="40.96382765801806" lon="0.8720300272027917"><ele>72.0</ele><time>2026-04-19T16:10:44.999Z</time></trkpt><trkpt lat="40.96361147460395" lon="0.8717862635193913"><ele>72.0</ele><time>2026-04-19T16:10:45.999Z</time></trkpt><trkpt lat="40.96339821246948" lon="0.8715389800725779"><ele>70.5</ele><time>2026-04-19T16:10:46.999Z</time></trkpt><trkpt lat="40.963185529074615" lon="0.871289065017073"><ele>69.0</ele><time>2026-04-19T16:10:47.999Z</time></trkpt><trkpt lat="40.96297281698429" lon="0.8710361498385757"><ele>70.5</ele><time>2026-04-19T16:10:48.999Z</time></trkpt><trkpt lat="40.96275795744811" lon="0.8707793201985392"><ele>72.0</ele><time>2026-04-19T16:10:49.999Z</time></trkpt><trkpt lat="40.962543213372264" lon="0.8705178734737499"><ele>71.5</ele><time>2026-04-19T16:10:50.999Z</time></trkpt><trkpt lat="40.96232905863081" lon="0.8702541058828047"><ele>71.0</ele><time>2026-04-19T16:10:51.999Z</time></trkpt><trkpt lat="40.962117137136865" lon="0.8699899781299697"><ele>71.0</ele><time>2026-04-19T16:10:52.999Z</time></trkpt><trkpt lat="40.96190540577381" lon="0.8697193681501482"><ele>71.0</ele><time>2026-04-19T16:10:53.999Z</time></trkpt><trkpt lat="40.96169318165806" lon="0.8694499098506502"><ele>65.5</ele><time>2026-04-19T16:10:54.999Z</time></trkpt><trkpt lat="40.96148054071227" lon="0.8691825910196295"><ele>60.0</ele><time>2026-04-19T16:10:55.999Z</time></trkpt><trkpt lat="40.96126428133632" lon="0.8689173498192643"><ele>60.0</ele><time>2026-04-19T16:10:56.999Z</time></trkpt><trkpt lat="40.96104716937058" lon="0.8686538135297052"><ele>60.0</ele><time>2026-04-19T16:10:57.999Z</time></trkpt><trkpt lat="40.96082990606027" lon="0.8683948732972661"><ele>58.5</ele><time>2026-04-19T16:10:58.999Z</time></trkpt><trkpt lat="40.96061183716884" lon="0.8681399882152732"><ele>57.0</ele><time>2026-04-19T16:10:59.999Z</time></trkpt><trkpt lat="40.96039083420248" lon="0.8678920645710897"><ele>57.0</ele><time>2026-04-19T16:11:00.999Z</time></trkpt><trkpt lat="40.96016898584469" lon="0.8676519361497237"><ele>57.0</ele><time>2026-04-19T16:11:01.999Z</time></trkpt><trkpt lat="40.959947256481335" lon="0.8674122538074108"><ele>57.5</ele><time>2026-04-19T16:11:02.999Z</time></trkpt><trkpt lat="40.959726397417" lon="0.8671796321225321"><ele>58.0</ele><time>2026-04-19T16:11:03.999Z</time></trkpt><trkpt lat="40.95950658380475" lon="0.8669480187639679"><ele>56.0</ele><time>2026-04-19T16:11:04.999Z</time></trkpt><trkpt lat="40.95928281558271" lon="0.8667244857676504"><ele>54.0</ele><time>2026-04-19T16:11:05.999Z</time></trkpt><trkpt lat="40.959053675947864" lon="0.8665074666777026"><ele>54.0</ele><time>2026-04-19T16:11:06.999Z</time></trkpt><trkpt lat="40.958820572387026" lon="0.8662954742765792"><ele>54.0</ele><time>2026-04-19T16:11:07.999Z</time></trkpt><trkpt lat="40.95858351660674" lon="0.8660894607001576"><ele>50.0</ele><time>2026-04-19T16:11:08.999Z</time></trkpt><trkpt lat="40.95834474989383" lon="0.8658913080674819"><ele>46.0</ele><time>2026-04-19T16:11:09.999Z</time></trkpt><trkpt lat="40.95810484918252" lon="0.8656951689581478"><ele>46.0</ele><time>2026-04-19T16:11:10.998Z</time></trkpt><trkpt lat="40.95786151860648" lon="0.8655007827174563"><ele>46.0</ele><time>2026-04-19T16:11:11.998Z</time></trkpt><trkpt lat="40.95761163460657" lon="0.8653147234327975"><ele>48.0</ele><time>2026-04-19T16:11:12.998Z</time></trkpt><trkpt lat="40.9573612450183" lon="0.8651326330123914"><ele>50.0</ele><time>2026-04-19T16:11:13.998Z</time></trkpt><trkpt lat="40.957105235321414" lon="0.8649496873241443"><ele>51.0</ele><time>2026-04-19T16:11:14.998Z</time></trkpt><trkpt lat="40.9568434896087" lon="0.8647739503001276"><ele>52.0</ele><time>2026-04-19T16:11:15.998Z</time></trkpt><trkpt lat="40.95657862035979" lon="0.864607689756524"><ele>49.5</ele><time>2026-04-19T16:11:16.998Z</time></trkpt><trkpt lat="40.956312782104135" lon="0.8644457681718012"><ele>47.0</ele><time>2026-04-19T16:11:17.998Z</time></trkpt><trkpt lat="40.95604439071809" lon="0.8642904998402485"><ele>46.5</ele><time>2026-04-19T16:11:18.998Z</time></trkpt><trkpt lat="40.955777271113284" lon="0.8641388001961969"><ele>46.0</ele><time>2026-04-19T16:11:19.998Z</time></trkpt><trkpt lat="40.955511370223796" lon="0.8639828598935667"><ele>46.0</ele><time>2026-04-19T16:11:21Z</time></trkpt><trkpt lat="40.95524513953879" lon="0.8638297059090945"><ele>46.0</ele><time>2026-04-19T16:11:22Z</time></trkpt><trkpt lat="40.95498646037702" lon="0.8636895904125425"><ele>45.5</ele><time>2026-04-19T16:11:23Z</time></trkpt><trkpt lat="40.954728697410744" lon="0.8635458497967619"><ele>45.0</ele><time>2026-04-19T16:11:24Z</time></trkpt><trkpt lat="40.95448399300875" lon="0.8634106449150429"><ele>45.0</ele><time>2026-04-19T16:11:25Z</time></trkpt><trkpt lat="40.95424528644921" lon="0.8632831990189213"><ele>45.0</ele><time>2026-04-19T16:11:26Z</time></trkpt><trkpt lat="40.95401111759127" lon="0.8631594702895733"><ele>42.0</ele><time>2026-04-19T16:11:27Z</time></trkpt><trkpt lat="40.953787664443155" lon="0.8630303836217353"><ele>39.0</ele><time>2026-04-19T16:11:28Z</time></trkpt><trkpt lat="40.953575944868604" lon="0.8629014054864029"><ele>39.0</ele><time>2026-04-19T16:11:29Z</time></trkpt><trkpt lat="40.95336464552892" lon="0.8627675524342825"><ele>39.0</ele><time>2026-04-19T16:11:30Z</time></trkpt><trkpt lat="40.95313488076191" lon="0.8626303005443452"><ele>39.5</ele><time>2026-04-19T16:11:31Z</time></trkpt><trkpt lat="40.95279215240238" lon="0.8624134083473494"><ele>40.0</ele><time>2026-04-19T16:11:32Z</time></trkpt><trkpt lat="40.952490335720036" lon="0.8622393671365024"><ele>38.5</ele><time>2026-04-19T16:11:33Z</time></trkpt><trkpt lat="40.95221835500227" lon="0.8620366064220654"><ele>37.0</ele><time>2026-04-19T16:11:34Z</time></trkpt><trkpt lat="40.95195724578503" lon="0.8618586523179049"><ele>35.0</ele><time>2026-04-19T16:11:35Z</time></trkpt><trkpt lat="40.95170100012755" lon="0.8616727445993898"><ele>33.0</ele><time>2026-04-19T16:11:36Z</time></trkpt><trkpt lat="40.95144654521479" lon="0.8614882475681933"><ele>33.0</ele><time>2026-04-19T16:11:37Z</time></trkpt><trkpt lat="40.95119718661412" lon="0.8613086551808471"><ele>33.0</ele><time>2026-04-19T16:11:38Z</time></trkpt><trkpt lat="40.950949629686285" lon="0.8611350962524325"><ele>31.5</ele><time>2026-04-19T16:11:39Z</time></trkpt><trkpt lat="40.95070726865994" lon="0.8609640758224303"><ele>30.0</ele><time>2026-04-19T16:11:40Z</time></trkpt><trkpt lat="40.95046817753514" lon="0.8607824314170796"><ele>30.0</ele><time>2026-04-19T16:11:41Z</time></trkpt><trkpt lat="40.95023195882319" lon="0.8605979017672233"><ele>30.0</ele><time>2026-04-19T16:11:42Z</time></trkpt><trkpt lat="40.94999907727312" lon="0.8604178358058955"><ele>31.5</ele><time>2026-04-19T16:11:43Z</time></trkpt><trkpt lat="40.94976546762267" lon="0.8602282363492488"><ele>33.0</ele><time>2026-04-19T16:11:44Z</time></trkpt><trkpt lat="40.94953656973038" lon="0.8600445518426748"><ele>33.0</ele><time>2026-04-19T16:11:45Z</time></trkpt><trkpt lat="40.94930986093673" lon="0.8598535135713287"><ele>33.0</ele><time>2026-04-19T16:11:46Z</time></trkpt><trkpt lat="40.949083308592776" lon="0.8596601430211966"><ele>34.5</ele><time>2026-04-19T16:11:47Z</time></trkpt><trkpt lat="40.94885630670071" lon="0.8594701681443022"><ele>36.0</ele><time>2026-04-19T16:11:48Z</time></trkpt><trkpt lat="40.94863062028729" lon="0.8592795092603249"><ele>36.0</ele><time>2026-04-19T16:11:49Z</time></trkpt><trkpt lat="40.948406016279336" lon="0.8590850077003528"><ele>36.0</ele><time>2026-04-19T16:11:50Z</time></trkpt><trkpt lat="40.94817834333238" lon="0.858885544313829"><ele>32.5</ele><time>2026-04-19T16:11:51Z</time></trkpt><trkpt lat="40.94794619151319" lon="0.858688945212178"><ele>29.0</ele><time>2026-04-19T16:11:52Z</time></trkpt><trkpt lat="40.947715859459656" lon="0.8584842939977276"><ele>29.5</ele><time>2026-04-19T16:11:53Z</time></trkpt><trkpt lat="40.94748553331612" lon="0.8582784627302626"><ele>30.0</ele><time>2026-04-19T16:11:54Z</time></trkpt><trkpt lat="40.94725523737008" lon="0.8580792099894643"><ele>30.0</ele><time>2026-04-19T16:11:55Z</time></trkpt><trkpt lat="40.9470223116073" lon="0.8578719355494423"><ele>30.0</ele><time>2026-04-19T16:11:56Z</time></trkpt><trkpt lat="40.946792696116404" lon="0.8576657225506025"><ele>28.5</ele><time>2026-04-19T16:11:57Z</time></trkpt><trkpt lat="40.94655771084594" lon="0.8574593803206952"><ele>27.0</ele><time>2026-04-19T16:11:58Z</time></trkpt><trkpt lat="40.94632363838297" lon="0.8572538275262178"><ele>27.0</ele><time>2026-04-19T16:11:59Z</time></trkpt><trkpt lat="40.94609288936177" lon="0.8570439375225263"><ele>27.0</ele><time>2026-04-19T16:12:00Z</time></trkpt><trkpt lat="40.94586052612601" lon="0.8568306634373024"><ele>26.0</ele><time>2026-04-19T16:12:01Z</time></trkpt><trkpt lat="40.94563121880202" lon="0.8566143590375689"><ele>25.0</ele><time>2026-04-19T16:12:02Z</time></trkpt><trkpt lat="40.94540144825223" lon="0.856393335218404"><ele>25.0</ele><time>2026-04-19T16:12:03Z</time></trkpt><trkpt lat="40.94517311174224" lon="0.8561756677802739"><ele>25.0</ele><time>2026-04-19T16:12:04Z</time></trkpt><trkpt lat="40.94494505094753" lon="0.8559537681881282"><ele>26.0</ele><time>2026-04-19T16:12:05Z</time></trkpt><trkpt lat="40.94471950881859" lon="0.855732026108679"><ele>27.0</ele><time>2026-04-19T16:12:06Z</time></trkpt><trkpt lat="40.94449459726018" lon="0.8555072798702046"><ele>27.0</ele><time>2026-04-19T16:12:07Z</time></trkpt><trkpt lat="40.94427109415872" lon="0.8552812501511929"><ele>27.0</ele><time>2026-04-19T16:12:08Z</time></trkpt><trkpt lat="40.94404896666774" lon="0.8550486183249315"><ele>27.0</ele><time>2026-04-19T16:12:09Z</time></trkpt><trkpt lat="40.943826748773404" lon="0.8548184806703935"><ele>27.0</ele><time>2026-04-19T16:12:10Z</time></trkpt><trkpt lat="40.943605960738424" lon="0.8545905962195296"><ele>27.0</ele><time>2026-04-19T16:12:11Z</time></trkpt><trkpt lat="40.94338830677324" lon="0.8543560731847267"><ele>27.0</ele><time>2026-04-19T16:12:12Z</time></trkpt><trkpt lat="40.94317005132493" lon="0.8541252669880667"><ele>25.5</ele><time>2026-04-19T16:12:13Z</time></trkpt><trkpt lat="40.94295196001773" lon="0.85389765782775"><ele>24.0</ele><time>2026-04-19T16:12:13.999Z</time></trkpt><trkpt lat="40.94274090959724" lon="0.8536704209308884"><ele>24.0</ele><time>2026-04-19T16:12:14.999Z</time></trkpt><trkpt lat="40.942527845083156" lon="0.853445477877987"><ele>24.0</ele><time>2026-04-19T16:12:15.999Z</time></trkpt><trkpt lat="40.942313322500944" lon="0.8532175127999126"><ele>24.0</ele><time>2026-04-19T16:12:16.999Z</time></trkpt><trkpt lat="40.942095706891244" lon="0.8529949139374196"><ele>24.0</ele><time>2026-04-19T16:12:17.999Z</time></trkpt><trkpt lat="40.941882084199705" lon="0.8527677709546259"><ele>23.5</ele><time>2026-04-19T16:12:18.999Z</time></trkpt><trkpt lat="40.941666763095675" lon="0.852545106755143"><ele>23.0</ele><time>2026-04-19T16:12:19.999Z</time></trkpt><trkpt lat="40.94145295631252" lon="0.8523199197514247"><ele>23.0</ele><time>2026-04-19T16:12:20.999Z</time></trkpt><trkpt lat="40.941238102461256" lon="0.8520990319567258"><ele>23.0</ele><time>2026-04-19T16:12:21.999Z</time></trkpt><trkpt lat="40.94102192330849" lon="0.851876319980679"><ele>23.5</ele><time>2026-04-19T16:12:22.999Z</time></trkpt><trkpt lat="40.940810100463395" lon="0.8516546591689298"><ele>24.0</ele><time>2026-04-19T16:12:23.999Z</time></trkpt><trkpt lat="40.9405976664457" lon="0.8514370891259736"><ele>24.0</ele><time>2026-04-19T16:12:24.999Z</time></trkpt><trkpt lat="40.940382993404256" lon="0.85121623944455"><ele>24.0</ele><time>2026-04-19T16:12:25.999Z</time></trkpt><trkpt lat="40.94016361558408" lon="0.8509966801789024"><ele>26.0</ele><time>2026-04-19T16:12:26.999Z</time></trkpt><trkpt lat="40.93994195678684" lon="0.8507798605617325"><ele>28.0</ele><time>2026-04-19T16:12:27.999Z</time></trkpt><trkpt lat="40.939722301065494" lon="0.8505642585778739"><ele>28.0</ele><time>2026-04-19T16:12:28.999Z</time></trkpt><trkpt lat="40.939502443318936" lon="0.8503520673732645"><ele>28.0</ele><time>2026-04-19T16:12:29.999Z</time></trkpt><trkpt lat="40.93928216379548" lon="0.8501415376153297"><ele>28.5</ele><time>2026-04-19T16:12:30.999Z</time></trkpt><trkpt lat="40.939057459388366" lon="0.8499334149621686"><ele>29.0</ele><time>2026-04-19T16:12:31.999Z</time></trkpt><trkpt lat="40.93883346386573" lon="0.8497118990276864"><ele>29.0</ele><time>2026-04-19T16:12:32.999Z</time></trkpt><trkpt lat="40.93860720370274" lon="0.8494902333840386"><ele>29.0</ele><time>2026-04-19T16:12:33.999Z</time></trkpt><trkpt lat="40.93837858516171" lon="0.8492717430237364"><ele>29.0</ele><time>2026-04-19T16:12:34.999Z</time></trkpt><trkpt lat="40.93815086531689" lon="0.8490567265273852"><ele>29.0</ele><time>2026-04-19T16:12:35.999Z</time></trkpt><trkpt lat="40.93792380386679" lon="0.8488437004715714"><ele>29.0</ele><time>2026-04-19T16:12:36.999Z</time></trkpt><trkpt lat="40.937701477814954" lon="0.8486331855097569"><ele>29.0</ele><time>2026-04-19T16:12:37.999Z</time></trkpt><trkpt lat="40.937476596705956" lon="0.8484240382109617"><ele>26.5</ele><time>2026-04-19T16:12:38.999Z</time></trkpt><trkpt lat="40.93725800220554" lon="0.848222217753264"><ele>24.0</ele><time>2026-04-19T16:12:39.999Z</time></trkpt><trkpt lat="40.93703908254471" lon="0.8480195317693264"><ele>24.0</ele><time>2026-04-19T16:12:40.999Z</time></trkpt><trkpt lat="40.93681964905491" lon="0.847816003266236"><ele>24.0</ele><time>2026-04-19T16:12:41.999Z</time></trkpt><trkpt lat="40.93659982742172" lon="0.8476119469504343"><ele>25.5</ele><time>2026-04-19T16:12:42.999Z</time></trkpt><trkpt lat="40.93636951690616" lon="0.8474009841977549"><ele>27.0</ele><time>2026-04-19T16:12:43.999Z</time></trkpt><trkpt lat="40.93614231605286" lon="0.847192530076124"><ele>27.0</ele><time>2026-04-19T16:12:44.999Z</time></trkpt><trkpt lat="40.93591407852691" lon="0.8469812335091348"><ele>27.0</ele><time>2026-04-19T16:12:45.999Z</time></trkpt><trkpt lat="40.93568245834375" lon="0.8467691615803846"><ele>29.0</ele><time>2026-04-19T16:12:46.999Z</time></trkpt><trkpt lat="40.935450346587295" lon="0.8465508476281486"><ele>31.0</ele><time>2026-04-19T16:12:47.999Z</time></trkpt><trkpt lat="40.93521548468265" lon="0.8463344324705971"><ele>31.0</ele><time>2026-04-19T16:12:48.999Z</time></trkpt><trkpt lat="40.93497761195496" lon="0.8461114808910988"><ele>31.0</ele><time>2026-04-19T16:12:49.999Z</time></trkpt><trkpt lat="40.9347370348502" lon="0.845888724750747"><ele>31.5</ele><time>2026-04-19T16:12:50.999Z</time></trkpt><trkpt lat="40.93449571646598" lon="0.8456635091086856"><ele>32.0</ele><time>2026-04-19T16:12:51.999Z</time></trkpt><trkpt lat="40.93426023806241" lon="0.8454383356948844"><ele>31.5</ele><time>2026-04-19T16:12:52.999Z</time></trkpt><trkpt lat="40.934025765001124" lon="0.8452163531177997"><ele>31.0</ele><time>2026-04-19T16:12:53.999Z</time></trkpt><trkpt lat="40.9337914597354" lon="0.8449994123214927"><ele>31.0</ele><time>2026-04-19T16:12:54.999Z</time></trkpt><trkpt lat="40.93356195063954" lon="0.844781045881975"><ele>31.0</ele><time>2026-04-19T16:12:55.999Z</time></trkpt><trkpt lat="40.933338623360044" lon="0.844565247174722"><ele>31.5</ele><time>2026-04-19T16:12:56.999Z</time></trkpt><trkpt lat="40.93311433531922" lon="0.8443485187905662"><ele>32.0</ele><time>2026-04-19T16:12:57.999Z</time></trkpt><trkpt lat="40.93288851258159" lon="0.8441359181879672"><ele>32.5</ele><time>2026-04-19T16:12:58.999Z</time></trkpt><trkpt lat="40.93266176558679" lon="0.8439257570663501"><ele>33.0</ele><time>2026-04-19T16:12:59.999Z</time></trkpt><trkpt lat="40.93243686795706" lon="0.8437167175779016"><ele>33.5</ele><time>2026-04-19T16:13:00.999Z</time></trkpt><trkpt lat="40.93221222175023" lon="0.843502523815069"><ele>34.0</ele><time>2026-04-19T16:13:01.999Z</time></trkpt><trkpt lat="40.931990083802674" lon="0.8432856794696865"><ele>34.0</ele><time>2026-04-19T16:13:02.999Z</time></trkpt><trkpt lat="40.93176730363697" lon="0.8430684288905089"><ele>34.0</ele><time>2026-04-19T16:13:03.999Z</time></trkpt><trkpt lat="40.93154344761439" lon="0.842855168090788"><ele>33.0</ele><time>2026-04-19T16:13:04.999Z</time></trkpt><trkpt lat="40.93131953913571" lon="0.842642588884636"><ele>32.0</ele><time>2026-04-19T16:13:05.999Z</time></trkpt><trkpt lat="40.931098938102004" lon="0.8424348673612052"><ele>30.0</ele><time>2026-04-19T16:13:06.999Z</time></trkpt><trkpt lat="40.930873320406995" lon="0.8422305695712154"><ele>28.0</ele><time>2026-04-19T16:13:07.999Z</time></trkpt><trkpt lat="40.93064990814687" lon="0.8420279528986394"><ele>28.0</ele><time>2026-04-19T16:13:08.999Z</time></trkpt><trkpt lat="40.93042558418263" lon="0.8418225985017622"><ele>28.0</ele><time>2026-04-19T16:13:09.999Z</time></trkpt><trkpt lat="40.930202249434984" lon="0.8416179005454375"><ele>27.5</ele><time>2026-04-19T16:13:10.999Z</time></trkpt><trkpt lat="40.929981245160974" lon="0.8414092818373063"><ele>27.0</ele><time>2026-04-19T16:13:11.999Z</time></trkpt><trkpt lat="40.92976339480349" lon="0.8412043119825542"><ele>27.0</ele><time>2026-04-19T16:13:12.999Z</time></trkpt><trkpt lat="40.92953648022999" lon="0.8409959356559742"><ele>27.0</ele><time>2026-04-19T16:13:13.999Z</time></trkpt><trkpt lat="40.929308485145604" lon="0.8407931615443704"><ele>27.0</ele><time>2026-04-19T16:13:14.999Z</time></trkpt><trkpt lat="40.929076178478454" lon="0.8405883188459922"><ele>27.0</ele><time>2026-04-19T16:13:15.999Z</time></trkpt><trkpt lat="40.928846743120516" lon="0.8403846103082689"><ele>27.0</ele><time>2026-04-19T16:13:16.999Z</time></trkpt><trkpt lat="40.9286182503669" lon="0.8401774616541717"><ele>27.0</ele><time>2026-04-19T16:13:17.999Z</time></trkpt><trkpt lat="40.92838590791428" lon="0.8399696121015884"><ele>27.5</ele><time>2026-04-19T16:13:18.999Z</time></trkpt><trkpt lat="40.928155216980294" lon="0.8397634327157903"><ele>28.0</ele><time>2026-04-19T16:13:19.999Z</time></trkpt><trkpt lat="40.92792415859796" lon="0.8395598640621691"><ele>28.0</ele><time>2026-04-19T16:13:20.999Z</time></trkpt><trkpt lat="40.92769393230255" lon="0.8393566267250939"><ele>28.0</ele><time>2026-04-19T16:13:21.999Z</time></trkpt><trkpt lat="40.92746254815231" lon="0.8391525282851906"><ele>26.5</ele><time>2026-04-19T16:13:22.999Z</time></trkpt><trkpt lat="40.92723635006849" lon="0.8389495112125692"><ele>25.0</ele><time>2026-04-19T16:13:23.999Z</time></trkpt><trkpt lat="40.92701018234136" lon="0.8387469451729932"><ele>25.0</ele><time>2026-04-19T16:13:24.999Z</time></trkpt><trkpt lat="40.92678292368325" lon="0.8385435455456702"><ele>25.0</ele><time>2026-04-19T16:13:25.998Z</time></trkpt><trkpt lat="40.92656061124757" lon="0.8383390198144738"><ele>24.0</ele><time>2026-04-19T16:13:27Z</time></trkpt><trkpt lat="40.92633455945295" lon="0.838140796861979"><ele>23.0</ele><time>2026-04-19T16:13:28Z</time></trkpt><trkpt lat="40.92610686388709" lon="0.8379364892442644"><ele>22.5</ele><time>2026-04-19T16:13:29Z</time></trkpt><trkpt lat="40.925880201529644" lon="0.8377308385958243"><ele>22.0</ele><time>2026-04-19T16:13:30Z</time></trkpt><trkpt lat="40.92565776292822" lon="0.8375232083695966"><ele>22.0</ele><time>2026-04-19T16:13:31Z</time></trkpt><trkpt lat="40.92543558047471" lon="0.8373107396952836"><ele>22.0</ele><time>2026-04-19T16:13:32Z</time></trkpt><trkpt lat="40.9252135784632" lon="0.8371012720486251"><ele>22.0</ele><time>2026-04-19T16:13:33Z</time></trkpt><trkpt lat="40.92498974367521" lon="0.8368907780053981"><ele>22.0</ele><time>2026-04-19T16:13:34Z</time></trkpt><trkpt lat="40.92477011342186" lon="0.8366788014159998"><ele>23.0</ele><time>2026-04-19T16:13:35Z</time></trkpt><trkpt lat="40.92455212821894" lon="0.8364668066554973"><ele>24.0</ele><time>2026-04-19T16:13:36Z</time></trkpt><trkpt lat="40.924331267597644" lon="0.836255789637243"><ele>23.0</ele><time>2026-04-19T16:13:37Z</time></trkpt><trkpt lat="40.92411197984577" lon="0.836041947505386"><ele>22.0</ele><time>2026-04-19T16:13:38Z</time></trkpt><trkpt lat="40.92389607386018" lon="0.835831670103407"><ele>22.0</ele><time>2026-04-19T16:13:39Z</time></trkpt><trkpt lat="40.923678166331" lon="0.8356200987969116"><ele>22.0</ele><time>2026-04-19T16:13:40Z</time></trkpt><trkpt lat="40.92346201284979" lon="0.8354082737123274"><ele>21.5</ele><time>2026-04-19T16:13:41Z</time></trkpt><trkpt lat="40.92324738016769" lon="0.8351921273176387"><ele>21.0</ele><time>2026-04-19T16:13:42Z</time></trkpt><trkpt lat="40.92303442857471" lon="0.8349718606533261"><ele>21.0</ele><time>2026-04-19T16:13:43Z</time></trkpt><trkpt lat="40.922808899886554" lon="0.8347495489794868"><ele>21.0</ele><time>2026-04-19T16:13:44Z</time></trkpt><trkpt lat="40.922579955323194" lon="0.8345240234957733"><ele>20.5</ele><time>2026-04-19T16:13:45Z</time></trkpt><trkpt lat="40.922357225234705" lon="0.8342966288922"><ele>20.0</ele><time>2026-04-19T16:13:46Z</time></trkpt><trkpt lat="40.922129638809444" lon="0.8340668764860845"><ele>20.0</ele><time>2026-04-19T16:13:47Z</time></trkpt><trkpt lat="40.92190299028765" lon="0.8338377508551682"><ele>20.0</ele><time>2026-04-19T16:13:48Z</time></trkpt><trkpt lat="40.921677718097975" lon="0.8336048984185255"><ele>20.5</ele><time>2026-04-19T16:13:49Z</time></trkpt><trkpt lat="40.92144767731987" lon="0.8333766183190567"><ele>21.0</ele><time>2026-04-19T16:13:50Z</time></trkpt><trkpt lat="40.92121846270149" lon="0.8331477281367684"><ele>21.0</ele><time>2026-04-19T16:13:51Z</time></trkpt><trkpt lat="40.92099362087357" lon="0.8329206346056661"><ele>21.0</ele><time>2026-04-19T16:13:52Z</time></trkpt><trkpt lat="40.92076789833231" lon="0.832697479938387"><ele>20.5</ele><time>2026-04-19T16:13:53Z</time></trkpt><trkpt lat="40.92054778696602" lon="0.8324780199788099"><ele>20.0</ele><time>2026-04-19T16:13:54Z</time></trkpt><trkpt lat="40.920332304281445" lon="0.8322641695583258"><ele>20.0</ele><time>2026-04-19T16:13:55Z</time></trkpt><trkpt lat="40.92011232715833" lon="0.8320502501750011"><ele>20.0</ele><time>2026-04-19T16:13:56Z</time></trkpt><trkpt lat="40.91989912855174" lon="0.831837239510309"><ele>20.5</ele><time>2026-04-19T16:13:57Z</time></trkpt><trkpt lat="40.9196849121517" lon="0.8316265591756706"><ele>21.0</ele><time>2026-04-19T16:13:58Z</time></trkpt><trkpt lat="40.91946531946394" lon="0.8314188196921478"><ele>21.0</ele><time>2026-04-19T16:13:59Z</time></trkpt><trkpt lat="40.919254240721536" lon="0.831209914929233"><ele>21.0</ele><time>2026-04-19T16:14:00Z</time></trkpt><trkpt lat="40.91903731162836" lon="0.8310021555402645"><ele>19.5</ele><time>2026-04-19T16:14:01Z</time></trkpt><trkpt lat="40.91882604274632" lon="0.8308008861915979"><ele>18.0</ele><time>2026-04-19T16:14:02Z</time></trkpt><trkpt lat="40.918607261806194" lon="0.8305919715682367"><ele>16.5</ele><time>2026-04-19T16:14:03Z</time></trkpt><trkpt lat="40.91838420398876" lon="0.8303792583690559"><ele>15.0</ele><time>2026-04-19T16:14:04Z</time></trkpt><trkpt lat="40.91816295277672" lon="0.8301655033789939"><ele>15.5</ele><time>2026-04-19T16:14:05Z</time></trkpt><trkpt lat="40.91794479774487" lon="0.8299576269366424"><ele>16.0</ele><time>2026-04-19T16:14:06Z</time></trkpt><trkpt lat="40.917729767263175" lon="0.8297482851355493"><ele>16.5</ele><time>2026-04-19T16:14:07Z</time></trkpt><trkpt lat="40.9175112292814" lon="0.829543340181924"><ele>17.0</ele><time>2026-04-19T16:14:08Z</time></trkpt><trkpt lat="40.91729385071319" lon="0.8293365299924185"><ele>17.5</ele><time>2026-04-19T16:14:09Z</time></trkpt><trkpt lat="40.91707716189948" lon="0.8291324205609099"><ele>18.0</ele><time>2026-04-19T16:14:10Z</time></trkpt><trkpt lat="40.91686130319898" lon="0.8289282415166261"><ele>17.5</ele><time>2026-04-19T16:14:11Z</time></trkpt><trkpt lat="40.91664563091486" lon="0.8287253796712221"><ele>17.0</ele><time>2026-04-19T16:14:12Z</time></trkpt><trkpt lat="40.9164247018713" lon="0.8285227359457906"><ele>18.0</ele><time>2026-04-19T16:14:13Z</time></trkpt><trkpt lat="40.91620377892829" lon="0.828323432579951"><ele>19.0</ele><time>2026-04-19T16:14:14Z</time></trkpt><trkpt lat="40.91598346324881" lon="0.8281219599474606"><ele>17.0</ele><time>2026-04-19T16:14:15Z</time></trkpt><trkpt lat="40.91576064785734" lon="0.8279149278974811"><ele>15.0</ele><time>2026-04-19T16:14:16Z</time></trkpt><trkpt lat="40.91554156382876" lon="0.8277066901787691"><ele>16.5</ele><time>2026-04-19T16:14:17Z</time></trkpt><trkpt lat="40.915317818430914" lon="0.8274988240654897"><ele>18.0</ele><time>2026-04-19T16:14:18Z</time></trkpt><trkpt lat="40.915095178783886" lon="0.8272921056891143"><ele>16.5</ele><time>2026-04-19T16:14:19Z</time></trkpt><trkpt lat="40.91488150604372" lon="0.827086705163118"><ele>15.0</ele><time>2026-04-19T16:14:20Z</time></trkpt><trkpt lat="40.91466665641344" lon="0.826896896999385"><ele>14.0</ele><time>2026-04-19T16:14:21Z</time></trkpt><trkpt lat="40.91446088926748" lon="0.8267007357943248"><ele>13.0</ele><time>2026-04-19T16:14:22Z</time></trkpt><trkpt lat="40.91425189921445" lon="0.8265047553799674"><ele>11.5</ele><time>2026-04-19T16:14:23Z</time></trkpt><trkpt lat="40.91403673564901" lon="0.8263022093069295"><ele>10.0</ele><time>2026-04-19T16:14:24Z</time></trkpt><trkpt lat="40.913818773500616" lon="0.8260932623644444"><ele>10.0</ele><time>2026-04-19T16:14:25Z</time></trkpt><trkpt lat="40.913603247921614" lon="0.8258842744563679"><ele>10.0</ele><time>2026-04-19T16:14:26Z</time></trkpt><trkpt lat="40.91338595545384" lon="0.8256696525325808"><ele>10.0</ele><time>2026-04-19T16:14:26.999Z</time></trkpt><trkpt lat="40.913163661066406" lon="0.8254519413872702"><ele>10.0</ele><time>2026-04-19T16:14:27.999Z</time></trkpt><trkpt lat="40.91294942234029" lon="0.8252455926943547"><ele>10.0</ele><time>2026-04-19T16:14:28.999Z</time></trkpt><trkpt lat="40.91273235751863" lon="0.8250375863864606"><ele>10.0</ele><time>2026-04-19T16:14:29.999Z</time></trkpt><trkpt lat="40.91251645534262" lon="0.824828826535387"><ele>11.0</ele><time>2026-04-19T16:14:30.999Z</time></trkpt><trkpt lat="40.91230324712183" lon="0.8246128214646216"><ele>12.0</ele><time>2026-04-19T16:14:31.999Z</time></trkpt><trkpt lat="40.91209612613642" lon="0.8243937928764551"><ele>13.0</ele><time>2026-04-19T16:14:32.999Z</time></trkpt><trkpt lat="40.91189035396046" lon="0.8241819002810464"><ele>14.0</ele><time>2026-04-19T16:14:33.999Z</time></trkpt><trkpt lat="40.911686481291575" lon="0.8239711035678127"><ele>15.0</ele><time>2026-04-19T16:14:34.999Z</time></trkpt><trkpt lat="40.91147852275632" lon="0.8237598114634067"><ele>16.0</ele><time>2026-04-19T16:14:35.999Z</time></trkpt><trkpt lat="40.91126737680183" lon="0.8235432163376735"><ele>16.0</ele><time>2026-04-19T16:14:36.999Z</time></trkpt><trkpt lat="40.911061763321776" lon="0.8233318832267685"><ele>16.0</ele><time>2026-04-19T16:14:37.999Z</time></trkpt><trkpt lat="40.910853072223496" lon="0.8231169641962066"><ele>15.5</ele><time>2026-04-19T16:14:38.999Z</time></trkpt><trkpt lat="40.91064521456093" lon="0.8228998188878832"><ele>15.0</ele><time>2026-04-19T16:14:39.999Z</time></trkpt><trkpt lat="40.91043640360369" lon="0.8226805314776503"><ele>15.0</ele><time>2026-04-19T16:14:40.999Z</time></trkpt><trkpt lat="40.91022440570865" lon="0.8224551018961009"><ele>15.0</ele><time>2026-04-19T16:14:41.999Z</time></trkpt><trkpt lat="40.910010295962344" lon="0.822222240626427"><ele>15.5</ele><time>2026-04-19T16:14:42.999Z</time></trkpt><trkpt lat="40.90979388845537" lon="0.8219882532323577"><ele>16.0</ele><time>2026-04-19T16:14:43.999Z</time></trkpt><trkpt lat="40.90957793501133" lon="0.8217534016781275"><ele>17.5</ele><time>2026-04-19T16:14:44.999Z</time></trkpt><trkpt lat="40.90936079812036" lon="0.8215150811085504"><ele>19.0</ele><time>2026-04-19T16:14:45.999Z</time></trkpt><trkpt lat="40.9091446541206" lon="0.8212814264505128"><ele>19.0</ele><time>2026-04-19T16:14:46.999Z</time></trkpt><trkpt lat="40.90893055229456" lon="0.8210448394225838"><ele>19.0</ele><time>2026-04-19T16:14:47.999Z</time></trkpt><trkpt lat="40.908716019616634" lon="0.8208076355926247"><ele>20.0</ele><time>2026-04-19T16:14:48.999Z</time></trkpt><trkpt lat="40.908505907940956" lon="0.8205728333896659"><ele>21.0</ele><time>2026-04-19T16:14:49.999Z</time></trkpt><trkpt lat="40.908295036112115" lon="0.8203335442012801"><ele>22.0</ele><time>2026-04-19T16:14:50.999Z</time></trkpt><trkpt lat="40.908087279093834" lon="0.8201011471353575"><ele>23.0</ele><time>2026-04-19T16:14:51.999Z</time></trkpt><trkpt lat="40.907876115606264" lon="0.81986808042369"><ele>23.0</ele><time>2026-04-19T16:14:52.999Z</time></trkpt><trkpt lat="40.907665524842244" lon="0.819635364079204"><ele>23.0</ele><time>2026-04-19T16:14:53.999Z</time></trkpt><trkpt lat="40.90745852593827" lon="0.8194053035974057"><ele>23.0</ele><time>2026-04-19T16:14:54.999Z</time></trkpt><trkpt lat="40.90724823448802" lon="0.8191752695957736"><ele>23.0</ele><time>2026-04-19T16:14:55.999Z</time></trkpt><trkpt lat="40.90703733737694" lon="0.8189510394758741"><ele>23.0</ele><time>2026-04-19T16:14:56.999Z</time></trkpt><trkpt lat="40.90682376905341" lon="0.8187226254661063"><ele>23.0</ele><time>2026-04-19T16:14:57.999Z</time></trkpt><trkpt lat="40.90660867037849" lon="0.8184961105122566"><ele>24.0</ele><time>2026-04-19T16:14:58.999Z</time></trkpt><trkpt lat="40.90638912324621" lon="0.8182732684330969"><ele>25.0</ele><time>2026-04-19T16:14:59.999Z</time></trkpt><trkpt lat="40.90616662746061" lon="0.8180541176216906"><ele>25.0</ele><time>2026-04-19T16:15:00.999Z</time></trkpt><trkpt lat="40.90594416901167" lon="0.8178389698769737"><ele>25.0</ele><time>2026-04-19T16:15:01.999Z</time></trkpt><trkpt lat="40.90572103405017" lon="0.8176220467321402"><ele>24.0</ele><time>2026-04-19T16:15:02.999Z</time></trkpt><trkpt lat="40.905496910947626" lon="0.8174075924995092"><ele>23.0</ele><time>2026-04-19T16:15:03.999Z</time></trkpt><trkpt lat="40.905268708597895" lon="0.8171959345179443"><ele>22.5</ele><time>2026-04-19T16:15:04.999Z</time></trkpt><trkpt lat="40.90504106078568" lon="0.8169922752107278"><ele>22.0</ele><time>2026-04-19T16:15:05.999Z</time></trkpt><trkpt lat="40.90481160427356" lon="0.8167848124928069"><ele>23.0</ele><time>2026-04-19T16:15:06.999Z</time></trkpt><trkpt lat="40.904581657071446" lon="0.8165723291092016"><ele>24.0</ele><time>2026-04-19T16:15:07.999Z</time></trkpt><trkpt lat="40.904350799727126" lon="0.8163662706710861"><ele>23.5</ele><time>2026-04-19T16:15:08.999Z</time></trkpt><trkpt lat="40.904116917756525" lon="0.8161560523420478"><ele>23.0</ele><time>2026-04-19T16:15:09.999Z</time></trkpt><trkpt lat="40.903883672820285" lon="0.8159463545405755"><ele>23.0</ele><time>2026-04-19T16:15:10.999Z</time></trkpt><trkpt lat="40.90365195938308" lon="0.8157350578693716"><ele>23.0</ele><time>2026-04-19T16:15:11.999Z</time></trkpt><trkpt lat="40.903416882038215" lon="0.8155288979708184"><ele>24.0</ele><time>2026-04-19T16:15:12.999Z</time></trkpt><trkpt lat="40.903181531131075" lon="0.8153260984540298"><ele>25.0</ele><time>2026-04-19T16:15:13.999Z</time></trkpt><trkpt lat="40.902952924591034" lon="0.8151136907253481"><ele>25.5</ele><time>2026-04-19T16:15:14.999Z</time></trkpt><trkpt lat="40.90272528431039" lon="0.8148967857026586"><ele>26.0</ele><time>2026-04-19T16:15:15.999Z</time></trkpt><trkpt lat="40.902497740365945" lon="0.8146818800883946"><ele>26.0</ele><time>2026-04-19T16:15:16.999Z</time></trkpt><trkpt lat="40.902268447501356" lon="0.8144687367018054"><ele>26.0</ele><time>2026-04-19T16:15:17.999Z</time></trkpt><trkpt lat="40.902037928132295" lon="0.8142589471810179"><ele>24.5</ele><time>2026-04-19T16:15:18.999Z</time></trkpt><trkpt lat="40.90180705196535" lon="0.8140530512532418"><ele>23.0</ele><time>2026-04-19T16:15:19.999Z</time></trkpt><trkpt lat="40.90157331158484" lon="0.813846070839021"><ele>20.5</ele><time>2026-04-19T16:15:20.999Z</time></trkpt><trkpt lat="40.90134717794142" lon="0.8136381659728418"><ele>18.0</ele><time>2026-04-19T16:15:21.999Z</time></trkpt><trkpt lat="40.901121085261984" lon="0.8134289601166362"><ele>21.0</ele><time>2026-04-19T16:15:22.999Z</time></trkpt><trkpt lat="40.900896821063164" lon="0.8132197638886021"><ele>24.0</ele><time>2026-04-19T16:15:23.999Z</time></trkpt><trkpt lat="40.90067495035198" lon="0.813009369100307"><ele>24.0</ele><time>2026-04-19T16:15:24.999Z</time></trkpt><trkpt lat="40.9004523847269" lon="0.812796658141466"><ele>24.0</ele><time>2026-04-19T16:15:25.999Z</time></trkpt><trkpt lat="40.900232647768235" lon="0.8125845545495703"><ele>25.0</ele><time>2026-04-19T16:15:26.999Z</time></trkpt><trkpt lat="40.900009530750744" lon="0.812379068625472"><ele>26.0</ele><time>2026-04-19T16:15:27.999Z</time></trkpt><trkpt lat="40.89978470736407" lon="0.8121719356891719"><ele>26.0</ele><time>2026-04-19T16:15:28.999Z</time></trkpt><trkpt lat="40.89956193880962" lon="0.8119602082799099"><ele>26.0</ele><time>2026-04-19T16:15:29.999Z</time></trkpt><trkpt lat="40.89934705037246" lon="0.8117557408627367"><ele>26.0</ele><time>2026-04-19T16:15:30.999Z</time></trkpt><trkpt lat="40.89913178943711" lon="0.8115453457010413"><ele>26.0</ele><time>2026-04-19T16:15:31.999Z</time></trkpt><trkpt lat="40.898919279097946" lon="0.8113391195126655"><ele>26.0</ele><time>2026-04-19T16:15:33Z</time></trkpt><trkpt lat="40.898705032411605" lon="0.8111293571442882"><ele>26.0</ele><time>2026-04-19T16:15:34Z</time></trkpt><trkpt lat="40.89849474112427" lon="0.8109210823472107"><ele>24.5</ele><time>2026-04-19T16:15:35Z</time></trkpt><trkpt lat="40.89828392168536" lon="0.810709547115695"><ele>23.0</ele><time>2026-04-19T16:15:36Z</time></trkpt><trkpt lat="40.89807386309416" lon="0.8104950174443549"><ele>23.0</ele><time>2026-04-19T16:15:37Z</time></trkpt><trkpt lat="40.89786176384674" lon="0.8102812101748452"><ele>23.0</ele><time>2026-04-19T16:15:38Z</time></trkpt><trkpt lat="40.897650124807164" lon="0.8100705980414293"><ele>23.5</ele><time>2026-04-19T16:15:39Z</time></trkpt><trkpt lat="40.897440406018475" lon="0.8098593634267008"><ele>24.0</ele><time>2026-04-19T16:15:40Z</time></trkpt><trkpt lat="40.89723043951241" lon="0.8096497148382169"><ele>24.0</ele><time>2026-04-19T16:15:41Z</time></trkpt><trkpt lat="40.89701981907964" lon="0.8094363651775783"><ele>24.0</ele><time>2026-04-19T16:15:42Z</time></trkpt><trkpt lat="40.89680921273098" lon="0.8092194829889803"><ele>25.5</ele><time>2026-04-19T16:15:43Z</time></trkpt><trkpt lat="40.896597845232904" lon="0.8090038777611669"><ele>27.0</ele><time>2026-04-19T16:15:44Z</time></trkpt><trkpt lat="40.89638472992057" lon="0.8087839893891812"><ele>27.0</ele><time>2026-04-19T16:15:45Z</time></trkpt><trkpt lat="40.896171724997" lon="0.8085648033793476"><ele>27.0</ele><time>2026-04-19T16:15:46Z</time></trkpt><trkpt lat="40.89595849215943" lon="0.8083454623086931"><ele>26.5</ele><time>2026-04-19T16:15:47Z</time></trkpt><trkpt lat="40.89574990089067" lon="0.8081301620679864"><ele>26.0</ele><time>2026-04-19T16:15:48Z</time></trkpt><trkpt lat="40.89554247027295" lon="0.807912540676967"><ele>26.0</ele><time>2026-04-19T16:15:49Z</time></trkpt><trkpt lat="40.895332297704776" lon="0.8076993175062126"><ele>26.0</ele><time>2026-04-19T16:15:50Z</time></trkpt><trkpt lat="40.89512217941249" lon="0.8074909807459729"><ele>26.0</ele><time>2026-04-19T16:15:51Z</time></trkpt><trkpt lat="40.8949096576874" lon="0.8072811481664616"><ele>26.0</ele><time>2026-04-19T16:15:52Z</time></trkpt><trkpt lat="40.894691767028874" lon="0.8070654356796227"><ele>26.0</ele><time>2026-04-19T16:15:53Z</time></trkpt><trkpt lat="40.89447243282582" lon="0.8068517695404209"><ele>26.0</ele><time>2026-04-19T16:15:54Z</time></trkpt><trkpt lat="40.89425234264872" lon="0.8066394178008878"><ele>25.5</ele><time>2026-04-19T16:15:55Z</time></trkpt><trkpt lat="40.89402846010807" lon="0.8064267109447768"><ele>25.0</ele><time>2026-04-19T16:15:56Z</time></trkpt><trkpt lat="40.89380317550207" lon="0.806213390945997"><ele>25.0</ele><time>2026-04-19T16:15:57Z</time></trkpt><trkpt lat="40.89358093499707" lon="0.8060002267950085"><ele>25.0</ele><time>2026-04-19T16:15:58Z</time></trkpt><trkpt lat="40.89336824821609" lon="0.8057933723046797"><ele>25.5</ele><time>2026-04-19T16:15:59Z</time></trkpt><trkpt lat="40.893159888672656" lon="0.8055949828254052"><ele>26.0</ele><time>2026-04-19T16:16:00Z</time></trkpt><trkpt lat="40.89295163421635" lon="0.8053988151418032"><ele>26.0</ele><time>2026-04-19T16:16:01Z</time></trkpt><trkpt lat="40.892744852923904" lon="0.805205954428083"><ele>26.0</ele><time>2026-04-19T16:16:02Z</time></trkpt><trkpt lat="40.892537489991014" lon="0.8050166248502968"><ele>25.5</ele><time>2026-04-19T16:16:03Z</time></trkpt><trkpt lat="40.892327461238075" lon="0.8048268671491972"><ele>25.0</ele><time>2026-04-19T16:16:04Z</time></trkpt><trkpt lat="40.89211756274185" lon="0.8046312913106729"><ele>25.0</ele><time>2026-04-19T16:16:05Z</time></trkpt><trkpt lat="40.89190740533037" lon="0.8044357878336288"><ele>25.0</ele><time>2026-04-19T16:16:06Z</time></trkpt><trkpt lat="40.89169190094254" lon="0.8042389956904674"><ele>25.5</ele><time>2026-04-19T16:16:07Z</time></trkpt><trkpt lat="40.89147569295726" lon="0.8040451653011352"><ele>26.0</ele><time>2026-04-19T16:16:08Z</time></trkpt><trkpt lat="40.89125908774397" lon="0.803851299188868"><ele>26.0</ele><time>2026-04-19T16:16:09Z</time></trkpt><trkpt lat="40.891045398530274" lon="0.8036549693263749"><ele>26.0</ele><time>2026-04-19T16:16:10Z</time></trkpt><trkpt lat="40.89083554628499" lon="0.8034450810635378"><ele>24.5</ele><time>2026-04-19T16:16:11Z</time></trkpt><trkpt lat="40.89062748523881" lon="0.8032543099910331"><ele>23.0</ele><time>2026-04-19T16:16:12Z</time></trkpt><trkpt lat="40.8904249191544" lon="0.803068558540453"><ele>23.0</ele><time>2026-04-19T16:16:13Z</time></trkpt><trkpt lat="40.89022872108277" lon="0.802877691748119"><ele>23.0</ele><time>2026-04-19T16:16:14Z</time></trkpt><trkpt lat="40.890026358966026" lon="0.8026836944856727"><ele>22.5</ele><time>2026-04-19T16:16:15Z</time></trkpt><trkpt lat="40.88982343743124" lon="0.8024828244720822"><ele>22.0</ele><time>2026-04-19T16:16:16Z</time></trkpt><trkpt lat="40.88962392675895" lon="0.8022829962600938"><ele>22.0</ele><time>2026-04-19T16:16:17Z</time></trkpt><trkpt lat="40.88942048001311" lon="0.802082554769547"><ele>22.0</ele><time>2026-04-19T16:16:18Z</time></trkpt><trkpt lat="40.88922528505157" lon="0.8018831681883863"><ele>20.5</ele><time>2026-04-19T16:16:19Z</time></trkpt><trkpt lat="40.889032622483334" lon="0.801685382934188"><ele>19.0</ele><time>2026-04-19T16:16:20Z</time></trkpt><trkpt lat="40.888834357346724" lon="0.80147987794482"><ele>19.0</ele><time>2026-04-19T16:16:21Z</time></trkpt><trkpt lat="40.888637339403274" lon="0.801271731042015"><ele>19.0</ele><time>2026-04-19T16:16:22Z</time></trkpt><trkpt lat="40.88843003035684" lon="0.8010494330131915"><ele>20.5</ele><time>2026-04-19T16:16:23Z</time></trkpt><trkpt lat="40.88821274499259" lon="0.8008253644921961"><ele>22.0</ele><time>2026-04-19T16:16:24Z</time></trkpt><trkpt lat="40.887988737398416" lon="0.8005951456171615"><ele>22.0</ele><time>2026-04-19T16:16:25Z</time></trkpt><trkpt lat="40.88777217189948" lon="0.8003511308682594"><ele>22.0</ele><time>2026-04-19T16:16:26Z</time></trkpt><trkpt lat="40.88754868415382" lon="0.8001104880917346"><ele>22.5</ele><time>2026-04-19T16:16:27Z</time></trkpt><trkpt lat="40.88732397450626" lon="0.7998693804319148"><ele>23.0</ele><time>2026-04-19T16:16:27.999Z</time></trkpt><trkpt lat="40.8870935361962" lon="0.7996316429202892"><ele>23.0</ele><time>2026-04-19T16:16:28.999Z</time></trkpt><trkpt lat="40.88686177564641" lon="0.7993962020615768"><ele>23.0</ele><time>2026-04-19T16:16:29.999Z</time></trkpt><trkpt lat="40.88663365784125" lon="0.7991559850728428"><ele>22.5</ele><time>2026-04-19T16:16:30.999Z</time></trkpt><trkpt lat="40.88640240565777" lon="0.7989131769890218"><ele>22.0</ele><time>2026-04-19T16:16:31.999Z</time></trkpt><trkpt lat="40.88617055429489" lon="0.7986754535026046"><ele>22.0</ele><time>2026-04-19T16:16:32.999Z</time></trkpt><trkpt lat="40.885941304456864" lon="0.7984317016878462"><ele>22.0</ele><time>2026-04-19T16:16:33.999Z</time></trkpt><trkpt lat="40.88571483531981" lon="0.7981880834063783"><ele>22.0</ele><time>2026-04-19T16:16:34.999Z</time></trkpt><trkpt lat="40.88549026463682" lon="0.7979524234462494"><ele>22.0</ele><time>2026-04-19T16:16:35.999Z</time></trkpt><trkpt lat="40.88526386967098" lon="0.7977187633959867"><ele>21.5</ele><time>2026-04-19T16:16:36.999Z</time></trkpt><trkpt lat="40.885036562690225" lon="0.7974868345762681"><ele>21.0</ele><time>2026-04-19T16:16:37.999Z</time></trkpt><trkpt lat="40.884812996861896" lon="0.7972586702050826"><ele>21.0</ele><time>2026-04-19T16:16:38.999Z</time></trkpt><trkpt lat="40.884590163293545" lon="0.7970338937910214"><ele>21.0</ele><time>2026-04-19T16:16:39.999Z</time></trkpt><trkpt lat="40.88436453929746" lon="0.7968072206971043"><ele>20.5</ele><time>2026-04-19T16:16:40.999Z</time></trkpt><trkpt lat="40.88414170523665" lon="0.7965855105628737"><ele>20.0</ele><time>2026-04-19T16:16:41.999Z</time></trkpt><trkpt lat="40.88391321735541" lon="0.7963643435415273"><ele>20.0</ele><time>2026-04-19T16:16:42.999Z</time></trkpt><trkpt lat="40.88368705400367" lon="0.7961424314413406"><ele>20.0</ele><time>2026-04-19T16:16:43.999Z</time></trkpt><trkpt lat="40.883462404391075" lon="0.795921207953481"><ele>21.0</ele><time>2026-04-19T16:16:44.999Z</time></trkpt><trkpt lat="40.88323766344031" lon="0.7956990723006496"><ele>22.0</ele><time>2026-04-19T16:16:45.999Z</time></trkpt><trkpt lat="40.883010349829156" lon="0.7954789177747371"><ele>22.0</ele><time>2026-04-19T16:16:46.999Z</time></trkpt><trkpt lat="40.88278617707016" lon="0.7952629113900503"><ele>22.0</ele><time>2026-04-19T16:16:47.999Z</time></trkpt><trkpt lat="40.88256102015652" lon="0.7950495915496492"><ele>21.5</ele><time>2026-04-19T16:16:48.999Z</time></trkpt><trkpt lat="40.882331348264564" lon="0.7948331521187882"><ele>21.0</ele><time>2026-04-19T16:16:49.999Z</time></trkpt><trkpt lat="40.88210536667106" lon="0.7946186536643506"><ele>21.0</ele><time>2026-04-19T16:16:50.999Z</time></trkpt><trkpt lat="40.8818818469401" lon="0.7944032043196112"><ele>21.0</ele><time>2026-04-19T16:16:51.999Z</time></trkpt><trkpt lat="40.881656793464764" lon="0.7941868323099328"><ele>22.5</ele><time>2026-04-19T16:16:52.999Z</time></trkpt><trkpt lat="40.881435955016414" lon="0.7939768000311072"><ele>24.0</ele><time>2026-04-19T16:16:53.999Z</time></trkpt><trkpt lat="40.881215784884326" lon="0.7937605891939776"><ele>24.0</ele><time>2026-04-19T16:16:54.999Z</time></trkpt><trkpt lat="40.88099705711567" lon="0.7935507353137352"><ele>24.0</ele><time>2026-04-19T16:16:55.999Z</time></trkpt><trkpt lat="40.88077318994696" lon="0.793347177142163"><ele>22.5</ele><time>2026-04-19T16:16:56.999Z</time></trkpt><trkpt lat="40.880550507955164" lon="0.79314778621735"><ele>21.0</ele><time>2026-04-19T16:16:57.999Z</time></trkpt><trkpt lat="40.88033216859332" lon="0.792949879962432"><ele>21.0</ele><time>2026-04-19T16:16:58.999Z</time></trkpt><trkpt lat="40.88011353622169" lon="0.7927540956031089"><ele>21.0</ele><time>2026-04-19T16:16:59.999Z</time></trkpt><trkpt lat="40.879895476543375" lon="0.7925592978087528"><ele>19.5</ele><time>2026-04-19T16:17:00.999Z</time></trkpt><trkpt lat="40.879680472626134" lon="0.7923615910614085"><ele>18.0</ele><time>2026-04-19T16:17:01.999Z</time></trkpt><trkpt lat="40.87946817108881" lon="0.7921643460882133"><ele>17.5</ele><time>2026-04-19T16:17:02.999Z</time></trkpt><trkpt lat="40.8792578423069" lon="0.7919662949810822"><ele>17.0</ele><time>2026-04-19T16:17:03.999Z</time></trkpt><trkpt lat="40.87904906524487" lon="0.7917695690572847"><ele>19.0</ele><time>2026-04-19T16:17:04.999Z</time></trkpt><trkpt lat="40.87883669959498" lon="0.791566228408749"><ele>21.0</ele><time>2026-04-19T16:17:05.999Z</time></trkpt><trkpt lat="40.878623473908824" lon="0.7913657742966634"><ele>21.5</ele><time>2026-04-19T16:17:06.999Z</time></trkpt><trkpt lat="40.878410381094966" lon="0.7911631015640049"><ele>22.0</ele><time>2026-04-19T16:17:07.999Z</time></trkpt><trkpt lat="40.87819637604205" lon="0.7909561796554123"><ele>22.0</ele><time>2026-04-19T16:17:08.999Z</time></trkpt><trkpt lat="40.877985100773245" lon="0.7907444867175941"><ele>22.0</ele><time>2026-04-19T16:17:09.999Z</time></trkpt><trkpt lat="40.87777295048322" lon="0.7905292670994541"><ele>20.5</ele><time>2026-04-19T16:17:10.999Z</time></trkpt><trkpt lat="40.87756186213489" lon="0.7903120783114387"><ele>19.0</ele><time>2026-04-19T16:17:11.999Z</time></trkpt><trkpt lat="40.87734798617458" lon="0.7900876601911131"><ele>19.0</ele><time>2026-04-19T16:17:12.999Z</time></trkpt><trkpt lat="40.877137795758564" lon="0.7898630992638389"><ele>19.0</ele><time>2026-04-19T16:17:13.999Z</time></trkpt><trkpt lat="40.8769281118092" lon="0.7896373967795033"><ele>18.0</ele><time>2026-04-19T16:17:14.999Z</time></trkpt><trkpt lat="40.87671494233094" lon="0.7894058891033606"><ele>17.0</ele><time>2026-04-19T16:17:15.999Z</time></trkpt><trkpt lat="40.87650750246309" lon="0.7891715072477423"><ele>16.0</ele><time>2026-04-19T16:17:16.999Z</time></trkpt><trkpt lat="40.8762983639441" lon="0.7889355163764338"><ele>15.0</ele><time>2026-04-19T16:17:17.999Z</time></trkpt><trkpt lat="40.876088665320204" lon="0.7886990465518989"><ele>15.0</ele><time>2026-04-19T16:17:18.999Z</time></trkpt><trkpt lat="40.87588246944193" lon="0.7884558593290578"><ele>15.0</ele><time>2026-04-19T16:17:19.999Z</time></trkpt><trkpt lat="40.87567592647178" lon="0.788215569908231"><ele>15.0</ele><time>2026-04-19T16:17:20.999Z</time></trkpt><trkpt lat="40.875470722927446" lon="0.7879686810232134"><ele>15.0</ele><time>2026-04-19T16:17:21.999Z</time></trkpt><trkpt lat="40.875269637312584" lon="0.7877216419911565"><ele>15.5</ele><time>2026-04-19T16:17:22.999Z</time></trkpt><trkpt lat="40.875069149204066" lon="0.7874752298086225"><ele>16.0</ele><time>2026-04-19T16:17:23.999Z</time></trkpt><trkpt lat="40.87487936135217" lon="0.7872389094213325"><ele>16.0</ele><time>2026-04-19T16:17:24.999Z</time></trkpt><trkpt lat="40.87468938053029" lon="0.7869996724147732"><ele>16.0</ele><time>2026-04-19T16:17:25.999Z</time></trkpt><trkpt lat="40.874508069341125" lon="0.7867667101944771"><ele>17.0</ele><time>2026-04-19T16:17:26.999Z</time></trkpt><trkpt lat="40.874327263495225" lon="0.7865380234523628"><ele>18.0</ele><time>2026-04-19T16:17:27.999Z</time></trkpt><trkpt lat="40.87415005232236" lon="0.7863097646372202"><ele>15.5</ele><time>2026-04-19T16:17:28.999Z</time></trkpt><trkpt lat="40.873970435697146" lon="0.7860768074038106"><ele>13.0</ele><time>2026-04-19T16:17:29.999Z</time></trkpt><trkpt lat="40.87379423078472" lon="0.7858433263061523"><ele>13.0</ele><time>2026-04-19T16:17:30.998Z</time></trkpt><trkpt lat="40.87361558696937" lon="0.785611678381464"><ele>13.0</ele><time>2026-04-19T16:17:31.998Z</time></trkpt><trkpt lat="40.87343317476104" lon="0.7853710971413651"><ele>13.0</ele><time>2026-04-19T16:17:32.998Z</time></trkpt><trkpt lat="40.87324784055517" lon="0.7851332725449791"><ele>13.0</ele><time>2026-04-19T16:17:33.998Z</time></trkpt><trkpt lat="40.87305677196632" lon="0.7848922236628618"><ele>13.0</ele><time>2026-04-19T16:17:34.998Z</time></trkpt><trkpt lat="40.87286003737131" lon="0.7846455553867621"><ele>13.0</ele><time>2026-04-19T16:17:35.998Z</time></trkpt><trkpt lat="40.872666467082276" lon="0.7843984227064209"><ele>16.0</ele><time>2026-04-19T16:17:36.998Z</time></trkpt><trkpt lat="40.87247503636602" lon="0.7841522041037062"><ele>19.0</ele><time>2026-04-19T16:17:37.998Z</time></trkpt><trkpt lat="40.872280442772244" lon="0.7839053302384418"><ele>19.0</ele><time>2026-04-19T16:17:39Z</time></trkpt><trkpt lat="40.872086875984344" lon="0.7836609110517843"><ele>19.0</ele><time>2026-04-19T16:17:40Z</time></trkpt><trkpt lat="40.87189019134623" lon="0.7834181283986277"><ele>18.5</ele><time>2026-04-19T16:17:41Z</time></trkpt><trkpt lat="40.87169280585859" lon="0.78317544010981"><ele>18.0</ele><time>2026-04-19T16:17:42Z</time></trkpt><trkpt lat="40.871497007966475" lon="0.7829299837710461"><ele>18.0</ele><time>2026-04-19T16:17:43Z</time></trkpt><trkpt lat="40.87129957588634" lon="0.7826840807407695"><ele>18.0</ele><time>2026-04-19T16:17:44Z</time></trkpt><trkpt lat="40.8711017034581" lon="0.7824389900198819"><ele>19.0</ele><time>2026-04-19T16:17:45Z</time></trkpt><trkpt lat="40.87089824650574" lon="0.782192062102512"><ele>20.0</ele><time>2026-04-19T16:17:46Z</time></trkpt><trkpt lat="40.87069506883722" lon="0.7819427422438159"><ele>20.5</ele><time>2026-04-19T16:17:47Z</time></trkpt><trkpt lat="40.87048687183524" lon="0.7816941548348323"><ele>21.0</ele><time>2026-04-19T16:17:48Z</time></trkpt><trkpt lat="40.87027840179798" lon="0.7814476238663333"><ele>20.5</ele><time>2026-04-19T16:17:49Z</time></trkpt><trkpt lat="40.87006988274955" lon="0.7812070696588108"><ele>20.0</ele><time>2026-04-19T16:17:50Z</time></trkpt><trkpt lat="40.86986022994077" lon="0.7809630444723706"><ele>20.0</ele><time>2026-04-19T16:17:51Z</time></trkpt><trkpt lat="40.86965378112377" lon="0.7807185087814652"><ele>20.0</ele><time>2026-04-19T16:17:52Z</time></trkpt><trkpt lat="40.86944793350937" lon="0.780472858538991"><ele>20.0</ele><time>2026-04-19T16:17:53Z</time></trkpt><trkpt lat="40.86923989244116" lon="0.780227651644079"><ele>20.0</ele><time>2026-04-19T16:17:54Z</time></trkpt><trkpt lat="40.869029546690626" lon="0.7799797482366518"><ele>20.0</ele><time>2026-04-19T16:17:55Z</time></trkpt><trkpt lat="40.868821869362" lon="0.7797349991394649"><ele>20.0</ele><time>2026-04-19T16:17:56Z</time></trkpt><trkpt lat="40.86861371096776" lon="0.7794895616284468"><ele>19.5</ele><time>2026-04-19T16:17:57Z</time></trkpt><trkpt lat="40.868410350007764" lon="0.7792486085628698"><ele>19.0</ele><time>2026-04-19T16:17:58Z</time></trkpt><trkpt lat="40.86820398074002" lon="0.779009733322398"><ele>19.0</ele><time>2026-04-19T16:17:59Z</time></trkpt><trkpt lat="40.86799724779915" lon="0.7787702491369732"><ele>19.0</ele><time>2026-04-19T16:18:00Z</time></trkpt><trkpt lat="40.867794100983254" lon="0.7785354958542136"><ele>16.5</ele><time>2026-04-19T16:18:01Z</time></trkpt><trkpt lat="40.86759164988292" lon="0.778299609689752"><ele>14.0</ele><time>2026-04-19T16:18:02Z</time></trkpt><trkpt lat="40.86739343327358" lon="0.7780661872830889"><ele>14.0</ele><time>2026-04-19T16:18:03Z</time></trkpt><trkpt lat="40.86719837581701" lon="0.7778286363895888"><ele>14.0</ele><time>2026-04-19T16:18:04Z</time></trkpt><trkpt lat="40.866999722586115" lon="0.7775958278002251"><ele>13.0</ele><time>2026-04-19T16:18:05Z</time></trkpt><trkpt lat="40.86680768007759" lon="0.7773653857439214"><ele>12.0</ele><time>2026-04-19T16:18:06Z</time></trkpt><trkpt lat="40.8666158559681" lon="0.777136124792361"><ele>13.0</ele><time>2026-04-19T16:18:07Z</time></trkpt><trkpt lat="40.866428897392794" lon="0.7769107523155222"><ele>14.0</ele><time>2026-04-19T16:18:08Z</time></trkpt><trkpt lat="40.86624205246658" lon="0.7766833320707976"><ele>14.0</ele><time>2026-04-19T16:18:09Z</time></trkpt><trkpt lat="40.86605255367078" lon="0.7764583895642487"><ele>14.0</ele><time>2026-04-19T16:18:10Z</time></trkpt><trkpt lat="40.86586099969293" lon="0.7762284375838884"><ele>17.0</ele><time>2026-04-19T16:18:11Z</time></trkpt><trkpt lat="40.865667813343975" lon="0.7759935052372815"><ele>20.0</ele><time>2026-04-19T16:18:12Z</time></trkpt><trkpt lat="40.865472012642705" lon="0.7757490101418527"><ele>20.0</ele><time>2026-04-19T16:18:13Z</time></trkpt><trkpt lat="40.865277129823724" lon="0.7755028817148228"><ele>20.0</ele><time>2026-04-19T16:18:14Z</time></trkpt><trkpt lat="40.86507898438783" lon="0.7752529688823971"><ele>20.5</ele><time>2026-04-19T16:18:15Z</time></trkpt><trkpt lat="40.86487905009594" lon="0.775004180650202"><ele>21.0</ele><time>2026-04-19T16:18:16Z</time></trkpt><trkpt lat="40.86467899640286" lon="0.7747557852214322"><ele>21.0</ele><time>2026-04-19T16:18:17Z</time></trkpt><trkpt lat="40.8644749940292" lon="0.7745020161510541"><ele>21.0</ele><time>2026-04-19T16:18:18Z</time></trkpt><trkpt lat="40.86427365094442" lon="0.7742470871037339"><ele>19.5</ele><time>2026-04-19T16:18:19Z</time></trkpt><trkpt lat="40.86407317827025" lon="0.7739955924237985"><ele>18.0</ele><time>2026-04-19T16:18:20Z</time></trkpt><trkpt lat="40.86387131353817" lon="0.7737450354177621"><ele>19.0</ele><time>2026-04-19T16:18:21Z</time></trkpt><trkpt lat="40.86367289051468" lon="0.7734960561097429"><ele>20.0</ele><time>2026-04-19T16:18:22Z</time></trkpt><trkpt lat="40.86348053514691" lon="0.7732534297988737"><ele>19.0</ele><time>2026-04-19T16:18:23Z</time></trkpt><trkpt lat="40.86329557200795" lon="0.7730149080147187"><ele>18.0</ele><time>2026-04-19T16:18:24Z</time></trkpt><trkpt lat="40.86311071347888" lon="0.7727700258446157"><ele>19.5</ele><time>2026-04-19T16:18:25Z</time></trkpt><trkpt lat="40.86292257934795" lon="0.7725294607854475"><ele>21.0</ele><time>2026-04-19T16:18:26Z</time></trkpt><trkpt lat="40.86273136882665" lon="0.7722904330260458"><ele>20.0</ele><time>2026-04-19T16:18:27Z</time></trkpt><trkpt lat="40.86254365144055" lon="0.7720591553659265"><ele>19.0</ele><time>2026-04-19T16:18:28Z</time></trkpt><trkpt lat="40.86235910849069" lon="0.771829623548684"><ele>19.0</ele><time>2026-04-19T16:18:29Z</time></trkpt><trkpt lat="40.86217435712227" lon="0.771593073357465"><ele>19.0</ele><time>2026-04-19T16:18:30Z</time></trkpt><trkpt lat="40.86199119038395" lon="0.771355990808363"><ele>19.0</ele><time>2026-04-19T16:18:31Z</time></trkpt><trkpt lat="40.861807018873584" lon="0.7711176188766589"><ele>19.0</ele><time>2026-04-19T16:18:32Z</time></trkpt><trkpt lat="40.86162504166612" lon="0.7708842343353517"><ele>18.0</ele><time>2026-04-19T16:18:33Z</time></trkpt><trkpt lat="40.86144519439981" lon="0.7706582980319191"><ele>17.0</ele><time>2026-04-19T16:18:33.999Z</time></trkpt><trkpt lat="40.86126135851211" lon="0.7704306182247037"><ele>17.0</ele><time>2026-04-19T16:18:34.999Z</time></trkpt><trkpt lat="40.86107790851685" lon="0.7702054981829807"><ele>17.0</ele><time>2026-04-19T16:18:35.999Z</time></trkpt><trkpt lat="40.8608916475283" lon="0.7699714451792079"><ele>15.5</ele><time>2026-04-19T16:18:36.999Z</time></trkpt><trkpt lat="40.86070786692289" lon="0.7697411285009094"><ele>14.0</ele><time>2026-04-19T16:18:37.999Z</time></trkpt><trkpt lat="40.860521363032355" lon="0.7695019063333897"><ele>15.5</ele><time>2026-04-19T16:18:38.999Z</time></trkpt><trkpt lat="40.860332716269134" lon="0.7692712073393382"><ele>17.0</ele><time>2026-04-19T16:18:39.999Z</time></trkpt><trkpt lat="40.86014262687037" lon="0.7690446414628076"><ele>16.0</ele><time>2026-04-19T16:18:40.999Z</time></trkpt><trkpt lat="40.85995666481896" lon="0.7688238967693163"><ele>15.0</ele><time>2026-04-19T16:18:41.999Z</time></trkpt><trkpt lat="40.85976741800007" lon="0.7685986275866064"><ele>16.0</ele><time>2026-04-19T16:18:42.999Z</time></trkpt><trkpt lat="40.859579281804464" lon="0.7683806245342116"><ele>17.0</ele><time>2026-04-19T16:18:43.999Z</time></trkpt><trkpt lat="40.859389925678364" lon="0.7681564919974793"><ele>17.0</ele><time>2026-04-19T16:18:44.999Z</time></trkpt><trkpt lat="40.85920390590688" lon="0.7679272412848975"><ele>17.0</ele><time>2026-04-19T16:18:45.999Z</time></trkpt><trkpt lat="40.85901392732605" lon="0.7676980787326444"><ele>17.0</ele><time>2026-04-19T16:18:46.999Z</time></trkpt><trkpt lat="40.85881730999764" lon="0.7674739293537727"><ele>17.0</ele><time>2026-04-19T16:18:47.999Z</time></trkpt><trkpt lat="40.85862031758781" lon="0.767241694120178"><ele>17.5</ele><time>2026-04-19T16:18:48.999Z</time></trkpt><trkpt lat="40.858423774798" lon="0.7670138867333327"><ele>18.0</ele><time>2026-04-19T16:18:49.999Z</time></trkpt><trkpt lat="40.85822592460159" lon="0.7667853352706298"><ele>19.0</ele><time>2026-04-19T16:18:50.999Z</time></trkpt><trkpt lat="40.85802841233703" lon="0.7665649683089193"><ele>20.0</ele><time>2026-04-19T16:18:51.999Z</time></trkpt><trkpt lat="40.857828917628154" lon="0.7663372455891152"><ele>20.0</ele><time>2026-04-19T16:18:52.999Z</time></trkpt><trkpt lat="40.85763013956712" lon="0.7661114224950308"><ele>20.0</ele><time>2026-04-19T16:18:53.999Z</time></trkpt><trkpt lat="40.857428617390994" lon="0.7658858710899731"><ele>19.5</ele><time>2026-04-19T16:18:54.999Z</time></trkpt><trkpt lat="40.857227122925934" lon="0.7656600314026982"><ele>19.0</ele><time>2026-04-19T16:18:55.999Z</time></trkpt><trkpt lat="40.85702414396028" lon="0.7654327940447126"><ele>19.0</ele><time>2026-04-19T16:18:56.999Z</time></trkpt><trkpt lat="40.85681775240046" lon="0.7652021126647547"><ele>19.0</ele><time>2026-04-19T16:18:57.999Z</time></trkpt><trkpt lat="40.85661562626138" lon="0.7649757868576472"><ele>19.0</ele><time>2026-04-19T16:18:58.999Z</time></trkpt><trkpt lat="40.85640809621441" lon="0.7647539906751301"><ele>19.0</ele><time>2026-04-19T16:18:59.999Z</time></trkpt><trkpt lat="40.856204412124676" lon="0.764531321210201"><ele>18.5</ele><time>2026-04-19T16:19:00.999Z</time></trkpt><trkpt lat="40.85600350362664" lon="0.7643075720451259"><ele>18.0</ele><time>2026-04-19T16:19:01.999Z</time></trkpt><trkpt lat="40.85580325830168" lon="0.7640842747810881"><ele>18.0</ele><time>2026-04-19T16:19:02.999Z</time></trkpt><trkpt lat="40.85560450913748" lon="0.7638662025009597"><ele>18.0</ele><time>2026-04-19T16:19:03.999Z</time></trkpt><trkpt lat="40.85540653843747" lon="0.7636508321722303"><ele>20.5</ele><time>2026-04-19T16:19:04.999Z</time></trkpt><trkpt lat="40.855210557997026" lon="0.7634372047082747"><ele>23.0</ele><time>2026-04-19T16:19:05.999Z</time></trkpt><trkpt lat="40.855013852659276" lon="0.7632238420927705"><ele>23.0</ele><time>2026-04-19T16:19:06.999Z</time></trkpt><trkpt lat="40.85482385375059" lon="0.7630112790279474"><ele>23.0</ele><time>2026-04-19T16:19:07.999Z</time></trkpt><trkpt lat="40.854638040524684" lon="0.7627976980714621"><ele>24.0</ele><time>2026-04-19T16:19:08.999Z</time></trkpt><trkpt lat="40.85445572249416" lon="0.7625903411535415"><ele>25.0</ele><time>2026-04-19T16:19:09.999Z</time></trkpt><trkpt lat="40.85427170418302" lon="0.7623793689920886"><ele>25.0</ele><time>2026-04-19T16:19:10.999Z</time></trkpt><trkpt lat="40.85408798288422" lon="0.7621701314249947"><ele>25.0</ele><time>2026-04-19T16:19:11.999Z</time></trkpt><trkpt lat="40.853905816788455" lon="0.7619499310148234"><ele>26.5</ele><time>2026-04-19T16:19:12.999Z</time></trkpt><trkpt lat="40.85372344377022" lon="0.7617261259188128"><ele>28.0</ele><time>2026-04-19T16:19:13.999Z</time></trkpt><trkpt lat="40.853535196671665" lon="0.7614923654806289"><ele>27.5</ele><time>2026-04-19T16:19:14.999Z</time></trkpt><trkpt lat="40.85334807033094" lon="0.761259009813206"><ele>27.0</ele><time>2026-04-19T16:19:15.999Z</time></trkpt><trkpt lat="40.85316111400083" lon="0.7610248914113512"><ele>27.0</ele><time>2026-04-19T16:19:16.999Z</time></trkpt><trkpt lat="40.85297333700711" lon="0.760786201694568"><ele>27.0</ele><time>2026-04-19T16:19:17.999Z</time></trkpt><trkpt lat="40.85279009100971" lon="0.7605442497943143"><ele>28.5</ele><time>2026-04-19T16:19:18.999Z</time></trkpt><trkpt lat="40.852604734446246" lon="0.760302343823054"><ele>30.0</ele><time>2026-04-19T16:19:19.999Z</time></trkpt><trkpt lat="40.8524196752885" lon="0.7600589363380178"><ele>32.5</ele><time>2026-04-19T16:19:20.999Z</time></trkpt><trkpt lat="40.85223613061745" lon="0.7598116425706333"><ele>35.0</ele><time>2026-04-19T16:19:21.999Z</time></trkpt><trkpt lat="40.8520548293514" lon="0.7595618806700936"><ele>36.0</ele><time>2026-04-19T16:19:22.999Z</time></trkpt><trkpt lat="40.85187164088886" lon="0.7593096861383583"><ele>37.0</ele><time>2026-04-19T16:19:23.999Z</time></trkpt><trkpt lat="40.85168933837559" lon="0.7590517468189683"><ele>37.0</ele><time>2026-04-19T16:19:24.999Z</time></trkpt><trkpt lat="40.85150768439892" lon="0.7587871181731435"><ele>37.0</ele><time>2026-04-19T16:19:25.999Z</time></trkpt><trkpt lat="40.851325854437384" lon="0.7585213686829108"><ele>39.5</ele><time>2026-04-19T16:19:26.999Z</time></trkpt><trkpt lat="40.85114531351858" lon="0.7582497363757237"><ele>42.0</ele><time>2026-04-19T16:19:27.999Z</time></trkpt><trkpt lat="40.850967159705675" lon="0.7579808228709027"><ele>40.0</ele><time>2026-04-19T16:19:28.999Z</time></trkpt><trkpt lat="40.85079488077104" lon="0.7577151204703372"><ele>38.0</ele><time>2026-04-19T16:19:29.999Z</time></trkpt><trkpt lat="40.85063152608502" lon="0.7574649301677613"><ele>38.0</ele><time>2026-04-19T16:19:30.999Z</time></trkpt><trkpt lat="40.85046405439681" lon="0.75721086315071"><ele>38.0</ele><time>2026-04-19T16:19:31.999Z</time></trkpt><trkpt lat="40.85030423562064" lon="0.756957676238964"><ele>39.5</ele><time>2026-04-19T16:19:32.998Z</time></trkpt><trkpt lat="40.850148056554474" lon="0.7567097557390674"><ele>41.0</ele><time>2026-04-19T16:19:33.998Z</time></trkpt><trkpt lat="40.84999491630877" lon="0.7564563824318419"><ele>38.5</ele><time>2026-04-19T16:19:34.998Z</time></trkpt><trkpt lat="40.84984441863672" lon="0.7562008338077634"><ele>36.0</ele><time>2026-04-19T16:19:35.998Z</time></trkpt><trkpt lat="40.849695893271054" lon="0.7559442789100391"><ele>36.0</ele><time>2026-04-19T16:19:36.998Z</time></trkpt><trkpt lat="40.849544141387476" lon="0.7556810849090978"><ele>36.0</ele><time>2026-04-19T16:19:37.998Z</time></trkpt><trkpt lat="40.849394325118" lon="0.75542228179335"><ele>32.0</ele><time>2026-04-19T16:19:38.998Z</time></trkpt><trkpt lat="40.84924481465903" lon="0.7551626479704769"><ele>28.0</ele><time>2026-04-19T16:19:39.998Z</time></trkpt><trkpt lat="40.849100169056804" lon="0.7549065612416819"><ele>28.0</ele><time>2026-04-19T16:19:40.998Z</time></trkpt><trkpt lat="40.84896002657873" lon="0.7546534320856481"><ele>28.0</ele><time>2026-04-19T16:19:41.998Z</time></trkpt><trkpt lat="40.84881999795346" lon="0.7544070893408934"><ele>28.0</ele><time>2026-04-19T16:19:42.998Z</time></trkpt><trkpt lat="40.848677835474625" lon="0.7541517864246146"><ele>28.0</ele><time>2026-04-19T16:19:43.998Z</time></trkpt><trkpt lat="40.84853868660318" lon="0.7538965319550157"><ele>28.0</ele><time>2026-04-19T16:19:45Z</time></trkpt><trkpt lat="40.8484017061942" lon="0.7536317402327034"><ele>28.0</ele><time>2026-04-19T16:19:46Z</time></trkpt><trkpt lat="40.84825888861971" lon="0.7533727384291212"><ele>28.0</ele><time>2026-04-19T16:19:47Z</time></trkpt><trkpt lat="40.84812209045848" lon="0.7531125091776142"><ele>28.0</ele><time>2026-04-19T16:19:48Z</time></trkpt><trkpt lat="40.84798338700198" lon="0.7528580204653499"><ele>32.0</ele><time>2026-04-19T16:19:49Z</time></trkpt><trkpt lat="40.84783860053054" lon="0.7525974667571265"><ele>36.0</ele><time>2026-04-19T16:19:50Z</time></trkpt><trkpt lat="40.84769004777995" lon="0.752344917502428"><ele>32.0</ele><time>2026-04-19T16:19:51Z</time></trkpt><trkpt lat="40.847540857489946" lon="0.7520950527928851"><ele>28.0</ele><time>2026-04-19T16:19:52Z</time></trkpt><trkpt lat="40.847392654003194" lon="0.7518424169654869"><ele>28.0</ele><time>2026-04-19T16:19:53Z</time></trkpt><trkpt lat="40.84724105022967" lon="0.7515950928977779"><ele>28.0</ele><time>2026-04-19T16:19:54Z</time></trkpt><trkpt lat="40.84708573622993" lon="0.7513508710816534"><ele>28.0</ele><time>2026-04-19T16:19:55Z</time></trkpt><trkpt lat="40.8469252506258" lon="0.7511017071378099"><ele>28.0</ele><time>2026-04-19T16:19:56Z</time></trkpt><trkpt lat="40.84676501521962" lon="0.7508440420414663"><ele>22.5</ele><time>2026-04-19T16:19:57Z</time></trkpt><trkpt lat="40.8466018444469" lon="0.7505992507941921"><ele>17.0</ele><time>2026-04-19T16:19:58Z</time></trkpt><trkpt lat="40.8464392704228" lon="0.7503230998748107"><ele>16.5</ele><time>2026-04-19T16:19:59Z</time></trkpt><trkpt lat="40.846269352669275" lon="0.7500749415786535"><ele>16.0</ele><time>2026-04-19T16:20:00Z</time></trkpt><trkpt lat="40.84609468203854" lon="0.7498292190621697"><ele>20.5</ele><time>2026-04-19T16:20:01Z</time></trkpt><trkpt lat="40.84591954307061" lon="0.7495864394929868"><ele>25.0</ele><time>2026-04-19T16:20:02Z</time></trkpt><trkpt lat="40.845738826862686" lon="0.7493456888461556"><ele>27.5</ele><time>2026-04-19T16:20:03Z</time></trkpt><trkpt lat="40.84556233877538" lon="0.7491078247847228"><ele>30.0</ele><time>2026-04-19T16:20:04Z</time></trkpt><trkpt lat="40.8453801232707" lon="0.7488758444748156"><ele>30.0</ele><time>2026-04-19T16:20:05Z</time></trkpt><trkpt lat="40.84519586143261" lon="0.7486467384070645"><ele>30.0</ele><time>2026-04-19T16:20:06Z</time></trkpt><trkpt lat="40.84500744570968" lon="0.7484261366696104"><ele>32.0</ele><time>2026-04-19T16:20:07Z</time></trkpt><trkpt lat="40.844812463752376" lon="0.7482123610362976"><ele>34.0</ele><time>2026-04-19T16:20:08Z</time></trkpt><trkpt lat="40.844621038624325" lon="0.7479966591452852"><ele>34.0</ele><time>2026-04-19T16:20:09Z</time></trkpt><trkpt lat="40.8444247938863" lon="0.7477890051451322"><ele>34.0</ele><time>2026-04-19T16:20:10Z</time></trkpt><trkpt lat="40.84422855436792" lon="0.7475772579284243"><ele>36.0</ele><time>2026-04-19T16:20:11Z</time></trkpt><trkpt lat="40.844030819803734" lon="0.7473688887928115"><ele>38.0</ele><time>2026-04-19T16:20:12Z</time></trkpt><trkpt lat="40.84382652976253" lon="0.7471642986026497"><ele>38.0</ele><time>2026-04-19T16:20:13Z</time></trkpt><trkpt lat="40.84361205583498" lon="0.7469690023970317"><ele>38.0</ele><time>2026-04-19T16:20:14Z</time></trkpt><trkpt lat="40.84339893753659" lon="0.7467708667952107"><ele>38.0</ele><time>2026-04-19T16:20:15Z</time></trkpt><trkpt lat="40.84318980101387" lon="0.7465795160398963"><ele>38.0</ele><time>2026-04-19T16:20:16Z</time></trkpt><trkpt lat="40.842980500220996" lon="0.7463924382638082"><ele>38.0</ele><time>2026-04-19T16:20:17Z</time></trkpt><trkpt lat="40.84277075000069" lon="0.7462142472462442"><ele>38.0</ele><time>2026-04-19T16:20:18Z</time></trkpt><trkpt lat="40.842559218399856" lon="0.7460390305391256"><ele>41.0</ele><time>2026-04-19T16:20:19Z</time></trkpt><trkpt lat="40.842342880195304" lon="0.7458654021206442"><ele>44.0</ele><time>2026-04-19T16:20:20Z</time></trkpt><trkpt lat="40.842116179397244" lon="0.7456941751790755"><ele>44.0</ele><time>2026-04-19T16:20:21Z</time></trkpt><trkpt lat="40.84188938810504" lon="0.7455231831154108"><ele>44.0</ele><time>2026-04-19T16:20:22Z</time></trkpt><trkpt lat="40.841656651722246" lon="0.7453568710004143"><ele>46.5</ele><time>2026-04-19T16:20:23Z</time></trkpt><trkpt lat="40.841419480165065" lon="0.7451925714707686"><ele>49.0</ele><time>2026-04-19T16:20:24Z</time></trkpt><trkpt lat="40.84117738942754" lon="0.7450357216702357"><ele>42.0</ele><time>2026-04-19T16:20:25Z</time></trkpt><trkpt lat="40.84093245377131" lon="0.744881391331295"><ele>35.0</ele><time>2026-04-19T16:20:26Z</time></trkpt><trkpt lat="40.84067943696697" lon="0.7447313285621672"><ele>35.0</ele><time>2026-04-19T16:20:27Z</time></trkpt><trkpt lat="40.840422283832304" lon="0.7445836228494834"><ele>35.0</ele><time>2026-04-19T16:20:28Z</time></trkpt><trkpt lat="40.84016323444614" lon="0.7444385102950872"><ele>31.5</ele><time>2026-04-19T16:20:29Z</time></trkpt><trkpt lat="40.83990864386493" lon="0.7442818346915043"><ele>28.0</ele><time>2026-04-19T16:20:30Z</time></trkpt><trkpt lat="40.8396507883382" lon="0.744129847300453"><ele>28.0</ele><time>2026-04-19T16:20:30.999Z</time></trkpt><trkpt lat="40.839389918649886" lon="0.7439885719095317"><ele>28.0</ele><time>2026-04-19T16:20:31.999Z</time></trkpt><trkpt lat="40.839129977779166" lon="0.7438485899291052"><ele>27.5</ele><time>2026-04-19T16:20:32.999Z</time></trkpt><trkpt lat="40.83886994073" lon="0.7437031663594442"><ele>27.0</ele><time>2026-04-19T16:20:33.999Z</time></trkpt><trkpt lat="40.83860006858978" lon="0.7435649753187968"><ele>31.0</ele><time>2026-04-19T16:20:34.999Z</time></trkpt><trkpt lat="40.83834139969777" lon="0.7434245596377161"><ele>35.0</ele><time>2026-04-19T16:20:35.999Z</time></trkpt><trkpt lat="40.83809204282475" lon="0.7432896732782647"><ele>35.0</ele><time>2026-04-19T16:20:36.999Z</time></trkpt><trkpt lat="40.83783874143636" lon="0.7431522399510673"><ele>35.0</ele><time>2026-04-19T16:20:37.999Z</time></trkpt><trkpt lat="40.83758418599039" lon="0.7430088161629557"><ele>30.5</ele><time>2026-04-19T16:20:38.999Z</time></trkpt><trkpt lat="40.8373261655893" lon="0.7428696291142298"><ele>26.0</ele><time>2026-04-19T16:20:39.999Z</time></trkpt><trkpt lat="40.83707275015358" lon="0.7427331035161815"><ele>25.0</ele><time>2026-04-19T16:20:40.999Z</time></trkpt><trkpt lat="40.8368185007273" lon="0.742588748612651"><ele>24.0</ele><time>2026-04-19T16:20:41.999Z</time></trkpt><trkpt lat="40.83656549201441" lon="0.7424390167229247"><ele>24.0</ele><time>2026-04-19T16:20:42.999Z</time></trkpt><trkpt lat="40.83631652398426" lon="0.7422901345890658"><ele>24.0</ele><time>2026-04-19T16:20:43.999Z</time></trkpt><trkpt lat="40.83607685994169" lon="0.7421380176960244"><ele>23.0</ele><time>2026-04-19T16:20:44.999Z</time></trkpt><trkpt lat="40.83583704802525" lon="0.7419803473255671"><ele>22.0</ele><time>2026-04-19T16:20:45.999Z</time></trkpt><trkpt lat="40.83559707274885" lon="0.74182594326121"><ele>21.5</ele><time>2026-04-19T16:20:46.999Z</time></trkpt><trkpt lat="40.83536588906478" lon="0.7416722433052343"><ele>21.0</ele><time>2026-04-19T16:20:47.999Z</time></trkpt><trkpt lat="40.83513398833019" lon="0.7415075776875519"><ele>21.0</ele><time>2026-04-19T16:20:48.999Z</time></trkpt><trkpt lat="40.834902073315476" lon="0.7413355495590632"><ele>21.0</ele><time>2026-04-19T16:20:49.999Z</time></trkpt><trkpt lat="40.8346743539925" lon="0.7411579492305342"><ele>22.0</ele><time>2026-04-19T16:20:50.999Z</time></trkpt><trkpt lat="40.83444658567277" lon="0.7409785151825851"><ele>23.0</ele><time>2026-04-19T16:20:51.999Z</time></trkpt><trkpt lat="40.83422282580523" lon="0.7407985822112906"><ele>23.0</ele><time>2026-04-19T16:20:52.999Z</time></trkpt><trkpt lat="40.834002127266544" lon="0.7406152222022991"><ele>23.0</ele><time>2026-04-19T16:20:53.999Z</time></trkpt><trkpt lat="40.833781719486865" lon="0.7404207831904285"><ele>23.0</ele><time>2026-04-19T16:20:54.999Z</time></trkpt><trkpt lat="40.83356344126906" lon="0.7402214780150995"><ele>23.0</ele><time>2026-04-19T16:20:55.999Z</time></trkpt><trkpt lat="40.83334817919662" lon="0.7400189122469328"><ele>20.0</ele><time>2026-04-19T16:20:56.999Z</time></trkpt><trkpt lat="40.83313582643842" lon="0.7398157558499906"><ele>17.0</ele><time>2026-04-19T16:20:57.999Z</time></trkpt><trkpt lat="40.83292628213143" lon="0.7396042399304263"><ele>16.5</ele><time>2026-04-19T16:20:58.999Z</time></trkpt><trkpt lat="40.83271839530702" lon="0.7393809912971785"><ele>16.0</ele><time>2026-04-19T16:20:59.999Z</time></trkpt><trkpt lat="40.83250865241365" lon="0.7391520384605829"><ele>16.0</ele><time>2026-04-19T16:21:00.999Z</time></trkpt><trkpt lat="40.83229883579604" lon="0.7389179494102672"><ele>16.0</ele><time>2026-04-19T16:21:01.999Z</time></trkpt><trkpt lat="40.8320907702659" lon="0.7386776310589693"><ele>15.0</ele><time>2026-04-19T16:21:02.999Z</time></trkpt><trkpt lat="40.83188376679835" lon="0.73842837859382"><ele>14.0</ele><time>2026-04-19T16:21:03.999Z</time></trkpt><trkpt lat="40.8316788595007" lon="0.7381731029816901"><ele>16.0</ele><time>2026-04-19T16:21:04.999Z</time></trkpt><trkpt lat="40.831475835150144" lon="0.7379190431239213"><ele>18.0</ele><time>2026-04-19T16:21:05.999Z</time></trkpt><trkpt lat="40.83127690161891" lon="0.7376637424821848"><ele>19.5</ele><time>2026-04-19T16:21:06.999Z</time></trkpt><trkpt lat="40.83108162800578" lon="0.7374101806547106"><ele>21.0</ele><time>2026-04-19T16:21:07.999Z</time></trkpt><trkpt lat="40.83089312243252" lon="0.7371557476762389"><ele>21.5</ele><time>2026-04-19T16:21:08.999Z</time></trkpt><trkpt lat="40.8307092553646" lon="0.7369002706775637"><ele>22.0</ele><time>2026-04-19T16:21:09.999Z</time></trkpt><trkpt lat="40.83052795535764" lon="0.7366403923864324"><ele>23.5</ele><time>2026-04-19T16:21:10.999Z</time></trkpt><trkpt lat="40.83034819469529" lon="0.7363746823291459"><ele>25.0</ele><time>2026-04-19T16:21:11.999Z</time></trkpt><trkpt lat="40.8301706144373" lon="0.736094485075169"><ele>26.0</ele><time>2026-04-19T16:21:12.999Z</time></trkpt><trkpt lat="40.829993594904806" lon="0.7358207577880219"><ele>27.0</ele><time>2026-04-19T16:21:13.999Z</time></trkpt><trkpt lat="40.829811674481164" lon="0.7355388055815247"><ele>27.0</ele><time>2026-04-19T16:21:14.999Z</time></trkpt><trkpt lat="40.829633531106424" lon="0.7352535378600767"><ele>27.0</ele><time>2026-04-19T16:21:15.999Z</time></trkpt><trkpt lat="40.82946131053421" lon="0.7349617485798504"><ele>25.5</ele><time>2026-04-19T16:21:16.999Z</time></trkpt><trkpt lat="40.829294218609974" lon="0.7346631260226512"><ele>24.0</ele><time>2026-04-19T16:21:17.999Z</time></trkpt><trkpt lat="40.82912965189036" lon="0.734364371986689"><ele>23.5</ele><time>2026-04-19T16:21:18.999Z</time></trkpt><trkpt lat="40.828965110733606" lon="0.7340722762260165"><ele>23.0</ele><time>2026-04-19T16:21:19.999Z</time></trkpt><trkpt lat="40.82880222911107" lon="0.7337770325631288"><ele>21.0</ele><time>2026-04-19T16:21:20.999Z</time></trkpt><trkpt lat="40.828637698197305" lon="0.7334828930301682"><ele>19.0</ele><time>2026-04-19T16:21:21.999Z</time></trkpt><trkpt lat="40.82847393696615" lon="0.7331925551424846"><ele>18.0</ele><time>2026-04-19T16:21:22.999Z</time></trkpt><trkpt lat="40.82830821384049" lon="0.7329038201334761"><ele>17.0</ele><time>2026-04-19T16:21:23.999Z</time></trkpt><trkpt lat="40.82814244559902" lon="0.7326112711830594"><ele>17.0</ele><time>2026-04-19T16:21:24.999Z</time></trkpt><trkpt lat="40.8279775815026" lon="0.7323196912242463"><ele>17.0</ele><time>2026-04-19T16:21:25.999Z</time></trkpt><trkpt lat="40.82781429106608" lon="0.7320291941907735"><ele>19.0</ele><time>2026-04-19T16:21:26.999Z</time></trkpt><trkpt lat="40.82765267259181" lon="0.7317379260583954"><ele>21.0</ele><time>2026-04-19T16:21:27.998Z</time></trkpt><trkpt lat="40.827489776346674" lon="0.7314462868022442"><ele>23.0</ele><time>2026-04-19T16:21:28.998Z</time></trkpt><trkpt lat="40.8273238835014" lon="0.7311563397111897"><ele>25.0</ele><time>2026-04-19T16:21:29.998Z</time></trkpt><trkpt lat="40.827155864173186" lon="0.7308682940616961"><ele>26.5</ele><time>2026-04-19T16:21:30.998Z</time></trkpt><trkpt lat="40.826982635384766" lon="0.7305898670457746"><ele>28.0</ele><time>2026-04-19T16:21:31.998Z</time></trkpt><trkpt lat="40.82681168772193" lon="0.7303152660089821"><ele>29.5</ele><time>2026-04-19T16:21:32.998Z</time></trkpt><trkpt lat="40.826647600022255" lon="0.7300557632794876"><ele>31.0</ele><time>2026-04-19T16:21:33.998Z</time></trkpt><trkpt lat="40.826482996562596" lon="0.7297980548085824"><ele>31.0</ele><time>2026-04-19T16:21:34.998Z</time></trkpt><trkpt lat="40.82631625070439" lon="0.7295369701327897"><ele>31.0</ele><time>2026-04-19T16:21:35.998Z</time></trkpt><trkpt lat="40.82614092444794" lon="0.7292666769036962"><ele>29.0</ele><time>2026-04-19T16:21:36.998Z</time></trkpt><trkpt lat="40.825965590810355" lon="0.7289998737386569"><ele>27.0</ele><time>2026-04-19T16:21:37.998Z</time></trkpt><trkpt lat="40.82579149016815" lon="0.7287365351078677"><ele>28.0</ele><time>2026-04-19T16:21:38.998Z</time></trkpt><trkpt lat="40.82561696609785" lon="0.7284841362328836"><ele>29.0</ele><time>2026-04-19T16:21:39.998Z</time></trkpt><trkpt lat="40.82544387748262" lon="0.728231039850886"><ele>29.0</ele><time>2026-04-19T16:21:40.998Z</time></trkpt><trkpt lat="40.82527027477371" lon="0.7279798231675817"><ele>29.0</ele><time>2026-04-19T16:21:41.998Z</time></trkpt><trkpt lat="40.825093001306456" lon="0.7277265387850795"><ele>29.0</ele><time>2026-04-19T16:21:42.998Z</time></trkpt><trkpt lat="40.82491513158208" lon="0.7274791381825878"><ele>29.0</ele><time>2026-04-19T16:21:43.998Z</time></trkpt><trkpt lat="40.8247350359894" lon="0.7272351391731395"><ele>29.0</ele><time>2026-04-19T16:21:44.998Z</time></trkpt><trkpt lat="40.82455599137659" lon="0.7269910191425691"><ele>29.0</ele><time>2026-04-19T16:21:45.998Z</time></trkpt><trkpt lat="40.82437435368769" lon="0.7267440617266364"><ele>28.0</ele><time>2026-04-19T16:21:46.998Z</time></trkpt><trkpt lat="40.82419245167474" lon="0.7264937701616218"><ele>27.0</ele><time>2026-04-19T16:21:47.998Z</time></trkpt><trkpt lat="40.82401128312996" lon="0.7262416533089152"><ele>27.0</ele><time>2026-04-19T16:21:48.998Z</time></trkpt><trkpt lat="40.82382731146447" lon="0.7259890311476415"><ele>27.0</ele><time>2026-04-19T16:21:49.998Z</time></trkpt><trkpt lat="40.82364327391626" lon="0.7257301613476754"><ele>26.0</ele><time>2026-04-19T16:21:51Z</time></trkpt><trkpt lat="40.82346075966758" lon="0.7254654239076449"><ele>25.0</ele><time>2026-04-19T16:21:52Z</time></trkpt><trkpt lat="40.823279153145634" lon="0.7252096556629122"><ele>23.5</ele><time>2026-04-19T16:21:53Z</time></trkpt><trkpt lat="40.82309649171998" lon="0.7249529208211264"><ele>22.0</ele><time>2026-04-19T16:21:54Z</time></trkpt><trkpt lat="40.822913438220716" lon="0.7246984035366753"><ele>22.0</ele><time>2026-04-19T16:21:55Z</time></trkpt><trkpt lat="40.822731915095495" lon="0.7244400738160627"><ele>22.0</ele><time>2026-04-19T16:21:56Z</time></trkpt><trkpt lat="40.822556535067356" lon="0.7241830820291921"><ele>21.0</ele><time>2026-04-19T16:21:57Z</time></trkpt><trkpt lat="40.82238314707775" lon="0.7239218227176586"><ele>20.0</ele><time>2026-04-19T16:21:58Z</time></trkpt><trkpt lat="40.82220883156031" lon="0.7236644202228424"><ele>22.5</ele><time>2026-04-19T16:21:59Z</time></trkpt><trkpt lat="40.822036306915074" lon="0.723400469994575"><ele>25.0</ele><time>2026-04-19T16:22:00Z</time></trkpt><trkpt lat="40.82187349074057" lon="0.7231414485980132"><ele>24.5</ele><time>2026-04-19T16:22:01Z</time></trkpt><trkpt lat="40.82170993403596" lon="0.7228845454499834"><ele>24.0</ele><time>2026-04-19T16:22:02Z</time></trkpt><trkpt lat="40.821548951746486" lon="0.7226310248454678"><ele>24.0</ele><time>2026-04-19T16:22:03Z</time></trkpt><trkpt lat="40.82138843392984" lon="0.7223803453217137"><ele>24.0</ele><time>2026-04-19T16:22:04Z</time></trkpt><trkpt lat="40.821231480164826" lon="0.7221261003830369"><ele>25.0</ele><time>2026-04-19T16:22:05Z</time></trkpt><trkpt lat="40.821078614576535" lon="0.7218684237518269"><ele>26.0</ele><time>2026-04-19T16:22:06Z</time></trkpt><trkpt lat="40.8209282787729" lon="0.7216147263100289"><ele>24.0</ele><time>2026-04-19T16:22:07Z</time></trkpt><trkpt lat="40.820776258825816" lon="0.7213538063655015"><ele>22.0</ele><time>2026-04-19T16:22:08Z</time></trkpt><trkpt lat="40.82062734550159" lon="0.7210920445016908"><ele>23.0</ele><time>2026-04-19T16:22:09Z</time></trkpt><trkpt lat="40.82047598323261" lon="0.7208252116152704"><ele>24.0</ele><time>2026-04-19T16:22:10Z</time></trkpt><trkpt lat="40.82032954790357" lon="0.7205602451963482"><ele>24.0</ele><time>2026-04-19T16:22:11Z</time></trkpt><trkpt lat="40.820182911802" lon="0.7202945866952268"><ele>24.0</ele><time>2026-04-19T16:22:12Z</time></trkpt><trkpt lat="40.82003636091127" lon="0.7200211626107492"><ele>23.0</ele><time>2026-04-19T16:22:13Z</time></trkpt><trkpt lat="40.81989189453283" lon="0.7197464343670453"><ele>22.0</ele><time>2026-04-19T16:22:14Z</time></trkpt><trkpt lat="40.81974731400562" lon="0.7194674753783876"><ele>21.0</ele><time>2026-04-19T16:22:15Z</time></trkpt><trkpt lat="40.81960611037187" lon="0.7191908734084362"><ele>20.0</ele><time>2026-04-19T16:22:16Z</time></trkpt><trkpt lat="40.81946428864544" lon="0.7189113442617763"><ele>20.0</ele><time>2026-04-19T16:22:17Z</time></trkpt><trkpt lat="40.81932413786776" lon="0.7186274700677397"><ele>20.0</ele><time>2026-04-19T16:22:18Z</time></trkpt><trkpt lat="40.81918711334672" lon="0.7183465765316435"><ele>18.0</ele><time>2026-04-19T16:22:19Z</time></trkpt><trkpt lat="40.81904883118652" lon="0.7180658249156439"><ele>16.0</ele><time>2026-04-19T16:22:20Z</time></trkpt><trkpt lat="40.8189119073722" lon="0.7177881031405319"><ele>17.5</ele><time>2026-04-19T16:22:21Z</time></trkpt><trkpt lat="40.818777194352805" lon="0.7175039741467693"><ele>19.0</ele><time>2026-04-19T16:22:22Z</time></trkpt><trkpt lat="40.81864274540556" lon="0.7172181574895896"><ele>19.0</ele><time>2026-04-19T16:22:23Z</time></trkpt><trkpt lat="40.81851010003287" lon="0.7169315987479553"><ele>19.0</ele><time>2026-04-19T16:22:24Z</time></trkpt><trkpt lat="40.81837918112908" lon="0.716641497492263"><ele>19.0</ele><time>2026-04-19T16:22:25Z</time></trkpt><trkpt lat="40.81824801103255" lon="0.7163538732752225"><ele>19.0</ele><time>2026-04-19T16:22:26Z</time></trkpt><trkpt lat="40.81811972137333" lon="0.7160762576490641"><ele>19.0</ele><time>2026-04-19T16:22:27Z</time></trkpt><trkpt lat="40.81798719563207" lon="0.7157898464112333"><ele>19.0</ele><time>2026-04-19T16:22:28Z</time></trkpt><trkpt lat="40.817855788665405" lon="0.715504834420155"><ele>19.0</ele><time>2026-04-19T16:22:29Z</time></trkpt><trkpt lat="40.81772239230607" lon="0.7152187878857176"><ele>19.0</ele><time>2026-04-19T16:22:30Z</time></trkpt><trkpt lat="40.8175903663465" lon="0.7149267918764918"><ele>18.0</ele><time>2026-04-19T16:22:31Z</time></trkpt><trkpt lat="40.817456795107184" lon="0.7146388194173681"><ele>17.0</ele><time>2026-04-19T16:22:32Z</time></trkpt><trkpt lat="40.8173234381861" lon="0.7143484793290866"><ele>16.0</ele><time>2026-04-19T16:22:33Z</time></trkpt><trkpt lat="40.81718707305287" lon="0.7140523768576494"><ele>15.0</ele><time>2026-04-19T16:22:34Z</time></trkpt><trkpt lat="40.817050603311856" lon="0.7137596573764555"><ele>15.0</ele><time>2026-04-19T16:22:35Z</time></trkpt><trkpt lat="40.816910854353296" lon="0.7134592138839992"><ele>15.0</ele><time>2026-04-19T16:22:35.999Z</time></trkpt><trkpt lat="40.81676620477531" lon="0.7131572214731449"><ele>15.0</ele><time>2026-04-19T16:22:36.999Z</time></trkpt><trkpt lat="40.816622712415096" lon="0.7128550974465722"><ele>15.0</ele><time>2026-04-19T16:22:37.999Z</time></trkpt><trkpt lat="40.81647787512213" lon="0.7125515509570943"><ele>14.0</ele><time>2026-04-19T16:22:38.999Z</time></trkpt><trkpt lat="40.816332204643" lon="0.7122512491380429"><ele>13.0</ele><time>2026-04-19T16:22:39.999Z</time></trkpt><trkpt lat="40.81618560916597" lon="0.7119493845414276"><ele>12.5</ele><time>2026-04-19T16:22:40.999Z</time></trkpt><trkpt lat="40.81604704788501" lon="0.7116488614020549"><ele>12.0</ele><time>2026-04-19T16:22:41.999Z</time></trkpt><trkpt lat="40.815909680172986" lon="0.7113534895563552"><ele>11.0</ele><time>2026-04-19T16:22:42.999Z</time></trkpt><trkpt lat="40.81577514796448" lon="0.7110623827850014"><ele>10.0</ele><time>2026-04-19T16:22:43.999Z</time></trkpt><trkpt lat="40.81563896057389" lon="0.7107709960751705"><ele>10.0</ele><time>2026-04-19T16:22:44.999Z</time></trkpt><trkpt lat="40.81550707423141" lon="0.7104802201070395"><ele>10.0</ele><time>2026-04-19T16:22:45.999Z</time></trkpt><trkpt lat="40.81537402936396" lon="0.7101910321631003"><ele>11.0</ele><time>2026-04-19T16:22:46.999Z</time></trkpt><trkpt lat="40.815243446002285" lon="0.7099063005307418"><ele>12.0</ele><time>2026-04-19T16:22:47.999Z</time></trkpt><trkpt lat="40.81511822948716" lon="0.7096241783055391"><ele>13.0</ele><time>2026-04-19T16:22:48.999Z</time></trkpt><trkpt lat="40.81499431319541" lon="0.7093385065315437"><ele>14.0</ele><time>2026-04-19T16:22:49.999Z</time></trkpt><trkpt lat="40.81486917402693" lon="0.7090501186706378"><ele>14.0</ele><time>2026-04-19T16:22:50.999Z</time></trkpt><trkpt lat="40.81474601361717" lon="0.7087629619624093"><ele>14.0</ele><time>2026-04-19T16:22:51.999Z</time></trkpt><trkpt lat="40.81462191463112" lon="0.708470949236494"><ele>14.0</ele><time>2026-04-19T16:22:52.999Z</time></trkpt><trkpt lat="40.81450267030382" lon="0.7081792676265231"><ele>14.0</ele><time>2026-04-19T16:22:53.999Z</time></trkpt><trkpt lat="40.81439347735376" lon="0.7078976614921785"><ele>12.666666666666668</ele><time>2026-04-19T16:22:54.999Z</time></trkpt><trkpt lat="40.8142885692281" lon="0.7076390149871093"><ele>11.333333333333334</ele><time>2026-04-19T16:22:55.999Z</time></trkpt><trkpt lat="40.81418775358601" lon="0.7073825495758256"><ele>10.0</ele><time>2026-04-19T16:22:56.999Z</time></trkpt><trkpt lat="40.81408323611205" lon="0.7071144865419566"><ele>10.0</ele><time>2026-04-19T16:22:57.999Z</time></trkpt><trkpt lat="40.813981444357694" lon="0.7068492368279818"><ele>10.0</ele><time>2026-04-19T16:22:58.999Z</time></trkpt><trkpt lat="40.813880821731075" lon="0.7065806772111609"><ele>10.0</ele><time>2026-04-19T16:22:59.999Z</time></trkpt><trkpt lat="40.81378419915703" lon="0.7063182784445523"><ele>10.0</ele><time>2026-04-19T16:23:00.999Z</time></trkpt><trkpt lat="40.81368754233759" lon="0.7060559134762622"><ele>10.0</ele><time>2026-04-19T16:23:01.999Z</time></trkpt><trkpt lat="40.8135929665987" lon="0.7057995712261302"><ele>10.333333333333334</ele><time>2026-04-19T16:23:02.999Z</time></trkpt><trkpt lat="40.81349922308837" lon="0.7055365965289573"><ele>10.666666666666666</ele><time>2026-04-19T16:23:03.999Z</time></trkpt><trkpt lat="40.81340569380899" lon="0.7052788262969557"><ele>11.0</ele><time>2026-04-19T16:23:04.999Z</time></trkpt><trkpt lat="40.81330999212012" lon="0.7050197457758854"><ele>11.333333333333332</ele><time>2026-04-19T16:23:05.999Z</time></trkpt><trkpt lat="40.81321558164725" lon="0.7047611264702847"><ele>11.666666666666666</ele><time>2026-04-19T16:23:06.999Z</time></trkpt><trkpt lat="40.813117472344366" lon="0.7044958438893711"><ele>12.0</ele><time>2026-04-19T16:23:07.999Z</time></trkpt><trkpt lat="40.813019679994206" lon="0.704235928607549"><ele>12.0</ele><time>2026-04-19T16:23:08.999Z</time></trkpt><trkpt lat="40.812920163910675" lon="0.7039844036700946"><ele>12.0</ele><time>2026-04-19T16:23:09.999Z</time></trkpt><trkpt lat="40.81282234480039" lon="0.7037375491334548"><ele>12.0</ele><time>2026-04-19T16:23:10.999Z</time></trkpt><trkpt lat="40.81272144229466" lon="0.7034832179065202"><ele>13.0</ele><time>2026-04-19T16:23:11.999Z</time></trkpt><trkpt lat="40.81261920339259" lon="0.7032296875545233"><ele>14.0</ele><time>2026-04-19T16:23:12.999Z</time></trkpt><trkpt lat="40.81251423823494" lon="0.7029645705725538"><ele>15.0</ele><time>2026-04-19T16:23:13.999Z</time></trkpt><trkpt lat="40.81240183023401" lon="0.7026966340997974"><ele>15.0</ele><time>2026-04-19T16:23:14.999Z</time></trkpt><trkpt lat="40.812286795042894" lon="0.702427337148736"><ele>15.0</ele><time>2026-04-19T16:23:15.999Z</time></trkpt><trkpt lat="40.81216515995913" lon="0.7021562487869533"><ele>14.5</ele><time>2026-04-19T16:23:16.999Z</time></trkpt><trkpt lat="40.81204000403556" lon="0.7018926813058991"><ele>14.0</ele><time>2026-04-19T16:23:17.999Z</time></trkpt><trkpt lat="40.81190654665711" lon="0.7016270523516356"><ele>13.0</ele><time>2026-04-19T16:23:18.999Z</time></trkpt><trkpt lat="40.811769047779876" lon="0.701361030344269"><ele>12.0</ele><time>2026-04-19T16:23:19.999Z</time></trkpt><trkpt lat="40.81163317682808" lon="0.7010984462230522"><ele>13.0</ele><time>2026-04-19T16:23:20.999Z</time></trkpt><trkpt lat="40.81149455661002" lon="0.7008370515321385"><ele>14.0</ele><time>2026-04-19T16:23:21.999Z</time></trkpt><trkpt lat="40.811350476887505" lon="0.7005820422299507"><ele>14.0</ele><time>2026-04-19T16:23:22.999Z</time></trkpt><trkpt lat="40.81120540630124" lon="0.7003266059756195"><ele>14.0</ele><time>2026-04-19T16:23:23.999Z</time></trkpt><trkpt lat="40.811058450373054" lon="0.7000749117647731"><ele>14.0</ele><time>2026-04-19T16:23:24.999Z</time></trkpt><trkpt lat="40.81090577876376" lon="0.6998204462766798"><ele>14.0</ele><time>2026-04-19T16:23:25.999Z</time></trkpt><trkpt lat="40.81074798655661" lon="0.6995766505251261"><ele>14.0</ele><time>2026-04-19T16:23:26.999Z</time></trkpt><trkpt lat="40.81058581866675" lon="0.6993381279407396"><ele>14.0</ele><time>2026-04-19T16:23:27.999Z</time></trkpt><trkpt lat="40.81042388130674" lon="0.6991084983289013"><ele>14.0</ele><time>2026-04-19T16:23:28.999Z</time></trkpt><trkpt lat="40.81026149595663" lon="0.6988731017815099"><ele>14.0</ele><time>2026-04-19T16:23:29.999Z</time></trkpt><trkpt lat="40.81009988947939" lon="0.6986442975900551"><ele>13.5</ele><time>2026-04-19T16:23:30.999Z</time></trkpt><trkpt lat="40.80993580419686" lon="0.6984129389716796"><ele>13.0</ele><time>2026-04-19T16:23:31.999Z</time></trkpt><trkpt lat="40.809771083299836" lon="0.69818704808116"><ele>13.0</ele><time>2026-04-19T16:23:32.998Z</time></trkpt><trkpt lat="40.80960427932178" lon="0.6979610176240233"><ele>13.0</ele><time>2026-04-19T16:23:33.998Z</time></trkpt><trkpt lat="40.809437298210646" lon="0.6977369348271846"><ele>11.5</ele><time>2026-04-19T16:23:34.998Z</time></trkpt><trkpt lat="40.809268018735196" lon="0.6975141956708386"><ele>10.0</ele><time>2026-04-19T16:23:35.998Z</time></trkpt><trkpt lat="40.809097076106575" lon="0.697294937369739"><ele>10.0</ele><time>2026-04-19T16:23:36.998Z</time></trkpt><trkpt lat="40.80892530267504" lon="0.6970746966244808"><ele>10.0</ele><time>2026-04-19T16:23:37.998Z</time></trkpt><trkpt lat="40.80875658163916" lon="0.6968555620646076"><ele>10.5</ele><time>2026-04-19T16:23:38.998Z</time></trkpt><trkpt lat="40.80858187034672" lon="0.6966304140266691"><ele>11.0</ele><time>2026-04-19T16:23:39.998Z</time></trkpt><trkpt lat="40.80840805073506" lon="0.6964058573919797"><ele>12.5</ele><time>2026-04-19T16:23:40.998Z</time></trkpt><trkpt lat="40.80823712230943" lon="0.6961728771681625"><ele>14.0</ele><time>2026-04-19T16:23:41.998Z</time></trkpt><trkpt lat="40.80806459056648" lon="0.6959393688610958"><ele>15.5</ele><time>2026-04-19T16:23:42.998Z</time></trkpt><trkpt lat="40.80789065963895" lon="0.6957066170547396"><ele>17.0</ele><time>2026-04-19T16:23:43.998Z</time></trkpt><trkpt lat="40.80771388992639" lon="0.695471711101215"><ele>17.5</ele><time>2026-04-19T16:23:44.998Z</time></trkpt><trkpt lat="40.80754196064646" lon="0.6952369003034721"><ele>18.0</ele><time>2026-04-19T16:23:45.998Z</time></trkpt><trkpt lat="40.807366826304225" lon="0.6949929933454049"><ele>18.0</ele><time>2026-04-19T16:23:46.998Z</time></trkpt><trkpt lat="40.807194806244844" lon="0.6947448790467402"><ele>18.0</ele><time>2026-04-19T16:23:47.998Z</time></trkpt><trkpt lat="40.80702212428161" lon="0.6944888363506452"><ele>18.0</ele><time>2026-04-19T16:23:48.998Z</time></trkpt><trkpt lat="40.806855055982645" lon="0.6942336943387035"><ele>18.0</ele><time>2026-04-19T16:23:49.998Z</time></trkpt><trkpt lat="40.80669174218381" lon="0.693971579866908"><ele>18.0</ele><time>2026-04-19T16:23:50.998Z</time></trkpt><trkpt lat="40.80653007116443" lon="0.6937099911957156"><ele>18.0</ele><time>2026-04-19T16:23:51.998Z</time></trkpt><trkpt lat="40.80636749613958" lon="0.6934482291032261"><ele>18.5</ele><time>2026-04-19T16:23:52.998Z</time></trkpt><trkpt lat="40.80620785409346" lon="0.6931777582353633"><ele>19.0</ele><time>2026-04-19T16:23:53.998Z</time></trkpt><trkpt lat="40.80605447400646" lon="0.6929116037440198"><ele>19.5</ele><time>2026-04-19T16:23:54.998Z</time></trkpt><trkpt lat="40.80590770097598" lon="0.6926406721478673"><ele>20.0</ele><time>2026-04-19T16:23:55.998Z</time></trkpt><trkpt lat="40.80576347896357" lon="0.6923645013918885"><ele>20.0</ele><time>2026-04-19T16:23:57Z</time></trkpt><trkpt lat="40.80562445935933" lon="0.6920893648752465"><ele>20.0</ele><time>2026-04-19T16:23:58Z</time></trkpt><trkpt lat="40.805487396011976" lon="0.6918147126110037"><ele>21.0</ele><time>2026-04-19T16:23:59Z</time></trkpt><trkpt lat="40.805350345216546" lon="0.6915352348712844"><ele>22.0</ele><time>2026-04-19T16:24:00Z</time></trkpt><trkpt lat="40.80521515650789" lon="0.6912512613453887"><ele>22.0</ele><time>2026-04-19T16:24:01Z</time></trkpt><trkpt lat="40.80508294959904" lon="0.6909640709214674"><ele>22.0</ele><time>2026-04-19T16:24:02Z</time></trkpt><trkpt lat="40.804955290214586" lon="0.6906704737069409"><ele>22.0</ele><time>2026-04-19T16:24:03Z</time></trkpt><trkpt lat="40.80482803395165" lon="0.6903802198611056"><ele>22.0</ele><time>2026-04-19T16:24:04Z</time></trkpt><trkpt lat="40.80470595328891" lon="0.6900861445853578"><ele>23.0</ele><time>2026-04-19T16:24:05Z</time></trkpt><trkpt lat="40.80459045864617" lon="0.6897914397278391"><ele>24.0</ele><time>2026-04-19T16:24:06Z</time></trkpt><trkpt lat="40.80447759866452" lon="0.6894964229120882"><ele>25.5</ele><time>2026-04-19T16:24:07Z</time></trkpt><trkpt lat="40.80436853953703" lon="0.6892017387090402"><ele>27.0</ele><time>2026-04-19T16:24:08Z</time></trkpt><trkpt lat="40.8042648529631" lon="0.6889033490171588"><ele>27.0</ele><time>2026-04-19T16:24:09Z</time></trkpt><trkpt lat="40.80416380733188" lon="0.6885993413941547"><ele>27.0</ele><time>2026-04-19T16:24:10Z</time></trkpt><trkpt lat="40.80406741006778" lon="0.6882850396158701"><ele>27.5</ele><time>2026-04-19T16:24:11Z</time></trkpt><trkpt lat="40.80397464635275" lon="0.687968525919089"><ele>28.0</ele><time>2026-04-19T16:24:12Z</time></trkpt><trkpt lat="40.80388359924359" lon="0.6876495618286258"><ele>29.0</ele><time>2026-04-19T16:24:13Z</time></trkpt><trkpt lat="40.80379818709565" lon="0.6873288893361348"><ele>30.0</ele><time>2026-04-19T16:24:14Z</time></trkpt><trkpt lat="40.80371609945126" lon="0.6870092022685357"><ele>31.5</ele><time>2026-04-19T16:24:15Z</time></trkpt><trkpt lat="40.803639390114746" lon="0.6866890470037527"><ele>33.0</ele><time>2026-04-19T16:24:16Z</time></trkpt><trkpt lat="40.80357153234833" lon="0.6863726586890025"><ele>33.5</ele><time>2026-04-19T16:24:17Z</time></trkpt><trkpt lat="40.80350883250069" lon="0.686056059959762"><ele>34.0</ele><time>2026-04-19T16:24:18Z</time></trkpt><trkpt lat="40.8034522382324" lon="0.6857367642879506"><ele>34.0</ele><time>2026-04-19T16:24:19Z</time></trkpt><trkpt lat="40.80339837252158" lon="0.6854178602981295"><ele>34.0</ele><time>2026-04-19T16:24:20Z</time></trkpt><trkpt lat="40.803350806405035" lon="0.6851013466212192"><ele>34.0</ele><time>2026-04-19T16:24:21Z</time></trkpt><trkpt lat="40.80330586818374" lon="0.6847867846523342"><ele>34.0</ele><time>2026-04-19T16:24:22Z</time></trkpt><trkpt lat="40.80326067110126" lon="0.6844734736123423"><ele>35.0</ele><time>2026-04-19T16:24:23Z</time></trkpt><trkpt lat="40.80321777760697" lon="0.6841588910055028"><ele>36.0</ele><time>2026-04-19T16:24:24Z</time></trkpt><trkpt lat="40.80317528247913" lon="0.6838416159483245"><ele>36.5</ele><time>2026-04-19T16:24:25Z</time></trkpt><trkpt lat="40.80313162652529" lon="0.6835290662877146"><ele>37.0</ele><time>2026-04-19T16:24:26Z</time></trkpt><trkpt lat="40.80308974213931" lon="0.6832171481676736"><ele>37.0</ele><time>2026-04-19T16:24:27Z</time></trkpt><trkpt lat="40.803043314978666" lon="0.6829046978051148"><ele>37.0</ele><time>2026-04-19T16:24:28Z</time></trkpt><trkpt lat="40.80299681133856" lon="0.682593202630873"><ele>36.5</ele><time>2026-04-19T16:24:29Z</time></trkpt><trkpt lat="40.80294874356756" lon="0.6822752242021948"><ele>36.0</ele><time>2026-04-19T16:24:30Z</time></trkpt><trkpt lat="40.80290042019375" lon="0.6819600329370952"><ele>35.5</ele><time>2026-04-19T16:24:31Z</time></trkpt><trkpt lat="40.80284935703011" lon="0.6816435674894095"><ele>35.0</ele><time>2026-04-19T16:24:32Z</time></trkpt><trkpt lat="40.80279631367546" lon="0.6813402812640381"><ele>36.5</ele><time>2026-04-19T16:24:33Z</time></trkpt><trkpt lat="40.80273636609438" lon="0.6810363083300397"><ele>38.0</ele><time>2026-04-19T16:24:34Z</time></trkpt><trkpt lat="40.80267292763233" lon="0.6807346780108794"><ele>39.0</ele><time>2026-04-19T16:24:35Z</time></trkpt><trkpt lat="40.80260987951165" lon="0.6804319263260213"><ele>40.0</ele><time>2026-04-19T16:24:36Z</time></trkpt><trkpt lat="40.80254678598544" lon="0.6801260619585902"><ele>40.5</ele><time>2026-04-19T16:24:37Z</time></trkpt><trkpt lat="40.80248008085745" lon="0.6798180717362652"><ele>41.0</ele><time>2026-04-19T16:24:38Z</time></trkpt><trkpt lat="40.80240728165489" lon="0.6795157865319816"><ele>42.0</ele><time>2026-04-19T16:24:39Z</time></trkpt><trkpt lat="40.8023300934997" lon="0.679211626530673"><ele>43.0</ele><time>2026-04-19T16:24:39.999Z</time></trkpt><trkpt lat="40.80224537582308" lon="0.6789081715738678"><ele>43.0</ele><time>2026-04-19T16:24:40.999Z</time></trkpt><trkpt lat="40.80216313854846" lon="0.6786014323104522"><ele>43.0</ele><time>2026-04-19T16:24:41.999Z</time></trkpt><trkpt lat="40.802074279199736" lon="0.6782997263198438"><ele>44.5</ele><time>2026-04-19T16:24:42.999Z</time></trkpt><trkpt lat="40.80198166893647" lon="0.6779991662480296"><ele>46.0</ele><time>2026-04-19T16:24:43.999Z</time></trkpt><trkpt lat="40.80188691822548" lon="0.6776981381110568"><ele>45.0</ele><time>2026-04-19T16:24:44.999Z</time></trkpt><trkpt lat="40.80178599940694" lon="0.6773868446046796"><ele>44.0</ele><time>2026-04-19T16:24:45.999Z</time></trkpt><trkpt lat="40.8016823790714" lon="0.6770791082402207"><ele>45.0</ele><time>2026-04-19T16:24:46.999Z</time></trkpt><trkpt lat="40.80157415260476" lon="0.6767790581664923"><ele>46.0</ele><time>2026-04-19T16:24:47.999Z</time></trkpt><trkpt lat="40.80146336998935" lon="0.6764862841300617"><ele>46.0</ele><time>2026-04-19T16:24:48.999Z</time></trkpt><trkpt lat="40.80134868706423" lon="0.6761901899526658"><ele>46.0</ele><time>2026-04-19T16:24:49.999Z</time></trkpt><trkpt lat="40.80122499297537" lon="0.6758967718920281"><ele>46.0</ele><time>2026-04-19T16:24:50.999Z</time></trkpt><trkpt lat="40.80109806529773" lon="0.6755981801989647"><ele>46.0</ele><time>2026-04-19T16:24:51.999Z</time></trkpt><trkpt lat="40.80097373512513" lon="0.6753075884086145"><ele>48.0</ele><time>2026-04-19T16:24:52.999Z</time></trkpt><trkpt lat="40.800849162318165" lon="0.6750181952142807"><ele>50.0</ele><time>2026-04-19T16:24:53.999Z</time></trkpt><trkpt lat="40.80072183518224" lon="0.674730474047478"><ele>51.0</ele><time>2026-04-19T16:24:54.999Z</time></trkpt><trkpt lat="40.80058903069304" lon="0.6744351889434159"><ele>52.0</ele><time>2026-04-19T16:24:55.999Z</time></trkpt><trkpt lat="40.80045277287109" lon="0.6741437766009738"><ele>52.0</ele><time>2026-04-19T16:24:56.999Z</time></trkpt><trkpt lat="40.80031381548509" lon="0.6738583137592012"><ele>52.0</ele><time>2026-04-19T16:24:57.999Z</time></trkpt><trkpt lat="40.80017202499135" lon="0.6735804254486948"><ele>52.0</ele><time>2026-04-19T16:24:58.999Z</time></trkpt><trkpt lat="40.80002758439427" lon="0.6733054329073105"><ele>52.0</ele><time>2026-04-19T16:24:59.999Z</time></trkpt><trkpt lat="40.79987991267963" lon="0.6730284106131847"><ele>53.0</ele><time>2026-04-19T16:25:00.999Z</time></trkpt><trkpt lat="40.79973094769999" lon="0.6727473158755177"><ele>54.0</ele><time>2026-04-19T16:25:01.999Z</time></trkpt><trkpt lat="40.79958056649186" lon="0.6724612268276156"><ele>54.0</ele><time>2026-04-19T16:25:02.999Z</time></trkpt><trkpt lat="40.799418406059495" lon="0.6721798326318563"><ele>54.0</ele><time>2026-04-19T16:25:03.999Z</time></trkpt><trkpt lat="40.79925355081089" lon="0.6718956608583865"><ele>54.0</ele><time>2026-04-19T16:25:04.999Z</time></trkpt><trkpt lat="40.79908769693473" lon="0.6716163254670927"><ele>54.0</ele><time>2026-04-19T16:25:05.999Z</time></trkpt><trkpt lat="40.79891468875847" lon="0.67134452413502"><ele>55.0</ele><time>2026-04-19T16:25:06.999Z</time></trkpt><trkpt lat="40.79873234105746" lon="0.6710760405386882"><ele>56.0</ele><time>2026-04-19T16:25:07.999Z</time></trkpt><trkpt lat="40.7985478668737" lon="0.6708090829744819"><ele>55.0</ele><time>2026-04-19T16:25:08.999Z</time></trkpt><trkpt lat="40.798360448008374" lon="0.6705406625799556"><ele>54.0</ele><time>2026-04-19T16:25:09.999Z</time></trkpt><trkpt lat="40.79817075401005" lon="0.6702809562224772"><ele>55.0</ele><time>2026-04-19T16:25:10.999Z</time></trkpt><trkpt lat="40.79797924919719" lon="0.6700268541499236"><ele>56.0</ele><time>2026-04-19T16:25:11.999Z</time></trkpt><trkpt lat="40.79778543235724" lon="0.6697803136648445"><ele>54.5</ele><time>2026-04-19T16:25:12.999Z</time></trkpt><trkpt lat="40.797592686332685" lon="0.6695367646414573"><ele>53.0</ele><time>2026-04-19T16:25:13.999Z</time></trkpt><trkpt lat="40.797400184037585" lon="0.6692994312654921"><ele>53.0</ele><time>2026-04-19T16:25:14.999Z</time></trkpt><trkpt lat="40.7972056838012" lon="0.6690678186275615"><ele>53.0</ele><time>2026-04-19T16:25:15.999Z</time></trkpt><trkpt lat="40.79700750345451" lon="0.6688418976089905"><ele>53.0</ele><time>2026-04-19T16:25:16.999Z</time></trkpt><trkpt lat="40.796808389924585" lon="0.668622381437366"><ele>53.0</ele><time>2026-04-19T16:25:17.999Z</time></trkpt><trkpt lat="40.79661126096561" lon="0.6684027719482225"><ele>53.5</ele><time>2026-04-19T16:25:18.999Z</time></trkpt><trkpt lat="40.7964150100731" lon="0.6681847145674069"><ele>54.0</ele><time>2026-04-19T16:25:19.999Z</time></trkpt><trkpt lat="40.796215977016914" lon="0.6679692095352111"><ele>53.5</ele><time>2026-04-19T16:25:20.999Z</time></trkpt><trkpt lat="40.79601828588338" lon="0.6677544046534671"><ele>53.0</ele><time>2026-04-19T16:25:21.999Z</time></trkpt><trkpt lat="40.795820713632544" lon="0.6675371592546823"><ele>53.0</ele><time>2026-04-19T16:25:22.999Z</time></trkpt><trkpt lat="40.79561638545034" lon="0.6673192896811683"><ele>53.0</ele><time>2026-04-19T16:25:23.999Z</time></trkpt><trkpt lat="40.79541391655751" lon="0.6670976608796207"><ele>53.0</ele><time>2026-04-19T16:25:24.999Z</time></trkpt><trkpt lat="40.7952103434647" lon="0.6668721787711606"><ele>53.0</ele><time>2026-04-19T16:25:25.999Z</time></trkpt><trkpt lat="40.79500494104631" lon="0.666649413992487"><ele>53.0</ele><time>2026-04-19T16:25:26.999Z</time></trkpt><trkpt lat="40.79479298665926" lon="0.6664217535528203"><ele>53.0</ele><time>2026-04-19T16:25:27.999Z</time></trkpt><trkpt lat="40.794586261098154" lon="0.6661958044309323"><ele>53.5</ele><time>2026-04-19T16:25:28.999Z</time></trkpt><trkpt lat="40.79437972874219" lon="0.665970587313525"><ele>54.0</ele><time>2026-04-19T16:25:29.999Z</time></trkpt><trkpt lat="40.794174862569" lon="0.6657455244281043"><ele>53.0</ele><time>2026-04-19T16:25:30.999Z</time></trkpt><trkpt lat="40.79397193507431" lon="0.6655265453614759"><ele>52.0</ele><time>2026-04-19T16:25:31.999Z</time></trkpt><trkpt lat="40.7937706655124" lon="0.6653049640039669"><ele>52.0</ele><time>2026-04-19T16:25:32.999Z</time></trkpt><trkpt lat="40.793571597166064" lon="0.665085747287965"><ele>52.0</ele><time>2026-04-19T16:25:33.999Z</time></trkpt><trkpt lat="40.79337459967095" lon="0.6648649974291057"><ele>52.0</ele><time>2026-04-19T16:25:34.999Z</time></trkpt><trkpt lat="40.7931796019593" lon="0.6646434196939497"><ele>52.0</ele><time>2026-04-19T16:25:35.999Z</time></trkpt><trkpt lat="40.792986626574425" lon="0.6644179484598008"><ele>52.5</ele><time>2026-04-19T16:25:36.999Z</time></trkpt><trkpt lat="40.79279409037792" lon="0.6641911779232091"><ele>53.0</ele><time>2026-04-19T16:25:37.998Z</time></trkpt><trkpt lat="40.792598576288846" lon="0.6639616977028154"><ele>51.5</ele><time>2026-04-19T16:25:38.998Z</time></trkpt><trkpt lat="40.79240306794773" lon="0.6637358295304209"><ele>50.0</ele><time>2026-04-19T16:25:39.998Z</time></trkpt><trkpt lat="40.792211207796925" lon="0.6635067532068447"><ele>50.0</ele><time>2026-04-19T16:25:40.998Z</time></trkpt><trkpt lat="40.79202006968858" lon="0.6632851879713053"><ele>50.0</ele><time>2026-04-19T16:25:41.998Z</time></trkpt><trkpt lat="40.791835725076574" lon="0.6630620658127525"><ele>50.0</ele><time>2026-04-19T16:25:42.998Z</time></trkpt><trkpt lat="40.79165470695283" lon="0.662831728029446"><ele>50.0</ele><time>2026-04-19T16:25:43.998Z</time></trkpt><trkpt lat="40.791470939301455" lon="0.6625965142787813"><ele>50.5</ele><time>2026-04-19T16:25:44.998Z</time></trkpt><trkpt lat="40.791278983412866" lon="0.6623515649486285"><ele>51.0</ele><time>2026-04-19T16:25:45.998Z</time></trkpt><trkpt lat="40.79108698526484" lon="0.662102662368787"><ele>50.5</ele><time>2026-04-19T16:25:46.998Z</time></trkpt><trkpt lat="40.79089220592979" lon="0.6618484493197474"><ele>50.0</ele><time>2026-04-19T16:25:47.998Z</time></trkpt><trkpt lat="40.790699758587984" lon="0.6615954471724499"><ele>50.0</ele><time>2026-04-19T16:25:48.998Z</time></trkpt><trkpt lat="40.79050567883082" lon="0.6613401187828561"><ele>50.0</ele><time>2026-04-19T16:25:49.998Z</time></trkpt><trkpt lat="40.79031489936009" lon="0.661080050202391"><ele>48.5</ele><time>2026-04-19T16:25:50.998Z</time></trkpt><trkpt lat="40.79013218215422" lon="0.6608239051700107"><ele>47.0</ele><time>2026-04-19T16:25:51.998Z</time></trkpt><trkpt lat="40.78994510485387" lon="0.6605662117493684"><ele>47.0</ele><time>2026-04-19T16:25:52.998Z</time></trkpt><trkpt lat="40.78976356137106" lon="0.6603089019971213"><ele>47.0</ele><time>2026-04-19T16:25:53.998Z</time></trkpt><trkpt lat="40.789580965726685" lon="0.6600551790436621"><ele>49.0</ele><time>2026-04-19T16:25:54.998Z</time></trkpt><trkpt lat="40.78939668155379" lon="0.6597968432701228"><ele>51.0</ele><time>2026-04-19T16:25:55.998Z</time></trkpt><trkpt lat="40.789218727129516" lon="0.6595370116103575"><ele>50.0</ele><time>2026-04-19T16:25:56.998Z</time></trkpt><trkpt lat="40.789052040954935" lon="0.6592749834932701"><ele>49.0</ele><time>2026-04-19T16:25:57.998Z</time></trkpt><trkpt lat="40.78887533255261" lon="0.6590147360424927"><ele>49.0</ele><time>2026-04-19T16:25:58.998Z</time></trkpt><trkpt lat="40.78870922014456" lon="0.6587625140506247"><ele>49.0</ele><time>2026-04-19T16:25:59.998Z</time></trkpt><trkpt lat="40.788538866554106" lon="0.6585032061015172"><ele>49.5</ele><time>2026-04-19T16:26:00.998Z</time></trkpt><trkpt lat="40.78836316338335" lon="0.6582379034314305"><ele>50.0</ele><time>2026-04-19T16:26:01.998Z</time></trkpt><trkpt lat="40.78818669098714" lon="0.6579661698035761"><ele>50.5</ele><time>2026-04-19T16:26:03Z</time></trkpt><trkpt lat="40.788016727106495" lon="0.6576958553456335"><ele>51.0</ele><time>2026-04-19T16:26:04Z</time></trkpt><trkpt lat="40.78784433936769" lon="0.6574193359738264"><ele>49.5</ele><time>2026-04-19T16:26:05Z</time></trkpt><trkpt lat="40.787675719377496" lon="0.6571424261720528"><ele>48.0</ele><time>2026-04-19T16:26:06Z</time></trkpt><trkpt lat="40.78750917389545" lon="0.6568656472943905"><ele>48.0</ele><time>2026-04-19T16:26:07Z</time></trkpt><trkpt lat="40.78734397987905" lon="0.656589341826055"><ele>48.0</ele><time>2026-04-19T16:26:08Z</time></trkpt><trkpt lat="40.787179645686" lon="0.6563104775077264"><ele>48.0</ele><time>2026-04-19T16:26:09Z</time></trkpt><trkpt lat="40.78701495250209" lon="0.6560358309924815"><ele>48.0</ele><time>2026-04-19T16:26:10Z</time></trkpt><trkpt lat="40.78685275973616" lon="0.6557651109981724"><ele>47.0</ele><time>2026-04-19T16:26:11Z</time></trkpt><trkpt lat="40.78669284999146" lon="0.6554951920224578"><ele>46.0</ele><time>2026-04-19T16:26:12Z</time></trkpt><trkpt lat="40.786533189512205" lon="0.6552292565220017"><ele>46.0</ele><time>2026-04-19T16:26:13Z</time></trkpt><trkpt lat="40.786372404425705" lon="0.654959378717788"><ele>46.0</ele><time>2026-04-19T16:26:14Z</time></trkpt><trkpt lat="40.78621316362489" lon="0.6546985308393102"><ele>47.5</ele><time>2026-04-19T16:26:15Z</time></trkpt><trkpt lat="40.78605141015211" lon="0.6544350629163238"><ele>49.0</ele><time>2026-04-19T16:26:16Z</time></trkpt><trkpt lat="40.7858854703027" lon="0.6541677950700711"><ele>49.0</ele><time>2026-04-19T16:26:17Z</time></trkpt><trkpt lat="40.785716554951506" lon="0.6538998351393069"><ele>49.0</ele><time>2026-04-19T16:26:18Z</time></trkpt><trkpt lat="40.78554947950185" lon="0.6536318067260982"><ele>49.5</ele><time>2026-04-19T16:26:19Z</time></trkpt><trkpt lat="40.7853815610737" lon="0.6533614044827466"><ele>50.0</ele><time>2026-04-19T16:26:20Z</time></trkpt><trkpt lat="40.78521793667085" lon="0.6530922206771448"><ele>49.5</ele><time>2026-04-19T16:26:21Z</time></trkpt><trkpt lat="40.78504603638727" lon="0.6528254325869847"><ele>49.0</ele><time>2026-04-19T16:26:22Z</time></trkpt><trkpt lat="40.78487911497191" lon="0.6525592434753504"><ele>49.0</ele><time>2026-04-19T16:26:23Z</time></trkpt><trkpt lat="40.78470992362661" lon="0.6522932831737669"><ele>49.0</ele><time>2026-04-19T16:26:24Z</time></trkpt><trkpt lat="40.78454005474993" lon="0.6520279710088002"><ele>49.0</ele><time>2026-04-19T16:26:25Z</time></trkpt><trkpt lat="40.78437389476" lon="0.6517669161219883"><ele>49.0</ele><time>2026-04-19T16:26:26Z</time></trkpt><trkpt lat="40.78420111650456" lon="0.6515042546771103"><ele>49.0</ele><time>2026-04-19T16:26:27Z</time></trkpt><trkpt lat="40.784029789631234" lon="0.651247150146643"><ele>49.0</ele><time>2026-04-19T16:26:28Z</time></trkpt><trkpt lat="40.78386066971758" lon="0.6509920847055313"><ele>49.5</ele><time>2026-04-19T16:26:29Z</time></trkpt><trkpt lat="40.78368974490649" lon="0.6507349187388998"><ele>50.0</ele><time>2026-04-19T16:26:30Z</time></trkpt><trkpt lat="40.78352031928476" lon="0.6504816687514025"><ele>50.5</ele><time>2026-04-19T16:26:31Z</time></trkpt><trkpt lat="40.78334990756695" lon="0.6502324020063148"><ele>51.0</ele><time>2026-04-19T16:26:32Z</time></trkpt><trkpt lat="40.783176871139545" lon="0.6499795031880546"><ele>51.0</ele><time>2026-04-19T16:26:33Z</time></trkpt><trkpt lat="40.78300685903327" lon="0.6497279544295818"><ele>51.0</ele><time>2026-04-19T16:26:34Z</time></trkpt><trkpt lat="40.78283630907329" lon="0.649477604346007"><ele>51.0</ele><time>2026-04-19T16:26:35Z</time></trkpt><trkpt lat="40.782658980115734" lon="0.6492262820686074"><ele>51.0</ele><time>2026-04-19T16:26:36Z</time></trkpt><trkpt lat="40.782485041119514" lon="0.6489774206127142"><ele>51.0</ele><time>2026-04-19T16:26:37Z</time></trkpt><trkpt lat="40.782308537121814" lon="0.6487287187229966"><ele>51.0</ele><time>2026-04-19T16:26:38Z</time></trkpt><trkpt lat="40.78213043153448" lon="0.6484753841718718"><ele>51.5</ele><time>2026-04-19T16:26:39Z</time></trkpt><trkpt lat="40.781951552392286" lon="0.648222071118206"><ele>52.0</ele><time>2026-04-19T16:26:40Z</time></trkpt><trkpt lat="40.78176195676696" lon="0.6479595373529824"><ele>52.5</ele><time>2026-04-19T16:26:41Z</time></trkpt><trkpt lat="40.7815745026228" lon="0.6476972662442072"><ele>53.0</ele><time>2026-04-19T16:26:41.999Z</time></trkpt><trkpt lat="40.78138818453809" lon="0.6474419856637768"><ele>53.0</ele><time>2026-04-19T16:26:42.999Z</time></trkpt><trkpt lat="40.78120156884671" lon="0.6471885817671783"><ele>53.0</ele><time>2026-04-19T16:26:43.999Z</time></trkpt><trkpt lat="40.78101957211723" lon="0.6469370690148969"><ele>53.5</ele><time>2026-04-19T16:26:44.999Z</time></trkpt><trkpt lat="40.78083834933433" lon="0.64669307721118"><ele>54.0</ele><time>2026-04-19T16:26:45.999Z</time></trkpt><trkpt lat="40.78065327367603" lon="0.6464477668486175"><ele>54.0</ele><time>2026-04-19T16:26:46.999Z</time></trkpt><trkpt lat="40.78046905744276" lon="0.6462017502814568"><ele>54.0</ele><time>2026-04-19T16:26:47.999Z</time></trkpt><trkpt lat="40.780286603986205" lon="0.6459588208308681"><ele>52.5</ele><time>2026-04-19T16:26:48.999Z</time></trkpt><trkpt lat="40.78010262750037" lon="0.6457146901184686"><ele>51.0</ele><time>2026-04-19T16:26:49.999Z</time></trkpt><trkpt lat="40.779925524459294" lon="0.6454804832724939"><ele>52.5</ele><time>2026-04-19T16:26:50.999Z</time></trkpt><trkpt lat="40.77974408638629" lon="0.6452458867896992"><ele>54.0</ele><time>2026-04-19T16:26:51.999Z</time></trkpt><trkpt lat="40.77956714365236" lon="0.6450200975380611"><ele>54.0</ele><time>2026-04-19T16:26:52.999Z</time></trkpt><trkpt lat="40.77938793473191" lon="0.6447870074708225"><ele>54.0</ele><time>2026-04-19T16:26:53.999Z</time></trkpt><trkpt lat="40.77920978792193" lon="0.644558465242586"><ele>53.5</ele><time>2026-04-19T16:26:54.999Z</time></trkpt><trkpt lat="40.77902810867204" lon="0.6443226040121736"><ele>53.0</ele><time>2026-04-19T16:26:55.999Z</time></trkpt><trkpt lat="40.77884126955499" lon="0.6440913545938215"><ele>53.0</ele><time>2026-04-19T16:26:56.999Z</time></trkpt><trkpt lat="40.778654354038025" lon="0.6438601834520778"><ele>53.0</ele><time>2026-04-19T16:26:57.999Z</time></trkpt><trkpt lat="40.77846523290185" lon="0.6436263000057467"><ele>53.0</ele><time>2026-04-19T16:26:58.999Z</time></trkpt><trkpt lat="40.77827511718182" lon="0.6433923907312163"><ele>53.0</ele><time>2026-04-19T16:26:59.999Z</time></trkpt><trkpt lat="40.778085410703554" lon="0.6431553426794275"><ele>53.0</ele><time>2026-04-19T16:27:00.999Z</time></trkpt><trkpt lat="40.77789285697155" lon="0.6429206731436695"><ele>53.0</ele><time>2026-04-19T16:27:01.999Z</time></trkpt><trkpt lat="40.777693430216665" lon="0.64268735637251"><ele>52.0</ele><time>2026-04-19T16:27:02.999Z</time></trkpt><trkpt lat="40.77749706711957" lon="0.642454639355777"><ele>51.0</ele><time>2026-04-19T16:27:03.999Z</time></trkpt><trkpt lat="40.77730259876535" lon="0.6422211673744047"><ele>51.0</ele><time>2026-04-19T16:27:04.999Z</time></trkpt><trkpt lat="40.777107564668725" lon="0.6419868627611083"><ele>51.0</ele><time>2026-04-19T16:27:05.999Z</time></trkpt><trkpt lat="40.77691446158968" lon="0.6417535644970573"><ele>50.0</ele><time>2026-04-19T16:27:06.999Z</time></trkpt><trkpt lat="40.77672019855157" lon="0.6415241033416832"><ele>49.0</ele><time>2026-04-19T16:27:07.999Z</time></trkpt><trkpt lat="40.77652735694486" lon="0.6412962675576646"><ele>49.0</ele><time>2026-04-19T16:27:08.999Z</time></trkpt><trkpt lat="40.77633123135325" lon="0.6410699709222885"><ele>49.0</ele><time>2026-04-19T16:27:09.999Z</time></trkpt><trkpt lat="40.776136340782735" lon="0.640844379052864"><ele>49.0</ele><time>2026-04-19T16:27:10.999Z</time></trkpt><trkpt lat="40.77593807563756" lon="0.6406161832629998"><ele>49.0</ele><time>2026-04-19T16:27:11.999Z</time></trkpt><trkpt lat="40.77574058395214" lon="0.640393684010514"><ele>49.0</ele><time>2026-04-19T16:27:12.999Z</time></trkpt><trkpt lat="40.7755457505306" lon="0.6401735851693767"><ele>49.0</ele><time>2026-04-19T16:27:13.999Z</time></trkpt><trkpt lat="40.775353230247276" lon="0.6399557018875599"><ele>48.5</ele><time>2026-04-19T16:27:14.999Z</time></trkpt><trkpt lat="40.775155048923686" lon="0.6397339027166984"><ele>48.0</ele><time>2026-04-19T16:27:15.999Z</time></trkpt><trkpt lat="40.77496096360695" lon="0.6395174426286382"><ele>48.5</ele><time>2026-04-19T16:27:16.999Z</time></trkpt><trkpt lat="40.77476622583876" lon="0.6393036472472456"><ele>49.0</ele><time>2026-04-19T16:27:17.999Z</time></trkpt><trkpt lat="40.774569196852156" lon="0.639085373646803"><ele>49.0</ele><time>2026-04-19T16:27:18.999Z</time></trkpt><trkpt lat="40.77437462571253" lon="0.6388760334150877"><ele>49.0</ele><time>2026-04-19T16:27:19.999Z</time></trkpt><trkpt lat="40.77417854663514" lon="0.6386664483395819"><ele>48.0</ele><time>2026-04-19T16:27:20.999Z</time></trkpt><trkpt lat="40.77398196211129" lon="0.6384561657669185"><ele>47.0</ele><time>2026-04-19T16:27:21.999Z</time></trkpt><trkpt lat="40.77379052826596" lon="0.6382520175061348"><ele>47.0</ele><time>2026-04-19T16:27:22.999Z</time></trkpt><trkpt lat="40.773601443002235" lon="0.6380514890583462"><ele>47.0</ele><time>2026-04-19T16:27:23.999Z</time></trkpt><trkpt lat="40.77341381476026" lon="0.6378555417359861"><ele>47.0</ele><time>2026-04-19T16:27:24.999Z</time></trkpt><trkpt lat="40.77322839787678" lon="0.637658431946121"><ele>47.0</ele><time>2026-04-19T16:27:25.999Z</time></trkpt><trkpt lat="40.77304104578884" lon="0.6374645052662731"><ele>47.0</ele><time>2026-04-19T16:27:26.999Z</time></trkpt><trkpt lat="40.77285124116272" lon="0.6372722102251897"><ele>47.0</ele><time>2026-04-19T16:27:27.999Z</time></trkpt><trkpt lat="40.772662765182154" lon="0.6370765445082972"><ele>46.5</ele><time>2026-04-19T16:27:28.999Z</time></trkpt><trkpt lat="40.77247782242129" lon="0.6368854568329084"><ele>46.0</ele><time>2026-04-19T16:27:29.999Z</time></trkpt><trkpt lat="40.772292610962225" lon="0.6366929178806151"><ele>46.0</ele><time>2026-04-19T16:27:30.999Z</time></trkpt><trkpt lat="40.77210245732393" lon="0.6365080875104772"><ele>46.0</ele><time>2026-04-19T16:27:31.999Z</time></trkpt><trkpt lat="40.77191746972557" lon="0.6363168337447123"><ele>45.5</ele><time>2026-04-19T16:27:32.999Z</time></trkpt><trkpt lat="40.771726874834684" lon="0.6361213117756066"><ele>45.0</ele><time>2026-04-19T16:27:33.999Z</time></trkpt><trkpt lat="40.77153592840808" lon="0.6359221031706439"><ele>45.0</ele><time>2026-04-19T16:27:34.999Z</time></trkpt><trkpt lat="40.771344850054625" lon="0.6357250940431767"><ele>45.0</ele><time>2026-04-19T16:27:35.999Z</time></trkpt><trkpt lat="40.7711531967967" lon="0.6355201833307995"><ele>44.5</ele><time>2026-04-19T16:27:36.999Z</time></trkpt><trkpt lat="40.770964561630684" lon="0.6353158559112203"><ele>44.0</ele><time>2026-04-19T16:27:37.999Z</time></trkpt><trkpt lat="40.770763909866545" lon="0.6351061698262682"><ele>44.0</ele><time>2026-04-19T16:27:38.999Z</time></trkpt><trkpt lat="40.77057108299774" lon="0.6348909494712832"><ele>44.0</ele><time>2026-04-19T16:27:39.999Z</time></trkpt><trkpt lat="40.77037718728867" lon="0.6346732466974566"><ele>43.0</ele><time>2026-04-19T16:27:40.999Z</time></trkpt><trkpt lat="40.77018384503235" lon="0.634457432024971"><ele>42.0</ele><time>2026-04-19T16:27:41.998Z</time></trkpt><trkpt lat="40.76998567940974" lon="0.6342351144673963"><ele>42.0</ele><time>2026-04-19T16:27:42.998Z</time></trkpt><trkpt lat="40.7697866570182" lon="0.6340114396007235"><ele>42.0</ele><time>2026-04-19T16:27:43.998Z</time></trkpt><trkpt lat="40.769593394390576" lon="0.6337884551507602"><ele>42.5</ele><time>2026-04-19T16:27:44.998Z</time></trkpt><trkpt lat="40.76940079169841" lon="0.6335667897223606"><ele>43.0</ele><time>2026-04-19T16:27:45.998Z</time></trkpt><trkpt lat="40.76921532557883" lon="0.6333506112373357"><ele>41.5</ele><time>2026-04-19T16:27:46.998Z</time></trkpt><trkpt lat="40.76903054261407" lon="0.6331285168528754"><ele>40.0</ele><time>2026-04-19T16:27:47.998Z</time></trkpt><trkpt lat="40.76884930856936" lon="0.6329080798382383"><ele>40.0</ele><time>2026-04-19T16:27:48.998Z</time></trkpt><trkpt lat="40.76866950209369" lon="0.6326896182552548"><ele>40.0</ele><time>2026-04-19T16:27:49.998Z</time></trkpt><trkpt lat="40.768488864190694" lon="0.6324624581390614"><ele>40.0</ele><time>2026-04-19T16:27:50.998Z</time></trkpt><trkpt lat="40.76830995733428" lon="0.6322346670317126"><ele>40.0</ele><time>2026-04-19T16:27:51.998Z</time></trkpt><trkpt lat="40.76814048459827" lon="0.6320150603521036"><ele>40.0</ele><time>2026-04-19T16:27:52.998Z</time></trkpt><trkpt lat="40.767984771899116" lon="0.6318102643740745"><ele>40.0</ele><time>2026-04-19T16:27:53.998Z</time></trkpt><trkpt lat="40.767836384873384" lon="0.6316149690933952"><ele>40.0</ele><time>2026-04-19T16:27:54.998Z</time></trkpt><trkpt lat="40.767689965746214" lon="0.6314185318735195"><ele>40.0</ele><time>2026-04-19T16:27:55.998Z</time></trkpt><trkpt lat="40.76754229918138" lon="0.6312202943794388"><ele>40.0</ele><time>2026-04-19T16:27:56.998Z</time></trkpt><trkpt lat="40.76739749224554" lon="0.6310162239501097"><ele>40.0</ele><time>2026-04-19T16:27:57.998Z</time></trkpt><trkpt lat="40.76724834298234" lon="0.6308153304325689"><ele>40.0</ele><time>2026-04-19T16:27:58.998Z</time></trkpt><trkpt lat="40.767106883999695" lon="0.6306093611669099"><ele>40.0</ele><time>2026-04-19T16:27:59.998Z</time></trkpt><trkpt lat="40.76696792073434" lon="0.6304095064583911"><ele>40.0</ele><time>2026-04-19T16:28:00.998Z</time></trkpt><trkpt lat="40.76683810932025" lon="0.6302208333723535"><ele>40.0</ele><time>2026-04-19T16:28:01.998Z</time></trkpt><trkpt lat="40.76671290168771" lon="0.630043301085847"><ele>40.0</ele><time>2026-04-19T16:28:02.998Z</time></trkpt><trkpt lat="40.76659557922679" lon="0.6298820562151936"><ele>40.0</ele><time>2026-04-19T16:28:03.998Z</time></trkpt><trkpt lat="40.7664754219911" lon="0.6297149271449178"><ele>40.0</ele><time>2026-04-19T16:28:04.998Z</time></trkpt><trkpt lat="40.76636000749855" lon="0.6295529722908183"><ele>40.0</ele><time>2026-04-19T16:28:05.998Z</time></trkpt><trkpt lat="40.76626311886807" lon="0.6293908336451172"><ele>40.0</ele><time>2026-04-19T16:28:06.998Z</time></trkpt><trkpt lat="40.76618628700873" lon="0.6292294874051052"><ele>40.25</ele><time>2026-04-19T16:28:07.998Z</time></trkpt><trkpt lat="40.76613757215436" lon="0.6290487203932004"><ele>40.5</ele><time>2026-04-19T16:28:09Z</time></trkpt><trkpt lat="40.76609410409425" lon="0.6288615377151987"><ele>40.75</ele><time>2026-04-19T16:28:10Z</time></trkpt><trkpt lat="40.766040848132114" lon="0.6286916528968438"><ele>41.0</ele><time>2026-04-19T16:28:11Z</time></trkpt><trkpt lat="40.76597293572512" lon="0.6285625692377442"><ele>41.25</ele><time>2026-04-19T16:28:12Z</time></trkpt><trkpt lat="40.76593520296684" lon="0.6284183032774593"><ele>41.5</ele><time>2026-04-19T16:28:13Z</time></trkpt><trkpt lat="40.76593579729926" lon="0.6282774825577543"><ele>41.75</ele><time>2026-04-19T16:28:14Z</time></trkpt><trkpt lat="40.7659770850639" lon="0.6281308879817524"><ele>42.0</ele><time>2026-04-19T16:28:15Z</time></trkpt><trkpt lat="40.76603450442198" lon="0.6279957281584824"><ele>42.0</ele><time>2026-04-19T16:28:16Z</time></trkpt><trkpt lat="40.76608768966724" lon="0.6278894602746296"><ele>42.0</ele><time>2026-04-19T16:28:17Z</time></trkpt><trkpt lat="40.76613177425524" lon="0.627784445584119"><ele>42.0</ele><time>2026-04-19T16:28:18Z</time></trkpt><trkpt lat="40.766161327062065" lon="0.6276648768424226"><ele>42.0</ele><time>2026-04-19T16:28:19Z</time></trkpt><trkpt lat="40.76616506184833" lon="0.6275275898917149"><ele>42.0</ele><time>2026-04-19T16:28:20Z</time></trkpt><trkpt lat="40.7661320642801" lon="0.6273967842306538"><ele>42.5</ele><time>2026-04-19T16:28:21Z</time></trkpt><trkpt lat="40.76606465281339" lon="0.6272725182294738"><ele>43.0</ele><time>2026-04-19T16:28:22Z</time></trkpt><trkpt lat="40.7659643326323" lon="0.6271380800708265"><ele>43.5</ele><time>2026-04-19T16:28:23Z</time></trkpt><trkpt lat="40.76585134345974" lon="0.6269803316349404"><ele>44.0</ele><time>2026-04-19T16:28:24Z</time></trkpt><trkpt lat="40.765763932569534" lon="0.6268483595198252"><ele>44.2</ele><time>2026-04-19T16:28:25Z</time></trkpt><trkpt lat="40.76568603163648" lon="0.6267291249611875"><ele>44.400000000000006</ele><time>2026-04-19T16:28:26Z</time></trkpt><trkpt lat="40.765619120364214" lon="0.6266220912173321"><ele>44.6</ele><time>2026-04-19T16:28:27Z</time></trkpt><trkpt lat="40.76554966546802" lon="0.6265296251295167"><ele>44.8</ele><time>2026-04-19T16:28:28Z</time></trkpt><trkpt lat="40.76548816923888" lon="0.6264549452217507"><ele>45.0</ele><time>2026-04-19T16:28:29Z</time></trkpt><trkpt lat="40.76542544459746" lon="0.6263959354070769"><ele>45.0</ele><time>2026-04-19T16:28:30Z</time></trkpt><trkpt lat="40.765367889632515" lon="0.6263568340407205"><ele>45.0</ele><time>2026-04-19T16:28:31Z</time></trkpt><trkpt lat="40.76526955894921" lon="0.6263195751012586"><ele>45.0</ele><time>2026-04-19T16:28:33Z</time></trkpt><trkpt lat="40.765197562218304" lon="0.6262994939716475"><ele>45.0</ele><time>2026-04-19T16:28:35Z</time></trkpt><trkpt lat="40.765139168866405" lon="0.6262555247678416"><ele>45.0</ele><time>2026-04-19T16:28:38Z</time></trkpt><trkpt lat="40.765066713331095" lon="0.6262392152844168"><ele>45.0</ele><time>2026-04-19T16:29:30.999Z</time></trkpt><trkpt lat="40.76500034266576" lon="0.6262553453716754"><ele>45.0</ele><time>2026-04-19T16:31:23.999Z</time></trkpt><trkpt lat="40.764932277002856" lon="0.6262768475847016"><ele>45.0</ele><time>2026-04-19T16:31:39.999Z</time></trkpt><trkpt lat="40.76504831272349" lon="0.6262358708348208"><ele>45.0</ele><time>2026-04-19T16:32:08.998Z</time></trkpt><trkpt lat="40.7650011484807" lon="0.6263169373142083"><ele>45.0</ele><time>2026-04-19T16:32:37Z</time></trkpt><trkpt lat="40.764942735315515" lon="0.6263866065208985"><ele>45.0</ele><time>2026-04-19T16:32:39Z</time></trkpt><trkpt lat="40.76486555995909" lon="0.6263493892920631"><ele>45.0</ele><time>2026-04-19T16:32:41Z</time></trkpt><trkpt lat="40.76477218349917" lon="0.6263336986932808"><ele>45.0</ele><time>2026-04-19T16:37:55.999Z</time></trkpt><trkpt lat="40.76468717620655" lon="0.6262742628953741"><ele>45.0</ele><time>2026-04-19T16:37:57.999Z</time></trkpt><trkpt lat="40.764524309554055" lon="0.6261668328575928"><ele>45.0</ele><time>2026-04-19T16:38:54Z</time></trkpt><trkpt lat="40.764457381812754" lon="0.6260764480700471"><ele>45.0</ele><time>2026-04-19T16:38:55Z</time></trkpt><trkpt lat="40.76438804142876" lon="0.6259821998899183"><ele>43.8</ele><time>2026-04-19T16:38:56Z</time></trkpt><trkpt lat="40.76430413322588" lon="0.6259054608043236"><ele>42.6</ele><time>2026-04-19T16:38:57Z</time></trkpt><trkpt lat="40.764209658610326" lon="0.6258477242087381"><ele>41.4</ele><time>2026-04-19T16:38:58Z</time></trkpt><trkpt lat="40.764108650997194" lon="0.6257829094170311"><ele>40.2</ele><time>2026-04-19T16:38:59Z</time></trkpt><trkpt lat="40.764018766184655" lon="0.6256614934401283"><ele>39.0</ele><time>2026-04-19T16:39:00Z</time></trkpt><trkpt lat="40.763881734987216" lon="0.6255428917496687"><ele>39.0</ele><time>2026-04-19T16:39:01Z</time></trkpt><trkpt lat="40.76374979186365" lon="0.6254442718706237"><ele>39.0</ele><time>2026-04-19T16:39:02Z</time></trkpt><trkpt lat="40.763644836639244" lon="0.6252894238285918"><ele>39.0</ele><time>2026-04-19T16:39:03Z</time></trkpt><trkpt lat="40.76354585848517" lon="0.625119650262959"><ele>39.0</ele><time>2026-04-19T16:39:04Z</time></trkpt><trkpt lat="40.76344313314199" lon="0.6249372689505571"><ele>39.0</ele><time>2026-04-19T16:39:05Z</time></trkpt><trkpt lat="40.76333279371487" lon="0.6247518641101407"><ele>39.0</ele><time>2026-04-19T16:39:06Z</time></trkpt><trkpt lat="40.763218549573935" lon="0.624559500690781"><ele>40.0</ele><time>2026-04-19T16:39:07Z</time></trkpt><trkpt lat="40.7630760280187" lon="0.6243250188474397"><ele>41.0</ele><time>2026-04-19T16:39:08Z</time></trkpt><trkpt lat="40.762919583897336" lon="0.6240685927734603"><ele>41.0</ele><time>2026-04-19T16:39:09Z</time></trkpt><trkpt lat="40.76277638005514" lon="0.6238257953316994"><ele>41.0</ele><time>2026-04-19T16:39:10Z</time></trkpt><trkpt lat="40.76265101448777" lon="0.6235727750200316"><ele>42.0</ele><time>2026-04-19T16:39:11Z</time></trkpt><trkpt lat="40.76251930847485" lon="0.6233234165717857"><ele>43.0</ele><time>2026-04-19T16:39:12Z</time></trkpt><trkpt lat="40.76239103207583" lon="0.623074053971601"><ele>43.0</ele><time>2026-04-19T16:39:13Z</time></trkpt><trkpt lat="40.762267597425996" lon="0.6228358581316036"><ele>43.0</ele><time>2026-04-19T16:39:14Z</time></trkpt><trkpt lat="40.76214792698685" lon="0.6225997865102935"><ele>43.0</ele><time>2026-04-19T16:39:15Z</time></trkpt><trkpt lat="40.76202857344127" lon="0.6223592588796547"><ele>42.66666666666667</ele><time>2026-04-19T16:39:15.999Z</time></trkpt><trkpt lat="40.76190850508014" lon="0.6221238798418998"><ele>42.333333333333336</ele><time>2026-04-19T16:39:16.999Z</time></trkpt><trkpt lat="40.76178615315504" lon="0.6218926194671728"><ele>42.0</ele><time>2026-04-19T16:39:17.999Z</time></trkpt><trkpt lat="40.76166933441172" lon="0.6216622026691982"><ele>42.0</ele><time>2026-04-19T16:39:18.999Z</time></trkpt><trkpt lat="40.76155562716024" lon="0.6214264169971562"><ele>42.0</ele><time>2026-04-19T16:39:19.999Z</time></trkpt><trkpt lat="40.76144277873211" lon="0.621191013998411"><ele>42.0</ele><time>2026-04-19T16:39:20.999Z</time></trkpt><trkpt lat="40.76132889463356" lon="0.6209538006203758"><ele>42.0</ele><time>2026-04-19T16:39:21.999Z</time></trkpt><trkpt lat="40.76121397721481" lon="0.6207126688910545"><ele>42.0</ele><time>2026-04-19T16:39:22.999Z</time></trkpt><trkpt lat="40.761102824147024" lon="0.6204661850520116"><ele>42.0</ele><time>2026-04-19T16:39:23.999Z</time></trkpt><trkpt lat="40.76098944430389" lon="0.6202199475617736"><ele>41.5</ele><time>2026-04-19T16:39:24.999Z</time></trkpt><trkpt lat="40.760863225921256" lon="0.619948717431361"><ele>41.0</ele><time>2026-04-19T16:39:25.999Z</time></trkpt><trkpt lat="40.760732398785535" lon="0.619664858355009"><ele>42.0</ele><time>2026-04-19T16:39:26.999Z</time></trkpt><trkpt lat="40.7606247896477" lon="0.6194060794650399"><ele>43.0</ele><time>2026-04-19T16:39:27.999Z</time></trkpt><trkpt lat="40.760527307927326" lon="0.6191230029892286"><ele>43.0</ele><time>2026-04-19T16:39:28.999Z</time></trkpt><trkpt lat="40.76039040991232" lon="0.618907390283244"><ele>43.0</ele><time>2026-04-19T16:39:29.999Z</time></trkpt><trkpt lat="40.76027225225341" lon="0.6186389432000123"><ele>43.0</ele><time>2026-04-19T16:39:30.999Z</time></trkpt><trkpt lat="40.760140560430486" lon="0.6183391272923344"><ele>42.5</ele><time>2026-04-19T16:39:31.999Z</time></trkpt><trkpt lat="40.7600039181829" lon="0.6180382486693219"><ele>42.0</ele><time>2026-04-19T16:39:32.999Z</time></trkpt><trkpt lat="40.759869638193834" lon="0.6177375413869405"><ele>43.0</ele><time>2026-04-19T16:39:33.999Z</time></trkpt><trkpt lat="40.75973098667316" lon="0.6174288990473733"><ele>44.0</ele><time>2026-04-19T16:39:34.999Z</time></trkpt><trkpt lat="40.75959421050707" lon="0.6171077057238378"><ele>43.5</ele><time>2026-04-19T16:39:35.999Z</time></trkpt><trkpt lat="40.759462726711355" lon="0.6167859044218574"><ele>43.0</ele><time>2026-04-19T16:39:36.999Z</time></trkpt><trkpt lat="40.75933575510558" lon="0.6164637852518386"><ele>42.5</ele><time>2026-04-19T16:39:37.999Z</time></trkpt><trkpt lat="40.75921446829732" lon="0.6161537151523823"><ele>42.0</ele><time>2026-04-19T16:39:38.999Z</time></trkpt><trkpt lat="40.759098536576886" lon="0.615841927068974"><ele>42.0</ele><time>2026-04-19T16:39:39.999Z</time></trkpt><trkpt lat="40.758983107918795" lon="0.6155259660413787"><ele>42.0</ele><time>2026-04-19T16:39:40.999Z</time></trkpt><trkpt lat="40.75887496335166" lon="0.6152043316726763"><ele>42.0</ele><time>2026-04-19T16:39:41.999Z</time></trkpt><trkpt lat="40.75876585550005" lon="0.6148756995002095"><ele>42.0</ele><time>2026-04-19T16:39:42.999Z</time></trkpt><trkpt lat="40.75865509460276" lon="0.6145484152968588"><ele>42.0</ele><time>2026-04-19T16:39:43.999Z</time></trkpt><trkpt lat="40.758543588911" lon="0.6142256554389146"><ele>42.0</ele><time>2026-04-19T16:39:44.999Z</time></trkpt><trkpt lat="40.75843540387202" lon="0.6139073664742671"><ele>42.0</ele><time>2026-04-19T16:39:45.999Z</time></trkpt><trkpt lat="40.75832604334305" lon="0.6135915986263178"><ele>42.0</ele><time>2026-04-19T16:39:46.999Z</time></trkpt><trkpt lat="40.75822156012603" lon="0.6132742644595336"><ele>42.0</ele><time>2026-04-19T16:39:47.999Z</time></trkpt><trkpt lat="40.75811420185609" lon="0.6129639998733336"><ele>42.0</ele><time>2026-04-19T16:39:48.999Z</time></trkpt><trkpt lat="40.75801011944933" lon="0.6126579502888435"><ele>43.0</ele><time>2026-04-19T16:39:49.999Z</time></trkpt><trkpt lat="40.75791052111385" lon="0.6123500167185559"><ele>44.0</ele><time>2026-04-19T16:39:50.999Z</time></trkpt><trkpt lat="40.75780791619231" lon="0.6120416008964026"><ele>44.0</ele><time>2026-04-19T16:39:51.999Z</time></trkpt><trkpt lat="40.757703227881024" lon="0.6117405168779516"><ele>44.0</ele><time>2026-04-19T16:39:52.999Z</time></trkpt><trkpt lat="40.757602513207665" lon="0.6114350295718363"><ele>42.5</ele><time>2026-04-19T16:39:53.999Z</time></trkpt><trkpt lat="40.75750478523248" lon="0.6111259496586872"><ele>41.0</ele><time>2026-04-19T16:39:54.999Z</time></trkpt><trkpt lat="40.75740580270794" lon="0.6108253848016244"><ele>41.0</ele><time>2026-04-19T16:39:55.999Z</time></trkpt><trkpt lat="40.757309090716454" lon="0.6105184355543103"><ele>41.0</ele><time>2026-04-19T16:39:56.999Z</time></trkpt><trkpt lat="40.75721409431418" lon="0.610211948784353"><ele>41.0</ele><time>2026-04-19T16:39:57.999Z</time></trkpt><trkpt lat="40.757114235953004" lon="0.6099139227046161"><ele>41.0</ele><time>2026-04-19T16:39:58.999Z</time></trkpt><trkpt lat="40.75701412249146" lon="0.6096138869604475"><ele>41.5</ele><time>2026-04-19T16:39:59.999Z</time></trkpt><trkpt lat="40.75691258656348" lon="0.60931116028575"><ele>42.0</ele><time>2026-04-19T16:40:00.999Z</time></trkpt><trkpt lat="40.75680462305853" lon="0.6090008922921755"><ele>40.5</ele><time>2026-04-19T16:40:01.999Z</time></trkpt><trkpt lat="40.75669637058898" lon="0.6086867270163155"><ele>39.0</ele><time>2026-04-19T16:40:02.999Z</time></trkpt><trkpt lat="40.75659006502219" lon="0.6083710977751705"><ele>39.0</ele><time>2026-04-19T16:40:03.999Z</time></trkpt><trkpt lat="40.75647786238636" lon="0.6080525181408517"><ele>39.0</ele><time>2026-04-19T16:40:04.999Z</time></trkpt><trkpt lat="40.75636258473811" lon="0.6077308701629554"><ele>39.5</ele><time>2026-04-19T16:40:05.999Z</time></trkpt><trkpt lat="40.75624683368646" lon="0.6074063338894173"><ele>40.0</ele><time>2026-04-19T16:40:06.999Z</time></trkpt><trkpt lat="40.75612966214244" lon="0.6070870255889432"><ele>39.5</ele><time>2026-04-19T16:40:07.999Z</time></trkpt><trkpt lat="40.756002926598626" lon="0.6067746509172562"><ele>39.0</ele><time>2026-04-19T16:40:08.999Z</time></trkpt><trkpt lat="40.75587615501641" lon="0.6064698466435726"><ele>39.0</ele><time>2026-04-19T16:40:09.999Z</time></trkpt><trkpt lat="40.75574985695421" lon="0.6061703424063178"><ele>39.0</ele><time>2026-04-19T16:40:10.998Z</time></trkpt><trkpt lat="40.75562441049835" lon="0.6058712090034963"><ele>39.0</ele><time>2026-04-19T16:40:11.998Z</time></trkpt><trkpt lat="40.755492709600865" lon="0.6055793606673693"><ele>39.0</ele><time>2026-04-19T16:40:12.998Z</time></trkpt><trkpt lat="40.75536065765112" lon="0.605291782122155"><ele>39.0</ele><time>2026-04-19T16:40:13.998Z</time></trkpt><trkpt lat="40.75522803892159" lon="0.6050071665291976"><ele>39.0</ele><time>2026-04-19T16:40:14.998Z</time></trkpt><trkpt lat="40.75508964197611" lon="0.6047221074558327"><ele>37.5</ele><time>2026-04-19T16:40:15.998Z</time></trkpt><trkpt lat="40.75494931375137" lon="0.6044408604291454"><ele>36.0</ele><time>2026-04-19T16:40:16.998Z</time></trkpt><trkpt lat="40.75480731356371" lon="0.6041603413494054"><ele>36.0</ele><time>2026-04-19T16:40:17.998Z</time></trkpt><trkpt lat="40.75466317989438" lon="0.6038804227945713"><ele>36.0</ele><time>2026-04-19T16:40:18.998Z</time></trkpt><trkpt lat="40.75451861091786" lon="0.6035966370054648"><ele>36.5</ele><time>2026-04-19T16:40:19.998Z</time></trkpt><trkpt lat="40.75436729075989" lon="0.6033178905764258"><ele>37.0</ele><time>2026-04-19T16:40:20.998Z</time></trkpt><trkpt lat="40.754214831802706" lon="0.6030375107097496"><ele>38.0</ele><time>2026-04-19T16:40:21.998Z</time></trkpt><trkpt lat="40.75405559360165" lon="0.6027628551215803"><ele>39.0</ele><time>2026-04-19T16:40:22.998Z</time></trkpt><trkpt lat="40.75389445548117" lon="0.602490559525781"><ele>39.0</ele><time>2026-04-19T16:40:23.998Z</time></trkpt><trkpt lat="40.753733796628325" lon="0.6022171812550006"><ele>39.0</ele><time>2026-04-19T16:40:24.998Z</time></trkpt><trkpt lat="40.75356921742034" lon="0.6019466921443379"><ele>38.0</ele><time>2026-04-19T16:40:25.998Z</time></trkpt><trkpt lat="40.753401983470596" lon="0.6016778662833462"><ele>37.0</ele><time>2026-04-19T16:40:26.998Z</time></trkpt><trkpt lat="40.75323078824229" lon="0.601411531030123"><ele>38.5</ele><time>2026-04-19T16:40:27.998Z</time></trkpt><trkpt lat="40.753059346995016" lon="0.6011506146126714"><ele>40.0</ele><time>2026-04-19T16:40:28.998Z</time></trkpt><trkpt lat="40.75288691455466" lon="0.6008901417165967"><ele>40.0</ele><time>2026-04-19T16:40:29.998Z</time></trkpt><trkpt lat="40.752711983289984" lon="0.6006332508912494"><ele>40.0</ele><time>2026-04-19T16:40:30.998Z</time></trkpt><trkpt lat="40.75253124038608" lon="0.6003788631268762"><ele>37.5</ele><time>2026-04-19T16:40:31.998Z</time></trkpt><trkpt lat="40.752346973948434" lon="0.600122068400144"><ele>35.0</ele><time>2026-04-19T16:40:32.998Z</time></trkpt><trkpt lat="40.75215513991519" lon="0.5998691775053289"><ele>35.0</ele><time>2026-04-19T16:40:33.998Z</time></trkpt><trkpt lat="40.75196615316167" lon="0.5996156341402159"><ele>35.0</ele><time>2026-04-19T16:40:34.998Z</time></trkpt><trkpt lat="40.75177568866476" lon="0.5993636116015517"><ele>34.0</ele><time>2026-04-19T16:40:35.998Z</time></trkpt><trkpt lat="40.751580731050616" lon="0.5991128039152128"><ele>33.0</ele><time>2026-04-19T16:40:36.998Z</time></trkpt><trkpt lat="40.751381021189125" lon="0.5988666395972404"><ele>32.0</ele><time>2026-04-19T16:40:37.998Z</time></trkpt><trkpt lat="40.75117311576352" lon="0.5986250269217431"><ele>31.0</ele><time>2026-04-19T16:40:38.998Z</time></trkpt><trkpt lat="40.75096839030676" lon="0.5983826007292923"><ele>31.0</ele><time>2026-04-19T16:40:39.998Z</time></trkpt><trkpt lat="40.75077122563584" lon="0.5981611766443731"><ele>31.0</ele><time>2026-04-19T16:40:40.998Z</time></trkpt><trkpt lat="40.750578800107796" lon="0.5979449994992088"><ele>30.0</ele><time>2026-04-19T16:40:41.998Z</time></trkpt><trkpt lat="40.750380936494984" lon="0.5977233780972259"><ele>29.0</ele><time>2026-04-19T16:40:42.998Z</time></trkpt><trkpt lat="40.7501786501451" lon="0.5975068096071422"><ele>29.0</ele><time>2026-04-19T16:40:43.998Z</time></trkpt><trkpt lat="40.74997355341489" lon="0.597293574593426"><ele>29.0</ele><time>2026-04-19T16:40:45Z</time></trkpt><trkpt lat="40.74976831289024" lon="0.5970861797444531"><ele>28.0</ele><time>2026-04-19T16:40:46Z</time></trkpt><trkpt lat="40.74956266712938" lon="0.5968833407411225"><ele>27.0</ele><time>2026-04-19T16:40:47Z</time></trkpt><trkpt lat="40.74935429153704" lon="0.5966790656024012"><ele>25.5</ele><time>2026-04-19T16:40:48Z</time></trkpt><trkpt lat="40.749145273331905" lon="0.5964773974677295"><ele>24.0</ele><time>2026-04-19T16:40:49Z</time></trkpt><trkpt lat="40.748933129471126" lon="0.5962783335479541"><ele>24.0</ele><time>2026-04-19T16:40:50Z</time></trkpt><trkpt lat="40.74871873501447" lon="0.5960843463588829"><ele>24.0</ele><time>2026-04-19T16:40:51Z</time></trkpt><trkpt lat="40.74850080137692" lon="0.5958915951589485"><ele>24.0</ele><time>2026-04-19T16:40:52Z</time></trkpt><trkpt lat="40.74828223758895" lon="0.595701034665752"><ele>24.0</ele><time>2026-04-19T16:40:53Z</time></trkpt><trkpt lat="40.7480598660667" lon="0.5955147682761966"><ele>24.0</ele><time>2026-04-19T16:40:54Z</time></trkpt><trkpt lat="40.747833398487856" lon="0.5953280753328672"><ele>24.0</ele><time>2026-04-19T16:40:55Z</time></trkpt><trkpt lat="40.74760393362216" lon="0.595148266158317"><ele>22.5</ele><time>2026-04-19T16:40:56Z</time></trkpt><trkpt lat="40.747374144541176" lon="0.5949711073185183"><ele>21.0</ele><time>2026-04-19T16:40:57Z</time></trkpt><trkpt lat="40.74714265550095" lon="0.5947952314601175"><ele>21.0</ele><time>2026-04-19T16:40:58Z</time></trkpt><trkpt lat="40.7469101771031" lon="0.5946259506657593"><ele>21.0</ele><time>2026-04-19T16:40:59Z</time></trkpt><trkpt lat="40.746678139782205" lon="0.5944590243058006"><ele>19.5</ele><time>2026-04-19T16:41:00Z</time></trkpt><trkpt lat="40.74645333611496" lon="0.5942988581779286"><ele>18.0</ele><time>2026-04-19T16:41:01Z</time></trkpt><trkpt lat="40.746224999152794" lon="0.5941416287997573"><ele>17.5</ele><time>2026-04-19T16:41:02Z</time></trkpt><trkpt lat="40.74599279715241" lon="0.5939917037130817"><ele>17.0</ele><time>2026-04-19T16:41:03Z</time></trkpt><trkpt lat="40.74575643850275" lon="0.5938419505355074"><ele>17.0</ele><time>2026-04-19T16:41:04Z</time></trkpt><trkpt lat="40.745523821048984" lon="0.5936979428206048"><ele>17.0</ele><time>2026-04-19T16:41:05Z</time></trkpt><trkpt lat="40.74528746328976" lon="0.5935530183843937"><ele>18.0</ele><time>2026-04-19T16:41:06Z</time></trkpt><trkpt lat="40.745050398776904" lon="0.5934120749128934"><ele>19.0</ele><time>2026-04-19T16:41:07Z</time></trkpt><trkpt lat="40.744810360682685" lon="0.5932753919477168"><ele>19.0</ele><time>2026-04-19T16:41:08Z</time></trkpt><trkpt lat="40.744573666867986" lon="0.5931469287835865"><ele>19.0</ele><time>2026-04-19T16:41:09Z</time></trkpt><trkpt lat="40.74433454655661" lon="0.593021518683075"><ele>19.0</ele><time>2026-04-19T16:41:10Z</time></trkpt><trkpt lat="40.74409376897988" lon="0.5928982914557469"><ele>19.0</ele><time>2026-04-19T16:41:11Z</time></trkpt><trkpt lat="40.74384589995275" lon="0.5927752522959279"><ele>19.0</ele><time>2026-04-19T16:41:12Z</time></trkpt><trkpt lat="40.74359647817492" lon="0.5926569814226361"><ele>19.0</ele><time>2026-04-19T16:41:13Z</time></trkpt><trkpt lat="40.743348738902604" lon="0.592541905294448"><ele>19.0</ele><time>2026-04-19T16:41:13.999Z</time></trkpt><trkpt lat="40.743101799175534" lon="0.5924319699062538"><ele>19.0</ele><time>2026-04-19T16:41:14.999Z</time></trkpt><trkpt lat="40.74285751565584" lon="0.5923271395231815"><ele>19.0</ele><time>2026-04-19T16:41:15.999Z</time></trkpt><trkpt lat="40.742615490892334" lon="0.5922258946841997"><ele>19.0</ele><time>2026-04-19T16:41:16.999Z</time></trkpt><trkpt lat="40.74236378949926" lon="0.5921230674766816"><ele>19.0</ele><time>2026-04-19T16:41:17.999Z</time></trkpt><trkpt lat="40.74211602956675" lon="0.5920328784913054"><ele>19.0</ele><time>2026-04-19T16:41:18.999Z</time></trkpt><trkpt lat="40.74186710423001" lon="0.5919420464227059"><ele>20.5</ele><time>2026-04-19T16:41:19.999Z</time></trkpt><trkpt lat="40.741613775621445" lon="0.5918527562333931"><ele>22.0</ele><time>2026-04-19T16:41:20.999Z</time></trkpt><trkpt lat="40.74136476869088" lon="0.5917742646546056"><ele>22.0</ele><time>2026-04-19T16:41:21.999Z</time></trkpt><trkpt lat="40.74111082331432" lon="0.5916940961117725"><ele>22.0</ele><time>2026-04-19T16:41:22.999Z</time></trkpt><trkpt lat="40.74085963418117" lon="0.5916188822021137"><ele>20.5</ele><time>2026-04-19T16:41:23.999Z</time></trkpt><trkpt lat="40.74060616876473" lon="0.5915446228944397"><ele>19.0</ele><time>2026-04-19T16:41:24.999Z</time></trkpt><trkpt lat="40.740350732949175" lon="0.5914683147974705"><ele>17.5</ele><time>2026-04-19T16:41:25.999Z</time></trkpt><trkpt lat="40.74009679134827" lon="0.5913905656333845"><ele>16.0</ele><time>2026-04-19T16:41:26.999Z</time></trkpt><trkpt lat="40.7398451075473" lon="0.591318441760773"><ele>16.0</ele><time>2026-04-19T16:41:27.999Z</time></trkpt><trkpt lat="40.739589674331526" lon="0.5912432832229286"><ele>16.0</ele><time>2026-04-19T16:41:28.999Z</time></trkpt><trkpt lat="40.73933774011527" lon="0.5911714572767135"><ele>18.0</ele><time>2026-04-19T16:41:29.999Z</time></trkpt><trkpt lat="40.73908506136014" lon="0.591095793031615"><ele>20.0</ele><time>2026-04-19T16:41:30.999Z</time></trkpt><trkpt lat="40.73883815862418" lon="0.5910198680698044"><ele>20.0</ele><time>2026-04-19T16:41:31.999Z</time></trkpt><trkpt lat="40.73858671647567" lon="0.5909407389692596"><ele>20.0</ele><time>2026-04-19T16:41:32.999Z</time></trkpt><trkpt lat="40.738337058652455" lon="0.590850780339531"><ele>18.0</ele><time>2026-04-19T16:41:33.999Z</time></trkpt><trkpt lat="40.73808922108163" lon="0.5907537029799729"><ele>16.0</ele><time>2026-04-19T16:41:34.999Z</time></trkpt><trkpt lat="40.73783919174356" lon="0.5906496421577462"><ele>16.5</ele><time>2026-04-19T16:41:35.999Z</time></trkpt><trkpt lat="40.73759223469838" lon="0.5905360463495514"><ele>17.0</ele><time>2026-04-19T16:41:36.999Z</time></trkpt><trkpt lat="40.73734475348332" lon="0.5904102006728577"><ele>17.5</ele><time>2026-04-19T16:41:37.999Z</time></trkpt><trkpt lat="40.7370983704472" lon="0.5902679395894291"><ele>18.0</ele><time>2026-04-19T16:41:38.999Z</time></trkpt><trkpt lat="40.73685623174052" lon="0.5901201643896951"><ele>16.5</ele><time>2026-04-19T16:41:39.999Z</time></trkpt><trkpt lat="40.73660859431461" lon="0.5899707844206143"><ele>15.0</ele><time>2026-04-19T16:41:40.999Z</time></trkpt><trkpt lat="40.73637085806267" lon="0.5898189165788497"><ele>15.0</ele><time>2026-04-19T16:41:41.999Z</time></trkpt><trkpt lat="40.73613325086757" lon="0.589653697464182"><ele>15.0</ele><time>2026-04-19T16:41:42.999Z</time></trkpt><trkpt lat="40.73590342388311" lon="0.5894818729104813"><ele>15.5</ele><time>2026-04-19T16:41:43.999Z</time></trkpt><trkpt lat="40.73566795884305" lon="0.5892976929781131"><ele>16.0</ele><time>2026-04-19T16:41:44.999Z</time></trkpt><trkpt lat="40.73544066418744" lon="0.5891137895065145"><ele>15.5</ele><time>2026-04-19T16:41:45.999Z</time></trkpt><trkpt lat="40.73520975416887" lon="0.5889178554583561"><ele>15.0</ele><time>2026-04-19T16:41:46.999Z</time></trkpt><trkpt lat="40.73498450561029" lon="0.5887120856487291"><ele>16.0</ele><time>2026-04-19T16:41:47.999Z</time></trkpt><trkpt lat="40.734764871585355" lon="0.5885072421504527"><ele>17.0</ele><time>2026-04-19T16:41:48.999Z</time></trkpt><trkpt lat="40.73455309731209" lon="0.588287575058275"><ele>16.5</ele><time>2026-04-19T16:41:49.999Z</time></trkpt><trkpt lat="40.734350055532126" lon="0.5880619734632754"><ele>16.0</ele><time>2026-04-19T16:41:50.999Z</time></trkpt><trkpt lat="40.734152345779734" lon="0.5878291225746419"><ele>16.0</ele><time>2026-04-19T16:41:51.999Z</time></trkpt><trkpt lat="40.73395885859142" lon="0.5875927165247189"><ele>16.0</ele><time>2026-04-19T16:41:52.999Z</time></trkpt><trkpt lat="40.73376927643908" lon="0.5873543473476482"><ele>16.0</ele><time>2026-04-19T16:41:53.999Z</time></trkpt><trkpt lat="40.7335818833461" lon="0.5871072859533171"><ele>16.0</ele><time>2026-04-19T16:41:54.999Z</time></trkpt><trkpt lat="40.733400399853366" lon="0.586856555023938"><ele>15.0</ele><time>2026-04-19T16:41:55.999Z</time></trkpt><trkpt lat="40.73322496555078" lon="0.5866001449996614"><ele>14.0</ele><time>2026-04-19T16:41:56.999Z</time></trkpt><trkpt lat="40.73305508619418" lon="0.5863351137725021"><ele>15.5</ele><time>2026-04-19T16:41:57.999Z</time></trkpt><trkpt lat="40.73288762557307" lon="0.5860634081931824"><ele>17.0</ele><time>2026-04-19T16:41:58.999Z</time></trkpt><trkpt lat="40.732723122970306" lon="0.5857858946388274"><ele>16.0</ele><time>2026-04-19T16:41:59.999Z</time></trkpt><trkpt lat="40.73256257703377" lon="0.5855038039628839"><ele>15.0</ele><time>2026-04-19T16:42:00.999Z</time></trkpt><trkpt lat="40.73240512066363" lon="0.58521883012001"><ele>17.5</ele><time>2026-04-19T16:42:01.999Z</time></trkpt><trkpt lat="40.73226218878158" lon="0.5849266326936845"><ele>20.0</ele><time>2026-04-19T16:42:02.999Z</time></trkpt><trkpt lat="40.73212293768236" lon="0.5846197629947613"><ele>20.5</ele><time>2026-04-19T16:42:03.999Z</time></trkpt><trkpt lat="40.73199329418172" lon="0.5843283768261313"><ele>21.0</ele><time>2026-04-19T16:42:04.999Z</time></trkpt><trkpt lat="40.731864257638556" lon="0.5840340099390318"><ele>20.0</ele><time>2026-04-19T16:42:05.999Z</time></trkpt><trkpt lat="40.73174377809833" lon="0.5837222805701202"><ele>19.0</ele><time>2026-04-19T16:42:06.999Z</time></trkpt><trkpt lat="40.73162682568608" lon="0.5834089051049145"><ele>19.0</ele><time>2026-04-19T16:42:07.999Z</time></trkpt><trkpt lat="40.73151247661818" lon="0.5830990138256525"><ele>19.0</ele><time>2026-04-19T16:42:08.999Z</time></trkpt><trkpt lat="40.73140689290696" lon="0.5827804923605907"><ele>19.0</ele><time>2026-04-19T16:42:09.999Z</time></trkpt><trkpt lat="40.73131104507858" lon="0.5824588880084959"><ele>19.0</ele><time>2026-04-19T16:42:10.999Z</time></trkpt><trkpt lat="40.73121816817169" lon="0.5821404957073685"><ele>20.0</ele><time>2026-04-19T16:42:11.999Z</time></trkpt><trkpt lat="40.731125394441285" lon="0.5818213858555051"><ele>21.0</ele><time>2026-04-19T16:42:12.999Z</time></trkpt><trkpt lat="40.73103550807161" lon="0.5815044708136281"><ele>20.0</ele><time>2026-04-19T16:42:13.999Z</time></trkpt><trkpt lat="40.73094380605393" lon="0.5811880493232788"><ele>19.0</ele><time>2026-04-19T16:42:14.999Z</time></trkpt><trkpt lat="40.730854347172816" lon="0.5808711933217351"><ele>19.0</ele><time>2026-04-19T16:42:15.998Z</time></trkpt><trkpt lat="40.73076362308384" lon="0.5805565006313395"><ele>19.0</ele><time>2026-04-19T16:42:16.998Z</time></trkpt><trkpt lat="40.730674875342295" lon="0.5802521445192373"><ele>19.5</ele><time>2026-04-19T16:42:17.998Z</time></trkpt><trkpt lat="40.730586475419244" lon="0.579940315691033"><ele>20.0</ele><time>2026-04-19T16:42:18.998Z</time></trkpt><trkpt lat="40.73049284792711" lon="0.579631778413784"><ele>19.5</ele><time>2026-04-19T16:42:19.998Z</time></trkpt><trkpt lat="40.73039659936893" lon="0.5793236816518843"><ele>19.0</ele><time>2026-04-19T16:42:20.998Z</time></trkpt><trkpt lat="40.730301919149035" lon="0.5790179125379316"><ele>19.5</ele><time>2026-04-19T16:42:21.998Z</time></trkpt><trkpt lat="40.7302042378415" lon="0.5787119808904044"><ele>20.0</ele><time>2026-04-19T16:42:22.998Z</time></trkpt><trkpt lat="40.730103694828934" lon="0.5783967418732668"><ele>18.5</ele><time>2026-04-19T16:42:23.998Z</time></trkpt><trkpt lat="40.729998590488286" lon="0.578094067188294"><ele>17.0</ele><time>2026-04-19T16:42:24.998Z</time></trkpt><trkpt lat="40.72989613010139" lon="0.5777896539728561"><ele>16.5</ele><time>2026-04-19T16:42:25.998Z</time></trkpt><trkpt lat="40.729792511535415" lon="0.5774874521419004"><ele>16.0</ele><time>2026-04-19T16:42:26.998Z</time></trkpt><trkpt lat="40.729684105652204" lon="0.5771895606946263"><ele>16.0</ele><time>2026-04-19T16:42:27.998Z</time></trkpt><trkpt lat="40.72957402167437" lon="0.5768916156761557"><ele>16.0</ele><time>2026-04-19T16:42:28.998Z</time></trkpt><trkpt lat="40.729463461403846" lon="0.5766021417492305"><ele>14.5</ele><time>2026-04-19T16:42:29.998Z</time></trkpt><trkpt lat="40.72935088708911" lon="0.5763169233470545"><ele>13.0</ele><time>2026-04-19T16:42:30.998Z</time></trkpt><trkpt lat="40.72923855881517" lon="0.5760331414115043"><ele>10.5</ele><time>2026-04-19T16:42:31.998Z</time></trkpt><trkpt lat="40.72912283972978" lon="0.5757525639392637"><ele>8.0</ele><time>2026-04-19T16:42:32.998Z</time></trkpt><trkpt lat="40.72901003285919" lon="0.5754721990094869"><ele>6.5</ele><time>2026-04-19T16:42:33.998Z</time></trkpt><trkpt lat="40.72889813764987" lon="0.5751917422895927"><ele>5.0</ele><time>2026-04-19T16:42:34.998Z</time></trkpt><trkpt lat="40.72878341676701" lon="0.5749167339809983"><ele>5.0</ele><time>2026-04-19T16:42:35.998Z</time></trkpt><trkpt lat="40.72866470388006" lon="0.5746466529527103"><ele>5.0</ele><time>2026-04-19T16:42:36.998Z</time></trkpt><trkpt lat="40.72854480473727" lon="0.574376775883872"><ele>2.5</ele><time>2026-04-19T16:42:37.998Z</time></trkpt><trkpt lat="40.72842279800756" lon="0.5741131589542837"><ele>0.0</ele><time>2026-04-19T16:42:38.998Z</time></trkpt><trkpt lat="40.7282962360931" lon="0.5738499012903817"><ele>0.0</ele><time>2026-04-19T16:42:39.998Z</time></trkpt><trkpt lat="40.72817324721146" lon="0.5735869329827431"><ele>0.0</ele><time>2026-04-19T16:42:40.998Z</time></trkpt><trkpt lat="40.72804598478582" lon="0.573322714207373"><ele>0.0</ele><time>2026-04-19T16:42:41.998Z</time></trkpt><trkpt lat="40.727915632452635" lon="0.573059800201138"><ele>0.0</ele><time>2026-04-19T16:42:42.998Z</time></trkpt><trkpt lat="40.727783630293075" lon="0.5727970279350909"><ele>1.5</ele><time>2026-04-19T16:42:43.998Z</time></trkpt><trkpt lat="40.72765197783534" lon="0.5725389407772058"><ele>3.0</ele><time>2026-04-19T16:42:44.998Z</time></trkpt><trkpt lat="40.72751675588506" lon="0.5722814948583643"><ele>3.0</ele><time>2026-04-19T16:42:45.998Z</time></trkpt><trkpt lat="40.72737804892022" lon="0.5720269194790202"><ele>3.0</ele><time>2026-04-19T16:42:46.998Z</time></trkpt><trkpt lat="40.727237812891914" lon="0.5717666209641665"><ele>3.5</ele><time>2026-04-19T16:42:47.998Z</time></trkpt><trkpt lat="40.72709561774899" lon="0.5715093273772237"><ele>4.0</ele><time>2026-04-19T16:42:48.998Z</time></trkpt><trkpt lat="40.72695145745563" lon="0.5712517065068433"><ele>3.5</ele><time>2026-04-19T16:42:49.998Z</time></trkpt><trkpt lat="40.72680650225031" lon="0.5709947986146832"><ele>3.0</ele><time>2026-04-19T16:42:50.999Z</time></trkpt><trkpt lat="40.72666223908275" lon="0.5707405014913876"><ele>3.0</ele><time>2026-04-19T16:42:51.999Z</time></trkpt><trkpt lat="40.726510600132066" lon="0.5704840506509855"><ele>3.0</ele><time>2026-04-19T16:42:52.999Z</time></trkpt><trkpt lat="40.72635726281404" lon="0.5702290122626503"><ele>2.5</ele><time>2026-04-19T16:42:53.999Z</time></trkpt><trkpt lat="40.72620230441667" lon="0.5699836933509042"><ele>2.0</ele><time>2026-04-19T16:42:54.999Z</time></trkpt><trkpt lat="40.7260449618761" lon="0.5697390660324221"><ele>2.5</ele><time>2026-04-19T16:42:55.999Z</time></trkpt><trkpt lat="40.72588628233577" lon="0.5694931719331576"><ele>3.0</ele><time>2026-04-19T16:42:56.999Z</time></trkpt><trkpt lat="40.72573178955204" lon="0.5692524646887148"><ele>3.0</ele><time>2026-04-19T16:42:57.999Z</time></trkpt><trkpt lat="40.725580693048" lon="0.5690270632131411"><ele>3.0</ele><time>2026-04-19T16:42:58.999Z</time></trkpt><trkpt lat="40.72543492737503" lon="0.5688122522761928"><ele>3.0</ele><time>2026-04-19T16:42:59.999Z</time></trkpt><trkpt lat="40.725283605348714" lon="0.568599436264966"><ele>3.0</ele><time>2026-04-19T16:43:00.999Z</time></trkpt><trkpt lat="40.72512694793422" lon="0.5683857183647536"><ele>3.0</ele><time>2026-04-19T16:43:01.999Z</time></trkpt><trkpt lat="40.72497311101448" lon="0.5681699864770203"><ele>3.0</ele><time>2026-04-19T16:43:03Z</time></trkpt><trkpt lat="40.7248233338448" lon="0.5679627350172752"><ele>3.0</ele><time>2026-04-19T16:43:04Z</time></trkpt><trkpt lat="40.72466873558082" lon="0.5677509662907751"><ele>3.0</ele><time>2026-04-19T16:43:05Z</time></trkpt><trkpt lat="40.72451513282047" lon="0.5675430962864138"><ele>5.0</ele><time>2026-04-19T16:43:06Z</time></trkpt><trkpt lat="40.724357331000576" lon="0.5673349513775697"><ele>7.0</ele><time>2026-04-19T16:43:07Z</time></trkpt><trkpt lat="40.72420003236057" lon="0.5671286071576909"><ele>9.0</ele><time>2026-04-19T16:43:08Z</time></trkpt><trkpt lat="40.72403846437386" lon="0.5669193774669172"><ele>13.5</ele><time>2026-04-19T16:43:09Z</time></trkpt><trkpt lat="40.723877073866404" lon="0.5667048027570496"><ele>18.0</ele><time>2026-04-19T16:43:10Z</time></trkpt><trkpt lat="40.7237126899534" lon="0.5665038303955718"><ele>17.0</ele><time>2026-04-19T16:43:11Z</time></trkpt><trkpt lat="40.72354308489489" lon="0.5662963802799456"><ele>16.0</ele><time>2026-04-19T16:43:11.999Z</time></trkpt><trkpt lat="40.723373066554984" lon="0.5660904567203804"><ele>16.0</ele><time>2026-04-19T16:43:12.999Z</time></trkpt><trkpt lat="40.723199759380634" lon="0.5658848643941098"><ele>16.0</ele><time>2026-04-19T16:43:13.999Z</time></trkpt><trkpt lat="40.72302558266257" lon="0.5656794148205938"><ele>16.0</ele><time>2026-04-19T16:43:14.999Z</time></trkpt><trkpt lat="40.722847447836806" lon="0.5654760319124364"><ele>16.0</ele><time>2026-04-19T16:43:15.999Z</time></trkpt><trkpt lat="40.72267199567625" lon="0.5652757484722408"><ele>16.5</ele><time>2026-04-19T16:43:16.999Z</time></trkpt><trkpt lat="40.72249186793972" lon="0.5650753272559156"><ele>17.0</ele><time>2026-04-19T16:43:17.999Z</time></trkpt><trkpt lat="40.722309972169974" lon="0.5648756898038843"><ele>17.0</ele><time>2026-04-19T16:43:18.999Z</time></trkpt><trkpt lat="40.72212743826986" lon="0.5646820441891387"><ele>17.0</ele><time>2026-04-19T16:43:19.999Z</time></trkpt><trkpt lat="40.72194192820053" lon="0.5644924740559591"><ele>20.0</ele><time>2026-04-19T16:43:20.999Z</time></trkpt><trkpt lat="40.72175901899266" lon="0.564304466618625"><ele>23.0</ele><time>2026-04-19T16:43:21.999Z</time></trkpt><trkpt lat="40.72157628683892" lon="0.5641180644679104"><ele>23.0</ele><time>2026-04-19T16:43:22.999Z</time></trkpt><trkpt lat="40.72138977565035" lon="0.563933221575315"><ele>23.0</ele><time>2026-04-19T16:43:23.999Z</time></trkpt><trkpt lat="40.721200980969606" lon="0.5637541326553289"><ele>24.0</ele><time>2026-04-19T16:43:24.999Z</time></trkpt><trkpt lat="40.721007798123416" lon="0.5635728922603217"><ele>25.0</ele><time>2026-04-19T16:43:25.999Z</time></trkpt><trkpt lat="40.72081243994853" lon="0.5633924048504876"><ele>25.0</ele><time>2026-04-19T16:43:26.999Z</time></trkpt><trkpt lat="40.7206162858044" lon="0.5632097573511449"><ele>25.0</ele><time>2026-04-19T16:43:27.999Z</time></trkpt><trkpt lat="40.72042092005601" lon="0.5630305175973185"><ele>29.5</ele><time>2026-04-19T16:43:28.999Z</time></trkpt><trkpt lat="40.7202232907916" lon="0.5628571610657264"><ele>34.0</ele><time>2026-04-19T16:43:29.999Z</time></trkpt><trkpt lat="40.72002192328584" lon="0.5626809071405531"><ele>34.0</ele><time>2026-04-19T16:43:30.999Z</time></trkpt><trkpt lat="40.71981759558695" lon="0.5625039542655859"><ele>34.0</ele><time>2026-04-19T16:43:31.999Z</time></trkpt><trkpt lat="40.7196124241381" lon="0.5623333313053295"><ele>34.0</ele><time>2026-04-19T16:43:32.999Z</time></trkpt><trkpt lat="40.719405695692565" lon="0.5621648457196416"><ele>34.0</ele><time>2026-04-19T16:43:33.999Z</time></trkpt><trkpt lat="40.71919731541133" lon="0.5619940229792554"><ele>36.5</ele><time>2026-04-19T16:43:34.999Z</time></trkpt><trkpt lat="40.718979268072935" lon="0.5618086494201296"><ele>39.0</ele><time>2026-04-19T16:43:35.999Z</time></trkpt><trkpt lat="40.7187564694506" lon="0.5616219014261674"><ele>39.0</ele><time>2026-04-19T16:43:36.999Z</time></trkpt><trkpt lat="40.71854189401196" lon="0.5614384880322878"><ele>39.0</ele><time>2026-04-19T16:43:37.999Z</time></trkpt><trkpt lat="40.71832726067728" lon="0.5612546776308814"><ele>38.0</ele><time>2026-04-19T16:43:38.999Z</time></trkpt><trkpt lat="40.71811575765519" lon="0.5610768374069652"><ele>37.0</ele><time>2026-04-19T16:43:39.999Z</time></trkpt><trkpt lat="40.71790947851725" lon="0.5609006912733914"><ele>35.5</ele><time>2026-04-19T16:43:40.999Z</time></trkpt><trkpt lat="40.717698886040594" lon="0.5607169546985014"><ele>34.0</ele><time>2026-04-19T16:43:41.999Z</time></trkpt><trkpt lat="40.7174968835182" lon="0.5605352978479214"><ele>37.0</ele><time>2026-04-19T16:43:42.999Z</time></trkpt><trkpt lat="40.717290751390514" lon="0.5603516060972078"><ele>40.0</ele><time>2026-04-19T16:43:43.999Z</time></trkpt><trkpt lat="40.71709111063607" lon="0.560164237055384"><ele>41.0</ele><time>2026-04-19T16:43:44.999Z</time></trkpt><trkpt lat="40.71689030765454" lon="0.5599744654894526"><ele>42.0</ele><time>2026-04-19T16:43:45.999Z</time></trkpt><trkpt lat="40.716694493926326" lon="0.5597867036957004"><ele>42.0</ele><time>2026-04-19T16:43:46.999Z</time></trkpt><trkpt lat="40.71649856606406" lon="0.5595885515932714"><ele>42.0</ele><time>2026-04-19T16:43:47.999Z</time></trkpt><trkpt lat="40.7163018553973" lon="0.5593815663561529"><ele>42.5</ele><time>2026-04-19T16:43:48.999Z</time></trkpt><trkpt lat="40.716108198542436" lon="0.5591694225275914"><ele>43.0</ele><time>2026-04-19T16:43:49.999Z</time></trkpt><trkpt lat="40.71591613321998" lon="0.5589522245542573"><ele>43.0</ele><time>2026-04-19T16:43:50.999Z</time></trkpt><trkpt lat="40.715720827424725" lon="0.5587332701177984"><ele>43.0</ele><time>2026-04-19T16:43:51.999Z</time></trkpt><trkpt lat="40.715527777020846" lon="0.558516446486655"><ele>42.0</ele><time>2026-04-19T16:43:52.999Z</time></trkpt><trkpt lat="40.715330521865255" lon="0.5582964860480613"><ele>41.0</ele><time>2026-04-19T16:43:53.999Z</time></trkpt><trkpt lat="40.715146999425926" lon="0.5580820040289285"><ele>41.0</ele><time>2026-04-19T16:43:54.999Z</time></trkpt><trkpt lat="40.714960689449" lon="0.5578755442874118"><ele>41.0</ele><time>2026-04-19T16:43:55.999Z</time></trkpt><trkpt lat="40.71477131250171" lon="0.557667855215953"><ele>41.0</ele><time>2026-04-19T16:43:56.999Z</time></trkpt><trkpt lat="40.71458743006946" lon="0.5574592693236791"><ele>41.0</ele><time>2026-04-19T16:43:57.999Z</time></trkpt><trkpt lat="40.71440549252042" lon="0.5572447050222209"><ele>42.0</ele><time>2026-04-19T16:43:58.999Z</time></trkpt><trkpt lat="40.71421705243337" lon="0.5570322950145679"><ele>43.0</ele><time>2026-04-19T16:43:59.999Z</time></trkpt><trkpt lat="40.71402447133283" lon="0.5568236418809321"><ele>43.0</ele><time>2026-04-19T16:44:00.999Z</time></trkpt><trkpt lat="40.713826889756135" lon="0.5566229437509035"><ele>43.0</ele><time>2026-04-19T16:44:01.999Z</time></trkpt><trkpt lat="40.71363130537874" lon="0.5564185820967297"><ele>42.0</ele><time>2026-04-19T16:44:02.999Z</time></trkpt><trkpt lat="40.71343533710152" lon="0.5562196622878673"><ele>41.0</ele><time>2026-04-19T16:44:03.999Z</time></trkpt><trkpt lat="40.71323353005913" lon="0.5560237911333678"><ele>43.0</ele><time>2026-04-19T16:44:04.999Z</time></trkpt><trkpt lat="40.71302540022457" lon="0.5558284348708122"><ele>45.0</ele><time>2026-04-19T16:44:05.999Z</time></trkpt><trkpt lat="40.7128166836284" lon="0.5556384829245689"><ele>45.0</ele><time>2026-04-19T16:44:06.999Z</time></trkpt><trkpt lat="40.71260391615736" lon="0.5554457636116609"><ele>45.0</ele><time>2026-04-19T16:44:07.999Z</time></trkpt><trkpt lat="40.71239291584516" lon="0.5552634757436671"><ele>48.0</ele><time>2026-04-19T16:44:08.999Z</time></trkpt><trkpt lat="40.712183097965166" lon="0.5550842283724573"><ele>51.0</ele><time>2026-04-19T16:44:09.999Z</time></trkpt><trkpt lat="40.71197592395806" lon="0.5549205254763804"><ele>53.0</ele><time>2026-04-19T16:44:10.999Z</time></trkpt><trkpt lat="40.71176514575761" lon="0.5547554472674506"><ele>55.0</ele><time>2026-04-19T16:44:11.999Z</time></trkpt><trkpt lat="40.71155283660504" lon="0.5545887842675753"><ele>57.5</ele><time>2026-04-19T16:44:12.999Z</time></trkpt><trkpt lat="40.71133627476831" lon="0.5544271569992401"><ele>60.0</ele><time>2026-04-19T16:44:13.999Z</time></trkpt><trkpt lat="40.71111456815321" lon="0.5542671354087356"><ele>60.0</ele><time>2026-04-19T16:44:14.999Z</time></trkpt><trkpt lat="40.71088852747056" lon="0.5541084564880605"><ele>60.0</ele><time>2026-04-19T16:44:15.999Z</time></trkpt><trkpt lat="40.71066456324724" lon="0.5539497343481252"><ele>60.0</ele><time>2026-04-19T16:44:16.999Z</time></trkpt><trkpt lat="40.71043889374098" lon="0.5537924774807208"><ele>60.0</ele><time>2026-04-19T16:44:17.999Z</time></trkpt><trkpt lat="40.71021328392083" lon="0.5536339658934483"><ele>59.5</ele><time>2026-04-19T16:44:18.999Z</time></trkpt><trkpt lat="40.70998956449622" lon="0.5534776359975937"><ele>59.0</ele><time>2026-04-19T16:44:19.999Z</time></trkpt><trkpt lat="40.70976673906996" lon="0.5533159235286279"><ele>59.0</ele><time>2026-04-19T16:44:20.999Z</time></trkpt><trkpt lat="40.709544318182715" lon="0.5531529944251367"><ele>59.0</ele><time>2026-04-19T16:44:21.999Z</time></trkpt><trkpt lat="40.70932419009511" lon="0.5529928166394977"><ele>60.0</ele><time>2026-04-19T16:44:22.999Z</time></trkpt><trkpt lat="40.709104749893264" lon="0.5528250291818142"><ele>61.0</ele><time>2026-04-19T16:44:23.999Z</time></trkpt><trkpt lat="40.70888836621448" lon="0.5526563216196151"><ele>61.0</ele><time>2026-04-19T16:44:24.999Z</time></trkpt><trkpt lat="40.70867534817488" lon="0.5524794069077039"><ele>61.0</ele><time>2026-04-19T16:44:25.998Z</time></trkpt><trkpt lat="40.70846101430834" lon="0.5522938872960532"><ele>61.0</ele><time>2026-04-19T16:44:26.998Z</time></trkpt><trkpt lat="40.70824398880782" lon="0.5521052664563698"><ele>61.0</ele><time>2026-04-19T16:44:27.998Z</time></trkpt><trkpt lat="40.70802323246429" lon="0.551911234692559"><ele>63.0</ele><time>2026-04-19T16:44:28.998Z</time></trkpt><trkpt lat="40.70780259945454" lon="0.5517144233522615"><ele>65.0</ele><time>2026-04-19T16:44:29.998Z</time></trkpt><trkpt lat="40.707584314260046" lon="0.551513098258141"><ele>65.0</ele><time>2026-04-19T16:44:30.998Z</time></trkpt><trkpt lat="40.70737067559845" lon="0.5513026866044112"><ele>65.0</ele><time>2026-04-19T16:44:31.998Z</time></trkpt><trkpt lat="40.707160529168995" lon="0.5510852460271245"><ele>66.5</ele><time>2026-04-19T16:44:32.998Z</time></trkpt><trkpt lat="40.70695291773397" lon="0.5508636664693741"><ele>68.0</ele><time>2026-04-19T16:44:33.998Z</time></trkpt><trkpt lat="40.7067443532739" lon="0.5506416981547579"><ele>68.0</ele><time>2026-04-19T16:44:34.998Z</time></trkpt><trkpt lat="40.706538324254716" lon="0.5504182976754298"><ele>68.0</ele><time>2026-04-19T16:44:35.998Z</time></trkpt><trkpt lat="40.70633494961183" lon="0.5501881097663587"><ele>69.0</ele><time>2026-04-19T16:44:36.998Z</time></trkpt><trkpt lat="40.706135215415046" lon="0.5499501109137523"><ele>70.0</ele><time>2026-04-19T16:44:37.998Z</time></trkpt><trkpt lat="40.70593876544748" lon="0.5497056491916206"><ele>70.5</ele><time>2026-04-19T16:44:38.998Z</time></trkpt><trkpt lat="40.70574426356672" lon="0.5494589669809078"><ele>71.0</ele><time>2026-04-19T16:44:39.998Z</time></trkpt><trkpt lat="40.70555140573715" lon="0.5492095569995036"><ele>71.0</ele><time>2026-04-19T16:44:40.998Z</time></trkpt><trkpt lat="40.70535964269763" lon="0.5489582384029391"><ele>71.0</ele><time>2026-04-19T16:44:41.998Z</time></trkpt><trkpt lat="40.705176375683436" lon="0.5487024434205554"><ele>69.5</ele><time>2026-04-19T16:44:42.998Z</time></trkpt><trkpt lat="40.70498654825241" lon="0.5484503522364146"><ele>68.0</ele><time>2026-04-19T16:44:43.998Z</time></trkpt><trkpt lat="40.70480345271755" lon="0.5482067412119275"><ele>68.0</ele><time>2026-04-19T16:44:44.998Z</time></trkpt><trkpt lat="40.70462461878533" lon="0.5479617400195579"><ele>68.0</ele><time>2026-04-19T16:44:45.998Z</time></trkpt><trkpt lat="40.70445327044415" lon="0.5477324878179307"><ele>67.0</ele><time>2026-04-19T16:44:46.998Z</time></trkpt><trkpt lat="40.7042786455621" lon="0.5474936242459965"><ele>66.0</ele><time>2026-04-19T16:44:47.998Z</time></trkpt><trkpt lat="40.70410393679101" lon="0.5472586511232593"><ele>65.5</ele><time>2026-04-19T16:44:48.998Z</time></trkpt><trkpt lat="40.70392399829811" lon="0.5470204123448761"><ele>65.0</ele><time>2026-04-19T16:44:49.998Z</time></trkpt><trkpt lat="40.703737916146366" lon="0.5467792708673663"><ele>66.5</ele><time>2026-04-19T16:44:50.998Z</time></trkpt><trkpt lat="40.703550786593986" lon="0.5465378716732513"><ele>68.0</ele><time>2026-04-19T16:44:51.998Z</time></trkpt><trkpt lat="40.703363243485434" lon="0.5463043981322633"><ele>68.5</ele><time>2026-04-19T16:44:52.998Z</time></trkpt><trkpt lat="40.703171041025705" lon="0.546076859251908"><ele>69.0</ele><time>2026-04-19T16:44:53.998Z</time></trkpt><trkpt lat="40.702974548703324" lon="0.5458537902855126"><ele>69.0</ele><time>2026-04-19T16:44:54.998Z</time></trkpt><trkpt lat="40.70277973837019" lon="0.5456387585042354"><ele>69.0</ele><time>2026-04-19T16:44:55.998Z</time></trkpt><trkpt lat="40.70258229033071" lon="0.5454251829662337"><ele>70.0</ele><time>2026-04-19T16:44:57Z</time></trkpt><trkpt lat="40.70238370789028" lon="0.5452130436768312"><ele>71.0</ele><time>2026-04-19T16:44:58Z</time></trkpt><trkpt lat="40.70218433829066" lon="0.5450044617836178"><ele>71.0</ele><time>2026-04-19T16:44:59Z</time></trkpt><trkpt lat="40.701980837442306" lon="0.5447982497779236"><ele>71.0</ele><time>2026-04-19T16:45:00Z</time></trkpt><trkpt lat="40.701776323313" lon="0.5445964610505163"><ele>72.5</ele><time>2026-04-19T16:45:01Z</time></trkpt><trkpt lat="40.701568628674686" lon="0.5443986068640901"><ele>74.0</ele><time>2026-04-19T16:45:02Z</time></trkpt><trkpt lat="40.70135984169974" lon="0.5442030290482365"><ele>74.0</ele><time>2026-04-19T16:45:03Z</time></trkpt><trkpt lat="40.7011478727669" lon="0.5440044206174421"><ele>74.0</ele><time>2026-04-19T16:45:04Z</time></trkpt><trkpt lat="40.70093590885639" lon="0.5438022076600499"><ele>75.5</ele><time>2026-04-19T16:45:05Z</time></trkpt><trkpt lat="40.70072721990015" lon="0.5436029495060606"><ele>77.0</ele><time>2026-04-19T16:45:06Z</time></trkpt><trkpt lat="40.700517037163536" lon="0.5434028227081509"><ele>77.0</ele><time>2026-04-19T16:45:07Z</time></trkpt><trkpt lat="40.70030815341809" lon="0.5432067491366263"><ele>77.0</ele><time>2026-04-19T16:45:08Z</time></trkpt><trkpt lat="40.70010144886698" lon="0.5430052678898184"><ele>78.0</ele><time>2026-04-19T16:45:09Z</time></trkpt><trkpt lat="40.6998976083612" lon="0.5428027593323766"><ele>79.0</ele><time>2026-04-19T16:45:10Z</time></trkpt><trkpt lat="40.69969527509057" lon="0.5426013595923553"><ele>79.0</ele><time>2026-04-19T16:45:11Z</time></trkpt><trkpt lat="40.69949738694114" lon="0.5424030282545997"><ele>79.0</ele><time>2026-04-19T16:45:12Z</time></trkpt><trkpt lat="40.69931076049479" lon="0.5422051973192783"><ele>79.5</ele><time>2026-04-19T16:45:13Z</time></trkpt><trkpt lat="40.69913009337197" lon="0.5420080098403057"><ele>80.0</ele><time>2026-04-19T16:45:14Z</time></trkpt><trkpt lat="40.69895376189062" lon="0.5418070837616636"><ele>80.0</ele><time>2026-04-19T16:45:15Z</time></trkpt><trkpt lat="40.698779604691396" lon="0.5416024854063031"><ele>80.0</ele><time>2026-04-19T16:45:16Z</time></trkpt><trkpt lat="40.69860511835687" lon="0.5414000525167704"><ele>80.0</ele><time>2026-04-19T16:45:17Z</time></trkpt><trkpt lat="40.698434517810824" lon="0.5411880950574232"><ele>80.0</ele><time>2026-04-19T16:45:18Z</time></trkpt><trkpt lat="40.698267517130816" lon="0.540971452107753"><ele>80.0</ele><time>2026-04-19T16:45:19Z</time></trkpt><trkpt lat="40.698099954661444" lon="0.5407597066714181"><ele>80.0</ele><time>2026-04-19T16:45:20Z</time></trkpt><trkpt lat="40.69793403059911" lon="0.540542777467089"><ele>81.0</ele><time>2026-04-19T16:45:21Z</time></trkpt><trkpt lat="40.69777185552886" lon="0.5403262696950197"><ele>82.0</ele><time>2026-04-19T16:45:22Z</time></trkpt><trkpt lat="40.69761097973681" lon="0.5401091303640767"><ele>82.0</ele><time>2026-04-19T16:45:23Z</time></trkpt><trkpt lat="40.69745149725839" lon="0.5398865028396059"><ele>82.0</ele><time>2026-04-19T16:45:24Z</time></trkpt><trkpt lat="40.6972919019947" lon="0.5396593496917822"><ele>81.5</ele><time>2026-04-19T16:45:25Z</time></trkpt><trkpt lat="40.69713448788798" lon="0.5394308353882232"><ele>81.0</ele><time>2026-04-19T16:45:26Z</time></trkpt><trkpt lat="40.69698234038666" lon="0.539185408671237"><ele>79.5</ele><time>2026-04-19T16:45:26.999Z</time></trkpt><trkpt lat="40.69682975009267" lon="0.5389359898727472"><ele>78.0</ele><time>2026-04-19T16:45:27.999Z</time></trkpt><trkpt lat="40.69667552316119" lon="0.5386858136724776"><ele>78.0</ele><time>2026-04-19T16:45:28.999Z</time></trkpt><trkpt lat="40.696522708168814" lon="0.5384277916441927"><ele>78.0</ele><time>2026-04-19T16:45:29.999Z</time></trkpt><trkpt lat="40.696367881897174" lon="0.5381673082061307"><ele>78.0</ele><time>2026-04-19T16:45:30.999Z</time></trkpt><trkpt lat="40.696218123980174" lon="0.5379092613429178"><ele>78.0</ele><time>2026-04-19T16:45:31.999Z</time></trkpt><trkpt lat="40.696068480624625" lon="0.5376463908308007"><ele>79.0</ele><time>2026-04-19T16:45:32.999Z</time></trkpt><trkpt lat="40.69592237693782" lon="0.5373805859663715"><ele>80.0</ele><time>2026-04-19T16:45:33.999Z</time></trkpt><trkpt lat="40.695777875310874" lon="0.5371053307002305"><ele>78.5</ele><time>2026-04-19T16:45:34.999Z</time></trkpt><trkpt lat="40.6956341371382" lon="0.5368396647907044"><ele>77.0</ele><time>2026-04-19T16:45:35.999Z</time></trkpt><trkpt lat="40.69549225181532" lon="0.5365720654873308"><ele>77.0</ele><time>2026-04-19T16:45:36.999Z</time></trkpt><trkpt lat="40.69534784216701" lon="0.536296410554384"><ele>77.0</ele><time>2026-04-19T16:45:37.999Z</time></trkpt><trkpt lat="40.695201886494345" lon="0.5360177954751418"><ele>78.5</ele><time>2026-04-19T16:45:38.999Z</time></trkpt><trkpt lat="40.69505385313182" lon="0.5357336956534279"><ele>80.0</ele><time>2026-04-19T16:45:39.999Z</time></trkpt><trkpt lat="40.69490382897399" lon="0.5354462729806309"><ele>79.5</ele><time>2026-04-19T16:45:40.999Z</time></trkpt><trkpt lat="40.69474818102128" lon="0.5351590026672719"><ele>79.0</ele><time>2026-04-19T16:45:41.999Z</time></trkpt><trkpt lat="40.69458883925559" lon="0.5348821554535802"><ele>79.0</ele><time>2026-04-19T16:45:42.999Z</time></trkpt><trkpt lat="40.6944333614166" lon="0.5346050831237908"><ele>79.0</ele><time>2026-04-19T16:45:43.999Z</time></trkpt><trkpt lat="40.694279679281635" lon="0.5343390757151075"><ele>80.0</ele><time>2026-04-19T16:45:44.999Z</time></trkpt><trkpt lat="40.69413232688774" lon="0.5340748533985106"><ele>81.0</ele><time>2026-04-19T16:45:45.999Z</time></trkpt><trkpt lat="40.6939825430432" lon="0.5338151629747312"><ele>82.5</ele><time>2026-04-19T16:45:46.999Z</time></trkpt><trkpt lat="40.693828858200895" lon="0.5335633660441277"><ele>84.0</ele><time>2026-04-19T16:45:47.999Z</time></trkpt><trkpt lat="40.69367035210537" lon="0.533314973167475"><ele>84.0</ele><time>2026-04-19T16:45:48.999Z</time></trkpt><trkpt lat="40.69351126256238" lon="0.5330685540869682"><ele>84.0</ele><time>2026-04-19T16:45:49.999Z</time></trkpt><trkpt lat="40.693348083176836" lon="0.532818353317833"><ele>84.0</ele><time>2026-04-19T16:45:50.999Z</time></trkpt><trkpt lat="40.693177520678475" lon="0.5325639811775668"><ele>84.0</ele><time>2026-04-19T16:45:51.999Z</time></trkpt><trkpt lat="40.693001807135886" lon="0.532316358293911"><ele>84.0</ele><time>2026-04-19T16:45:52.999Z</time></trkpt><trkpt lat="40.69282309297965" lon="0.5320718694881537"><ele>84.0</ele><time>2026-04-19T16:45:53.999Z</time></trkpt><trkpt lat="40.69264080729981" lon="0.5318301148348804"><ele>83.0</ele><time>2026-04-19T16:45:54.999Z</time></trkpt><trkpt lat="40.692453435649945" lon="0.531592501989344"><ele>82.0</ele><time>2026-04-19T16:45:55.999Z</time></trkpt><trkpt lat="40.69226400155437" lon="0.5313596679087338"><ele>82.0</ele><time>2026-04-19T16:45:56.999Z</time></trkpt><trkpt lat="40.69207416531916" lon="0.5311289665653942"><ele>82.0</ele><time>2026-04-19T16:45:57.999Z</time></trkpt><trkpt lat="40.69188599650655" lon="0.5309041130108347"><ele>83.0</ele><time>2026-04-19T16:45:58.999Z</time></trkpt><trkpt lat="40.69169890170103" lon="0.5306801635394222"><ele>84.0</ele><time>2026-04-19T16:45:59.999Z</time></trkpt><trkpt lat="40.69151146556596" lon="0.5304692209622078"><ele>81.5</ele><time>2026-04-19T16:46:00.999Z</time></trkpt><trkpt lat="40.691321695051336" lon="0.5302618882120183"><ele>79.0</ele><time>2026-04-19T16:46:01.999Z</time></trkpt><trkpt lat="40.69113096671715" lon="0.5300555546863644"><ele>80.5</ele><time>2026-04-19T16:46:02.999Z</time></trkpt><trkpt lat="40.690936127070216" lon="0.5298536454196677"><ele>82.0</ele><time>2026-04-19T16:46:03.999Z</time></trkpt><trkpt lat="40.69073329058621" lon="0.5296549854675786"><ele>82.5</ele><time>2026-04-19T16:46:04.999Z</time></trkpt><trkpt lat="40.690529560784576" lon="0.5294565675989603"><ele>83.0</ele><time>2026-04-19T16:46:05.999Z</time></trkpt><trkpt lat="40.6903220603175" lon="0.5292625498874972"><ele>85.0</ele><time>2026-04-19T16:46:06.999Z</time></trkpt><trkpt lat="40.69011592801959" lon="0.5290742295617638"><ele>87.0</ele><time>2026-04-19T16:46:07.999Z</time></trkpt><trkpt lat="40.689907727350445" lon="0.5288883707983651"><ele>88.5</ele><time>2026-04-19T16:46:08.999Z</time></trkpt><trkpt lat="40.68969988892221" lon="0.5287060014079563"><ele>90.0</ele><time>2026-04-19T16:46:09.999Z</time></trkpt><trkpt lat="40.689492123561365" lon="0.5285298654521982"><ele>91.0</ele><time>2026-04-19T16:46:10.999Z</time></trkpt><trkpt lat="40.689280782632395" lon="0.5283613335165006"><ele>92.0</ele><time>2026-04-19T16:46:11.999Z</time></trkpt><trkpt lat="40.68906966552307" lon="0.5281941057680235"><ele>92.0</ele><time>2026-04-19T16:46:12.999Z</time></trkpt><trkpt lat="40.68885710768871" lon="0.5280282902650605"><ele>92.0</ele><time>2026-04-19T16:46:13.999Z</time></trkpt><trkpt lat="40.68864252463053" lon="0.5278690021593596"><ele>90.5</ele><time>2026-04-19T16:46:14.999Z</time></trkpt><trkpt lat="40.68842433823504" lon="0.5277171242106123"><ele>89.0</ele><time>2026-04-19T16:46:15.999Z</time></trkpt><trkpt lat="40.688201276494176" lon="0.5275685637589627"><ele>89.0</ele><time>2026-04-19T16:46:16.999Z</time></trkpt><trkpt lat="40.687978400687726" lon="0.5274240204643884"><ele>89.0</ele><time>2026-04-19T16:46:17.999Z</time></trkpt><trkpt lat="40.68775272368494" lon="0.5272846544126771"><ele>92.0</ele><time>2026-04-19T16:46:18.999Z</time></trkpt><trkpt lat="40.68752735181497" lon="0.5271425808668402"><ele>95.0</ele><time>2026-04-19T16:46:19.999Z</time></trkpt><trkpt lat="40.68729894147846" lon="0.5269997751869164"><ele>95.0</ele><time>2026-04-19T16:46:20.999Z</time></trkpt><trkpt lat="40.6870674265656" lon="0.5268651285580799"><ele>95.0</ele><time>2026-04-19T16:46:21.999Z</time></trkpt><trkpt lat="40.68683801841705" lon="0.5267392397419426"><ele>97.0</ele><time>2026-04-19T16:46:22.999Z</time></trkpt><trkpt lat="40.686615093520224" lon="0.5266164846009155"><ele>99.0</ele><time>2026-04-19T16:46:23.999Z</time></trkpt><trkpt lat="40.686393488154515" lon="0.5264960608766485"><ele>99.0</ele><time>2026-04-19T16:46:24.999Z</time></trkpt><trkpt lat="40.68617061732118" lon="0.5263810869881611"><ele>99.0</ele><time>2026-04-19T16:46:25.999Z</time></trkpt><trkpt lat="40.685944123311636" lon="0.5262678873589164"><ele>98.0</ele><time>2026-04-19T16:46:26.999Z</time></trkpt><trkpt lat="40.68571403902487" lon="0.5261592828924254"><ele>97.0</ele><time>2026-04-19T16:46:27.999Z</time></trkpt><trkpt lat="40.685478780303576" lon="0.5260541709253971"><ele>101.5</ele><time>2026-04-19T16:46:28.999Z</time></trkpt><trkpt lat="40.68523430997776" lon="0.5259477335009661"><ele>106.0</ele><time>2026-04-19T16:46:29.999Z</time></trkpt><trkpt lat="40.684984594181984" lon="0.5258485424264012"><ele>106.0</ele><time>2026-04-19T16:46:30.999Z</time></trkpt><trkpt lat="40.684733119405955" lon="0.5257549066247279"><ele>106.0</ele><time>2026-04-19T16:46:31.999Z</time></trkpt><trkpt lat="40.68448154478872" lon="0.5256622600671828"><ele>108.5</ele><time>2026-04-19T16:46:32.999Z</time></trkpt><trkpt lat="40.68423332972084" lon="0.5255734694761937"><ele>111.0</ele><time>2026-04-19T16:46:33.999Z</time></trkpt><trkpt lat="40.68398547487431" lon="0.525483937406682"><ele>112.5</ele><time>2026-04-19T16:46:34.999Z</time></trkpt><trkpt lat="40.68373842267052" lon="0.5253904344806776"><ele>114.0</ele><time>2026-04-19T16:46:35.999Z</time></trkpt><trkpt lat="40.683487765827834" lon="0.5253011579207334"><ele>118.0</ele><time>2026-04-19T16:46:36.999Z</time></trkpt><trkpt lat="40.68323765979067" lon="0.5252104175844545"><ele>122.0</ele><time>2026-04-19T16:46:37.999Z</time></trkpt><trkpt lat="40.682989660111836" lon="0.5251204886541354"><ele>123.5</ele><time>2026-04-19T16:46:38.999Z</time></trkpt><trkpt lat="40.682745626638955" lon="0.5250329892314171"><ele>125.0</ele><time>2026-04-19T16:46:39.998Z</time></trkpt><trkpt lat="40.682503918955916" lon="0.5249374135662688"><ele>125.0</ele><time>2026-04-19T16:46:40.998Z</time></trkpt><trkpt lat="40.682263293650614" lon="0.5248343105396895"><ele>125.0</ele><time>2026-04-19T16:46:41.998Z</time></trkpt><trkpt lat="40.682022428205805" lon="0.5247280055321497"><ele>127.5</ele><time>2026-04-19T16:46:42.998Z</time></trkpt><trkpt lat="40.68178650192518" lon="0.5246150924264624"><ele>130.0</ele><time>2026-04-19T16:46:43.998Z</time></trkpt><trkpt lat="40.68155168249228" lon="0.5244980977803843"><ele>129.0</ele><time>2026-04-19T16:46:44.998Z</time></trkpt><trkpt lat="40.68132037643707" lon="0.524374841480972"><ele>128.0</ele><time>2026-04-19T16:46:45.998Z</time></trkpt><trkpt lat="40.6810950394957" lon="0.5242498022223063"><ele>128.0</ele><time>2026-04-19T16:46:46.998Z</time></trkpt><trkpt lat="40.68087268114853" lon="0.5241150800041287"><ele>128.0</ele><time>2026-04-19T16:46:47.998Z</time></trkpt><trkpt lat="40.68064949353382" lon="0.523974090261585"><ele>128.0</ele><time>2026-04-19T16:46:48.998Z</time></trkpt><trkpt lat="40.680429914421296" lon="0.523831441737226"><ele>128.0</ele><time>2026-04-19T16:46:49.998Z</time></trkpt><trkpt lat="40.68021065952917" lon="0.5236820373812636"><ele>128.5</ele><time>2026-04-19T16:46:50.998Z</time></trkpt><trkpt lat="40.67999602842684" lon="0.5235265696295909"><ele>129.0</ele><time>2026-04-19T16:46:51.998Z</time></trkpt><trkpt lat="40.679788297676815" lon="0.5233723749921448"><ele>129.0</ele><time>2026-04-19T16:46:52.998Z</time></trkpt><trkpt lat="40.67958319309882" lon="0.5232150153821534"><ele>129.0</ele><time>2026-04-19T16:46:53.998Z</time></trkpt><trkpt lat="40.67938028357796" lon="0.5230486766948569"><ele>128.5</ele><time>2026-04-19T16:46:54.998Z</time></trkpt><trkpt lat="40.67917582434547" lon="0.5228729336005268"><ele>128.0</ele><time>2026-04-19T16:46:55.998Z</time></trkpt><trkpt lat="40.67897044705144" lon="0.5226886275363141"><ele>128.0</ele><time>2026-04-19T16:46:56.998Z</time></trkpt><trkpt lat="40.678760124392596" lon="0.5225007403768326"><ele>128.0</ele><time>2026-04-19T16:46:57.998Z</time></trkpt><trkpt lat="40.67855087686841" lon="0.522305328393056"><ele>126.0</ele><time>2026-04-19T16:46:58.998Z</time></trkpt><trkpt lat="40.67833988919284" lon="0.5221012439719095"><ele>124.0</ele><time>2026-04-19T16:46:59.998Z</time></trkpt><trkpt lat="40.678131980722" lon="0.521892729679438"><ele>124.0</ele><time>2026-04-19T16:47:00.998Z</time></trkpt><trkpt lat="40.67792650957933" lon="0.5216739988490562"><ele>124.0</ele><time>2026-04-19T16:47:01.998Z</time></trkpt><trkpt lat="40.67772331645328" lon="0.5214498740367517"><ele>123.5</ele><time>2026-04-19T16:47:03Z</time></trkpt><trkpt lat="40.677527932678906" lon="0.5212224645911813"><ele>123.0</ele><time>2026-04-19T16:47:04Z</time></trkpt><trkpt lat="40.677338826330484" lon="0.5209972871515902"><ele>123.0</ele><time>2026-04-19T16:47:05Z</time></trkpt><trkpt lat="40.67715545599678" lon="0.5207659776202052"><ele>123.0</ele><time>2026-04-19T16:47:06Z</time></trkpt><trkpt lat="40.67697074351816" lon="0.5205282095971504"><ele>121.0</ele><time>2026-04-19T16:47:07Z</time></trkpt><trkpt lat="40.67678881600658" lon="0.5202855971068038"><ele>119.0</ele><time>2026-04-19T16:47:08Z</time></trkpt><trkpt lat="40.67660782809311" lon="0.5200437639400913"><ele>119.0</ele><time>2026-04-19T16:47:09Z</time></trkpt><trkpt lat="40.676430631014" lon="0.519802722853281"><ele>119.0</ele><time>2026-04-19T16:47:10Z</time></trkpt><trkpt lat="40.67625320531605" lon="0.5195672564580861"><ele>117.5</ele><time>2026-04-19T16:47:11Z</time></trkpt><trkpt lat="40.67607670882686" lon="0.5193348041443847"><ele>116.0</ele><time>2026-04-19T16:47:12Z</time></trkpt><trkpt lat="40.675905134205" lon="0.5191031918533104"><ele>116.0</ele><time>2026-04-19T16:47:13Z</time></trkpt><trkpt lat="40.67573105158352" lon="0.5188702617579651"><ele>116.0</ele><time>2026-04-19T16:47:14Z</time></trkpt><trkpt lat="40.67555162639895" lon="0.5186352828898813"><ele>113.5</ele><time>2026-04-19T16:47:15Z</time></trkpt><trkpt lat="40.67537029886258" lon="0.5184077672353549"><ele>111.0</ele><time>2026-04-19T16:47:16Z</time></trkpt><trkpt lat="40.675184657566604" lon="0.5181848056847036"><ele>111.0</ele><time>2026-04-19T16:47:17Z</time></trkpt><trkpt lat="40.674997831618626" lon="0.5179610468053274"><ele>111.0</ele><time>2026-04-19T16:47:18Z</time></trkpt><trkpt lat="40.67480616311824" lon="0.517741200130926"><ele>109.5</ele><time>2026-04-19T16:47:19Z</time></trkpt><trkpt lat="40.674609286714656" lon="0.5175274086295707"><ele>108.0</ele><time>2026-04-19T16:47:20Z</time></trkpt><trkpt lat="40.6744045784566" lon="0.5173218441002637"><ele>108.0</ele><time>2026-04-19T16:47:21Z</time></trkpt><trkpt lat="40.674196633566176" lon="0.5171128851682054"><ele>108.0</ele><time>2026-04-19T16:47:22Z</time></trkpt><trkpt lat="40.67398945481373" lon="0.5169054919893558"><ele>106.0</ele><time>2026-04-19T16:47:23Z</time></trkpt><trkpt lat="40.673775599203076" lon="0.5167075319502936"><ele>104.0</ele><time>2026-04-19T16:47:24Z</time></trkpt><trkpt lat="40.67355652121892" lon="0.5165144057815553"><ele>104.0</ele><time>2026-04-19T16:47:25Z</time></trkpt><trkpt lat="40.67333269679029" lon="0.5163222786297951"><ele>104.0</ele><time>2026-04-19T16:47:26Z</time></trkpt><trkpt lat="40.673104925476345" lon="0.5161366131853184"><ele>106.0</ele><time>2026-04-19T16:47:27Z</time></trkpt><trkpt lat="40.672871843455646" lon="0.515954224165167"><ele>108.0</ele><time>2026-04-19T16:47:28Z</time></trkpt><trkpt lat="40.672636067415894" lon="0.5157745593887602"><ele>104.0</ele><time>2026-04-19T16:47:29Z</time></trkpt><trkpt lat="40.672398223764546" lon="0.5156114734602971"><ele>100.0</ele><time>2026-04-19T16:47:30Z</time></trkpt><trkpt lat="40.672158077004525" lon="0.5154510431047312"><ele>97.5</ele><time>2026-04-19T16:47:31Z</time></trkpt><trkpt lat="40.67191447268412" lon="0.5152953474034785"><ele>95.0</ele><time>2026-04-19T16:47:32Z</time></trkpt><trkpt lat="40.67167767747011" lon="0.5151529857825342"><ele>95.0</ele><time>2026-04-19T16:47:33Z</time></trkpt><trkpt lat="40.67144338980512" lon="0.5150205671090776"><ele>95.0</ele><time>2026-04-19T16:47:34Z</time></trkpt><trkpt lat="40.67120845645374" lon="0.5148923223719261"><ele>94.0</ele><time>2026-04-19T16:47:35Z</time></trkpt><trkpt lat="40.67096957431129" lon="0.5147622501141099"><ele>93.0</ele><time>2026-04-19T16:47:36Z</time></trkpt><trkpt lat="40.67072816101236" lon="0.5146460217738335"><ele>92.0</ele><time>2026-04-19T16:47:37Z</time></trkpt><trkpt lat="40.6704848205419" lon="0.5145260471380626"><ele>91.0</ele><time>2026-04-19T16:47:38Z</time></trkpt><trkpt lat="40.670240054309" lon="0.5144146831972857"><ele>89.5</ele><time>2026-04-19T16:47:39Z</time></trkpt><trkpt lat="40.669995285226776" lon="0.5143078234379777"><ele>88.0</ele><time>2026-04-19T16:47:40Z</time></trkpt><trkpt lat="40.66974862354554" lon="0.5142139327075813"><ele>88.0</ele><time>2026-04-19T16:47:41Z</time></trkpt><trkpt lat="40.66949977888483" lon="0.5141241379719752"><ele>88.0</ele><time>2026-04-19T16:47:42Z</time></trkpt><trkpt lat="40.66924410472885" lon="0.5140420403125334"><ele>88.0</ele><time>2026-04-19T16:47:43Z</time></trkpt><trkpt lat="40.668989261000654" lon="0.5139652802351011"><ele>88.0</ele><time>2026-04-19T16:47:44Z</time></trkpt><trkpt lat="40.66872795640037" lon="0.5138942876596957"><ele>88.5</ele><time>2026-04-19T16:47:44.999Z</time></trkpt><trkpt lat="40.668469369488776" lon="0.5138226583065305"><ele>89.0</ele><time>2026-04-19T16:47:45.999Z</time></trkpt><trkpt lat="40.66821168622369" lon="0.5137514222909058"><ele>88.5</ele><time>2026-04-19T16:47:46.999Z</time></trkpt><trkpt lat="40.66794926929904" lon="0.5136751485037679"><ele>88.0</ele><time>2026-04-19T16:47:47.999Z</time></trkpt><trkpt lat="40.66769914650171" lon="0.5136109606339752"><ele>88.0</ele><time>2026-04-19T16:47:48.999Z</time></trkpt><trkpt lat="40.667442269797924" lon="0.5135551456293056"><ele>88.0</ele><time>2026-04-19T16:47:49.999Z</time></trkpt><trkpt lat="40.667190499601915" lon="0.5135015224645405"><ele>87.5</ele><time>2026-04-19T16:47:50.999Z</time></trkpt><trkpt lat="40.66694100015782" lon="0.5134435555326125"><ele>87.0</ele><time>2026-04-19T16:47:51.999Z</time></trkpt><trkpt lat="40.66669484152646" lon="0.513375673811703"><ele>87.0</ele><time>2026-04-19T16:47:52.999Z</time></trkpt><trkpt lat="40.66645635808347" lon="0.5133129837582312"><ele>87.0</ele><time>2026-04-19T16:47:53.999Z</time></trkpt><trkpt lat="40.66621783558346" lon="0.5132457071405372"><ele>88.0</ele><time>2026-04-19T16:47:54.999Z</time></trkpt><trkpt lat="40.665979824516455" lon="0.5131764104807673"><ele>89.0</ele><time>2026-04-19T16:47:55.999Z</time></trkpt><trkpt lat="40.66574318543679" lon="0.5131063469305386"><ele>89.0</ele><time>2026-04-19T16:47:56.999Z</time></trkpt><trkpt lat="40.66550947468545" lon="0.513039205259996"><ele>89.0</ele><time>2026-04-19T16:47:57.999Z</time></trkpt><trkpt lat="40.66527112334202" lon="0.5129618149565708"><ele>89.0</ele><time>2026-04-19T16:47:58.999Z</time></trkpt><trkpt lat="40.66503474267928" lon="0.5128830366981856"><ele>89.0</ele><time>2026-04-19T16:47:59.999Z</time></trkpt><trkpt lat="40.664794263285124" lon="0.5127984273619902"><ele>89.0</ele><time>2026-04-19T16:48:00.999Z</time></trkpt><trkpt lat="40.66455624982316" lon="0.5127035956796873"><ele>89.0</ele><time>2026-04-19T16:48:01.999Z</time></trkpt><trkpt lat="40.66431750836741" lon="0.5126077871165936"><ele>90.0</ele><time>2026-04-19T16:48:02.999Z</time></trkpt><trkpt lat="40.664081941561776" lon="0.5125128596352987"><ele>91.0</ele><time>2026-04-19T16:48:03.999Z</time></trkpt><trkpt lat="40.663840428128346" lon="0.5124109673322779"><ele>91.5</ele><time>2026-04-19T16:48:04.999Z</time></trkpt><trkpt lat="40.663599433241345" lon="0.5123102789772583"><ele>92.0</ele><time>2026-04-19T16:48:05.999Z</time></trkpt><trkpt lat="40.66335677547588" lon="0.5122051687440999"><ele>92.0</ele><time>2026-04-19T16:48:06.999Z</time></trkpt><trkpt lat="40.663112952264" lon="0.5120991085230144"><ele>92.0</ele><time>2026-04-19T16:48:07.999Z</time></trkpt><trkpt lat="40.66286881026878" lon="0.5119885361096281"><ele>92.5</ele><time>2026-04-19T16:48:08.999Z</time></trkpt><trkpt lat="40.66262113542098" lon="0.5118752421311993"><ele>93.0</ele><time>2026-04-19T16:48:09.999Z</time></trkpt><trkpt lat="40.662366266627785" lon="0.5117508093662081"><ele>93.0</ele><time>2026-04-19T16:48:10.999Z</time></trkpt><trkpt lat="40.6621157067517" lon="0.5116335485990212"><ele>93.0</ele><time>2026-04-19T16:48:11.999Z</time></trkpt><trkpt lat="40.66186391168842" lon="0.5115222486821667"><ele>93.5</ele><time>2026-04-19T16:48:12.999Z</time></trkpt><trkpt lat="40.66160785996937" lon="0.5114110256843162"><ele>94.0</ele><time>2026-04-19T16:48:13.999Z</time></trkpt><trkpt lat="40.66135429680741" lon="0.5113033198387098"><ele>94.5</ele><time>2026-04-19T16:48:14.999Z</time></trkpt><trkpt lat="40.66109968076287" lon="0.5111965731800644"><ele>95.0</ele><time>2026-04-19T16:48:15.999Z</time></trkpt><trkpt lat="40.66084929785669" lon="0.5110956096978069"><ele>95.0</ele><time>2026-04-19T16:48:16.999Z</time></trkpt><trkpt lat="40.66060399187209" lon="0.5109991788432934"><ele>95.0</ele><time>2026-04-19T16:48:17.999Z</time></trkpt><trkpt lat="40.66036232416496" lon="0.510905730240904"><ele>96.5</ele><time>2026-04-19T16:48:18.999Z</time></trkpt><trkpt lat="40.66012359924276" lon="0.5108161915126639"><ele>98.0</ele><time>2026-04-19T16:48:19.999Z</time></trkpt><trkpt lat="40.659884757851316" lon="0.5107328348806695"><ele>98.0</ele><time>2026-04-19T16:48:20.999Z</time></trkpt><trkpt lat="40.65964807461855" lon="0.5106581383841853"><ele>98.0</ele><time>2026-04-19T16:48:21.999Z</time></trkpt><trkpt lat="40.659407672210754" lon="0.5105818779365678"><ele>98.5</ele><time>2026-04-19T16:48:22.999Z</time></trkpt><trkpt lat="40.65916835105435" lon="0.5105077321814719"><ele>99.0</ele><time>2026-04-19T16:48:23.999Z</time></trkpt><trkpt lat="40.658933056822775" lon="0.5104388422588985"><ele>99.0</ele><time>2026-04-19T16:48:24.999Z</time></trkpt><trkpt lat="40.6586943132478" lon="0.510374812866081"><ele>99.0</ele><time>2026-04-19T16:48:25.999Z</time></trkpt><trkpt lat="40.65845058152546" lon="0.5103082566580768"><ele>99.0</ele><time>2026-04-19T16:48:26.999Z</time></trkpt><trkpt lat="40.65821508797869" lon="0.5102490591222688"><ele>99.0</ele><time>2026-04-19T16:48:27.999Z</time></trkpt><trkpt lat="40.65797573538867" lon="0.5101911124458266"><ele>99.5</ele><time>2026-04-19T16:48:28.999Z</time></trkpt><trkpt lat="40.6577346442362" lon="0.5101353524491856"><ele>100.0</ele><time>2026-04-19T16:48:29.999Z</time></trkpt><trkpt lat="40.65749848031925" lon="0.5100807537355851"><ele>100.0</ele><time>2026-04-19T16:48:30.999Z</time></trkpt><trkpt lat="40.657261532422034" lon="0.5100285518810522"><ele>100.0</ele><time>2026-04-19T16:48:31.999Z</time></trkpt><trkpt lat="40.65702151751225" lon="0.5099711462435126"><ele>100.5</ele><time>2026-04-19T16:48:32.999Z</time></trkpt><trkpt lat="40.65678816840122" lon="0.5099162593072536"><ele>101.0</ele><time>2026-04-19T16:48:33.999Z</time></trkpt><trkpt lat="40.656549877163926" lon="0.5098603848160431"><ele>101.0</ele><time>2026-04-19T16:48:34.999Z</time></trkpt><trkpt lat="40.65631639523096" lon="0.5098076373239641"><ele>101.0</ele><time>2026-04-19T16:48:35.999Z</time></trkpt><trkpt lat="40.65608101462724" lon="0.5097511332366952"><ele>102.0</ele><time>2026-04-19T16:48:36.999Z</time></trkpt><trkpt lat="40.65584610199507" lon="0.5096963108211112"><ele>103.0</ele><time>2026-04-19T16:48:37.999Z</time></trkpt><trkpt lat="40.655613981448376" lon="0.5096421295311289"><ele>103.0</ele><time>2026-04-19T16:48:38.999Z</time></trkpt><trkpt lat="40.65538155314944" lon="0.5095842732082837"><ele>103.0</ele><time>2026-04-19T16:48:39.999Z</time></trkpt><trkpt lat="40.65515349570541" lon="0.5095224783931297"><ele>104.0</ele><time>2026-04-19T16:48:40.999Z</time></trkpt><trkpt lat="40.65492819314037" lon="0.5094576107243552"><ele>105.0</ele><time>2026-04-19T16:48:41.999Z</time></trkpt><trkpt lat="40.65470357487094" lon="0.5093891270117887"><ele>105.0</ele><time>2026-04-19T16:48:42.999Z</time></trkpt><trkpt lat="40.654476254401715" lon="0.5093184621907212"><ele>105.0</ele><time>2026-04-19T16:48:43.999Z</time></trkpt><trkpt lat="40.65424389565825" lon="0.5092401530484383"><ele>105.0</ele><time>2026-04-19T16:48:44.999Z</time></trkpt><trkpt lat="40.654008671535344" lon="0.509157741620905"><ele>105.0</ele><time>2026-04-19T16:48:45.999Z</time></trkpt><trkpt lat="40.65377254518982" lon="0.5090773336888207"><ele>105.0</ele><time>2026-04-19T16:48:46.999Z</time></trkpt><trkpt lat="40.65353215663505" lon="0.508989116604987"><ele>105.0</ele><time>2026-04-19T16:48:47.999Z</time></trkpt><trkpt lat="40.653291496969175" lon="0.5088972745978156"><ele>105.0</ele><time>2026-04-19T16:48:48.999Z</time></trkpt><trkpt lat="40.6530512420067" lon="0.5087994183745528"><ele>105.0</ele><time>2026-04-19T16:48:49.999Z</time></trkpt><trkpt lat="40.65280969586657" lon="0.508696337014492"><ele>106.0</ele><time>2026-04-19T16:48:50.999Z</time></trkpt><trkpt lat="40.65256794008208" lon="0.5085934203360801"><ele>107.0</ele><time>2026-04-19T16:48:51.999Z</time></trkpt><trkpt lat="40.65232706757246" lon="0.5084855026928756"><ele>107.0</ele><time>2026-04-19T16:48:52.999Z</time></trkpt><trkpt lat="40.652087432157316" lon="0.5083760760540917"><ele>107.0</ele><time>2026-04-19T16:48:53.999Z</time></trkpt><trkpt lat="40.65185131668074" lon="0.508261791845115"><ele>109.0</ele><time>2026-04-19T16:48:54.999Z</time></trkpt><trkpt lat="40.651615732059405" lon="0.5081409590767844"><ele>111.0</ele><time>2026-04-19T16:48:55.999Z</time></trkpt><trkpt lat="40.6513801049107" lon="0.5080177175408958"><ele>109.5</ele><time>2026-04-19T16:48:56.999Z</time></trkpt><trkpt lat="40.65114510659736" lon="0.5078907906398834"><ele>108.0</ele><time>2026-04-19T16:48:57.998Z</time></trkpt><trkpt lat="40.650910236290365" lon="0.5077560255182866"><ele>108.0</ele><time>2026-04-19T16:48:58.998Z</time></trkpt><trkpt lat="40.650671285360765" lon="0.5076187063199167"><ele>108.0</ele><time>2026-04-19T16:48:59.998Z</time></trkpt><trkpt lat="40.65043484672497" lon="0.5074822076828625"><ele>109.0</ele><time>2026-04-19T16:49:00.998Z</time></trkpt><trkpt lat="40.65019793447982" lon="0.5073407618809977"><ele>110.0</ele><time>2026-04-19T16:49:01.998Z</time></trkpt><trkpt lat="40.64996121589504" lon="0.5071979630777068"><ele>108.5</ele><time>2026-04-19T16:49:02.998Z</time></trkpt><trkpt lat="40.649727341283125" lon="0.5070541570703891"><ele>107.0</ele><time>2026-04-19T16:49:03.998Z</time></trkpt><trkpt lat="40.64949467578219" lon="0.5069126762493226"><ele>108.5</ele><time>2026-04-19T16:49:04.998Z</time></trkpt><trkpt lat="40.64926174358458" lon="0.506767611561927"><ele>110.0</ele><time>2026-04-19T16:49:05.998Z</time></trkpt><trkpt lat="40.64903005766526" lon="0.5066233351620678"><ele>110.0</ele><time>2026-04-19T16:49:06.998Z</time></trkpt><trkpt lat="40.64880078199498" lon="0.5064838776202777"><ele>110.0</ele><time>2026-04-19T16:49:07.998Z</time></trkpt><trkpt lat="40.64857327425516" lon="0.5063529361027223"><ele>110.5</ele><time>2026-04-19T16:49:09Z</time></trkpt><trkpt lat="40.6483424756242" lon="0.5062175009645453"><ele>111.0</ele><time>2026-04-19T16:49:10Z</time></trkpt><trkpt lat="40.64811599455001" lon="0.5060813321049635"><ele>111.0</ele><time>2026-04-19T16:49:11Z</time></trkpt><trkpt lat="40.647887597200835" lon="0.5059506699588747"><ele>111.0</ele><time>2026-04-19T16:49:12Z</time></trkpt><trkpt lat="40.64766235625922" lon="0.5058164532818263"><ele>112.0</ele><time>2026-04-19T16:49:13Z</time></trkpt><trkpt lat="40.64743813283736" lon="0.5056756302143918"><ele>113.0</ele><time>2026-04-19T16:49:14Z</time></trkpt><trkpt lat="40.647217061118525" lon="0.5055367478993236"><ele>112.5</ele><time>2026-04-19T16:49:15Z</time></trkpt><trkpt lat="40.64698916840577" lon="0.50539796951878"><ele>112.0</ele><time>2026-04-19T16:49:16Z</time></trkpt><trkpt lat="40.64676166052178" lon="0.5052733411766692"><ele>113.0</ele><time>2026-04-19T16:49:17Z</time></trkpt><trkpt lat="40.646530805600776" lon="0.5051451782216022"><ele>114.0</ele><time>2026-04-19T16:49:18Z</time></trkpt><trkpt lat="40.64629690834878" lon="0.5050153044912311"><ele>115.0</ele><time>2026-04-19T16:49:19Z</time></trkpt><trkpt lat="40.64606430004794" lon="0.504888011876386"><ele>116.0</ele><time>2026-04-19T16:49:20Z</time></trkpt><trkpt lat="40.6458264307296" lon="0.5047556018356685"><ele>116.0</ele><time>2026-04-19T16:49:21Z</time></trkpt><trkpt lat="40.64558949705579" lon="0.504622706636196"><ele>116.0</ele><time>2026-04-19T16:49:22Z</time></trkpt><trkpt lat="40.645351799797524" lon="0.5044904691442886"><ele>115.0</ele><time>2026-04-19T16:49:23Z</time></trkpt><trkpt lat="40.64511678984405" lon="0.5043661417362011"><ele>114.0</ele><time>2026-04-19T16:49:24Z</time></trkpt><trkpt lat="40.64487763152455" lon="0.5042470904795902"><ele>114.0</ele><time>2026-04-19T16:49:25Z</time></trkpt><trkpt lat="40.64463733851678" lon="0.5041248821759635"><ele>114.0</ele><time>2026-04-19T16:49:26Z</time></trkpt><trkpt lat="40.64439641983903" lon="0.5040026336815308"><ele>115.0</ele><time>2026-04-19T16:49:27Z</time></trkpt><trkpt lat="40.6441528322938" lon="0.5038847244422137"><ele>116.0</ele><time>2026-04-19T16:49:28Z</time></trkpt><trkpt lat="40.64390774719022" lon="0.5037689773730002"><ele>116.0</ele><time>2026-04-19T16:49:29Z</time></trkpt><trkpt lat="40.64366372141875" lon="0.5036532826626207"><ele>116.0</ele><time>2026-04-19T16:49:30Z</time></trkpt><trkpt lat="40.643422421026" lon="0.5035415596500546"><ele>116.5</ele><time>2026-04-19T16:49:31Z</time></trkpt><trkpt lat="40.64317019854598" lon="0.5034272132266439"><ele>117.0</ele><time>2026-04-19T16:49:32Z</time></trkpt><trkpt lat="40.642926949835775" lon="0.5033107890763264"><ele>116.5</ele><time>2026-04-19T16:49:33Z</time></trkpt><trkpt lat="40.64267584757938" lon="0.5031877513165032"><ele>116.0</ele><time>2026-04-19T16:49:34Z</time></trkpt><trkpt lat="40.642428563660395" lon="0.5030569708055823"><ele>116.0</ele><time>2026-04-19T16:49:35Z</time></trkpt><trkpt lat="40.64217831892788" lon="0.502926575276823"><ele>116.0</ele><time>2026-04-19T16:49:36Z</time></trkpt><trkpt lat="40.64192482617591" lon="0.5028017097013959"><ele>116.5</ele><time>2026-04-19T16:49:37Z</time></trkpt><trkpt lat="40.64167122423991" lon="0.502670187735699"><ele>117.0</ele><time>2026-04-19T16:49:38Z</time></trkpt><trkpt lat="40.641417609021865" lon="0.5025407312411692"><ele>117.0</ele><time>2026-04-19T16:49:39Z</time></trkpt><trkpt lat="40.64116382842416" lon="0.5024143049321843"><ele>117.0</ele><time>2026-04-19T16:49:40Z</time></trkpt><trkpt lat="40.64092048208515" lon="0.5022862525200832"><ele>117.0</ele><time>2026-04-19T16:49:41Z</time></trkpt><trkpt lat="40.640676446294016" lon="0.5021561595177844"><ele>117.0</ele><time>2026-04-19T16:49:42Z</time></trkpt><trkpt lat="40.64042894228537" lon="0.5020282302866877"><ele>117.5</ele><time>2026-04-19T16:49:43Z</time></trkpt><trkpt lat="40.64018406913265" lon="0.5018921632552282"><ele>118.0</ele><time>2026-04-19T16:49:44Z</time></trkpt><trkpt lat="40.63994422362548" lon="0.5017440198405035"><ele>118.0</ele><time>2026-04-19T16:49:45Z</time></trkpt><trkpt lat="40.63970211076028" lon="0.5015971018275425"><ele>118.0</ele><time>2026-04-19T16:49:46Z</time></trkpt><trkpt lat="40.639463284160634" lon="0.5014452532114366"><ele>118.0</ele><time>2026-04-19T16:49:47Z</time></trkpt><trkpt lat="40.63922320730126" lon="0.5012902278436572"><ele>118.0</ele><time>2026-04-19T16:49:48Z</time></trkpt><trkpt lat="40.638986867206334" lon="0.5011272352521029"><ele>117.5</ele><time>2026-04-19T16:49:49Z</time></trkpt><trkpt lat="40.638745312251544" lon="0.5009624788425298"><ele>117.0</ele><time>2026-04-19T16:49:50Z</time></trkpt><trkpt lat="40.638504636667456" lon="0.5008000354521557"><ele>117.0</ele><time>2026-04-19T16:49:51Z</time></trkpt><trkpt lat="40.63826167456844" lon="0.5006354160924472"><ele>117.0</ele><time>2026-04-19T16:49:52Z</time></trkpt><trkpt lat="40.63801443704019" lon="0.5004742775144897"><ele>117.0</ele><time>2026-04-19T16:49:53Z</time></trkpt><trkpt lat="40.63776478018861" lon="0.5003156122249913"><ele>117.0</ele><time>2026-04-19T16:49:54Z</time></trkpt><trkpt lat="40.637516202993446" lon="0.5001469551402442"><ele>117.0</ele><time>2026-04-19T16:49:55Z</time></trkpt><trkpt lat="40.63726595327613" lon="0.49996969388520673"><ele>117.0</ele><time>2026-04-19T16:49:56Z</time></trkpt><trkpt lat="40.63701937176868" lon="0.4997934378410863"><ele>117.5</ele><time>2026-04-19T16:49:57Z</time></trkpt><trkpt lat="40.636778033888255" lon="0.49961486559604296"><ele>118.0</ele><time>2026-04-19T16:49:58Z</time></trkpt><trkpt lat="40.6365414187569" lon="0.4994401888893787"><ele>117.0</ele><time>2026-04-19T16:49:59Z</time></trkpt><trkpt lat="40.636309699017566" lon="0.4992675079686448"><ele>116.0</ele><time>2026-04-19T16:50:00Z</time></trkpt><trkpt lat="40.636077459518724" lon="0.4990917203078656"><ele>115.5</ele><time>2026-04-19T16:50:01Z</time></trkpt><trkpt lat="40.635849023487644" lon="0.49892380176615386"><ele>115.0</ele><time>2026-04-19T16:50:02Z</time></trkpt><trkpt lat="40.635628049591624" lon="0.4987554327196006"><ele>115.0</ele><time>2026-04-19T16:50:03Z</time></trkpt><trkpt lat="40.635410372733155" lon="0.4985862077492259"><ele>115.0</ele><time>2026-04-19T16:50:03.999Z</time></trkpt><trkpt lat="40.63519745819137" lon="0.49841456939216594"><ele>115.5</ele><time>2026-04-19T16:50:04.999Z</time></trkpt><trkpt lat="40.63498198554305" lon="0.4982429104388615"><ele>116.0</ele><time>2026-04-19T16:50:05.999Z</time></trkpt><trkpt lat="40.634765134750154" lon="0.49806927630948156"><ele>115.0</ele><time>2026-04-19T16:50:06.999Z</time></trkpt><trkpt lat="40.63454788484075" lon="0.4978952994137338"><ele>114.0</ele><time>2026-04-19T16:50:07.999Z</time></trkpt><trkpt lat="40.6343323086165" lon="0.4977131335101415"><ele>114.0</ele><time>2026-04-19T16:50:08.999Z</time></trkpt><trkpt lat="40.63411721911263" lon="0.4975292997415086"><ele>114.0</ele><time>2026-04-19T16:50:09.999Z</time></trkpt><trkpt lat="40.63390211652201" lon="0.4973437821769968"><ele>114.0</ele><time>2026-04-19T16:50:10.999Z</time></trkpt><trkpt lat="40.63368634219677" lon="0.4971565797497388"><ele>114.0</ele><time>2026-04-19T16:50:11.999Z</time></trkpt><trkpt lat="40.63346907258789" lon="0.49697170614229336"><ele>114.0</ele><time>2026-04-19T16:50:12.999Z</time></trkpt><trkpt lat="40.63325222917031" lon="0.4967834907616872"><ele>114.0</ele><time>2026-04-19T16:50:13.999Z</time></trkpt><trkpt lat="40.63304388527799" lon="0.49659687961791293"><ele>114.0</ele><time>2026-04-19T16:50:14.999Z</time></trkpt><trkpt lat="40.63284304759661" lon="0.49641798763306333"><ele>114.0</ele><time>2026-04-19T16:50:15.999Z</time></trkpt><trkpt lat="40.632649455974374" lon="0.4962401462536467"><ele>114.5</ele><time>2026-04-19T16:50:16.999Z</time></trkpt><trkpt lat="40.6324606469551" lon="0.4960627411340983"><ele>115.0</ele><time>2026-04-19T16:50:17.999Z</time></trkpt><trkpt lat="40.632272025768906" lon="0.49588521583132106"><ele>115.0</ele><time>2026-04-19T16:50:18.999Z</time></trkpt><trkpt lat="40.63208753060207" lon="0.4957063819900602"><ele>115.0</ele><time>2026-04-19T16:50:19.999Z</time></trkpt><trkpt lat="40.63189881984766" lon="0.49553027224175955"><ele>114.5</ele><time>2026-04-19T16:50:20.999Z</time></trkpt><trkpt lat="40.63171100684253" lon="0.4953543565910272"><ele>114.0</ele><time>2026-04-19T16:50:21.999Z</time></trkpt><trkpt lat="40.63152735196343" lon="0.49517070237235145"><ele>114.0</ele><time>2026-04-19T16:50:22.999Z</time></trkpt><trkpt lat="40.63134501162715" lon="0.49498839706629066"><ele>114.0</ele><time>2026-04-19T16:50:23.999Z</time></trkpt><trkpt lat="40.63116452851119" lon="0.49480169824400855"><ele>114.5</ele><time>2026-04-19T16:50:24.999Z</time></trkpt><trkpt lat="40.63098337928406" lon="0.49461895538413225"><ele>115.0</ele><time>2026-04-19T16:50:25.999Z</time></trkpt><trkpt lat="40.63080055462573" lon="0.4944391039782011"><ele>115.0</ele><time>2026-04-19T16:50:26.999Z</time></trkpt><trkpt lat="40.6306160923733" lon="0.4942552403952454"><ele>115.0</ele><time>2026-04-19T16:50:27.999Z</time></trkpt><trkpt lat="40.63042760234772" lon="0.49406313783535094"><ele>115.0</ele><time>2026-04-19T16:50:28.999Z</time></trkpt><trkpt lat="40.63024147238597" lon="0.4938669475802499"><ele>115.0</ele><time>2026-04-19T16:50:29.999Z</time></trkpt><trkpt lat="40.63005692741533" lon="0.49367397089475806"><ele>116.0</ele><time>2026-04-19T16:50:30.999Z</time></trkpt><trkpt lat="40.62987246311437" lon="0.49348769852118907"><ele>117.0</ele><time>2026-04-19T16:50:31.999Z</time></trkpt><trkpt lat="40.62968661177286" lon="0.4933040939239898"><ele>117.0</ele><time>2026-04-19T16:50:32.999Z</time></trkpt><trkpt lat="40.62949757896205" lon="0.49312518205528594"><ele>117.0</ele><time>2026-04-19T16:50:33.999Z</time></trkpt><trkpt lat="40.62930640775396" lon="0.4929439662137233"><ele>116.0</ele><time>2026-04-19T16:50:34.999Z</time></trkpt><trkpt lat="40.62911477936155" lon="0.49276134130668453"><ele>115.0</ele><time>2026-04-19T16:50:35.999Z</time></trkpt><trkpt lat="40.628922620624515" lon="0.4925813825826954"><ele>115.0</ele><time>2026-04-19T16:50:36.999Z</time></trkpt><trkpt lat="40.628733306491185" lon="0.4924007547419258"><ele>115.0</ele><time>2026-04-19T16:50:37.999Z</time></trkpt><trkpt lat="40.62854263118549" lon="0.49222236584738455"><ele>115.5</ele><time>2026-04-19T16:50:38.999Z</time></trkpt><trkpt lat="40.62835142565269" lon="0.4920504624326465"><ele>116.0</ele><time>2026-04-19T16:50:39.999Z</time></trkpt><trkpt lat="40.628155032896295" lon="0.49187981020890986"><ele>116.0</ele><time>2026-04-19T16:50:40.999Z</time></trkpt><trkpt lat="40.62796001127255" lon="0.49170421456250496"><ele>116.0</ele><time>2026-04-19T16:50:41.999Z</time></trkpt><trkpt lat="40.62776707113552" lon="0.4915322123650457"><ele>118.5</ele><time>2026-04-19T16:50:42.999Z</time></trkpt><trkpt lat="40.62757480484205" lon="0.49136843356551774"><ele>121.0</ele><time>2026-04-19T16:50:43.999Z</time></trkpt><trkpt lat="40.627384116377485" lon="0.49120744137182354"><ele>121.0</ele><time>2026-04-19T16:50:44.999Z</time></trkpt><trkpt lat="40.62719812506141" lon="0.4910561395510783"><ele>121.0</ele><time>2026-04-19T16:50:45.999Z</time></trkpt><trkpt lat="40.627007988904396" lon="0.4909064026966323"><ele>121.0</ele><time>2026-04-19T16:50:46.999Z</time></trkpt><trkpt lat="40.62681440785954" lon="0.4907477174116178"><ele>121.0</ele><time>2026-04-19T16:50:47.999Z</time></trkpt><trkpt lat="40.62662384770948" lon="0.49058672016486915"><ele>121.0</ele><time>2026-04-19T16:50:48.999Z</time></trkpt><trkpt lat="40.626433750517" lon="0.49042228809072713"><ele>121.0</ele><time>2026-04-19T16:50:49.999Z</time></trkpt><trkpt lat="40.62623875600756" lon="0.49026407313870557"><ele>121.0</ele><time>2026-04-19T16:50:50.999Z</time></trkpt><trkpt lat="40.626034667747774" lon="0.49010356414561734"><ele>122.0</ele><time>2026-04-19T16:50:51.999Z</time></trkpt><trkpt lat="40.62582775912839" lon="0.4899409610839492"><ele>123.0</ele><time>2026-04-19T16:50:52.999Z</time></trkpt><trkpt lat="40.62561772591059" lon="0.489778567850833"><ele>123.0</ele><time>2026-04-19T16:50:53.999Z</time></trkpt><trkpt lat="40.62540430879214" lon="0.48961456188986135"><ele>123.0</ele><time>2026-04-19T16:50:54.999Z</time></trkpt><trkpt lat="40.62518919160039" lon="0.48944689605012726"><ele>123.5</ele><time>2026-04-19T16:50:55.999Z</time></trkpt><trkpt lat="40.62497098336976" lon="0.4892763145883521"><ele>124.0</ele><time>2026-04-19T16:50:56.999Z</time></trkpt><trkpt lat="40.62474761294134" lon="0.4890905413846737"><ele>124.0</ele><time>2026-04-19T16:50:57.999Z</time></trkpt><trkpt lat="40.624553146886974" lon="0.48896393586119863"><ele>124.0</ele><time>2026-04-19T16:50:58.999Z</time></trkpt><trkpt lat="40.62434230631297" lon="0.48877986987259875"><ele>125.5</ele><time>2026-04-19T16:50:59.999Z</time></trkpt><trkpt lat="40.624140645532776" lon="0.4886075285859749"><ele>127.0</ele><time>2026-04-19T16:51:00.999Z</time></trkpt><trkpt lat="40.623938468886" lon="0.48843663749861627"><ele>127.0</ele><time>2026-04-19T16:51:01.999Z</time></trkpt><trkpt lat="40.6237498780985" lon="0.48826776705770025"><ele>127.0</ele><time>2026-04-19T16:51:02.999Z</time></trkpt><trkpt lat="40.62356318577994" lon="0.48811144787235106"><ele>127.0</ele><time>2026-04-19T16:51:03.999Z</time></trkpt><trkpt lat="40.62337346472021" lon="0.4879581248207698"><ele>128.0</ele><time>2026-04-19T16:51:04.999Z</time></trkpt><trkpt lat="40.62318369348592" lon="0.4877994414607951"><ele>129.0</ele><time>2026-04-19T16:51:05.999Z</time></trkpt><trkpt lat="40.622992064133" lon="0.48763224309444547"><ele>129.5</ele><time>2026-04-19T16:51:06.999Z</time></trkpt><trkpt lat="40.62279886924047" lon="0.48745993149423794"><ele>130.0</ele><time>2026-04-19T16:51:07.999Z</time></trkpt><trkpt lat="40.622604882937246" lon="0.4872840168186045"><ele>130.0</ele><time>2026-04-19T16:51:08.999Z</time></trkpt><trkpt lat="40.622411764127655" lon="0.48711397219767605"><ele>130.0</ele><time>2026-04-19T16:51:09.999Z</time></trkpt><trkpt lat="40.62221468344355" lon="0.4869311088863739"><ele>131.5</ele><time>2026-04-19T16:51:10.999Z</time></trkpt><trkpt lat="40.62201793346317" lon="0.4867527430293388"><ele>133.0</ele><time>2026-04-19T16:51:11.999Z</time></trkpt><trkpt lat="40.62181642443461" lon="0.48656956553972563"><ele>134.0</ele><time>2026-04-19T16:51:12.999Z</time></trkpt><trkpt lat="40.62161514778799" lon="0.486384596506874"><ele>135.0</ele><time>2026-04-19T16:51:13.999Z</time></trkpt><trkpt lat="40.621408989683275" lon="0.486186203873996"><ele>135.0</ele><time>2026-04-19T16:51:15Z</time></trkpt><trkpt lat="40.62120359599411" lon="0.48598556957318"><ele>135.0</ele><time>2026-04-19T16:51:16Z</time></trkpt><trkpt lat="40.620996283365784" lon="0.48577878326220175"><ele>135.0</ele><time>2026-04-19T16:51:17Z</time></trkpt><trkpt lat="40.62079039190238" lon="0.4855680914925594"><ele>135.0</ele><time>2026-04-19T16:51:18Z</time></trkpt><trkpt lat="40.62057871297548" lon="0.4853573729923949"><ele>135.0</ele><time>2026-04-19T16:51:19Z</time></trkpt><trkpt lat="40.62036571535801" lon="0.48514051259106616"><ele>135.0</ele><time>2026-04-19T16:51:20Z</time></trkpt><trkpt lat="40.620155756595146" lon="0.4849151230718081"><ele>135.5</ele><time>2026-04-19T16:51:21Z</time></trkpt><trkpt lat="40.619939982886905" lon="0.4846894198334439"><ele>136.0</ele><time>2026-04-19T16:51:22Z</time></trkpt><trkpt lat="40.61973007146736" lon="0.4844676789390888"><ele>136.5</ele><time>2026-04-19T16:51:23Z</time></trkpt><trkpt lat="40.6195198022666" lon="0.4842464879920586"><ele>137.0</ele><time>2026-04-19T16:51:24Z</time></trkpt><trkpt lat="40.61931335902316" lon="0.4840205699089429"><ele>138.0</ele><time>2026-04-19T16:51:25Z</time></trkpt><trkpt lat="40.61910832228263" lon="0.483796725544225"><ele>139.0</ele><time>2026-04-19T16:51:26Z</time></trkpt><trkpt lat="40.618901893067665" lon="0.48357854763509667"><ele>139.0</ele><time>2026-04-19T16:51:27Z</time></trkpt><trkpt lat="40.6186948033479" lon="0.4833742920352241"><ele>139.0</ele><time>2026-04-19T16:51:28Z</time></trkpt><trkpt lat="40.618485618793756" lon="0.48316975873612444"><ele>139.5</ele><time>2026-04-19T16:51:29Z</time></trkpt><trkpt lat="40.61828461697986" lon="0.48296769050829647"><ele>140.0</ele><time>2026-04-19T16:51:30Z</time></trkpt><trkpt lat="40.61808910059823" lon="0.4827714517864263"><ele>140.0</ele><time>2026-04-19T16:51:31Z</time></trkpt><trkpt lat="40.61789499601522" lon="0.4825759031393887"><ele>140.0</ele><time>2026-04-19T16:51:32Z</time></trkpt><trkpt lat="40.617699045483185" lon="0.48239546729907695"><ele>140.0</ele><time>2026-04-19T16:51:33Z</time></trkpt><trkpt lat="40.617495293980106" lon="0.4822066358326348"><ele>140.0</ele><time>2026-04-19T16:51:34Z</time></trkpt><trkpt lat="40.61729479476644" lon="0.48201895607730216"><ele>140.0</ele><time>2026-04-19T16:51:35Z</time></trkpt><trkpt lat="40.61709596878017" lon="0.48183230861628146"><ele>140.0</ele><time>2026-04-19T16:51:36Z</time></trkpt><trkpt lat="40.61689377795659" lon="0.48164407579060126"><ele>140.5</ele><time>2026-04-19T16:51:37Z</time></trkpt><trkpt lat="40.616690393980306" lon="0.48145952404184805"><ele>141.0</ele><time>2026-04-19T16:51:38Z</time></trkpt><trkpt lat="40.61648434177229" lon="0.4812770060987145"><ele>141.0</ele><time>2026-04-19T16:51:39Z</time></trkpt><trkpt lat="40.61627915809311" lon="0.48109914663085657"><ele>141.0</ele><time>2026-04-19T16:51:40Z</time></trkpt><trkpt lat="40.616073381399666" lon="0.48092468062441496"><ele>142.0</ele><time>2026-04-19T16:51:41Z</time></trkpt><trkpt lat="40.615870352571854" lon="0.48074195846698764"><ele>143.0</ele><time>2026-04-19T16:51:42Z</time></trkpt><trkpt lat="40.61566631439852" lon="0.48056036022483484"><ele>143.0</ele><time>2026-04-19T16:51:43Z</time></trkpt><trkpt lat="40.61545453376894" lon="0.4803854716256673"><ele>143.0</ele><time>2026-04-19T16:51:44Z</time></trkpt><trkpt lat="40.61523930292757" lon="0.4802090890099103"><ele>143.0</ele><time>2026-04-19T16:51:45Z</time></trkpt><trkpt lat="40.61502391554821" lon="0.48003008861633706"><ele>143.0</ele><time>2026-04-19T16:51:46Z</time></trkpt><trkpt lat="40.61480712391686" lon="0.4798515626875175"><ele>143.0</ele><time>2026-04-19T16:51:47Z</time></trkpt><trkpt lat="40.61459071036599" lon="0.47967776825935676"><ele>143.0</ele><time>2026-04-19T16:51:48Z</time></trkpt><trkpt lat="40.61437650364475" lon="0.47950618454832866"><ele>143.0</ele><time>2026-04-19T16:51:49Z</time></trkpt><trkpt lat="40.61416121459644" lon="0.4793379141326433"><ele>143.0</ele><time>2026-04-19T16:51:50Z</time></trkpt><trkpt lat="40.61394375540389" lon="0.4791659216027173"><ele>143.0</ele><time>2026-04-19T16:51:51Z</time></trkpt><trkpt lat="40.6137133541912" lon="0.4790034037167299"><ele>143.0</ele><time>2026-04-19T16:51:52Z</time></trkpt><trkpt lat="40.613498399803795" lon="0.47883310737568846"><ele>143.5</ele><time>2026-04-19T16:51:53Z</time></trkpt><trkpt lat="40.613273531798846" lon="0.4786662148686942"><ele>144.0</ele><time>2026-04-19T16:51:54Z</time></trkpt><trkpt lat="40.61304505750453" lon="0.4784998871732845"><ele>144.5</ele><time>2026-04-19T16:51:55Z</time></trkpt><trkpt lat="40.61281702783794" lon="0.4783330812191629"><ele>145.0</ele><time>2026-04-19T16:51:56Z</time></trkpt><trkpt lat="40.61258479926306" lon="0.47816972400927915"><ele>145.0</ele><time>2026-04-19T16:51:57Z</time></trkpt><trkpt lat="40.612352034921344" lon="0.4780031119777621"><ele>145.0</ele><time>2026-04-19T16:51:58Z</time></trkpt><trkpt lat="40.61212856915004" lon="0.4778374986270267"><ele>144.5</ele><time>2026-04-19T16:51:59Z</time></trkpt><trkpt lat="40.611899260524844" lon="0.4776911486456073"><ele>144.0</ele><time>2026-04-19T16:52:00Z</time></trkpt><trkpt lat="40.611673669416" lon="0.47753655361037817"><ele>144.0</ele><time>2026-04-19T16:52:01Z</time></trkpt><trkpt lat="40.61145097892778" lon="0.4773833694835665"><ele>144.0</ele><time>2026-04-19T16:52:02Z</time></trkpt><trkpt lat="40.611224400169284" lon="0.47724270634115923"><ele>142.5</ele><time>2026-04-19T16:52:03Z</time></trkpt><trkpt lat="40.61099552389509" lon="0.477095446230557"><ele>141.0</ele><time>2026-04-19T16:52:04Z</time></trkpt><trkpt lat="40.610769998341695" lon="0.47693780363008254"><ele>141.0</ele><time>2026-04-19T16:52:05Z</time></trkpt><trkpt lat="40.61053796392779" lon="0.4767929641197189"><ele>141.0</ele><time>2026-04-19T16:52:06Z</time></trkpt><trkpt lat="40.610303172145066" lon="0.4766478203225385"><ele>141.0</ele><time>2026-04-19T16:52:06.999Z</time></trkpt><trkpt lat="40.6100680752503" lon="0.4765020044959722"><ele>141.0</ele><time>2026-04-19T16:52:07.999Z</time></trkpt><trkpt lat="40.60982873682344" lon="0.47636051648885064"><ele>141.0</ele><time>2026-04-19T16:52:08.999Z</time></trkpt><trkpt lat="40.60959721001313" lon="0.4762159560009872"><ele>141.0</ele><time>2026-04-19T16:52:09.999Z</time></trkpt><trkpt lat="40.60936247885157" lon="0.47607759905624963"><ele>142.0</ele><time>2026-04-19T16:52:10.999Z</time></trkpt><trkpt lat="40.60912107528935" lon="0.4759415884681866"><ele>143.0</ele><time>2026-04-19T16:52:11.999Z</time></trkpt><trkpt lat="40.60888425572107" lon="0.4758101433391718"><ele>142.0</ele><time>2026-04-19T16:52:12.999Z</time></trkpt><trkpt lat="40.60864557470549" lon="0.47567842281688155"><ele>141.0</ele><time>2026-04-19T16:52:13.999Z</time></trkpt><trkpt lat="40.608406987718716" lon="0.47554483399025205"><ele>140.5</ele><time>2026-04-19T16:52:14.999Z</time></trkpt><trkpt lat="40.60816804513002" lon="0.4754147163965754"><ele>140.0</ele><time>2026-04-19T16:52:15.999Z</time></trkpt><trkpt lat="40.607927349097814" lon="0.47528571964641203"><ele>139.5</ele><time>2026-04-19T16:52:16.999Z</time></trkpt><trkpt lat="40.60768457482537" lon="0.4751597181640512"><ele>139.0</ele><time>2026-04-19T16:52:17.999Z</time></trkpt><trkpt lat="40.60743796782901" lon="0.4750332156739843"><ele>139.0</ele><time>2026-04-19T16:52:18.999Z</time></trkpt><trkpt lat="40.60718892962993" lon="0.47490812965395"><ele>139.0</ele><time>2026-04-19T16:52:19.999Z</time></trkpt><trkpt lat="40.606942709738284" lon="0.47478302527727706"><ele>139.0</ele><time>2026-04-19T16:52:20.999Z</time></trkpt><trkpt lat="40.60669950756374" lon="0.47466791904444283"><ele>139.0</ele><time>2026-04-19T16:52:21.999Z</time></trkpt><trkpt lat="40.606456542864045" lon="0.4745481321347099"><ele>138.5</ele><time>2026-04-19T16:52:22.999Z</time></trkpt><trkpt lat="40.60621093792651" lon="0.4744303809473877"><ele>138.0</ele><time>2026-04-19T16:52:23.999Z</time></trkpt><trkpt lat="40.60597242479187" lon="0.47432060092624145"><ele>138.0</ele><time>2026-04-19T16:52:24.999Z</time></trkpt><trkpt lat="40.60573797272146" lon="0.47420924343221155"><ele>138.0</ele><time>2026-04-19T16:52:25.999Z</time></trkpt><trkpt lat="40.60550103809967" lon="0.47410049254384545"><ele>139.0</ele><time>2026-04-19T16:52:26.999Z</time></trkpt><trkpt lat="40.60526234035596" lon="0.4739914643967413"><ele>140.0</ele><time>2026-04-19T16:52:27.999Z</time></trkpt><trkpt lat="40.60502320018159" lon="0.47388896563286237"><ele>140.0</ele><time>2026-04-19T16:52:28.999Z</time></trkpt><trkpt lat="40.60478401695636" lon="0.47378618591929733"><ele>140.0</ele><time>2026-04-19T16:52:29.999Z</time></trkpt><trkpt lat="40.6045425434124" lon="0.4736838572580859"><ele>139.5</ele><time>2026-04-19T16:52:30.999Z</time></trkpt><trkpt lat="40.6042975268684" lon="0.47357803703129486"><ele>139.0</ele><time>2026-04-19T16:52:31.999Z</time></trkpt><trkpt lat="40.60405243977875" lon="0.4734700873027263"><ele>139.0</ele><time>2026-04-19T16:52:32.999Z</time></trkpt><trkpt lat="40.603806555540245" lon="0.4733654970186763"><ele>139.0</ele><time>2026-04-19T16:52:33.999Z</time></trkpt><trkpt lat="40.60356222668785" lon="0.4732628184089201"><ele>139.0</ele><time>2026-04-19T16:52:34.999Z</time></trkpt><trkpt lat="40.60331486052244" lon="0.47316329222181863"><ele>139.0</ele><time>2026-04-19T16:52:35.999Z</time></trkpt><trkpt lat="40.60307073269116" lon="0.4730596949660093"><ele>138.0</ele><time>2026-04-19T16:52:36.999Z</time></trkpt><trkpt lat="40.60282407705882" lon="0.47296179446862635"><ele>137.0</ele><time>2026-04-19T16:52:37.999Z</time></trkpt><trkpt lat="40.60258041018108" lon="0.47286345574718747"><ele>137.0</ele><time>2026-04-19T16:52:38.999Z</time></trkpt><trkpt lat="40.602336457468176" lon="0.47276503430752187"><ele>137.0</ele><time>2026-04-19T16:52:39.999Z</time></trkpt><trkpt lat="40.602100154845445" lon="0.47265979729019314"><ele>136.5</ele><time>2026-04-19T16:52:40.999Z</time></trkpt><trkpt lat="40.60186997069716" lon="0.47255761614542013"><ele>136.0</ele><time>2026-04-19T16:52:41.999Z</time></trkpt><trkpt lat="40.60163463646979" lon="0.4724581795097123"><ele>136.0</ele><time>2026-04-19T16:52:42.999Z</time></trkpt><trkpt lat="40.60140196238873" lon="0.4723589593145893"><ele>136.0</ele><time>2026-04-19T16:52:43.999Z</time></trkpt><trkpt lat="40.60117484399188" lon="0.47225927202844636"><ele>136.5</ele><time>2026-04-19T16:52:44.999Z</time></trkpt><trkpt lat="40.600943243517236" lon="0.47215863339330916"><ele>137.0</ele><time>2026-04-19T16:52:45.999Z</time></trkpt><trkpt lat="40.6006995759722" lon="0.4720446592971029"><ele>137.0</ele><time>2026-04-19T16:52:46.999Z</time></trkpt><trkpt lat="40.600457347093844" lon="0.4719298168457963"><ele>137.0</ele><time>2026-04-19T16:52:47.999Z</time></trkpt><trkpt lat="40.60020970900278" lon="0.4718155853952189"><ele>137.5</ele><time>2026-04-19T16:52:48.999Z</time></trkpt><trkpt lat="40.5999649317713" lon="0.47170175438090817"><ele>138.0</ele><time>2026-04-19T16:52:49.999Z</time></trkpt><trkpt lat="40.59971883397849" lon="0.4715844520668786"><ele>137.5</ele><time>2026-04-19T16:52:50.999Z</time></trkpt><trkpt lat="40.599483000890594" lon="0.47146835636756923"><ele>137.0</ele><time>2026-04-19T16:52:51.999Z</time></trkpt><trkpt lat="40.599247253519145" lon="0.47134473040083996"><ele>136.0</ele><time>2026-04-19T16:52:52.999Z</time></trkpt><trkpt lat="40.599012894126524" lon="0.47121943220829404"><ele>135.0</ele><time>2026-04-19T16:52:53.999Z</time></trkpt><trkpt lat="40.59877827448462" lon="0.4710872962422605"><ele>135.0</ele><time>2026-04-19T16:52:54.999Z</time></trkpt><trkpt lat="40.598545175176945" lon="0.4709567292977407"><ele>135.0</ele><time>2026-04-19T16:52:55.999Z</time></trkpt><trkpt lat="40.598312916103716" lon="0.4708242775970193"><ele>135.0</ele><time>2026-04-19T16:52:56.999Z</time></trkpt><trkpt lat="40.59807808615101" lon="0.470687398729208"><ele>135.0</ele><time>2026-04-19T16:52:57.999Z</time></trkpt><trkpt lat="40.597843454025956" lon="0.4705526898953939"><ele>133.5</ele><time>2026-04-19T16:52:58.999Z</time></trkpt><trkpt lat="40.59760927761382" lon="0.47041427491499155"><ele>132.0</ele><time>2026-04-19T16:52:59.999Z</time></trkpt><trkpt lat="40.59737456118972" lon="0.47026876055038463"><ele>132.0</ele><time>2026-04-19T16:53:00.999Z</time></trkpt><trkpt lat="40.59714114573908" lon="0.4701211419939671"><ele>132.0</ele><time>2026-04-19T16:53:01.999Z</time></trkpt><trkpt lat="40.59691112915989" lon="0.4699685985445954"><ele>133.0</ele><time>2026-04-19T16:53:02.999Z</time></trkpt><trkpt lat="40.59667510896897" lon="0.46981208166980076"><ele>134.0</ele><time>2026-04-19T16:53:03.999Z</time></trkpt><trkpt lat="40.59644915882338" lon="0.46965764320549647"><ele>133.5</ele><time>2026-04-19T16:53:04.999Z</time></trkpt><trkpt lat="40.5962267276204" lon="0.46950813622978393"><ele>133.0</ele><time>2026-04-19T16:53:05.999Z</time></trkpt><trkpt lat="40.59600778450105" lon="0.4693558489937232"><ele>133.0</ele><time>2026-04-19T16:53:06.999Z</time></trkpt><trkpt lat="40.59578778073572" lon="0.46919671307950456"><ele>133.0</ele><time>2026-04-19T16:53:07.999Z</time></trkpt><trkpt lat="40.59556838283407" lon="0.46903749894598007"><ele>133.0</ele><time>2026-04-19T16:53:08.999Z</time></trkpt><trkpt lat="40.59535055079" lon="0.4688775980863503"><ele>133.0</ele><time>2026-04-19T16:53:09.999Z</time></trkpt><trkpt lat="40.59513363555494" lon="0.4687101796042531"><ele>133.0</ele><time>2026-04-19T16:53:10.999Z</time></trkpt><trkpt lat="40.594917037719" lon="0.4685429108607008"><ele>133.0</ele><time>2026-04-19T16:53:11.999Z</time></trkpt><trkpt lat="40.59470675649013" lon="0.46838129212192464"><ele>134.0</ele><time>2026-04-19T16:53:12.999Z</time></trkpt><trkpt lat="40.59450015609909" lon="0.4682174814511094"><ele>135.0</ele><time>2026-04-19T16:53:13.999Z</time></trkpt><trkpt lat="40.59429594858957" lon="0.4680500608226031"><ele>134.0</ele><time>2026-04-19T16:53:14.998Z</time></trkpt><trkpt lat="40.59408548641553" lon="0.46787883557283294"><ele>133.0</ele><time>2026-04-19T16:53:15.998Z</time></trkpt><trkpt lat="40.59387406205276" lon="0.4677015885575044"><ele>133.5</ele><time>2026-04-19T16:53:16.998Z</time></trkpt><trkpt lat="40.593663057423875" lon="0.4675185424846685"><ele>134.0</ele><time>2026-04-19T16:53:17.998Z</time></trkpt><trkpt lat="40.59345163729804" lon="0.46733183905280945"><ele>134.0</ele><time>2026-04-19T16:53:18.998Z</time></trkpt><trkpt lat="40.59324069240285" lon="0.4671426562370386"><ele>134.0</ele><time>2026-04-19T16:53:19.998Z</time></trkpt><trkpt lat="40.59302753911927" lon="0.4669510530728016"><ele>132.5</ele><time>2026-04-19T16:53:21Z</time></trkpt><trkpt lat="40.59281793225453" lon="0.4667596500616577"><ele>131.0</ele><time>2026-04-19T16:53:22Z</time></trkpt><trkpt lat="40.59261077873934" lon="0.4665669182143313"><ele>131.0</ele><time>2026-04-19T16:53:23Z</time></trkpt><trkpt lat="40.59240823975391" lon="0.46637465864543903"><ele>131.0</ele><time>2026-04-19T16:53:24Z</time></trkpt><trkpt lat="40.5922093392309" lon="0.4661797457922785"><ele>131.5</ele><time>2026-04-19T16:53:25Z</time></trkpt><trkpt lat="40.59201707489417" lon="0.4659916577361617"><ele>132.0</ele><time>2026-04-19T16:53:26Z</time></trkpt><trkpt lat="40.59182221663607" lon="0.4657958703165591"><ele>132.0</ele><time>2026-04-19T16:53:27Z</time></trkpt><trkpt lat="40.59162753938577" lon="0.4655986088184823"><ele>132.0</ele><time>2026-04-19T16:53:28Z</time></trkpt><trkpt lat="40.59143435908461" lon="0.46539983382045275"><ele>132.5</ele><time>2026-04-19T16:53:29Z</time></trkpt><trkpt lat="40.59124130773132" lon="0.4651974849314512"><ele>133.0</ele><time>2026-04-19T16:53:30Z</time></trkpt><trkpt lat="40.59104772028592" lon="0.46499129842122605"><ele>133.0</ele><time>2026-04-19T16:53:31Z</time></trkpt><trkpt lat="40.59085595657161" lon="0.46478437073746903"><ele>133.0</ele><time>2026-04-19T16:53:32Z</time></trkpt><trkpt lat="40.590669916809425" lon="0.4645755496243535"><ele>133.0</ele><time>2026-04-19T16:53:33Z</time></trkpt><trkpt lat="40.590481643731664" lon="0.46436465008148126"><ele>133.0</ele><time>2026-04-19T16:53:34Z</time></trkpt><trkpt lat="40.59029668979393" lon="0.46415603153389934"><ele>133.0</ele><time>2026-04-19T16:53:35Z</time></trkpt><trkpt lat="40.59011341180845" lon="0.4639414872961618"><ele>133.0</ele><time>2026-04-19T16:53:36Z</time></trkpt><trkpt lat="40.58992980781915" lon="0.46372866500002674"><ele>132.5</ele><time>2026-04-19T16:53:37Z</time></trkpt><trkpt lat="40.58974843524916" lon="0.46351389346063276"><ele>132.0</ele><time>2026-04-19T16:53:38Z</time></trkpt><trkpt lat="40.58956408163362" lon="0.4632922508654585"><ele>131.0</ele><time>2026-04-19T16:53:39Z</time></trkpt><trkpt lat="40.58938206021402" lon="0.4630703426947036"><ele>130.0</ele><time>2026-04-19T16:53:40Z</time></trkpt><trkpt lat="40.58919802966024" lon="0.4628462075065888"><ele>129.5</ele><time>2026-04-19T16:53:41Z</time></trkpt><trkpt lat="40.58901768771232" lon="0.46262279916285404"><ele>129.0</ele><time>2026-04-19T16:53:42Z</time></trkpt><trkpt lat="40.58882971874244" lon="0.462390797500181"><ele>129.5</ele><time>2026-04-19T16:53:43Z</time></trkpt><trkpt lat="40.58864815924752" lon="0.46216387272111986"><ele>130.0</ele><time>2026-04-19T16:53:44Z</time></trkpt><trkpt lat="40.58846335923716" lon="0.46192196749579334"><ele>130.0</ele><time>2026-04-19T16:53:45Z</time></trkpt><trkpt lat="40.58827577583126" lon="0.46168670597403294"><ele>130.0</ele><time>2026-04-19T16:53:46Z</time></trkpt><trkpt lat="40.58808927648797" lon="0.46144566818825394"><ele>129.5</ele><time>2026-04-19T16:53:47Z</time></trkpt><trkpt lat="40.58790458510672" lon="0.4612087418727906"><ele>129.0</ele><time>2026-04-19T16:53:48Z</time></trkpt><trkpt lat="40.58772008398331" lon="0.46097196643194205"><ele>129.0</ele><time>2026-04-19T16:53:49Z</time></trkpt><trkpt lat="40.58753022926455" lon="0.4607357706720792"><ele>129.0</ele><time>2026-04-19T16:53:50Z</time></trkpt><trkpt lat="40.587343534952886" lon="0.4605031125398485"><ele>129.0</ele><time>2026-04-19T16:53:51Z</time></trkpt><trkpt lat="40.5871567755238" lon="0.4602719211252515"><ele>129.0</ele><time>2026-04-19T16:53:52Z</time></trkpt><trkpt lat="40.586972239570414" lon="0.46004355799097596"><ele>130.0</ele><time>2026-04-19T16:53:53Z</time></trkpt><trkpt lat="40.586783417862094" lon="0.45981416290412064"><ele>131.0</ele><time>2026-04-19T16:53:54Z</time></trkpt><trkpt lat="40.5865986207376" lon="0.4595903636546935"><ele>131.0</ele><time>2026-04-19T16:53:55Z</time></trkpt><trkpt lat="40.58641301885886" lon="0.45937276851434194"><ele>131.0</ele><time>2026-04-19T16:53:56Z</time></trkpt><trkpt lat="40.58622509876272" lon="0.4591553592757947"><ele>131.5</ele><time>2026-04-19T16:53:57Z</time></trkpt><trkpt lat="40.586033315230985" lon="0.4589344915928473"><ele>132.0</ele><time>2026-04-19T16:53:58Z</time></trkpt><trkpt lat="40.5858399451913" lon="0.45872188717329754"><ele>132.0</ele><time>2026-04-19T16:53:59Z</time></trkpt><trkpt lat="40.58563982711826" lon="0.4585081553621379"><ele>132.0</ele><time>2026-04-19T16:54:00Z</time></trkpt><trkpt lat="40.58544414599601" lon="0.45829267703028453"><ele>132.0</ele><time>2026-04-19T16:54:01Z</time></trkpt><trkpt lat="40.585244206164056" lon="0.4580787684879441"><ele>132.0</ele><time>2026-04-19T16:54:02Z</time></trkpt><trkpt lat="40.58504039288788" lon="0.45786729644544555"><ele>131.5</ele><time>2026-04-19T16:54:03Z</time></trkpt><trkpt lat="40.584830862044164" lon="0.45765963045442554"><ele>131.0</ele><time>2026-04-19T16:54:04Z</time></trkpt><trkpt lat="40.5846223605048" lon="0.45744282345520193"><ele>131.0</ele><time>2026-04-19T16:54:05Z</time></trkpt><trkpt lat="40.584413936866156" lon="0.4572305077041358"><ele>131.0</ele><time>2026-04-19T16:54:06Z</time></trkpt><trkpt lat="40.584209542801844" lon="0.45701451693516254"><ele>131.0</ele><time>2026-04-19T16:54:07Z</time></trkpt><trkpt lat="40.58400148328223" lon="0.4568030326987499"><ele>131.0</ele><time>2026-04-19T16:54:08Z</time></trkpt><trkpt lat="40.58379060271402" lon="0.45659454071317346"><ele>129.5</ele><time>2026-04-19T16:54:09Z</time></trkpt><trkpt lat="40.58358329004462" lon="0.45638264266874173"><ele>128.0</ele><time>2026-04-19T16:54:10Z</time></trkpt><trkpt lat="40.58337711252672" lon="0.4561739147416056"><ele>127.5</ele><time>2026-04-19T16:54:11Z</time></trkpt><trkpt lat="40.583172849599656" lon="0.45596159628183563"><ele>127.0</ele><time>2026-04-19T16:54:12Z</time></trkpt><trkpt lat="40.582969217048436" lon="0.4557457365748436"><ele>127.5</ele><time>2026-04-19T16:54:12.999Z</time></trkpt><trkpt lat="40.58276434725141" lon="0.45553514820099134"><ele>128.0</ele><time>2026-04-19T16:54:13.999Z</time></trkpt><trkpt lat="40.58256074945681" lon="0.45533171572935244"><ele>128.5</ele><time>2026-04-19T16:54:14.999Z</time></trkpt><trkpt lat="40.582362162380846" lon="0.4551248431225826"><ele>129.0</ele><time>2026-04-19T16:54:15.999Z</time></trkpt><trkpt lat="40.58217189298603" lon="0.4549135251736335"><ele>130.0</ele><time>2026-04-19T16:54:16.999Z</time></trkpt><trkpt lat="40.58198239621626" lon="0.4546956393134683"><ele>131.0</ele><time>2026-04-19T16:54:17.999Z</time></trkpt><trkpt lat="40.58179494422761" lon="0.4544820697621863"><ele>131.0</ele><time>2026-04-19T16:54:18.999Z</time></trkpt><trkpt lat="40.581609883306285" lon="0.4542630473316376"><ele>131.0</ele><time>2026-04-19T16:54:19.999Z</time></trkpt><trkpt lat="40.581421808231795" lon="0.4540440348552116"><ele>131.0</ele><time>2026-04-19T16:54:20.999Z</time></trkpt><trkpt lat="40.58123680181585" lon="0.453821230684863"><ele>131.0</ele><time>2026-04-19T16:54:21.999Z</time></trkpt><trkpt lat="40.58104904877812" lon="0.45359494532252287"><ele>131.0</ele><time>2026-04-19T16:54:22.999Z</time></trkpt><trkpt lat="40.58086283715298" lon="0.45336069455880534"><ele>131.0</ele><time>2026-04-19T16:54:23.999Z</time></trkpt><trkpt lat="40.580672969874946" lon="0.4531147974662646"><ele>131.5</ele><time>2026-04-19T16:54:24.999Z</time></trkpt><trkpt lat="40.58048662181265" lon="0.45287392374780205"><ele>132.0</ele><time>2026-04-19T16:54:25.999Z</time></trkpt><trkpt lat="40.580299203826755" lon="0.45262695059070723"><ele>132.0</ele><time>2026-04-19T16:54:26.999Z</time></trkpt><trkpt lat="40.580110886420556" lon="0.45237886879004136"><ele>132.0</ele><time>2026-04-19T16:54:27.999Z</time></trkpt><trkpt lat="40.5799293105303" lon="0.45212433429120696"><ele>131.0</ele><time>2026-04-19T16:54:28.999Z</time></trkpt><trkpt lat="40.57975063133764" lon="0.4518743202961961"><ele>130.0</ele><time>2026-04-19T16:54:29.999Z</time></trkpt><trkpt lat="40.57957186238425" lon="0.4516205079104982"><ele>130.5</ele><time>2026-04-19T16:54:30.999Z</time></trkpt><trkpt lat="40.579401158470205" lon="0.45137178260664884"><ele>131.0</ele><time>2026-04-19T16:54:31.999Z</time></trkpt><trkpt lat="40.5792305405917" lon="0.4511179534542687"><ele>131.0</ele><time>2026-04-19T16:54:32.999Z</time></trkpt><trkpt lat="40.57906335661035" lon="0.4508717283241381"><ele>131.0</ele><time>2026-04-19T16:54:33.999Z</time></trkpt><trkpt lat="40.57889743724113" lon="0.4506204238768767"><ele>131.5</ele><time>2026-04-19T16:54:34.999Z</time></trkpt><trkpt lat="40.57873776864511" lon="0.45036805386538975"><ele>132.0</ele><time>2026-04-19T16:54:35.999Z</time></trkpt><trkpt lat="40.578581640225735" lon="0.45011790065014734"><ele>132.0</ele><time>2026-04-19T16:54:36.999Z</time></trkpt><trkpt lat="40.57842538907285" lon="0.4498639292822269"><ele>132.0</ele><time>2026-04-19T16:54:37.999Z</time></trkpt><trkpt lat="40.57827464244597" lon="0.4496107863929381"><ele>131.5</ele><time>2026-04-19T16:54:38.999Z</time></trkpt><trkpt lat="40.5781262182216" lon="0.44935643817338766"><ele>131.0</ele><time>2026-04-19T16:54:39.999Z</time></trkpt><trkpt lat="40.577976121500456" lon="0.4490977921825042"><ele>131.5</ele><time>2026-04-19T16:54:40.999Z</time></trkpt><trkpt lat="40.577825028833864" lon="0.44883295874382917"><ele>132.0</ele><time>2026-04-19T16:54:41.999Z</time></trkpt><trkpt lat="40.577678162769914" lon="0.4485671922144964"><ele>130.5</ele><time>2026-04-19T16:54:42.999Z</time></trkpt><trkpt lat="40.57753110736441" lon="0.4482924593153724"><ele>129.0</ele><time>2026-04-19T16:54:43.999Z</time></trkpt><trkpt lat="40.577382978751956" lon="0.44801667918044846"><ele>128.5</ele><time>2026-04-19T16:54:44.999Z</time></trkpt><trkpt lat="40.57723318944111" lon="0.4477380236582264"><ele>128.0</ele><time>2026-04-19T16:54:45.999Z</time></trkpt><trkpt lat="40.57708683753645" lon="0.44745127857154365"><ele>128.5</ele><time>2026-04-19T16:54:46.999Z</time></trkpt><trkpt lat="40.57694228304325" lon="0.44716478586707736"><ele>129.0</ele><time>2026-04-19T16:54:47.999Z</time></trkpt><trkpt lat="40.576794609808275" lon="0.4468741630519111"><ele>129.0</ele><time>2026-04-19T16:54:48.999Z</time></trkpt><trkpt lat="40.57665363233705" lon="0.4465811173898594"><ele>129.0</ele><time>2026-04-19T16:54:49.999Z</time></trkpt><trkpt lat="40.57651609200202" lon="0.44628177851026624"><ele>128.5</ele><time>2026-04-19T16:54:50.999Z</time></trkpt><trkpt lat="40.57637936541973" lon="0.44597987372407777"><ele>128.0</ele><time>2026-04-19T16:54:51.999Z</time></trkpt><trkpt lat="40.576242627889044" lon="0.44567908186149036"><ele>128.0</ele><time>2026-04-19T16:54:52.999Z</time></trkpt><trkpt lat="40.576107861953794" lon="0.4453769808301519"><ele>128.0</ele><time>2026-04-19T16:54:53.999Z</time></trkpt><trkpt lat="40.57597238974355" lon="0.4450718808010104"><ele>128.0</ele><time>2026-04-19T16:54:54.999Z</time></trkpt><trkpt lat="40.57583887923193" lon="0.44477390551249907"><ele>128.0</ele><time>2026-04-19T16:54:55.999Z</time></trkpt><trkpt lat="40.57570582361168" lon="0.44447292589324455"><ele>127.5</ele><time>2026-04-19T16:54:56.999Z</time></trkpt><trkpt lat="40.57557468985638" lon="0.4441707590914513"><ele>127.0</ele><time>2026-04-19T16:54:57.999Z</time></trkpt><trkpt lat="40.575443189853814" lon="0.44386960132513836"><ele>127.5</ele><time>2026-04-19T16:54:58.999Z</time></trkpt><trkpt lat="40.575317246171565" lon="0.44356745395424296"><ele>128.0</ele><time>2026-04-19T16:54:59.999Z</time></trkpt><trkpt lat="40.57519057700445" lon="0.44327603701110274"><ele>128.0</ele><time>2026-04-19T16:55:00.999Z</time></trkpt><trkpt lat="40.57506284204333" lon="0.44297786468121664"><ele>128.0</ele><time>2026-04-19T16:55:01.999Z</time></trkpt><trkpt lat="40.57493590804281" lon="0.4426885853253727"><ele>127.5</ele><time>2026-04-19T16:55:02.999Z</time></trkpt><trkpt lat="40.57480568332562" lon="0.4424000985556279"><ele>127.0</ele><time>2026-04-19T16:55:03.999Z</time></trkpt><trkpt lat="40.57467335827018" lon="0.44211081128007107"><ele>126.5</ele><time>2026-04-19T16:55:04.999Z</time></trkpt><trkpt lat="40.57453701273183" lon="0.44182071387524674"><ele>126.0</ele><time>2026-04-19T16:55:05.999Z</time></trkpt><trkpt lat="40.5744004862232" lon="0.4415269214609254"><ele>126.0</ele><time>2026-04-19T16:55:06.999Z</time></trkpt><trkpt lat="40.5742667163106" lon="0.44123790427926635"><ele>126.0</ele><time>2026-04-19T16:55:07.999Z</time></trkpt><trkpt lat="40.574123072782896" lon="0.44094725732484935"><ele>126.0</ele><time>2026-04-19T16:55:08.999Z</time></trkpt><trkpt lat="40.573978990747506" lon="0.44066175192265095"><ele>126.0</ele><time>2026-04-19T16:55:09.999Z</time></trkpt><trkpt lat="40.57383230010746" lon="0.44037927935955273"><ele>126.5</ele><time>2026-04-19T16:55:10.999Z</time></trkpt><trkpt lat="40.57367843829124" lon="0.44010191464847653"><ele>127.0</ele><time>2026-04-19T16:55:11.999Z</time></trkpt><trkpt lat="40.573522659636374" lon="0.43982838812071184"><ele>127.0</ele><time>2026-04-19T16:55:12.999Z</time></trkpt><trkpt lat="40.573368296636325" lon="0.4395533527979111"><ele>127.0</ele><time>2026-04-19T16:55:13.999Z</time></trkpt><trkpt lat="40.57321336281695" lon="0.4392767190827212"><ele>127.0</ele><time>2026-04-19T16:55:14.999Z</time></trkpt><trkpt lat="40.57305361868898" lon="0.4390088529078572"><ele>127.0</ele><time>2026-04-19T16:55:15.999Z</time></trkpt><trkpt lat="40.57289194901206" lon="0.43874246777848647"><ele>125.5</ele><time>2026-04-19T16:55:16.999Z</time></trkpt><trkpt lat="40.572728049222256" lon="0.4384751941710651"><ele>124.0</ele><time>2026-04-19T16:55:17.999Z</time></trkpt><trkpt lat="40.572561588336555" lon="0.43821554033524585"><ele>123.5</ele><time>2026-04-19T16:55:18.999Z</time></trkpt><trkpt lat="40.5723945120435" lon="0.4379602081961952"><ele>123.0</ele><time>2026-04-19T16:55:19.998Z</time></trkpt><trkpt lat="40.57222460669633" lon="0.43770312597724087"><ele>123.0</ele><time>2026-04-19T16:55:20.998Z</time></trkpt><trkpt lat="40.572054542668106" lon="0.43744716739482326"><ele>123.0</ele><time>2026-04-19T16:55:21.998Z</time></trkpt><trkpt lat="40.57187864970608" lon="0.43719485440230377"><ele>121.5</ele><time>2026-04-19T16:55:22.998Z</time></trkpt><trkpt lat="40.57170458565707" lon="0.43694575620519216"><ele>120.0</ele><time>2026-04-19T16:55:23.998Z</time></trkpt><trkpt lat="40.57152803118882" lon="0.43669751402723267"><ele>120.0</ele><time>2026-04-19T16:55:24.998Z</time></trkpt><trkpt lat="40.571352737277486" lon="0.4364602995475932"><ele>120.0</ele><time>2026-04-19T16:55:25.998Z</time></trkpt><trkpt lat="40.57117251279281" lon="0.4362160221593157"><ele>122.5</ele><time>2026-04-19T16:55:27Z</time></trkpt><trkpt lat="40.570989479079216" lon="0.4359813703276789"><ele>125.0</ele><time>2026-04-19T16:55:28Z</time></trkpt><trkpt lat="40.57080301086812" lon="0.43574927963368065"><ele>125.0</ele><time>2026-04-19T16:55:29Z</time></trkpt><trkpt lat="40.57061667980574" lon="0.4355208904351633"><ele>125.0</ele><time>2026-04-19T16:55:30Z</time></trkpt><trkpt lat="40.57042949702104" lon="0.4352994287111154"><ele>124.0</ele><time>2026-04-19T16:55:31Z</time></trkpt><trkpt lat="40.57024152303383" lon="0.4350756367351583"><ele>123.0</ele><time>2026-04-19T16:55:32Z</time></trkpt><trkpt lat="40.57004960809436" lon="0.4348546082550459"><ele>123.0</ele><time>2026-04-19T16:55:33Z</time></trkpt><trkpt lat="40.56985603406132" lon="0.4346364602561165"><ele>123.0</ele><time>2026-04-19T16:55:34Z</time></trkpt><trkpt lat="40.56966074124434" lon="0.4344205400349774"><ele>123.0</ele><time>2026-04-19T16:55:35Z</time></trkpt><trkpt lat="40.56945986076813" lon="0.4341980956798409"><ele>123.0</ele><time>2026-04-19T16:55:36Z</time></trkpt><trkpt lat="40.56925642527478" lon="0.43398200761294"><ele>123.0</ele><time>2026-04-19T16:55:37Z</time></trkpt><trkpt lat="40.56905211824385" lon="0.4337744938559381"><ele>123.0</ele><time>2026-04-19T16:55:38Z</time></trkpt><trkpt lat="40.56884634526722" lon="0.4335654522143149"><ele>122.0</ele><time>2026-04-19T16:55:39Z</time></trkpt><trkpt lat="40.56863986360396" lon="0.4333621310150144"><ele>121.0</ele><time>2026-04-19T16:55:40Z</time></trkpt><trkpt lat="40.56843184406412" lon="0.4331644489871054"><ele>120.5</ele><time>2026-04-19T16:55:41Z</time></trkpt><trkpt lat="40.568222637917934" lon="0.4329694449822631"><ele>120.0</ele><time>2026-04-19T16:55:42Z</time></trkpt><trkpt lat="40.56801881356121" lon="0.4327802775188447"><ele>119.0</ele><time>2026-04-19T16:55:43Z</time></trkpt><trkpt lat="40.5678097325425" lon="0.4325958111950732"><ele>118.0</ele><time>2026-04-19T16:55:44Z</time></trkpt><trkpt lat="40.56759618143641" lon="0.43242910869156964"><ele>118.0</ele><time>2026-04-19T16:55:45Z</time></trkpt><trkpt lat="40.56738768167335" lon="0.4322465410949584"><ele>118.0</ele><time>2026-04-19T16:55:46Z</time></trkpt><trkpt lat="40.567175845058365" lon="0.43206849110485385"><ele>118.5</ele><time>2026-04-19T16:55:47Z</time></trkpt><trkpt lat="40.56695826989535" lon="0.43189747976509446"><ele>119.0</ele><time>2026-04-19T16:55:48Z</time></trkpt><trkpt lat="40.5667352964144" lon="0.43172261903656495"><ele>119.0</ele><time>2026-04-19T16:55:49Z</time></trkpt><trkpt lat="40.56651352230826" lon="0.4315516283601182"><ele>119.0</ele><time>2026-04-19T16:55:50Z</time></trkpt><trkpt lat="40.56628827201258" lon="0.4313830536873005"><ele>119.0</ele><time>2026-04-19T16:55:51Z</time></trkpt><trkpt lat="40.56606031581145" lon="0.43122591499646834"><ele>119.0</ele><time>2026-04-19T16:55:52Z</time></trkpt><trkpt lat="40.56582720982782" lon="0.43104597947303397"><ele>119.0</ele><time>2026-04-19T16:55:53Z</time></trkpt><trkpt lat="40.56559485727837" lon="0.4308849474336056"><ele>119.0</ele><time>2026-04-19T16:55:54Z</time></trkpt><trkpt lat="40.565360878426205" lon="0.4307251604608477"><ele>119.0</ele><time>2026-04-19T16:55:55Z</time></trkpt><trkpt lat="40.56512297751978" lon="0.43056931628857975"><ele>119.0</ele><time>2026-04-19T16:55:56Z</time></trkpt><trkpt lat="40.564885309369245" lon="0.43042284797175295"><ele>119.0</ele><time>2026-04-19T16:55:57Z</time></trkpt><trkpt lat="40.564644794976125" lon="0.4302801847554414"><ele>119.0</ele><time>2026-04-19T16:55:58Z</time></trkpt><trkpt lat="40.56440193192377" lon="0.4301342406180978"><ele>119.0</ele><time>2026-04-19T16:55:59Z</time></trkpt><trkpt lat="40.564159953741154" lon="0.4299965895546464"><ele>119.0</ele><time>2026-04-19T16:56:00Z</time></trkpt><trkpt lat="40.563917169730075" lon="0.42986316892570214"><ele>119.0</ele><time>2026-04-19T16:56:01Z</time></trkpt><trkpt lat="40.563673461974474" lon="0.42973351814136024"><ele>119.0</ele><time>2026-04-19T16:56:02Z</time></trkpt><trkpt lat="40.5634305794514" lon="0.4296069808683876"><ele>118.0</ele><time>2026-04-19T16:56:03Z</time></trkpt><trkpt lat="40.56319062799712" lon="0.42948707047228024"><ele>117.0</ele><time>2026-04-19T16:56:04Z</time></trkpt><trkpt lat="40.56295079877836" lon="0.42936804504464565"><ele>118.0</ele><time>2026-04-19T16:56:05Z</time></trkpt><trkpt lat="40.562708235390936" lon="0.4292458127800066"><ele>119.0</ele><time>2026-04-19T16:56:06Z</time></trkpt><trkpt lat="40.562463314351355" lon="0.42912523191103846"><ele>119.0</ele><time>2026-04-19T16:56:07Z</time></trkpt><trkpt lat="40.56222065694574" lon="0.4290091899158931"><ele>119.0</ele><time>2026-04-19T16:56:08Z</time></trkpt><trkpt lat="40.56197354897975" lon="0.4288890157313832"><ele>117.5</ele><time>2026-04-19T16:56:09Z</time></trkpt><trkpt lat="40.561733518738436" lon="0.4287759570287314"><ele>116.0</ele><time>2026-04-19T16:56:10Z</time></trkpt><trkpt lat="40.56149033026587" lon="0.42865977861029814"><ele>116.0</ele><time>2026-04-19T16:56:11Z</time></trkpt><trkpt lat="40.56124524975281" lon="0.42854481528832233"><ele>116.0</ele><time>2026-04-19T16:56:12Z</time></trkpt><trkpt lat="40.56099885374205" lon="0.42842761872570007"><ele>116.0</ele><time>2026-04-19T16:56:13Z</time></trkpt><trkpt lat="40.56075453547475" lon="0.42830897483522057"><ele>116.0</ele><time>2026-04-19T16:56:13.999Z</time></trkpt><trkpt lat="40.560511060164934" lon="0.42819133067574616"><ele>117.0</ele><time>2026-04-19T16:56:14.999Z</time></trkpt><trkpt lat="40.56026866911171" lon="0.4280698201972786"><ele>118.0</ele><time>2026-04-19T16:56:15.999Z</time></trkpt><trkpt lat="40.56002815983682" lon="0.42794894485408114"><ele>118.5</ele><time>2026-04-19T16:56:16.999Z</time></trkpt><trkpt lat="40.55979143322078" lon="0.42782386408663753"><ele>119.0</ele><time>2026-04-19T16:56:17.999Z</time></trkpt><trkpt lat="40.559553667497916" lon="0.42769708140826823"><ele>118.5</ele><time>2026-04-19T16:56:18.999Z</time></trkpt><trkpt lat="40.55931420905431" lon="0.42756954006804226"><ele>118.0</ele><time>2026-04-19T16:56:19.999Z</time></trkpt><trkpt lat="40.559071873688666" lon="0.4274442990291671"><ele>118.0</ele><time>2026-04-19T16:56:20.999Z</time></trkpt><trkpt lat="40.55882701467903" lon="0.4273144680411962"><ele>118.0</ele><time>2026-04-19T16:56:21.999Z</time></trkpt><trkpt lat="40.55858563936593" lon="0.4271789469959688"><ele>117.5</ele><time>2026-04-19T16:56:22.999Z</time></trkpt><trkpt lat="40.55834282876724" lon="0.42703954960752194"><ele>117.0</ele><time>2026-04-19T16:56:23.999Z</time></trkpt><trkpt lat="40.55810198426288" lon="0.4268993171813517"><ele>118.0</ele><time>2026-04-19T16:56:24.999Z</time></trkpt><trkpt lat="40.55786473803608" lon="0.4267600782669077"><ele>119.0</ele><time>2026-04-19T16:56:25.999Z</time></trkpt><trkpt lat="40.55763051140428" lon="0.42661988781080085"><ele>119.0</ele><time>2026-04-19T16:56:26.999Z</time></trkpt><trkpt lat="40.557396921703464" lon="0.42647866492088904"><ele>119.0</ele><time>2026-04-19T16:56:27.999Z</time></trkpt><trkpt lat="40.557166550816284" lon="0.4263341341094186"><ele>118.0</ele><time>2026-04-19T16:56:28.999Z</time></trkpt><trkpt lat="40.556933383743186" lon="0.4261898215770282"><ele>117.0</ele><time>2026-04-19T16:56:29.999Z</time></trkpt><trkpt lat="40.5566956299239" lon="0.4260422836583156"><ele>117.0</ele><time>2026-04-19T16:56:30.999Z</time></trkpt><trkpt lat="40.55645794438928" lon="0.42588877642972267"><ele>117.0</ele><time>2026-04-19T16:56:31.999Z</time></trkpt><trkpt lat="40.55622192615523" lon="0.42572652523402826"><ele>117.5</ele><time>2026-04-19T16:56:32.999Z</time></trkpt><trkpt lat="40.555989920169104" lon="0.42556398270601253"><ele>118.0</ele><time>2026-04-19T16:56:33.999Z</time></trkpt><trkpt lat="40.5557647832591" lon="0.4254055917421736"><ele>118.0</ele><time>2026-04-19T16:56:34.999Z</time></trkpt><trkpt lat="40.55553899021278" lon="0.4252552478569078"><ele>118.0</ele><time>2026-04-19T16:56:35.999Z</time></trkpt><trkpt lat="40.55531147535646" lon="0.42509513747381006"><ele>118.0</ele><time>2026-04-19T16:56:36.999Z</time></trkpt><trkpt lat="40.55509407377028" lon="0.4249350101817898"><ele>118.0</ele><time>2026-04-19T16:56:37.999Z</time></trkpt><trkpt lat="40.55487134332766" lon="0.42476832871068354"><ele>117.0</ele><time>2026-04-19T16:56:38.999Z</time></trkpt><trkpt lat="40.5546472802331" lon="0.4246104670236214"><ele>116.0</ele><time>2026-04-19T16:56:39.999Z</time></trkpt><trkpt lat="40.55442040810081" lon="0.4244561074404577"><ele>116.0</ele><time>2026-04-19T16:56:40.999Z</time></trkpt><trkpt lat="40.554192201143294" lon="0.42429404383222485"><ele>116.0</ele><time>2026-04-19T16:56:41.999Z</time></trkpt><trkpt lat="40.553957754976274" lon="0.4241242578505966"><ele>116.0</ele><time>2026-04-19T16:56:42.999Z</time></trkpt><trkpt lat="40.553724229371156" lon="0.4239551465746747"><ele>116.0</ele><time>2026-04-19T16:56:43.999Z</time></trkpt><trkpt lat="40.553488790470716" lon="0.4237822524216369"><ele>116.0</ele><time>2026-04-19T16:56:44.999Z</time></trkpt><trkpt lat="40.55325216162359" lon="0.42360281329435867"><ele>116.0</ele><time>2026-04-19T16:56:45.999Z</time></trkpt><trkpt lat="40.55300586237613" lon="0.42341956569071054"><ele>115.5</ele><time>2026-04-19T16:56:46.999Z</time></trkpt><trkpt lat="40.55275661672082" lon="0.42323975672844344"><ele>115.0</ele><time>2026-04-19T16:56:47.999Z</time></trkpt><trkpt lat="40.552503368211454" lon="0.42305864627286893"><ele>115.0</ele><time>2026-04-19T16:56:48.999Z</time></trkpt><trkpt lat="40.55225025145403" lon="0.42288053488252797"><ele>115.0</ele><time>2026-04-19T16:56:49.999Z</time></trkpt><trkpt lat="40.55199666116024" lon="0.42270751570399206"><ele>113.5</ele><time>2026-04-19T16:56:50.999Z</time></trkpt><trkpt lat="40.55173748864556" lon="0.42252833958424624"><ele>112.0</ele><time>2026-04-19T16:56:51.999Z</time></trkpt><trkpt lat="40.551480030388625" lon="0.422347891647508"><ele>112.0</ele><time>2026-04-19T16:56:52.999Z</time></trkpt><trkpt lat="40.551222219831516" lon="0.4221718586454797"><ele>112.0</ele><time>2026-04-19T16:56:53.999Z</time></trkpt><trkpt lat="40.55096369052614" lon="0.4220061990192954"><ele>113.0</ele><time>2026-04-19T16:56:54.999Z</time></trkpt><trkpt lat="40.550695440456096" lon="0.42184308445700014"><ele>114.0</ele><time>2026-04-19T16:56:55.999Z</time></trkpt><trkpt lat="40.55043061061827" lon="0.4216830224242895"><ele>113.5</ele><time>2026-04-19T16:56:56.999Z</time></trkpt><trkpt lat="40.5501616919684" lon="0.4215268467061707"><ele>113.0</ele><time>2026-04-19T16:56:57.999Z</time></trkpt><trkpt lat="40.54988712478858" lon="0.42138044314333717"><ele>112.5</ele><time>2026-04-19T16:56:58.999Z</time></trkpt><trkpt lat="40.549616640270486" lon="0.4212277508057272"><ele>112.0</ele><time>2026-04-19T16:56:59.999Z</time></trkpt><trkpt lat="40.549347331031356" lon="0.421081040067541"><ele>112.0</ele><time>2026-04-19T16:57:00.999Z</time></trkpt><trkpt lat="40.54907552404368" lon="0.4209451912122077"><ele>112.0</ele><time>2026-04-19T16:57:01.999Z</time></trkpt><trkpt lat="40.54880329716024" lon="0.4208153423322689"><ele>111.5</ele><time>2026-04-19T16:57:02.999Z</time></trkpt><trkpt lat="40.54853272290445" lon="0.4206883955006643"><ele>111.0</ele><time>2026-04-19T16:57:03.999Z</time></trkpt><trkpt lat="40.548262254149364" lon="0.4205562557697679"><ele>111.5</ele><time>2026-04-19T16:57:04.999Z</time></trkpt><trkpt lat="40.54799135327111" lon="0.4204341388341403"><ele>112.0</ele><time>2026-04-19T16:57:05.999Z</time></trkpt><trkpt lat="40.54771802189084" lon="0.42031701410308586"><ele>112.0</ele><time>2026-04-19T16:57:06.999Z</time></trkpt><trkpt lat="40.54744687793476" lon="0.42020002259131156"><ele>112.0</ele><time>2026-04-19T16:57:07.999Z</time></trkpt><trkpt lat="40.54717241948987" lon="0.4200887391981583"><ele>111.5</ele><time>2026-04-19T16:57:08.999Z</time></trkpt><trkpt lat="40.54689776802859" lon="0.4199858373121442"><ele>111.0</ele><time>2026-04-19T16:57:09.999Z</time></trkpt><trkpt lat="40.54662095163349" lon="0.4198878346403273"><ele>111.0</ele><time>2026-04-19T16:57:10.999Z</time></trkpt><trkpt lat="40.54634390469681" lon="0.41978564653643125"><ele>111.0</ele><time>2026-04-19T16:57:11.999Z</time></trkpt><trkpt lat="40.546065314059426" lon="0.41968567596727036"><ele>110.5</ele><time>2026-04-19T16:57:12.999Z</time></trkpt><trkpt lat="40.545784054025845" lon="0.4195898695150749"><ele>110.0</ele><time>2026-04-19T16:57:13.999Z</time></trkpt><trkpt lat="40.54549831943641" lon="0.41949764943682233"><ele>110.0</ele><time>2026-04-19T16:57:14.999Z</time></trkpt><trkpt lat="40.545211829917164" lon="0.4194113857468434"><ele>110.0</ele><time>2026-04-19T16:57:15.999Z</time></trkpt><trkpt lat="40.5449229730544" lon="0.41933093474193994"><ele>110.0</ele><time>2026-04-19T16:57:16.999Z</time></trkpt><trkpt lat="40.5446316128174" lon="0.41925700192686105"><ele>110.0</ele><time>2026-04-19T16:57:17.999Z</time></trkpt><trkpt lat="40.544337888645586" lon="0.41917921525044144"><ele>109.0</ele><time>2026-04-19T16:57:18.998Z</time></trkpt><trkpt lat="40.54404359364449" lon="0.41910696122777563"><ele>108.0</ele><time>2026-04-19T16:57:19.998Z</time></trkpt><trkpt lat="40.54375253315802" lon="0.4190420887539436"><ele>107.0</ele><time>2026-04-19T16:57:20.998Z</time></trkpt><trkpt lat="40.543460289841725" lon="0.41898242847561906"><ele>106.0</ele><time>2026-04-19T16:57:21.998Z</time></trkpt><trkpt lat="40.54315896969171" lon="0.41892604033498687"><ele>106.5</ele><time>2026-04-19T16:57:22.998Z</time></trkpt><trkpt lat="40.542860246029925" lon="0.4188664592564973"><ele>107.0</ele><time>2026-04-19T16:57:23.998Z</time></trkpt><trkpt lat="40.542563388983226" lon="0.4188105566510674"><ele>107.5</ele><time>2026-04-19T16:57:24.998Z</time></trkpt><trkpt lat="40.54226259401191" lon="0.4187626004143564"><ele>108.0</ele><time>2026-04-19T16:57:25.998Z</time></trkpt><trkpt lat="40.54196303136598" lon="0.41872560360965294"><ele>107.0</ele><time>2026-04-19T16:57:26.998Z</time></trkpt><trkpt lat="40.541671303637855" lon="0.4186833974190415"><ele>106.0</ele><time>2026-04-19T16:57:27.998Z</time></trkpt><trkpt lat="40.54137751067684" lon="0.4186508208439471"><ele>104.5</ele><time>2026-04-19T16:57:28.998Z</time></trkpt><trkpt lat="40.54108273506746" lon="0.41862351627513994"><ele>103.0</ele><time>2026-04-19T16:57:29.998Z</time></trkpt><trkpt lat="40.54079104885506" lon="0.41859599732755565"><ele>103.0</ele><time>2026-04-19T16:57:30.998Z</time></trkpt><trkpt lat="40.540503236626876" lon="0.4185781943713681"><ele>103.0</ele><time>2026-04-19T16:57:31.998Z</time></trkpt><trkpt lat="40.540216510692474" lon="0.41856569069639116"><ele>103.0</ele><time>2026-04-19T16:57:33Z</time></trkpt><trkpt lat="40.539930435640834" lon="0.4185615968139844"><ele>103.0</ele><time>2026-04-19T16:57:34Z</time></trkpt><trkpt lat="40.53964366662568" lon="0.4185563487670617"><ele>102.0</ele><time>2026-04-19T16:57:35Z</time></trkpt><trkpt lat="40.53935672226209" lon="0.41855016948891527"><ele>101.0</ele><time>2026-04-19T16:57:36Z</time></trkpt><trkpt lat="40.53906996501431" lon="0.4185449034567702"><ele>101.0</ele><time>2026-04-19T16:57:37Z</time></trkpt><trkpt lat="40.53878518231743" lon="0.4185444536389457"><ele>101.0</ele><time>2026-04-19T16:57:38Z</time></trkpt><trkpt lat="40.53850225323574" lon="0.4185504367186948"><ele>101.0</ele><time>2026-04-19T16:57:39Z</time></trkpt><trkpt lat="40.53821999831864" lon="0.4185540962590378"><ele>101.0</ele><time>2026-04-19T16:57:40Z</time></trkpt><trkpt lat="40.53793889824459" lon="0.41855830249138254"><ele>101.0</ele><time>2026-04-19T16:57:41Z</time></trkpt><trkpt lat="40.53765735502997" lon="0.4185658546525688"><ele>101.0</ele><time>2026-04-19T16:57:42Z</time></trkpt><trkpt lat="40.53737505610333" lon="0.4185694087633128"><ele>101.0</ele><time>2026-04-19T16:57:43Z</time></trkpt><trkpt lat="40.53709399619886" lon="0.41857209885336405"><ele>101.0</ele><time>2026-04-19T16:57:44Z</time></trkpt><trkpt lat="40.53681275453792" lon="0.41857716752617646"><ele>100.5</ele><time>2026-04-19T16:57:45Z</time></trkpt><trkpt lat="40.5365305549476" lon="0.4185817485876312"><ele>100.0</ele><time>2026-04-19T16:57:46Z</time></trkpt><trkpt lat="40.53624578788726" lon="0.4185874864671123"><ele>99.0</ele><time>2026-04-19T16:57:47Z</time></trkpt><trkpt lat="40.53596096326912" lon="0.4185965567512633"><ele>98.0</ele><time>2026-04-19T16:57:48Z</time></trkpt><trkpt lat="40.535673097295245" lon="0.4185969411689623"><ele>98.0</ele><time>2026-04-19T16:57:49Z</time></trkpt><trkpt lat="40.53538884286571" lon="0.41859522309987424"><ele>98.0</ele><time>2026-04-19T16:57:50Z</time></trkpt><trkpt lat="40.53510567718653" lon="0.4185933340407194"><ele>99.0</ele><time>2026-04-19T16:57:51Z</time></trkpt><trkpt lat="40.53481927990243" lon="0.41858782817026857"><ele>100.0</ele><time>2026-04-19T16:57:52Z</time></trkpt><trkpt lat="40.53453697974911" lon="0.4185886580970027"><ele>100.5</ele><time>2026-04-19T16:57:53Z</time></trkpt><trkpt lat="40.534251436833834" lon="0.4185832533365158"><ele>101.0</ele><time>2026-04-19T16:57:54Z</time></trkpt><trkpt lat="40.53396680450339" lon="0.41857821845781473"><ele>100.0</ele><time>2026-04-19T16:57:55Z</time></trkpt><trkpt lat="40.53368276605136" lon="0.4185719888282868"><ele>99.0</ele><time>2026-04-19T16:57:56Z</time></trkpt><trkpt lat="40.53339763989311" lon="0.41856261816565815"><ele>99.0</ele><time>2026-04-19T16:57:57Z</time></trkpt><trkpt lat="40.53311137704669" lon="0.41854623965957316"><ele>99.0</ele><time>2026-04-19T16:57:58Z</time></trkpt><trkpt lat="40.53282788440113" lon="0.41852772818363493"><ele>98.0</ele><time>2026-04-19T16:57:59Z</time></trkpt><trkpt lat="40.5325450288812" lon="0.41850538584082164"><ele>97.0</ele><time>2026-04-19T16:58:00Z</time></trkpt><trkpt lat="40.53226080587099" lon="0.41848047144436423"><ele>97.0</ele><time>2026-04-19T16:58:01Z</time></trkpt><trkpt lat="40.531978489318966" lon="0.41845857039448364"><ele>97.0</ele><time>2026-04-19T16:58:02Z</time></trkpt><trkpt lat="40.53169159876962" lon="0.4184373853880662"><ele>97.0</ele><time>2026-04-19T16:58:03Z</time></trkpt><trkpt lat="40.53140226933285" lon="0.4184161933572179"><ele>97.0</ele><time>2026-04-19T16:58:04Z</time></trkpt><trkpt lat="40.531110166355575" lon="0.4183853815124224"><ele>96.0</ele><time>2026-04-19T16:58:05Z</time></trkpt><trkpt lat="40.53082006503694" lon="0.4183523088869523"><ele>95.0</ele><time>2026-04-19T16:58:06Z</time></trkpt><trkpt lat="40.53052898760659" lon="0.41831631243011325"><ele>95.0</ele><time>2026-04-19T16:58:07Z</time></trkpt><trkpt lat="40.53023745060177" lon="0.41827284792888697"><ele>95.0</ele><time>2026-04-19T16:58:08Z</time></trkpt><trkpt lat="40.52994631124979" lon="0.4182256311116696"><ele>95.0</ele><time>2026-04-19T16:58:09Z</time></trkpt><trkpt lat="40.52965503936461" lon="0.4181799417120446"><ele>95.0</ele><time>2026-04-19T16:58:10Z</time></trkpt><trkpt lat="40.52936281694439" lon="0.418130823119223"><ele>94.5</ele><time>2026-04-19T16:58:11Z</time></trkpt><trkpt lat="40.529068571551186" lon="0.41807834983887143"><ele>94.0</ele><time>2026-04-19T16:58:12Z</time></trkpt><trkpt lat="40.52877589379663" lon="0.4180280929252567"><ele>93.5</ele><time>2026-04-19T16:58:13Z</time></trkpt><trkpt lat="40.52848079697763" lon="0.41797383607351124"><ele>93.0</ele><time>2026-04-19T16:58:14Z</time></trkpt><trkpt lat="40.52818858375548" lon="0.41791696257123584"><ele>93.0</ele><time>2026-04-19T16:58:15Z</time></trkpt><trkpt lat="40.527898024789444" lon="0.417855843313948"><ele>93.0</ele><time>2026-04-19T16:58:16Z</time></trkpt><trkpt lat="40.52760728949529" lon="0.41779622107061803"><ele>93.5</ele><time>2026-04-19T16:58:17Z</time></trkpt><trkpt lat="40.52731727414077" lon="0.41773261800608835"><ele>94.0</ele><time>2026-04-19T16:58:18Z</time></trkpt><trkpt lat="40.527027024471515" lon="0.41766891500992726"><ele>94.0</ele><time>2026-04-19T16:58:19Z</time></trkpt><trkpt lat="40.52673759423744" lon="0.4175999761473734"><ele>94.0</ele><time>2026-04-19T16:58:19.999Z</time></trkpt><trkpt lat="40.52645057925679" lon="0.41752888516257436"><ele>94.0</ele><time>2026-04-19T16:58:20.999Z</time></trkpt><trkpt lat="40.52616281242122" lon="0.4174524818805281"><ele>94.0</ele><time>2026-04-19T16:58:21.999Z</time></trkpt><trkpt lat="40.52587365655721" lon="0.4173767381474829"><ele>94.0</ele><time>2026-04-19T16:58:22.999Z</time></trkpt><trkpt lat="40.52558604231267" lon="0.41729781296336094"><ele>94.0</ele><time>2026-04-19T16:58:23.999Z</time></trkpt><trkpt lat="40.525298909038256" lon="0.41721806202688794"><ele>93.5</ele><time>2026-04-19T16:58:24.999Z</time></trkpt><trkpt lat="40.52500901921914" lon="0.4171365394174466"><ele>93.0</ele><time>2026-04-19T16:58:25.999Z</time></trkpt><trkpt lat="40.52472096251699" lon="0.41705092281240547"><ele>93.0</ele><time>2026-04-19T16:58:26.999Z</time></trkpt><trkpt lat="40.5244381015578" lon="0.4169758447965774"><ele>93.0</ele><time>2026-04-19T16:58:27.999Z</time></trkpt><trkpt lat="40.524156183428325" lon="0.4169050977233692"><ele>93.0</ele><time>2026-04-19T16:58:28.999Z</time></trkpt><trkpt lat="40.52387154700424" lon="0.41683016381667076"><ele>93.0</ele><time>2026-04-19T16:58:29.999Z</time></trkpt><trkpt lat="40.5235871155097" lon="0.4167564318093397"><ele>91.5</ele><time>2026-04-19T16:58:30.999Z</time></trkpt><trkpt lat="40.52330471131615" lon="0.4166814866794102"><ele>90.0</ele><time>2026-04-19T16:58:31.999Z</time></trkpt><trkpt lat="40.52302313811014" lon="0.41661060619588614"><ele>89.5</ele><time>2026-04-19T16:58:32.999Z</time></trkpt><trkpt lat="40.52274095242353" lon="0.4165404218277953"><ele>89.0</ele><time>2026-04-19T16:58:33.999Z</time></trkpt><trkpt lat="40.52246055579286" lon="0.41647637962603007"><ele>89.0</ele><time>2026-04-19T16:58:34.999Z</time></trkpt><trkpt lat="40.522176632312664" lon="0.41641310432559947"><ele>89.0</ele><time>2026-04-19T16:58:35.999Z</time></trkpt><trkpt lat="40.52189466063519" lon="0.4163489565204797"><ele>89.0</ele><time>2026-04-19T16:58:36.999Z</time></trkpt><trkpt lat="40.521612072217806" lon="0.4162885573105867"><ele>89.0</ele><time>2026-04-19T16:58:37.999Z</time></trkpt><trkpt lat="40.521329377775004" lon="0.4162319094965668"><ele>89.0</ele><time>2026-04-19T16:58:38.999Z</time></trkpt><trkpt lat="40.52104537591832" lon="0.4161751755885385"><ele>89.0</ele><time>2026-04-19T16:58:39.999Z</time></trkpt><trkpt lat="40.52076064953151" lon="0.41611682803832367"><ele>89.0</ele><time>2026-04-19T16:58:40.999Z</time></trkpt><trkpt lat="40.52047669149047" lon="0.4160642508803486"><ele>89.0</ele><time>2026-04-19T16:58:41.999Z</time></trkpt><trkpt lat="40.52018960843065" lon="0.4160125932861744"><ele>90.0</ele><time>2026-04-19T16:58:42.999Z</time></trkpt><trkpt lat="40.51990395467577" lon="0.4159591285570042"><ele>91.0</ele><time>2026-04-19T16:58:43.999Z</time></trkpt><trkpt lat="40.51961731681875" lon="0.4159080109290967"><ele>90.5</ele><time>2026-04-19T16:58:44.999Z</time></trkpt><trkpt lat="40.51933085731288" lon="0.41585927436797093"><ele>90.0</ele><time>2026-04-19T16:58:45.999Z</time></trkpt><trkpt lat="40.5190428860457" lon="0.4158111920391675"><ele>90.0</ele><time>2026-04-19T16:58:46.999Z</time></trkpt><trkpt lat="40.51875624286339" lon="0.41576233891096653"><ele>90.0</ele><time>2026-04-19T16:58:47.999Z</time></trkpt><trkpt lat="40.518468823410565" lon="0.4157178439211572"><ele>89.5</ele><time>2026-04-19T16:58:48.999Z</time></trkpt><trkpt lat="40.51818223456102" lon="0.4156785433356043"><ele>89.0</ele><time>2026-04-19T16:58:49.999Z</time></trkpt><trkpt lat="40.517893261731125" lon="0.4156426401292766"><ele>89.0</ele><time>2026-04-19T16:58:50.999Z</time></trkpt><trkpt lat="40.51760447113177" lon="0.41561216427014314"><ele>89.0</ele><time>2026-04-19T16:58:51.999Z</time></trkpt><trkpt lat="40.517315468382755" lon="0.41557982561872586"><ele>88.5</ele><time>2026-04-19T16:58:52.999Z</time></trkpt><trkpt lat="40.51702762098943" lon="0.41554681508523317"><ele>88.0</ele><time>2026-04-19T16:58:53.999Z</time></trkpt><trkpt lat="40.5167386985295" lon="0.4155142946561243"><ele>88.0</ele><time>2026-04-19T16:58:54.999Z</time></trkpt><trkpt lat="40.516449068474984" lon="0.4154801554850672"><ele>88.0</ele><time>2026-04-19T16:58:55.999Z</time></trkpt><trkpt lat="40.51615916136948" lon="0.41544677148244374"><ele>88.5</ele><time>2026-04-19T16:58:56.999Z</time></trkpt><trkpt lat="40.515866671171004" lon="0.4154178620833823"><ele>89.0</ele><time>2026-04-19T16:58:57.999Z</time></trkpt><trkpt lat="40.51557626262746" lon="0.41539542453448614"><ele>88.5</ele><time>2026-04-19T16:58:58.999Z</time></trkpt><trkpt lat="40.515283428289784" lon="0.41537592067105505"><ele>88.0</ele><time>2026-04-19T16:58:59.999Z</time></trkpt><trkpt lat="40.51499149976991" lon="0.4153604699606931"><ele>88.0</ele><time>2026-04-19T16:59:00.999Z</time></trkpt><trkpt lat="40.514699416213226" lon="0.4153420404541755"><ele>88.0</ele><time>2026-04-19T16:59:01.999Z</time></trkpt><trkpt lat="40.51440650230625" lon="0.415320979924644"><ele>88.0</ele><time>2026-04-19T16:59:02.999Z</time></trkpt><trkpt lat="40.51411112342755" lon="0.41529975837729166"><ele>88.0</ele><time>2026-04-19T16:59:03.999Z</time></trkpt><trkpt lat="40.51381889000901" lon="0.41528209060054844"><ele>87.0</ele><time>2026-04-19T16:59:04.999Z</time></trkpt><trkpt lat="40.51352323172059" lon="0.4152723809865059"><ele>86.0</ele><time>2026-04-19T16:59:05.999Z</time></trkpt><trkpt lat="40.51322892991028" lon="0.4152648341716281"><ele>86.0</ele><time>2026-04-19T16:59:06.999Z</time></trkpt><trkpt lat="40.51293531075892" lon="0.41525680458193476"><ele>86.0</ele><time>2026-04-19T16:59:07.999Z</time></trkpt><trkpt lat="40.51263870983263" lon="0.4152472493724536"><ele>85.0</ele><time>2026-04-19T16:59:08.999Z</time></trkpt><trkpt lat="40.51234797376385" lon="0.41524166368286175"><ele>84.0</ele><time>2026-04-19T16:59:09.999Z</time></trkpt><trkpt lat="40.51205175771321" lon="0.4152381694135091"><ele>84.0</ele><time>2026-04-19T16:59:10.999Z</time></trkpt><trkpt lat="40.51175924774135" lon="0.4152401263961159"><ele>84.0</ele><time>2026-04-19T16:59:11.999Z</time></trkpt><trkpt lat="40.51146833962669" lon="0.415238164995274"><ele>83.0</ele><time>2026-04-19T16:59:12.999Z</time></trkpt><trkpt lat="40.51117894350376" lon="0.4152365136796899"><ele>82.0</ele><time>2026-04-19T16:59:13.999Z</time></trkpt><trkpt lat="40.510885369050854" lon="0.4152368769441956"><ele>82.0</ele><time>2026-04-19T16:59:14.999Z</time></trkpt><trkpt lat="40.51059022904845" lon="0.4152408647141368"><ele>82.0</ele><time>2026-04-19T16:59:15.999Z</time></trkpt><trkpt lat="40.51029661131322" lon="0.41524738102709263"><ele>82.5</ele><time>2026-04-19T16:59:16.999Z</time></trkpt><trkpt lat="40.51000356049595" lon="0.41525981100047127"><ele>83.0</ele><time>2026-04-19T16:59:17.999Z</time></trkpt><trkpt lat="40.50971427884374" lon="0.4152744358177838"><ele>83.0</ele><time>2026-04-19T16:59:18.999Z</time></trkpt><trkpt lat="40.50942145418273" lon="0.41529044111321806"><ele>83.0</ele><time>2026-04-19T16:59:19.999Z</time></trkpt><trkpt lat="40.50912983610247" lon="0.41531141875877325"><ele>83.0</ele><time>2026-04-19T16:59:20.999Z</time></trkpt><trkpt lat="40.508834778001045" lon="0.4153374417883329"><ele>83.0</ele><time>2026-04-19T16:59:21.999Z</time></trkpt><trkpt lat="40.5085428654898" lon="0.4153654914273928"><ele>82.5</ele><time>2026-04-19T16:59:22.999Z</time></trkpt><trkpt lat="40.50825557432168" lon="0.415392596437498"><ele>82.0</ele><time>2026-04-19T16:59:23.999Z</time></trkpt><trkpt lat="40.50796396989708" lon="0.41541794605643795"><ele>81.0</ele><time>2026-04-19T16:59:24.999Z</time></trkpt><trkpt lat="40.507672885059335" lon="0.415439790704869"><ele>80.0</ele><time>2026-04-19T16:59:25.999Z</time></trkpt><trkpt lat="40.50737968858017" lon="0.41545918818728744"><ele>80.0</ele><time>2026-04-19T16:59:26.999Z</time></trkpt><trkpt lat="40.50708590894688" lon="0.41548393674509715"><ele>80.0</ele><time>2026-04-19T16:59:27.998Z</time></trkpt><trkpt lat="40.50679258085704" lon="0.41551198167164305"><ele>79.5</ele><time>2026-04-19T16:59:28.998Z</time></trkpt><trkpt lat="40.506502748359416" lon="0.41554892016392175"><ele>79.0</ele><time>2026-04-19T16:59:29.998Z</time></trkpt><trkpt lat="40.5062103823025" lon="0.41557078872475545"><ele>78.5</ele><time>2026-04-19T16:59:30.998Z</time></trkpt><trkpt lat="40.505920406609064" lon="0.4155923842569235"><ele>78.0</ele><time>2026-04-19T16:59:31.998Z</time></trkpt><trkpt lat="40.50563500218881" lon="0.4156196897855975"><ele>77.5</ele><time>2026-04-19T16:59:32.998Z</time></trkpt><trkpt lat="40.50535379455368" lon="0.4156473554223952"><ele>77.0</ele><time>2026-04-19T16:59:33.998Z</time></trkpt><trkpt lat="40.50506941000727" lon="0.41566860874980227"><ele>77.0</ele><time>2026-04-19T16:59:34.998Z</time></trkpt><trkpt lat="40.504783593139145" lon="0.41568915283650665"><ele>77.0</ele><time>2026-04-19T16:59:35.998Z</time></trkpt><trkpt lat="40.50449705138355" lon="0.4157160800189915"><ele>77.5</ele><time>2026-04-19T16:59:36.998Z</time></trkpt><trkpt lat="40.504209637508275" lon="0.41573786104615545"><ele>78.0</ele><time>2026-04-19T16:59:37.998Z</time></trkpt><trkpt lat="40.503924033571764" lon="0.41575042123874084"><ele>77.0</ele><time>2026-04-19T16:59:39Z</time></trkpt><trkpt lat="40.503643151290575" lon="0.4157700665629265"><ele>76.0</ele><time>2026-04-19T16:59:40Z</time></trkpt><trkpt lat="40.50336435501168" lon="0.4157868098901734"><ele>76.0</ele><time>2026-04-19T16:59:41Z</time></trkpt><trkpt lat="40.50307962389607" lon="0.41579942670893044"><ele>76.0</ele><time>2026-04-19T16:59:42Z</time></trkpt><trkpt lat="40.50279959696734" lon="0.41580916868843715"><ele>75.0</ele><time>2026-04-19T16:59:43Z</time></trkpt><trkpt lat="40.50252183448959" lon="0.4158192553962887"><ele>74.0</ele><time>2026-04-19T16:59:44Z</time></trkpt><trkpt lat="40.50224926608795" lon="0.4158221183816095"><ele>72.5</ele><time>2026-04-19T16:59:45Z</time></trkpt><trkpt lat="40.501977269009146" lon="0.4158236032052002"><ele>71.0</ele><time>2026-04-19T16:59:46Z</time></trkpt><trkpt lat="40.50170733802216" lon="0.415826542521103"><ele>71.0</ele><time>2026-04-19T16:59:47Z</time></trkpt><trkpt lat="40.50143688744675" lon="0.4158297882860489"><ele>71.0</ele><time>2026-04-19T16:59:48Z</time></trkpt><trkpt lat="40.501165971876475" lon="0.4158268057083519"><ele>72.5</ele><time>2026-04-19T16:59:49Z</time></trkpt><trkpt lat="40.50089622971458" lon="0.41581493777796347"><ele>74.0</ele><time>2026-04-19T16:59:50Z</time></trkpt><trkpt lat="40.500629528818365" lon="0.4158105111151242"><ele>74.0</ele><time>2026-04-19T16:59:51Z</time></trkpt><trkpt lat="40.50036216141611" lon="0.4158033623157376"><ele>74.0</ele><time>2026-04-19T16:59:52Z</time></trkpt><trkpt lat="40.500088797507104" lon="0.415792458516105"><ele>74.0</ele><time>2026-04-19T16:59:53Z</time></trkpt><trkpt lat="40.499810778705275" lon="0.41578081424119"><ele>74.0</ele><time>2026-04-19T16:59:54Z</time></trkpt><trkpt lat="40.49953061391858" lon="0.41577146927700265"><ele>73.5</ele><time>2026-04-19T16:59:55Z</time></trkpt><trkpt lat="40.49924720624444" lon="0.415750880472116"><ele>73.0</ele><time>2026-04-19T16:59:56Z</time></trkpt><trkpt lat="40.49896070749257" lon="0.4157201858551903"><ele>73.0</ele><time>2026-04-19T16:59:57Z</time></trkpt><trkpt lat="40.4986685287807" lon="0.4156881573075235"><ele>73.0</ele><time>2026-04-19T16:59:58Z</time></trkpt><trkpt lat="40.49837494595944" lon="0.4156587027641626"><ele>73.0</ele><time>2026-04-19T16:59:59Z</time></trkpt><trkpt lat="40.49808626370424" lon="0.4156280406403499"><ele>73.0</ele><time>2026-04-19T17:00:00Z</time></trkpt><trkpt lat="40.49779627211403" lon="0.41560039156051637"><ele>72.0</ele><time>2026-04-19T17:00:01Z</time></trkpt><trkpt lat="40.497502543363076" lon="0.4155629585810005"><ele>71.0</ele><time>2026-04-19T17:00:02Z</time></trkpt><trkpt lat="40.497207765762965" lon="0.41552303491200326"><ele>71.0</ele><time>2026-04-19T17:00:03Z</time></trkpt><trkpt lat="40.49691335323307" lon="0.41548474926387713"><ele>71.0</ele><time>2026-04-19T17:00:04Z</time></trkpt><trkpt lat="40.49661955324971" lon="0.41544311730107303"><ele>71.0</ele><time>2026-04-19T17:00:05Z</time></trkpt><trkpt lat="40.49632520602285" lon="0.4153999314079265"><ele>71.0</ele><time>2026-04-19T17:00:06Z</time></trkpt><trkpt lat="40.49603439209979" lon="0.41535576563297427"><ele>71.0</ele><time>2026-04-19T17:00:07Z</time></trkpt><trkpt lat="40.495745548513554" lon="0.4153053636778538"><ele>71.0</ele><time>2026-04-19T17:00:08Z</time></trkpt><trkpt lat="40.49545620581687" lon="0.41525477890815965"><ele>71.0</ele><time>2026-04-19T17:00:09Z</time></trkpt><trkpt lat="40.4951649099557" lon="0.4152088878981458"><ele>71.0</ele><time>2026-04-19T17:00:10Z</time></trkpt><trkpt lat="40.49488101716661" lon="0.41516216593307925"><ele>71.0</ele><time>2026-04-19T17:00:11Z</time></trkpt><trkpt lat="40.49459608766757" lon="0.41511970479741994"><ele>71.0</ele><time>2026-04-19T17:00:12Z</time></trkpt><trkpt lat="40.49431203579347" lon="0.41508351354995404"><ele>70.0</ele><time>2026-04-19T17:00:13Z</time></trkpt><trkpt lat="40.49402504603828" lon="0.4150489380561824"><ele>69.0</ele><time>2026-04-19T17:00:14Z</time></trkpt><trkpt lat="40.49374063621555" lon="0.4150206167276652"><ele>69.0</ele><time>2026-04-19T17:00:15Z</time></trkpt><trkpt lat="40.4934543670177" lon="0.4149958707831342"><ele>69.0</ele><time>2026-04-19T17:00:16Z</time></trkpt><trkpt lat="40.49316931483728" lon="0.41497192246328113"><ele>69.0</ele><time>2026-04-19T17:00:17Z</time></trkpt><trkpt lat="40.49288209574424" lon="0.4149506039197277"><ele>69.0</ele><time>2026-04-19T17:00:18Z</time></trkpt><trkpt lat="40.4925961422199" lon="0.4149345786306275"><ele>69.0</ele><time>2026-04-19T17:00:19Z</time></trkpt><trkpt lat="40.49231051927326" lon="0.4149265831250899"><ele>69.0</ele><time>2026-04-19T17:00:20Z</time></trkpt><trkpt lat="40.492022929514576" lon="0.4149241389728104"><ele>67.5</ele><time>2026-04-19T17:00:21Z</time></trkpt><trkpt lat="40.49173410876791" lon="0.41492443003175744"><ele>66.0</ele><time>2026-04-19T17:00:22Z</time></trkpt><trkpt lat="40.49144543709523" lon="0.41493015246677295"><ele>65.5</ele><time>2026-04-19T17:00:23Z</time></trkpt><trkpt lat="40.49115554037839" lon="0.41493348268778046"><ele>65.0</ele><time>2026-04-19T17:00:24Z</time></trkpt><trkpt lat="40.49086609541628" lon="0.41494344484820267"><ele>65.0</ele><time>2026-04-19T17:00:25Z</time></trkpt><trkpt lat="40.49056053468909" lon="0.4149557727190907"><ele>65.0</ele><time>2026-04-19T17:00:26Z</time></trkpt><trkpt lat="40.4902767177132" lon="0.41498064559155484"><ele>63.5</ele><time>2026-04-19T17:00:27Z</time></trkpt><trkpt lat="40.48999060123937" lon="0.4150094006281672"><ele>62.0</ele><time>2026-04-19T17:00:28Z</time></trkpt><trkpt lat="40.489703040390964" lon="0.41504259287476264"><ele>62.0</ele><time>2026-04-19T17:00:28.999Z</time></trkpt><trkpt lat="40.4894163752212" lon="0.41508260986197665"><ele>62.0</ele><time>2026-04-19T17:00:29.999Z</time></trkpt><trkpt lat="40.48913292134675" lon="0.4151314549426417"><ele>62.0</ele><time>2026-04-19T17:00:30.999Z</time></trkpt><trkpt lat="40.48884856533314" lon="0.4151824796360795"><ele>62.0</ele><time>2026-04-19T17:00:31.999Z</time></trkpt><trkpt lat="40.488565296665136" lon="0.4152420880951029"><ele>61.5</ele><time>2026-04-19T17:00:32.999Z</time></trkpt><trkpt lat="40.488281447344974" lon="0.41531128553444063"><ele>61.0</ele><time>2026-04-19T17:00:33.999Z</time></trkpt><trkpt lat="40.48799447294983" lon="0.41538364415612594"><ele>60.5</ele><time>2026-04-19T17:00:34.999Z</time></trkpt><trkpt lat="40.48770684523755" lon="0.4154575897226518"><ele>60.0</ele><time>2026-04-19T17:00:35.999Z</time></trkpt><trkpt lat="40.48741706030472" lon="0.4155328436594963"><ele>59.5</ele><time>2026-04-19T17:00:36.999Z</time></trkpt><trkpt lat="40.4871262514239" lon="0.4156066498632659"><ele>59.0</ele><time>2026-04-19T17:00:37.999Z</time></trkpt><trkpt lat="40.48683515905837" lon="0.41568584221886334"><ele>59.0</ele><time>2026-04-19T17:00:38.999Z</time></trkpt><trkpt lat="40.48654511570695" lon="0.41577407936075456"><ele>59.0</ele><time>2026-04-19T17:00:39.999Z</time></trkpt><trkpt lat="40.48625348172012" lon="0.4158695473564798"><ele>59.0</ele><time>2026-04-19T17:00:40.999Z</time></trkpt><trkpt lat="40.485961949543594" lon="0.4159655060589381"><ele>59.0</ele><time>2026-04-19T17:00:41.999Z</time></trkpt><trkpt lat="40.485674356402214" lon="0.4160699241807221"><ele>57.5</ele><time>2026-04-19T17:00:42.999Z</time></trkpt><trkpt lat="40.485389476792065" lon="0.4161808223083997"><ele>56.0</ele><time>2026-04-19T17:00:43.999Z</time></trkpt><trkpt lat="40.48510304191597" lon="0.4162911525900628"><ele>55.5</ele><time>2026-04-19T17:00:44.999Z</time></trkpt><trkpt lat="40.484817876355976" lon="0.4163984564372175"><ele>55.0</ele><time>2026-04-19T17:00:45.999Z</time></trkpt><trkpt lat="40.48453490946255" lon="0.4165058500390248"><ele>55.0</ele><time>2026-04-19T17:00:46.999Z</time></trkpt><trkpt lat="40.484251883704175" lon="0.41661561438249206"><ele>55.0</ele><time>2026-04-19T17:00:47.999Z</time></trkpt><trkpt lat="40.483973723031895" lon="0.41673600055805304"><ele>55.5</ele><time>2026-04-19T17:00:48.999Z</time></trkpt><trkpt lat="40.48369936961343" lon="0.41686633681606544"><ele>56.0</ele><time>2026-04-19T17:00:49.999Z</time></trkpt><trkpt lat="40.48343215866975" lon="0.41699678628703785"><ele>56.0</ele><time>2026-04-19T17:00:50.999Z</time></trkpt><trkpt lat="40.48316612263974" lon="0.41712400585868864"><ele>56.0</ele><time>2026-04-19T17:00:51.999Z</time></trkpt><trkpt lat="40.482901382236" lon="0.4172490945413859"><ele>55.0</ele><time>2026-04-19T17:00:52.999Z</time></trkpt><trkpt lat="40.482638249615306" lon="0.41737315676968323"><ele>54.0</ele><time>2026-04-19T17:00:53.999Z</time></trkpt><trkpt lat="40.48237744488712" lon="0.4174960407434914"><ele>54.0</ele><time>2026-04-19T17:00:54.999Z</time></trkpt><trkpt lat="40.48211630073657" lon="0.41761650813906437"><ele>54.0</ele><time>2026-04-19T17:00:55.999Z</time></trkpt><trkpt lat="40.48184715216926" lon="0.41773570328863424"><ele>53.0</ele><time>2026-04-19T17:00:56.999Z</time></trkpt><trkpt lat="40.48157576376446" lon="0.4178553027623797"><ele>52.0</ele><time>2026-04-19T17:00:57.999Z</time></trkpt><trkpt lat="40.481299984476856" lon="0.4179727266723138"><ele>51.5</ele><time>2026-04-19T17:00:58.999Z</time></trkpt><trkpt lat="40.481021720291" lon="0.4180861141859428"><ele>51.0</ele><time>2026-04-19T17:00:59.999Z</time></trkpt><trkpt lat="40.48074395944092" lon="0.4181939472359389"><ele>51.0</ele><time>2026-04-19T17:01:00.999Z</time></trkpt><trkpt lat="40.48046424492413" lon="0.41829816599669434"><ele>51.0</ele><time>2026-04-19T17:01:01.999Z</time></trkpt><trkpt lat="40.48017908582447" lon="0.41838964108485055"><ele>50.5</ele><time>2026-04-19T17:01:02.999Z</time></trkpt><trkpt lat="40.47989121596846" lon="0.4184706146963064"><ele>50.0</ele><time>2026-04-19T17:01:03.999Z</time></trkpt><trkpt lat="40.47960501055236" lon="0.4185494408403343"><ele>50.0</ele><time>2026-04-19T17:01:04.999Z</time></trkpt><trkpt lat="40.47931596360947" lon="0.41862108029559686"><ele>50.0</ele><time>2026-04-19T17:01:05.999Z</time></trkpt><trkpt lat="40.47902580942763" lon="0.4186867700252135"><ele>50.0</ele><time>2026-04-19T17:01:06.999Z</time></trkpt><trkpt lat="40.47873060265108" lon="0.4187446502103912"><ele>50.0</ele><time>2026-04-19T17:01:07.999Z</time></trkpt><trkpt lat="40.47843451367102" lon="0.418794067316681"><ele>50.0</ele><time>2026-04-19T17:01:08.999Z</time></trkpt><trkpt lat="40.47813761499145" lon="0.4188369258849265"><ele>50.0</ele><time>2026-04-19T17:01:09.999Z</time></trkpt><trkpt lat="40.4778415538599" lon="0.4188718571965939"><ele>49.5</ele><time>2026-04-19T17:01:10.999Z</time></trkpt><trkpt lat="40.47754221822213" lon="0.418901223591724"><ele>49.0</ele><time>2026-04-19T17:01:11.999Z</time></trkpt><trkpt lat="40.47724202213203" lon="0.41892262569895866"><ele>47.0</ele><time>2026-04-19T17:01:12.999Z</time></trkpt><trkpt lat="40.47694124266421" lon="0.41893318389174095"><ele>45.0</ele><time>2026-04-19T17:01:13.999Z</time></trkpt><trkpt lat="40.47664318307417" lon="0.41893784386937366"><ele>45.0</ele><time>2026-04-19T17:01:14.999Z</time></trkpt><trkpt lat="40.476348211792455" lon="0.41893967976145985"><ele>45.0</ele><time>2026-04-19T17:01:15.999Z</time></trkpt><trkpt lat="40.4760532524765" lon="0.41893669147087664"><ele>45.5</ele><time>2026-04-19T17:01:16.999Z</time></trkpt><trkpt lat="40.475755988586755" lon="0.4189208122253433"><ele>46.0</ele><time>2026-04-19T17:01:17.999Z</time></trkpt><trkpt lat="40.475460462092876" lon="0.4188934002288856"><ele>47.0</ele><time>2026-04-19T17:01:18.999Z</time></trkpt><trkpt lat="40.47516740486815" lon="0.41885881381775714"><ele>48.0</ele><time>2026-04-19T17:01:19.999Z</time></trkpt><trkpt lat="40.47487418317306" lon="0.4188188893994392"><ele>50.0</ele><time>2026-04-19T17:01:20.999Z</time></trkpt><trkpt lat="40.47458001264519" lon="0.4187707707222043"><ele>52.0</ele><time>2026-04-19T17:01:21.999Z</time></trkpt><trkpt lat="40.47428693358065" lon="0.418713013937651"><ele>52.0</ele><time>2026-04-19T17:01:22.999Z</time></trkpt><trkpt lat="40.47399471004798" lon="0.41864859127171195"><ele>52.0</ele><time>2026-04-19T17:01:23.999Z</time></trkpt><trkpt lat="40.4736992579591" lon="0.4185773978424676"><ele>50.5</ele><time>2026-04-19T17:01:24.999Z</time></trkpt><trkpt lat="40.47340647727992" lon="0.41850028750243073"><ele>49.0</ele><time>2026-04-19T17:01:25.999Z</time></trkpt><trkpt lat="40.473117245482364" lon="0.4184082491238312"><ele>47.5</ele><time>2026-04-19T17:01:26.999Z</time></trkpt><trkpt lat="40.47282871369484" lon="0.41831759013700076"><ele>46.0</ele><time>2026-04-19T17:01:27.999Z</time></trkpt><trkpt lat="40.47254271388004" lon="0.4182145984137072"><ele>46.0</ele><time>2026-04-19T17:01:28.999Z</time></trkpt><trkpt lat="40.47226198750508" lon="0.41810729009261216"><ele>46.0</ele><time>2026-04-19T17:01:29.999Z</time></trkpt><trkpt lat="40.47198455886148" lon="0.4179971380492773"><ele>46.0</ele><time>2026-04-19T17:01:30.999Z</time></trkpt><trkpt lat="40.471711590386136" lon="0.41787790812968667"><ele>46.0</ele><time>2026-04-19T17:01:31.999Z</time></trkpt><trkpt lat="40.47144699180333" lon="0.41775121012659217"><ele>45.5</ele><time>2026-04-19T17:01:32.998Z</time></trkpt><trkpt lat="40.47118663634853" lon="0.41762450926595907"><ele>45.0</ele><time>2026-04-19T17:01:33.998Z</time></trkpt><trkpt lat="40.47093142632863" lon="0.4174957835999591"><ele>45.0</ele><time>2026-04-19T17:01:34.998Z</time></trkpt><trkpt lat="40.47068078868945" lon="0.4173612799330285"><ele>45.0</ele><time>2026-04-19T17:01:35.998Z</time></trkpt><trkpt lat="40.470434670583025" lon="0.41721971552638715"><ele>44.5</ele><time>2026-04-19T17:01:36.998Z</time></trkpt><trkpt lat="40.470191286602855" lon="0.4170714470677647"><ele>44.0</ele><time>2026-04-19T17:01:37.998Z</time></trkpt><trkpt lat="40.46994892441394" lon="0.4169142912702555"><ele>44.0</ele><time>2026-04-19T17:01:38.998Z</time></trkpt><trkpt lat="40.46970997193209" lon="0.416751412053697"><ele>44.0</ele><time>2026-04-19T17:01:39.998Z</time></trkpt><trkpt lat="40.469474711559805" lon="0.41658140222248236"><ele>45.0</ele><time>2026-04-19T17:01:40.998Z</time></trkpt><trkpt lat="40.469245570864366" lon="0.41640351786241797"><ele>46.0</ele><time>2026-04-19T17:01:41.998Z</time></trkpt><trkpt lat="40.46901578137366" lon="0.4162213541777592"><ele>45.5</ele><time>2026-04-19T17:01:42.998Z</time></trkpt><trkpt lat="40.46879117359325" lon="0.416041237371797"><ele>45.0</ele><time>2026-04-19T17:01:43.998Z</time></trkpt><trkpt lat="40.46856593459161" lon="0.41586311543958304"><ele>45.0</ele><time>2026-04-19T17:01:45Z</time></trkpt><trkpt lat="40.46834275749663" lon="0.41567837357367504"><ele>45.0</ele><time>2026-04-19T17:01:46Z</time></trkpt><trkpt lat="40.468120298293556" lon="0.4154838930343148"><ele>45.0</ele><time>2026-04-19T17:01:47Z</time></trkpt><trkpt lat="40.46790043722751" lon="0.4152811675914481"><ele>45.0</ele><time>2026-04-19T17:01:48Z</time></trkpt><trkpt lat="40.467681288609946" lon="0.4150697897828465"><ele>45.0</ele><time>2026-04-19T17:01:49Z</time></trkpt><trkpt lat="40.46746464830472" lon="0.4148558415309066"><ele>45.0</ele><time>2026-04-19T17:01:50Z</time></trkpt><trkpt lat="40.46725238745402" lon="0.4146408636305126"><ele>44.0</ele><time>2026-04-19T17:01:51Z</time></trkpt><trkpt lat="40.46704629667034" lon="0.4144211828566285"><ele>43.0</ele><time>2026-04-19T17:01:52Z</time></trkpt><trkpt lat="40.46684652545135" lon="0.41420433443935106"><ele>43.0</ele><time>2026-04-19T17:01:53Z</time></trkpt><trkpt lat="40.46664899607654" lon="0.41398974259337823"><ele>43.0</ele><time>2026-04-19T17:01:54Z</time></trkpt><trkpt lat="40.46645562206487" lon="0.413767146039516"><ele>44.5</ele><time>2026-04-19T17:01:55Z</time></trkpt><trkpt lat="40.46626600476271" lon="0.41354273340164466"><ele>46.0</ele><time>2026-04-19T17:01:56Z</time></trkpt><trkpt lat="40.46607713862578" lon="0.4133166332678105"><ele>46.0</ele><time>2026-04-19T17:01:57Z</time></trkpt><trkpt lat="40.465889935492335" lon="0.413092451669532"><ele>46.0</ele><time>2026-04-19T17:01:58Z</time></trkpt><trkpt lat="40.46569969023529" lon="0.41286780244291826"><ele>46.5</ele><time>2026-04-19T17:01:59Z</time></trkpt><trkpt lat="40.46550377134787" lon="0.41263760637946845"><ele>47.0</ele><time>2026-04-19T17:02:00Z</time></trkpt><trkpt lat="40.46530495402145" lon="0.4124000276174914"><ele>47.5</ele><time>2026-04-19T17:02:01Z</time></trkpt><trkpt lat="40.465104568040125" lon="0.41216337966039"><ele>48.0</ele><time>2026-04-19T17:02:02Z</time></trkpt><trkpt lat="40.464905287442384" lon="0.4119246754858938"><ele>48.0</ele><time>2026-04-19T17:02:03Z</time></trkpt><trkpt lat="40.46470097661532" lon="0.4116907384692805"><ele>48.0</ele><time>2026-04-19T17:02:04Z</time></trkpt><trkpt lat="40.46449455777997" lon="0.41145578960768714"><ele>48.5</ele><time>2026-04-19T17:02:05Z</time></trkpt><trkpt lat="40.464288641821845" lon="0.4112234882584555"><ele>49.0</ele><time>2026-04-19T17:02:06Z</time></trkpt><trkpt lat="40.46408446465799" lon="0.41099401363369603"><ele>49.0</ele><time>2026-04-19T17:02:07Z</time></trkpt><trkpt lat="40.46387899348884" lon="0.4107692320686882"><ele>49.0</ele><time>2026-04-19T17:02:08Z</time></trkpt><trkpt lat="40.46367237917958" lon="0.4105440603108954"><ele>49.5</ele><time>2026-04-19T17:02:09Z</time></trkpt><trkpt lat="40.46346439401108" lon="0.4103227280393196"><ele>50.0</ele><time>2026-04-19T17:02:10Z</time></trkpt><trkpt lat="40.46325394253403" lon="0.41010209006558146"><ele>50.0</ele><time>2026-04-19T17:02:11Z</time></trkpt><trkpt lat="40.463042039738404" lon="0.40988754069093225"><ele>50.0</ele><time>2026-04-19T17:02:12Z</time></trkpt><trkpt lat="40.46283375163258" lon="0.40967443759346256"><ele>50.5</ele><time>2026-04-19T17:02:13Z</time></trkpt><trkpt lat="40.46262096968483" lon="0.409466688220297"><ele>51.0</ele><time>2026-04-19T17:02:14Z</time></trkpt><trkpt lat="40.46241243051761" lon="0.40926154303129775"><ele>51.0</ele><time>2026-04-19T17:02:15Z</time></trkpt><trkpt lat="40.46220079087783" lon="0.4090610377967343"><ele>51.0</ele><time>2026-04-19T17:02:16Z</time></trkpt><trkpt lat="40.46198568151544" lon="0.4088602277986548"><ele>50.5</ele><time>2026-04-19T17:02:17Z</time></trkpt><trkpt lat="40.461772378263504" lon="0.40865970944210095"><ele>50.0</ele><time>2026-04-19T17:02:18Z</time></trkpt><trkpt lat="40.46155649354524" lon="0.40846704592577593"><ele>50.0</ele><time>2026-04-19T17:02:19Z</time></trkpt><trkpt lat="40.46133825349727" lon="0.40827242703189476"><ele>50.0</ele><time>2026-04-19T17:02:20Z</time></trkpt><trkpt lat="40.46111909635492" lon="0.40807525578686665"><ele>50.5</ele><time>2026-04-19T17:02:21Z</time></trkpt><trkpt lat="40.460900501456976" lon="0.4078799452649206"><ele>51.0</ele><time>2026-04-19T17:02:22Z</time></trkpt><trkpt lat="40.460674491894466" lon="0.4076877752173263"><ele>51.5</ele><time>2026-04-19T17:02:23Z</time></trkpt><trkpt lat="40.46044933286954" lon="0.40749932106857695"><ele>52.0</ele><time>2026-04-19T17:02:24Z</time></trkpt><trkpt lat="40.46022031406639" lon="0.4073036309770825"><ele>53.0</ele><time>2026-04-19T17:02:25Z</time></trkpt><trkpt lat="40.45998357144637" lon="0.407113838906526"><ele>54.0</ele><time>2026-04-19T17:02:26Z</time></trkpt><trkpt lat="40.459746934059226" lon="0.40692138253932786"><ele>54.5</ele><time>2026-04-19T17:02:27Z</time></trkpt><trkpt lat="40.45950756860509" lon="0.40672442159675304"><ele>55.0</ele><time>2026-04-19T17:02:28Z</time></trkpt><trkpt lat="40.4592637597946" lon="0.4065359510137386"><ele>55.0</ele><time>2026-04-19T17:02:29Z</time></trkpt><trkpt lat="40.45901684696993" lon="0.4063589450176534"><ele>55.0</ele><time>2026-04-19T17:02:30Z</time></trkpt><trkpt lat="40.458768332636105" lon="0.4061863603832311"><ele>54.0</ele><time>2026-04-19T17:02:31Z</time></trkpt><trkpt lat="40.45851802760828" lon="0.4060052873832491"><ele>53.0</ele><time>2026-04-19T17:02:32Z</time></trkpt><trkpt lat="40.45826491231306" lon="0.4058298824534827"><ele>53.0</ele><time>2026-04-19T17:02:32.999Z</time></trkpt><trkpt lat="40.45801010182108" lon="0.40566209109004264"><ele>53.0</ele><time>2026-04-19T17:02:33.999Z</time></trkpt><trkpt lat="40.45774690759371" lon="0.40549270510072377"><ele>51.5</ele><time>2026-04-19T17:02:34.999Z</time></trkpt><trkpt lat="40.45749337816843" lon="0.4053204317167084"><ele>50.0</ele><time>2026-04-19T17:02:35.999Z</time></trkpt><trkpt lat="40.457240962512294" lon="0.405146878025681"><ele>50.5</ele><time>2026-04-19T17:02:36.999Z</time></trkpt><trkpt lat="40.456986302764186" lon="0.40497948157717517"><ele>51.0</ele><time>2026-04-19T17:02:37.999Z</time></trkpt><trkpt lat="40.4567313141643" lon="0.4048165771461673"><ele>51.5</ele><time>2026-04-19T17:02:38.999Z</time></trkpt><trkpt lat="40.456478523737395" lon="0.40465116954482555"><ele>52.0</ele><time>2026-04-19T17:02:39.999Z</time></trkpt><trkpt lat="40.456223029692815" lon="0.40448311586386226"><ele>52.5</ele><time>2026-04-19T17:02:40.999Z</time></trkpt><trkpt lat="40.455969744084875" lon="0.404311649703435"><ele>53.0</ele><time>2026-04-19T17:02:41.999Z</time></trkpt><trkpt lat="40.455719148229186" lon="0.40414167326923506"><ele>53.0</ele><time>2026-04-19T17:02:42.999Z</time></trkpt><trkpt lat="40.45546605115098" lon="0.4039725833757391"><ele>53.0</ele><time>2026-04-19T17:02:43.999Z</time></trkpt><trkpt lat="40.45521650372233" lon="0.4038041862650487"><ele>52.0</ele><time>2026-04-19T17:02:44.999Z</time></trkpt><trkpt lat="40.454969160602914" lon="0.40363570980943175"><ele>51.0</ele><time>2026-04-19T17:02:45.999Z</time></trkpt><trkpt lat="40.45471956847904" lon="0.4034693128750167"><ele>50.5</ele><time>2026-04-19T17:02:46.999Z</time></trkpt><trkpt lat="40.45446675046702" lon="0.40330369738563315"><ele>50.0</ele><time>2026-04-19T17:02:47.999Z</time></trkpt><trkpt lat="40.4542213350264" lon="0.40313762644626433"><ele>50.0</ele><time>2026-04-19T17:02:48.999Z</time></trkpt><trkpt lat="40.45397258137224" lon="0.4029699158507423"><ele>50.0</ele><time>2026-04-19T17:02:49.999Z</time></trkpt><trkpt lat="40.45372741105855" lon="0.4027986571151469"><ele>49.0</ele><time>2026-04-19T17:02:50.999Z</time></trkpt><trkpt lat="40.453485926933325" lon="0.40261835659020445"><ele>48.0</ele><time>2026-04-19T17:02:51.999Z</time></trkpt><trkpt lat="40.45324009511309" lon="0.4024317867539226"><ele>48.0</ele><time>2026-04-19T17:02:52.999Z</time></trkpt><trkpt lat="40.45299633486898" lon="0.40224276349619964"><ele>48.0</ele><time>2026-04-19T17:02:53.999Z</time></trkpt><trkpt lat="40.452752210922036" lon="0.40205403732727746"><ele>48.0</ele><time>2026-04-19T17:02:54.999Z</time></trkpt><trkpt lat="40.452507670435956" lon="0.40185679734528823"><ele>48.0</ele><time>2026-04-19T17:02:55.999Z</time></trkpt><trkpt lat="40.452265063904896" lon="0.4016611575869981"><ele>49.5</ele><time>2026-04-19T17:02:56.999Z</time></trkpt><trkpt lat="40.452025874978744" lon="0.4014601969059506"><ele>51.0</ele><time>2026-04-19T17:02:57.999Z</time></trkpt><trkpt lat="40.45178733427343" lon="0.40125634808292643"><ele>51.0</ele><time>2026-04-19T17:02:58.999Z</time></trkpt><trkpt lat="40.45155149592793" lon="0.4010474221213563"><ele>51.0</ele><time>2026-04-19T17:02:59.999Z</time></trkpt><trkpt lat="40.451316581653614" lon="0.40083577678424276"><ele>51.0</ele><time>2026-04-19T17:03:00.999Z</time></trkpt><trkpt lat="40.4510833445189" lon="0.4006191026248815"><ele>51.0</ele><time>2026-04-19T17:03:01.999Z</time></trkpt><trkpt lat="40.45085109425252" lon="0.40040009298344315"><ele>52.0</ele><time>2026-04-19T17:03:02.999Z</time></trkpt><trkpt lat="40.450618036131445" lon="0.400178505874715"><ele>53.0</ele><time>2026-04-19T17:03:03.999Z</time></trkpt><trkpt lat="40.45038593536476" lon="0.39995545124184906"><ele>53.0</ele><time>2026-04-19T17:03:04.999Z</time></trkpt><trkpt lat="40.450154164651856" lon="0.3997365427365476"><ele>53.0</ele><time>2026-04-19T17:03:05.999Z</time></trkpt><trkpt lat="40.449921629939546" lon="0.3995134699947462"><ele>53.0</ele><time>2026-04-19T17:03:06.999Z</time></trkpt><trkpt lat="40.44968702165125" lon="0.3992888168393205"><ele>53.0</ele><time>2026-04-19T17:03:07.999Z</time></trkpt><trkpt lat="40.44946205406082" lon="0.39905900067013095"><ele>54.0</ele><time>2026-04-19T17:03:08.999Z</time></trkpt><trkpt lat="40.44923598837483" lon="0.3988280262807133"><ele>55.0</ele><time>2026-04-19T17:03:09.999Z</time></trkpt><trkpt lat="40.449006714667924" lon="0.3986009934825716"><ele>54.5</ele><time>2026-04-19T17:03:10.999Z</time></trkpt><trkpt lat="40.44878083577849" lon="0.39836790245478787"><ele>54.0</ele><time>2026-04-19T17:03:11.999Z</time></trkpt><trkpt lat="40.44855295035186" lon="0.39813167179668096"><ele>53.5</ele><time>2026-04-19T17:03:12.999Z</time></trkpt><trkpt lat="40.44832508003777" lon="0.3978982927813376"><ele>53.0</ele><time>2026-04-19T17:03:13.999Z</time></trkpt><trkpt lat="40.44809753938349" lon="0.3976684868627035"><ele>53.5</ele><time>2026-04-19T17:03:14.999Z</time></trkpt><trkpt lat="40.44787152499289" lon="0.39743980737665396"><ele>54.0</ele><time>2026-04-19T17:03:15.999Z</time></trkpt><trkpt lat="40.447645300234086" lon="0.3972108945124498"><ele>54.0</ele><time>2026-04-19T17:03:16.999Z</time></trkpt><trkpt lat="40.44741812135852" lon="0.39697795354392074"><ele>54.0</ele><time>2026-04-19T17:03:17.999Z</time></trkpt><trkpt lat="40.44719140008344" lon="0.3967468499516805"><ele>54.0</ele><time>2026-04-19T17:03:18.999Z</time></trkpt><trkpt lat="40.44696533420609" lon="0.3965155238135029"><ele>54.0</ele><time>2026-04-19T17:03:19.999Z</time></trkpt><trkpt lat="40.446739819950515" lon="0.39627968063315183"><ele>54.0</ele><time>2026-04-19T17:03:20.999Z</time></trkpt><trkpt lat="40.44651632035656" lon="0.39604524108747363"><ele>54.0</ele><time>2026-04-19T17:03:21.999Z</time></trkpt><trkpt lat="40.44629042604967" lon="0.395814709516036"><ele>53.5</ele><time>2026-04-19T17:03:22.999Z</time></trkpt><trkpt lat="40.446066416922854" lon="0.39558880054877776"><ele>53.0</ele><time>2026-04-19T17:03:23.999Z</time></trkpt><trkpt lat="40.445843029685115" lon="0.3953637314126634"><ele>53.0</ele><time>2026-04-19T17:03:24.999Z</time></trkpt><trkpt lat="40.44561990737838" lon="0.3951430118127089"><ele>53.0</ele><time>2026-04-19T17:03:25.999Z</time></trkpt><trkpt lat="40.44539641974263" lon="0.3949275586855609"><ele>53.0</ele><time>2026-04-19T17:03:26.999Z</time></trkpt><trkpt lat="40.44516837221922" lon="0.39471639237192824"><ele>53.0</ele><time>2026-04-19T17:03:27.999Z</time></trkpt><trkpt lat="40.444940970984206" lon="0.3945082448539646"><ele>53.0</ele><time>2026-04-19T17:03:28.999Z</time></trkpt><trkpt lat="40.44471153552296" lon="0.39430012309192736"><ele>53.0</ele><time>2026-04-19T17:03:29.999Z</time></trkpt><trkpt lat="40.44448395622065" lon="0.39409476815951966"><ele>53.5</ele><time>2026-04-19T17:03:30.999Z</time></trkpt><trkpt lat="40.44425444660696" lon="0.3938920576163956"><ele>54.0</ele><time>2026-04-19T17:03:31.999Z</time></trkpt><trkpt lat="40.44402273193686" lon="0.39369201997005426"><ele>52.5</ele><time>2026-04-19T17:03:32.999Z</time></trkpt><trkpt lat="40.44379282696558" lon="0.3934964461681148"><ele>51.0</ele><time>2026-04-19T17:03:33.999Z</time></trkpt><trkpt lat="40.44356577647345" lon="0.3933037892864927"><ele>51.0</ele><time>2026-04-19T17:03:34.999Z</time></trkpt><trkpt lat="40.44333607413078" lon="0.3931144134241369"><ele>51.0</ele><time>2026-04-19T17:03:35.998Z</time></trkpt><trkpt lat="40.44310805548447" lon="0.392929919329289"><ele>50.0</ele><time>2026-04-19T17:03:36.998Z</time></trkpt><trkpt lat="40.44287527149736" lon="0.39274580442347984"><ele>49.0</ele><time>2026-04-19T17:03:37.998Z</time></trkpt><trkpt lat="40.44264159750989" lon="0.3925590248252291"><ele>49.0</ele><time>2026-04-19T17:03:38.998Z</time></trkpt><trkpt lat="40.442403295002066" lon="0.3923759603598398"><ele>49.0</ele><time>2026-04-19T17:03:39.998Z</time></trkpt><trkpt lat="40.442161991582594" lon="0.3921952112542852"><ele>50.0</ele><time>2026-04-19T17:03:40.998Z</time></trkpt><trkpt lat="40.441917360089015" lon="0.3920105175752386"><ele>51.0</ele><time>2026-04-19T17:03:41.998Z</time></trkpt><trkpt lat="40.44167435074269" lon="0.39182707571265946"><ele>51.0</ele><time>2026-04-19T17:03:42.998Z</time></trkpt><trkpt lat="40.441428172272005" lon="0.3916480134471384"><ele>51.0</ele><time>2026-04-19T17:03:43.998Z</time></trkpt><trkpt lat="40.44117902333159" lon="0.39147323535633444"><ele>51.5</ele><time>2026-04-19T17:03:44.998Z</time></trkpt><trkpt lat="40.44092469225412" lon="0.39130008051143056"><ele>52.0</ele><time>2026-04-19T17:03:45.998Z</time></trkpt><trkpt lat="40.440668713584714" lon="0.3911282536309907"><ele>50.5</ele><time>2026-04-19T17:03:46.998Z</time></trkpt><trkpt lat="40.440408491715814" lon="0.390957017546876"><ele>49.0</ele><time>2026-04-19T17:03:47.998Z</time></trkpt><trkpt lat="40.44014796665574" lon="0.390785950180346"><ele>49.0</ele><time>2026-04-19T17:03:48.998Z</time></trkpt><trkpt lat="40.4398884257325" lon="0.3906163651298556"><ele>49.0</ele><time>2026-04-19T17:03:49.998Z</time></trkpt><trkpt lat="40.439623231030474" lon="0.39044754749555627"><ele>49.0</ele><time>2026-04-19T17:03:51Z</time></trkpt><trkpt lat="40.43935636366613" lon="0.39028012251758426"><ele>49.0</ele><time>2026-04-19T17:03:52Z</time></trkpt><trkpt lat="40.43909060756331" lon="0.39011625961374824"><ele>49.0</ele><time>2026-04-19T17:03:53Z</time></trkpt><trkpt lat="40.43881896669285" lon="0.38995946106987345"><ele>49.0</ele><time>2026-04-19T17:03:54Z</time></trkpt><trkpt lat="40.43854453295632" lon="0.389803219720432"><ele>46.5</ele><time>2026-04-19T17:03:55Z</time></trkpt><trkpt lat="40.4382700436914" lon="0.38965112136591457"><ele>44.0</ele><time>2026-04-19T17:03:56Z</time></trkpt><trkpt lat="40.437992133253886" lon="0.38950062113661943"><ele>43.0</ele><time>2026-04-19T17:03:57Z</time></trkpt><trkpt lat="40.43771408116297" lon="0.3893485086126989"><ele>42.0</ele><time>2026-04-19T17:03:58Z</time></trkpt><trkpt lat="40.4374323597334" lon="0.3892021437087082"><ele>42.0</ele><time>2026-04-19T17:03:59Z</time></trkpt><trkpt lat="40.43715139899616" lon="0.3890588636699487"><ele>42.0</ele><time>2026-04-19T17:04:00Z</time></trkpt><trkpt lat="40.4368736000409" lon="0.3889204836734666"><ele>43.5</ele><time>2026-04-19T17:04:01Z</time></trkpt><trkpt lat="40.43659337571007" lon="0.38878160044012156"><ele>45.0</ele><time>2026-04-19T17:04:02Z</time></trkpt><trkpt lat="40.436311654587904" lon="0.3886436848300262"><ele>44.0</ele><time>2026-04-19T17:04:03Z</time></trkpt><trkpt lat="40.43603172848661" lon="0.3885129788301377"><ele>43.0</ele><time>2026-04-19T17:04:04Z</time></trkpt><trkpt lat="40.43575395412424" lon="0.3883834328544808"><ele>43.0</ele><time>2026-04-19T17:04:05Z</time></trkpt><trkpt lat="40.435480282661" lon="0.3882565981534755"><ele>43.0</ele><time>2026-04-19T17:04:06Z</time></trkpt><trkpt lat="40.43520823755989" lon="0.3881378869234723"><ele>42.5</ele><time>2026-04-19T17:04:07Z</time></trkpt><trkpt lat="40.43494080736039" lon="0.38802050256043297"><ele>42.0</ele><time>2026-04-19T17:04:08Z</time></trkpt><trkpt lat="40.43467404387184" lon="0.3878966623517863"><ele>41.0</ele><time>2026-04-19T17:04:09Z</time></trkpt><trkpt lat="40.43441206898964" lon="0.38777866022898344"><ele>40.0</ele><time>2026-04-19T17:04:10Z</time></trkpt><trkpt lat="40.43415809552242" lon="0.3876599672824969"><ele>40.0</ele><time>2026-04-19T17:04:11Z</time></trkpt><trkpt lat="40.43390027904535" lon="0.3875425612427596"><ele>40.0</ele><time>2026-04-19T17:04:12Z</time></trkpt><trkpt lat="40.43364227916836" lon="0.3874247121555836"><ele>40.0</ele><time>2026-04-19T17:04:13Z</time></trkpt><trkpt lat="40.433391792524624" lon="0.3873093808763615"><ele>40.0</ele><time>2026-04-19T17:04:14Z</time></trkpt><trkpt lat="40.43313347384342" lon="0.38719223298282707"><ele>40.0</ele><time>2026-04-19T17:04:15Z</time></trkpt><trkpt lat="40.432879623360186" lon="0.38707997009357864"><ele>40.0</ele><time>2026-04-19T17:04:16Z</time></trkpt><trkpt lat="40.432622742300204" lon="0.3869568954858836"><ele>40.0</ele><time>2026-04-19T17:04:17Z</time></trkpt><trkpt lat="40.432368803154816" lon="0.386837999702991"><ele>40.0</ele><time>2026-04-19T17:04:18Z</time></trkpt><trkpt lat="40.43210695021189" lon="0.38671766781891415"><ele>39.0</ele><time>2026-04-19T17:04:19Z</time></trkpt><trkpt lat="40.43184297512383" lon="0.3865981936681959"><ele>38.0</ele><time>2026-04-19T17:04:20Z</time></trkpt><trkpt lat="40.431581515036754" lon="0.38646533369916586"><ele>37.5</ele><time>2026-04-19T17:04:21Z</time></trkpt><trkpt lat="40.43131577543301" lon="0.38633295510077953"><ele>37.0</ele><time>2026-04-19T17:04:22Z</time></trkpt><trkpt lat="40.43105208245693" lon="0.38619821788509107"><ele>37.0</ele><time>2026-04-19T17:04:23Z</time></trkpt><trkpt lat="40.43078111772631" lon="0.38605667095949187"><ele>37.0</ele><time>2026-04-19T17:04:24Z</time></trkpt><trkpt lat="40.430513151817934" lon="0.3859187702125634"><ele>37.0</ele><time>2026-04-19T17:04:25Z</time></trkpt><trkpt lat="40.430245832959386" lon="0.3857795885989167"><ele>37.0</ele><time>2026-04-19T17:04:26Z</time></trkpt><trkpt lat="40.42997902592796" lon="0.38563075478072073"><ele>37.0</ele><time>2026-04-19T17:04:27Z</time></trkpt><trkpt lat="40.429708775170525" lon="0.38548393173922485"><ele>37.0</ele><time>2026-04-19T17:04:28Z</time></trkpt><trkpt lat="40.429438705468435" lon="0.38533129116148296"><ele>36.0</ele><time>2026-04-19T17:04:29Z</time></trkpt><trkpt lat="40.4291744282041" lon="0.38517875704663246"><ele>35.0</ele><time>2026-04-19T17:04:30Z</time></trkpt><trkpt lat="40.42890559595165" lon="0.38502029658254777"><ele>34.5</ele><time>2026-04-19T17:04:31Z</time></trkpt><trkpt lat="40.428643048127206" lon="0.3848657165540872"><ele>34.0</ele><time>2026-04-19T17:04:32Z</time></trkpt><trkpt lat="40.42838256815901" lon="0.3847035231284349"><ele>34.5</ele><time>2026-04-19T17:04:33Z</time></trkpt><trkpt lat="40.428129301633625" lon="0.3845454011994278"><ele>35.0</ele><time>2026-04-19T17:04:34Z</time></trkpt><trkpt lat="40.427873668007585" lon="0.38438520505234014"><ele>33.0</ele><time>2026-04-19T17:04:34.999Z</time></trkpt><trkpt lat="40.42762269031847" lon="0.3842231854555611"><ele>31.0</ele><time>2026-04-19T17:04:35.999Z</time></trkpt><trkpt lat="40.42736749019722" lon="0.38406076609723505"><ele>31.5</ele><time>2026-04-19T17:04:36.999Z</time></trkpt><trkpt lat="40.42711928856733" lon="0.38390420826034954"><ele>32.0</ele><time>2026-04-19T17:04:37.999Z</time></trkpt><trkpt lat="40.42686869847591" lon="0.38373407948772115"><ele>32.5</ele><time>2026-04-19T17:04:38.999Z</time></trkpt><trkpt lat="40.4266218551023" lon="0.38355777573710587"><ele>33.0</ele><time>2026-04-19T17:04:39.999Z</time></trkpt><trkpt lat="40.42637348942351" lon="0.3833786292564352"><ele>33.0</ele><time>2026-04-19T17:04:40.999Z</time></trkpt><trkpt lat="40.4261245405291" lon="0.38320636185813284"><ele>33.0</ele><time>2026-04-19T17:04:41.999Z</time></trkpt><trkpt lat="40.42587506620265" lon="0.3830358901417378"><ele>33.0</ele><time>2026-04-19T17:04:42.999Z</time></trkpt><trkpt lat="40.425626939957844" lon="0.38286005363033754"><ele>33.0</ele><time>2026-04-19T17:04:43.999Z</time></trkpt><trkpt lat="40.42538056018773" lon="0.3826797015499057"><ele>32.0</ele><time>2026-04-19T17:04:44.999Z</time></trkpt><trkpt lat="40.42513655023366" lon="0.38249300908394057"><ele>31.0</ele><time>2026-04-19T17:04:45.999Z</time></trkpt><trkpt lat="40.424892604641414" lon="0.3823094782530812"><ele>30.5</ele><time>2026-04-19T17:04:46.999Z</time></trkpt><trkpt lat="40.42465255092607" lon="0.382121565259689"><ele>30.0</ele><time>2026-04-19T17:04:47.999Z</time></trkpt><trkpt lat="40.42441114454889" lon="0.3819306402775321"><ele>29.5</ele><time>2026-04-19T17:04:48.999Z</time></trkpt><trkpt lat="40.42417521878739" lon="0.3817472798418316"><ele>29.0</ele><time>2026-04-19T17:04:49.999Z</time></trkpt><trkpt lat="40.42394028522306" lon="0.3815563481884911"><ele>29.0</ele><time>2026-04-19T17:04:50.999Z</time></trkpt><trkpt lat="40.42370770742237" lon="0.3813664687015369"><ele>29.0</ele><time>2026-04-19T17:04:51.999Z</time></trkpt><trkpt lat="40.42347452263066" lon="0.38117390359498426"><ele>29.5</ele><time>2026-04-19T17:04:52.999Z</time></trkpt><trkpt lat="40.42324086164421" lon="0.3809799382583865"><ele>30.0</ele><time>2026-04-19T17:04:53.999Z</time></trkpt><trkpt lat="40.423008245170735" lon="0.3807865643422999"><ele>30.0</ele><time>2026-04-19T17:04:54.999Z</time></trkpt><trkpt lat="40.42277552777401" lon="0.38059273042134084"><ele>30.0</ele><time>2026-04-19T17:04:55.999Z</time></trkpt><trkpt lat="40.422541220692274" lon="0.3803924938278367"><ele>30.0</ele><time>2026-04-19T17:04:56.999Z</time></trkpt><trkpt lat="40.42230935476445" lon="0.3801837019820234"><ele>30.0</ele><time>2026-04-19T17:04:57.999Z</time></trkpt><trkpt lat="40.42208302175494" lon="0.3799775968149863"><ele>29.5</ele><time>2026-04-19T17:04:58.999Z</time></trkpt><trkpt lat="40.42185979398376" lon="0.3797748312410602"><ele>29.0</ele><time>2026-04-19T17:04:59.999Z</time></trkpt><trkpt lat="40.42163650177457" lon="0.37957401087101056"><ele>29.5</ele><time>2026-04-19T17:05:00.999Z</time></trkpt><trkpt lat="40.42141403547421" lon="0.37936712108443416"><ele>30.0</ele><time>2026-04-19T17:05:01.999Z</time></trkpt><trkpt lat="40.421198806910496" lon="0.3791611353938035"><ele>30.0</ele><time>2026-04-19T17:05:02.999Z</time></trkpt><trkpt lat="40.42098394576168" lon="0.3789561919669667"><ele>30.0</ele><time>2026-04-19T17:05:03.999Z</time></trkpt><trkpt lat="40.420767742961566" lon="0.37875298909509036"><ele>31.0</ele><time>2026-04-19T17:05:04.999Z</time></trkpt><trkpt lat="40.42055206633172" lon="0.3785448004452204"><ele>32.0</ele><time>2026-04-19T17:05:05.999Z</time></trkpt><trkpt lat="40.420333779132605" lon="0.37833659953543086"><ele>32.5</ele><time>2026-04-19T17:05:06.999Z</time></trkpt><trkpt lat="40.42011319115257" lon="0.3781260586977542"><ele>33.0</ele><time>2026-04-19T17:05:07.999Z</time></trkpt><trkpt lat="40.41989679874448" lon="0.3779177804698574"><ele>34.0</ele><time>2026-04-19T17:05:08.999Z</time></trkpt><trkpt lat="40.41967977126709" lon="0.37770841571180563"><ele>35.0</ele><time>2026-04-19T17:05:09.999Z</time></trkpt><trkpt lat="40.41946443700119" lon="0.37750107524793364"><ele>34.5</ele><time>2026-04-19T17:05:10.999Z</time></trkpt><trkpt lat="40.41924842098871" lon="0.3772956396695547"><ele>34.0</ele><time>2026-04-19T17:05:11.999Z</time></trkpt><trkpt lat="40.41902879955338" lon="0.37708464153374444"><ele>33.0</ele><time>2026-04-19T17:05:12.999Z</time></trkpt><trkpt lat="40.418811437949984" lon="0.3768761466034398"><ele>32.0</ele><time>2026-04-19T17:05:13.999Z</time></trkpt><trkpt lat="40.418596906373494" lon="0.3766642124097498"><ele>32.0</ele><time>2026-04-19T17:05:14.999Z</time></trkpt><trkpt lat="40.418382999644024" lon="0.3764559911784563"><ele>32.0</ele><time>2026-04-19T17:05:15.999Z</time></trkpt><trkpt lat="40.41816856533623" lon="0.3762546705440509"><ele>33.0</ele><time>2026-04-19T17:05:16.999Z</time></trkpt><trkpt lat="40.41794818634426" lon="0.37605488971861645"><ele>34.0</ele><time>2026-04-19T17:05:17.999Z</time></trkpt><trkpt lat="40.417727554321914" lon="0.37585184979190195"><ele>34.0</ele><time>2026-04-19T17:05:18.999Z</time></trkpt><trkpt lat="40.417505762421335" lon="0.375654600698877"><ele>34.0</ele><time>2026-04-19T17:05:19.999Z</time></trkpt><trkpt lat="40.41729107785242" lon="0.37545840912149386"><ele>36.5</ele><time>2026-04-19T17:05:20.999Z</time></trkpt><trkpt lat="40.417073244750576" lon="0.37526087644253214"><ele>39.0</ele><time>2026-04-19T17:05:21.999Z</time></trkpt><trkpt lat="40.416855614434674" lon="0.37506303762326376"><ele>39.0</ele><time>2026-04-19T17:05:22.999Z</time></trkpt><trkpt lat="40.416632605182976" lon="0.37487539179989005"><ele>39.0</ele><time>2026-04-19T17:05:23.999Z</time></trkpt><trkpt lat="40.41641272182796" lon="0.3746854177295684"><ele>39.0</ele><time>2026-04-19T17:05:24.999Z</time></trkpt><trkpt lat="40.41618262524769" lon="0.37449685132048743"><ele>39.0</ele><time>2026-04-19T17:05:25.999Z</time></trkpt><trkpt lat="40.41596061816316" lon="0.3743077673208928"><ele>39.0</ele><time>2026-04-19T17:05:26.999Z</time></trkpt><trkpt lat="40.41573159585427" lon="0.37412925629156996"><ele>39.0</ele><time>2026-04-19T17:05:27.999Z</time></trkpt><trkpt lat="40.415501768382825" lon="0.3739513104421247"><ele>40.0</ele><time>2026-04-19T17:05:28.999Z</time></trkpt><trkpt lat="40.41526606507986" lon="0.37377988747201485"><ele>41.0</ele><time>2026-04-19T17:05:29.999Z</time></trkpt><trkpt lat="40.41501415191284" lon="0.37361319384324826"><ele>41.0</ele><time>2026-04-19T17:05:30.999Z</time></trkpt><trkpt lat="40.4147701886634" lon="0.37343609985467957"><ele>41.0</ele><time>2026-04-19T17:05:31.999Z</time></trkpt><trkpt lat="40.414524592165506" lon="0.37325698633135507"><ele>41.0</ele><time>2026-04-19T17:05:32.999Z</time></trkpt><trkpt lat="40.414275670038876" lon="0.3730766399082361"><ele>41.0</ele><time>2026-04-19T17:05:33.999Z</time></trkpt><trkpt lat="40.41402353549793" lon="0.3729065852665166"><ele>39.5</ele><time>2026-04-19T17:05:34.999Z</time></trkpt><trkpt lat="40.41377569498801" lon="0.37274230247295626"><ele>38.0</ele><time>2026-04-19T17:05:35.999Z</time></trkpt><trkpt lat="40.41352163914541" lon="0.37257139221413327"><ele>38.0</ele><time>2026-04-19T17:05:36.999Z</time></trkpt><trkpt lat="40.41326674192435" lon="0.37240556364256977"><ele>38.0</ele><time>2026-04-19T17:05:37.999Z</time></trkpt><trkpt lat="40.41300754421484" lon="0.3722467232777594"><ele>38.5</ele><time>2026-04-19T17:05:38.999Z</time></trkpt><trkpt lat="40.412751564551094" lon="0.37210470428639636"><ele>39.0</ele><time>2026-04-19T17:05:39.998Z</time></trkpt><trkpt lat="40.41249178642764" lon="0.3719653230242232"><ele>39.0</ele><time>2026-04-19T17:05:40.998Z</time></trkpt><trkpt lat="40.41223133191468" lon="0.3718270311785094"><ele>39.0</ele><time>2026-04-19T17:05:41.998Z</time></trkpt><trkpt lat="40.41197054120502" lon="0.37169768542288684"><ele>38.5</ele><time>2026-04-19T17:05:42.998Z</time></trkpt><trkpt lat="40.41170644260999" lon="0.3715739275972707"><ele>38.0</ele><time>2026-04-19T17:05:43.998Z</time></trkpt><trkpt lat="40.41143823651142" lon="0.3714566198033245"><ele>39.5</ele><time>2026-04-19T17:05:44.998Z</time></trkpt><trkpt lat="40.4111657026487" lon="0.3713481981915416"><ele>41.0</ele><time>2026-04-19T17:05:45.998Z</time></trkpt><trkpt lat="40.41089369437547" lon="0.37124174394782583"><ele>41.0</ele><time>2026-04-19T17:05:46.998Z</time></trkpt><trkpt lat="40.41062041660128" lon="0.37113720355630203"><ele>41.0</ele><time>2026-04-19T17:05:47.998Z</time></trkpt><trkpt lat="40.41034294074162" lon="0.37104065607205744"><ele>41.0</ele><time>2026-04-19T17:05:48.998Z</time></trkpt><trkpt lat="40.410066160913566" lon="0.37094749874336835"><ele>41.0</ele><time>2026-04-19T17:05:49.998Z</time></trkpt><trkpt lat="40.409786370443" lon="0.3708648293619398"><ele>40.5</ele><time>2026-04-19T17:05:50.998Z</time></trkpt><trkpt lat="40.40950765991641" lon="0.37078803573988367"><ele>40.0</ele><time>2026-04-19T17:05:51.998Z</time></trkpt><trkpt lat="40.40922440389498" lon="0.370719752344691"><ele>40.0</ele><time>2026-04-19T17:05:52.998Z</time></trkpt><trkpt lat="40.40894528197324" lon="0.37065660247244203"><ele>40.0</ele><time>2026-04-19T17:05:53.998Z</time></trkpt><trkpt lat="40.40866583610767" lon="0.3705965550931118"><ele>40.0</ele><time>2026-04-19T17:05:54.998Z</time></trkpt><trkpt lat="40.408386633616864" lon="0.3705317943894087"><ele>40.0</ele><time>2026-04-19T17:05:55.998Z</time></trkpt><trkpt lat="40.40811448408999" lon="0.37047280860026754"><ele>41.0</ele><time>2026-04-19T17:05:57Z</time></trkpt><trkpt lat="40.40783580062402" lon="0.37042556456304543"><ele>42.0</ele><time>2026-04-19T17:05:58Z</time></trkpt><trkpt lat="40.40755479935287" lon="0.37038908219875627"><ele>42.0</ele><time>2026-04-19T17:05:59Z</time></trkpt><trkpt lat="40.40727447451143" lon="0.37035825803333844"><ele>42.0</ele><time>2026-04-19T17:06:00Z</time></trkpt><trkpt lat="40.40699497599844" lon="0.3703297446120085"><ele>41.0</ele><time>2026-04-19T17:06:01Z</time></trkpt><trkpt lat="40.4067138104869" lon="0.3703106402854947"><ele>40.0</ele><time>2026-04-19T17:06:02Z</time></trkpt><trkpt lat="40.40643149175122" lon="0.3703010519714332"><ele>39.5</ele><time>2026-04-19T17:06:03Z</time></trkpt><trkpt lat="40.40614614100235" lon="0.37029316675167295"><ele>39.0</ele><time>2026-04-19T17:06:04Z</time></trkpt><trkpt lat="40.40586079904573" lon="0.3702895108045531"><ele>39.0</ele><time>2026-04-19T17:06:05Z</time></trkpt><trkpt lat="40.40557554138643" lon="0.37028861300717014"><ele>39.0</ele><time>2026-04-19T17:06:06Z</time></trkpt><trkpt lat="40.405296147409025" lon="0.3702921981464212"><ele>37.0</ele><time>2026-04-19T17:06:07Z</time></trkpt><trkpt lat="40.405016379262705" lon="0.3703061902859904"><ele>35.0</ele><time>2026-04-19T17:06:08Z</time></trkpt><trkpt lat="40.40473708588579" lon="0.3703245240201687"><ele>34.0</ele><time>2026-04-19T17:06:09Z</time></trkpt><trkpt lat="40.40446497009598" lon="0.37034920839118496"><ele>33.0</ele><time>2026-04-19T17:06:10Z</time></trkpt><trkpt lat="40.404197646538236" lon="0.37038377067008527"><ele>33.0</ele><time>2026-04-19T17:06:11Z</time></trkpt><trkpt lat="40.40393123072502" lon="0.3704172641583131"><ele>33.0</ele><time>2026-04-19T17:06:12Z</time></trkpt><trkpt lat="40.403660791753055" lon="0.3704444859983117"><ele>34.0</ele><time>2026-04-19T17:06:13Z</time></trkpt><trkpt lat="40.40338775499364" lon="0.3704780636918805"><ele>35.0</ele><time>2026-04-19T17:06:14Z</time></trkpt><trkpt lat="40.403117002020736" lon="0.3705136142371053"><ele>36.5</ele><time>2026-04-19T17:06:15Z</time></trkpt><trkpt lat="40.40284774569422" lon="0.37055175488705944"><ele>38.0</ele><time>2026-04-19T17:06:16Z</time></trkpt><trkpt lat="40.40257790073811" lon="0.3705873633323067"><ele>38.0</ele><time>2026-04-19T17:06:17Z</time></trkpt><trkpt lat="40.40230687112092" lon="0.3706240214757617"><ele>38.0</ele><time>2026-04-19T17:06:18Z</time></trkpt><trkpt lat="40.40203638756284" lon="0.3706572248521057"><ele>40.0</ele><time>2026-04-19T17:06:19Z</time></trkpt><trkpt lat="40.40176633873574" lon="0.3706885418442427"><ele>42.0</ele><time>2026-04-19T17:06:20Z</time></trkpt><trkpt lat="40.40149494992606" lon="0.37071005624056524"><ele>40.5</ele><time>2026-04-19T17:06:21Z</time></trkpt><trkpt lat="40.4012206912779" lon="0.37071488737470404"><ele>39.0</ele><time>2026-04-19T17:06:22Z</time></trkpt><trkpt lat="40.40093839753618" lon="0.3707059955524305"><ele>39.0</ele><time>2026-04-19T17:06:23Z</time></trkpt><trkpt lat="40.400652931871264" lon="0.37067819237264754"><ele>39.0</ele><time>2026-04-19T17:06:24Z</time></trkpt><trkpt lat="40.400384432418576" lon="0.37065322686806734"><ele>39.0</ele><time>2026-04-19T17:06:25Z</time></trkpt><trkpt lat="40.40010766839551" lon="0.3706108756128944"><ele>39.0</ele><time>2026-04-19T17:06:26Z</time></trkpt><trkpt lat="40.39983119538793" lon="0.370562365384297"><ele>39.0</ele><time>2026-04-19T17:06:27Z</time></trkpt><trkpt lat="40.39955447972479" lon="0.3705036582597496"><ele>39.0</ele><time>2026-04-19T17:06:28Z</time></trkpt><trkpt lat="40.399277653011396" lon="0.3704351936698788"><ele>39.0</ele><time>2026-04-19T17:06:29Z</time></trkpt><trkpt lat="40.39900374180655" lon="0.37035052923636436"><ele>39.0</ele><time>2026-04-19T17:06:30Z</time></trkpt><trkpt lat="40.39873015117424" lon="0.37024633699707793"><ele>39.0</ele><time>2026-04-19T17:06:31Z</time></trkpt><trkpt lat="40.39845761479117" lon="0.3701356154255176"><ele>39.0</ele><time>2026-04-19T17:06:32Z</time></trkpt><trkpt lat="40.39818580111424" lon="0.3700116978118775"><ele>38.5</ele><time>2026-04-19T17:06:33Z</time></trkpt><trkpt lat="40.39792037509439" lon="0.3698818722231492"><ele>38.0</ele><time>2026-04-19T17:06:34Z</time></trkpt><trkpt lat="40.39765363800661" lon="0.369740586727601"><ele>38.5</ele><time>2026-04-19T17:06:35Z</time></trkpt><trkpt lat="40.39739115788418" lon="0.3695862113562054"><ele>39.0</ele><time>2026-04-19T17:06:36Z</time></trkpt><trkpt lat="40.39713818319958" lon="0.3694223120185275"><ele>40.0</ele><time>2026-04-19T17:06:37Z</time></trkpt><trkpt lat="40.396889465967" lon="0.3692542650918447"><ele>41.0</ele><time>2026-04-19T17:06:38Z</time></trkpt><trkpt lat="40.3966501227341" lon="0.3690736572514008"><ele>41.0</ele><time>2026-04-19T17:06:39Z</time></trkpt><trkpt lat="40.39641898770516" lon="0.3688870202802276"><ele>41.0</ele><time>2026-04-19T17:06:40Z</time></trkpt><trkpt lat="40.39619053243468" lon="0.36868970496174847"><ele>42.0</ele><time>2026-04-19T17:06:41Z</time></trkpt><trkpt lat="40.39596721056291" lon="0.36847545562096695"><ele>43.0</ele><time>2026-04-19T17:06:42Z</time></trkpt><trkpt lat="40.3957433521123" lon="0.36824827541860866"><ele>43.5</ele><time>2026-04-19T17:06:42.999Z</time></trkpt><trkpt lat="40.39552741545179" lon="0.368016046354886"><ele>44.0</ele><time>2026-04-19T17:06:43.999Z</time></trkpt><trkpt lat="40.39531409755748" lon="0.3677732739655227"><ele>45.5</ele><time>2026-04-19T17:06:44.999Z</time></trkpt><trkpt lat="40.39510619318911" lon="0.36752069571211365"><ele>47.0</ele><time>2026-04-19T17:06:45.999Z</time></trkpt><trkpt lat="40.394902507398974" lon="0.3672639897153644"><ele>47.5</ele><time>2026-04-19T17:06:46.999Z</time></trkpt><trkpt lat="40.39470436474223" lon="0.3670018921878812"><ele>48.0</ele><time>2026-04-19T17:06:47.999Z</time></trkpt><trkpt lat="40.39451483288489" lon="0.36672940534851406"><ele>48.5</ele><time>2026-04-19T17:06:48.999Z</time></trkpt><trkpt lat="40.394335913764316" lon="0.3664451261499835"><ele>49.0</ele><time>2026-04-19T17:06:49.999Z</time></trkpt><trkpt lat="40.39416262955555" lon="0.36615570760359667"><ele>50.0</ele><time>2026-04-19T17:06:50.999Z</time></trkpt><trkpt lat="40.393993777976895" lon="0.36585563786886477"><ele>51.0</ele><time>2026-04-19T17:06:51.999Z</time></trkpt><trkpt lat="40.393828900345" lon="0.3655469534657616"><ele>52.5</ele><time>2026-04-19T17:06:52.999Z</time></trkpt><trkpt lat="40.39366941866189" lon="0.36523759839639736"><ele>54.0</ele><time>2026-04-19T17:06:53.999Z</time></trkpt><trkpt lat="40.3935259028398" lon="0.36491632966549387"><ele>54.0</ele><time>2026-04-19T17:06:54.999Z</time></trkpt><trkpt lat="40.393388698631014" lon="0.3645905418512523"><ele>54.0</ele><time>2026-04-19T17:06:55.999Z</time></trkpt><trkpt lat="40.393256638216684" lon="0.3642580337860887"><ele>54.0</ele><time>2026-04-19T17:06:56.999Z</time></trkpt><trkpt lat="40.393133865219944" lon="0.3639216379096885"><ele>54.0</ele><time>2026-04-19T17:06:57.999Z</time></trkpt><trkpt lat="40.39301644393338" lon="0.3635821952509506"><ele>56.0</ele><time>2026-04-19T17:06:58.999Z</time></trkpt><trkpt lat="40.3929085907261" lon="0.36324176793416046"><ele>58.0</ele><time>2026-04-19T17:06:59.999Z</time></trkpt><trkpt lat="40.392817359461134" lon="0.36289605612676784"><ele>59.5</ele><time>2026-04-19T17:07:00.999Z</time></trkpt><trkpt lat="40.39273123207821" lon="0.36255225766589316"><ele>61.0</ele><time>2026-04-19T17:07:01.999Z</time></trkpt><trkpt lat="40.39265267136647" lon="0.3622023698922788"><ele>61.0</ele><time>2026-04-19T17:07:02.999Z</time></trkpt><trkpt lat="40.39258152395839" lon="0.36184668067573683"><ele>61.0</ele><time>2026-04-19T17:07:03.999Z</time></trkpt><trkpt lat="40.3925145638323" lon="0.3614902151273669"><ele>61.0</ele><time>2026-04-19T17:07:04.999Z</time></trkpt><trkpt lat="40.39245836496909" lon="0.3611292641518989"><ele>61.0</ele><time>2026-04-19T17:07:05.999Z</time></trkpt><trkpt lat="40.392405571245504" lon="0.36076665095839894"><ele>61.0</ele><time>2026-04-19T17:07:06.999Z</time></trkpt><trkpt lat="40.39235979849337" lon="0.36039999165880676"><ele>61.0</ele><time>2026-04-19T17:07:07.999Z</time></trkpt><trkpt lat="40.39231498782802" lon="0.3600242364222771"><ele>61.5</ele><time>2026-04-19T17:07:08.999Z</time></trkpt><trkpt lat="40.3922689735614" lon="0.35964673779459844"><ele>62.0</ele><time>2026-04-19T17:07:09.999Z</time></trkpt><trkpt lat="40.39222324015111" lon="0.3592648921915552"><ele>62.0</ele><time>2026-04-19T17:07:10.999Z</time></trkpt><trkpt lat="40.39217903882314" lon="0.3588840587674162"><ele>62.0</ele><time>2026-04-19T17:07:11.999Z</time></trkpt><trkpt lat="40.39213187598704" lon="0.3585008017833233"><ele>65.5</ele><time>2026-04-19T17:07:12.999Z</time></trkpt><trkpt lat="40.392077650261534" lon="0.3581242625441048"><ele>69.0</ele><time>2026-04-19T17:07:13.999Z</time></trkpt><trkpt lat="40.39202006266983" lon="0.35774740438374497"><ele>69.0</ele><time>2026-04-19T17:07:14.999Z</time></trkpt><trkpt lat="40.39196041655492" lon="0.3573738954900002"><ele>69.0</ele><time>2026-04-19T17:07:15.999Z</time></trkpt><trkpt lat="40.39189602553447" lon="0.3570028249126942"><ele>69.0</ele><time>2026-04-19T17:07:16.999Z</time></trkpt><trkpt lat="40.39182352216784" lon="0.35663958124783884"><ele>69.0</ele><time>2026-04-19T17:07:17.999Z</time></trkpt><trkpt lat="40.39174433303531" lon="0.35627943311507887"><ele>69.0</ele><time>2026-04-19T17:07:18.999Z</time></trkpt><trkpt lat="40.391667011953196" lon="0.355929974363036"><ele>69.0</ele><time>2026-04-19T17:07:19.999Z</time></trkpt><trkpt lat="40.39158663906804" lon="0.3555798691950428"><ele>69.0</ele><time>2026-04-19T17:07:20.999Z</time></trkpt><trkpt lat="40.39150159836688" lon="0.35522783306568423"><ele>69.0</ele><time>2026-04-19T17:07:21.999Z</time></trkpt><trkpt lat="40.391413468993356" lon="0.35487747054819135"><ele>72.5</ele><time>2026-04-19T17:07:22.999Z</time></trkpt><trkpt lat="40.39132103247002" lon="0.35453167591572293"><ele>76.0</ele><time>2026-04-19T17:07:23.999Z</time></trkpt><trkpt lat="40.39122338169754" lon="0.3541873659356761"><ele>74.0</ele><time>2026-04-19T17:07:24.999Z</time></trkpt><trkpt lat="40.391120054866825" lon="0.3538442238701467"><ele>72.0</ele><time>2026-04-19T17:07:25.999Z</time></trkpt><trkpt lat="40.39101366450676" lon="0.3535059586870115"><ele>72.0</ele><time>2026-04-19T17:07:26.999Z</time></trkpt><trkpt lat="40.390901303474735" lon="0.35316873734679854"><ele>72.0</ele><time>2026-04-19T17:07:27.999Z</time></trkpt><trkpt lat="40.39078296769413" lon="0.3528384494270299"><ele>71.5</ele><time>2026-04-19T17:07:28.999Z</time></trkpt><trkpt lat="40.390663398422106" lon="0.35251790124664856"><ele>71.0</ele><time>2026-04-19T17:07:29.999Z</time></trkpt><trkpt lat="40.390535855445954" lon="0.3521998907050463"><ele>76.0</ele><time>2026-04-19T17:07:30.999Z</time></trkpt><trkpt lat="40.390406770948935" lon="0.3518888575413708"><ele>81.0</ele><time>2026-04-19T17:07:31.999Z</time></trkpt><trkpt lat="40.39027230519698" lon="0.35157659616799464"><ele>78.0</ele><time>2026-04-19T17:07:32.999Z</time></trkpt><trkpt lat="40.39013365499147" lon="0.35126826390436283"><ele>75.0</ele><time>2026-04-19T17:07:33.999Z</time></trkpt><trkpt lat="40.3899945227618" lon="0.3509639907178388"><ele>75.0</ele><time>2026-04-19T17:07:34.999Z</time></trkpt><trkpt lat="40.38985137794985" lon="0.35066882934970794"><ele>75.0</ele><time>2026-04-19T17:07:35.999Z</time></trkpt><trkpt lat="40.38970620158027" lon="0.35037623024007664"><ele>80.0</ele><time>2026-04-19T17:07:36.999Z</time></trkpt><trkpt lat="40.389557700882584" lon="0.35008499286842004"><ele>85.0</ele><time>2026-04-19T17:07:37.999Z</time></trkpt><trkpt lat="40.389403204806165" lon="0.34979682501837445"><ele>81.0</ele><time>2026-04-19T17:07:38.999Z</time></trkpt><trkpt lat="40.38924643677359" lon="0.34951574882860514"><ele>77.0</ele><time>2026-04-19T17:07:39.999Z</time></trkpt><trkpt lat="40.38908126793872" lon="0.349232068976511"><ele>77.0</ele><time>2026-04-19T17:07:40.999Z</time></trkpt><trkpt lat="40.38891458040005" lon="0.3489525912353254"><ele>77.0</ele><time>2026-04-19T17:07:41.999Z</time></trkpt><trkpt lat="40.38874351912482" lon="0.34867355938355415"><ele>78.5</ele><time>2026-04-19T17:07:42.999Z</time></trkpt><trkpt lat="40.388568390571955" lon="0.34840421352013656"><ele>80.0</ele><time>2026-04-19T17:07:43.999Z</time></trkpt><trkpt lat="40.388388146704905" lon="0.34813720145544713"><ele>79.0</ele><time>2026-04-19T17:07:44.999Z</time></trkpt><trkpt lat="40.38820216405804" lon="0.3478665286803183"><ele>78.0</ele><time>2026-04-19T17:07:45.999Z</time></trkpt><trkpt lat="40.38800978316987" lon="0.3475988749551178"><ele>82.0</ele><time>2026-04-19T17:07:46.999Z</time></trkpt><trkpt lat="40.38781129710655" lon="0.3473378319197552"><ele>86.0</ele><time>2026-04-19T17:07:47.999Z</time></trkpt><trkpt lat="40.387609787931666" lon="0.34707995828479954"><ele>86.0</ele><time>2026-04-19T17:07:48.998Z</time></trkpt><trkpt lat="40.38740392860302" lon="0.3468239869936336"><ele>86.0</ele><time>2026-04-19T17:07:49.998Z</time></trkpt><trkpt lat="40.38719766909589" lon="0.3465719443883549"><ele>87.5</ele><time>2026-04-19T17:07:50.998Z</time></trkpt><trkpt lat="40.386988808791315" lon="0.3463267889555104"><ele>89.0</ele><time>2026-04-19T17:07:51.998Z</time></trkpt><trkpt lat="40.3867760022568" lon="0.3460853538446834"><ele>89.0</ele><time>2026-04-19T17:07:52.998Z</time></trkpt><trkpt lat="40.38655549832302" lon="0.34584493805128574"><ele>89.0</ele><time>2026-04-19T17:07:53.998Z</time></trkpt><trkpt lat="40.38633697239082" lon="0.34560520987625926"><ele>91.5</ele><time>2026-04-19T17:07:54.998Z</time></trkpt><trkpt lat="40.3861118594103" lon="0.34537148290870756"><ele>94.0</ele><time>2026-04-19T17:07:55.998Z</time></trkpt><trkpt lat="40.38587976001721" lon="0.3451452474742731"><ele>94.0</ele><time>2026-04-19T17:07:56.998Z</time></trkpt><trkpt lat="40.385641797297176" lon="0.3449243526011894"><ele>94.0</ele><time>2026-04-19T17:07:57.998Z</time></trkpt><trkpt lat="40.38539937985536" lon="0.3447090402747929"><ele>94.0</ele><time>2026-04-19T17:07:58.998Z</time></trkpt><trkpt lat="40.385155765514185" lon="0.34449118587641425"><ele>94.0</ele><time>2026-04-19T17:07:59.998Z</time></trkpt><trkpt lat="40.384905733839595" lon="0.34428110012444224"><ele>98.0</ele><time>2026-04-19T17:08:00.998Z</time></trkpt><trkpt lat="40.3846521266535" lon="0.34407745908390885"><ele>102.0</ele><time>2026-04-19T17:08:01.998Z</time></trkpt><trkpt lat="40.384391141609086" lon="0.34388117080815317"><ele>100.0</ele><time>2026-04-19T17:08:03Z</time></trkpt><trkpt lat="40.38412892331193" lon="0.3436973519819825"><ele>98.0</ele><time>2026-04-19T17:08:04Z</time></trkpt><trkpt lat="40.383863009777265" lon="0.34352206631413856"><ele>97.0</ele><time>2026-04-19T17:08:05Z</time></trkpt><trkpt lat="40.38360067909678" lon="0.3433449763972814"><ele>96.0</ele><time>2026-04-19T17:08:06Z</time></trkpt><trkpt lat="40.38334475031122" lon="0.34317098335042506"><ele>95.0</ele><time>2026-04-19T17:08:07Z</time></trkpt><trkpt lat="40.38308424169935" lon="0.3429796781025558"><ele>94.0</ele><time>2026-04-19T17:08:08Z</time></trkpt><trkpt lat="40.3828332624836" lon="0.34282590972096855"><ele>94.0</ele><time>2026-04-19T17:08:09Z</time></trkpt><trkpt lat="40.38258613801307" lon="0.3426700021927738"><ele>94.0</ele><time>2026-04-19T17:08:10Z</time></trkpt><trkpt lat="40.382338873953756" lon="0.3425041508106486"><ele>94.0</ele><time>2026-04-19T17:08:11Z</time></trkpt><trkpt lat="40.38209004664711" lon="0.34234888154043996"><ele>94.0</ele><time>2026-04-19T17:08:12Z</time></trkpt><trkpt lat="40.381840940893106" lon="0.3421982548816125"><ele>94.0</ele><time>2026-04-19T17:08:13Z</time></trkpt><trkpt lat="40.38159869527643" lon="0.34202916316090587"><ele>94.0</ele><time>2026-04-19T17:08:14Z</time></trkpt><trkpt lat="40.381352964737644" lon="0.3418675496249796"><ele>96.0</ele><time>2026-04-19T17:08:15Z</time></trkpt><trkpt lat="40.38111054418041" lon="0.3417124746469117"><ele>98.0</ele><time>2026-04-19T17:08:16Z</time></trkpt><trkpt lat="40.38086644385587" lon="0.34154835890388024"><ele>98.0</ele><time>2026-04-19T17:08:17Z</time></trkpt><trkpt lat="40.38062271394734" lon="0.3413833137653324"><ele>98.0</ele><time>2026-04-19T17:08:18Z</time></trkpt><trkpt lat="40.38038412458606" lon="0.3412046182842101"><ele>97.5</ele><time>2026-04-19T17:08:19Z</time></trkpt><trkpt lat="40.380145930797696" lon="0.3410188365847279"><ele>97.0</ele><time>2026-04-19T17:08:20Z</time></trkpt><trkpt lat="40.37990505785141" lon="0.34082321434543467"><ele>97.0</ele><time>2026-04-19T17:08:21Z</time></trkpt><trkpt lat="40.37966690008336" lon="0.3406288584210529"><ele>97.0</ele><time>2026-04-19T17:08:22Z</time></trkpt><trkpt lat="40.37942644354565" lon="0.3404234011115936"><ele>97.0</ele><time>2026-04-19T17:08:23Z</time></trkpt><trkpt lat="40.37918654358569" lon="0.3402166192741926"><ele>97.0</ele><time>2026-04-19T17:08:24Z</time></trkpt><trkpt lat="40.378947050540674" lon="0.33999883518220086"><ele>97.5</ele><time>2026-04-19T17:08:25Z</time></trkpt><trkpt lat="40.378712990464884" lon="0.3397761239609772"><ele>98.0</ele><time>2026-04-19T17:08:26Z</time></trkpt><trkpt lat="40.37847449392614" lon="0.3395403553030304"><ele>98.0</ele><time>2026-04-19T17:08:27Z</time></trkpt><trkpt lat="40.378243580636514" lon="0.33930345744014323"><ele>98.0</ele><time>2026-04-19T17:08:28Z</time></trkpt><trkpt lat="40.37801349513219" lon="0.3390655940748616"><ele>100.5</ele><time>2026-04-19T17:08:29Z</time></trkpt><trkpt lat="40.37778532342882" lon="0.3388143467601571"><ele>103.0</ele><time>2026-04-19T17:08:30Z</time></trkpt><trkpt lat="40.377567723989" lon="0.33854511019935923"><ele>103.0</ele><time>2026-04-19T17:08:31Z</time></trkpt><trkpt lat="40.37735148427909" lon="0.3382884102950179"><ele>103.0</ele><time>2026-04-19T17:08:32Z</time></trkpt><trkpt lat="40.377135368126396" lon="0.3380381214391084"><ele>104.0</ele><time>2026-04-19T17:08:33Z</time></trkpt><trkpt lat="40.37692510217857" lon="0.3377847744779649"><ele>105.0</ele><time>2026-04-19T17:08:34Z</time></trkpt><trkpt lat="40.37671432838586" lon="0.33753257661299524"><ele>105.0</ele><time>2026-04-19T17:08:35Z</time></trkpt><trkpt lat="40.37650256150844" lon="0.3372769960094115"><ele>105.0</ele><time>2026-04-19T17:08:36Z</time></trkpt><trkpt lat="40.37629432180052" lon="0.3370209419437628"><ele>106.5</ele><time>2026-04-19T17:08:37Z</time></trkpt><trkpt lat="40.37608862292045" lon="0.33676991434622744"><ele>108.0</ele><time>2026-04-19T17:08:38Z</time></trkpt><trkpt lat="40.3758833316062" lon="0.3365170565798166"><ele>108.5</ele><time>2026-04-19T17:08:39Z</time></trkpt><trkpt lat="40.37567612578274" lon="0.3362656874985194"><ele>109.0</ele><time>2026-04-19T17:08:40Z</time></trkpt><trkpt lat="40.375471358550016" lon="0.3360203041526224"><ele>109.0</ele><time>2026-04-19T17:08:41Z</time></trkpt><trkpt lat="40.375261954931446" lon="0.33577355084619354"><ele>109.0</ele><time>2026-04-19T17:08:42Z</time></trkpt><trkpt lat="40.37505571507347" lon="0.33552798890282665"><ele>106.5</ele><time>2026-04-19T17:08:43Z</time></trkpt><trkpt lat="40.37484872359004" lon="0.3352805772863829"><ele>104.0</ele><time>2026-04-19T17:08:44Z</time></trkpt><trkpt lat="40.37463607689434" lon="0.3350392855003621"><ele>107.0</ele><time>2026-04-19T17:08:45Z</time></trkpt><trkpt lat="40.374425531306095" lon="0.3347979660576042"><ele>110.0</ele><time>2026-04-19T17:08:46Z</time></trkpt><trkpt lat="40.374207819653854" lon="0.3345612808206349"><ele>110.0</ele><time>2026-04-19T17:08:47Z</time></trkpt><trkpt lat="40.373989658813585" lon="0.334323066412767"><ele>110.0</ele><time>2026-04-19T17:08:48Z</time></trkpt><trkpt lat="40.37376904849042" lon="0.3340918283204866"><ele>110.5</ele><time>2026-04-19T17:08:49Z</time></trkpt><trkpt lat="40.37354001502602" lon="0.3338682048726668"><ele>111.0</ele><time>2026-04-19T17:08:50Z</time></trkpt><trkpt lat="40.37331880025513" lon="0.33364293644336046"><ele>111.0</ele><time>2026-04-19T17:08:50.999Z</time></trkpt><trkpt lat="40.37309282495271" lon="0.3334196995471996"><ele>111.0</ele><time>2026-04-19T17:08:51.999Z</time></trkpt><trkpt lat="40.37286400678538" lon="0.3331986267959574"><ele>110.5</ele><time>2026-04-19T17:08:52.999Z</time></trkpt><trkpt lat="40.37262970272626" lon="0.3329821294263496"><ele>110.0</ele><time>2026-04-19T17:08:53.999Z</time></trkpt><trkpt lat="40.37239590047944" lon="0.3327611241549655"><ele>112.0</ele><time>2026-04-19T17:08:54.999Z</time></trkpt><trkpt lat="40.37216200270276" lon="0.3325421948455626"><ele>114.0</ele><time>2026-04-19T17:08:55.999Z</time></trkpt><trkpt lat="40.371923622018386" lon="0.3323296723263748"><ele>112.5</ele><time>2026-04-19T17:08:56.999Z</time></trkpt><trkpt lat="40.37168200641356" lon="0.33211504934907843"><ele>111.0</ele><time>2026-04-19T17:08:57.999Z</time></trkpt><trkpt lat="40.37143969585672" lon="0.33191689806346253"><ele>113.5</ele><time>2026-04-19T17:08:58.999Z</time></trkpt><trkpt lat="40.37119662495215" lon="0.33172234122330063"><ele>116.0</ele><time>2026-04-19T17:08:59.999Z</time></trkpt><trkpt lat="40.37095334554505" lon="0.3315293581742234"><ele>116.5</ele><time>2026-04-19T17:09:00.999Z</time></trkpt><trkpt lat="40.370713304742154" lon="0.33134392980618527"><ele>117.0</ele><time>2026-04-19T17:09:01.999Z</time></trkpt><trkpt lat="40.3704698605783" lon="0.331158907410371"><ele>117.0</ele><time>2026-04-19T17:09:02.999Z</time></trkpt><trkpt lat="40.37022494028441" lon="0.330974052728564"><ele>117.0</ele><time>2026-04-19T17:09:03.999Z</time></trkpt><trkpt lat="40.369976689920335" lon="0.33078742223850066"><ele>117.0</ele><time>2026-04-19T17:09:04.999Z</time></trkpt><trkpt lat="40.36972891477197" lon="0.3306058195753302"><ele>117.0</ele><time>2026-04-19T17:09:05.999Z</time></trkpt><trkpt lat="40.369480714289146" lon="0.3304271380960153"><ele>117.5</ele><time>2026-04-19T17:09:06.999Z</time></trkpt><trkpt lat="40.36923812857224" lon="0.33024749532867614"><ele>118.0</ele><time>2026-04-19T17:09:07.999Z</time></trkpt><trkpt lat="40.368996871004555" lon="0.33007194897368036"><ele>119.5</ele><time>2026-04-19T17:09:08.999Z</time></trkpt><trkpt lat="40.3687599238089" lon="0.329893370369973"><ele>121.0</ele><time>2026-04-19T17:09:09.999Z</time></trkpt><trkpt lat="40.36852490722964" lon="0.3297166208817525"><ele>121.0</ele><time>2026-04-19T17:09:10.999Z</time></trkpt><trkpt lat="40.36828662766922" lon="0.32954072874673185"><ele>121.0</ele><time>2026-04-19T17:09:11.999Z</time></trkpt><trkpt lat="40.36804977439849" lon="0.32936202252291613"><ele>122.5</ele><time>2026-04-19T17:09:12.999Z</time></trkpt><trkpt lat="40.36780911512106" lon="0.32918097526042617"><ele>124.0</ele><time>2026-04-19T17:09:13.999Z</time></trkpt><trkpt lat="40.367572192884886" lon="0.328990913108398"><ele>124.0</ele><time>2026-04-19T17:09:14.999Z</time></trkpt><trkpt lat="40.36733315121616" lon="0.3287947313017336"><ele>124.0</ele><time>2026-04-19T17:09:15.999Z</time></trkpt><trkpt lat="40.36709239745145" lon="0.32859117551350964"><ele>124.0</ele><time>2026-04-19T17:09:16.999Z</time></trkpt><trkpt lat="40.36685159470217" lon="0.3283835738371269"><ele>124.0</ele><time>2026-04-19T17:09:17.999Z</time></trkpt><trkpt lat="40.36660998435257" lon="0.32817184334762023"><ele>125.5</ele><time>2026-04-19T17:09:18.999Z</time></trkpt><trkpt lat="40.3663743164992" lon="0.32795002432714143"><ele>127.0</ele><time>2026-04-19T17:09:19.999Z</time></trkpt><trkpt lat="40.366139379214275" lon="0.3277216655171488"><ele>127.0</ele><time>2026-04-19T17:09:20.999Z</time></trkpt><trkpt lat="40.36590828869633" lon="0.32748705324592675"><ele>127.0</ele><time>2026-04-19T17:09:21.999Z</time></trkpt><trkpt lat="40.36567454769958" lon="0.3272455125053586"><ele>129.5</ele><time>2026-04-19T17:09:22.999Z</time></trkpt><trkpt lat="40.36544304114147" lon="0.3270001917390026"><ele>132.0</ele><time>2026-04-19T17:09:23.999Z</time></trkpt><trkpt lat="40.365212534283934" lon="0.32675344257815514"><ele>132.0</ele><time>2026-04-19T17:09:24.999Z</time></trkpt><trkpt lat="40.36498911780797" lon="0.3264976913110836"><ele>132.0</ele><time>2026-04-19T17:09:25.999Z</time></trkpt><trkpt lat="40.3647716420846" lon="0.32623489708246023"><ele>132.5</ele><time>2026-04-19T17:09:26.999Z</time></trkpt><trkpt lat="40.364549732241024" lon="0.32596615516554567"><ele>133.0</ele><time>2026-04-19T17:09:27.999Z</time></trkpt><trkpt lat="40.36433280437817" lon="0.32569466765196303"><ele>132.5</ele><time>2026-04-19T17:09:28.999Z</time></trkpt><trkpt lat="40.36412131547282" lon="0.32541807837971365"><ele>132.0</ele><time>2026-04-19T17:09:29.999Z</time></trkpt><trkpt lat="40.363912908066986" lon="0.3251319098454737"><ele>133.5</ele><time>2026-04-19T17:09:30.999Z</time></trkpt><trkpt lat="40.36370531995949" lon="0.3248417451742994"><ele>135.0</ele><time>2026-04-19T17:09:31.999Z</time></trkpt><trkpt lat="40.363501999985495" lon="0.3245507999084702"><ele>135.0</ele><time>2026-04-19T17:09:32.999Z</time></trkpt><trkpt lat="40.36329683817705" lon="0.32425872467652345"><ele>135.0</ele><time>2026-04-19T17:09:33.999Z</time></trkpt><trkpt lat="40.363094361233934" lon="0.3239610298501983"><ele>137.5</ele><time>2026-04-19T17:09:34.999Z</time></trkpt><trkpt lat="40.36289135985734" lon="0.3236609900255776"><ele>140.0</ele><time>2026-04-19T17:09:35.999Z</time></trkpt><trkpt lat="40.362688865247776" lon="0.32336393279112546"><ele>140.0</ele><time>2026-04-19T17:09:36.999Z</time></trkpt><trkpt lat="40.36248824754987" lon="0.32306896489627973"><ele>140.0</ele><time>2026-04-19T17:09:37.999Z</time></trkpt><trkpt lat="40.36228920064751" lon="0.32277713101512484"><ele>139.5</ele><time>2026-04-19T17:09:38.999Z</time></trkpt><trkpt lat="40.362089707457514" lon="0.3224875975449033"><ele>139.0</ele><time>2026-04-19T17:09:39.999Z</time></trkpt><trkpt lat="40.36188955116895" lon="0.322195715270206"><ele>139.0</ele><time>2026-04-19T17:09:40.999Z</time></trkpt><trkpt lat="40.36169098284551" lon="0.3219059566134536"><ele>139.0</ele><time>2026-04-19T17:09:41.999Z</time></trkpt><trkpt lat="40.361493955007035" lon="0.32162311334452776"><ele>140.0</ele><time>2026-04-19T17:09:42.999Z</time></trkpt><trkpt lat="40.36129429621631" lon="0.3213391514377855"><ele>141.0</ele><time>2026-04-19T17:09:43.999Z</time></trkpt><trkpt lat="40.36109307340737" lon="0.32106241311707373"><ele>141.0</ele><time>2026-04-19T17:09:44.999Z</time></trkpt><trkpt lat="40.360887436870144" lon="0.32078681542045734"><ele>141.0</ele><time>2026-04-19T17:09:45.999Z</time></trkpt><trkpt lat="40.360678579690386" lon="0.32051205896436263"><ele>143.5</ele><time>2026-04-19T17:09:46.999Z</time></trkpt><trkpt lat="40.36047085267737" lon="0.32024113054667097"><ele>146.0</ele><time>2026-04-19T17:09:47.999Z</time></trkpt><trkpt lat="40.360257811235414" lon="0.31997683089633894"><ele>143.0</ele><time>2026-04-19T17:09:48.999Z</time></trkpt><trkpt lat="40.36004691994748" lon="0.3197209418710216"><ele>140.0</ele><time>2026-04-19T17:09:49.999Z</time></trkpt><trkpt lat="40.35983330643239" lon="0.31946318763141796"><ele>145.5</ele><time>2026-04-19T17:09:50.999Z</time></trkpt><trkpt lat="40.359620133000774" lon="0.31920673937857624"><ele>151.0</ele><time>2026-04-19T17:09:51.999Z</time></trkpt><trkpt lat="40.359408654563616" lon="0.31894948884811114"><ele>148.5</ele><time>2026-04-19T17:09:52.999Z</time></trkpt><trkpt lat="40.35919758823186" lon="0.3186960901726891"><ele>146.0</ele><time>2026-04-19T17:09:53.999Z</time></trkpt><trkpt lat="40.35898276612583" lon="0.31844298278287897"><ele>148.0</ele><time>2026-04-19T17:09:54.998Z</time></trkpt><trkpt lat="40.358767629390634" lon="0.3181891429360398"><ele>150.0</ele><time>2026-04-19T17:09:55.998Z</time></trkpt><trkpt lat="40.358551809302256" lon="0.31793751453044083"><ele>150.0</ele><time>2026-04-19T17:09:56.998Z</time></trkpt><trkpt lat="40.3583369516953" lon="0.3176845680002917"><ele>150.0</ele><time>2026-04-19T17:09:57.998Z</time></trkpt><trkpt lat="40.35812195982079" lon="0.3174290065488992"><ele>151.5</ele><time>2026-04-19T17:09:58.998Z</time></trkpt><trkpt lat="40.35791170461472" lon="0.3171718984151522"><ele>153.0</ele><time>2026-04-19T17:09:59.998Z</time></trkpt><trkpt lat="40.35770198153587" lon="0.3169146821356545"><ele>153.0</ele><time>2026-04-19T17:10:00.998Z</time></trkpt><trkpt lat="40.357494299499706" lon="0.3166484413407877"><ele>153.0</ele><time>2026-04-19T17:10:01.998Z</time></trkpt><trkpt lat="40.357290717755866" lon="0.3163766483453342"><ele>156.0</ele><time>2026-04-19T17:10:02.998Z</time></trkpt><trkpt lat="40.357087908879535" lon="0.31609932279304626"><ele>159.0</ele><time>2026-04-19T17:10:03.998Z</time></trkpt><trkpt lat="40.356886761913586" lon="0.3158185933216306"><ele>155.0</ele><time>2026-04-19T17:10:04.998Z</time></trkpt><trkpt lat="40.35669259507732" lon="0.3155387278379036"><ele>151.0</ele><time>2026-04-19T17:10:05.998Z</time></trkpt><trkpt lat="40.356502423953074" lon="0.315252172732649"><ele>152.5</ele><time>2026-04-19T17:10:06.998Z</time></trkpt><trkpt lat="40.35631507608563" lon="0.31496296364002274"><ele>154.0</ele><time>2026-04-19T17:10:07.998Z</time></trkpt><trkpt lat="40.35612592232884" lon="0.3146678499747369"><ele>154.0</ele><time>2026-04-19T17:10:09Z</time></trkpt><trkpt lat="40.35593957712974" lon="0.3143682252660503"><ele>154.0</ele><time>2026-04-19T17:10:10Z</time></trkpt><trkpt lat="40.35575527025991" lon="0.3140575996807412"><ele>152.5</ele><time>2026-04-19T17:10:11Z</time></trkpt><trkpt lat="40.3555777481837" lon="0.31374221612144276"><ele>151.0</ele><time>2026-04-19T17:10:12Z</time></trkpt><trkpt lat="40.35540445841627" lon="0.31342222965797706"><ele>152.0</ele><time>2026-04-19T17:10:13Z</time></trkpt><trkpt lat="40.355236113803386" lon="0.3130980306945425"><ele>153.0</ele><time>2026-04-19T17:10:14Z</time></trkpt><trkpt lat="40.355068395833854" lon="0.31276700977609606"><ele>153.0</ele><time>2026-04-19T17:10:15Z</time></trkpt><trkpt lat="40.35490415982542" lon="0.31243491244992205"><ele>153.0</ele><time>2026-04-19T17:10:16Z</time></trkpt><trkpt lat="40.35474234587536" lon="0.3121001365995349"><ele>152.5</ele><time>2026-04-19T17:10:17Z</time></trkpt><trkpt lat="40.35458321191011" lon="0.3117598864328266"><ele>152.0</ele><time>2026-04-19T17:10:18Z</time></trkpt><trkpt lat="40.354429988766555" lon="0.3114122962231677"><ele>150.0</ele><time>2026-04-19T17:10:19Z</time></trkpt><trkpt lat="40.35428241633755" lon="0.3110587457973453"><ele>148.0</ele><time>2026-04-19T17:10:20Z</time></trkpt><trkpt lat="40.35413890529321" lon="0.31069942588271193"><ele>146.0</ele><time>2026-04-19T17:10:21Z</time></trkpt><trkpt lat="40.3540009325058" lon="0.31033896683645734"><ele>144.0</ele><time>2026-04-19T17:10:22Z</time></trkpt><trkpt lat="40.353866010076715" lon="0.30997449445660585"><ele>146.0</ele><time>2026-04-19T17:10:23Z</time></trkpt><trkpt lat="40.35373312770651" lon="0.3096112238966053"><ele>148.0</ele><time>2026-04-19T17:10:24Z</time></trkpt><trkpt lat="40.35360693904633" lon="0.30925303184047775"><ele>148.0</ele><time>2026-04-19T17:10:25Z</time></trkpt><trkpt lat="40.35349117062085" lon="0.30890096215606255"><ele>148.0</ele><time>2026-04-19T17:10:26Z</time></trkpt><trkpt lat="40.353382958175054" lon="0.30855308310622426"><ele>148.0</ele><time>2026-04-19T17:10:27Z</time></trkpt><trkpt lat="40.35328224564522" lon="0.3082095707398355"><ele>148.0</ele><time>2026-04-19T17:10:28Z</time></trkpt><trkpt lat="40.353190253662845" lon="0.3078796686059562"><ele>148.0</ele><time>2026-04-19T17:10:29Z</time></trkpt><trkpt lat="40.35310214791586" lon="0.30754811859917397"><ele>148.0</ele><time>2026-04-19T17:10:30Z</time></trkpt><trkpt lat="40.35301578208983" lon="0.307217864860414"><ele>151.5</ele><time>2026-04-19T17:10:31Z</time></trkpt><trkpt lat="40.352933264600225" lon="0.30688323298222786"><ele>155.0</ele><time>2026-04-19T17:10:32Z</time></trkpt><trkpt lat="40.35285429345729" lon="0.3065519925802648"><ele>153.0</ele><time>2026-04-19T17:10:33Z</time></trkpt><trkpt lat="40.35277647307626" lon="0.3062207503340797"><ele>151.0</ele><time>2026-04-19T17:10:34Z</time></trkpt><trkpt lat="40.352702995288624" lon="0.3059015175403939"><ele>151.0</ele><time>2026-04-19T17:10:35Z</time></trkpt><trkpt lat="40.352632339501874" lon="0.30558423558003367"><ele>151.0</ele><time>2026-04-19T17:10:36Z</time></trkpt><trkpt lat="40.35256581693911" lon="0.3052587194295289"><ele>150.0</ele><time>2026-04-19T17:10:37Z</time></trkpt><trkpt lat="40.35250002153702" lon="0.30492232632290556"><ele>149.0</ele><time>2026-04-19T17:10:38Z</time></trkpt><trkpt lat="40.352431652419455" lon="0.30458454408742364"><ele>149.0</ele><time>2026-04-19T17:10:39Z</time></trkpt><trkpt lat="40.352361900206056" lon="0.3042413508753576"><ele>149.0</ele><time>2026-04-19T17:10:40Z</time></trkpt><trkpt lat="40.352291747493375" lon="0.3039046291715221"><ele>147.5</ele><time>2026-04-19T17:10:41Z</time></trkpt><trkpt lat="40.35221985975342" lon="0.3035604682947634"><ele>146.0</ele><time>2026-04-19T17:10:42Z</time></trkpt><trkpt lat="40.35214500402776" lon="0.303225798622209"><ele>148.5</ele><time>2026-04-19T17:10:43Z</time></trkpt><trkpt lat="40.352069036510514" lon="0.30289525679487944"><ele>151.0</ele><time>2026-04-19T17:10:44Z</time></trkpt><trkpt lat="40.351996759317544" lon="0.30256384832921684"><ele>149.0</ele><time>2026-04-19T17:10:45Z</time></trkpt><trkpt lat="40.351922394304836" lon="0.30223083112430904"><ele>147.0</ele><time>2026-04-19T17:10:46Z</time></trkpt><trkpt lat="40.35184387857829" lon="0.3018927967061487"><ele>147.0</ele><time>2026-04-19T17:10:47Z</time></trkpt><trkpt lat="40.35176187294419" lon="0.3015502567925003"><ele>147.0</ele><time>2026-04-19T17:10:48Z</time></trkpt><trkpt lat="40.351675879026345" lon="0.30120896746744863"><ele>145.0</ele><time>2026-04-19T17:10:49Z</time></trkpt><trkpt lat="40.35158310488807" lon="0.30086454270890417"><ele>143.0</ele><time>2026-04-19T17:10:50Z</time></trkpt><trkpt lat="40.35148886745629" lon="0.3005171280030786"><ele>143.0</ele><time>2026-04-19T17:10:51Z</time></trkpt><trkpt lat="40.35139158939837" lon="0.3001645314453175"><ele>143.0</ele><time>2026-04-19T17:10:52Z</time></trkpt><trkpt lat="40.35129366225434" lon="0.29980975623938116"><ele>143.0</ele><time>2026-04-19T17:10:53Z</time></trkpt><trkpt lat="40.35119399133015" lon="0.29945592146347233"><ele>143.0</ele><time>2026-04-19T17:10:54Z</time></trkpt><trkpt lat="40.351088414720046" lon="0.2991010138787297"><ele>144.0</ele><time>2026-04-19T17:10:55Z</time></trkpt><trkpt lat="40.35097789426002" lon="0.29874835669127986"><ele>145.0</ele><time>2026-04-19T17:10:56Z</time></trkpt><trkpt lat="40.35086377252256" lon="0.29840384953555654"><ele>145.0</ele><time>2026-04-19T17:10:57Z</time></trkpt><trkpt lat="40.35074899433959" lon="0.29805743734951995"><ele>145.0</ele><time>2026-04-19T17:10:58Z</time></trkpt><trkpt lat="40.350630228789186" lon="0.29771275540966"><ele>148.0</ele><time>2026-04-19T17:10:59Z</time></trkpt><trkpt lat="40.350508964109274" lon="0.29737511044104514"><ele>151.0</ele><time>2026-04-19T17:10:59.999Z</time></trkpt><trkpt lat="40.35038827827483" lon="0.297040109962635"><ele>151.0</ele><time>2026-04-19T17:11:00.999Z</time></trkpt><trkpt lat="40.350263358081364" lon="0.29670780001340935"><ele>151.0</ele><time>2026-04-19T17:11:01.999Z</time></trkpt><trkpt lat="40.350137245509394" lon="0.2963754818325714"><ele>151.0</ele><time>2026-04-19T17:11:02.999Z</time></trkpt><trkpt lat="40.35001252478857" lon="0.2960476711086172"><ele>151.0</ele><time>2026-04-19T17:11:03.999Z</time></trkpt><trkpt lat="40.349882903229116" lon="0.2957229549248445"><ele>150.0</ele><time>2026-04-19T17:11:04.999Z</time></trkpt><trkpt lat="40.349746367917554" lon="0.2953976620980016"><ele>149.0</ele><time>2026-04-19T17:11:05.999Z</time></trkpt><trkpt lat="40.34960674594749" lon="0.2950750491461344"><ele>152.5</ele><time>2026-04-19T17:11:06.999Z</time></trkpt><trkpt lat="40.34946761510768" lon="0.2947526703233723"><ele>156.0</ele><time>2026-04-19T17:11:07.999Z</time></trkpt><trkpt lat="40.34932652956474" lon="0.2944291995333273"><ele>156.0</ele><time>2026-04-19T17:11:08.999Z</time></trkpt><trkpt lat="40.349183625987706" lon="0.29410252698722006"><ele>156.0</ele><time>2026-04-19T17:11:09.999Z</time></trkpt><trkpt lat="40.34904112667023" lon="0.2937754496082944"><ele>157.5</ele><time>2026-04-19T17:11:10.999Z</time></trkpt><trkpt lat="40.34889645805137" lon="0.29344466435600514"><ele>159.0</ele><time>2026-04-19T17:11:11.999Z</time></trkpt><trkpt lat="40.348748439035695" lon="0.2931139526623089"><ele>156.0</ele><time>2026-04-19T17:11:12.999Z</time></trkpt><trkpt lat="40.348598113486254" lon="0.2927816728304206"><ele>153.0</ele><time>2026-04-19T17:11:13.999Z</time></trkpt><trkpt lat="40.348445916986485" lon="0.29244290952130875"><ele>152.5</ele><time>2026-04-19T17:11:14.999Z</time></trkpt><trkpt lat="40.3483075283429" lon="0.2921200122584727"><ele>152.0</ele><time>2026-04-19T17:11:15.999Z</time></trkpt><trkpt lat="40.3481555302782" lon="0.29178481924174027"><ele>153.5</ele><time>2026-04-19T17:11:16.999Z</time></trkpt><trkpt lat="40.34800625344977" lon="0.29144827969703646"><ele>155.0</ele><time>2026-04-19T17:11:17.999Z</time></trkpt><trkpt lat="40.3478572689168" lon="0.2911063516171983"><ele>155.5</ele><time>2026-04-19T17:11:18.999Z</time></trkpt><trkpt lat="40.3477147550881" lon="0.29076066770951486"><ele>156.0</ele><time>2026-04-19T17:11:19.999Z</time></trkpt><trkpt lat="40.347576343396" lon="0.2904160281601567"><ele>156.0</ele><time>2026-04-19T17:11:20.999Z</time></trkpt><trkpt lat="40.34744178770368" lon="0.29006806970498666"><ele>156.0</ele><time>2026-04-19T17:11:21.999Z</time></trkpt><trkpt lat="40.34730981175226" lon="0.28970821861923785"><ele>158.5</ele><time>2026-04-19T17:11:22.999Z</time></trkpt><trkpt lat="40.34717978146174" lon="0.28934696141226535"><ele>161.0</ele><time>2026-04-19T17:11:23.999Z</time></trkpt><trkpt lat="40.34705276930695" lon="0.2889800648680917"><ele>160.5</ele><time>2026-04-19T17:11:24.999Z</time></trkpt><trkpt lat="40.346927770479425" lon="0.28861229970933544"><ele>160.0</ele><time>2026-04-19T17:11:25.999Z</time></trkpt><trkpt lat="40.34681257166449" lon="0.2882395002844004"><ele>160.5</ele><time>2026-04-19T17:11:26.999Z</time></trkpt><trkpt lat="40.34670845965315" lon="0.28786676347333245"><ele>161.0</ele><time>2026-04-19T17:11:27.999Z</time></trkpt><trkpt lat="40.34660734269939" lon="0.28749821497365774"><ele>159.5</ele><time>2026-04-19T17:11:28.999Z</time></trkpt><trkpt lat="40.34650090383561" lon="0.28712574215448133"><ele>158.0</ele><time>2026-04-19T17:11:29.999Z</time></trkpt><trkpt lat="40.346406958757605" lon="0.286744418578705"><ele>162.0</ele><time>2026-04-19T17:11:30.999Z</time></trkpt><trkpt lat="40.346316349171666" lon="0.2863638981513788"><ele>166.0</ele><time>2026-04-19T17:11:31.999Z</time></trkpt><trkpt lat="40.34623440389301" lon="0.285988631975698"><ele>166.0</ele><time>2026-04-19T17:11:32.999Z</time></trkpt><trkpt lat="40.34615149754649" lon="0.2855984190080075"><ele>166.0</ele><time>2026-04-19T17:11:33.999Z</time></trkpt><trkpt lat="40.34607781035034" lon="0.28521646606162354"><ele>164.0</ele><time>2026-04-19T17:11:34.999Z</time></trkpt><trkpt lat="40.34600672380935" lon="0.28483687627450094"><ele>162.0</ele><time>2026-04-19T17:11:35.999Z</time></trkpt><trkpt lat="40.34594568184309" lon="0.2844906366356425"><ele>159.5</ele><time>2026-04-19T17:11:36.999Z</time></trkpt><trkpt lat="40.34589127537451" lon="0.28414477062042404"><ele>157.0</ele><time>2026-04-19T17:11:37.999Z</time></trkpt><trkpt lat="40.34581923515993" lon="0.28378678414872915"><ele>154.5</ele><time>2026-04-19T17:11:38.999Z</time></trkpt><trkpt lat="40.34575152388346" lon="0.28342557416770825"><ele>152.0</ele><time>2026-04-19T17:11:39.999Z</time></trkpt><trkpt lat="40.345686448378615" lon="0.2830662515781311"><ele>152.0</ele><time>2026-04-19T17:11:40.999Z</time></trkpt><trkpt lat="40.345620402406055" lon="0.28270849885181926"><ele>152.0</ele><time>2026-04-19T17:11:41.999Z</time></trkpt><trkpt lat="40.34554843801879" lon="0.28234658455490086"><ele>154.0</ele><time>2026-04-19T17:11:42.999Z</time></trkpt><trkpt lat="40.345467815185124" lon="0.2819873787661747"><ele>156.0</ele><time>2026-04-19T17:11:43.999Z</time></trkpt><trkpt lat="40.34538061557161" lon="0.2816297850210451"><ele>155.5</ele><time>2026-04-19T17:11:44.999Z</time></trkpt><trkpt lat="40.34529382842046" lon="0.28126622530659207"><ele>155.0</ele><time>2026-04-19T17:11:45.999Z</time></trkpt><trkpt lat="40.345206097811044" lon="0.2808966212381526"><ele>153.5</ele><time>2026-04-19T17:11:46.999Z</time></trkpt><trkpt lat="40.34511251601133" lon="0.280532294377794"><ele>152.0</ele><time>2026-04-19T17:11:47.999Z</time></trkpt><trkpt lat="40.345014969690226" lon="0.2801645812039623"><ele>152.0</ele><time>2026-04-19T17:11:48.999Z</time></trkpt><trkpt lat="40.34491349711228" lon="0.27979845165913964"><ele>152.0</ele><time>2026-04-19T17:11:49.999Z</time></trkpt><trkpt lat="40.34480300380007" lon="0.2794329944566544"><ele>152.0</ele><time>2026-04-19T17:11:50.999Z</time></trkpt><trkpt lat="40.3446880612479" lon="0.2790691012099551"><ele>152.0</ele><time>2026-04-19T17:11:51.999Z</time></trkpt><trkpt lat="40.34457110997753" lon="0.2787086329466829"><ele>150.5</ele><time>2026-04-19T17:11:52.999Z</time></trkpt><trkpt lat="40.34445262529328" lon="0.278354237084039"><ele>149.0</ele><time>2026-04-19T17:11:53.999Z</time></trkpt><trkpt lat="40.344325447550126" lon="0.27800421782477736"><ele>149.0</ele><time>2026-04-19T17:11:54.999Z</time></trkpt><trkpt lat="40.344193656215786" lon="0.2776608997105805"><ele>149.0</ele><time>2026-04-19T17:11:55.999Z</time></trkpt><trkpt lat="40.34405628988991" lon="0.27732430699198013"><ele>148.5</ele><time>2026-04-19T17:11:56.999Z</time></trkpt><trkpt lat="40.3439159360797" lon="0.27698635704218466"><ele>148.0</ele><time>2026-04-19T17:11:57.999Z</time></trkpt><trkpt lat="40.34377400050015" lon="0.276650823325055"><ele>150.0</ele><time>2026-04-19T17:11:58.999Z</time></trkpt><trkpt lat="40.343631099946776" lon="0.276320475380456"><ele>152.0</ele><time>2026-04-19T17:11:59.999Z</time></trkpt><trkpt lat="40.34348185803337" lon="0.27599171289346797"><ele>152.0</ele><time>2026-04-19T17:12:00.999Z</time></trkpt><trkpt lat="40.34332835182809" lon="0.2756674630447654"><ele>152.0</ele><time>2026-04-19T17:12:01.999Z</time></trkpt><trkpt lat="40.34316622261202" lon="0.27534208460803516"><ele>153.5</ele><time>2026-04-19T17:12:02.999Z</time></trkpt><trkpt lat="40.34300350151433" lon="0.27501933461773026"><ele>155.0</ele><time>2026-04-19T17:12:03.998Z</time></trkpt><trkpt lat="40.342831942697714" lon="0.27469489548501874"><ele>155.0</ele><time>2026-04-19T17:12:04.998Z</time></trkpt><trkpt lat="40.34265863579164" lon="0.2743805917898473"><ele>155.0</ele><time>2026-04-19T17:12:05.998Z</time></trkpt><trkpt lat="40.342475245117505" lon="0.2740591127239593"><ele>156.0</ele><time>2026-04-19T17:12:06.998Z</time></trkpt><trkpt lat="40.34229378021101" lon="0.27374546113160275"><ele>157.0</ele><time>2026-04-19T17:12:07.998Z</time></trkpt><trkpt lat="40.34210649577617" lon="0.273434142497151"><ele>157.0</ele><time>2026-04-19T17:12:08.998Z</time></trkpt><trkpt lat="40.34190849263394" lon="0.27312306239846434"><ele>157.0</ele><time>2026-04-19T17:12:09.998Z</time></trkpt><trkpt lat="40.34170690705152" lon="0.27281765868267727"><ele>157.0</ele><time>2026-04-19T17:12:10.998Z</time></trkpt><trkpt lat="40.34150063238636" lon="0.27251488667766394"><ele>157.0</ele><time>2026-04-19T17:12:11.998Z</time></trkpt><trkpt lat="40.34129729184373" lon="0.2722095877986402"><ele>156.5</ele><time>2026-04-19T17:12:12.998Z</time></trkpt><trkpt lat="40.34107828086264" lon="0.27191424445765805"><ele>156.0</ele><time>2026-04-19T17:12:13.998Z</time></trkpt><trkpt lat="40.34086308684027" lon="0.27161715178146123"><ele>156.0</ele><time>2026-04-19T17:12:15Z</time></trkpt><trkpt lat="40.34064696164099" lon="0.27132230680757824"><ele>156.0</ele><time>2026-04-19T17:12:16Z</time></trkpt><trkpt lat="40.34042572668676" lon="0.27103007405601326"><ele>156.0</ele><time>2026-04-19T17:12:17Z</time></trkpt><trkpt lat="40.34020172930128" lon="0.2707465446089248"><ele>156.0</ele><time>2026-04-19T17:12:18Z</time></trkpt><trkpt lat="40.33997148986602" lon="0.2704760833814006"><ele>156.0</ele><time>2026-04-19T17:12:19Z</time></trkpt><trkpt lat="40.33973942467029" lon="0.27021572522062576"><ele>156.0</ele><time>2026-04-19T17:12:20Z</time></trkpt><trkpt lat="40.33950410062961" lon="0.26996702813791185"><ele>155.5</ele><time>2026-04-19T17:12:21Z</time></trkpt><trkpt lat="40.33926902229557" lon="0.2697205071594673"><ele>155.0</ele><time>2026-04-19T17:12:22Z</time></trkpt><trkpt lat="40.339029319921" lon="0.2694791223502233"><ele>156.5</ele><time>2026-04-19T17:12:23Z</time></trkpt><trkpt lat="40.33878629653826" lon="0.2692394325087782"><ele>158.0</ele><time>2026-04-19T17:12:24Z</time></trkpt><trkpt lat="40.33853978331111" lon="0.2689992606325395"><ele>157.5</ele><time>2026-04-19T17:12:25Z</time></trkpt><trkpt lat="40.33829090675539" lon="0.26876149743013006"><ele>157.0</ele><time>2026-04-19T17:12:26Z</time></trkpt><trkpt lat="40.33804302982607" lon="0.26853188079941015"><ele>157.0</ele><time>2026-04-19T17:12:27Z</time></trkpt><trkpt lat="40.33779190325163" lon="0.26830148945217136"><ele>157.0</ele><time>2026-04-19T17:12:28Z</time></trkpt><trkpt lat="40.33754173572182" lon="0.26807449032628533"><ele>156.0</ele><time>2026-04-19T17:12:29Z</time></trkpt><trkpt lat="40.33728923528726" lon="0.2678476186896817"><ele>155.0</ele><time>2026-04-19T17:12:30Z</time></trkpt><trkpt lat="40.337034985765854" lon="0.267619872712401"><ele>155.0</ele><time>2026-04-19T17:12:31Z</time></trkpt><trkpt lat="40.33677998395953" lon="0.26739432035008964"><ele>155.0</ele><time>2026-04-19T17:12:32Z</time></trkpt><trkpt lat="40.33652755455453" lon="0.2671668706044895"><ele>154.5</ele><time>2026-04-19T17:12:33Z</time></trkpt><trkpt lat="40.33627975852249" lon="0.26693887847698233"><ele>154.0</ele><time>2026-04-19T17:12:34Z</time></trkpt><trkpt lat="40.33603902154834" lon="0.26671020470565643"><ele>154.0</ele><time>2026-04-19T17:12:35Z</time></trkpt><trkpt lat="40.33579979610656" lon="0.2664815239609158"><ele>154.0</ele><time>2026-04-19T17:12:36Z</time></trkpt><trkpt lat="40.33556177214884" lon="0.2662505744457077"><ele>154.0</ele><time>2026-04-19T17:12:37Z</time></trkpt><trkpt lat="40.33532374272143" lon="0.2660229764122818"><ele>154.0</ele><time>2026-04-19T17:12:38Z</time></trkpt><trkpt lat="40.33508661453966" lon="0.26579480687255463"><ele>153.5</ele><time>2026-04-19T17:12:39Z</time></trkpt><trkpt lat="40.33484889591772" lon="0.2655621545888263"><ele>153.0</ele><time>2026-04-19T17:12:40Z</time></trkpt><trkpt lat="40.33461244317703" lon="0.26532537955715196"><ele>153.0</ele><time>2026-04-19T17:12:41Z</time></trkpt><trkpt lat="40.33437565501314" lon="0.2650847519639188"><ele>153.0</ele><time>2026-04-19T17:12:42Z</time></trkpt><trkpt lat="40.3341456990972" lon="0.2648363370909101"><ele>153.5</ele><time>2026-04-19T17:12:43Z</time></trkpt><trkpt lat="40.33391447745572" lon="0.264590319541517"><ele>154.0</ele><time>2026-04-19T17:12:44Z</time></trkpt><trkpt lat="40.33368288370254" lon="0.2643373933476884"><ele>154.0</ele><time>2026-04-19T17:12:45Z</time></trkpt><trkpt lat="40.33345411931082" lon="0.2640898149580598"><ele>154.0</ele><time>2026-04-19T17:12:46Z</time></trkpt><trkpt lat="40.333228245662205" lon="0.2638392713708516"><ele>154.0</ele><time>2026-04-19T17:12:47Z</time></trkpt><trkpt lat="40.333003670798135" lon="0.26358341434230076"><ele>154.0</ele><time>2026-04-19T17:12:48Z</time></trkpt><trkpt lat="40.33277880320756" lon="0.263331275851718"><ele>152.5</ele><time>2026-04-19T17:12:49Z</time></trkpt><trkpt lat="40.33255568542427" lon="0.2630712947732409"><ele>151.0</ele><time>2026-04-19T17:12:50Z</time></trkpt><trkpt lat="40.33233103640765" lon="0.2628126123777897"><ele>152.0</ele><time>2026-04-19T17:12:51Z</time></trkpt><trkpt lat="40.33210472389486" lon="0.2625494134816159"><ele>153.0</ele><time>2026-04-19T17:12:52Z</time></trkpt><trkpt lat="40.331879122781565" lon="0.26228649340707144"><ele>152.0</ele><time>2026-04-19T17:12:53Z</time></trkpt><trkpt lat="40.33165478862388" lon="0.2620231071193754"><ele>151.0</ele><time>2026-04-19T17:12:54Z</time></trkpt><trkpt lat="40.331429730393886" lon="0.261761519410604"><ele>152.0</ele><time>2026-04-19T17:12:55Z</time></trkpt><trkpt lat="40.331207958842654" lon="0.26149687269255867"><ele>153.0</ele><time>2026-04-19T17:12:56Z</time></trkpt><trkpt lat="40.330987539556794" lon="0.2612280843611151"><ele>153.0</ele><time>2026-04-19T17:12:57Z</time></trkpt><trkpt lat="40.33076677867794" lon="0.26096526297673733"><ele>153.0</ele><time>2026-04-19T17:12:58Z</time></trkpt><trkpt lat="40.33054732853699" lon="0.26071017510103184"><ele>152.5</ele><time>2026-04-19T17:12:59Z</time></trkpt><trkpt lat="40.33032780118356" lon="0.2604546167912842"><ele>152.0</ele><time>2026-04-19T17:13:00Z</time></trkpt><trkpt lat="40.33010685375072" lon="0.2601965761882487"><ele>152.0</ele><time>2026-04-19T17:13:01Z</time></trkpt><trkpt lat="40.32988677656802" lon="0.25994537537925105"><ele>152.0</ele><time>2026-04-19T17:13:02Z</time></trkpt><trkpt lat="40.32966454284014" lon="0.25969143343901696"><ele>152.0</ele><time>2026-04-19T17:13:03Z</time></trkpt><trkpt lat="40.329442019587795" lon="0.2594381916139329"><ele>152.0</ele><time>2026-04-19T17:13:03.999Z</time></trkpt><trkpt lat="40.32921735325716" lon="0.2591886455206009"><ele>152.0</ele><time>2026-04-19T17:13:04.999Z</time></trkpt><trkpt lat="40.32899297015026" lon="0.2589382310073932"><ele>152.0</ele><time>2026-04-19T17:13:05.999Z</time></trkpt><trkpt lat="40.328764993502084" lon="0.2586910126209284"><ele>152.0</ele><time>2026-04-19T17:13:06.999Z</time></trkpt><trkpt lat="40.32853686570954" lon="0.2584501124523546"><ele>152.0</ele><time>2026-04-19T17:13:07.999Z</time></trkpt><trkpt lat="40.328303819753835" lon="0.25820740369968875"><ele>151.0</ele><time>2026-04-19T17:13:08.999Z</time></trkpt><trkpt lat="40.32807399112922" lon="0.25796831752471255"><ele>150.0</ele><time>2026-04-19T17:13:09.999Z</time></trkpt><trkpt lat="40.32783996550581" lon="0.2577280113855599"><ele>150.0</ele><time>2026-04-19T17:13:10.999Z</time></trkpt><trkpt lat="40.32760372006982" lon="0.25749552002834847"><ele>150.0</ele><time>2026-04-19T17:13:11.999Z</time></trkpt><trkpt lat="40.32736718897366" lon="0.2572654596300888"><ele>149.5</ele><time>2026-04-19T17:13:12.999Z</time></trkpt><trkpt lat="40.3271267229204" lon="0.25703579730431075"><ele>149.0</ele><time>2026-04-19T17:13:13.999Z</time></trkpt><trkpt lat="40.326886120554555" lon="0.25680948343469756"><ele>149.0</ele><time>2026-04-19T17:13:14.999Z</time></trkpt><trkpt lat="40.3266444015941" lon="0.25658392200763447"><ele>149.0</ele><time>2026-04-19T17:13:15.999Z</time></trkpt><trkpt lat="40.326401349171796" lon="0.2563621765806937"><ele>148.5</ele><time>2026-04-19T17:13:16.999Z</time></trkpt><trkpt lat="40.32615502810092" lon="0.25614390298121775"><ele>148.0</ele><time>2026-04-19T17:13:17.999Z</time></trkpt><trkpt lat="40.325908110797485" lon="0.2559275183507795"><ele>148.0</ele><time>2026-04-19T17:13:18.999Z</time></trkpt><trkpt lat="40.325662954883235" lon="0.25571175181219147"><ele>148.0</ele><time>2026-04-19T17:13:19.999Z</time></trkpt><trkpt lat="40.32541741021775" lon="0.25550155965184407"><ele>148.5</ele><time>2026-04-19T17:13:20.999Z</time></trkpt><trkpt lat="40.325168940095885" lon="0.2552999820198342"><ele>149.0</ele><time>2026-04-19T17:13:21.999Z</time></trkpt><trkpt lat="40.32491930737082" lon="0.25509931533883123"><ele>149.0</ele><time>2026-04-19T17:13:22.999Z</time></trkpt><trkpt lat="40.324669013256255" lon="0.25489945003301173"><ele>149.0</ele><time>2026-04-19T17:13:23.999Z</time></trkpt><trkpt lat="40.32442450781142" lon="0.2547004183393687"><ele>149.0</ele><time>2026-04-19T17:13:24.999Z</time></trkpt><trkpt lat="40.32417994772346" lon="0.25450621776082066"><ele>149.0</ele><time>2026-04-19T17:13:25.999Z</time></trkpt><trkpt lat="40.323933591616715" lon="0.2543123551388877"><ele>149.5</ele><time>2026-04-19T17:13:26.999Z</time></trkpt><trkpt lat="40.32368920241326" lon="0.25411866426790486"><ele>150.0</ele><time>2026-04-19T17:13:27.999Z</time></trkpt><trkpt lat="40.323445453232836" lon="0.25392763015280806"><ele>149.5</ele><time>2026-04-19T17:13:28.999Z</time></trkpt><trkpt lat="40.32319816036671" lon="0.25373803415574286"><ele>149.0</ele><time>2026-04-19T17:13:29.999Z</time></trkpt><trkpt lat="40.32295153241654" lon="0.25354631024477403"><ele>149.0</ele><time>2026-04-19T17:13:30.999Z</time></trkpt><trkpt lat="40.32270562863369" lon="0.2533557167783755"><ele>149.0</ele><time>2026-04-19T17:13:31.999Z</time></trkpt><trkpt lat="40.32245586322835" lon="0.2531661146163351"><ele>151.0</ele><time>2026-04-19T17:13:32.999Z</time></trkpt><trkpt lat="40.32220717000019" lon="0.2529755799305921"><ele>153.0</ele><time>2026-04-19T17:13:33.999Z</time></trkpt><trkpt lat="40.321960341068326" lon="0.25278069379525814"><ele>153.0</ele><time>2026-04-19T17:13:34.999Z</time></trkpt><trkpt lat="40.321712437162965" lon="0.25258371636500754"><ele>153.0</ele><time>2026-04-19T17:13:35.999Z</time></trkpt><trkpt lat="40.32146713343293" lon="0.25238581255386205"><ele>151.0</ele><time>2026-04-19T17:13:36.999Z</time></trkpt><trkpt lat="40.32121706695958" lon="0.2521816243668177"><ele>149.0</ele><time>2026-04-19T17:13:37.999Z</time></trkpt><trkpt lat="40.32096942749584" lon="0.25198401324131187"><ele>149.0</ele><time>2026-04-19T17:13:38.999Z</time></trkpt><trkpt lat="40.32071922483831" lon="0.2517847172340059"><ele>149.0</ele><time>2026-04-19T17:13:39.999Z</time></trkpt><trkpt lat="40.3204688368228" lon="0.2515823549913837"><ele>149.5</ele><time>2026-04-19T17:13:40.999Z</time></trkpt><trkpt lat="40.320221264939605" lon="0.2513799856494608"><ele>150.0</ele><time>2026-04-19T17:13:41.999Z</time></trkpt><trkpt lat="40.319972991625086" lon="0.2511757259770492"><ele>149.0</ele><time>2026-04-19T17:13:42.999Z</time></trkpt><trkpt lat="40.319724805664" lon="0.25097049193865517"><ele>148.0</ele><time>2026-04-19T17:13:43.999Z</time></trkpt><trkpt lat="40.31947896801875" lon="0.2507668675715139"><ele>147.5</ele><time>2026-04-19T17:13:44.999Z</time></trkpt><trkpt lat="40.31923381521447" lon="0.2505569035211171"><ele>147.0</ele><time>2026-04-19T17:13:45.999Z</time></trkpt><trkpt lat="40.31899077790722" lon="0.2503430059624365"><ele>148.0</ele><time>2026-04-19T17:13:46.999Z</time></trkpt><trkpt lat="40.31875066813455" lon="0.2501298708521395"><ele>149.0</ele><time>2026-04-19T17:13:47.999Z</time></trkpt><trkpt lat="40.318510859717996" lon="0.24991055132698062"><ele>149.5</ele><time>2026-04-19T17:13:48.999Z</time></trkpt><trkpt lat="40.318272220680925" lon="0.24969252133979067"><ele>150.0</ele><time>2026-04-19T17:13:49.999Z</time></trkpt><trkpt lat="40.31803152802047" lon="0.24947595250465765"><ele>150.0</ele><time>2026-04-19T17:13:50.999Z</time></trkpt><trkpt lat="40.31779420687395" lon="0.24925141111996157"><ele>150.0</ele><time>2026-04-19T17:13:51.999Z</time></trkpt><trkpt lat="40.31755927494827" lon="0.24902701748665762"><ele>150.0</ele><time>2026-04-19T17:13:52.999Z</time></trkpt><trkpt lat="40.31732323926772" lon="0.24880252453410848"><ele>150.0</ele><time>2026-04-19T17:13:53.999Z</time></trkpt><trkpt lat="40.31709033534245" lon="0.24857775470670185"><ele>150.0</ele><time>2026-04-19T17:13:54.999Z</time></trkpt><trkpt lat="40.31685917364368" lon="0.2483491400444641"><ele>150.0</ele><time>2026-04-19T17:13:55.999Z</time></trkpt><trkpt lat="40.31662861525133" lon="0.2481219334796796"><ele>150.5</ele><time>2026-04-19T17:13:56.999Z</time></trkpt><trkpt lat="40.31639849394611" lon="0.24789578210543095"><ele>151.0</ele><time>2026-04-19T17:13:57.999Z</time></trkpt><trkpt lat="40.31616848598025" lon="0.24766531962040025"><ele>151.0</ele><time>2026-04-19T17:13:58.999Z</time></trkpt><trkpt lat="40.31593699829685" lon="0.24743465893819003"><ele>151.0</ele><time>2026-04-19T17:13:59.999Z</time></trkpt><trkpt lat="40.31570964856596" lon="0.24720249302893232"><ele>150.0</ele><time>2026-04-19T17:14:00.999Z</time></trkpt><trkpt lat="40.315482485995275" lon="0.24696518762582267"><ele>149.0</ele><time>2026-04-19T17:14:01.999Z</time></trkpt><trkpt lat="40.31525413923628" lon="0.24673046783417865"><ele>149.0</ele><time>2026-04-19T17:14:02.999Z</time></trkpt><trkpt lat="40.31502523971174" lon="0.2464955487331551"><ele>149.0</ele><time>2026-04-19T17:14:03.999Z</time></trkpt><trkpt lat="40.314796827162915" lon="0.2462593720153219"><ele>149.5</ele><time>2026-04-19T17:14:04.998Z</time></trkpt><trkpt lat="40.314566242012596" lon="0.24601680071831636"><ele>150.0</ele><time>2026-04-19T17:14:05.998Z</time></trkpt><trkpt lat="40.31433722337786" lon="0.2457762852428617"><ele>150.0</ele><time>2026-04-19T17:14:06.998Z</time></trkpt><trkpt lat="40.31410579692307" lon="0.24553446021154313"><ele>150.0</ele><time>2026-04-19T17:14:07.998Z</time></trkpt><trkpt lat="40.31387318638952" lon="0.24529369240802867"><ele>150.0</ele><time>2026-04-19T17:14:08.998Z</time></trkpt><trkpt lat="40.31363778441194" lon="0.24505391689164388"><ele>150.0</ele><time>2026-04-19T17:14:09.998Z</time></trkpt><trkpt lat="40.31340267508895" lon="0.24481792176290054"><ele>149.5</ele><time>2026-04-19T17:14:10.998Z</time></trkpt><trkpt lat="40.31316328707662" lon="0.24458198973023337"><ele>149.0</ele><time>2026-04-19T17:14:11.998Z</time></trkpt><trkpt lat="40.31292407572243" lon="0.24435089945766847"><ele>148.5</ele><time>2026-04-19T17:14:12.998Z</time></trkpt><trkpt lat="40.3126850672256" lon="0.24411363669907862"><ele>148.0</ele><time>2026-04-19T17:14:13.998Z</time></trkpt><trkpt lat="40.31244616352938" lon="0.24387863779498353"><ele>148.0</ele><time>2026-04-19T17:14:14.998Z</time></trkpt><trkpt lat="40.31220058611426" lon="0.24364853272049491"><ele>148.0</ele><time>2026-04-19T17:14:15.998Z</time></trkpt><trkpt lat="40.311949692467344" lon="0.24342912105557582"><ele>148.0</ele><time>2026-04-19T17:14:16.998Z</time></trkpt><trkpt lat="40.31170241725966" lon="0.24321232675235016"><ele>148.0</ele><time>2026-04-19T17:14:17.998Z</time></trkpt><trkpt lat="40.31146700639504" lon="0.24297386613779734"><ele>147.5</ele><time>2026-04-19T17:14:18.998Z</time></trkpt><trkpt lat="40.31122689587576" lon="0.24274195002158813"><ele>147.0</ele><time>2026-04-19T17:14:19.998Z</time></trkpt><trkpt lat="40.310983553749594" lon="0.24252135730906008"><ele>147.0</ele><time>2026-04-19T17:14:21Z</time></trkpt><trkpt lat="40.31073757321766" lon="0.24230845084525615"><ele>147.0</ele><time>2026-04-19T17:14:22Z</time></trkpt><trkpt lat="40.31048946016615" lon="0.2420974202153478"><ele>147.5</ele><time>2026-04-19T17:14:23Z</time></trkpt><trkpt lat="40.31024122991597" lon="0.24189500514142356"><ele>148.0</ele><time>2026-04-19T17:14:24Z</time></trkpt><trkpt lat="40.309991039558305" lon="0.24169567664811253"><ele>148.0</ele><time>2026-04-19T17:14:25Z</time></trkpt><trkpt lat="40.309741460961014" lon="0.24149882404943862"><ele>148.0</ele><time>2026-04-19T17:14:26Z</time></trkpt><trkpt lat="40.30949020705374" lon="0.241300921748085"><ele>148.0</ele><time>2026-04-19T17:14:27Z</time></trkpt><trkpt lat="40.30923768929334" lon="0.24110362997067591"><ele>148.0</ele><time>2026-04-19T17:14:28Z</time></trkpt><trkpt lat="40.30898235946081" lon="0.24091156856952337"><ele>148.5</ele><time>2026-04-19T17:14:29Z</time></trkpt><trkpt lat="40.30872674375248" lon="0.24071927478360713"><ele>149.0</ele><time>2026-04-19T17:14:30Z</time></trkpt><trkpt lat="40.30847107192832" lon="0.24053195931841947"><ele>149.0</ele><time>2026-04-19T17:14:31Z</time></trkpt><trkpt lat="40.30821387987356" lon="0.2403493623618504"><ele>149.0</ele><time>2026-04-19T17:14:32Z</time></trkpt><trkpt lat="40.30795362367105" lon="0.24016419326726918"><ele>148.5</ele><time>2026-04-19T17:14:33Z</time></trkpt><trkpt lat="40.30769293177625" lon="0.23998289594654323"><ele>148.0</ele><time>2026-04-19T17:14:34Z</time></trkpt><trkpt lat="40.30743178985016" lon="0.2398071431973917"><ele>148.5</ele><time>2026-04-19T17:14:35Z</time></trkpt><trkpt lat="40.30716695311018" lon="0.23963520795908386"><ele>149.0</ele><time>2026-04-19T17:14:36Z</time></trkpt><trkpt lat="40.306899920094985" lon="0.2394652505803914"><ele>149.0</ele><time>2026-04-19T17:14:37Z</time></trkpt><trkpt lat="40.30663505230923" lon="0.23929345502949398"><ele>149.0</ele><time>2026-04-19T17:14:38Z</time></trkpt><trkpt lat="40.3063696139942" lon="0.23912591771412128"><ele>148.0</ele><time>2026-04-19T17:14:39Z</time></trkpt><trkpt lat="40.30610447607794" lon="0.23896053394095687"><ele>147.0</ele><time>2026-04-19T17:14:40Z</time></trkpt><trkpt lat="40.3058378694247" lon="0.23879664678889545"><ele>147.5</ele><time>2026-04-19T17:14:41Z</time></trkpt><trkpt lat="40.30557172975704" lon="0.23863858620203854"><ele>148.0</ele><time>2026-04-19T17:14:42Z</time></trkpt><trkpt lat="40.30530529594193" lon="0.23849225628112117"><ele>148.0</ele><time>2026-04-19T17:14:43Z</time></trkpt><trkpt lat="40.30504114173959" lon="0.23834253896946178"><ele>148.0</ele><time>2026-04-19T17:14:44Z</time></trkpt><trkpt lat="40.30477895273957" lon="0.23819551933228184"><ele>147.5</ele><time>2026-04-19T17:14:45Z</time></trkpt><trkpt lat="40.304516862680394" lon="0.23805043252065694"><ele>147.0</ele><time>2026-04-19T17:14:46Z</time></trkpt><trkpt lat="40.30425148454754" lon="0.23790599801749326"><ele>147.0</ele><time>2026-04-19T17:14:47Z</time></trkpt><trkpt lat="40.30398771039291" lon="0.2377664141927794"><ele>147.0</ele><time>2026-04-19T17:14:48Z</time></trkpt><trkpt lat="40.3037245247616" lon="0.23763050904500194"><ele>147.5</ele><time>2026-04-19T17:14:49Z</time></trkpt><trkpt lat="40.303459220306934" lon="0.23749095279287888"><ele>148.0</ele><time>2026-04-19T17:14:50Z</time></trkpt><trkpt lat="40.30319883588801" lon="0.2373534862731577"><ele>148.0</ele><time>2026-04-19T17:14:51Z</time></trkpt><trkpt lat="40.30293680172065" lon="0.2372139991578903"><ele>148.0</ele><time>2026-04-19T17:14:52Z</time></trkpt><trkpt lat="40.30267464744975" lon="0.2370775967514798"><ele>148.0</ele><time>2026-04-19T17:14:53Z</time></trkpt><trkpt lat="40.3024098186744" lon="0.23693633567573527"><ele>148.0</ele><time>2026-04-19T17:14:54Z</time></trkpt><trkpt lat="40.302129107777894" lon="0.2367884993591327"><ele>147.5</ele><time>2026-04-19T17:14:55Z</time></trkpt><trkpt lat="40.301835585589316" lon="0.23663355369142025"><ele>147.0</ele><time>2026-04-19T17:14:56Z</time></trkpt><trkpt lat="40.301535845341064" lon="0.23646963410690078"><ele>148.0</ele><time>2026-04-19T17:14:57Z</time></trkpt><trkpt lat="40.30123002676056" lon="0.23628762405374124"><ele>149.0</ele><time>2026-04-19T17:14:58Z</time></trkpt><trkpt lat="40.30092043219872" lon="0.23608911916371797"><ele>149.0</ele><time>2026-04-19T17:14:59Z</time></trkpt><trkpt lat="40.3006138334767" lon="0.2358658965567421"><ele>149.0</ele><time>2026-04-19T17:15:00Z</time></trkpt><trkpt lat="40.30030061026506" lon="0.235658480147729"><ele>149.0</ele><time>2026-04-19T17:15:01Z</time></trkpt><trkpt lat="40.29998097907245" lon="0.235470695842586"><ele>149.0</ele><time>2026-04-19T17:15:02Z</time></trkpt><trkpt lat="40.29967806459335" lon="0.23528646325332211"><ele>150.5</ele><time>2026-04-19T17:15:03Z</time></trkpt><trkpt lat="40.29936325764026" lon="0.2350893098935779"><ele>152.0</ele><time>2026-04-19T17:15:04Z</time></trkpt><trkpt lat="40.29915001337696" lon="0.23512400305725079"><ele>152.5</ele><time>2026-04-19T17:15:05Z</time></trkpt><trkpt lat="40.29886042509245" lon="0.23494442652421133"><ele>153.0</ele><time>2026-04-19T17:15:06Z</time></trkpt><trkpt lat="40.29857710363073" lon="0.23475743640841057"><ele>153.0</ele><time>2026-04-19T17:15:07Z</time></trkpt><trkpt lat="40.2982979064314" lon="0.23456502257315676"><ele>153.0</ele><time>2026-04-19T17:15:08Z</time></trkpt><trkpt lat="40.29802457132163" lon="0.23437305990289314"><ele>154.0</ele><time>2026-04-19T17:15:09Z</time></trkpt><trkpt lat="40.29774794036679" lon="0.23418414767629725"><ele>155.0</ele><time>2026-04-19T17:15:10Z</time></trkpt><trkpt lat="40.29747870526923" lon="0.23398241641084888"><ele>154.5</ele><time>2026-04-19T17:15:10.999Z</time></trkpt><trkpt lat="40.2972129897935" lon="0.23378448222897116"><ele>154.0</ele><time>2026-04-19T17:15:11.999Z</time></trkpt><trkpt lat="40.29694806845269" lon="0.2335787183995286"><ele>154.0</ele><time>2026-04-19T17:15:12.999Z</time></trkpt><trkpt lat="40.296684269143206" lon="0.23337221242243048"><ele>154.0</ele><time>2026-04-19T17:15:13.999Z</time></trkpt><trkpt lat="40.29642180873568" lon="0.23316846099050778"><ele>154.5</ele><time>2026-04-19T17:15:14.999Z</time></trkpt><trkpt lat="40.29615868202254" lon="0.23296353360956035"><ele>155.0</ele><time>2026-04-19T17:15:15.999Z</time></trkpt><trkpt lat="40.29590273620246" lon="0.23276249936077387"><ele>155.0</ele><time>2026-04-19T17:15:16.999Z</time></trkpt><trkpt lat="40.295645411917604" lon="0.23254940414980824"><ele>155.0</ele><time>2026-04-19T17:15:17.999Z</time></trkpt><trkpt lat="40.29538215055088" lon="0.23234417168430227"><ele>153.0</ele><time>2026-04-19T17:15:18.999Z</time></trkpt><trkpt lat="40.29512372068092" lon="0.23213273705191495"><ele>151.0</ele><time>2026-04-19T17:15:19.999Z</time></trkpt><trkpt lat="40.29486448588887" lon="0.23192060912139617"><ele>152.0</ele><time>2026-04-19T17:15:20.999Z</time></trkpt><trkpt lat="40.29460198213931" lon="0.23171230089723627"><ele>153.0</ele><time>2026-04-19T17:15:21.999Z</time></trkpt><trkpt lat="40.29434266356688" lon="0.2314939371495916"><ele>153.5</ele><time>2026-04-19T17:15:22.999Z</time></trkpt><trkpt lat="40.29407833473873" lon="0.2312758762809313"><ele>154.0</ele><time>2026-04-19T17:15:23.999Z</time></trkpt><trkpt lat="40.293817087191485" lon="0.23106557921063314"><ele>154.0</ele><time>2026-04-19T17:15:24.999Z</time></trkpt><trkpt lat="40.29355506351098" lon="0.23086036364178703"><ele>154.0</ele><time>2026-04-19T17:15:25.999Z</time></trkpt><trkpt lat="40.29329145990458" lon="0.2306411615662384"><ele>152.0</ele><time>2026-04-19T17:15:26.999Z</time></trkpt><trkpt lat="40.29303030489074" lon="0.23044139001300715"><ele>150.0</ele><time>2026-04-19T17:15:27.999Z</time></trkpt><trkpt lat="40.29276428298884" lon="0.23025464791839606"><ele>150.0</ele><time>2026-04-19T17:15:28.999Z</time></trkpt><trkpt lat="40.29249191558346" lon="0.23008568547283947"><ele>150.0</ele><time>2026-04-19T17:15:29.999Z</time></trkpt><trkpt lat="40.29221649034901" lon="0.22991681640190162"><ele>151.5</ele><time>2026-04-19T17:15:30.999Z</time></trkpt><trkpt lat="40.29193486198864" lon="0.22975709956332152"><ele>153.0</ele><time>2026-04-19T17:15:31.999Z</time></trkpt><trkpt lat="40.29165669961193" lon="0.22960895142843413"><ele>153.5</ele><time>2026-04-19T17:15:32.999Z</time></trkpt><trkpt lat="40.29137883605" lon="0.22946485343138814"><ele>154.0</ele><time>2026-04-19T17:15:33.999Z</time></trkpt><trkpt lat="40.29110082840943" lon="0.22932403622008132"><ele>154.0</ele><time>2026-04-19T17:15:34.999Z</time></trkpt><trkpt lat="40.2908207882894" lon="0.22919636397062926"><ele>154.0</ele><time>2026-04-19T17:15:35.999Z</time></trkpt><trkpt lat="40.29053925868863" lon="0.2290718732233626"><ele>153.5</ele><time>2026-04-19T17:15:36.999Z</time></trkpt><trkpt lat="40.29025660935099" lon="0.22896333626136298"><ele>153.0</ele><time>2026-04-19T17:15:37.999Z</time></trkpt><trkpt lat="40.28997792512676" lon="0.22887269150507542"><ele>154.5</ele><time>2026-04-19T17:15:38.999Z</time></trkpt><trkpt lat="40.28970260108542" lon="0.22878088174114117"><ele>156.0</ele><time>2026-04-19T17:15:39.999Z</time></trkpt><trkpt lat="40.289428454941046" lon="0.228692657495296"><ele>156.0</ele><time>2026-04-19T17:15:40.999Z</time></trkpt><trkpt lat="40.28916140471758" lon="0.22861724050138843"><ele>156.0</ele><time>2026-04-19T17:15:41.999Z</time></trkpt><trkpt lat="40.28889676477026" lon="0.2285510384288759"><ele>156.5</ele><time>2026-04-19T17:15:42.999Z</time></trkpt><trkpt lat="40.288628091394024" lon="0.22847950387631866"><ele>157.0</ele><time>2026-04-19T17:15:43.999Z</time></trkpt><trkpt lat="40.28835972103108" lon="0.2284183669249089"><ele>157.0</ele><time>2026-04-19T17:15:44.999Z</time></trkpt><trkpt lat="40.28809559635756" lon="0.22837186263049708"><ele>157.0</ele><time>2026-04-19T17:15:45.999Z</time></trkpt><trkpt lat="40.287836920838764" lon="0.2283385580280323"><ele>157.0</ele><time>2026-04-19T17:15:46.999Z</time></trkpt><trkpt lat="40.28757820152264" lon="0.22830959905469872"><ele>157.0</ele><time>2026-04-19T17:15:47.999Z</time></trkpt><trkpt lat="40.28730741903537" lon="0.22827289413212765"><ele>158.0</ele><time>2026-04-19T17:15:48.999Z</time></trkpt><trkpt lat="40.28702869900366" lon="0.2282496581468734"><ele>159.0</ele><time>2026-04-19T17:15:49.999Z</time></trkpt><trkpt lat="40.28674807964958" lon="0.22823495538315983"><ele>159.0</ele><time>2026-04-19T17:15:50.999Z</time></trkpt><trkpt lat="40.286466182760606" lon="0.22821876265987004"><ele>159.0</ele><time>2026-04-19T17:15:51.999Z</time></trkpt><trkpt lat="40.28618856372787" lon="0.22821711476401987"><ele>160.0</ele><time>2026-04-19T17:15:52.999Z</time></trkpt><trkpt lat="40.28590611723432" lon="0.22822007507909908"><ele>161.0</ele><time>2026-04-19T17:15:53.999Z</time></trkpt><trkpt lat="40.2856168410702" lon="0.22823129245148543"><ele>161.5</ele><time>2026-04-19T17:15:54.999Z</time></trkpt><trkpt lat="40.28531479863106" lon="0.22825195605632026"><ele>162.0</ele><time>2026-04-19T17:15:55.999Z</time></trkpt><trkpt lat="40.28500502612328" lon="0.22827891957348087"><ele>163.0</ele><time>2026-04-19T17:15:56.999Z</time></trkpt><trkpt lat="40.28469376914541" lon="0.22831482430254676"><ele>164.0</ele><time>2026-04-19T17:15:57.999Z</time></trkpt><trkpt lat="40.284380934335005" lon="0.2283670810877258"><ele>164.0</ele><time>2026-04-19T17:15:58.999Z</time></trkpt><trkpt lat="40.28406079591158" lon="0.2284246398430382"><ele>164.0</ele><time>2026-04-19T17:15:59.999Z</time></trkpt><trkpt lat="40.2837402880569" lon="0.22849204458823044"><ele>164.5</ele><time>2026-04-19T17:16:00.999Z</time></trkpt><trkpt lat="40.28342318829667" lon="0.2285660045740606"><ele>165.0</ele><time>2026-04-19T17:16:01.999Z</time></trkpt><trkpt lat="40.28311302494748" lon="0.22864392542785683"><ele>166.5</ele><time>2026-04-19T17:16:02.999Z</time></trkpt><trkpt lat="40.28280486380189" lon="0.22873341432562969"><ele>168.0</ele><time>2026-04-19T17:16:03.999Z</time></trkpt><trkpt lat="40.28250040251604" lon="0.228833157183557"><ele>169.0</ele><time>2026-04-19T17:16:04.999Z</time></trkpt><trkpt lat="40.282200128719836" lon="0.22893868880173734"><ele>170.0</ele><time>2026-04-19T17:16:05.999Z</time></trkpt><trkpt lat="40.281896740273865" lon="0.22905465190857244"><ele>167.0</ele><time>2026-04-19T17:16:06.999Z</time></trkpt><trkpt lat="40.28159859426389" lon="0.22917860801742373"><ele>164.0</ele><time>2026-04-19T17:16:07.999Z</time></trkpt><trkpt lat="40.28129964342609" lon="0.22931149866783687"><ele>162.0</ele><time>2026-04-19T17:16:08.999Z</time></trkpt><trkpt lat="40.281003584988134" lon="0.2294543872061285"><ele>160.0</ele><time>2026-04-19T17:16:09.999Z</time></trkpt><trkpt lat="40.28071010979091" lon="0.2296083706665936"><ele>157.0</ele><time>2026-04-19T17:16:10.998Z</time></trkpt><trkpt lat="40.28041353449748" lon="0.22976888054434427"><ele>154.0</ele><time>2026-04-19T17:16:11.998Z</time></trkpt><trkpt lat="40.280120943581366" lon="0.22993985912395665"><ele>154.0</ele><time>2026-04-19T17:16:12.998Z</time></trkpt><trkpt lat="40.279829324398264" lon="0.23011794418617362"><ele>154.0</ele><time>2026-04-19T17:16:13.998Z</time></trkpt><trkpt lat="40.279544695061546" lon="0.23030273596278522"><ele>154.0</ele><time>2026-04-19T17:16:14.998Z</time></trkpt><trkpt lat="40.27926649391582" lon="0.2304943818770612"><ele>154.0</ele><time>2026-04-19T17:16:15.998Z</time></trkpt><trkpt lat="40.278992569925244" lon="0.23069263693596767"><ele>152.0</ele><time>2026-04-19T17:16:16.998Z</time></trkpt><trkpt lat="40.278722758984934" lon="0.23089515762771684"><ele>150.0</ele><time>2026-04-19T17:16:17.998Z</time></trkpt><trkpt lat="40.27846287504188" lon="0.23109989230231115"><ele>150.0</ele><time>2026-04-19T17:16:18.998Z</time></trkpt><trkpt lat="40.278204961269886" lon="0.2313049921286401"><ele>150.0</ele><time>2026-04-19T17:16:19.998Z</time></trkpt><trkpt lat="40.27794854886652" lon="0.23150901446094585"><ele>148.5</ele><time>2026-04-19T17:16:20.998Z</time></trkpt><trkpt lat="40.27769813702527" lon="0.2317152507565024"><ele>147.0</ele><time>2026-04-19T17:16:21.998Z</time></trkpt><trkpt lat="40.27744604449724" lon="0.23192186158144595"><ele>145.0</ele><time>2026-04-19T17:16:22.998Z</time></trkpt><trkpt lat="40.27719344243938" lon="0.2321233218266282"><ele>143.0</ele><time>2026-04-19T17:16:23.998Z</time></trkpt><trkpt lat="40.27693629185954" lon="0.23233126018017908"><ele>142.0</ele><time>2026-04-19T17:16:24.998Z</time></trkpt><trkpt lat="40.27667671580566" lon="0.23254758873167947"><ele>141.0</ele><time>2026-04-19T17:16:25.998Z</time></trkpt><trkpt lat="40.276407392238774" lon="0.23276795316443433"><ele>136.5</ele><time>2026-04-19T17:16:27Z</time></trkpt><trkpt lat="40.276132156634525" lon="0.23298663535589542"><ele>132.0</ele><time>2026-04-19T17:16:28Z</time></trkpt><trkpt lat="40.27585345758447" lon="0.2331977889753496"><ele>130.5</ele><time>2026-04-19T17:16:29Z</time></trkpt><trkpt lat="40.275570221102384" lon="0.2334013645599133"><ele>129.0</ele><time>2026-04-19T17:16:30Z</time></trkpt><trkpt lat="40.27528513204911" lon="0.23359441146670593"><ele>129.0</ele><time>2026-04-19T17:16:31Z</time></trkpt><trkpt lat="40.27499533240833" lon="0.23378219664722166"><ele>129.0</ele><time>2026-04-19T17:16:32Z</time></trkpt><trkpt lat="40.27470503547926" lon="0.23396321521600594"><ele>125.5</ele><time>2026-04-19T17:16:33Z</time></trkpt><trkpt lat="40.27441195137826" lon="0.23413856508910955"><ele>122.0</ele><time>2026-04-19T17:16:34Z</time></trkpt><trkpt lat="40.274119900869884" lon="0.23430849840114062"><ele>118.5</ele><time>2026-04-19T17:16:35Z</time></trkpt><trkpt lat="40.273823347812346" lon="0.23447142712216573"><ele>115.0</ele><time>2026-04-19T17:16:36Z</time></trkpt><trkpt lat="40.27352095737226" lon="0.2346249366395989"><ele>115.0</ele><time>2026-04-19T17:16:37Z</time></trkpt><trkpt lat="40.273217200837635" lon="0.2347788979899817"><ele>115.0</ele><time>2026-04-19T17:16:38Z</time></trkpt><trkpt lat="40.272911842603406" lon="0.23492705252838686"><ele>115.5</ele><time>2026-04-19T17:16:39Z</time></trkpt><trkpt lat="40.272604942418624" lon="0.23507186909923133"><ele>116.0</ele><time>2026-04-19T17:16:40Z</time></trkpt><trkpt lat="40.272299588417496" lon="0.2352087031851002"><ele>113.5</ele><time>2026-04-19T17:16:41Z</time></trkpt><trkpt lat="40.27199291468754" lon="0.23533488699736707"><ele>111.0</ele><time>2026-04-19T17:16:42Z</time></trkpt><trkpt lat="40.27168492180522" lon="0.23545567205551904"><ele>111.5</ele><time>2026-04-19T17:16:43Z</time></trkpt><trkpt lat="40.27137987981732" lon="0.23557281037928052"><ele>112.0</ele><time>2026-04-19T17:16:44Z</time></trkpt><trkpt lat="40.271073604429645" lon="0.23567938578678224"><ele>112.0</ele><time>2026-04-19T17:16:45Z</time></trkpt><trkpt lat="40.27076765262836" lon="0.2357812862514171"><ele>112.0</ele><time>2026-04-19T17:16:46Z</time></trkpt><trkpt lat="40.27046196998035" lon="0.23586777197945039"><ele>114.5</ele><time>2026-04-19T17:16:47Z</time></trkpt><trkpt lat="40.270156209374164" lon="0.23595251952261126"><ele>117.0</ele><time>2026-04-19T17:16:48Z</time></trkpt><trkpt lat="40.26985052265324" lon="0.23602884126855253"><ele>117.0</ele><time>2026-04-19T17:16:49Z</time></trkpt><trkpt lat="40.269542430057385" lon="0.23609798126245524"><ele>117.0</ele><time>2026-04-19T17:16:50Z</time></trkpt><trkpt lat="40.26923366881429" lon="0.2361567308653712"><ele>114.0</ele><time>2026-04-19T17:16:51Z</time></trkpt><trkpt lat="40.26892138144032" lon="0.23621095602345968"><ele>111.0</ele><time>2026-04-19T17:16:52Z</time></trkpt><trkpt lat="40.26860987480338" lon="0.23626154980650974"><ele>111.0</ele><time>2026-04-19T17:16:53Z</time></trkpt><trkpt lat="40.26829981858885" lon="0.23631195442568134"><ele>111.0</ele><time>2026-04-19T17:16:54Z</time></trkpt><trkpt lat="40.267988045368554" lon="0.23635260894136553"><ele>110.5</ele><time>2026-04-19T17:16:55Z</time></trkpt><trkpt lat="40.267688080245044" lon="0.2363844380533611"><ele>110.0</ele><time>2026-04-19T17:16:56Z</time></trkpt><trkpt lat="40.26738342675384" lon="0.23641284188256498"><ele>111.5</ele><time>2026-04-19T17:16:57Z</time></trkpt><trkpt lat="40.2670810933779" lon="0.23642868978958934"><ele>113.0</ele><time>2026-04-19T17:16:58Z</time></trkpt><trkpt lat="40.266781062524515" lon="0.23643257677719304"><ele>113.0</ele><time>2026-04-19T17:16:59Z</time></trkpt><trkpt lat="40.266484211839284" lon="0.23642768091461788"><ele>113.0</ele><time>2026-04-19T17:17:00Z</time></trkpt><trkpt lat="40.26618652041966" lon="0.2364164849614923"><ele>113.0</ele><time>2026-04-19T17:17:01Z</time></trkpt><trkpt lat="40.2658911574269" lon="0.2363984411132898"><ele>113.0</ele><time>2026-04-19T17:17:02Z</time></trkpt><trkpt lat="40.26559120635541" lon="0.23637034607411525"><ele>113.0</ele><time>2026-04-19T17:17:03Z</time></trkpt><trkpt lat="40.26529204179346" lon="0.23633574604662652"><ele>113.0</ele><time>2026-04-19T17:17:04Z</time></trkpt><trkpt lat="40.26499311473265" lon="0.23628747307670417"><ele>107.5</ele><time>2026-04-19T17:17:05Z</time></trkpt><trkpt lat="40.264692248886696" lon="0.23622931412167897"><ele>102.0</ele><time>2026-04-19T17:17:06Z</time></trkpt><trkpt lat="40.26439470584581" lon="0.2361694609300916"><ele>102.0</ele><time>2026-04-19T17:17:07Z</time></trkpt><trkpt lat="40.26409419141805" lon="0.23609984601581516"><ele>102.0</ele><time>2026-04-19T17:17:08Z</time></trkpt><trkpt lat="40.26379298506683" lon="0.23601786641563413"><ele>98.0</ele><time>2026-04-19T17:17:09Z</time></trkpt><trkpt lat="40.263493487107986" lon="0.2359274476841776"><ele>94.0</ele><time>2026-04-19T17:17:10Z</time></trkpt><trkpt lat="40.26319595620635" lon="0.235824176062543"><ele>93.0</ele><time>2026-04-19T17:17:11Z</time></trkpt><trkpt lat="40.26290224677897" lon="0.23570976853964526"><ele>92.0</ele><time>2026-04-19T17:17:12Z</time></trkpt><trkpt lat="40.26261324528377" lon="0.235591205903665"><ele>92.0</ele><time>2026-04-19T17:17:13Z</time></trkpt><trkpt lat="40.262334355702016" lon="0.2354703449123092"><ele>92.0</ele><time>2026-04-19T17:17:14Z</time></trkpt><trkpt lat="40.26205741369402" lon="0.23534312203737917"><ele>90.5</ele><time>2026-04-19T17:17:15Z</time></trkpt><trkpt lat="40.261779700253435" lon="0.2352066144727009"><ele>89.0</ele><time>2026-04-19T17:17:15.999Z</time></trkpt><trkpt lat="40.261497804052944" lon="0.2350588989652511"><ele>87.5</ele><time>2026-04-19T17:17:16.999Z</time></trkpt><trkpt lat="40.261211382655745" lon="0.23490121807252415"><ele>86.0</ele><time>2026-04-19T17:17:17.999Z</time></trkpt><trkpt lat="40.260921174085766" lon="0.23474177192926995"><ele>86.0</ele><time>2026-04-19T17:17:18.999Z</time></trkpt><trkpt lat="40.26063172149796" lon="0.23457893367526206"><ele>86.0</ele><time>2026-04-19T17:17:19.999Z</time></trkpt><trkpt lat="40.26033586260063" lon="0.2344115816393596"><ele>83.5</ele><time>2026-04-19T17:17:20.999Z</time></trkpt><trkpt lat="40.26004197090808" lon="0.23423897863730622"><ele>81.0</ele><time>2026-04-19T17:17:21.999Z</time></trkpt><trkpt lat="40.25975040152007" lon="0.23405797114582147"><ele>80.5</ele><time>2026-04-19T17:17:22.999Z</time></trkpt><trkpt lat="40.259463654773924" lon="0.2338706374498796"><ele>80.0</ele><time>2026-04-19T17:17:23.999Z</time></trkpt><trkpt lat="40.25918229801114" lon="0.2336911970069283"><ele>78.0</ele><time>2026-04-19T17:17:24.999Z</time></trkpt><trkpt lat="40.2589022693576" lon="0.23351186688768724"><ele>76.0</ele><time>2026-04-19T17:17:25.999Z</time></trkpt><trkpt lat="40.25862974256303" lon="0.2333337945233311"><ele>76.0</ele><time>2026-04-19T17:17:26.999Z</time></trkpt><trkpt lat="40.25835371186614" lon="0.23316327237240098"><ele>76.0</ele><time>2026-04-19T17:17:27.999Z</time></trkpt><trkpt lat="40.25807524700215" lon="0.23299547971873905"><ele>74.5</ele><time>2026-04-19T17:17:28.999Z</time></trkpt><trkpt lat="40.25779798862455" lon="0.23282874666484749"><ele>73.0</ele><time>2026-04-19T17:17:29.999Z</time></trkpt><trkpt lat="40.25752041801573" lon="0.23266164464724035"><ele>71.0</ele><time>2026-04-19T17:17:30.999Z</time></trkpt><trkpt lat="40.25724394161577" lon="0.2324982790085452"><ele>69.0</ele><time>2026-04-19T17:17:31.999Z</time></trkpt><trkpt lat="40.256962812058745" lon="0.23233791226036163"><ele>69.0</ele><time>2026-04-19T17:17:32.999Z</time></trkpt><trkpt lat="40.25668494844599" lon="0.23217845139793383"><ele>69.0</ele><time>2026-04-19T17:17:33.999Z</time></trkpt><trkpt lat="40.256404820066386" lon="0.232020529317022"><ele>69.0</ele><time>2026-04-19T17:17:34.999Z</time></trkpt><trkpt lat="40.256125552465434" lon="0.23186341885451173"><ele>69.0</ele><time>2026-04-19T17:17:35.999Z</time></trkpt><trkpt lat="40.25584255458701" lon="0.23171010363735367"><ele>69.5</ele><time>2026-04-19T17:17:36.999Z</time></trkpt><trkpt lat="40.25555957093402" lon="0.2315650362213854"><ele>70.0</ele><time>2026-04-19T17:17:37.999Z</time></trkpt><trkpt lat="40.25528052833917" lon="0.23143112323952972"><ele>70.0</ele><time>2026-04-19T17:17:38.999Z</time></trkpt><trkpt lat="40.25499899795631" lon="0.2312930447214498"><ele>70.0</ele><time>2026-04-19T17:17:39.999Z</time></trkpt><trkpt lat="40.25471569958542" lon="0.23115861775257618"><ele>68.0</ele><time>2026-04-19T17:17:40.999Z</time></trkpt><trkpt lat="40.25443370960593" lon="0.23102807167101866"><ele>66.0</ele><time>2026-04-19T17:17:41.999Z</time></trkpt><trkpt lat="40.254151862018915" lon="0.23089779801040933"><ele>64.5</ele><time>2026-04-19T17:17:42.999Z</time></trkpt><trkpt lat="40.253867202257275" lon="0.2307667229100466"><ele>63.0</ele><time>2026-04-19T17:17:43.999Z</time></trkpt><trkpt lat="40.25358496997907" lon="0.23063215782674917"><ele>63.0</ele><time>2026-04-19T17:17:44.999Z</time></trkpt><trkpt lat="40.25329955274345" lon="0.2304968956290272"><ele>63.0</ele><time>2026-04-19T17:17:45.999Z</time></trkpt><trkpt lat="40.25301545849002" lon="0.23036340800160948"><ele>62.0</ele><time>2026-04-19T17:17:46.999Z</time></trkpt><trkpt lat="40.25273143498294" lon="0.2302289610325592"><ele>61.0</ele><time>2026-04-19T17:17:47.999Z</time></trkpt><trkpt lat="40.25244581546125" lon="0.2300956189627078"><ele>59.5</ele><time>2026-04-19T17:17:48.999Z</time></trkpt><trkpt lat="40.25216160134745" lon="0.22995931549816523"><ele>58.0</ele><time>2026-04-19T17:17:49.999Z</time></trkpt><trkpt lat="40.25188037740049" lon="0.22982086738072485"><ele>58.0</ele><time>2026-04-19T17:17:50.999Z</time></trkpt><trkpt lat="40.251598056714265" lon="0.22967659567534468"><ele>58.0</ele><time>2026-04-19T17:17:51.999Z</time></trkpt><trkpt lat="40.251320694997496" lon="0.22952578373488317"><ele>58.0</ele><time>2026-04-19T17:17:52.999Z</time></trkpt><trkpt lat="40.251043536214034" lon="0.22937181801864195"><ele>58.0</ele><time>2026-04-19T17:17:53.999Z</time></trkpt><trkpt lat="40.250767556863686" lon="0.22921145812435778"><ele>58.5</ele><time>2026-04-19T17:17:54.999Z</time></trkpt><trkpt lat="40.250487462193234" lon="0.22904541988651758"><ele>59.0</ele><time>2026-04-19T17:17:55.999Z</time></trkpt><trkpt lat="40.250214548948655" lon="0.22887902918601125"><ele>59.5</ele><time>2026-04-19T17:17:56.999Z</time></trkpt><trkpt lat="40.24994221687574" lon="0.22871070295165927"><ele>60.0</ele><time>2026-04-19T17:17:57.999Z</time></trkpt><trkpt lat="40.24967074078265" lon="0.2285421233847144"><ele>59.0</ele><time>2026-04-19T17:17:58.999Z</time></trkpt><trkpt lat="40.249404642926585" lon="0.22836478025413426"><ele>58.0</ele><time>2026-04-19T17:17:59.999Z</time></trkpt><trkpt lat="40.2491378427671" lon="0.22818173102322722"><ele>57.5</ele><time>2026-04-19T17:18:00.999Z</time></trkpt><trkpt lat="40.24886986652572" lon="0.22799287193720352"><ele>57.0</ele><time>2026-04-19T17:18:01.999Z</time></trkpt><trkpt lat="40.24860013016398" lon="0.22780257760021805"><ele>57.0</ele><time>2026-04-19T17:18:02.999Z</time></trkpt><trkpt lat="40.24833078435768" lon="0.22762394071622385"><ele>57.0</ele><time>2026-04-19T17:18:03.999Z</time></trkpt><trkpt lat="40.24806548488004" lon="0.2274319014920135"><ele>55.5</ele><time>2026-04-19T17:18:04.999Z</time></trkpt><trkpt lat="40.24780210871864" lon="0.22723526930943447"><ele>54.0</ele><time>2026-04-19T17:18:05.999Z</time></trkpt><trkpt lat="40.24754445786662" lon="0.22702730378844466"><ele>54.0</ele><time>2026-04-19T17:18:06.999Z</time></trkpt><trkpt lat="40.247287018910775" lon="0.22681150498890978"><ele>54.0</ele><time>2026-04-19T17:18:07.999Z</time></trkpt><trkpt lat="40.247029994839934" lon="0.22659829660430267"><ele>51.5</ele><time>2026-04-19T17:18:08.999Z</time></trkpt><trkpt lat="40.246769766695884" lon="0.2263786719980466"><ele>49.0</ele><time>2026-04-19T17:18:09.999Z</time></trkpt><trkpt lat="40.24651641772871" lon="0.22615647904445255"><ele>48.5</ele><time>2026-04-19T17:18:10.999Z</time></trkpt><trkpt lat="40.246263152641085" lon="0.22592598919495047"><ele>48.0</ele><time>2026-04-19T17:18:11.999Z</time></trkpt><trkpt lat="40.246013522061304" lon="0.2256988161632899"><ele>46.0</ele><time>2026-04-19T17:18:12.999Z</time></trkpt><trkpt lat="40.24577207320184" lon="0.22545864890769138"><ele>44.0</ele><time>2026-04-19T17:18:13.998Z</time></trkpt><trkpt lat="40.245527187142585" lon="0.22522417424200877"><ele>44.0</ele><time>2026-04-19T17:18:14.998Z</time></trkpt><trkpt lat="40.245284756813554" lon="0.22499026118145082"><ele>44.0</ele><time>2026-04-19T17:18:15.998Z</time></trkpt><trkpt lat="40.24504332502838" lon="0.2247448232355167"><ele>43.5</ele><time>2026-04-19T17:18:16.998Z</time></trkpt><trkpt lat="40.24480230256733" lon="0.2244979524081365"><ele>43.0</ele><time>2026-04-19T17:18:17.998Z</time></trkpt><trkpt lat="40.244565449390755" lon="0.22424976875050381"><ele>43.0</ele><time>2026-04-19T17:18:18.998Z</time></trkpt><trkpt lat="40.24433146290567" lon="0.22399248788591328"><ele>43.0</ele><time>2026-04-19T17:18:19.998Z</time></trkpt><trkpt lat="40.24409786820069" lon="0.22373170762294875"><ele>45.5</ele><time>2026-04-19T17:18:20.998Z</time></trkpt><trkpt lat="40.2438839555049" lon="0.22348059106575124"><ele>48.0</ele><time>2026-04-19T17:18:21.998Z</time></trkpt><trkpt lat="40.24366046647198" lon="0.22322600315965682"><ele>51.0</ele><time>2026-04-19T17:18:22.998Z</time></trkpt><trkpt lat="40.24343986390308" lon="0.2229665494758006"><ele>54.0</ele><time>2026-04-19T17:18:23.998Z</time></trkpt><trkpt lat="40.2432233463014" lon="0.22270824766234512"><ele>54.0</ele><time>2026-04-19T17:18:24.998Z</time></trkpt><trkpt lat="40.243008279834356" lon="0.22244412136507832"><ele>54.0</ele><time>2026-04-19T17:18:25.998Z</time></trkpt><trkpt lat="40.242794678213585" lon="0.22218383735352448"><ele>54.0</ele><time>2026-04-19T17:18:26.998Z</time></trkpt><trkpt lat="40.242578621554294" lon="0.22192410204076152"><ele>54.0</ele><time>2026-04-19T17:18:27.998Z</time></trkpt><trkpt lat="40.24236316479794" lon="0.22166202629052717"><ele>53.5</ele><time>2026-04-19T17:18:28.998Z</time></trkpt><trkpt lat="40.24214559881156" lon="0.22140015536921667"><ele>53.0</ele><time>2026-04-19T17:18:29.998Z</time></trkpt><trkpt lat="40.241926498997536" lon="0.22113682438985713"><ele>53.0</ele><time>2026-04-19T17:18:30.998Z</time></trkpt><trkpt lat="40.241709787425634" lon="0.22087666276067486"><ele>53.0</ele><time>2026-04-19T17:18:31.998Z</time></trkpt><trkpt lat="40.241492590803375" lon="0.22062123205523027"><ele>53.5</ele><time>2026-04-19T17:18:33Z</time></trkpt><trkpt lat="40.24127751029663" lon="0.22036357351073807"><ele>54.0</ele><time>2026-04-19T17:18:34Z</time></trkpt><trkpt lat="40.24106216029421" lon="0.22010873498914613"><ele>54.0</ele><time>2026-04-19T17:18:35Z</time></trkpt><trkpt lat="40.240844537835464" lon="0.21985337975146252"><ele>54.0</ele><time>2026-04-19T17:18:36Z</time></trkpt><trkpt lat="40.240627178551975" lon="0.2195988120038928"><ele>53.5</ele><time>2026-04-19T17:18:37Z</time></trkpt><trkpt lat="40.24041011356112" lon="0.21934452091775425"><ele>53.0</ele><time>2026-04-19T17:18:38Z</time></trkpt><trkpt lat="40.240192850183206" lon="0.21909230532508317"><ele>52.0</ele><time>2026-04-19T17:18:39Z</time></trkpt><trkpt lat="40.23997328061731" lon="0.21884128419524387"><ele>51.0</ele><time>2026-04-19T17:18:40Z</time></trkpt><trkpt lat="40.239753430721635" lon="0.21859129944111652"><ele>51.0</ele><time>2026-04-19T17:18:41Z</time></trkpt><trkpt lat="40.239532872835305" lon="0.21835104743165118"><ele>51.0</ele><time>2026-04-19T17:18:42Z</time></trkpt><trkpt lat="40.239313756689555" lon="0.2181111995905634"><ele>50.5</ele><time>2026-04-19T17:18:43Z</time></trkpt><trkpt lat="40.239093567472196" lon="0.21787358606862658"><ele>50.0</ele><time>2026-04-19T17:18:44Z</time></trkpt><trkpt lat="40.238873209523256" lon="0.21763240555588045"><ele>52.5</ele><time>2026-04-19T17:18:45Z</time></trkpt><trkpt lat="40.238653204886916" lon="0.217394441282487"><ele>55.0</ele><time>2026-04-19T17:18:46Z</time></trkpt><trkpt lat="40.23842581698069" lon="0.2171575431417737"><ele>55.0</ele><time>2026-04-19T17:18:47Z</time></trkpt><trkpt lat="40.2381967079783" lon="0.21692499473674026"><ele>55.0</ele><time>2026-04-19T17:18:48Z</time></trkpt><trkpt lat="40.2379637302471" lon="0.21669115421818308"><ele>59.0</ele><time>2026-04-19T17:18:49Z</time></trkpt><trkpt lat="40.23773047990811" lon="0.21645583134567586"><ele>63.0</ele><time>2026-04-19T17:18:50Z</time></trkpt><trkpt lat="40.237492838714715" lon="0.2162214106189564"><ele>60.5</ele><time>2026-04-19T17:18:51Z</time></trkpt><trkpt lat="40.237254488240495" lon="0.21598781424211932"><ele>58.0</ele><time>2026-04-19T17:18:52Z</time></trkpt><trkpt lat="40.23701212107045" lon="0.2157536484058474"><ele>61.0</ele><time>2026-04-19T17:18:53Z</time></trkpt><trkpt lat="40.23676790574484" lon="0.21552434032911671"><ele>64.0</ele><time>2026-04-19T17:18:54Z</time></trkpt><trkpt lat="40.236522806752305" lon="0.21529195292776312"><ele>60.5</ele><time>2026-04-19T17:18:55Z</time></trkpt><trkpt lat="40.23628048390677" lon="0.21505620388775484"><ele>57.0</ele><time>2026-04-19T17:18:56Z</time></trkpt><trkpt lat="40.23604024927204" lon="0.2148254819656261"><ele>56.5</ele><time>2026-04-19T17:18:57Z</time></trkpt><trkpt lat="40.23580009819328" lon="0.21459964324836553"><ele>56.0</ele><time>2026-04-19T17:18:58Z</time></trkpt><trkpt lat="40.23556214167729" lon="0.21437866863394037"><ele>56.0</ele><time>2026-04-19T17:18:59Z</time></trkpt><trkpt lat="40.23533269605761" lon="0.2141622328683515"><ele>56.0</ele><time>2026-04-19T17:19:00Z</time></trkpt><trkpt lat="40.23510450715606" lon="0.21394819156458106"><ele>55.5</ele><time>2026-04-19T17:19:01Z</time></trkpt><trkpt lat="40.23487633974558" lon="0.21373729881212197"><ele>55.0</ele><time>2026-04-19T17:19:02Z</time></trkpt><trkpt lat="40.23465136776592" lon="0.21352316293045537"><ele>55.0</ele><time>2026-04-19T17:19:03Z</time></trkpt><trkpt lat="40.23442485212934" lon="0.21330235986182997"><ele>55.0</ele><time>2026-04-19T17:19:04Z</time></trkpt><trkpt lat="40.234198290982" lon="0.2130834745188774"><ele>54.5</ele><time>2026-04-19T17:19:05Z</time></trkpt><trkpt lat="40.23397296954728" lon="0.21286243001788638"><ele>54.0</ele><time>2026-04-19T17:19:06Z</time></trkpt><trkpt lat="40.23374900951182" lon="0.2126414863211887"><ele>54.0</ele><time>2026-04-19T17:19:07Z</time></trkpt><trkpt lat="40.233526046866054" lon="0.2124183297503873"><ele>54.0</ele><time>2026-04-19T17:19:08Z</time></trkpt><trkpt lat="40.233303347623504" lon="0.21219283200788025"><ele>55.5</ele><time>2026-04-19T17:19:09Z</time></trkpt><trkpt lat="40.23308389486802" lon="0.2119592341656249"><ele>57.0</ele><time>2026-04-19T17:19:10Z</time></trkpt><trkpt lat="40.232866432412656" lon="0.21171735629561617"><ele>58.0</ele><time>2026-04-19T17:19:11Z</time></trkpt><trkpt lat="40.23265201178723" lon="0.2114761270038503"><ele>59.0</ele><time>2026-04-19T17:19:12Z</time></trkpt><trkpt lat="40.23243591832296" lon="0.21123527646498508"><ele>58.0</ele><time>2026-04-19T17:19:13Z</time></trkpt><trkpt lat="40.23222302795221" lon="0.21098620983086128"><ele>57.0</ele><time>2026-04-19T17:19:14Z</time></trkpt><trkpt lat="40.232019866464505" lon="0.21072940757478154"><ele>56.0</ele><time>2026-04-19T17:19:15Z</time></trkpt><trkpt lat="40.23180956464457" lon="0.21048031575117146"><ele>55.0</ele><time>2026-04-19T17:19:16Z</time></trkpt><trkpt lat="40.231606110990235" lon="0.21022242256134704"><ele>53.5</ele><time>2026-04-19T17:19:16.999Z</time></trkpt><trkpt lat="40.23140474991736" lon="0.2099558896633047"><ele>52.0</ele><time>2026-04-19T17:19:17.999Z</time></trkpt><trkpt lat="40.23120730534905" lon="0.20969037352091943"><ele>51.5</ele><time>2026-04-19T17:19:18.999Z</time></trkpt><trkpt lat="40.231012819633584" lon="0.2094218344120049"><ele>51.0</ele><time>2026-04-19T17:19:19.999Z</time></trkpt><trkpt lat="40.23081871433374" lon="0.20914863845384726"><ele>50.0</ele><time>2026-04-19T17:19:20.999Z</time></trkpt><trkpt lat="40.23063160264485" lon="0.20887278099283865"><ele>49.0</ele><time>2026-04-19T17:19:21.999Z</time></trkpt><trkpt lat="40.2304448285035" lon="0.2085897600195957"><ele>49.0</ele><time>2026-04-19T17:19:22.999Z</time></trkpt><trkpt lat="40.230261571430304" lon="0.2082986923495326"><ele>49.0</ele><time>2026-04-19T17:19:23.999Z</time></trkpt><trkpt lat="40.23008057138039" lon="0.2080033938004538"><ele>49.5</ele><time>2026-04-19T17:19:24.999Z</time></trkpt><trkpt lat="40.22990020392276" lon="0.2077082756375433"><ele>50.0</ele><time>2026-04-19T17:19:25.999Z</time></trkpt><trkpt lat="40.2297205289161" lon="0.2074096839519067"><ele>49.0</ele><time>2026-04-19T17:19:26.999Z</time></trkpt><trkpt lat="40.229547548381085" lon="0.20710712364774098"><ele>48.0</ele><time>2026-04-19T17:19:27.999Z</time></trkpt><trkpt lat="40.229377631493556" lon="0.20679959545307103"><ele>48.5</ele><time>2026-04-19T17:19:28.999Z</time></trkpt><trkpt lat="40.22921100117227" lon="0.2064877938357881"><ele>49.0</ele><time>2026-04-19T17:19:29.999Z</time></trkpt><trkpt lat="40.2290518989206" lon="0.20617308760092243"><ele>48.0</ele><time>2026-04-19T17:19:30.999Z</time></trkpt><trkpt lat="40.22889870855732" lon="0.20585669457163153"><ele>47.0</ele><time>2026-04-19T17:19:31.999Z</time></trkpt><trkpt lat="40.22874775131662" lon="0.20554191553764056"><ele>47.0</ele><time>2026-04-19T17:19:32.999Z</time></trkpt><trkpt lat="40.22859417222314" lon="0.20522890189150908"><ele>47.0</ele><time>2026-04-19T17:19:33.999Z</time></trkpt><trkpt lat="40.22844475107289" lon="0.20491796027296064"><ele>46.5</ele><time>2026-04-19T17:19:34.999Z</time></trkpt><trkpt lat="40.22829732994843" lon="0.20459648448883253"><ele>46.0</ele><time>2026-04-19T17:19:35.999Z</time></trkpt><trkpt lat="40.228154923915625" lon="0.2042722163763045"><ele>46.0</ele><time>2026-04-19T17:19:36.999Z</time></trkpt><trkpt lat="40.22801549367808" lon="0.20394452426914295"><ele>46.0</ele><time>2026-04-19T17:19:37.999Z</time></trkpt><trkpt lat="40.227884693030695" lon="0.20361397077916618"><ele>46.0</ele><time>2026-04-19T17:19:38.999Z</time></trkpt><trkpt lat="40.22775226980097" lon="0.20327886638254247"><ele>46.0</ele><time>2026-04-19T17:19:39.999Z</time></trkpt><trkpt lat="40.22762741002583" lon="0.20294010574360552"><ele>48.0</ele><time>2026-04-19T17:19:40.999Z</time></trkpt><trkpt lat="40.22750972031956" lon="0.20259840731035222"><ele>50.0</ele><time>2026-04-19T17:19:41.999Z</time></trkpt><trkpt lat="40.22738894252148" lon="0.2022568801257415"><ele>49.0</ele><time>2026-04-19T17:19:42.999Z</time></trkpt><trkpt lat="40.227272867967734" lon="0.20191330273190777"><ele>48.0</ele><time>2026-04-19T17:19:43.999Z</time></trkpt><trkpt lat="40.22715918286783" lon="0.20156682055734607"><ele>49.0</ele><time>2026-04-19T17:19:44.999Z</time></trkpt><trkpt lat="40.22704965267976" lon="0.20121853409489443"><ele>50.0</ele><time>2026-04-19T17:19:45.999Z</time></trkpt><trkpt lat="40.22694536385841" lon="0.20087658001905187"><ele>51.5</ele><time>2026-04-19T17:19:46.999Z</time></trkpt><trkpt lat="40.2268451858659" lon="0.20052813507651263"><ele>53.0</ele><time>2026-04-19T17:19:47.999Z</time></trkpt><trkpt lat="40.226748935096786" lon="0.20017215440728575"><ele>53.5</ele><time>2026-04-19T17:19:48.999Z</time></trkpt><trkpt lat="40.22665918061742" lon="0.19981714921710533"><ele>54.0</ele><time>2026-04-19T17:19:49.999Z</time></trkpt><trkpt lat="40.22657284582663" lon="0.19946345225126846"><ele>54.0</ele><time>2026-04-19T17:19:50.999Z</time></trkpt><trkpt lat="40.226481103360136" lon="0.1991064990189357"><ele>54.0</ele><time>2026-04-19T17:19:51.999Z</time></trkpt><trkpt lat="40.22639645344547" lon="0.19875480986327998"><ele>51.5</ele><time>2026-04-19T17:19:52.999Z</time></trkpt><trkpt lat="40.22631167450824" lon="0.19840449049034758"><ele>49.0</ele><time>2026-04-19T17:19:53.999Z</time></trkpt><trkpt lat="40.22622434706464" lon="0.1980425071509643"><ele>49.0</ele><time>2026-04-19T17:19:54.999Z</time></trkpt><trkpt lat="40.22613744475084" lon="0.19768564450118747"><ele>49.0</ele><time>2026-04-19T17:19:55.999Z</time></trkpt><trkpt lat="40.22605377790937" lon="0.1973338409950204"><ele>51.5</ele><time>2026-04-19T17:19:56.999Z</time></trkpt><trkpt lat="40.22597290348827" lon="0.19697992679002313"><ele>54.0</ele><time>2026-04-19T17:19:57.999Z</time></trkpt><trkpt lat="40.22589107864164" lon="0.19662602247258082"><ele>55.0</ele><time>2026-04-19T17:19:58.999Z</time></trkpt><trkpt lat="40.22580444981401" lon="0.19627362570903312"><ele>56.0</ele><time>2026-04-19T17:19:59.999Z</time></trkpt><trkpt lat="40.22570937813399" lon="0.19592137809905846"><ele>51.5</ele><time>2026-04-19T17:20:00.999Z</time></trkpt><trkpt lat="40.22561168206646" lon="0.1955782024905524"><ele>47.0</ele><time>2026-04-19T17:20:01.999Z</time></trkpt><trkpt lat="40.2255055297751" lon="0.19523469511940836"><ele>47.0</ele><time>2026-04-19T17:20:02.999Z</time></trkpt><trkpt lat="40.22539375466984" lon="0.19489299907660484"><ele>47.0</ele><time>2026-04-19T17:20:03.999Z</time></trkpt><trkpt lat="40.22527468791452" lon="0.1945509791516602"><ele>47.0</ele><time>2026-04-19T17:20:04.999Z</time></trkpt><trkpt lat="40.225152540466006" lon="0.19421428834549767"><ele>47.0</ele><time>2026-04-19T17:20:05.999Z</time></trkpt><trkpt lat="40.22502634034867" lon="0.19388672342148427"><ele>46.5</ele><time>2026-04-19T17:20:06.999Z</time></trkpt><trkpt lat="40.22489182746285" lon="0.19355270595003743"><ele>46.0</ele><time>2026-04-19T17:20:07.999Z</time></trkpt><trkpt lat="40.22475662288111" lon="0.1932260004628033"><ele>46.5</ele><time>2026-04-19T17:20:08.999Z</time></trkpt><trkpt lat="40.22461517773497" lon="0.1928980172690525"><ele>47.0</ele><time>2026-04-19T17:20:09.999Z</time></trkpt><trkpt lat="40.22446455525705" lon="0.19257514155624145"><ele>49.0</ele><time>2026-04-19T17:20:10.999Z</time></trkpt><trkpt lat="40.224309180951266" lon="0.1922568385493466"><ele>51.0</ele><time>2026-04-19T17:20:11.999Z</time></trkpt><trkpt lat="40.22414554038255" lon="0.19194457845541568"><ele>48.0</ele><time>2026-04-19T17:20:12.999Z</time></trkpt><trkpt lat="40.223978953044565" lon="0.19164076692753682"><ele>45.0</ele><time>2026-04-19T17:20:13.998Z</time></trkpt><trkpt lat="40.22380794801975" lon="0.19134171959694002"><ele>45.0</ele><time>2026-04-19T17:20:14.998Z</time></trkpt><trkpt lat="40.22362876870793" lon="0.19104615585523904"><ele>45.0</ele><time>2026-04-19T17:20:15.998Z</time></trkpt><trkpt lat="40.22344811528528" lon="0.19075239600579127"><ele>44.5</ele><time>2026-04-19T17:20:16.998Z</time></trkpt><trkpt lat="40.22326328503178" lon="0.19046137073048539"><ele>44.0</ele><time>2026-04-19T17:20:17.998Z</time></trkpt><trkpt lat="40.22307594640524" lon="0.1901783675444635"><ele>44.0</ele><time>2026-04-19T17:20:18.998Z</time></trkpt><trkpt lat="40.22288275172418" lon="0.18990013070922807"><ele>44.0</ele><time>2026-04-19T17:20:19.998Z</time></trkpt><trkpt lat="40.222680964072765" lon="0.18963242018788407"><ele>45.5</ele><time>2026-04-19T17:20:20.998Z</time></trkpt><trkpt lat="40.22247278638397" lon="0.1893687727597435"><ele>47.0</ele><time>2026-04-19T17:20:21.998Z</time></trkpt><trkpt lat="40.22226484310267" lon="0.1891130985250725"><ele>47.5</ele><time>2026-04-19T17:20:22.998Z</time></trkpt><trkpt lat="40.22204774032869" lon="0.18886313583076333"><ele>48.0</ele><time>2026-04-19T17:20:23.998Z</time></trkpt><trkpt lat="40.22183354495594" lon="0.18861754172153833"><ele>48.0</ele><time>2026-04-19T17:20:24.998Z</time></trkpt><trkpt lat="40.22161627029947" lon="0.1883757591836197"><ele>48.0</ele><time>2026-04-19T17:20:25.998Z</time></trkpt><trkpt lat="40.221389665126104" lon="0.1881401595877801"><ele>49.0</ele><time>2026-04-19T17:20:26.998Z</time></trkpt><trkpt lat="40.22116267026694" lon="0.18791063183547319"><ele>50.0</ele><time>2026-04-19T17:20:27.998Z</time></trkpt><trkpt lat="40.220926269796934" lon="0.18768934431770146"><ele>50.0</ele><time>2026-04-19T17:20:28.998Z</time></trkpt><trkpt lat="40.22068606200965" lon="0.18747292107285754"><ele>50.0</ele><time>2026-04-19T17:20:29.998Z</time></trkpt><trkpt lat="40.22044511164531" lon="0.1872588288355467"><ele>51.0</ele><time>2026-04-19T17:20:30.998Z</time></trkpt><trkpt lat="40.220199088159085" lon="0.18705618480247488"><ele>52.0</ele><time>2026-04-19T17:20:31.998Z</time></trkpt><trkpt lat="40.219946948148625" lon="0.18686139264538082"><ele>53.5</ele><time>2026-04-19T17:20:32.998Z</time></trkpt><trkpt lat="40.219694543772846" lon="0.18667202732773708"><ele>55.0</ele><time>2026-04-19T17:20:33.998Z</time></trkpt><trkpt lat="40.21943742812616" lon="0.18649011418833247"><ele>57.5</ele><time>2026-04-19T17:20:34.998Z</time></trkpt><trkpt lat="40.219178813014025" lon="0.18631440003523395"><ele>60.0</ele><time>2026-04-19T17:20:35.998Z</time></trkpt><trkpt lat="40.21891629547032" lon="0.18614537587601135"><ele>60.0</ele><time>2026-04-19T17:20:36.998Z</time></trkpt><trkpt lat="40.21865123610756" lon="0.1859760675450614"><ele>60.0</ele><time>2026-04-19T17:20:37.998Z</time></trkpt><trkpt lat="40.218383821523794" lon="0.1858064290232221"><ele>63.0</ele><time>2026-04-19T17:20:39Z</time></trkpt><trkpt lat="40.218119469486126" lon="0.1856393860203627"><ele>66.0</ele><time>2026-04-19T17:20:40Z</time></trkpt><trkpt lat="40.21785353183192" lon="0.1854680989588764"><ele>66.0</ele><time>2026-04-19T17:20:41Z</time></trkpt><trkpt lat="40.217582703764236" lon="0.18529773671481164"><ele>66.0</ele><time>2026-04-19T17:20:42Z</time></trkpt><trkpt lat="40.217316426299114" lon="0.18512358732378678"><ele>66.5</ele><time>2026-04-19T17:20:43Z</time></trkpt><trkpt lat="40.217047292660354" lon="0.18495129947871727"><ele>67.0</ele><time>2026-04-19T17:20:44Z</time></trkpt><trkpt lat="40.21678218150157" lon="0.1847720523172434"><ele>67.0</ele><time>2026-04-19T17:20:45Z</time></trkpt><trkpt lat="40.216518705851406" lon="0.18459391896040722"><ele>67.0</ele><time>2026-04-19T17:20:46Z</time></trkpt><trkpt lat="40.216258476669424" lon="0.18440963574405564"><ele>63.0</ele><time>2026-04-19T17:20:47Z</time></trkpt><trkpt lat="40.21599621759156" lon="0.1842206630045419"><ele>59.0</ele><time>2026-04-19T17:20:48Z</time></trkpt><trkpt lat="40.21574065324011" lon="0.18403054172311134"><ele>58.5</ele><time>2026-04-19T17:20:49Z</time></trkpt><trkpt lat="40.21548183207519" lon="0.18383844304184185"><ele>58.0</ele><time>2026-04-19T17:20:50Z</time></trkpt><trkpt lat="40.215231765189884" lon="0.1836470999181924"><ele>58.0</ele><time>2026-04-19T17:20:51Z</time></trkpt><trkpt lat="40.21498360917756" lon="0.18345084935308284"><ele>58.0</ele><time>2026-04-19T17:20:52Z</time></trkpt><trkpt lat="40.21473893073343" lon="0.1832534538668823"><ele>55.5</ele><time>2026-04-19T17:20:53Z</time></trkpt><trkpt lat="40.21449909662929" lon="0.18305191576921154"><ele>53.0</ele><time>2026-04-19T17:20:54Z</time></trkpt><trkpt lat="40.214261497751565" lon="0.18284915554009562"><ele>53.0</ele><time>2026-04-19T17:20:55Z</time></trkpt><trkpt lat="40.21402582292753" lon="0.18264648799482786"><ele>53.0</ele><time>2026-04-19T17:20:56Z</time></trkpt><trkpt lat="40.21378968019133" lon="0.1824424277877118"><ele>51.5</ele><time>2026-04-19T17:20:57Z</time></trkpt><trkpt lat="40.21355787147867" lon="0.18223856525712603"><ele>50.0</ele><time>2026-04-19T17:20:58Z</time></trkpt><trkpt lat="40.213325905892255" lon="0.18203176128176085"><ele>48.0</ele><time>2026-04-19T17:20:59Z</time></trkpt><trkpt lat="40.21309339506831" lon="0.18182617607499055"><ele>46.0</ele><time>2026-04-19T17:21:00Z</time></trkpt><trkpt lat="40.21285991307647" lon="0.1816189860064875"><ele>48.0</ele><time>2026-04-19T17:21:01Z</time></trkpt><trkpt lat="40.212626260402786" lon="0.1814125264075597"><ele>50.0</ele><time>2026-04-19T17:21:02Z</time></trkpt><trkpt lat="40.21238569685165" lon="0.18120311510085924"><ele>48.5</ele><time>2026-04-19T17:21:03Z</time></trkpt><trkpt lat="40.21215401225917" lon="0.18099408982852933"><ele>47.0</ele><time>2026-04-19T17:21:04Z</time></trkpt><trkpt lat="40.21192118104303" lon="0.18078923036560168"><ele>46.5</ele><time>2026-04-19T17:21:05Z</time></trkpt><trkpt lat="40.211685088591075" lon="0.18058423197297063"><ele>46.0</ele><time>2026-04-19T17:21:06Z</time></trkpt><trkpt lat="40.21144605223562" lon="0.18037907587499663"><ele>46.0</ele><time>2026-04-19T17:21:07Z</time></trkpt><trkpt lat="40.211208045039264" lon="0.18017873330009204"><ele>46.0</ele><time>2026-04-19T17:21:08Z</time></trkpt><trkpt lat="40.210966667593446" lon="0.17997963337091405"><ele>46.0</ele><time>2026-04-19T17:21:09Z</time></trkpt><trkpt lat="40.210723070751015" lon="0.1797815449119816"><ele>46.0</ele><time>2026-04-19T17:21:10Z</time></trkpt><trkpt lat="40.21047642456692" lon="0.17958985798903626"><ele>46.0</ele><time>2026-04-19T17:21:11Z</time></trkpt><trkpt lat="40.21022583360803" lon="0.1793981059313099"><ele>46.0</ele><time>2026-04-19T17:21:12Z</time></trkpt><trkpt lat="40.20996927465253" lon="0.17920624532648355"><ele>45.0</ele><time>2026-04-19T17:21:13Z</time></trkpt><trkpt lat="40.20970931755119" lon="0.17901751410274777"><ele>44.0</ele><time>2026-04-19T17:21:14Z</time></trkpt><trkpt lat="40.20944523244435" lon="0.17883248576910307"><ele>44.0</ele><time>2026-04-19T17:21:15Z</time></trkpt><trkpt lat="40.20918044601017" lon="0.17865501044710833"><ele>44.0</ele><time>2026-04-19T17:21:16Z</time></trkpt><trkpt lat="40.208913800329995" lon="0.1784770850496394"><ele>42.5</ele><time>2026-04-19T17:21:17Z</time></trkpt><trkpt lat="40.20864304612549" lon="0.178304635622022"><ele>41.0</ele><time>2026-04-19T17:21:18Z</time></trkpt><trkpt lat="40.20837284428212" lon="0.1781330595784313"><ele>39.0</ele><time>2026-04-19T17:21:19Z</time></trkpt><trkpt lat="40.208103906896966" lon="0.17796372319098885"><ele>37.0</ele><time>2026-04-19T17:21:20Z</time></trkpt><trkpt lat="40.207837588999624" lon="0.17779625771372418"><ele>37.0</ele><time>2026-04-19T17:21:21Z</time></trkpt><trkpt lat="40.20757006506659" lon="0.17763886251445293"><ele>37.0</ele><time>2026-04-19T17:21:22Z</time></trkpt><trkpt lat="40.20730359023874" lon="0.1774848354386453"><ele>39.0</ele><time>2026-04-19T17:21:22.999Z</time></trkpt><trkpt lat="40.20704284673465" lon="0.17732465728413155"><ele>41.0</ele><time>2026-04-19T17:21:23.999Z</time></trkpt><trkpt lat="40.20677963237525" lon="0.17716636325070176"><ele>41.0</ele><time>2026-04-19T17:21:24.999Z</time></trkpt><trkpt lat="40.20651404287662" lon="0.1770185058289299"><ele>41.0</ele><time>2026-04-19T17:21:25.999Z</time></trkpt><trkpt lat="40.206244307140715" lon="0.17687554941580633"><ele>39.5</ele><time>2026-04-19T17:21:26.999Z</time></trkpt><trkpt lat="40.20597216381903" lon="0.17673696124527025"><ele>38.0</ele><time>2026-04-19T17:21:27.999Z</time></trkpt><trkpt lat="40.20570419293718" lon="0.17660423620607452"><ele>39.5</ele><time>2026-04-19T17:21:28.999Z</time></trkpt><trkpt lat="40.205427856039606" lon="0.17647305257109006"><ele>41.0</ele><time>2026-04-19T17:21:29.999Z</time></trkpt><trkpt lat="40.20515408259258" lon="0.17634936553983313"><ele>41.0</ele><time>2026-04-19T17:21:30.999Z</time></trkpt><trkpt lat="40.20487499478664" lon="0.17622838290114975"><ele>41.0</ele><time>2026-04-19T17:21:31.999Z</time></trkpt><trkpt lat="40.20459543576987" lon="0.17611216511039265"><ele>39.0</ele><time>2026-04-19T17:21:32.999Z</time></trkpt><trkpt lat="40.20431426655057" lon="0.17600047622945486"><ele>37.0</ele><time>2026-04-19T17:21:33.999Z</time></trkpt><trkpt lat="40.20403329834331" lon="0.17589263050363887"><ele>36.0</ele><time>2026-04-19T17:21:34.999Z</time></trkpt><trkpt lat="40.20375136569388" lon="0.17578613848479138"><ele>35.0</ele><time>2026-04-19T17:21:35.999Z</time></trkpt><trkpt lat="40.203466389904776" lon="0.1756856046997117"><ele>35.0</ele><time>2026-04-19T17:21:36.999Z</time></trkpt><trkpt lat="40.20318105200778" lon="0.1755896757101031"><ele>35.0</ele><time>2026-04-19T17:21:37.999Z</time></trkpt><trkpt lat="40.202892813499936" lon="0.17549600073247582"><ele>35.0</ele><time>2026-04-19T17:21:38.999Z</time></trkpt><trkpt lat="40.20260708581495" lon="0.175406001865322"><ele>35.0</ele><time>2026-04-19T17:21:39.999Z</time></trkpt><trkpt lat="40.20231920243861" lon="0.17532181369426106"><ele>33.0</ele><time>2026-04-19T17:21:40.999Z</time></trkpt><trkpt lat="40.202029322834555" lon="0.17524289623137146"><ele>31.0</ele><time>2026-04-19T17:21:41.999Z</time></trkpt><trkpt lat="40.20173481270418" lon="0.17516575370108883"><ele>32.0</ele><time>2026-04-19T17:21:42.999Z</time></trkpt><trkpt lat="40.20144600352266" lon="0.17509393651921312"><ele>33.0</ele><time>2026-04-19T17:21:43.999Z</time></trkpt><trkpt lat="40.201155236894586" lon="0.1750218412308554"><ele>33.0</ele><time>2026-04-19T17:21:44.999Z</time></trkpt><trkpt lat="40.20086524880571" lon="0.17495353598603705"><ele>33.0</ele><time>2026-04-19T17:21:45.999Z</time></trkpt><trkpt lat="40.20057471086349" lon="0.17488798032524952"><ele>34.0</ele><time>2026-04-19T17:21:46.999Z</time></trkpt><trkpt lat="40.20028752155249" lon="0.1748176954079472"><ele>35.0</ele><time>2026-04-19T17:21:47.999Z</time></trkpt><trkpt lat="40.19999616440019" lon="0.17474783826440435"><ele>34.5</ele><time>2026-04-19T17:21:48.999Z</time></trkpt><trkpt lat="40.199706024681696" lon="0.17468325015006994"><ele>34.0</ele><time>2026-04-19T17:21:49.999Z</time></trkpt><trkpt lat="40.199415545130265" lon="0.17461937010009226"><ele>34.0</ele><time>2026-04-19T17:21:50.999Z</time></trkpt><trkpt lat="40.19912563312756" lon="0.17455461593815919"><ele>34.0</ele><time>2026-04-19T17:21:51.999Z</time></trkpt><trkpt lat="40.19883829433421" lon="0.17448593265937892"><ele>34.0</ele><time>2026-04-19T17:21:52.999Z</time></trkpt><trkpt lat="40.19854810756949" lon="0.1744145633184523"><ele>34.0</ele><time>2026-04-19T17:21:53.999Z</time></trkpt><trkpt lat="40.198260416737675" lon="0.17434113735530446"><ele>34.0</ele><time>2026-04-19T17:21:54.999Z</time></trkpt><trkpt lat="40.19797010407393" lon="0.17427341883575848"><ele>34.0</ele><time>2026-04-19T17:21:55.999Z</time></trkpt><trkpt lat="40.19768315183006" lon="0.17420624143584193"><ele>34.0</ele><time>2026-04-19T17:21:56.999Z</time></trkpt><trkpt lat="40.19739484308696" lon="0.17413804481367648"><ele>34.0</ele><time>2026-04-19T17:21:57.999Z</time></trkpt><trkpt lat="40.19710708983406" lon="0.17406689515490667"><ele>34.0</ele><time>2026-04-19T17:21:58.999Z</time></trkpt><trkpt lat="40.19682286139226" lon="0.17399406793025854"><ele>34.0</ele><time>2026-04-19T17:21:59.999Z</time></trkpt><trkpt lat="40.196535648103556" lon="0.1739183378552533"><ele>34.0</ele><time>2026-04-19T17:22:00.999Z</time></trkpt><trkpt lat="40.19624805203718" lon="0.17383800326392743"><ele>34.0</ele><time>2026-04-19T17:22:01.999Z</time></trkpt><trkpt lat="40.19595228650021" lon="0.1737532740012997"><ele>33.0</ele><time>2026-04-19T17:22:02.999Z</time></trkpt><trkpt lat="40.19566146521092" lon="0.1736646499049952"><ele>32.0</ele><time>2026-04-19T17:22:03.999Z</time></trkpt><trkpt lat="40.19536574579581" lon="0.17357632209808685"><ele>32.0</ele><time>2026-04-19T17:22:04.999Z</time></trkpt><trkpt lat="40.19506905985736" lon="0.1734856261740138"><ele>32.0</ele><time>2026-04-19T17:22:05.999Z</time></trkpt><trkpt lat="40.19477148804723" lon="0.1733888281816479"><ele>31.5</ele><time>2026-04-19T17:22:06.999Z</time></trkpt><trkpt lat="40.194473163629134" lon="0.17328960790895465"><ele>31.0</ele><time>2026-04-19T17:22:07.999Z</time></trkpt><trkpt lat="40.19417407723804" lon="0.173189775169147"><ele>33.5</ele><time>2026-04-19T17:22:08.999Z</time></trkpt><trkpt lat="40.19387473523256" lon="0.1730829724202009"><ele>36.0</ele><time>2026-04-19T17:22:09.999Z</time></trkpt><trkpt lat="40.193576959321454" lon="0.1729725586538945"><ele>36.0</ele><time>2026-04-19T17:22:10.999Z</time></trkpt><trkpt lat="40.19327631238459" lon="0.17285768571942042"><ele>36.0</ele><time>2026-04-19T17:22:11.999Z</time></trkpt><trkpt lat="40.192978464348215" lon="0.17274470322912364"><ele>33.5</ele><time>2026-04-19T17:22:12.999Z</time></trkpt><trkpt lat="40.192680471820466" lon="0.1726344919447716"><ele>31.0</ele><time>2026-04-19T17:22:13.999Z</time></trkpt><trkpt lat="40.192384535191" lon="0.17251923644611777"><ele>28.0</ele><time>2026-04-19T17:22:14.999Z</time></trkpt><trkpt lat="40.19209236300513" lon="0.1724049171711992"><ele>25.0</ele><time>2026-04-19T17:22:15.999Z</time></trkpt><trkpt lat="40.191804233219315" lon="0.1722828849446206"><ele>25.0</ele><time>2026-04-19T17:22:16.999Z</time></trkpt><trkpt lat="40.19151373161907" lon="0.17215933661759011"><ele>25.0</ele><time>2026-04-19T17:22:17.999Z</time></trkpt><trkpt lat="40.19122961964498" lon="0.17203485794306597"><ele>25.0</ele><time>2026-04-19T17:22:18.999Z</time></trkpt><trkpt lat="40.190949007408655" lon="0.17190822597951264"><ele>25.0</ele><time>2026-04-19T17:22:19.999Z</time></trkpt><trkpt lat="40.19067588416695" lon="0.1717820727990372"><ele>24.0</ele><time>2026-04-19T17:22:20.998Z</time></trkpt><trkpt lat="40.19040322815218" lon="0.17164942813989062"><ele>23.0</ele><time>2026-04-19T17:22:21.998Z</time></trkpt><trkpt lat="40.190130156859205" lon="0.17151913505504945"><ele>23.0</ele><time>2026-04-19T17:22:22.998Z</time></trkpt><trkpt lat="40.189859074279816" lon="0.17138501595490716"><ele>23.0</ele><time>2026-04-19T17:22:23.998Z</time></trkpt><trkpt lat="40.18958884695575" lon="0.17124965911398424"><ele>20.0</ele><time>2026-04-19T17:22:24.998Z</time></trkpt><trkpt lat="40.18931779411491" lon="0.17111495792291254"><ele>17.0</ele><time>2026-04-19T17:22:25.998Z</time></trkpt><trkpt lat="40.18904901409061" lon="0.1709781822101329"><ele>14.5</ele><time>2026-04-19T17:22:26.998Z</time></trkpt><trkpt lat="40.188780948448965" lon="0.1708393078954996"><ele>12.0</ele><time>2026-04-19T17:22:27.998Z</time></trkpt><trkpt lat="40.18850859347617" lon="0.17069577278407672"><ele>13.0</ele><time>2026-04-19T17:22:28.998Z</time></trkpt><trkpt lat="40.188243517094996" lon="0.17054480221784477"><ele>14.0</ele><time>2026-04-19T17:22:29.998Z</time></trkpt><trkpt lat="40.187974585352826" lon="0.17039099346106626"><ele>12.0</ele><time>2026-04-19T17:22:30.998Z</time></trkpt><trkpt lat="40.18770417804566" lon="0.17024196521578236"><ele>10.0</ele><time>2026-04-19T17:22:31.998Z</time></trkpt><trkpt lat="40.187431110787514" lon="0.17008462506049069"><ele>10.0</ele><time>2026-04-19T17:22:32.998Z</time></trkpt><trkpt lat="40.187155398239796" lon="0.16992841514047263"><ele>10.0</ele><time>2026-04-19T17:22:33.998Z</time></trkpt><trkpt lat="40.18688047212492" lon="0.16976938981760728"><ele>10.0</ele><time>2026-04-19T17:22:34.998Z</time></trkpt><trkpt lat="40.186608943049194" lon="0.16960821861475023"><ele>10.0</ele><time>2026-04-19T17:22:35.998Z</time></trkpt><trkpt lat="40.18633443175508" lon="0.1694430703060376"><ele>8.0</ele><time>2026-04-19T17:22:36.998Z</time></trkpt><trkpt lat="40.186064952341724" lon="0.16927137177886795"><ele>6.0</ele><time>2026-04-19T17:22:37.998Z</time></trkpt><trkpt lat="40.18579709296181" lon="0.1690955872969679"><ele>6.0</ele><time>2026-04-19T17:22:38.998Z</time></trkpt><trkpt lat="40.18552944610661" lon="0.16892126186415254"><ele>6.0</ele><time>2026-04-19T17:22:39.998Z</time></trkpt><trkpt lat="40.18526849351097" lon="0.16874506916503482"><ele>6.0</ele><time>2026-04-19T17:22:40.998Z</time></trkpt><trkpt lat="40.18501187829207" lon="0.16857306014890866"><ele>6.0</ele><time>2026-04-19T17:22:41.998Z</time></trkpt><trkpt lat="40.184756130745775" lon="0.16840161174230905"><ele>7.0</ele><time>2026-04-19T17:22:42.998Z</time></trkpt><trkpt lat="40.184503305512415" lon="0.1682271147408518"><ele>8.0</ele><time>2026-04-19T17:22:43.998Z</time></trkpt><trkpt lat="40.18425063738969" lon="0.16805209771890384"><ele>10.0</ele><time>2026-04-19T17:22:45Z</time></trkpt><trkpt lat="40.183995812650686" lon="0.1678766012782188"><ele>12.0</ele><time>2026-04-19T17:22:46Z</time></trkpt><trkpt lat="40.183742982294525" lon="0.16769785659273045"><ele>12.0</ele><time>2026-04-19T17:22:47Z</time></trkpt><trkpt lat="40.183488285150084" lon="0.16751938413449372"><ele>12.0</ele><time>2026-04-19T17:22:48Z</time></trkpt><trkpt lat="40.18323824347638" lon="0.16734614095585498"><ele>12.5</ele><time>2026-04-19T17:22:49Z</time></trkpt><trkpt lat="40.18298749596508" lon="0.16717671842325024"><ele>13.0</ele><time>2026-04-19T17:22:50Z</time></trkpt><trkpt lat="40.18272708493703" lon="0.1670154926058001"><ele>13.0</ele><time>2026-04-19T17:22:51Z</time></trkpt><trkpt lat="40.18246864731075" lon="0.16684848105790467"><ele>13.0</ele><time>2026-04-19T17:22:52Z</time></trkpt><trkpt lat="40.18220928094146" lon="0.16668078517620522"><ele>15.5</ele><time>2026-04-19T17:22:53Z</time></trkpt><trkpt lat="40.181948460020905" lon="0.16651523279658315"><ele>18.0</ele><time>2026-04-19T17:22:54Z</time></trkpt><trkpt lat="40.18168790554836" lon="0.1663466604580692"><ele>18.5</ele><time>2026-04-19T17:22:55Z</time></trkpt><trkpt lat="40.18142722088599" lon="0.16618439876243582"><ele>19.0</ele><time>2026-04-19T17:22:56Z</time></trkpt><trkpt lat="40.18116404652018" lon="0.1660219218856514"><ele>19.0</ele><time>2026-04-19T17:22:57Z</time></trkpt><trkpt lat="40.180898087385174" lon="0.16586282018181908"><ele>19.0</ele><time>2026-04-19T17:22:58Z</time></trkpt><trkpt lat="40.180631642791255" lon="0.16570468045592582"><ele>18.5</ele><time>2026-04-19T17:22:59Z</time></trkpt><trkpt lat="40.18036338290555" lon="0.165547138021686"><ele>18.0</ele><time>2026-04-19T17:23:00Z</time></trkpt><trkpt lat="40.18009211928318" lon="0.1653903564449587"><ele>17.5</ele><time>2026-04-19T17:23:01Z</time></trkpt><trkpt lat="40.17982075656413" lon="0.16523001357513648"><ele>17.0</ele><time>2026-04-19T17:23:02Z</time></trkpt><trkpt lat="40.17954684275796" lon="0.16507657103511444"><ele>17.0</ele><time>2026-04-19T17:23:03Z</time></trkpt><trkpt lat="40.17927537888969" lon="0.1649235238073814"><ele>17.0</ele><time>2026-04-19T17:23:04Z</time></trkpt><trkpt lat="40.179002162030905" lon="0.16476592896890607"><ele>18.5</ele><time>2026-04-19T17:23:05Z</time></trkpt><trkpt lat="40.1787274004934" lon="0.1646098187567237"><ele>20.0</ele><time>2026-04-19T17:23:06Z</time></trkpt><trkpt lat="40.17845432540513" lon="0.16445673933293262"><ele>20.0</ele><time>2026-04-19T17:23:07Z</time></trkpt><trkpt lat="40.178178611123116" lon="0.16431116791981906"><ele>20.0</ele><time>2026-04-19T17:23:08Z</time></trkpt><trkpt lat="40.17790171048095" lon="0.16417301268206255"><ele>20.0</ele><time>2026-04-19T17:23:09Z</time></trkpt><trkpt lat="40.17762381136154" lon="0.16403347429528473"><ele>20.0</ele><time>2026-04-19T17:23:10Z</time></trkpt><trkpt lat="40.177346948007056" lon="0.1638940311609727"><ele>22.0</ele><time>2026-04-19T17:23:11Z</time></trkpt><trkpt lat="40.17706939123143" lon="0.16375383068723892"><ele>24.0</ele><time>2026-04-19T17:23:12Z</time></trkpt><trkpt lat="40.17678834617094" lon="0.16361148978945944"><ele>23.5</ele><time>2026-04-19T17:23:13Z</time></trkpt><trkpt lat="40.17650982263665" lon="0.16346596462422178"><ele>23.0</ele><time>2026-04-19T17:23:14Z</time></trkpt><trkpt lat="40.17623003080146" lon="0.16332217738663113"><ele>23.0</ele><time>2026-04-19T17:23:15Z</time></trkpt><trkpt lat="40.17595503251543" lon="0.16319766285075624"><ele>23.0</ele><time>2026-04-19T17:23:16Z</time></trkpt><trkpt lat="40.17567347625966" lon="0.16307133077215957"><ele>23.5</ele><time>2026-04-19T17:23:17Z</time></trkpt><trkpt lat="40.1753877012079" lon="0.16294446070042096"><ele>24.0</ele><time>2026-04-19T17:23:18Z</time></trkpt><trkpt lat="40.175101789998884" lon="0.1628168670335614"><ele>24.0</ele><time>2026-04-19T17:23:19Z</time></trkpt><trkpt lat="40.17481909096772" lon="0.16268745659796902"><ele>24.0</ele><time>2026-04-19T17:23:20Z</time></trkpt><trkpt lat="40.174538035142305" lon="0.1625603930462326"><ele>24.0</ele><time>2026-04-19T17:23:21Z</time></trkpt><trkpt lat="40.17425919266388" lon="0.16243727251737172"><ele>24.0</ele><time>2026-04-19T17:23:22Z</time></trkpt><trkpt lat="40.173981577330274" lon="0.16232127314132688"><ele>25.0</ele><time>2026-04-19T17:23:23Z</time></trkpt><trkpt lat="40.17369845051382" lon="0.16220355798718283"><ele>26.0</ele><time>2026-04-19T17:23:24Z</time></trkpt><trkpt lat="40.173421639475066" lon="0.16209859645293367"><ele>25.5</ele><time>2026-04-19T17:23:25Z</time></trkpt><trkpt lat="40.17314608436833" lon="0.16199623824852"><ele>25.0</ele><time>2026-04-19T17:23:26Z</time></trkpt><trkpt lat="40.1728694640334" lon="0.16189942271337324"><ele>25.0</ele><time>2026-04-19T17:23:26.999Z</time></trkpt><trkpt lat="40.17259118288099" lon="0.16181094103136479"><ele>25.0</ele><time>2026-04-19T17:23:27.999Z</time></trkpt><trkpt lat="40.17231311665097" lon="0.1617243939551596"><ele>24.0</ele><time>2026-04-19T17:23:28.999Z</time></trkpt><trkpt lat="40.172032640780095" lon="0.16163425334614187"><ele>23.0</ele><time>2026-04-19T17:23:29.999Z</time></trkpt><trkpt lat="40.17176090839622" lon="0.16154792409863922"><ele>23.0</ele><time>2026-04-19T17:23:30.999Z</time></trkpt><trkpt lat="40.17148954445092" lon="0.16142681146016477"><ele>23.0</ele><time>2026-04-19T17:23:31.999Z</time></trkpt><trkpt lat="40.1712152324311" lon="0.1613213043565134"><ele>23.0</ele><time>2026-04-19T17:23:32.999Z</time></trkpt><trkpt lat="40.170805521028015" lon="0.16104648725960646"><ele>22.0</ele><time>2026-04-19T17:23:33.999Z</time></trkpt><trkpt lat="40.17052096706545" lon="0.16094147449331872"><ele>21.0</ele><time>2026-04-19T17:23:34.999Z</time></trkpt><trkpt lat="40.1702424830357" lon="0.1608305607184122"><ele>21.0</ele><time>2026-04-19T17:23:35.999Z</time></trkpt><trkpt lat="40.16996957482119" lon="0.16070446692862564"><ele>21.0</ele><time>2026-04-19T17:23:36.999Z</time></trkpt><trkpt lat="40.16969476018352" lon="0.16058027828965002"><ele>21.5</ele><time>2026-04-19T17:23:37.999Z</time></trkpt><trkpt lat="40.16942602652254" lon="0.160460595913816"><ele>22.0</ele><time>2026-04-19T17:23:38.999Z</time></trkpt><trkpt lat="40.16915904836819" lon="0.16034336517661787"><ele>22.5</ele><time>2026-04-19T17:23:39.999Z</time></trkpt><trkpt lat="40.16889283479954" lon="0.1602264594889202"><ele>23.0</ele><time>2026-04-19T17:23:40.999Z</time></trkpt><trkpt lat="40.16862710136742" lon="0.1601022725899602"><ele>23.0</ele><time>2026-04-19T17:23:41.999Z</time></trkpt><trkpt lat="40.168364137822884" lon="0.1599820268624619"><ele>23.0</ele><time>2026-04-19T17:23:42.999Z</time></trkpt><trkpt lat="40.1681040362017" lon="0.15986103723007666"><ele>23.0</ele><time>2026-04-19T17:23:43.999Z</time></trkpt><trkpt lat="40.167841869080725" lon="0.15972850838913893"><ele>23.0</ele><time>2026-04-19T17:23:44.999Z</time></trkpt><trkpt lat="40.167579204685296" lon="0.15959885518396552"><ele>24.0</ele><time>2026-04-19T17:23:45.999Z</time></trkpt><trkpt lat="40.167315125975584" lon="0.15946534839147464"><ele>25.0</ele><time>2026-04-19T17:23:46.999Z</time></trkpt><trkpt lat="40.16704719393505" lon="0.15932938561657503"><ele>25.0</ele><time>2026-04-19T17:23:47.999Z</time></trkpt><trkpt lat="40.1667869219304" lon="0.159189022235882"><ele>25.0</ele><time>2026-04-19T17:23:48.999Z</time></trkpt><trkpt lat="40.16652164032502" lon="0.15904836403635575"><ele>26.5</ele><time>2026-04-19T17:23:49.999Z</time></trkpt><trkpt lat="40.166255037300374" lon="0.15890231719702477"><ele>28.0</ele><time>2026-04-19T17:23:50.999Z</time></trkpt><trkpt lat="40.16598406528841" lon="0.15875443887414262"><ele>28.0</ele><time>2026-04-19T17:23:51.999Z</time></trkpt><trkpt lat="40.16571461377897" lon="0.15860310086042884"><ele>28.0</ele><time>2026-04-19T17:23:52.999Z</time></trkpt><trkpt lat="40.1654465092203" lon="0.15845579940512777"><ele>28.5</ele><time>2026-04-19T17:23:53.999Z</time></trkpt><trkpt lat="40.165177461941155" lon="0.1583100798595544"><ele>29.0</ele><time>2026-04-19T17:23:54.999Z</time></trkpt><trkpt lat="40.16490372983043" lon="0.15815347572530555"><ele>29.0</ele><time>2026-04-19T17:23:55.999Z</time></trkpt><trkpt lat="40.16463444714721" lon="0.15799068442240424"><ele>29.0</ele><time>2026-04-19T17:23:56.999Z</time></trkpt><trkpt lat="40.16436555431698" lon="0.15782699766243635"><ele>29.0</ele><time>2026-04-19T17:23:57.999Z</time></trkpt><trkpt lat="40.16409565839153" lon="0.1576611885446101"><ele>29.0</ele><time>2026-04-19T17:23:58.999Z</time></trkpt><trkpt lat="40.16382636172764" lon="0.1574943756711486"><ele>29.0</ele><time>2026-04-19T17:23:59.999Z</time></trkpt><trkpt lat="40.16355909593281" lon="0.157333489150566"><ele>29.0</ele><time>2026-04-19T17:24:00.999Z</time></trkpt><trkpt lat="40.16329517794264" lon="0.15716012283208677"><ele>28.5</ele><time>2026-04-19T17:24:01.999Z</time></trkpt><trkpt lat="40.16303278404349" lon="0.1569952320444189"><ele>28.0</ele><time>2026-04-19T17:24:02.999Z</time></trkpt><trkpt lat="40.16277051361959" lon="0.15683028527611204"><ele>28.0</ele><time>2026-04-19T17:24:03.999Z</time></trkpt><trkpt lat="40.16250998105736" lon="0.15666261321925845"><ele>28.0</ele><time>2026-04-19T17:24:04.999Z</time></trkpt><trkpt lat="40.162255243191694" lon="0.15648961163788547"><ele>28.0</ele><time>2026-04-19T17:24:05.999Z</time></trkpt><trkpt lat="40.16200287694528" lon="0.1563170229110116"><ele>28.0</ele><time>2026-04-19T17:24:06.999Z</time></trkpt><trkpt lat="40.161748802426914" lon="0.15614140935399926"><ele>26.5</ele><time>2026-04-19T17:24:07.999Z</time></trkpt><trkpt lat="40.161498954673746" lon="0.15597155146098285"><ele>25.0</ele><time>2026-04-19T17:24:08.999Z</time></trkpt><trkpt lat="40.16125559575085" lon="0.15579827721465553"><ele>25.5</ele><time>2026-04-19T17:24:09.999Z</time></trkpt><trkpt lat="40.16101235525015" lon="0.15562738739906917"><ele>26.0</ele><time>2026-04-19T17:24:10.999Z</time></trkpt><trkpt lat="40.16076877163147" lon="0.15545293391353465"><ele>25.5</ele><time>2026-04-19T17:24:11.999Z</time></trkpt><trkpt lat="40.16052518606295" lon="0.15527389242622336"><ele>25.0</ele><time>2026-04-19T17:24:12.999Z</time></trkpt><trkpt lat="40.160280975728135" lon="0.15509817980727125"><ele>25.0</ele><time>2026-04-19T17:24:13.999Z</time></trkpt><trkpt lat="40.160037777489364" lon="0.15491676198306806"><ele>25.0</ele><time>2026-04-19T17:24:14.999Z</time></trkpt><trkpt lat="40.15979507091808" lon="0.15473762447294362"><ele>25.5</ele><time>2026-04-19T17:24:15.999Z</time></trkpt><trkpt lat="40.15955329003445" lon="0.15455110526784444"><ele>26.0</ele><time>2026-04-19T17:24:16.999Z</time></trkpt><trkpt lat="40.159311355431306" lon="0.15436456455311215"><ele>26.0</ele><time>2026-04-19T17:24:17.999Z</time></trkpt><trkpt lat="40.15906894588006" lon="0.1541741841876788"><ele>26.0</ele><time>2026-04-19T17:24:18.999Z</time></trkpt><trkpt lat="40.15882608188122" lon="0.15398440317488052"><ele>26.0</ele><time>2026-04-19T17:24:19.999Z</time></trkpt><trkpt lat="40.1585837145804" lon="0.1537927630851713"><ele>26.0</ele><time>2026-04-19T17:24:20.999Z</time></trkpt><trkpt lat="40.15834234347816" lon="0.1535987042013689"><ele>25.5</ele><time>2026-04-19T17:24:21.999Z</time></trkpt><trkpt lat="40.158104208142724" lon="0.15339881483800677"><ele>25.0</ele><time>2026-04-19T17:24:22.999Z</time></trkpt><trkpt lat="40.157865272002404" lon="0.15320127668502917"><ele>25.0</ele><time>2026-04-19T17:24:23.999Z</time></trkpt><trkpt lat="40.15762645927214" lon="0.15300166920702488"><ele>25.0</ele><time>2026-04-19T17:24:24.999Z</time></trkpt><trkpt lat="40.15738705485505" lon="0.15279827250974554"><ele>24.0</ele><time>2026-04-19T17:24:25.998Z</time></trkpt><trkpt lat="40.15715054149664" lon="0.15259173189676165"><ele>23.0</ele><time>2026-04-19T17:24:26.998Z</time></trkpt><trkpt lat="40.156915103879626" lon="0.1523863172157575"><ele>23.5</ele><time>2026-04-19T17:24:27.998Z</time></trkpt><trkpt lat="40.15667731448296" lon="0.15217950506835218"><ele>24.0</ele><time>2026-04-19T17:24:28.998Z</time></trkpt><trkpt lat="40.15644162819766" lon="0.15197220703918773"><ele>23.0</ele><time>2026-04-19T17:24:29.998Z</time></trkpt><trkpt lat="40.15620485719014" lon="0.15176390985202634"><ele>22.0</ele><time>2026-04-19T17:24:30.998Z</time></trkpt><trkpt lat="40.15597031284752" lon="0.1515538414715389"><ele>22.5</ele><time>2026-04-19T17:24:31.998Z</time></trkpt><trkpt lat="40.15573103922832" lon="0.15134390972502612"><ele>23.0</ele><time>2026-04-19T17:24:32.998Z</time></trkpt><trkpt lat="40.15549502673629" lon="0.15113222955257094"><ele>21.5</ele><time>2026-04-19T17:24:33.998Z</time></trkpt><trkpt lat="40.15525605022326" lon="0.15092461230608878"><ele>20.0</ele><time>2026-04-19T17:24:34.998Z</time></trkpt><trkpt lat="40.155015586032405" lon="0.15071980959270925"><ele>20.0</ele><time>2026-04-19T17:24:35.998Z</time></trkpt><trkpt lat="40.154771297667864" lon="0.1505204829028473"><ele>20.0</ele><time>2026-04-19T17:24:36.998Z</time></trkpt><trkpt lat="40.15452343375353" lon="0.15031954038805373"><ele>20.0</ele><time>2026-04-19T17:24:37.998Z</time></trkpt><trkpt lat="40.15427547328974" lon="0.15011996599133273"><ele>20.0</ele><time>2026-04-19T17:24:38.998Z</time></trkpt><trkpt lat="40.1540270016154" lon="0.149918316657265"><ele>20.0</ele><time>2026-04-19T17:24:39.998Z</time></trkpt><trkpt lat="40.15377468612146" lon="0.1497207268223716"><ele>20.0</ele><time>2026-04-19T17:24:40.998Z</time></trkpt><trkpt lat="40.15352018315245" lon="0.14952541319970708"><ele>20.0</ele><time>2026-04-19T17:24:41.998Z</time></trkpt><trkpt lat="40.15326272673107" lon="0.14933266650774815"><ele>20.0</ele><time>2026-04-19T17:24:42.998Z</time></trkpt><trkpt lat="40.153007664009394" lon="0.14913770382982364"><ele>18.5</ele><time>2026-04-19T17:24:43.998Z</time></trkpt><trkpt lat="40.152750413701206" lon="0.1489448233397948"><ele>17.0</ele><time>2026-04-19T17:24:44.998Z</time></trkpt><trkpt lat="40.152489803298174" lon="0.1487516442708221"><ele>16.0</ele><time>2026-04-19T17:24:45.998Z</time></trkpt><trkpt lat="40.15222566884799" lon="0.14855832279141218"><ele>15.0</ele><time>2026-04-19T17:24:46.998Z</time></trkpt><trkpt lat="40.15196512296167" lon="0.14837162985881655"><ele>15.5</ele><time>2026-04-19T17:24:47.998Z</time></trkpt><trkpt lat="40.15170043498271" lon="0.14818685543274973"><ele>16.0</ele><time>2026-04-19T17:24:48.998Z</time></trkpt><trkpt lat="40.15143628160749" lon="0.14800964280486584"><ele>16.0</ele><time>2026-04-19T17:24:49.998Z</time></trkpt><trkpt lat="40.1511743856206" lon="0.1478391772374111"><ele>16.0</ele><time>2026-04-19T17:24:51Z</time></trkpt><trkpt lat="40.15092647066539" lon="0.14767430866299805"><ele>15.5</ele><time>2026-04-19T17:24:52Z</time></trkpt><trkpt lat="40.15068219812573" lon="0.14751715472201454"><ele>15.0</ele><time>2026-04-19T17:24:53Z</time></trkpt><trkpt lat="40.150433309658496" lon="0.14735557809238028"><ele>15.0</ele><time>2026-04-19T17:24:54Z</time></trkpt><trkpt lat="40.150186601508366" lon="0.1471982887153049"><ele>15.0</ele><time>2026-04-19T17:24:55Z</time></trkpt><trkpt lat="40.14993583153174" lon="0.14703661884599223"><ele>12.5</ele><time>2026-04-19T17:24:56Z</time></trkpt><trkpt lat="40.14968211960201" lon="0.1468830215339079"><ele>10.0</ele><time>2026-04-19T17:24:57Z</time></trkpt><trkpt lat="40.14942625696601" lon="0.14673047385018295"><ele>10.0</ele><time>2026-04-19T17:24:58Z</time></trkpt><trkpt lat="40.149174948459034" lon="0.14657952798769952"><ele>10.0</ele><time>2026-04-19T17:24:59Z</time></trkpt><trkpt lat="40.14892537087978" lon="0.14643723008920465"><ele>10.0</ele><time>2026-04-19T17:25:00Z</time></trkpt><trkpt lat="40.148671609305026" lon="0.14629309054345666"><ele>10.0</ele><time>2026-04-19T17:25:01Z</time></trkpt><trkpt lat="40.148411801407946" lon="0.14614525974454715"><ele>10.0</ele><time>2026-04-19T17:25:02Z</time></trkpt><trkpt lat="40.14814940532168" lon="0.1459967873933712"><ele>10.0</ele><time>2026-04-19T17:25:03Z</time></trkpt><trkpt lat="40.14788303944367" lon="0.14584732857765012"><ele>9.5</ele><time>2026-04-19T17:25:04Z</time></trkpt><trkpt lat="40.14761455589271" lon="0.14570399025505232"><ele>9.0</ele><time>2026-04-19T17:25:05Z</time></trkpt><trkpt lat="40.14734128106904" lon="0.1455608899545651"><ele>10.5</ele><time>2026-04-19T17:25:06Z</time></trkpt><trkpt lat="40.14706726343556" lon="0.14542025667245181"><ele>12.0</ele><time>2026-04-19T17:25:07Z</time></trkpt><trkpt lat="40.14679382180151" lon="0.14528683852153004"><ele>11.5</ele><time>2026-04-19T17:25:08Z</time></trkpt><trkpt lat="40.14652056175512" lon="0.1451512137329314"><ele>11.0</ele><time>2026-04-19T17:25:09Z</time></trkpt><trkpt lat="40.14624520476951" lon="0.14501829449722833"><ele>11.0</ele><time>2026-04-19T17:25:10Z</time></trkpt><trkpt lat="40.14596715472461" lon="0.14488669509320598"><ele>11.0</ele><time>2026-04-19T17:25:11Z</time></trkpt><trkpt lat="40.1456881855251" lon="0.14475803206735988"><ele>11.5</ele><time>2026-04-19T17:25:12Z</time></trkpt><trkpt lat="40.14541175694757" lon="0.1446372341180862"><ele>12.0</ele><time>2026-04-19T17:25:13Z</time></trkpt><trkpt lat="40.14513344167073" lon="0.14452263372131968"><ele>13.0</ele><time>2026-04-19T17:25:14Z</time></trkpt><trkpt lat="40.14485603473744" lon="0.14440750125746946"><ele>14.0</ele><time>2026-04-19T17:25:15Z</time></trkpt><trkpt lat="40.14458314664447" lon="0.14429782310800612"><ele>14.0</ele><time>2026-04-19T17:25:16Z</time></trkpt><trkpt lat="40.14430855321134" lon="0.14418063141756904"><ele>14.0</ele><time>2026-04-19T17:25:17Z</time></trkpt><trkpt lat="40.14403639373964" lon="0.14407552442180227"><ele>14.5</ele><time>2026-04-19T17:25:18Z</time></trkpt><trkpt lat="40.143764792878976" lon="0.14396703494010957"><ele>15.0</ele><time>2026-04-19T17:25:19Z</time></trkpt><trkpt lat="40.143490155564535" lon="0.14385365822827934"><ele>15.5</ele><time>2026-04-19T17:25:20Z</time></trkpt><trkpt lat="40.14320917163752" lon="0.1437487745885915"><ele>16.0</ele><time>2026-04-19T17:25:21Z</time></trkpt><trkpt lat="40.1429254895942" lon="0.14363205098436774"><ele>16.0</ele><time>2026-04-19T17:25:22Z</time></trkpt><trkpt lat="40.14264545974923" lon="0.14352278581497402"><ele>16.0</ele><time>2026-04-19T17:25:23Z</time></trkpt><trkpt lat="40.14236086772378" lon="0.1434166854478828"><ele>16.0</ele><time>2026-04-19T17:25:24Z</time></trkpt><trkpt lat="40.14208059718277" lon="0.14331230368599795"><ele>16.0</ele><time>2026-04-19T17:25:25Z</time></trkpt><trkpt lat="40.14180269007703" lon="0.14321130848902977"><ele>15.5</ele><time>2026-04-19T17:25:26Z</time></trkpt><trkpt lat="40.14152220555738" lon="0.14311197273563003"><ele>15.0</ele><time>2026-04-19T17:25:27Z</time></trkpt><trkpt lat="40.141241487854764" lon="0.14302205721836703"><ele>15.0</ele><time>2026-04-19T17:25:28Z</time></trkpt><trkpt lat="40.14097012366513" lon="0.1429369929624546"><ele>15.0</ele><time>2026-04-19T17:25:29Z</time></trkpt><trkpt lat="40.1407034141974" lon="0.14285920575373962"><ele>16.5</ele><time>2026-04-19T17:25:30Z</time></trkpt><trkpt lat="40.14044123508139" lon="0.14278190387471035"><ele>18.0</ele><time>2026-04-19T17:25:31Z</time></trkpt><trkpt lat="40.140179683079865" lon="0.142706870648823"><ele>18.0</ele><time>2026-04-19T17:25:31.999Z</time></trkpt><trkpt lat="40.139915192021" lon="0.14263283369708762"><ele>18.0</ele><time>2026-04-19T17:25:32.999Z</time></trkpt><trkpt lat="40.139655416668305" lon="0.14256013854273514"><ele>19.0</ele><time>2026-04-19T17:25:33.999Z</time></trkpt><trkpt lat="40.13939576231777" lon="0.14249350149845608"><ele>20.0</ele><time>2026-04-19T17:25:34.999Z</time></trkpt><trkpt lat="40.13913787619021" lon="0.1424190831266786"><ele>19.5</ele><time>2026-04-19T17:25:35.999Z</time></trkpt><trkpt lat="40.1388785579408" lon="0.14234507798176732"><ele>19.0</ele><time>2026-04-19T17:25:36.999Z</time></trkpt><trkpt lat="40.13862339866133" lon="0.14227311453294045"><ele>19.0</ele><time>2026-04-19T17:25:37.999Z</time></trkpt><trkpt lat="40.13837344511736" lon="0.14219292829492244"><ele>19.0</ele><time>2026-04-19T17:25:38.999Z</time></trkpt><trkpt lat="40.138127370898076" lon="0.1421098294130406"><ele>18.0</ele><time>2026-04-19T17:25:39.999Z</time></trkpt><trkpt lat="40.13788219286975" lon="0.14202905720096634"><ele>17.0</ele><time>2026-04-19T17:25:40.999Z</time></trkpt><trkpt lat="40.13762950582519" lon="0.1419427158183198"><ele>17.0</ele><time>2026-04-19T17:25:41.999Z</time></trkpt><trkpt lat="40.13736104002933" lon="0.14185058577072518"><ele>17.0</ele><time>2026-04-19T17:25:42.999Z</time></trkpt><trkpt lat="40.13708315023491" lon="0.1417544695375873"><ele>17.0</ele><time>2026-04-19T17:25:43.999Z</time></trkpt><trkpt lat="40.13680268765191" lon="0.14165549185854395"><ele>17.0</ele><time>2026-04-19T17:25:44.999Z</time></trkpt><trkpt lat="40.13652684835856" lon="0.14155993660387223"><ele>18.5</ele><time>2026-04-19T17:25:45.999Z</time></trkpt><trkpt lat="40.13624547013153" lon="0.14146528030866773"><ele>20.0</ele><time>2026-04-19T17:25:46.999Z</time></trkpt><trkpt lat="40.13596616783901" lon="0.14136820418025917"><ele>20.5</ele><time>2026-04-19T17:25:47.999Z</time></trkpt><trkpt lat="40.13569524044031" lon="0.14126528159176385"><ele>21.0</ele><time>2026-04-19T17:25:48.999Z</time></trkpt><trkpt lat="40.135429580163006" lon="0.14115825377149951"><ele>21.0</ele><time>2026-04-19T17:25:49.999Z</time></trkpt><trkpt lat="40.13516781807221" lon="0.14104835683780853"><ele>21.0</ele><time>2026-04-19T17:25:50.999Z</time></trkpt><trkpt lat="40.1349038880543" lon="0.14093867897628146"><ele>21.0</ele><time>2026-04-19T17:25:51.999Z</time></trkpt><trkpt lat="40.13463801948037" lon="0.1408236408042032"><ele>21.0</ele><time>2026-04-19T17:25:52.999Z</time></trkpt><trkpt lat="40.134372081423294" lon="0.1407103283914426"><ele>21.5</ele><time>2026-04-19T17:25:53.999Z</time></trkpt><trkpt lat="40.13410523853541" lon="0.14059085641434726"><ele>22.0</ele><time>2026-04-19T17:25:54.999Z</time></trkpt><trkpt lat="40.13383822377734" lon="0.1404645707236386"><ele>22.5</ele><time>2026-04-19T17:25:55.999Z</time></trkpt><trkpt lat="40.1335676920809" lon="0.14033403164422353"><ele>23.0</ele><time>2026-04-19T17:25:56.999Z</time></trkpt><trkpt lat="40.133296433865965" lon="0.14019865958509495"><ele>23.5</ele><time>2026-04-19T17:25:57.999Z</time></trkpt><trkpt lat="40.13302168597192" lon="0.1400671170890746"><ele>24.0</ele><time>2026-04-19T17:25:58.999Z</time></trkpt><trkpt lat="40.13274704465222" lon="0.13993143522171853"><ele>24.0</ele><time>2026-04-19T17:25:59.999Z</time></trkpt><trkpt lat="40.13246809385432" lon="0.13979383474910878"><ele>24.0</ele><time>2026-04-19T17:26:00.999Z</time></trkpt><trkpt lat="40.13218859366015" lon="0.13964862685525684"><ele>24.0</ele><time>2026-04-19T17:26:01.999Z</time></trkpt><trkpt lat="40.13190908715955" lon="0.1395013153883915"><ele>24.0</ele><time>2026-04-19T17:26:02.999Z</time></trkpt><trkpt lat="40.13162761955058" lon="0.13935279877233706"><ele>23.0</ele><time>2026-04-19T17:26:03.999Z</time></trkpt><trkpt lat="40.13134760209521" lon="0.13920223381415014"><ele>22.0</ele><time>2026-04-19T17:26:04.999Z</time></trkpt><trkpt lat="40.13107072427871" lon="0.13904724979725497"><ele>22.0</ele><time>2026-04-19T17:26:05.999Z</time></trkpt><trkpt lat="40.130795518495" lon="0.13889202911873436"><ele>22.0</ele><time>2026-04-19T17:26:06.999Z</time></trkpt><trkpt lat="40.13052202955045" lon="0.13873314440252343"><ele>22.5</ele><time>2026-04-19T17:26:07.999Z</time></trkpt><trkpt lat="40.13025321545334" lon="0.1385664903927922"><ele>23.0</ele><time>2026-04-19T17:26:08.999Z</time></trkpt><trkpt lat="40.129981717247524" lon="0.13840642848089854"><ele>23.0</ele><time>2026-04-19T17:26:09.999Z</time></trkpt><trkpt lat="40.129710112850745" lon="0.13824058197683733"><ele>23.0</ele><time>2026-04-19T17:26:10.999Z</time></trkpt><trkpt lat="40.12944022467024" lon="0.13807005049866755"><ele>23.0</ele><time>2026-04-19T17:26:11.999Z</time></trkpt><trkpt lat="40.12917081269587" lon="0.1378940877236181"><ele>23.0</ele><time>2026-04-19T17:26:12.999Z</time></trkpt><trkpt lat="40.12889852969" lon="0.1377231603733783"><ele>23.0</ele><time>2026-04-19T17:26:13.999Z</time></trkpt><trkpt lat="40.128625372410994" lon="0.13754942061219858"><ele>23.0</ele><time>2026-04-19T17:26:14.999Z</time></trkpt><trkpt lat="40.12835672494214" lon="0.13737319002947174"><ele>24.5</ele><time>2026-04-19T17:26:15.999Z</time></trkpt><trkpt lat="40.128089368200385" lon="0.13719785249912966"><ele>26.0</ele><time>2026-04-19T17:26:16.999Z</time></trkpt><trkpt lat="40.12781856749475" lon="0.13702077276515123"><ele>26.0</ele><time>2026-04-19T17:26:17.999Z</time></trkpt><trkpt lat="40.12754748282224" lon="0.13684634093046036"><ele>26.0</ele><time>2026-04-19T17:26:18.999Z</time></trkpt><trkpt lat="40.127292711978754" lon="0.13664443813598806"><ele>26.0</ele><time>2026-04-19T17:26:19.999Z</time></trkpt><trkpt lat="40.12703754469457" lon="0.1364546922205883"><ele>26.0</ele><time>2026-04-19T17:26:20.999Z</time></trkpt><trkpt lat="40.126783418275664" lon="0.13627287762288678"><ele>25.5</ele><time>2026-04-19T17:26:21.999Z</time></trkpt><trkpt lat="40.12652905174451" lon="0.13609341323068405"><ele>25.0</ele><time>2026-04-19T17:26:22.999Z</time></trkpt><trkpt lat="40.12627482603898" lon="0.13592026809168978"><ele>25.0</ele><time>2026-04-19T17:26:23.999Z</time></trkpt><trkpt lat="40.12602113839237" lon="0.13574938032347159"><ele>25.0</ele><time>2026-04-19T17:26:24.999Z</time></trkpt><trkpt lat="40.12576672308045" lon="0.13558079543027074"><ele>24.5</ele><time>2026-04-19T17:26:25.999Z</time></trkpt><trkpt lat="40.12550900901738" lon="0.1354062144975656"><ele>24.0</ele><time>2026-04-19T17:26:26.999Z</time></trkpt><trkpt lat="40.12524983057449" lon="0.13523391804231327"><ele>24.0</ele><time>2026-04-19T17:26:27.999Z</time></trkpt><trkpt lat="40.12498999384649" lon="0.1350605540182138"><ele>24.0</ele><time>2026-04-19T17:26:28.999Z</time></trkpt><trkpt lat="40.124729721674385" lon="0.13489141364712545"><ele>25.0</ele><time>2026-04-19T17:26:29.999Z</time></trkpt><trkpt lat="40.124477259260146" lon="0.13472223901751695"><ele>26.0</ele><time>2026-04-19T17:26:30.998Z</time></trkpt><trkpt lat="40.124217616475484" lon="0.1345556736766203"><ele>26.0</ele><time>2026-04-19T17:26:31.998Z</time></trkpt><trkpt lat="40.12395918108684" lon="0.13439600483126238"><ele>26.0</ele><time>2026-04-19T17:26:32.998Z</time></trkpt><trkpt lat="40.12369753550951" lon="0.13423789821475968"><ele>26.0</ele><time>2026-04-19T17:26:33.998Z</time></trkpt><trkpt lat="40.12342790346587" lon="0.13407634831929682"><ele>26.0</ele><time>2026-04-19T17:26:34.998Z</time></trkpt><trkpt lat="40.12315399450045" lon="0.13392171709000797"><ele>26.5</ele><time>2026-04-19T17:26:35.998Z</time></trkpt><trkpt lat="40.12287633492233" lon="0.13376824401459"><ele>27.0</ele><time>2026-04-19T17:26:36.998Z</time></trkpt><trkpt lat="40.12259619578071" lon="0.133618682251886"><ele>27.0</ele><time>2026-04-19T17:26:37.998Z</time></trkpt><trkpt lat="40.12231997535624" lon="0.13347144351087353"><ele>27.0</ele><time>2026-04-19T17:26:38.998Z</time></trkpt><trkpt lat="40.12203763070517" lon="0.13332556221956085"><ele>27.5</ele><time>2026-04-19T17:26:39.998Z</time></trkpt><trkpt lat="40.12175308316305" lon="0.13318699147640511"><ele>28.0</ele><time>2026-04-19T17:26:40.998Z</time></trkpt><trkpt lat="40.121468758574906" lon="0.13304873265290426"><ele>26.5</ele><time>2026-04-19T17:26:41.998Z</time></trkpt><trkpt lat="40.121179959255244" lon="0.13291799209738242"><ele>25.0</ele><time>2026-04-19T17:26:42.998Z</time></trkpt><trkpt lat="40.12088842626539" lon="0.13278979121191553"><ele>24.5</ele><time>2026-04-19T17:26:43.998Z</time></trkpt><trkpt lat="40.120598849304535" lon="0.13266356537476126"><ele>24.0</ele><time>2026-04-19T17:26:44.998Z</time></trkpt><trkpt lat="40.120306331244805" lon="0.13253576930226893"><ele>24.0</ele><time>2026-04-19T17:26:45.998Z</time></trkpt><trkpt lat="40.120008812811754" lon="0.13241358637137338"><ele>24.0</ele><time>2026-04-19T17:26:46.998Z</time></trkpt><trkpt lat="40.11971510889711" lon="0.13229737423335525"><ele>24.5</ele><time>2026-04-19T17:26:47.998Z</time></trkpt><trkpt lat="40.119419754954954" lon="0.13219261569374008"><ele>25.0</ele><time>2026-04-19T17:26:48.998Z</time></trkpt><trkpt lat="40.11912685875979" lon="0.13208978840502106"><ele>24.0</ele><time>2026-04-19T17:26:49.998Z</time></trkpt><trkpt lat="40.118828913747066" lon="0.13199300980480183"><ele>23.0</ele><time>2026-04-19T17:26:50.998Z</time></trkpt><trkpt lat="40.118533665505005" lon="0.13189821311180674"><ele>23.0</ele><time>2026-04-19T17:26:51.998Z</time></trkpt><trkpt lat="40.118239679487644" lon="0.13181387530138367"><ele>23.0</ele><time>2026-04-19T17:26:52.998Z</time></trkpt><trkpt lat="40.11794043477767" lon="0.13173482622234192"><ele>23.0</ele><time>2026-04-19T17:26:53.998Z</time></trkpt><trkpt lat="40.117647636416834" lon="0.13165390531390248"><ele>23.0</ele><time>2026-04-19T17:26:54.998Z</time></trkpt><trkpt lat="40.117357044544306" lon="0.13157102298443296"><ele>21.0</ele><time>2026-04-19T17:26:55.998Z</time></trkpt><trkpt lat="40.11706001555865" lon="0.1315030938304471"><ele>19.0</ele><time>2026-04-19T17:26:57Z</time></trkpt><trkpt lat="40.116766631445735" lon="0.13144228644367043"><ele>19.5</ele><time>2026-04-19T17:26:58Z</time></trkpt><trkpt lat="40.116470719070506" lon="0.13137938230580629"><ele>20.0</ele><time>2026-04-19T17:26:59Z</time></trkpt><trkpt lat="40.11617653117364" lon="0.1313191114917495"><ele>20.0</ele><time>2026-04-19T17:27:00Z</time></trkpt><trkpt lat="40.115884772573644" lon="0.13126352990489715"><ele>20.0</ele><time>2026-04-19T17:27:01Z</time></trkpt><trkpt lat="40.11559399668339" lon="0.13122212608081474"><ele>21.0</ele><time>2026-04-19T17:27:02Z</time></trkpt><trkpt lat="40.115298224874984" lon="0.13117990561417328"><ele>22.0</ele><time>2026-04-19T17:27:03Z</time></trkpt><trkpt lat="40.115006330449354" lon="0.13113749110196998"><ele>21.5</ele><time>2026-04-19T17:27:04Z</time></trkpt><trkpt lat="40.11471319190131" lon="0.1310999548782606"><ele>21.0</ele><time>2026-04-19T17:27:05Z</time></trkpt><trkpt lat="40.11442312660083" lon="0.13105806939684803"><ele>21.0</ele><time>2026-04-19T17:27:06Z</time></trkpt><trkpt lat="40.11412551226188" lon="0.1310230502872677"><ele>21.0</ele><time>2026-04-19T17:27:07Z</time></trkpt><trkpt lat="40.11383427669499" lon="0.13099077106086304"><ele>20.5</ele><time>2026-04-19T17:27:08Z</time></trkpt><trkpt lat="40.113543241758606" lon="0.1309649888867865"><ele>20.0</ele><time>2026-04-19T17:27:09Z</time></trkpt><trkpt lat="40.11325322258945" lon="0.13094954023024202"><ele>19.5</ele><time>2026-04-19T17:27:10Z</time></trkpt><trkpt lat="40.11295913668771" lon="0.13093143127786747"><ele>19.0</ele><time>2026-04-19T17:27:11Z</time></trkpt><trkpt lat="40.11266610262355" lon="0.13091698019332085"><ele>18.0</ele><time>2026-04-19T17:27:12Z</time></trkpt><trkpt lat="40.1123716042272" lon="0.13090033691492772"><ele>17.0</ele><time>2026-04-19T17:27:13Z</time></trkpt><trkpt lat="40.11207698964361" lon="0.13088467441232918"><ele>17.0</ele><time>2026-04-19T17:27:14Z</time></trkpt><trkpt lat="40.11178066152537" lon="0.13087272661072197"><ele>17.0</ele><time>2026-04-19T17:27:15Z</time></trkpt><trkpt lat="40.11148647044021" lon="0.13085865293166685"><ele>16.5</ele><time>2026-04-19T17:27:16Z</time></trkpt><trkpt lat="40.11119000323758" lon="0.13084538991685724"><ele>16.0</ele><time>2026-04-19T17:27:17Z</time></trkpt><trkpt lat="40.11089487348119" lon="0.13083290870049288"><ele>16.0</ele><time>2026-04-19T17:27:18Z</time></trkpt><trkpt lat="40.110600601666704" lon="0.13081660316808083"><ele>16.0</ele><time>2026-04-19T17:27:19Z</time></trkpt><trkpt lat="40.11030683358399" lon="0.13080553977485748"><ele>16.0</ele><time>2026-04-19T17:27:20Z</time></trkpt><trkpt lat="40.11001192101141" lon="0.13079343709017666"><ele>16.0</ele><time>2026-04-19T17:27:21Z</time></trkpt><trkpt lat="40.10971630973466" lon="0.1307829022044757"><ele>16.0</ele><time>2026-04-19T17:27:22Z</time></trkpt><trkpt lat="40.1094199597669" lon="0.1307691895825505"><ele>16.0</ele><time>2026-04-19T17:27:23Z</time></trkpt><trkpt lat="40.10912226399043" lon="0.13075792331182132"><ele>16.0</ele><time>2026-04-19T17:27:24Z</time></trkpt><trkpt lat="40.10882491135049" lon="0.1307426881968289"><ele>16.0</ele><time>2026-04-19T17:27:25Z</time></trkpt><trkpt lat="40.10853198643794" lon="0.13072713101194988"><ele>16.0</ele><time>2026-04-19T17:27:26Z</time></trkpt><trkpt lat="40.10824413432972" lon="0.13071674878130538"><ele>16.0</ele><time>2026-04-19T17:27:27Z</time></trkpt><trkpt lat="40.107954908847375" lon="0.1307016866736343"><ele>16.0</ele><time>2026-04-19T17:27:28Z</time></trkpt><trkpt lat="40.10766884252189" lon="0.13068024427364835"><ele>16.0</ele><time>2026-04-19T17:27:29Z</time></trkpt><trkpt lat="40.10738465316413" lon="0.13066109482296265"><ele>15.0</ele><time>2026-04-19T17:27:30Z</time></trkpt><trkpt lat="40.107100798687505" lon="0.1306434828286779"><ele>14.0</ele><time>2026-04-19T17:27:31Z</time></trkpt><trkpt lat="40.106817422303564" lon="0.13061955621750942"><ele>15.0</ele><time>2026-04-19T17:27:32Z</time></trkpt><trkpt lat="40.1065274561404" lon="0.13058379419878374"><ele>16.0</ele><time>2026-04-19T17:27:33Z</time></trkpt><trkpt lat="40.10623811380231" lon="0.13055483369795626"><ele>16.0</ele><time>2026-04-19T17:27:34Z</time></trkpt><trkpt lat="40.10594689261105" lon="0.13052909450741007"><ele>16.0</ele><time>2026-04-19T17:27:35Z</time></trkpt><trkpt lat="40.105655962888996" lon="0.13050220250402195"><ele>16.5</ele><time>2026-04-19T17:27:36Z</time></trkpt><trkpt lat="40.105362870817586" lon="0.1304656021892995"><ele>17.0</ele><time>2026-04-19T17:27:36.999Z</time></trkpt><trkpt lat="40.1050708035532" lon="0.13041719608679525"><ele>18.0</ele><time>2026-04-19T17:27:37.999Z</time></trkpt><trkpt lat="40.10477894272171" lon="0.13036390139104764"><ele>19.0</ele><time>2026-04-19T17:27:38.999Z</time></trkpt><trkpt lat="40.10448888047161" lon="0.13030714834231383"><ele>19.0</ele><time>2026-04-19T17:27:39.999Z</time></trkpt><trkpt lat="40.104202301092" lon="0.13026076933363265"><ele>19.0</ele><time>2026-04-19T17:27:40.999Z</time></trkpt><trkpt lat="40.10391535636" lon="0.13021200347779327"><ele>19.5</ele><time>2026-04-19T17:27:41.999Z</time></trkpt><trkpt lat="40.10362530903726" lon="0.13015016701283952"><ele>20.0</ele><time>2026-04-19T17:27:42.999Z</time></trkpt><trkpt lat="40.10333743836685" lon="0.1300788386345408"><ele>19.0</ele><time>2026-04-19T17:27:43.999Z</time></trkpt><trkpt lat="40.103054749853676" lon="0.13000718232898675"><ele>18.0</ele><time>2026-04-19T17:27:44.999Z</time></trkpt><trkpt lat="40.102773274092506" lon="0.12993329558561048"><ele>19.0</ele><time>2026-04-19T17:27:45.999Z</time></trkpt><trkpt lat="40.1024925796953" lon="0.12985297912702268"><ele>20.0</ele><time>2026-04-19T17:27:46.999Z</time></trkpt><trkpt lat="40.102212386638925" lon="0.12976644737133824"><ele>22.0</ele><time>2026-04-19T17:27:47.999Z</time></trkpt><trkpt lat="40.101934195272904" lon="0.1296759037037672"><ele>24.0</ele><time>2026-04-19T17:27:48.999Z</time></trkpt><trkpt lat="40.101653683937904" lon="0.12958404249345212"><ele>24.0</ele><time>2026-04-19T17:27:49.999Z</time></trkpt><trkpt lat="40.10137069306084" lon="0.12949018719409947"><ele>24.0</ele><time>2026-04-19T17:27:50.999Z</time></trkpt><trkpt lat="40.1010889123684" lon="0.12939115573291246"><ele>24.0</ele><time>2026-04-19T17:27:51.999Z</time></trkpt><trkpt lat="40.100804298934484" lon="0.12928340981617473"><ele>24.0</ele><time>2026-04-19T17:27:52.999Z</time></trkpt><trkpt lat="40.10052355009146" lon="0.12916024434368367"><ele>27.0</ele><time>2026-04-19T17:27:53.999Z</time></trkpt><trkpt lat="40.1002422595577" lon="0.1290303072992375"><ele>30.0</ele><time>2026-04-19T17:27:54.999Z</time></trkpt><trkpt lat="40.09995698158296" lon="0.12890114793707227"><ele>29.0</ele><time>2026-04-19T17:27:55.999Z</time></trkpt><trkpt lat="40.09967922704747" lon="0.12876958381820042"><ele>28.0</ele><time>2026-04-19T17:27:56.999Z</time></trkpt><trkpt lat="40.099400550350644" lon="0.12863533857865178"><ele>28.0</ele><time>2026-04-19T17:27:57.999Z</time></trkpt><trkpt lat="40.09911961599821" lon="0.12849263277189274"><ele>28.0</ele><time>2026-04-19T17:27:58.999Z</time></trkpt><trkpt lat="40.0988431665685" lon="0.1283497534059409"><ele>28.5</ele><time>2026-04-19T17:27:59.999Z</time></trkpt><trkpt lat="40.098571351273996" lon="0.1282006977336839"><ele>29.0</ele><time>2026-04-19T17:28:00.999Z</time></trkpt><trkpt lat="40.09830310188447" lon="0.1280404925515644"><ele>29.0</ele><time>2026-04-19T17:28:01.999Z</time></trkpt><trkpt lat="40.09803539263234" lon="0.1278764840370596"><ele>29.0</ele><time>2026-04-19T17:28:02.999Z</time></trkpt><trkpt lat="40.09777253157846" lon="0.12771345577212254"><ele>29.0</ele><time>2026-04-19T17:28:03.999Z</time></trkpt><trkpt lat="40.0975147569357" lon="0.12755256834597958"><ele>29.0</ele><time>2026-04-19T17:28:04.999Z</time></trkpt><trkpt lat="40.09725847926595" lon="0.1273889018030388"><ele>29.5</ele><time>2026-04-19T17:28:05.999Z</time></trkpt><trkpt lat="40.097002452148665" lon="0.1272235621763641"><ele>30.0</ele><time>2026-04-19T17:28:06.999Z</time></trkpt><trkpt lat="40.0967492154606" lon="0.12704534477603993"><ele>30.0</ele><time>2026-04-19T17:28:07.999Z</time></trkpt><trkpt lat="40.09649662115326" lon="0.12685886740048666"><ele>30.0</ele><time>2026-04-19T17:28:08.999Z</time></trkpt><trkpt lat="40.09624016896489" lon="0.12667728330734382"><ele>31.5</ele><time>2026-04-19T17:28:09.999Z</time></trkpt><trkpt lat="40.095990973493684" lon="0.12647936853941316"><ele>33.0</ele><time>2026-04-19T17:28:10.999Z</time></trkpt><trkpt lat="40.09574159679814" lon="0.12628316386810223"><ele>33.0</ele><time>2026-04-19T17:28:11.999Z</time></trkpt><trkpt lat="40.095486996103716" lon="0.12607468101887284"><ele>33.0</ele><time>2026-04-19T17:28:12.999Z</time></trkpt><trkpt lat="40.09523082951594" lon="0.12586557237092894"><ele>34.0</ele><time>2026-04-19T17:28:13.999Z</time></trkpt><trkpt lat="40.09498220049436" lon="0.12564906532712955"><ele>35.0</ele><time>2026-04-19T17:28:14.999Z</time></trkpt><trkpt lat="40.094735708982576" lon="0.12543007113362822"><ele>35.0</ele><time>2026-04-19T17:28:15.999Z</time></trkpt><trkpt lat="40.09448808489963" lon="0.12520396052454727"><ele>35.0</ele><time>2026-04-19T17:28:16.999Z</time></trkpt><trkpt lat="40.09423964297447" lon="0.12497582886653988"><ele>38.0</ele><time>2026-04-19T17:28:17.999Z</time></trkpt><trkpt lat="40.09399260320108" lon="0.12474405156867058"><ele>41.0</ele><time>2026-04-19T17:28:18.999Z</time></trkpt><trkpt lat="40.093743719211886" lon="0.12451623877060633"><ele>41.0</ele><time>2026-04-19T17:28:19.999Z</time></trkpt><trkpt lat="40.09349431941239" lon="0.12428280346097852"><ele>41.0</ele><time>2026-04-19T17:28:20.999Z</time></trkpt><trkpt lat="40.093254013712894" lon="0.12403899739793561"><ele>44.0</ele><time>2026-04-19T17:28:21.999Z</time></trkpt><trkpt lat="40.09301677491737" lon="0.12380266991987812"><ele>47.0</ele><time>2026-04-19T17:28:22.999Z</time></trkpt><trkpt lat="40.0927850148628" lon="0.12357786454139487"><ele>47.0</ele><time>2026-04-19T17:28:23.999Z</time></trkpt><trkpt lat="40.092553818795444" lon="0.12336145198253017"><ele>47.0</ele><time>2026-04-19T17:28:24.999Z</time></trkpt><trkpt lat="40.09232491640862" lon="0.12314548098604282"><ele>49.5</ele><time>2026-04-19T17:28:25.999Z</time></trkpt><trkpt lat="40.09208845316665" lon="0.12293976664737707"><ele>52.0</ele><time>2026-04-19T17:28:26.999Z</time></trkpt><trkpt lat="40.09184624637399" lon="0.122747202360185"><ele>52.0</ele><time>2026-04-19T17:28:27.999Z</time></trkpt><trkpt lat="40.09160445284213" lon="0.12256022909406536"><ele>52.0</ele><time>2026-04-19T17:28:28.999Z</time></trkpt><trkpt lat="40.09135755953304" lon="0.1223802681921642"><ele>55.0</ele><time>2026-04-19T17:28:29.999Z</time></trkpt><trkpt lat="40.091106758898206" lon="0.12221514226913142"><ele>58.0</ele><time>2026-04-19T17:28:30.999Z</time></trkpt><trkpt lat="40.090850227611675" lon="0.12205998051938677"><ele>57.0</ele><time>2026-04-19T17:28:31.999Z</time></trkpt><trkpt lat="40.09058718938458" lon="0.12191407266134853"><ele>56.0</ele><time>2026-04-19T17:28:32.999Z</time></trkpt><trkpt lat="40.09032549984587" lon="0.12177952813017168"><ele>56.0</ele><time>2026-04-19T17:28:33.999Z</time></trkpt><trkpt lat="40.09005248237927" lon="0.12165327240190957"><ele>56.0</ele><time>2026-04-19T17:28:34.999Z</time></trkpt><trkpt lat="40.08977265256105" lon="0.12154224740127731"><ele>60.0</ele><time>2026-04-19T17:28:35.998Z</time></trkpt><trkpt lat="40.08948947118018" lon="0.12142916220581307"><ele>64.0</ele><time>2026-04-19T17:28:36.998Z</time></trkpt><trkpt lat="40.08921011637329" lon="0.12132735333596462"><ele>64.5</ele><time>2026-04-19T17:28:37.998Z</time></trkpt><trkpt lat="40.08893121393333" lon="0.12122288426377381"><ele>65.0</ele><time>2026-04-19T17:28:38.998Z</time></trkpt><trkpt lat="40.08865656260761" lon="0.12112099392202551"><ele>65.0</ele><time>2026-04-19T17:28:39.998Z</time></trkpt><trkpt lat="40.08838431090668" lon="0.12101335080680255"><ele>65.0</ele><time>2026-04-19T17:28:40.998Z</time></trkpt><trkpt lat="40.088116616551424" lon="0.12090255591718833"><ele>62.5</ele><time>2026-04-19T17:28:41.998Z</time></trkpt><trkpt lat="40.08785510223777" lon="0.12078903505329863"><ele>60.0</ele><time>2026-04-19T17:28:42.998Z</time></trkpt><trkpt lat="40.0875957158969" lon="0.12067181109011048"><ele>62.5</ele><time>2026-04-19T17:28:43.998Z</time></trkpt><trkpt lat="40.087336921904665" lon="0.1205555135722595"><ele>65.0</ele><time>2026-04-19T17:28:44.998Z</time></trkpt><trkpt lat="40.08708523931534" lon="0.12042522375606461"><ele>65.0</ele><time>2026-04-19T17:28:45.998Z</time></trkpt><trkpt lat="40.0868302992533" lon="0.12028940126685385"><ele>65.0</ele><time>2026-04-19T17:28:46.998Z</time></trkpt><trkpt lat="40.0865796298141" lon="0.12014134455542089"><ele>64.0</ele><time>2026-04-19T17:28:47.998Z</time></trkpt><trkpt lat="40.08633246187581" lon="0.11998661317293378"><ele>63.0</ele><time>2026-04-19T17:28:48.998Z</time></trkpt><trkpt lat="40.08608533357329" lon="0.11982930401249223"><ele>65.5</ele><time>2026-04-19T17:28:49.998Z</time></trkpt><trkpt lat="40.08583995636168" lon="0.11967314267367887"><ele>68.0</ele><time>2026-04-19T17:28:50.998Z</time></trkpt><trkpt lat="40.08559653969001" lon="0.11951945375118964"><ele>71.5</ele><time>2026-04-19T17:28:51.998Z</time></trkpt><trkpt lat="40.08535156950222" lon="0.11936297871272065"><ele>75.0</ele><time>2026-04-19T17:28:52.998Z</time></trkpt><trkpt lat="40.085107314375904" lon="0.1192076015314568"><ele>83.5</ele><time>2026-04-19T17:28:53.998Z</time></trkpt><trkpt lat="40.08486486887448" lon="0.1190490307002601"><ele>92.0</ele><time>2026-04-19T17:28:54.998Z</time></trkpt><trkpt lat="40.08461531743389" lon="0.11889580887922205"><ele>92.0</ele><time>2026-04-19T17:28:55.998Z</time></trkpt><trkpt lat="40.08435668990574" lon="0.11875317918327309"><ele>92.0</ele><time>2026-04-19T17:28:56.998Z</time></trkpt><trkpt lat="40.08408702784937" lon="0.11861619779554368"><ele>85.5</ele><time>2026-04-19T17:28:57.998Z</time></trkpt><trkpt lat="40.083804838973734" lon="0.11849506600867778"><ele>79.0</ele><time>2026-04-19T17:28:58.998Z</time></trkpt><trkpt lat="40.083518259258184" lon="0.1183856002886223"><ele>79.5</ele><time>2026-04-19T17:28:59.998Z</time></trkpt><trkpt lat="40.08322509930424" lon="0.11829390274462875"><ele>80.0</ele><time>2026-04-19T17:29:00.998Z</time></trkpt><trkpt lat="40.08293390830564" lon="0.11820946250038135"><ele>80.0</ele><time>2026-04-19T17:29:01.998Z</time></trkpt><trkpt lat="40.08263842823975" lon="0.11815090511073865"><ele>80.0</ele><time>2026-04-19T17:29:03Z</time></trkpt><trkpt lat="40.0823437819598" lon="0.11810438283244781"><ele>78.0</ele><time>2026-04-19T17:29:04Z</time></trkpt><trkpt lat="40.082051381724725" lon="0.11806849251282653"><ele>76.0</ele><time>2026-04-19T17:29:05Z</time></trkpt><trkpt lat="40.081757657040136" lon="0.1180512486601751"><ele>75.5</ele><time>2026-04-19T17:29:06Z</time></trkpt><trkpt lat="40.08146709728545" lon="0.11805244590848483"><ele>75.0</ele><time>2026-04-19T17:29:07Z</time></trkpt><trkpt lat="40.08117708890696" lon="0.11806954127303741"><ele>75.0</ele><time>2026-04-19T17:29:08Z</time></trkpt><trkpt lat="40.080891742306555" lon="0.11808957616365114"><ele>75.0</ele><time>2026-04-19T17:29:09Z</time></trkpt><trkpt lat="40.08060967765083" lon="0.11812434105966865"><ele>73.5</ele><time>2026-04-19T17:29:10Z</time></trkpt><trkpt lat="40.08032767247541" lon="0.11817588573077499"><ele>72.0</ele><time>2026-04-19T17:29:11Z</time></trkpt><trkpt lat="40.08004685887171" lon="0.11824812080209729"><ele>71.5</ele><time>2026-04-19T17:29:12Z</time></trkpt><trkpt lat="40.079769271528036" lon="0.11833405831785877"><ele>71.0</ele><time>2026-04-19T17:29:13Z</time></trkpt><trkpt lat="40.07949262868064" lon="0.118434793796101"><ele>71.0</ele><time>2026-04-19T17:29:14Z</time></trkpt><trkpt lat="40.079220229082914" lon="0.11854925038342069"><ele>71.0</ele><time>2026-04-19T17:29:15Z</time></trkpt><trkpt lat="40.07894618649104" lon="0.1186754540390797"><ele>73.5</ele><time>2026-04-19T17:29:16Z</time></trkpt><trkpt lat="40.0786738731331" lon="0.11881682922884373"><ele>76.0</ele><time>2026-04-19T17:29:17Z</time></trkpt><trkpt lat="40.07840830670849" lon="0.1189646903680494"><ele>80.0</ele><time>2026-04-19T17:29:18Z</time></trkpt><trkpt lat="40.07814245244993" lon="0.11912003476437456"><ele>84.0</ele><time>2026-04-19T17:29:19Z</time></trkpt><trkpt lat="40.077876375573986" lon="0.11927169908880093"><ele>84.0</ele><time>2026-04-19T17:29:20Z</time></trkpt><trkpt lat="40.07760815070651" lon="0.1194232105905817"><ele>84.0</ele><time>2026-04-19T17:29:21Z</time></trkpt><trkpt lat="40.07733352893613" lon="0.11957079980708894"><ele>88.5</ele><time>2026-04-19T17:29:22Z</time></trkpt><trkpt lat="40.077054671447385" lon="0.11970925030771852"><ele>93.0</ele><time>2026-04-19T17:29:23Z</time></trkpt><trkpt lat="40.07677457871351" lon="0.11983932619439562"><ele>92.0</ele><time>2026-04-19T17:29:24Z</time></trkpt><trkpt lat="40.07648777855359" lon="0.11995938182067911"><ele>91.0</ele><time>2026-04-19T17:29:25Z</time></trkpt><trkpt lat="40.07619825345854" lon="0.12006482821735398"><ele>91.0</ele><time>2026-04-19T17:29:26Z</time></trkpt><trkpt lat="40.07590084557448" lon="0.12015365106582168"><ele>91.0</ele><time>2026-04-19T17:29:27Z</time></trkpt><trkpt lat="40.07559930454484" lon="0.12022120996154283"><ele>92.0</ele><time>2026-04-19T17:29:28Z</time></trkpt><trkpt lat="40.075293815081885" lon="0.1202676843951008"><ele>93.0</ele><time>2026-04-19T17:29:29Z</time></trkpt><trkpt lat="40.07499255916595" lon="0.12029920413855856"><ele>92.5</ele><time>2026-04-19T17:29:30Z</time></trkpt><trkpt lat="40.074686685596475" lon="0.12031777348273189"><ele>92.0</ele><time>2026-04-19T17:29:31Z</time></trkpt><trkpt lat="40.07438745919163" lon="0.12031776422440708"><ele>89.0</ele><time>2026-04-19T17:29:32Z</time></trkpt><trkpt lat="40.074083676656485" lon="0.12030468254467094"><ele>86.0</ele><time>2026-04-19T17:29:33Z</time></trkpt><trkpt lat="40.07378229797041" lon="0.1202736732545819"><ele>86.0</ele><time>2026-04-19T17:29:34Z</time></trkpt><trkpt lat="40.073476624024984" lon="0.12022581982630232"><ele>86.0</ele><time>2026-04-19T17:29:35Z</time></trkpt><trkpt lat="40.07316956131752" lon="0.12015933161701992"><ele>81.5</ele><time>2026-04-19T17:29:36Z</time></trkpt><trkpt lat="40.07287098348246" lon="0.12007401758064772"><ele>77.0</ele><time>2026-04-19T17:29:37Z</time></trkpt><trkpt lat="40.07226995592435" lon="0.1198633920480406"><ele>74.0</ele><time>2026-04-19T17:29:39Z</time></trkpt><trkpt lat="40.07197187571929" lon="0.11972651475906335"><ele>71.0</ele><time>2026-04-19T17:29:40Z</time></trkpt><trkpt lat="40.07168357770751" lon="0.1195693866481432"><ele>67.5</ele><time>2026-04-19T17:29:40.999Z</time></trkpt><trkpt lat="40.07140077305672" lon="0.11940043892744"><ele>64.0</ele><time>2026-04-19T17:29:41.999Z</time></trkpt><trkpt lat="40.07112236157972" lon="0.11921483641398113"><ele>63.0</ele><time>2026-04-19T17:29:42.999Z</time></trkpt><trkpt lat="40.070845476499024" lon="0.11901983597180042"><ele>62.0</ele><time>2026-04-19T17:29:43.999Z</time></trkpt><trkpt lat="40.070575729196015" lon="0.11880431665260803"><ele>62.0</ele><time>2026-04-19T17:29:44.999Z</time></trkpt><trkpt lat="40.07031438411967" lon="0.11858165759505801"><ele>62.0</ele><time>2026-04-19T17:29:45.999Z</time></trkpt><trkpt lat="40.0700640280146" lon="0.11834455260661157"><ele>58.0</ele><time>2026-04-19T17:29:46.999Z</time></trkpt><trkpt lat="40.069823617295654" lon="0.11809709264578373"><ele>54.0</ele><time>2026-04-19T17:29:47.999Z</time></trkpt><trkpt lat="40.06959788553722" lon="0.11782737046343589"><ele>54.0</ele><time>2026-04-19T17:29:48.999Z</time></trkpt><trkpt lat="40.06938381746435" lon="0.11754010207459241"><ele>54.0</ele><time>2026-04-19T17:29:49.999Z</time></trkpt><trkpt lat="40.06918187260293" lon="0.11724004967264366"><ele>55.0</ele><time>2026-04-19T17:29:50.999Z</time></trkpt><trkpt lat="40.06898769610938" lon="0.11693130818417441"><ele>56.0</ele><time>2026-04-19T17:29:51.999Z</time></trkpt><trkpt lat="40.068800366712026" lon="0.11661730012855434"><ele>62.0</ele><time>2026-04-19T17:29:52.999Z</time></trkpt><trkpt lat="40.06862392015956" lon="0.11629440016828635"><ele>68.0</ele><time>2026-04-19T17:29:53.999Z</time></trkpt><trkpt lat="40.06845711355341" lon="0.11596014652355913"><ele>65.0</ele><time>2026-04-19T17:29:54.999Z</time></trkpt><trkpt lat="40.06829628918115" lon="0.11561428869196536"><ele>62.0</ele><time>2026-04-19T17:29:55.999Z</time></trkpt><trkpt lat="40.0681504126375" lon="0.11525733784920136"><ele>70.0</ele><time>2026-04-19T17:29:56.999Z</time></trkpt><trkpt lat="40.06801624718712" lon="0.11489971758981146"><ele>78.0</ele><time>2026-04-19T17:29:57.999Z</time></trkpt><trkpt lat="40.06789212024643" lon="0.11453706564353174"><ele>78.0</ele><time>2026-04-19T17:29:58.999Z</time></trkpt><trkpt lat="40.067781456449126" lon="0.11416832406658013"><ele>78.0</ele><time>2026-04-19T17:29:59.999Z</time></trkpt><trkpt lat="40.06768320614224" lon="0.1137983538721106"><ele>74.5</ele><time>2026-04-19T17:30:00.999Z</time></trkpt><trkpt lat="40.06759979684942" lon="0.11342780034180194"><ele>71.0</ele><time>2026-04-19T17:30:01.999Z</time></trkpt><trkpt lat="40.067534574474216" lon="0.1130524695061601"><ele>70.5</ele><time>2026-04-19T17:30:02.999Z</time></trkpt><trkpt lat="40.06748370114413" lon="0.1126717567462029"><ele>70.0</ele><time>2026-04-19T17:30:03.999Z</time></trkpt><trkpt lat="40.06744527658483" lon="0.11229526837207926"><ele>74.0</ele><time>2026-04-19T17:30:04.999Z</time></trkpt><trkpt lat="40.06741880436882" lon="0.11191617889521033"><ele>78.0</ele><time>2026-04-19T17:30:05.999Z</time></trkpt><trkpt lat="40.06739755716261" lon="0.11153531589715678"><ele>78.5</ele><time>2026-04-19T17:30:06.999Z</time></trkpt><trkpt lat="40.06738885408748" lon="0.11114536987635028"><ele>79.0</ele><time>2026-04-19T17:30:07.999Z</time></trkpt><trkpt lat="40.06739592264562" lon="0.11075159233909018"><ele>79.5</ele><time>2026-04-19T17:30:08.999Z</time></trkpt><trkpt lat="40.06742182566087" lon="0.11035944616092493"><ele>80.0</ele><time>2026-04-19T17:30:09.999Z</time></trkpt><trkpt lat="40.06745305167836" lon="0.10996433623888076"><ele>83.0</ele><time>2026-04-19T17:30:10.999Z</time></trkpt><trkpt lat="40.067495973125574" lon="0.10957139244828816"><ele>86.0</ele><time>2026-04-19T17:30:11.999Z</time></trkpt><trkpt lat="40.06755654763827" lon="0.10918081894902142"><ele>88.5</ele><time>2026-04-19T17:30:12.999Z</time></trkpt><trkpt lat="40.06765169502095" lon="0.10880559139123412"><ele>91.0</ele><time>2026-04-19T17:30:13.999Z</time></trkpt><trkpt lat="40.06766516313658" lon="0.10840082315780389"><ele>93.0</ele><time>2026-04-19T17:30:14.999Z</time></trkpt><trkpt lat="40.06775918864844" lon="0.10802395090828072"><ele>95.0</ele><time>2026-04-19T17:30:15.999Z</time></trkpt><trkpt lat="40.067849828890395" lon="0.10764390225601647"><ele>96.5</ele><time>2026-04-19T17:30:16.999Z</time></trkpt><trkpt lat="40.067936773444146" lon="0.10727096526989942"><ele>98.0</ele><time>2026-04-19T17:30:17.999Z</time></trkpt><trkpt lat="40.068033134478725" lon="0.10690245203290923"><ele>95.5</ele><time>2026-04-19T17:30:18.999Z</time></trkpt><trkpt lat="40.06812710383644" lon="0.10653164783189731"><ele>93.0</ele><time>2026-04-19T17:30:19.999Z</time></trkpt><trkpt lat="40.06821114941673" lon="0.10616394706791299"><ele>85.5</ele><time>2026-04-19T17:30:20.999Z</time></trkpt><trkpt lat="40.06829372773521" lon="0.10579861712604634"><ele>78.0</ele><time>2026-04-19T17:30:21.999Z</time></trkpt><trkpt lat="40.068371564787775" lon="0.10542106744101434"><ele>75.0</ele><time>2026-04-19T17:30:22.999Z</time></trkpt><trkpt lat="40.06843847345294" lon="0.10504005366522064"><ele>72.0</ele><time>2026-04-19T17:30:23.999Z</time></trkpt><trkpt lat="40.06850904476381" lon="0.1046639354792571"><ele>70.5</ele><time>2026-04-19T17:30:24.999Z</time></trkpt><trkpt lat="40.06857113083146" lon="0.10429210365424817"><ele>69.0</ele><time>2026-04-19T17:30:25.999Z</time></trkpt><trkpt lat="40.06861643324197" lon="0.10392017339332356"><ele>68.5</ele><time>2026-04-19T17:30:26.999Z</time></trkpt><trkpt lat="40.068656180196214" lon="0.1035434664289137"><ele>68.0</ele><time>2026-04-19T17:30:27.999Z</time></trkpt><trkpt lat="40.06868758148884" lon="0.10316577402061967"><ele>70.5</ele><time>2026-04-19T17:30:28.999Z</time></trkpt><trkpt lat="40.06871172010188" lon="0.10279055882028325"><ele>73.0</ele><time>2026-04-19T17:30:29.999Z</time></trkpt><trkpt lat="40.068726347548086" lon="0.10241533065295573"><ele>74.5</ele><time>2026-04-19T17:30:30.999Z</time></trkpt><trkpt lat="40.0687374014387" lon="0.10204807601304171"><ele>76.0</ele><time>2026-04-19T17:30:31.999Z</time></trkpt><trkpt lat="40.06873858522508" lon="0.10167637657117126"><ele>73.5</ele><time>2026-04-19T17:30:32.999Z</time></trkpt><trkpt lat="40.06873063116729" lon="0.10130784801957439"><ele>71.0</ele><time>2026-04-19T17:30:33.999Z</time></trkpt><trkpt lat="40.06871606052543" lon="0.10094808832504014"><ele>70.0</ele><time>2026-04-19T17:30:34.999Z</time></trkpt><trkpt lat="40.06869029870117" lon="0.10059002050324681"><ele>69.0</ele><time>2026-04-19T17:30:35.999Z</time></trkpt><trkpt lat="40.068664162517564" lon="0.1002292023227625"><ele>69.5</ele><time>2026-04-19T17:30:36.999Z</time></trkpt><trkpt lat="40.068617684339074" lon="0.09986679775792005"><ele>70.0</ele><time>2026-04-19T17:30:37.999Z</time></trkpt><trkpt lat="40.06857456489978" lon="0.0995045327741742"><ele>70.0</ele><time>2026-04-19T17:30:38.999Z</time></trkpt><trkpt lat="40.068521390120054" lon="0.0991454631533508"><ele>70.0</ele><time>2026-04-19T17:30:39.999Z</time></trkpt><trkpt lat="40.06846562238881" lon="0.09878545383374959"><ele>72.5</ele><time>2026-04-19T17:30:40.998Z</time></trkpt><trkpt lat="40.068402985400866" lon="0.09842662327018843"><ele>75.0</ele><time>2026-04-19T17:30:41.998Z</time></trkpt><trkpt lat="40.06832825557518" lon="0.09807008114718073"><ele>72.0</ele><time>2026-04-19T17:30:42.998Z</time></trkpt><trkpt lat="40.06824873910395" lon="0.09771302482751838"><ele>69.0</ele><time>2026-04-19T17:30:43.998Z</time></trkpt><trkpt lat="40.06816557473514" lon="0.0973542754227557"><ele>68.5</ele><time>2026-04-19T17:30:44.998Z</time></trkpt><trkpt lat="40.06807913756869" lon="0.09700135172783084"><ele>68.0</ele><time>2026-04-19T17:30:45.998Z</time></trkpt><trkpt lat="40.06798772261934" lon="0.09664371524565651"><ele>71.0</ele><time>2026-04-19T17:30:46.998Z</time></trkpt><trkpt lat="40.06789753540906" lon="0.09628087184659216"><ele>74.0</ele><time>2026-04-19T17:30:47.998Z</time></trkpt><trkpt lat="40.06780725869067" lon="0.0959184812777709"><ele>77.0</ele><time>2026-04-19T17:30:48.998Z</time></trkpt><trkpt lat="40.06771259583784" lon="0.09556412622832461"><ele>80.0</ele><time>2026-04-19T17:30:49.998Z</time></trkpt><trkpt lat="40.06761763651938" lon="0.09520871229918196"><ele>81.0</ele><time>2026-04-19T17:30:50.998Z</time></trkpt><trkpt lat="40.06752688868321" lon="0.09484733161007732"><ele>82.0</ele><time>2026-04-19T17:30:51.998Z</time></trkpt><trkpt lat="40.06744013561656" lon="0.09448260376702304"><ele>76.0</ele><time>2026-04-19T17:30:52.998Z</time></trkpt><trkpt lat="40.06734965189322" lon="0.09411304027346762"><ele>70.0</ele><time>2026-04-19T17:30:53.998Z</time></trkpt><trkpt lat="40.06726115240078" lon="0.09374397931341655"><ele>70.0</ele><time>2026-04-19T17:30:54.998Z</time></trkpt><trkpt lat="40.06717290955768" lon="0.0933743480344389"><ele>70.0</ele><time>2026-04-19T17:30:55.998Z</time></trkpt><trkpt lat="40.06708447992629" lon="0.09300281971058572"><ele>72.0</ele><time>2026-04-19T17:30:56.998Z</time></trkpt><trkpt lat="40.06700135054414" lon="0.09262933760325004"><ele>74.0</ele><time>2026-04-19T17:30:57.998Z</time></trkpt><trkpt lat="40.06692102805983" lon="0.09225515288036361"><ele>77.5</ele><time>2026-04-19T17:30:58.998Z</time></trkpt><trkpt lat="40.06684227560749" lon="0.09187848642419638"><ele>81.0</ele><time>2026-04-19T17:30:59.998Z</time></trkpt><trkpt lat="40.066773254767945" lon="0.0915076901218834"><ele>83.0</ele><time>2026-04-19T17:31:00.998Z</time></trkpt><trkpt lat="40.06671073368968" lon="0.09113366633019658"><ele>85.0</ele><time>2026-04-19T17:31:01.998Z</time></trkpt><trkpt lat="40.06664226118697" lon="0.09076437385097416"><ele>92.0</ele><time>2026-04-19T17:31:02.998Z</time></trkpt><trkpt lat="40.06658472759576" lon="0.09039602561803219"><ele>99.0</ele><time>2026-04-19T17:31:03.998Z</time></trkpt><trkpt lat="40.06653258091976" lon="0.09003478921490732"><ele>103.0</ele><time>2026-04-19T17:31:04.998Z</time></trkpt><trkpt lat="40.06648498395926" lon="0.08966599130684971"><ele>107.0</ele><time>2026-04-19T17:31:05.998Z</time></trkpt><trkpt lat="40.06644290731237" lon="0.08930576904042263"><ele>104.5</ele><time>2026-04-19T17:31:06.998Z</time></trkpt><trkpt lat="40.066400363381156" lon="0.08894487712613976"><ele>102.0</ele><time>2026-04-19T17:31:08Z</time></trkpt><trkpt lat="40.06636373509285" lon="0.08857865654630911"><ele>94.0</ele><time>2026-04-19T17:31:09Z</time></trkpt><trkpt lat="40.066327949103105" lon="0.08820116456760634"><ele>86.0</ele><time>2026-04-19T17:31:10Z</time></trkpt><trkpt lat="40.06630926530885" lon="0.08782924350722653"><ele>86.0</ele><time>2026-04-19T17:31:11Z</time></trkpt><trkpt lat="40.066283964277105" lon="0.0874448193603539"><ele>86.0</ele><time>2026-04-19T17:31:12Z</time></trkpt><trkpt lat="40.06626710279347" lon="0.08706020939911319"><ele>78.0</ele><time>2026-04-19T17:31:13Z</time></trkpt><trkpt lat="40.06625093189664" lon="0.08668043102985083"><ele>70.0</ele><time>2026-04-19T17:31:14Z</time></trkpt><trkpt lat="40.066239241186985" lon="0.08628909016488638"><ele>62.5</ele><time>2026-04-19T17:31:15Z</time></trkpt><trkpt lat="40.066235997888676" lon="0.0858971031967473"><ele>55.0</ele><time>2026-04-19T17:31:16Z</time></trkpt><trkpt lat="40.06624015389442" lon="0.08550689747544772"><ele>52.0</ele><time>2026-04-19T17:31:17Z</time></trkpt><trkpt lat="40.06624772426643" lon="0.08511455541133843"><ele>49.0</ele><time>2026-04-19T17:31:18Z</time></trkpt><trkpt lat="40.06626043031097" lon="0.08472022196050868"><ele>48.5</ele><time>2026-04-19T17:31:19Z</time></trkpt><trkpt lat="40.06627746106586" lon="0.08432783435239828"><ele>48.0</ele><time>2026-04-19T17:31:20Z</time></trkpt><trkpt lat="40.066301442822564" lon="0.08394176013891477"><ele>47.5</ele><time>2026-04-19T17:31:21Z</time></trkpt><trkpt lat="40.066325807885434" lon="0.08355658338581569"><ele>47.0</ele><time>2026-04-19T17:31:22Z</time></trkpt><trkpt lat="40.0663495584461" lon="0.08317626045817923"><ele>45.0</ele><time>2026-04-19T17:31:23Z</time></trkpt><trkpt lat="40.06637263773517" lon="0.08281190100703456"><ele>43.0</ele><time>2026-04-19T17:31:24Z</time></trkpt><trkpt lat="40.066396368718465" lon="0.08244518893453208"><ele>44.5</ele><time>2026-04-19T17:31:25Z</time></trkpt><trkpt lat="40.06642382770459" lon="0.08207689608047936"><ele>46.0</ele><time>2026-04-19T17:31:26Z</time></trkpt><trkpt lat="40.06644877247627" lon="0.08170879633869892"><ele>51.5</ele><time>2026-04-19T17:31:27Z</time></trkpt><trkpt lat="40.06647163638749" lon="0.0813460956697311"><ele>57.0</ele><time>2026-04-19T17:31:28Z</time></trkpt><trkpt lat="40.066489469684655" lon="0.08097443674070694"><ele>55.5</ele><time>2026-04-19T17:31:29Z</time></trkpt><trkpt lat="40.066500825327935" lon="0.08059791394400609"><ele>54.0</ele><time>2026-04-19T17:31:30Z</time></trkpt><trkpt lat="40.06651095929719" lon="0.08023180613301366"><ele>49.5</ele><time>2026-04-19T17:31:31Z</time></trkpt><trkpt lat="40.06651788103151" lon="0.07986572089259364"><ele>45.0</ele><time>2026-04-19T17:31:32Z</time></trkpt><trkpt lat="40.066515807099734" lon="0.07950263770041824"><ele>45.0</ele><time>2026-04-19T17:31:33Z</time></trkpt><trkpt lat="40.06650457969415" lon="0.07914210582686412"><ele>45.0</ele><time>2026-04-19T17:31:34Z</time></trkpt><trkpt lat="40.06648759799873" lon="0.07878140871682264"><ele>41.5</ele><time>2026-04-19T17:31:35Z</time></trkpt><trkpt lat="40.06646195181225" lon="0.07841797142187208"><ele>38.0</ele><time>2026-04-19T17:31:36Z</time></trkpt><trkpt lat="40.06643124840983" lon="0.07805755776622106"><ele>38.0</ele><time>2026-04-19T17:31:37Z</time></trkpt><trkpt lat="40.06639556976987" lon="0.07769934292473818"><ele>38.0</ele><time>2026-04-19T17:31:38Z</time></trkpt><trkpt lat="40.06635549210635" lon="0.0773343434811918"><ele>38.5</ele><time>2026-04-19T17:31:39Z</time></trkpt><trkpt lat="40.06630443321142" lon="0.07697235066766844"><ele>39.0</ele><time>2026-04-19T17:31:40Z</time></trkpt><trkpt lat="40.066244490489574" lon="0.07661029157028763"><ele>39.5</ele><time>2026-04-19T17:31:41Z</time></trkpt><trkpt lat="40.06618205145891" lon="0.07625144767251718"><ele>40.0</ele><time>2026-04-19T17:31:42Z</time></trkpt><trkpt lat="40.066116391044545" lon="0.07589393737983663"><ele>40.0</ele><time>2026-04-19T17:31:43Z</time></trkpt><trkpt lat="40.06604672660548" lon="0.07553971038012823"><ele>40.0</ele><time>2026-04-19T17:31:44Z</time></trkpt><trkpt lat="40.06596945066371" lon="0.07518557546867595"><ele>40.5</ele><time>2026-04-19T17:31:45Z</time></trkpt><trkpt lat="40.06588002423146" lon="0.07483448615385235"><ele>41.0</ele><time>2026-04-19T17:31:46Z</time></trkpt><trkpt lat="40.06578644564494" lon="0.07448711372242095"><ele>41.5</ele><time>2026-04-19T17:31:47Z</time></trkpt><trkpt lat="40.065685964403166" lon="0.07414652366015724"><ele>42.0</ele><time>2026-04-19T17:31:48Z</time></trkpt><trkpt lat="40.06558164207403" lon="0.07380886938155035"><ele>42.0</ele><time>2026-04-19T17:31:49Z</time></trkpt><trkpt lat="40.06547202351333" lon="0.07347623074322508"><ele>42.0</ele><time>2026-04-19T17:31:50Z</time></trkpt><trkpt lat="40.0653579602416" lon="0.07314724458950417"><ele>43.0</ele><time>2026-04-19T17:31:50.999Z</time></trkpt><trkpt lat="40.06523592483444" lon="0.0728184953858562"><ele>44.0</ele><time>2026-04-19T17:31:51.999Z</time></trkpt><trkpt lat="40.06510863322939" lon="0.07248973169886136"><ele>42.5</ele><time>2026-04-19T17:31:52.999Z</time></trkpt><trkpt lat="40.06497512996133" lon="0.07216486534900557"><ele>41.0</ele><time>2026-04-19T17:31:53.999Z</time></trkpt><trkpt lat="40.06483302948927" lon="0.07185147716576867"><ele>46.0</ele><time>2026-04-19T17:31:54.999Z</time></trkpt><trkpt lat="40.06468876378001" lon="0.07153846366515186"><ele>51.0</ele><time>2026-04-19T17:31:55.999Z</time></trkpt><trkpt lat="40.06453898041381" lon="0.07122812848830296"><ele>51.0</ele><time>2026-04-19T17:31:56.999Z</time></trkpt><trkpt lat="40.06438292805813" lon="0.0709187025854862"><ele>51.0</ele><time>2026-04-19T17:31:57.999Z</time></trkpt><trkpt lat="40.06422848674794" lon="0.07061305063257882"><ele>47.5</ele><time>2026-04-19T17:31:58.999Z</time></trkpt><trkpt lat="40.06406921712678" lon="0.07031063857825465"><ele>44.0</ele><time>2026-04-19T17:31:59.999Z</time></trkpt><trkpt lat="40.063909640809484" lon="0.0700079779626066"><ele>47.0</ele><time>2026-04-19T17:32:00.999Z</time></trkpt><trkpt lat="40.06375064228247" lon="0.06970643345491682"><ele>50.0</ele><time>2026-04-19T17:32:01.999Z</time></trkpt><trkpt lat="40.063588587992314" lon="0.06940599923115198"><ele>52.0</ele><time>2026-04-19T17:32:02.999Z</time></trkpt><trkpt lat="40.063434426955816" lon="0.0690984455615674"><ele>54.0</ele><time>2026-04-19T17:32:03.999Z</time></trkpt><trkpt lat="40.06328291174207" lon="0.0687905726825885"><ele>56.0</ele><time>2026-04-19T17:32:04.999Z</time></trkpt><trkpt lat="40.06313418576893" lon="0.06848297261310857"><ele>58.0</ele><time>2026-04-19T17:32:05.999Z</time></trkpt><trkpt lat="40.06299139995208" lon="0.06816694795371188"><ele>58.0</ele><time>2026-04-19T17:32:06.999Z</time></trkpt><trkpt lat="40.062863429770125" lon="0.06785983543124934"><ele>58.0</ele><time>2026-04-19T17:32:07.999Z</time></trkpt><trkpt lat="40.06272875913876" lon="0.06751606723487837"><ele>63.0</ele><time>2026-04-19T17:32:08.999Z</time></trkpt><trkpt lat="40.06260979669058" lon="0.06717525104402688"><ele>68.0</ele><time>2026-04-19T17:32:09.999Z</time></trkpt><trkpt lat="40.062495256916506" lon="0.06683005583670984"><ele>71.0</ele><time>2026-04-19T17:32:10.999Z</time></trkpt><trkpt lat="40.062386845161676" lon="0.0664774742445946"><ele>74.0</ele><time>2026-04-19T17:32:11.999Z</time></trkpt><trkpt lat="40.06228920457615" lon="0.06612306201005497"><ele>82.5</ele><time>2026-04-19T17:32:12.999Z</time></trkpt><trkpt lat="40.06219342007605" lon="0.0657648326058844"><ele>91.0</ele><time>2026-04-19T17:32:13.999Z</time></trkpt><trkpt lat="40.06210886656428" lon="0.06540073340581344"><ele>91.0</ele><time>2026-04-19T17:32:14.999Z</time></trkpt><trkpt lat="40.06203051156639" lon="0.06503937710265068"><ele>91.0</ele><time>2026-04-19T17:32:15.999Z</time></trkpt><trkpt lat="40.06196305040766" lon="0.06467366814353016"><ele>91.0</ele><time>2026-04-19T17:32:16.999Z</time></trkpt><trkpt lat="40.06190595265392" lon="0.06430534886050349"><ele>91.0</ele><time>2026-04-19T17:32:17.999Z</time></trkpt><trkpt lat="40.06185495922597" lon="0.0639365470944273"><ele>89.0</ele><time>2026-04-19T17:32:18.999Z</time></trkpt><trkpt lat="40.0618156688363" lon="0.06356714548224157"><ele>87.0</ele><time>2026-04-19T17:32:19.999Z</time></trkpt><trkpt lat="40.06178378344566" lon="0.06319683054231738"><ele>82.5</ele><time>2026-04-19T17:32:20.999Z</time></trkpt><trkpt lat="40.0617578795355" lon="0.06282271912518184"><ele>78.0</ele><time>2026-04-19T17:32:21.999Z</time></trkpt><trkpt lat="40.061742097290974" lon="0.06244225666309401"><ele>74.5</ele><time>2026-04-19T17:32:22.999Z</time></trkpt><trkpt lat="40.06173411084234" lon="0.062064627134437014"><ele>71.0</ele><time>2026-04-19T17:32:23.999Z</time></trkpt><trkpt lat="40.061735435731485" lon="0.06168860838674315"><ele>70.0</ele><time>2026-04-19T17:32:24.999Z</time></trkpt><trkpt lat="40.061741359102314" lon="0.0613052344031386"><ele>69.0</ele><time>2026-04-19T17:32:25.999Z</time></trkpt><trkpt lat="40.06175096459989" lon="0.060916396265093924"><ele>68.0</ele><time>2026-04-19T17:32:26.999Z</time></trkpt><trkpt lat="40.06177917301792" lon="0.06052655571674797"><ele>67.0</ele><time>2026-04-19T17:32:27.999Z</time></trkpt><trkpt lat="40.061809074393345" lon="0.06013500353371408"><ele>67.0</ele><time>2026-04-19T17:32:28.999Z</time></trkpt><trkpt lat="40.06184821677906" lon="0.05974303039356128"><ele>67.0</ele><time>2026-04-19T17:32:29.999Z</time></trkpt><trkpt lat="40.06189671752224" lon="0.05934564222044753"><ele>67.5</ele><time>2026-04-19T17:32:30.999Z</time></trkpt><trkpt lat="40.06195743756077" lon="0.05894750706206716"><ele>68.0</ele><time>2026-04-19T17:32:31.999Z</time></trkpt><trkpt lat="40.06202452292667" lon="0.05855721767288654"><ele>68.5</ele><time>2026-04-19T17:32:32.999Z</time></trkpt><trkpt lat="40.06209688037569" lon="0.058172599138476146"><ele>69.0</ele><time>2026-04-19T17:32:33.999Z</time></trkpt><trkpt lat="40.0621777224603" lon="0.05779427643259323"><ele>70.0</ele><time>2026-04-19T17:32:34.999Z</time></trkpt><trkpt lat="40.06225986453213" lon="0.05743180802020825"><ele>71.0</ele><time>2026-04-19T17:32:35.999Z</time></trkpt><trkpt lat="40.06234443153113" lon="0.057074318114994624"><ele>71.0</ele><time>2026-04-19T17:32:36.999Z</time></trkpt><trkpt lat="40.06241902568313" lon="0.05671684622430594"><ele>71.0</ele><time>2026-04-19T17:32:37.999Z</time></trkpt><trkpt lat="40.06248335503995" lon="0.05635632356162153"><ele>77.5</ele><time>2026-04-19T17:32:38.999Z</time></trkpt><trkpt lat="40.062538283544775" lon="0.0559979411870103"><ele>84.0</ele><time>2026-04-19T17:32:39.999Z</time></trkpt><trkpt lat="40.06258824698387" lon="0.05564381899420762"><ele>87.5</ele><time>2026-04-19T17:32:40.999Z</time></trkpt><trkpt lat="40.06262947134858" lon="0.05529023090339347"><ele>91.0</ele><time>2026-04-19T17:32:41.999Z</time></trkpt><trkpt lat="40.062659923368535" lon="0.054936388861356496"><ele>95.0</ele><time>2026-04-19T17:32:42.999Z</time></trkpt><trkpt lat="40.06268456730332" lon="0.05458160221963695"><ele>99.0</ele><time>2026-04-19T17:32:43.999Z</time></trkpt><trkpt lat="40.0626957332133" lon="0.05422397811260995"><ele>97.5</ele><time>2026-04-19T17:32:44.999Z</time></trkpt><trkpt lat="40.06270120180832" lon="0.05386583962736768"><ele>96.0</ele><time>2026-04-19T17:32:45.999Z</time></trkpt><trkpt lat="40.0626978141715" lon="0.053504751984020965"><ele>93.5</ele><time>2026-04-19T17:32:46.999Z</time></trkpt><trkpt lat="40.06268278398556" lon="0.0531307299930089"><ele>91.0</ele><time>2026-04-19T17:32:47.999Z</time></trkpt><trkpt lat="40.06265871882881" lon="0.05274747758829252"><ele>90.0</ele><time>2026-04-19T17:32:48.999Z</time></trkpt><trkpt lat="40.06262670617895" lon="0.052359501605892984"><ele>89.0</ele><time>2026-04-19T17:32:49.999Z</time></trkpt><trkpt lat="40.0625851379456" lon="0.051972242167580854"><ele>89.5</ele><time>2026-04-19T17:32:50.999Z</time></trkpt><trkpt lat="40.0625347683469" lon="0.05158767016572364"><ele>90.0</ele><time>2026-04-19T17:32:51.999Z</time></trkpt><trkpt lat="40.06247370205498" lon="0.051199714712989126"><ele>88.5</ele><time>2026-04-19T17:32:52.998Z</time></trkpt><trkpt lat="40.06240314582924" lon="0.05081575332876271"><ele>87.0</ele><time>2026-04-19T17:32:53.998Z</time></trkpt><trkpt lat="40.062318974682015" lon="0.050438798981628064"><ele>86.5</ele><time>2026-04-19T17:32:54.998Z</time></trkpt><trkpt lat="40.062229728002954" lon="0.050066618920700814"><ele>86.0</ele><time>2026-04-19T17:32:55.998Z</time></trkpt><trkpt lat="40.06213325898892" lon="0.049699416166852584"><ele>86.0</ele><time>2026-04-19T17:32:56.998Z</time></trkpt><trkpt lat="40.06202914010544" lon="0.049338954718951694"><ele>86.0</ele><time>2026-04-19T17:32:57.998Z</time></trkpt><trkpt lat="40.06191464725455" lon="0.04898054360673048"><ele>87.0</ele><time>2026-04-19T17:32:58.998Z</time></trkpt><trkpt lat="40.06178446057342" lon="0.04862964785312322"><ele>88.0</ele><time>2026-04-19T17:32:59.998Z</time></trkpt><trkpt lat="40.06164388145101" lon="0.04828344571829016"><ele>85.0</ele><time>2026-04-19T17:33:00.998Z</time></trkpt><trkpt lat="40.061501726474816" lon="0.04793925964540361"><ele>82.0</ele><time>2026-04-19T17:33:01.998Z</time></trkpt><trkpt lat="40.06135132959495" lon="0.04760297848799096"><ele>83.5</ele><time>2026-04-19T17:33:02.998Z</time></trkpt><trkpt lat="40.061190085010445" lon="0.04728558196513816"><ele>85.0</ele><time>2026-04-19T17:33:03.998Z</time></trkpt><trkpt lat="40.061024018327394" lon="0.04697734266839831"><ele>85.0</ele><time>2026-04-19T17:33:04.998Z</time></trkpt><trkpt lat="40.06085298559551" lon="0.04667205730871744"><ele>85.0</ele><time>2026-04-19T17:33:05.998Z</time></trkpt><trkpt lat="40.060677730200965" lon="0.04638022403478087"><ele>83.0</ele><time>2026-04-19T17:33:06.998Z</time></trkpt><trkpt lat="40.06049486963813" lon="0.04610114338380158"><ele>81.0</ele><time>2026-04-19T17:33:07.998Z</time></trkpt><trkpt lat="40.06030877563035" lon="0.045824410920884504"><ele>82.0</ele><time>2026-04-19T17:33:08.998Z</time></trkpt><trkpt lat="40.06011444379803" lon="0.04554976943606847"><ele>83.0</ele><time>2026-04-19T17:33:09.998Z</time></trkpt><trkpt lat="40.05991090090379" lon="0.04528638691621703"><ele>81.5</ele><time>2026-04-19T17:33:10.998Z</time></trkpt><trkpt lat="40.05969822907757" lon="0.045030378614409616"><ele>80.0</ele><time>2026-04-19T17:33:11.998Z</time></trkpt><trkpt lat="40.05948860740804" lon="0.04478684174229658"><ele>80.0</ele><time>2026-04-19T17:33:12.998Z</time></trkpt><trkpt lat="40.059276473841805" lon="0.04455388539074382"><ele>80.0</ele><time>2026-04-19T17:33:14Z</time></trkpt><trkpt lat="40.059057979145734" lon="0.0443270188146367"><ele>79.0</ele><time>2026-04-19T17:33:15Z</time></trkpt><trkpt lat="40.058826799464256" lon="0.0441114922038897"><ele>78.0</ele><time>2026-04-19T17:33:16Z</time></trkpt><trkpt lat="40.058590071541424" lon="0.04389906469786032"><ele>78.0</ele><time>2026-04-19T17:33:17Z</time></trkpt><trkpt lat="40.05834539586139" lon="0.043696643846987404"><ele>78.0</ele><time>2026-04-19T17:33:18Z</time></trkpt><trkpt lat="40.05809478003537" lon="0.04350366029561803"><ele>76.0</ele><time>2026-04-19T17:33:19Z</time></trkpt><trkpt lat="40.05783867849246" lon="0.04331927232357645"><ele>74.0</ele><time>2026-04-19T17:33:20Z</time></trkpt><trkpt lat="40.05757799942777" lon="0.04314288263560222"><ele>73.0</ele><time>2026-04-19T17:33:21Z</time></trkpt><trkpt lat="40.057312671107745" lon="0.04298085718372798"><ele>72.0</ele><time>2026-04-19T17:33:22Z</time></trkpt><trkpt lat="40.05704271719951" lon="0.042833603194734365"><ele>72.0</ele><time>2026-04-19T17:33:23Z</time></trkpt><trkpt lat="40.05676800042678" lon="0.04269467426381105"><ele>72.0</ele><time>2026-04-19T17:33:24Z</time></trkpt><trkpt lat="40.056493500228775" lon="0.04256417418827568"><ele>73.5</ele><time>2026-04-19T17:33:25Z</time></trkpt><trkpt lat="40.05621764113776" lon="0.04244582871716384"><ele>75.0</ele><time>2026-04-19T17:33:26Z</time></trkpt><trkpt lat="40.055936393145984" lon="0.04233705749214027"><ele>73.0</ele><time>2026-04-19T17:33:27Z</time></trkpt><trkpt lat="40.05565901130007" lon="0.04222815978156754"><ele>71.0</ele><time>2026-04-19T17:33:28Z</time></trkpt><trkpt lat="40.05538157154077" lon="0.042116575058327076"><ele>71.0</ele><time>2026-04-19T17:33:29Z</time></trkpt><trkpt lat="40.05510282132775" lon="0.04200378737989324"><ele>71.0</ele><time>2026-04-19T17:33:30Z</time></trkpt><trkpt lat="40.05482367342437" lon="0.041887226228912514"><ele>68.0</ele><time>2026-04-19T17:33:31Z</time></trkpt><trkpt lat="40.054545484097886" lon="0.041770009321078806"><ele>65.0</ele><time>2026-04-19T17:33:32Z</time></trkpt><trkpt lat="40.05426868123667" lon="0.04164878164665475"><ele>65.0</ele><time>2026-04-19T17:33:33Z</time></trkpt><trkpt lat="40.053995019870825" lon="0.041523793121106795"><ele>65.0</ele><time>2026-04-19T17:33:34Z</time></trkpt><trkpt lat="40.05372271470699" lon="0.04138839782339071"><ele>65.0</ele><time>2026-04-19T17:33:35Z</time></trkpt><trkpt lat="40.05345672840593" lon="0.0412427134869188"><ele>65.0</ele><time>2026-04-19T17:33:36Z</time></trkpt><trkpt lat="40.05318754257233" lon="0.04108885131443173"><ele>66.0</ele><time>2026-04-19T17:33:37Z</time></trkpt><trkpt lat="40.052929051029494" lon="0.040929891496378885"><ele>67.0</ele><time>2026-04-19T17:33:38Z</time></trkpt><trkpt lat="40.052664973983674" lon="0.04075600329816488"><ele>62.5</ele><time>2026-04-19T17:33:39Z</time></trkpt><trkpt lat="40.0524061745578" lon="0.04057608354586212"><ele>58.0</ele><time>2026-04-19T17:33:40Z</time></trkpt><trkpt lat="40.05214755542209" lon="0.04039058839808784"><ele>58.0</ele><time>2026-04-19T17:33:41Z</time></trkpt><trkpt lat="40.05189125727571" lon="0.040196711900839927"><ele>58.0</ele><time>2026-04-19T17:33:42Z</time></trkpt><trkpt lat="40.051637525727024" lon="0.03998977616139844"><ele>55.5</ele><time>2026-04-19T17:33:43Z</time></trkpt><trkpt lat="40.051391992815546" lon="0.03977083566374961"><ele>53.0</ele><time>2026-04-19T17:33:44Z</time></trkpt><trkpt lat="40.05114927854033" lon="0.039540102147247284"><ele>53.0</ele><time>2026-04-19T17:33:45Z</time></trkpt><trkpt lat="40.05091109705032" lon="0.03930178766169057"><ele>53.0</ele><time>2026-04-19T17:33:46Z</time></trkpt><trkpt lat="40.05067929521405" lon="0.039051036259228435"><ele>51.5</ele><time>2026-04-19T17:33:47Z</time></trkpt><trkpt lat="40.05044435726179" lon="0.03879837982288631"><ele>50.0</ele><time>2026-04-19T17:33:48Z</time></trkpt><trkpt lat="40.05021710815106" lon="0.038534939066079285"><ele>49.0</ele><time>2026-04-19T17:33:49Z</time></trkpt><trkpt lat="40.04999610288362" lon="0.038260923087060965"><ele>48.0</ele><time>2026-04-19T17:33:50Z</time></trkpt><trkpt lat="40.0497847899684" lon="0.03797068042182842"><ele>48.0</ele><time>2026-04-19T17:33:51Z</time></trkpt><trkpt lat="40.04956721037905" lon="0.03768977839780885"><ele>48.0</ele><time>2026-04-19T17:33:52Z</time></trkpt><trkpt lat="40.04936538877967" lon="0.03739988159112659"><ele>48.5</ele><time>2026-04-19T17:33:53Z</time></trkpt><trkpt lat="40.04916924348253" lon="0.03709962944139852"><ele>49.0</ele><time>2026-04-19T17:33:54Z</time></trkpt><trkpt lat="40.048967775024735" lon="0.03681020706813701"><ele>45.0</ele><time>2026-04-19T17:33:55Z</time></trkpt><trkpt lat="40.04877846377499" lon="0.03649729397773965"><ele>41.0</ele><time>2026-04-19T17:33:55.999Z</time></trkpt><trkpt lat="40.0485930559503" lon="0.03617305257088838"><ele>41.0</ele><time>2026-04-19T17:33:56.999Z</time></trkpt><trkpt lat="40.048414164652286" lon="0.035838217572866045"><ele>41.0</ele><time>2026-04-19T17:33:57.999Z</time></trkpt><trkpt lat="40.04823875512199" lon="0.035496587093742246"><ele>40.5</ele><time>2026-04-19T17:33:58.999Z</time></trkpt><trkpt lat="40.04806484120018" lon="0.03514331951813093"><ele>40.0</ele><time>2026-04-19T17:33:59.999Z</time></trkpt><trkpt lat="40.04791139887104" lon="0.03478447365623222"><ele>40.0</ele><time>2026-04-19T17:34:00.999Z</time></trkpt><trkpt lat="40.04775904464113" lon="0.03442929036213298"><ele>40.0</ele><time>2026-04-19T17:34:01.999Z</time></trkpt><trkpt lat="40.04761037328129" lon="0.03407071822362426"><ele>38.5</ele><time>2026-04-19T17:34:02.999Z</time></trkpt><trkpt lat="40.04746561688505" lon="0.03371457081668658"><ele>37.0</ele><time>2026-04-19T17:34:03.999Z</time></trkpt><trkpt lat="40.04732287883642" lon="0.033361668105539116"><ele>40.0</ele><time>2026-04-19T17:34:04.999Z</time></trkpt><trkpt lat="40.04717602263606" lon="0.033016626968109655"><ele>43.0</ele><time>2026-04-19T17:34:05.999Z</time></trkpt><trkpt lat="40.047038600401564" lon="0.03266543327914505"><ele>44.5</ele><time>2026-04-19T17:34:06.999Z</time></trkpt><trkpt lat="40.04689495499117" lon="0.0323169413968197"><ele>46.0</ele><time>2026-04-19T17:34:07.999Z</time></trkpt><trkpt lat="40.046749485584506" lon="0.03196529903466385"><ele>48.0</ele><time>2026-04-19T17:34:08.999Z</time></trkpt><trkpt lat="40.04660025874557" lon="0.031613745492198954"><ele>50.0</ele><time>2026-04-19T17:34:09.999Z</time></trkpt><trkpt lat="40.046445068144486" lon="0.031260489233903864"><ele>50.0</ele><time>2026-04-19T17:34:10.999Z</time></trkpt><trkpt lat="40.046289695152" lon="0.030911009929167406"><ele>50.0</ele><time>2026-04-19T17:34:11.999Z</time></trkpt><trkpt lat="40.046131358237446" lon="0.030568228567122758"><ele>50.5</ele><time>2026-04-19T17:34:12.999Z</time></trkpt><trkpt lat="40.045970382586226" lon="0.030224332810915532"><ele>51.0</ele><time>2026-04-19T17:34:13.999Z</time></trkpt><trkpt lat="40.04580885037864" lon="0.029886315319671813"><ele>49.0</ele><time>2026-04-19T17:34:14.999Z</time></trkpt><trkpt lat="40.045652527480236" lon="0.02956074264409187"><ele>47.0</ele><time>2026-04-19T17:34:15.999Z</time></trkpt><trkpt lat="40.0454939072543" lon="0.02925088229547181"><ele>48.5</ele><time>2026-04-19T17:34:16.999Z</time></trkpt><trkpt lat="40.04533267882822" lon="0.02893623211973562"><ele>50.0</ele><time>2026-04-19T17:34:17.999Z</time></trkpt><trkpt lat="40.045172734649704" lon="0.02862963330252306"><ele>50.0</ele><time>2026-04-19T17:34:18.999Z</time></trkpt><trkpt lat="40.045013594176524" lon="0.02832508575400191"><ele>50.0</ele><time>2026-04-19T17:34:19.999Z</time></trkpt><trkpt lat="40.044848104733084" lon="0.02802488074607007"><ele>50.5</ele><time>2026-04-19T17:34:20.999Z</time></trkpt><trkpt lat="40.04468261808207" lon="0.027731568327929633"><ele>51.0</ele><time>2026-04-19T17:34:21.999Z</time></trkpt><trkpt lat="40.04451480128116" lon="0.027443149178371446"><ele>51.5</ele><time>2026-04-19T17:34:22.999Z</time></trkpt><trkpt lat="40.04434691340224" lon="0.027153977452924284"><ele>52.0</ele><time>2026-04-19T17:34:23.999Z</time></trkpt><trkpt lat="40.0441719781603" lon="0.0268668293144322"><ele>51.0</ele><time>2026-04-19T17:34:24.999Z</time></trkpt><trkpt lat="40.04399991581059" lon="0.026572484463967396"><ele>50.0</ele><time>2026-04-19T17:34:25.999Z</time></trkpt><trkpt lat="40.04382196719607" lon="0.026277810952013467"><ele>50.0</ele><time>2026-04-19T17:34:26.999Z</time></trkpt><trkpt lat="40.043639484025725" lon="0.02598937187903968"><ele>50.0</ele><time>2026-04-19T17:34:27.999Z</time></trkpt><trkpt lat="40.04345862241869" lon="0.025701475979453266"><ele>50.5</ele><time>2026-04-19T17:34:28.999Z</time></trkpt><trkpt lat="40.04327588505498" lon="0.025411716624700265"><ele>51.0</ele><time>2026-04-19T17:34:29.999Z</time></trkpt><trkpt lat="40.043095495792926" lon="0.02511819378085241"><ele>51.0</ele><time>2026-04-19T17:34:30.999Z</time></trkpt><trkpt lat="40.04291373045514" lon="0.024823467753942365"><ele>51.0</ele><time>2026-04-19T17:34:31.999Z</time></trkpt><trkpt lat="40.04273204279261" lon="0.02452880416146317"><ele>51.0</ele><time>2026-04-19T17:34:32.999Z</time></trkpt><trkpt lat="40.04254017340655" lon="0.024233316740868583"><ele>51.0</ele><time>2026-04-19T17:34:33.999Z</time></trkpt><trkpt lat="40.04235127246944" lon="0.023931119585848138"><ele>50.5</ele><time>2026-04-19T17:34:34.999Z</time></trkpt><trkpt lat="40.04215768134421" lon="0.02362108283843176"><ele>50.0</ele><time>2026-04-19T17:34:35.999Z</time></trkpt><trkpt lat="40.04196769337143" lon="0.02331253088478373"><ele>50.0</ele><time>2026-04-19T17:34:36.999Z</time></trkpt><trkpt lat="40.04177636525654" lon="0.023009924841548426"><ele>50.0</ele><time>2026-04-19T17:34:37.999Z</time></trkpt><trkpt lat="40.04159010474841" lon="0.02270427743260013"><ele>47.0</ele><time>2026-04-19T17:34:38.999Z</time></trkpt><trkpt lat="40.04140733233264" lon="0.022394334639849692"><ele>44.0</ele><time>2026-04-19T17:34:39.999Z</time></trkpt><trkpt lat="40.04122163425348" lon="0.022091315563762898"><ele>44.0</ele><time>2026-04-19T17:34:40.999Z</time></trkpt><trkpt lat="40.04103548329784" lon="0.02177774130326012"><ele>44.0</ele><time>2026-04-19T17:34:41.999Z</time></trkpt><trkpt lat="40.040851256186485" lon="0.021463951258283723"><ele>43.0</ele><time>2026-04-19T17:34:42.999Z</time></trkpt><trkpt lat="40.04066925269181" lon="0.021149200721199836"><ele>42.0</ele><time>2026-04-19T17:34:43.999Z</time></trkpt><trkpt lat="40.04048775134773" lon="0.02083493101977166"><ele>42.5</ele><time>2026-04-19T17:34:44.999Z</time></trkpt><trkpt lat="40.04030715889672" lon="0.02051559534254677"><ele>43.0</ele><time>2026-04-19T17:34:45.999Z</time></trkpt><trkpt lat="40.040124563842525" lon="0.020193413204160248"><ele>41.0</ele><time>2026-04-19T17:34:46.999Z</time></trkpt><trkpt lat="40.03994446290519" lon="0.019871179460724045"><ele>39.0</ele><time>2026-04-19T17:34:47.999Z</time></trkpt><trkpt lat="40.03976799351079" lon="0.01955027973454312"><ele>39.0</ele><time>2026-04-19T17:34:48.999Z</time></trkpt><trkpt lat="40.03959085192597" lon="0.019224058057129647"><ele>39.0</ele><time>2026-04-19T17:34:49.999Z</time></trkpt><trkpt lat="40.03941440213685" lon="0.018894216347053107"><ele>39.5</ele><time>2026-04-19T17:34:50.999Z</time></trkpt><trkpt lat="40.03924116275688" lon="0.01856960857575261"><ele>40.0</ele><time>2026-04-19T17:34:51.999Z</time></trkpt><trkpt lat="40.03907367574435" lon="0.018243385835749037"><ele>38.0</ele><time>2026-04-19T17:34:52.999Z</time></trkpt><trkpt lat="40.03890312480635" lon="0.017922252740742276"><ele>36.0</ele><time>2026-04-19T17:34:53.999Z</time></trkpt><trkpt lat="40.038733150009705" lon="0.017597455203527432"><ele>36.5</ele><time>2026-04-19T17:34:54.999Z</time></trkpt><trkpt lat="40.03856625980329" lon="0.017271343986422133"><ele>37.0</ele><time>2026-04-19T17:34:55.999Z</time></trkpt><trkpt lat="40.03839961529595" lon="0.016941159708035315"><ele>33.5</ele><time>2026-04-19T17:34:56.998Z</time></trkpt><trkpt lat="40.03823318249114" lon="0.01661644658027019"><ele>30.0</ele><time>2026-04-19T17:34:57.998Z</time></trkpt><trkpt lat="40.038066982529884" lon="0.016288234176311946"><ele>30.0</ele><time>2026-04-19T17:34:58.998Z</time></trkpt><trkpt lat="40.037902179965435" lon="0.01596441562831435"><ele>30.0</ele><time>2026-04-19T17:34:59.998Z</time></trkpt><trkpt lat="40.037743237346525" lon="0.015634840726726294"><ele>29.5</ele><time>2026-04-19T17:35:00.998Z</time></trkpt><trkpt lat="40.037587613636354" lon="0.015302260666710768"><ele>29.0</ele><time>2026-04-19T17:35:01.998Z</time></trkpt><trkpt lat="40.03742661899985" lon="0.014972041599160645"><ele>26.5</ele><time>2026-04-19T17:35:02.998Z</time></trkpt><trkpt lat="40.03726853619847" lon="0.014651761324476752"><ele>24.0</ele><time>2026-04-19T17:35:03.998Z</time></trkpt><trkpt lat="40.03710843122927" lon="0.014322371768542235"><ele>23.5</ele><time>2026-04-19T17:35:04.998Z</time></trkpt><trkpt lat="40.0369573820919" lon="0.013992664657013347"><ele>23.0</ele><time>2026-04-19T17:35:05.998Z</time></trkpt><trkpt lat="40.03680748419212" lon="0.013660313413761923"><ele>23.0</ele><time>2026-04-19T17:35:06.998Z</time></trkpt><trkpt lat="40.03665959393068" lon="0.01333043580331435"><ele>23.0</ele><time>2026-04-19T17:35:07.998Z</time></trkpt><trkpt lat="40.03651373869449" lon="0.013003718020606615"><ele>21.5</ele><time>2026-04-19T17:35:08.998Z</time></trkpt><trkpt lat="40.03637019668018" lon="0.012680896747191537"><ele>20.0</ele><time>2026-04-19T17:35:09.998Z</time></trkpt><trkpt lat="40.03622935742583" lon="0.012357965050239506"><ele>23.0</ele><time>2026-04-19T17:35:10.998Z</time></trkpt><trkpt lat="40.036092527140084" lon="0.012032209503769806"><ele>26.0</ele><time>2026-04-19T17:35:11.998Z</time></trkpt><trkpt lat="40.035954816703054" lon="0.011699790922490017"><ele>26.0</ele><time>2026-04-19T17:35:12.998Z</time></trkpt><trkpt lat="40.03581638508454" lon="0.01136178857425267"><ele>26.0</ele><time>2026-04-19T17:35:13.998Z</time></trkpt><trkpt lat="40.03567284051139" lon="0.011020626017201114"><ele>23.0</ele><time>2026-04-19T17:35:14.998Z</time></trkpt><trkpt lat="40.03553019944184" lon="0.010664123941628745"><ele>20.0</ele><time>2026-04-19T17:35:15.998Z</time></trkpt><trkpt lat="40.035386783502155" lon="0.010309974925716434"><ele>20.0</ele><time>2026-04-19T17:35:16.998Z</time></trkpt><trkpt lat="40.03524584127959" lon="0.009951046183129766"><ele>20.0</ele><time>2026-04-19T17:35:17.998Z</time></trkpt><trkpt lat="40.03510956509649" lon="0.009593100202711676"><ele>20.0</ele><time>2026-04-19T17:35:18.998Z</time></trkpt><trkpt lat="40.03497464390966" lon="0.009229822649501344"><ele>20.0</ele><time>2026-04-19T17:35:20Z</time></trkpt><trkpt lat="40.03484194879531" lon="0.008865041490132435"><ele>19.0</ele><time>2026-04-19T17:35:21Z</time></trkpt><trkpt lat="40.03471003029821" lon="0.008503101243167893"><ele>18.0</ele><time>2026-04-19T17:35:22Z</time></trkpt><trkpt lat="40.03458082217201" lon="0.00813826327751837"><ele>18.0</ele><time>2026-04-19T17:35:23Z</time></trkpt><trkpt lat="40.03445109035303" lon="0.007775793896618644"><ele>18.0</ele><time>2026-04-19T17:35:24Z</time></trkpt><trkpt lat="40.034330330445755" lon="0.007417081984004027"><ele>18.5</ele><time>2026-04-19T17:35:25Z</time></trkpt><trkpt lat="40.034210914446625" lon="0.00706094567549667"><ele>19.0</ele><time>2026-04-19T17:35:26Z</time></trkpt><trkpt lat="40.03409771649291" lon="0.006708633422548251"><ele>18.5</ele><time>2026-04-19T17:35:27Z</time></trkpt><trkpt lat="40.03398625531769" lon="0.006356337996735664"><ele>18.0</ele><time>2026-04-19T17:35:28Z</time></trkpt><trkpt lat="40.033874511043976" lon="0.006002446205473773"><ele>19.0</ele><time>2026-04-19T17:35:29Z</time></trkpt><trkpt lat="40.033765789796384" lon="0.005648050432566703"><ele>20.0</ele><time>2026-04-19T17:35:30Z</time></trkpt><trkpt lat="40.0336553176646" lon="0.005291912161783445"><ele>21.0</ele><time>2026-04-19T17:35:31Z</time></trkpt><trkpt lat="40.03354679763332" lon="0.004933727265437067"><ele>22.0</ele><time>2026-04-19T17:35:32Z</time></trkpt><trkpt lat="40.033443144030905" lon="0.004577432712030017"><ele>22.0</ele><time>2026-04-19T17:35:33Z</time></trkpt><trkpt lat="40.033340185250054" lon="0.004223719741095776"><ele>22.0</ele><time>2026-04-19T17:35:34Z</time></trkpt><trkpt lat="40.03323932277667" lon="0.0038748926238457455"><ele>23.5</ele><time>2026-04-19T17:35:35Z</time></trkpt><trkpt lat="40.03313975686547" lon="0.00352478608882336"><ele>25.0</ele><time>2026-04-19T17:35:36Z</time></trkpt><trkpt lat="40.03304593649858" lon="0.0031748822641165003"><ele>25.5</ele><time>2026-04-19T17:35:37Z</time></trkpt><trkpt lat="40.03295673145767" lon="0.002816550685290704"><ele>26.0</ele><time>2026-04-19T17:35:38Z</time></trkpt><trkpt lat="40.0328655588805" lon="0.0024601638222723383"><ele>27.0</ele><time>2026-04-19T17:35:39Z</time></trkpt><trkpt lat="40.03277543451425" lon="0.0021051586503140324"><ele>28.0</ele><time>2026-04-19T17:35:40Z</time></trkpt><trkpt lat="40.03268478918428" lon="0.0017445114692624221"><ele>29.5</ele><time>2026-04-19T17:35:41Z</time></trkpt><trkpt lat="40.03259833462908" lon="0.0013827468328930944"><ele>31.0</ele><time>2026-04-19T17:35:42Z</time></trkpt><trkpt lat="40.0325112609975" lon="0.0010222710964129073"><ele>30.5</ele><time>2026-04-19T17:35:43Z</time></trkpt><trkpt lat="40.032423338951325" lon="6.560776907611574E-4"><ele>30.0</ele><time>2026-04-19T17:35:44Z</time></trkpt><trkpt lat="40.03233076003888" lon="2.896968347283E-4"><ele>30.0</ele><time>2026-04-19T17:35:45Z</time></trkpt><trkpt lat="40.032236041640054" lon="-7.775745008158345E-5"><ele>30.0</ele><time>2026-04-19T17:35:46Z</time></trkpt><trkpt lat="40.03214330972561" lon="-4.4021605496885315E-4"><ele>30.0</ele><time>2026-04-19T17:35:47Z</time></trkpt><trkpt lat="40.032044903241754" lon="-8.008553965299381E-4"><ele>30.0</ele><time>2026-04-19T17:35:48Z</time></trkpt><trkpt lat="40.031948275701275" lon="-0.0011586601285332597"><ele>31.5</ele><time>2026-04-19T17:35:49Z</time></trkpt><trkpt lat="40.03184916961793" lon="-0.0015162322083761262"><ele>33.0</ele><time>2026-04-19T17:35:50Z</time></trkpt><trkpt lat="40.031751237217705" lon="-0.0018661001714871646"><ele>34.0</ele><time>2026-04-19T17:35:51Z</time></trkpt><trkpt lat="40.03165220485658" lon="-0.0022125041089498033"><ele>35.0</ele><time>2026-04-19T17:35:52Z</time></trkpt><trkpt lat="40.03154898428765" lon="-0.002563060552982369"><ele>35.0</ele><time>2026-04-19T17:35:53Z</time></trkpt><trkpt lat="40.03144979617264" lon="-0.002910225052395909"><ele>35.0</ele><time>2026-04-19T17:35:54Z</time></trkpt><trkpt lat="40.03135549586533" lon="-0.0032606496032827575"><ele>36.0</ele><time>2026-04-19T17:35:55Z</time></trkpt><trkpt lat="40.031261951456514" lon="-0.0036088398230828393"><ele>37.0</ele><time>2026-04-19T17:35:56Z</time></trkpt><trkpt lat="40.031166112561394" lon="-0.003958030895533201"><ele>38.0</ele><time>2026-04-19T17:35:57Z</time></trkpt><trkpt lat="40.03106498928639" lon="-0.004302871511389853"><ele>39.0</ele><time>2026-04-19T17:35:58Z</time></trkpt><trkpt lat="40.03096025767523" lon="-0.004642015704986756"><ele>39.0</ele><time>2026-04-19T17:35:59Z</time></trkpt><trkpt lat="40.03085464294567" lon="-0.004980502918948804"><ele>39.0</ele><time>2026-04-19T17:35:59.999Z</time></trkpt><trkpt lat="40.03074513012675" lon="-0.0053260961768152384"><ele>38.5</ele><time>2026-04-19T17:36:00.999Z</time></trkpt><trkpt lat="40.030635468974374" lon="-0.005673781895946416"><ele>38.0</ele><time>2026-04-19T17:36:01.999Z</time></trkpt><trkpt lat="40.030526180160116" lon="-0.0060256417200594626"><ele>38.0</ele><time>2026-04-19T17:36:02.999Z</time></trkpt><trkpt lat="40.03041647477837" lon="-0.006378132641401285"><ele>38.0</ele><time>2026-04-19T17:36:03.999Z</time></trkpt><trkpt lat="40.030308576572786" lon="-0.006731955032715538"><ele>39.5</ele><time>2026-04-19T17:36:04.999Z</time></trkpt><trkpt lat="40.030204552476405" lon="-0.007091000951215946"><ele>41.0</ele><time>2026-04-19T17:36:05.999Z</time></trkpt><trkpt lat="40.0300990750449" lon="-0.007443796279533517"><ele>42.0</ele><time>2026-04-19T17:36:06.999Z</time></trkpt><trkpt lat="40.029996075410104" lon="-0.007800617588361279"><ele>43.0</ele><time>2026-04-19T17:36:07.999Z</time></trkpt><trkpt lat="40.02989482756736" lon="-0.008156841335728308"><ele>40.5</ele><time>2026-04-19T17:36:08.999Z</time></trkpt><trkpt lat="40.02979846551125" lon="-0.008519029563099644"><ele>38.0</ele><time>2026-04-19T17:36:09.999Z</time></trkpt><trkpt lat="40.02971008968612" lon="-0.00888542919654701"><ele>37.5</ele><time>2026-04-19T17:36:10.999Z</time></trkpt><trkpt lat="40.02961993118769" lon="-0.009253023563039683"><ele>37.0</ele><time>2026-04-19T17:36:11.999Z</time></trkpt><trkpt lat="40.02953440406533" lon="-0.009629183188203994"><ele>37.0</ele><time>2026-04-19T17:36:12.999Z</time></trkpt><trkpt lat="40.02945677121446" lon="-0.00998848653207774"><ele>37.0</ele><time>2026-04-19T17:36:13.999Z</time></trkpt><trkpt lat="40.0293838893821" lon="-0.01033254130140106"><ele>37.0</ele><time>2026-04-19T17:36:14.999Z</time></trkpt><trkpt lat="40.02931577343404" lon="-0.010680400990714281"><ele>37.0</ele><time>2026-04-19T17:36:15.999Z</time></trkpt><trkpt lat="40.029256053626845" lon="-0.011033282055853109"><ele>37.5</ele><time>2026-04-19T17:36:16.999Z</time></trkpt><trkpt lat="40.02920386631146" lon="-0.011396636854990832"><ele>38.0</ele><time>2026-04-19T17:36:17.999Z</time></trkpt><trkpt lat="40.02915237593359" lon="-0.011773383518536197"><ele>35.5</ele><time>2026-04-19T17:36:18.999Z</time></trkpt><trkpt lat="40.029101043677386" lon="-0.012159638707607091"><ele>33.0</ele><time>2026-04-19T17:36:19.999Z</time></trkpt><trkpt lat="40.02905189353077" lon="-0.01255061832577377"><ele>33.0</ele><time>2026-04-19T17:36:20.999Z</time></trkpt><trkpt lat="40.02900842705101" lon="-0.012941246373471962"><ele>33.0</ele><time>2026-04-19T17:36:21.999Z</time></trkpt><trkpt lat="40.028971555949674" lon="-0.013328165270996414"><ele>33.5</ele><time>2026-04-19T17:36:22.999Z</time></trkpt><trkpt lat="40.028939411864165" lon="-0.013707879687703766"><ele>34.0</ele><time>2026-04-19T17:36:23.999Z</time></trkpt><trkpt lat="40.02891219271387" lon="-0.014084421733462395"><ele>32.5</ele><time>2026-04-19T17:36:24.999Z</time></trkpt><trkpt lat="40.028888574614655" lon="-0.014459577342364291"><ele>31.0</ele><time>2026-04-19T17:36:25.999Z</time></trkpt><trkpt lat="40.02887395804828" lon="-0.014824862512157736"><ele>31.5</ele><time>2026-04-19T17:36:26.999Z</time></trkpt><trkpt lat="40.028855688259256" lon="-0.015191793243387267"><ele>32.0</ele><time>2026-04-19T17:36:27.999Z</time></trkpt><trkpt lat="40.02884008131649" lon="-0.01556096602005041"><ele>33.0</ele><time>2026-04-19T17:36:28.999Z</time></trkpt><trkpt lat="40.02883352529815" lon="-0.015932507852898417"><ele>34.0</ele><time>2026-04-19T17:36:29.999Z</time></trkpt><trkpt lat="40.028829201683884" lon="-0.016300812174212302"><ele>33.5</ele><time>2026-04-19T17:36:30.999Z</time></trkpt><trkpt lat="40.02882741882201" lon="-0.01666845834567142"><ele>33.0</ele><time>2026-04-19T17:36:31.999Z</time></trkpt><trkpt lat="40.0288271183612" lon="-0.017035050680523783"><ele>33.0</ele><time>2026-04-19T17:36:32.999Z</time></trkpt><trkpt lat="40.02882941445291" lon="-0.01738968854824338"><ele>33.0</ele><time>2026-04-19T17:36:33.999Z</time></trkpt><trkpt lat="40.0288301098762" lon="-0.01774002554753291"><ele>33.0</ele><time>2026-04-19T17:36:34.999Z</time></trkpt><trkpt lat="40.02883073152451" lon="-0.018088885200569504"><ele>33.0</ele><time>2026-04-19T17:36:35.999Z</time></trkpt><trkpt lat="40.02882930820435" lon="-0.018433658205325144"><ele>33.0</ele><time>2026-04-19T17:36:36.999Z</time></trkpt><trkpt lat="40.028825374289056" lon="-0.018779303177481978"><ele>33.0</ele><time>2026-04-19T17:36:37.999Z</time></trkpt><trkpt lat="40.028823729682685" lon="-0.019129807986301525"><ele>33.0</ele><time>2026-04-19T17:36:38.999Z</time></trkpt><trkpt lat="40.028820968306825" lon="-0.019490071923485758"><ele>33.0</ele><time>2026-04-19T17:36:39.999Z</time></trkpt><trkpt lat="40.02881415839521" lon="-0.019856304464122777"><ele>33.5</ele><time>2026-04-19T17:36:40.999Z</time></trkpt><trkpt lat="40.02880331514931" lon="-0.020229213319226617"><ele>34.0</ele><time>2026-04-19T17:36:41.999Z</time></trkpt><trkpt lat="40.0287893824773" lon="-0.020606842411364384"><ele>34.5</ele><time>2026-04-19T17:36:42.999Z</time></trkpt><trkpt lat="40.028767409781906" lon="-0.020981705914164442"><ele>35.0</ele><time>2026-04-19T17:36:43.999Z</time></trkpt><trkpt lat="40.028740086149654" lon="-0.02135967698158046"><ele>35.5</ele><time>2026-04-19T17:36:44.999Z</time></trkpt><trkpt lat="40.02870929651956" lon="-0.021730459943598242"><ele>36.0</ele><time>2026-04-19T17:36:45.999Z</time></trkpt><trkpt lat="40.02867665161492" lon="-0.022101046665271625"><ele>36.0</ele><time>2026-04-19T17:36:46.999Z</time></trkpt><trkpt lat="40.028641502681275" lon="-0.022468939535772472"><ele>36.0</ele><time>2026-04-19T17:36:47.999Z</time></trkpt><trkpt lat="40.02859625969132" lon="-0.022837989765808475"><ele>36.5</ele><time>2026-04-19T17:36:48.999Z</time></trkpt><trkpt lat="40.028539287499946" lon="-0.023204234725764886"><ele>37.0</ele><time>2026-04-19T17:36:49.999Z</time></trkpt><trkpt lat="40.028483232988606" lon="-0.023571056547001815"><ele>38.0</ele><time>2026-04-19T17:36:50.999Z</time></trkpt><trkpt lat="40.02841930309881" lon="-0.023933723436125515"><ele>39.0</ele><time>2026-04-19T17:36:51.999Z</time></trkpt><trkpt lat="40.02835669290676" lon="-0.024294522829865436"><ele>39.0</ele><time>2026-04-19T17:36:52.999Z</time></trkpt><trkpt lat="40.02828838132436" lon="-0.024652790716121614"><ele>39.0</ele><time>2026-04-19T17:36:53.999Z</time></trkpt><trkpt lat="40.028215035592666" lon="-0.02500328764433932"><ele>40.5</ele><time>2026-04-19T17:36:54.999Z</time></trkpt><trkpt lat="40.02813339211546" lon="-0.025351280406807102"><ele>42.0</ele><time>2026-04-19T17:36:55.999Z</time></trkpt><trkpt lat="40.02804940659032" lon="-0.025697307358487388"><ele>42.5</ele><time>2026-04-19T17:36:56.999Z</time></trkpt><trkpt lat="40.02796499988045" lon="-0.02603634238066633"><ele>43.0</ele><time>2026-04-19T17:36:57.999Z</time></trkpt><trkpt lat="40.027872216808376" lon="-0.026373781715015546"><ele>43.0</ele><time>2026-04-19T17:36:58.999Z</time></trkpt><trkpt lat="40.02777962857007" lon="-0.026706901681533536"><ele>43.0</ele><time>2026-04-19T17:36:59.999Z</time></trkpt><trkpt lat="40.0276772785109" lon="-0.02705579124630865"><ele>43.0</ele><time>2026-04-19T17:37:00.999Z</time></trkpt><trkpt lat="40.02756935218882" lon="-0.027405523257175"><ele>43.0</ele><time>2026-04-19T17:37:01.999Z</time></trkpt><trkpt lat="40.02745439939174" lon="-0.027756838347849914"><ele>41.5</ele><time>2026-04-19T17:37:02.998Z</time></trkpt><trkpt lat="40.027328761750525" lon="-0.02812275998289852"><ele>40.0</ele><time>2026-04-19T17:37:03.998Z</time></trkpt><trkpt lat="40.02719400934652" lon="-0.028491332904386747"><ele>40.0</ele><time>2026-04-19T17:37:04.998Z</time></trkpt><trkpt lat="40.0270564242108" lon="-0.02885657474778607"><ele>40.0</ele><time>2026-04-19T17:37:05.998Z</time></trkpt><trkpt lat="40.026912324641046" lon="-0.029202554382578745"><ele>39.5</ele><time>2026-04-19T17:37:06.998Z</time></trkpt><trkpt lat="40.02676899038461" lon="-0.02954687550389624"><ele>39.0</ele><time>2026-04-19T17:37:07.998Z</time></trkpt><trkpt lat="40.02662336204813" lon="-0.029879750286950783"><ele>38.5</ele><time>2026-04-19T17:37:08.998Z</time></trkpt><trkpt lat="40.02647217793353" lon="-0.030207162904854635"><ele>38.0</ele><time>2026-04-19T17:37:09.998Z</time></trkpt><trkpt lat="40.02631743161539" lon="-0.030535761055328178"><ele>39.0</ele><time>2026-04-19T17:37:10.998Z</time></trkpt><trkpt lat="40.02615675545952" lon="-0.03085903439900199"><ele>40.0</ele><time>2026-04-19T17:37:11.998Z</time></trkpt><trkpt lat="40.02599727223149" lon="-0.031187263150664054"><ele>40.0</ele><time>2026-04-19T17:37:12.998Z</time></trkpt><trkpt lat="40.025828973900545" lon="-0.03150750445217937"><ele>40.0</ele><time>2026-04-19T17:37:13.998Z</time></trkpt><trkpt lat="40.02565711859556" lon="-0.03182214137770861"><ele>40.5</ele><time>2026-04-19T17:37:14.998Z</time></trkpt><trkpt lat="40.02548254476612" lon="-0.032132540635460276"><ele>41.0</ele><time>2026-04-19T17:37:15.998Z</time></trkpt><trkpt lat="40.02529886355468" lon="-0.03243359477541697"><ele>41.0</ele><time>2026-04-19T17:37:16.998Z</time></trkpt><trkpt lat="40.02510735671551" lon="-0.03272663403367574"><ele>41.0</ele><time>2026-04-19T17:37:17.998Z</time></trkpt><trkpt lat="40.024916441079526" lon="-0.03301487355053002"><ele>43.0</ele><time>2026-04-19T17:37:18.998Z</time></trkpt><trkpt lat="40.02472809458356" lon="-0.03330696449576378"><ele>45.0</ele><time>2026-04-19T17:37:19.998Z</time></trkpt><trkpt lat="40.02453945871575" lon="-0.0335931070049938"><ele>45.0</ele><time>2026-04-19T17:37:20.998Z</time></trkpt><trkpt lat="40.02434111806101" lon="-0.033862243988048414"><ele>45.0</ele><time>2026-04-19T17:37:21.998Z</time></trkpt><trkpt lat="40.02414407235892" lon="-0.034131437721027884"><ele>43.5</ele><time>2026-04-19T17:37:22.998Z</time></trkpt><trkpt lat="40.023942859284666" lon="-0.03439559986670949"><ele>42.0</ele><time>2026-04-19T17:37:23.998Z</time></trkpt><trkpt lat="40.023736126182236" lon="-0.03465374139089171"><ele>42.0</ele><time>2026-04-19T17:37:24.998Z</time></trkpt><trkpt lat="40.02352582641544" lon="-0.03490968849326784"><ele>42.0</ele><time>2026-04-19T17:37:26Z</time></trkpt><trkpt lat="40.023316339309" lon="-0.035164848049487905"><ele>42.5</ele><time>2026-04-19T17:37:27Z</time></trkpt><trkpt lat="40.02309947242446" lon="-0.035417341590938095"><ele>43.0</ele><time>2026-04-19T17:37:28Z</time></trkpt><trkpt lat="40.02287887288406" lon="-0.03566279275308539"><ele>43.5</ele><time>2026-04-19T17:37:29Z</time></trkpt><trkpt lat="40.022653569790194" lon="-0.035902062093288015"><ele>44.0</ele><time>2026-04-19T17:37:30Z</time></trkpt><trkpt lat="40.022428251024074" lon="-0.0361376474387163"><ele>41.5</ele><time>2026-04-19T17:37:31Z</time></trkpt><trkpt lat="40.02219623246509" lon="-0.03637105619766194"><ele>39.0</ele><time>2026-04-19T17:37:32Z</time></trkpt><trkpt lat="40.021957659289114" lon="-0.036598636573524405"><ele>38.5</ele><time>2026-04-19T17:37:33Z</time></trkpt><trkpt lat="40.02171797360655" lon="-0.03682604965069731"><ele>38.0</ele><time>2026-04-19T17:37:34Z</time></trkpt><trkpt lat="40.02147626231" lon="-0.03705509312065199"><ele>38.0</ele><time>2026-04-19T17:37:35Z</time></trkpt><trkpt lat="40.02122809455773" lon="-0.03727550305465616"><ele>38.0</ele><time>2026-04-19T17:37:36Z</time></trkpt><trkpt lat="40.02097749432498" lon="-0.037488373732088395"><ele>38.5</ele><time>2026-04-19T17:37:37Z</time></trkpt><trkpt lat="40.020730739618685" lon="-0.03770285164188729"><ele>39.0</ele><time>2026-04-19T17:37:38Z</time></trkpt><trkpt lat="40.02048607187329" lon="-0.037917799410921445"><ele>39.0</ele><time>2026-04-19T17:37:39Z</time></trkpt><trkpt lat="40.02024172367034" lon="-0.0381377832208479"><ele>39.0</ele><time>2026-04-19T17:37:40Z</time></trkpt><trkpt lat="40.019997764186385" lon="-0.03835871288803352"><ele>38.5</ele><time>2026-04-19T17:37:41Z</time></trkpt><trkpt lat="40.01975785493168" lon="-0.0385786032198274"><ele>38.0</ele><time>2026-04-19T17:37:42Z</time></trkpt><trkpt lat="40.01952025465323" lon="-0.03879441231028411"><ele>38.0</ele><time>2026-04-19T17:37:43Z</time></trkpt><trkpt lat="40.01928325939534" lon="-0.039013129804926036"><ele>38.0</ele><time>2026-04-19T17:37:44Z</time></trkpt><trkpt lat="40.01905180517033" lon="-0.03923679624093292"><ele>39.0</ele><time>2026-04-19T17:37:45Z</time></trkpt><trkpt lat="40.01882532588985" lon="-0.03945906522928326"><ele>40.0</ele><time>2026-04-19T17:37:46Z</time></trkpt><trkpt lat="40.01860217836367" lon="-0.03968888664203905"><ele>40.0</ele><time>2026-04-19T17:37:47Z</time></trkpt><trkpt lat="40.01837474806895" lon="-0.03992889184408025"><ele>40.0</ele><time>2026-04-19T17:37:48Z</time></trkpt><trkpt lat="40.018145376951104" lon="-0.04017984272268067"><ele>41.5</ele><time>2026-04-19T17:37:49Z</time></trkpt><trkpt lat="40.017916506319494" lon="-0.0404328475160299"><ele>43.0</ele><time>2026-04-19T17:37:50Z</time></trkpt><trkpt lat="40.01769254829189" lon="-0.040694912957581486"><ele>42.5</ele><time>2026-04-19T17:37:51Z</time></trkpt><trkpt lat="40.01746755260447" lon="-0.04095305188779539"><ele>42.0</ele><time>2026-04-19T17:37:52Z</time></trkpt><trkpt lat="40.01724498594437" lon="-0.04121297609017092"><ele>42.0</ele><time>2026-04-19T17:37:53Z</time></trkpt><trkpt lat="40.01702597503119" lon="-0.04147804661267555"><ele>42.0</ele><time>2026-04-19T17:37:54Z</time></trkpt><trkpt lat="40.016812836333145" lon="-0.04174594708004858"><ele>42.5</ele><time>2026-04-19T17:37:55Z</time></trkpt><trkpt lat="40.01660343989506" lon="-0.042017688437736525"><ele>43.0</ele><time>2026-04-19T17:37:56Z</time></trkpt><trkpt lat="40.016396748172845" lon="-0.04228905750094418"><ele>44.0</ele><time>2026-04-19T17:37:57Z</time></trkpt><trkpt lat="40.01619257057001" lon="-0.04256376242347851"><ele>45.0</ele><time>2026-04-19T17:37:58Z</time></trkpt><trkpt lat="40.015995593467245" lon="-0.042844254659837704"><ele>44.5</ele><time>2026-04-19T17:37:59Z</time></trkpt><trkpt lat="40.0158013114104" lon="-0.04312489111813141"><ele>44.0</ele><time>2026-04-19T17:38:00Z</time></trkpt><trkpt lat="40.015612227948736" lon="-0.043405981532028154"><ele>44.0</ele><time>2026-04-19T17:38:01Z</time></trkpt><trkpt lat="40.0154247903767" lon="-0.043690792579847405"><ele>44.0</ele><time>2026-04-19T17:38:02Z</time></trkpt><trkpt lat="40.01523913575205" lon="-0.04396997046891489"><ele>45.0</ele><time>2026-04-19T17:38:03Z</time></trkpt><trkpt lat="40.01505775203915" lon="-0.044253566046911615"><ele>46.0</ele><time>2026-04-19T17:38:04Z</time></trkpt><trkpt lat="40.014885436819426" lon="-0.04454087271803662"><ele>47.0</ele><time>2026-04-19T17:38:05Z</time></trkpt><trkpt lat="40.01471680137251" lon="-0.04483277380893497"><ele>48.0</ele><time>2026-04-19T17:38:05.999Z</time></trkpt><trkpt lat="40.014543963175576" lon="-0.04512858769118486"><ele>48.5</ele><time>2026-04-19T17:38:06.999Z</time></trkpt><trkpt lat="40.01436753340682" lon="-0.0454259650580199"><ele>49.0</ele><time>2026-04-19T17:38:07.999Z</time></trkpt><trkpt lat="40.01418944304251" lon="-0.04572122831448678"><ele>49.0</ele><time>2026-04-19T17:38:08.999Z</time></trkpt><trkpt lat="40.01401464758644" lon="-0.04601659441135466"><ele>49.0</ele><time>2026-04-19T17:38:09.999Z</time></trkpt><trkpt lat="40.01384084126086" lon="-0.0463131491345284"><ele>49.0</ele><time>2026-04-19T17:38:10.999Z</time></trkpt><trkpt lat="40.013669223897494" lon="-0.04661344611142696"><ele>49.0</ele><time>2026-04-19T17:38:11.999Z</time></trkpt><trkpt lat="40.0134970440164" lon="-0.04691544620630695"><ele>48.5</ele><time>2026-04-19T17:38:12.999Z</time></trkpt><trkpt lat="40.013325063542574" lon="-0.047211823750705754"><ele>48.0</ele><time>2026-04-19T17:38:13.999Z</time></trkpt><trkpt lat="40.01314822871311" lon="-0.04750404620807299"><ele>48.0</ele><time>2026-04-19T17:38:14.999Z</time></trkpt><trkpt lat="40.01296846503281" lon="-0.04779412782404302"><ele>48.0</ele><time>2026-04-19T17:38:15.999Z</time></trkpt><trkpt lat="40.0127863845002" lon="-0.048096262146738136"><ele>49.0</ele><time>2026-04-19T17:38:16.999Z</time></trkpt><trkpt lat="40.012596752193694" lon="-0.048394251045885676"><ele>50.0</ele><time>2026-04-19T17:38:17.999Z</time></trkpt><trkpt lat="40.01240328793025" lon="-0.048688797566818674"><ele>50.0</ele><time>2026-04-19T17:38:18.999Z</time></trkpt><trkpt lat="40.0121905653845" lon="-0.04896239875531438"><ele>50.0</ele><time>2026-04-19T17:38:19.999Z</time></trkpt><trkpt lat="40.01196297064856" lon="-0.04920654579080353"><ele>51.0</ele><time>2026-04-19T17:38:20.999Z</time></trkpt><trkpt lat="40.01174526481378" lon="-0.04946505380442957"><ele>52.0</ele><time>2026-04-19T17:38:21.999Z</time></trkpt><trkpt lat="40.01152615941294" lon="-0.04971811179523797"><ele>51.5</ele><time>2026-04-19T17:38:22.999Z</time></trkpt><trkpt lat="40.01129808624546" lon="-0.049965726872830685"><ele>51.0</ele><time>2026-04-19T17:38:23.999Z</time></trkpt><trkpt lat="40.011064672491415" lon="-0.05020590875088146"><ele>51.0</ele><time>2026-04-19T17:38:24.999Z</time></trkpt><trkpt lat="40.01082589524126" lon="-0.05043659860739629"><ele>51.0</ele><time>2026-04-19T17:38:25.999Z</time></trkpt><trkpt lat="40.010582516635424" lon="-0.0506647380719574"><ele>52.5</ele><time>2026-04-19T17:38:26.999Z</time></trkpt><trkpt lat="40.01033319571673" lon="-0.05088669577899721"><ele>54.0</ele><time>2026-04-19T17:38:27.999Z</time></trkpt><trkpt lat="40.01007510246075" lon="-0.051104740076046935"><ele>53.0</ele><time>2026-04-19T17:38:28.999Z</time></trkpt><trkpt lat="40.00981245344995" lon="-0.05131643658804815"><ele>52.0</ele><time>2026-04-19T17:38:29.999Z</time></trkpt><trkpt lat="40.0095485557694" lon="-0.051532524057917695"><ele>52.0</ele><time>2026-04-19T17:38:30.999Z</time></trkpt><trkpt lat="40.00927206669579" lon="-0.051732371128684326"><ele>52.0</ele><time>2026-04-19T17:38:31.999Z</time></trkpt><trkpt lat="40.00899099661782" lon="-0.05192510338653848"><ele>52.0</ele><time>2026-04-19T17:38:32.999Z</time></trkpt><trkpt lat="40.00872122953907" lon="-0.05210781069194323"><ele>52.0</ele><time>2026-04-19T17:38:33.999Z</time></trkpt><trkpt lat="40.008451627167005" lon="-0.05229223572326709"><ele>52.0</ele><time>2026-04-19T17:38:34.999Z</time></trkpt><trkpt lat="40.00819113432797" lon="-0.052481804033616956"><ele>52.0</ele><time>2026-04-19T17:38:35.999Z</time></trkpt><trkpt lat="40.00794438990171" lon="-0.05268824200300709"><ele>52.0</ele><time>2026-04-19T17:38:36.999Z</time></trkpt><trkpt lat="40.00769692509952" lon="-0.052882216318275804"><ele>52.0</ele><time>2026-04-19T17:38:37.999Z</time></trkpt><trkpt lat="40.00752150930395" lon="-0.05320515900108926"><ele>52.5</ele><time>2026-04-19T17:38:38.999Z</time></trkpt><trkpt lat="40.007322010697216" lon="-0.053486063691557235"><ele>53.0</ele><time>2026-04-19T17:38:39.999Z</time></trkpt><trkpt lat="40.007120483362165" lon="-0.053761835867068564"><ele>53.0</ele><time>2026-04-19T17:38:40.999Z</time></trkpt><trkpt lat="40.006927686054475" lon="-0.054049960412219586"><ele>53.0</ele><time>2026-04-19T17:38:41.999Z</time></trkpt><trkpt lat="40.00673903364305" lon="-0.05434500720065436"><ele>52.5</ele><time>2026-04-19T17:38:42.999Z</time></trkpt><trkpt lat="40.006555430121665" lon="-0.05464958507878215"><ele>52.0</ele><time>2026-04-19T17:38:43.999Z</time></trkpt><trkpt lat="40.00638198933079" lon="-0.054959963522962896"><ele>54.5</ele><time>2026-04-19T17:38:44.999Z</time></trkpt><trkpt lat="40.00621408640203" lon="-0.05528189761719047"><ele>57.0</ele><time>2026-04-19T17:38:45.999Z</time></trkpt><trkpt lat="40.00605776643633" lon="-0.0556104499132278"><ele>57.0</ele><time>2026-04-19T17:38:46.999Z</time></trkpt><trkpt lat="40.00591417789222" lon="-0.05595403041048288"><ele>57.0</ele><time>2026-04-19T17:38:47.999Z</time></trkpt><trkpt lat="40.00578485308757" lon="-0.05631004359956621"><ele>56.0</ele><time>2026-04-19T17:38:48.999Z</time></trkpt><trkpt lat="40.00566635724999" lon="-0.056678312092318904"><ele>55.0</ele><time>2026-04-19T17:38:49.999Z</time></trkpt><trkpt lat="40.005560639994414" lon="-0.057050115343290055"><ele>55.0</ele><time>2026-04-19T17:38:50.999Z</time></trkpt><trkpt lat="40.0054672899346" lon="-0.05743063649619342"><ele>55.0</ele><time>2026-04-19T17:38:51.999Z</time></trkpt><trkpt lat="40.00538329789301" lon="-0.05781854501633713"><ele>55.5</ele><time>2026-04-19T17:38:52.999Z</time></trkpt><trkpt lat="40.00530750116971" lon="-0.05821173191351714"><ele>56.0</ele><time>2026-04-19T17:38:53.999Z</time></trkpt><trkpt lat="40.00524355330432" lon="-0.05860915971677976"><ele>57.0</ele><time>2026-04-19T17:38:54.999Z</time></trkpt><trkpt lat="40.00518745256348" lon="-0.05900876351698894"><ele>58.0</ele><time>2026-04-19T17:38:55.999Z</time></trkpt><trkpt lat="40.00512799695545" lon="-0.05940345444367424"><ele>59.0</ele><time>2026-04-19T17:38:56.999Z</time></trkpt><trkpt lat="40.00507417716542" lon="-0.059792786446624335"><ele>60.0</ele><time>2026-04-19T17:38:57.999Z</time></trkpt><trkpt lat="40.00502148260699" lon="-0.060174332065401584"><ele>60.5</ele><time>2026-04-19T17:38:58.999Z</time></trkpt><trkpt lat="40.0049635639061" lon="-0.060558200685054464"><ele>61.0</ele><time>2026-04-19T17:38:59.999Z</time></trkpt><trkpt lat="40.00489613048807" lon="-0.06092816402350432"><ele>61.0</ele><time>2026-04-19T17:39:00.999Z</time></trkpt><trkpt lat="40.00482113594119" lon="-0.06129112693653651"><ele>61.0</ele><time>2026-04-19T17:39:01.999Z</time></trkpt><trkpt lat="40.00474146481676" lon="-0.06165218657726506"><ele>62.0</ele><time>2026-04-19T17:39:02.999Z</time></trkpt><trkpt lat="40.004656406303496" lon="-0.06202062255581178"><ele>63.0</ele><time>2026-04-19T17:39:03.999Z</time></trkpt><trkpt lat="40.00455410389162" lon="-0.06238252956276842"><ele>65.0</ele><time>2026-04-19T17:39:04.999Z</time></trkpt><trkpt lat="40.004442818734034" lon="-0.06273753531931638"><ele>67.0</ele><time>2026-04-19T17:39:05.999Z</time></trkpt><trkpt lat="40.004319062569735" lon="-0.06309353287451275"><ele>67.5</ele><time>2026-04-19T17:39:06.999Z</time></trkpt><trkpt lat="40.00419044653613" lon="-0.06344913666890399"><ele>68.0</ele><time>2026-04-19T17:39:07.999Z</time></trkpt><trkpt lat="40.00405264749207" lon="-0.0638067298350836"><ele>68.5</ele><time>2026-04-19T17:39:08.999Z</time></trkpt><trkpt lat="40.003901696766896" lon="-0.06415494641492724"><ele>69.0</ele><time>2026-04-19T17:39:09.999Z</time></trkpt><trkpt lat="40.003737456373045" lon="-0.06449616622781379"><ele>69.0</ele><time>2026-04-19T17:39:10.998Z</time></trkpt><trkpt lat="40.00356739066496" lon="-0.06483466794870457"><ele>69.0</ele><time>2026-04-19T17:39:11.998Z</time></trkpt><trkpt lat="40.003384050708576" lon="-0.06516224496947226"><ele>69.0</ele><time>2026-04-19T17:39:12.998Z</time></trkpt><trkpt lat="40.00318979831299" lon="-0.06548099281064483"><ele>69.0</ele><time>2026-04-19T17:39:13.998Z</time></trkpt><trkpt lat="40.00299211404679" lon="-0.06579519291348947"><ele>70.0</ele><time>2026-04-19T17:39:14.998Z</time></trkpt><trkpt lat="40.002788878400175" lon="-0.0660985725639422"><ele>71.0</ele><time>2026-04-19T17:39:15.998Z</time></trkpt><trkpt lat="40.00258366712704" lon="-0.06639749081852607"><ele>70.0</ele><time>2026-04-19T17:39:16.998Z</time></trkpt><trkpt lat="40.00236977409263" lon="-0.06668101216790466"><ele>69.0</ele><time>2026-04-19T17:39:17.998Z</time></trkpt><trkpt lat="40.002147102450294" lon="-0.06696294280332692"><ele>69.0</ele><time>2026-04-19T17:39:18.998Z</time></trkpt><trkpt lat="40.00192385779109" lon="-0.0672287389924889"><ele>69.0</ele><time>2026-04-19T17:39:19.998Z</time></trkpt><trkpt lat="40.0017043768134" lon="-0.06750137810926404"><ele>67.5</ele><time>2026-04-19T17:39:20.998Z</time></trkpt><trkpt lat="40.00148377617358" lon="-0.06776444342548453"><ele>66.0</ele><time>2026-04-19T17:39:21.998Z</time></trkpt><trkpt lat="40.00126665134757" lon="-0.06803296641735478"><ele>66.0</ele><time>2026-04-19T17:39:22.998Z</time></trkpt><trkpt lat="40.001052978920484" lon="-0.0682963314145618"><ele>66.0</ele><time>2026-04-19T17:39:23.998Z</time></trkpt><trkpt lat="40.00085099337253" lon="-0.0685630468273597"><ele>65.5</ele><time>2026-04-19T17:39:24.998Z</time></trkpt><trkpt lat="40.00064579742038" lon="-0.06882418315189968"><ele>65.0</ele><time>2026-04-19T17:39:25.998Z</time></trkpt><trkpt lat="40.000444933569476" lon="-0.06909745904969249"><ele>66.5</ele><time>2026-04-19T17:39:26.998Z</time></trkpt><trkpt lat="40.0002448215228" lon="-0.06937760718903435"><ele>68.0</ele><time>2026-04-19T17:39:27.998Z</time></trkpt><trkpt lat="40.000048175553104" lon="-0.06965915179080628"><ele>70.0</ele><time>2026-04-19T17:39:28.998Z</time></trkpt><trkpt lat="39.999857603964074" lon="-0.06994385142558611"><ele>72.0</ele><time>2026-04-19T17:39:29.998Z</time></trkpt><trkpt lat="39.99967638044417" lon="-0.07023882419045531"><ele>72.0</ele><time>2026-04-19T17:39:30.998Z</time></trkpt><trkpt lat="39.99950344815831" lon="-0.07054125135261242"><ele>72.0</ele><time>2026-04-19T17:39:32Z</time></trkpt><trkpt lat="39.999333996634284" lon="-0.07084837769381436"><ele>72.5</ele><time>2026-04-19T17:39:33Z</time></trkpt><trkpt lat="39.99916862687893" lon="-0.07115549952852952"><ele>73.0</ele><time>2026-04-19T17:39:34Z</time></trkpt><trkpt lat="39.999008509270986" lon="-0.07147192490793329"><ele>73.5</ele><time>2026-04-19T17:39:35Z</time></trkpt><trkpt lat="39.99885909002069" lon="-0.0717887693416235"><ele>74.0</ele><time>2026-04-19T17:39:36Z</time></trkpt><trkpt lat="39.998712664827906" lon="-0.0721133876351466"><ele>74.0</ele><time>2026-04-19T17:39:37Z</time></trkpt><trkpt lat="39.99856529077146" lon="-0.07244309023768816"><ele>74.0</ele><time>2026-04-19T17:39:38Z</time></trkpt><trkpt lat="39.998427894092906" lon="-0.07277145622579047"><ele>74.0</ele><time>2026-04-19T17:39:39Z</time></trkpt><trkpt lat="39.99829776082212" lon="-0.07310831837002796"><ele>74.0</ele><time>2026-04-19T17:39:40Z</time></trkpt><trkpt lat="39.99816808609718" lon="-0.07345566968753246"><ele>75.5</ele><time>2026-04-19T17:39:41Z</time></trkpt><trkpt lat="39.99803787599819" lon="-0.0738108830674916"><ele>77.0</ele><time>2026-04-19T17:39:42Z</time></trkpt><trkpt lat="39.997906819529916" lon="-0.07416501785747825"><ele>78.0</ele><time>2026-04-19T17:39:43Z</time></trkpt><trkpt lat="39.99777722543158" lon="-0.07452559249138271"><ele>79.0</ele><time>2026-04-19T17:39:44Z</time></trkpt><trkpt lat="39.99764895344475" lon="-0.07488478150167406"><ele>78.0</ele><time>2026-04-19T17:39:45Z</time></trkpt><trkpt lat="39.99752092028745" lon="-0.07524434078054146"><ele>77.0</ele><time>2026-04-19T17:39:46Z</time></trkpt><trkpt lat="39.99738948304468" lon="-0.07559867762066201"><ele>77.5</ele><time>2026-04-19T17:39:47Z</time></trkpt><trkpt lat="39.99725747707113" lon="-0.07595381625844923"><ele>78.0</ele><time>2026-04-19T17:39:48Z</time></trkpt><trkpt lat="39.99712160452605" lon="-0.07630547858338257"><ele>77.5</ele><time>2026-04-19T17:39:49Z</time></trkpt><trkpt lat="39.99698009960174" lon="-0.07665119069490417"><ele>77.0</ele><time>2026-04-19T17:39:50Z</time></trkpt><trkpt lat="39.99683312075904" lon="-0.07699143904106959"><ele>77.0</ele><time>2026-04-19T17:39:51Z</time></trkpt><trkpt lat="39.99668288495435" lon="-0.07733447439588406"><ele>77.0</ele><time>2026-04-19T17:39:52Z</time></trkpt><trkpt lat="39.996525986070466" lon="-0.07766474489572435"><ele>76.5</ele><time>2026-04-19T17:39:53Z</time></trkpt><trkpt lat="39.99636645828184" lon="-0.07799358634974726"><ele>76.0</ele><time>2026-04-19T17:39:54Z</time></trkpt><trkpt lat="39.99619582647714" lon="-0.07831729553136814"><ele>76.0</ele><time>2026-04-19T17:39:55Z</time></trkpt><trkpt lat="39.99601976411789" lon="-0.07863559019238783"><ele>76.0</ele><time>2026-04-19T17:39:56Z</time></trkpt><trkpt lat="39.99583514612651" lon="-0.0789514342275189"><ele>76.0</ele><time>2026-04-19T17:39:57Z</time></trkpt><trkpt lat="39.99564625669411" lon="-0.07925832093875879"><ele>76.0</ele><time>2026-04-19T17:39:58Z</time></trkpt><trkpt lat="39.995454865463664" lon="-0.0795612003580746"><ele>76.0</ele><time>2026-04-19T17:39:59Z</time></trkpt><trkpt lat="39.9952540202493" lon="-0.07986527111527815"><ele>76.0</ele><time>2026-04-19T17:40:00Z</time></trkpt><trkpt lat="39.99504993799867" lon="-0.08016149274826635"><ele>74.0</ele><time>2026-04-19T17:40:01Z</time></trkpt><trkpt lat="39.99483761006632" lon="-0.08045200771810461"><ele>72.0</ele><time>2026-04-19T17:40:02Z</time></trkpt><trkpt lat="39.9946154853732" lon="-0.08073512152505688"><ele>72.0</ele><time>2026-04-19T17:40:03Z</time></trkpt><trkpt lat="39.99439171973737" lon="-0.08100357820008734"><ele>72.0</ele><time>2026-04-19T17:40:04Z</time></trkpt><trkpt lat="39.994169532593205" lon="-0.08126642938390125"><ele>71.5</ele><time>2026-04-19T17:40:05Z</time></trkpt><trkpt lat="39.99394910829958" lon="-0.08152183018208306"><ele>71.0</ele><time>2026-04-19T17:40:06Z</time></trkpt><trkpt lat="39.99373005518151" lon="-0.08177242044672879"><ele>70.0</ele><time>2026-04-19T17:40:07Z</time></trkpt><trkpt lat="39.993512180957694" lon="-0.08202367193495627"><ele>69.0</ele><time>2026-04-19T17:40:08Z</time></trkpt><trkpt lat="39.99329342787113" lon="-0.08227162154865578"><ele>71.5</ele><time>2026-04-19T17:40:09Z</time></trkpt><trkpt lat="39.99307737344436" lon="-0.08252059246258138"><ele>74.0</ele><time>2026-04-19T17:40:10Z</time></trkpt><trkpt lat="39.99286534843078" lon="-0.08278046611676336"><ele>74.0</ele><time>2026-04-19T17:40:11Z</time></trkpt><trkpt lat="39.99265655591144" lon="-0.08304785556171404"><ele>74.0</ele><time>2026-04-19T17:40:12Z</time></trkpt><trkpt lat="39.99244856760765" lon="-0.08331954284641625"><ele>74.0</ele><time>2026-04-19T17:40:13Z</time></trkpt><trkpt lat="39.99224193522463" lon="-0.08360250288637455"><ele>74.0</ele><time>2026-04-19T17:40:13.999Z</time></trkpt><trkpt lat="39.992043944603225" lon="-0.08389051795585245"><ele>75.5</ele><time>2026-04-19T17:40:14.999Z</time></trkpt><trkpt lat="39.99185570446875" lon="-0.08419221577140576"><ele>77.0</ele><time>2026-04-19T17:40:15.999Z</time></trkpt><trkpt lat="39.99167731676737" lon="-0.0844923337460898"><ele>76.0</ele><time>2026-04-19T17:40:16.999Z</time></trkpt><trkpt lat="39.991511729180125" lon="-0.08479911417377851"><ele>75.0</ele><time>2026-04-19T17:40:17.999Z</time></trkpt><trkpt lat="39.9913553082095" lon="-0.08511377057264498"><ele>75.0</ele><time>2026-04-19T17:40:18.999Z</time></trkpt><trkpt lat="39.99120448560731" lon="-0.08541709094164586"><ele>75.0</ele><time>2026-04-19T17:40:19.999Z</time></trkpt><trkpt lat="39.99106173731119" lon="-0.08573036284293843"><ele>75.5</ele><time>2026-04-19T17:40:20.999Z</time></trkpt><trkpt lat="39.990922569027376" lon="-0.08605060106184939"><ele>76.0</ele><time>2026-04-19T17:40:21.999Z</time></trkpt><trkpt lat="39.990782441488804" lon="-0.08637636139775483"><ele>76.5</ele><time>2026-04-19T17:40:22.999Z</time></trkpt><trkpt lat="39.99064530256712" lon="-0.08670784276558074"><ele>77.0</ele><time>2026-04-19T17:40:23.999Z</time></trkpt><trkpt lat="39.99050638307" lon="-0.0870378470317863"><ele>77.0</ele><time>2026-04-19T17:40:24.999Z</time></trkpt><trkpt lat="39.99035795377687" lon="-0.08736074869124236"><ele>77.0</ele><time>2026-04-19T17:40:25.999Z</time></trkpt><trkpt lat="39.990201331968805" lon="-0.08767963977648822"><ele>76.5</ele><time>2026-04-19T17:40:26.999Z</time></trkpt><trkpt lat="39.99003871137449" lon="-0.08798284862396889"><ele>76.0</ele><time>2026-04-19T17:40:27.999Z</time></trkpt><trkpt lat="39.989872079521824" lon="-0.08828738769782224"><ele>75.5</ele><time>2026-04-19T17:40:28.999Z</time></trkpt><trkpt lat="39.98969710246963" lon="-0.0885812427713406"><ele>75.0</ele><time>2026-04-19T17:40:29.999Z</time></trkpt><trkpt lat="39.989513542632885" lon="-0.08886512331773978"><ele>75.5</ele><time>2026-04-19T17:40:30.999Z</time></trkpt><trkpt lat="39.98932047221953" lon="-0.08914481025115228"><ele>76.0</ele><time>2026-04-19T17:40:31.999Z</time></trkpt><trkpt lat="39.989121661513245" lon="-0.08940999630669058"><ele>76.0</ele><time>2026-04-19T17:40:32.999Z</time></trkpt><trkpt lat="39.988919056899825" lon="-0.08968461456220335"><ele>76.0</ele><time>2026-04-19T17:40:33.999Z</time></trkpt><trkpt lat="39.98870562681712" lon="-0.08995102121816126"><ele>76.0</ele><time>2026-04-19T17:40:34.999Z</time></trkpt><trkpt lat="39.988479513892884" lon="-0.0902034441854306"><ele>76.0</ele><time>2026-04-19T17:40:35.999Z</time></trkpt><trkpt lat="39.988250781374774" lon="-0.09044570286148812"><ele>75.0</ele><time>2026-04-19T17:40:36.999Z</time></trkpt><trkpt lat="39.98802166442711" lon="-0.09067657936002563"><ele>74.0</ele><time>2026-04-19T17:40:37.999Z</time></trkpt><trkpt lat="39.987792866907036" lon="-0.09090568401284918"><ele>73.5</ele><time>2026-04-19T17:40:38.999Z</time></trkpt><trkpt lat="39.98757414492827" lon="-0.09113043287153848"><ele>73.0</ele><time>2026-04-19T17:40:39.999Z</time></trkpt><trkpt lat="39.987352834504854" lon="-0.09135989522560028"><ele>73.0</ele><time>2026-04-19T17:40:40.999Z</time></trkpt><trkpt lat="39.987134583070656" lon="-0.09158893699016969"><ele>73.0</ele><time>2026-04-19T17:40:41.999Z</time></trkpt><trkpt lat="39.98692310430671" lon="-0.09182012686422787"><ele>73.0</ele><time>2026-04-19T17:40:42.999Z</time></trkpt><trkpt lat="39.98671212458435" lon="-0.0920454933475656"><ele>73.0</ele><time>2026-04-19T17:40:43.999Z</time></trkpt><trkpt lat="39.98649856175164" lon="-0.09227827610020586"><ele>73.5</ele><time>2026-04-19T17:40:44.999Z</time></trkpt><trkpt lat="39.986290505636234" lon="-0.09251289137277328"><ele>74.0</ele><time>2026-04-19T17:40:45.999Z</time></trkpt><trkpt lat="39.98608868846265" lon="-0.09275113566845387"><ele>74.0</ele><time>2026-04-19T17:40:46.999Z</time></trkpt><trkpt lat="39.98588212127149" lon="-0.09299604722294691"><ele>74.0</ele><time>2026-04-19T17:40:47.999Z</time></trkpt><trkpt lat="39.9856676565421" lon="-0.09324409794803135"><ele>73.5</ele><time>2026-04-19T17:40:48.999Z</time></trkpt><trkpt lat="39.98547490768366" lon="-0.0935047193644144"><ele>73.0</ele><time>2026-04-19T17:40:49.999Z</time></trkpt><trkpt lat="39.98527681702354" lon="-0.09377312355222917"><ele>73.0</ele><time>2026-04-19T17:40:50.999Z</time></trkpt><trkpt lat="39.98508323632316" lon="-0.09404717943400497"><ele>73.0</ele><time>2026-04-19T17:40:51.999Z</time></trkpt><trkpt lat="39.98489084011219" lon="-0.0943351878816907"><ele>72.5</ele><time>2026-04-19T17:40:52.999Z</time></trkpt><trkpt lat="39.98469427413582" lon="-0.09463482088541343"><ele>72.0</ele><time>2026-04-19T17:40:53.999Z</time></trkpt><trkpt lat="39.98449744311572" lon="-0.09495096642087303"><ele>72.0</ele><time>2026-04-19T17:40:54.999Z</time></trkpt><trkpt lat="39.984305981068054" lon="-0.09526696983995016"><ele>72.0</ele><time>2026-04-19T17:40:55.999Z</time></trkpt><trkpt lat="39.98412214983353" lon="-0.09559847768364026"><ele>73.5</ele><time>2026-04-19T17:40:56.999Z</time></trkpt><trkpt lat="39.983947951227165" lon="-0.09593255239389349"><ele>75.0</ele><time>2026-04-19T17:40:57.999Z</time></trkpt><trkpt lat="39.98378159260623" lon="-0.09627316446926465"><ele>74.0</ele><time>2026-04-19T17:40:58.999Z</time></trkpt><trkpt lat="39.983620423201586" lon="-0.09661515144533869"><ele>73.0</ele><time>2026-04-19T17:40:59.999Z</time></trkpt><trkpt lat="39.98346383846043" lon="-0.09695721622950129"><ele>71.5</ele><time>2026-04-19T17:41:00.999Z</time></trkpt><trkpt lat="39.9833172886131" lon="-0.09729831412342621"><ele>70.0</ele><time>2026-04-19T17:41:01.999Z</time></trkpt><trkpt lat="39.98317735105395" lon="-0.09763104127408205"><ele>70.0</ele><time>2026-04-19T17:41:02.999Z</time></trkpt><trkpt lat="39.98303618188175" lon="-0.0979622322954808"><ele>70.0</ele><time>2026-04-19T17:41:03.999Z</time></trkpt><trkpt lat="39.98290127368904" lon="-0.09829491822392102"><ele>70.0</ele><time>2026-04-19T17:41:04.999Z</time></trkpt><trkpt lat="39.98276673604872" lon="-0.09862868511436433"><ele>70.0</ele><time>2026-04-19T17:41:05.999Z</time></trkpt><trkpt lat="39.982634013619865" lon="-0.09896300087915418"><ele>69.0</ele><time>2026-04-19T17:41:06.999Z</time></trkpt><trkpt lat="39.98249433342379" lon="-0.09929910773729068"><ele>68.0</ele><time>2026-04-19T17:41:07.999Z</time></trkpt><trkpt lat="39.98235302691828" lon="-0.09963352069497278"><ele>68.5</ele><time>2026-04-19T17:41:08.999Z</time></trkpt><trkpt lat="39.98220861564747" lon="-0.09996680619533886"><ele>69.0</ele><time>2026-04-19T17:41:09.999Z</time></trkpt><trkpt lat="39.98205902837331" lon="-0.10030677395291616"><ele>69.0</ele><time>2026-04-19T17:41:10.999Z</time></trkpt><trkpt lat="39.98190833930055" lon="-0.10064167263262258"><ele>69.0</ele><time>2026-04-19T17:41:11.999Z</time></trkpt><trkpt lat="39.981749556264695" lon="-0.10097852128542649"><ele>69.0</ele><time>2026-04-19T17:41:12.999Z</time></trkpt><trkpt lat="39.98158529837728" lon="-0.10130716552214289"><ele>69.0</ele><time>2026-04-19T17:41:13.999Z</time></trkpt><trkpt lat="39.981413932543575" lon="-0.10162168623394316"><ele>69.0</ele><time>2026-04-19T17:41:14.999Z</time></trkpt><trkpt lat="39.98123304770948" lon="-0.1019308455128209"><ele>69.0</ele><time>2026-04-19T17:41:15.999Z</time></trkpt><trkpt lat="39.98104608676177" lon="-0.10223579121479602"><ele>69.0</ele><time>2026-04-19T17:41:16.999Z</time></trkpt><trkpt lat="39.980856144840715" lon="-0.10253006421145204"><ele>69.0</ele><time>2026-04-19T17:41:17.999Z</time></trkpt><trkpt lat="39.98066592183559" lon="-0.10281530740150278"><ele>69.5</ele><time>2026-04-19T17:41:18.999Z</time></trkpt><trkpt lat="39.98047044328883" lon="-0.10309928834923734"><ele>70.0</ele><time>2026-04-19T17:41:19.999Z</time></trkpt><trkpt lat="39.98026514268859" lon="-0.10338111147427309"><ele>70.0</ele><time>2026-04-19T17:41:20.998Z</time></trkpt><trkpt lat="39.98006590081425" lon="-0.10365786227134148"><ele>70.0</ele><time>2026-04-19T17:41:21.998Z</time></trkpt><trkpt lat="39.97985963320181" lon="-0.10392260509850469"><ele>70.0</ele><time>2026-04-19T17:41:22.998Z</time></trkpt><trkpt lat="39.97964900804978" lon="-0.10418071493230753"><ele>70.0</ele><time>2026-04-19T17:41:23.998Z</time></trkpt><trkpt lat="39.979434551328765" lon="-0.1044282798325298"><ele>70.0</ele><time>2026-04-19T17:41:24.998Z</time></trkpt><trkpt lat="39.97921944751859" lon="-0.10467682494446083"><ele>70.0</ele><time>2026-04-19T17:41:25.998Z</time></trkpt><trkpt lat="39.97900305435519" lon="-0.10491954884481024"><ele>70.0</ele><time>2026-04-19T17:41:26.998Z</time></trkpt><trkpt lat="39.97878427731644" lon="-0.10515979049015674"><ele>70.0</ele><time>2026-04-19T17:41:27.998Z</time></trkpt><trkpt lat="39.97856470132806" lon="-0.10540651685529233"><ele>70.0</ele><time>2026-04-19T17:41:28.998Z</time></trkpt><trkpt lat="39.978343389571265" lon="-0.10565243258408771"><ele>70.0</ele><time>2026-04-19T17:41:29.998Z</time></trkpt><trkpt lat="39.97812192157492" lon="-0.10590300887738051"><ele>70.5</ele><time>2026-04-19T17:41:30.998Z</time></trkpt><trkpt lat="39.977900770287654" lon="-0.1061524309211315"><ele>71.0</ele><time>2026-04-19T17:41:31.998Z</time></trkpt><trkpt lat="39.9776837477093" lon="-0.10640476494662518"><ele>71.0</ele><time>2026-04-19T17:41:32.998Z</time></trkpt><trkpt lat="39.97746836409276" lon="-0.10665585214204784"><ele>71.0</ele><time>2026-04-19T17:41:33.998Z</time></trkpt><trkpt lat="39.977254713922385" lon="-0.10691368972984573"><ele>71.0</ele><time>2026-04-19T17:41:34.998Z</time></trkpt><trkpt lat="39.97704249529816" lon="-0.10717810969841816"><ele>71.0</ele><time>2026-04-19T17:41:35.998Z</time></trkpt><trkpt lat="39.97683083208729" lon="-0.10745159302797386"><ele>70.5</ele><time>2026-04-19T17:41:36.998Z</time></trkpt><trkpt lat="39.97662622546835" lon="-0.10772459339865899"><ele>70.0</ele><time>2026-04-19T17:41:38Z</time></trkpt><trkpt lat="39.976422681279836" lon="-0.10800933700142507"><ele>70.0</ele><time>2026-04-19T17:41:39Z</time></trkpt><trkpt lat="39.97621994935043" lon="-0.10830033422988565"><ele>70.0</ele><time>2026-04-19T17:41:40Z</time></trkpt><trkpt lat="39.97601967240292" lon="-0.10859204266890836"><ele>70.0</ele><time>2026-04-19T17:41:41Z</time></trkpt><trkpt lat="39.97582434983195" lon="-0.10890070265079142"><ele>70.0</ele><time>2026-04-19T17:41:42Z</time></trkpt><trkpt lat="39.97562848618916" lon="-0.10921119070664559"><ele>70.5</ele><time>2026-04-19T17:41:43Z</time></trkpt><trkpt lat="39.97543548186235" lon="-0.10952991073837628"><ele>71.0</ele><time>2026-04-19T17:41:44Z</time></trkpt><trkpt lat="39.975245870433604" lon="-0.10984932111783302"><ele>70.5</ele><time>2026-04-19T17:41:45Z</time></trkpt><trkpt lat="39.975055319965975" lon="-0.1101735349058005"><ele>70.0</ele><time>2026-04-19T17:41:46Z</time></trkpt><trkpt lat="39.97486354975891" lon="-0.11049938367829339"><ele>70.5</ele><time>2026-04-19T17:41:47Z</time></trkpt><trkpt lat="39.97467167873439" lon="-0.11082711763914181"><ele>71.0</ele><time>2026-04-19T17:41:48Z</time></trkpt><trkpt lat="39.974478795938836" lon="-0.11115449055410784"><ele>71.0</ele><time>2026-04-19T17:41:49Z</time></trkpt><trkpt lat="39.97428699048264" lon="-0.11148264448570072"><ele>71.0</ele><time>2026-04-19T17:41:50Z</time></trkpt><trkpt lat="39.974093847549156" lon="-0.11180643951505834"><ele>71.0</ele><time>2026-04-19T17:41:51Z</time></trkpt><trkpt lat="39.97389623553434" lon="-0.1121230997561843"><ele>71.0</ele><time>2026-04-19T17:41:52Z</time></trkpt><trkpt lat="39.97369711124848" lon="-0.11243443133864436"><ele>70.5</ele><time>2026-04-19T17:41:53Z</time></trkpt><trkpt lat="39.97349687747061" lon="-0.11274584031445375"><ele>70.0</ele><time>2026-04-19T17:41:54Z</time></trkpt><trkpt lat="39.97329626964052" lon="-0.11304278091512522"><ele>69.5</ele><time>2026-04-19T17:41:55Z</time></trkpt><trkpt lat="39.97309603200099" lon="-0.11332940011404027"><ele>69.0</ele><time>2026-04-19T17:41:56Z</time></trkpt><trkpt lat="39.972895247415444" lon="-0.11360487410311247"><ele>69.0</ele><time>2026-04-19T17:41:57Z</time></trkpt><trkpt lat="39.97268524791733" lon="-0.11387034658718556"><ele>69.0</ele><time>2026-04-19T17:41:58Z</time></trkpt><trkpt lat="39.97247839061206" lon="-0.11412779925538542"><ele>62.5</ele><time>2026-04-19T17:41:59Z</time></trkpt><trkpt lat="39.97226047620121" lon="-0.11438175905069972"><ele>56.0</ele><time>2026-04-19T17:42:00Z</time></trkpt><trkpt lat="39.97204027825348" lon="-0.11463073370398236"><ele>56.0</ele><time>2026-04-19T17:42:01Z</time></trkpt><trkpt lat="39.971814060696" lon="-0.11487462560076664"><ele>56.0</ele><time>2026-04-19T17:42:02Z</time></trkpt><trkpt lat="39.971583860543475" lon="-0.1151135884366883"><ele>57.5</ele><time>2026-04-19T17:42:03Z</time></trkpt><trkpt lat="39.97134783853257" lon="-0.11534652022723206"><ele>59.0</ele><time>2026-04-19T17:42:04Z</time></trkpt><trkpt lat="39.97111452133908" lon="-0.11557666672059982"><ele>60.0</ele><time>2026-04-19T17:42:05Z</time></trkpt><trkpt lat="39.9708733345036" lon="-0.11581242471715185"><ele>61.0</ele><time>2026-04-19T17:42:06Z</time></trkpt><trkpt lat="39.970629034792786" lon="-0.11603936669306547"><ele>62.5</ele><time>2026-04-19T17:42:07Z</time></trkpt><trkpt lat="39.970386127937154" lon="-0.11626463162300282"><ele>64.0</ele><time>2026-04-19T17:42:08Z</time></trkpt><trkpt lat="39.97014688347053" lon="-0.11648491563441593"><ele>66.0</ele><time>2026-04-19T17:42:09Z</time></trkpt><trkpt lat="39.969911495403885" lon="-0.11670961740490429"><ele>68.0</ele><time>2026-04-19T17:42:10Z</time></trkpt><trkpt lat="39.9696777890048" lon="-0.11693552874560735"><ele>68.0</ele><time>2026-04-19T17:42:11Z</time></trkpt><trkpt lat="39.969445381783395" lon="-0.11716586589940038"><ele>68.0</ele><time>2026-04-19T17:42:12Z</time></trkpt><trkpt lat="39.969212296610245" lon="-0.11739534640170418"><ele>69.0</ele><time>2026-04-19T17:42:13Z</time></trkpt><trkpt lat="39.96898044703872" lon="-0.11762378155269157"><ele>70.0</ele><time>2026-04-19T17:42:14Z</time></trkpt><trkpt lat="39.96875281387069" lon="-0.1178590698494604"><ele>70.0</ele><time>2026-04-19T17:42:15Z</time></trkpt><trkpt lat="39.9685296002113" lon="-0.11810074381646891"><ele>70.0</ele><time>2026-04-19T17:42:16Z</time></trkpt><trkpt lat="39.96831314786666" lon="-0.11834802357662517"><ele>70.5</ele><time>2026-04-19T17:42:17Z</time></trkpt><trkpt lat="39.968097902875144" lon="-0.11860099465563947"><ele>71.0</ele><time>2026-04-19T17:42:18Z</time></trkpt><trkpt lat="39.96788900480136" lon="-0.11885967404383817"><ele>71.0</ele><time>2026-04-19T17:42:19Z</time></trkpt><trkpt lat="39.96768667521175" lon="-0.11913351528028193"><ele>71.0</ele><time>2026-04-19T17:42:20Z</time></trkpt><trkpt lat="39.967485721476415" lon="-0.1194185165859658"><ele>72.0</ele><time>2026-04-19T17:42:21Z</time></trkpt><trkpt lat="39.96728797847992" lon="-0.11970182861504305"><ele>73.0</ele><time>2026-04-19T17:42:22Z</time></trkpt><trkpt lat="39.9670945718549" lon="-0.11998723983310991"><ele>74.0</ele><time>2026-04-19T17:42:23Z</time></trkpt><trkpt lat="39.96690278078557" lon="-0.1202704676438262"><ele>75.0</ele><time>2026-04-19T17:42:24Z</time></trkpt><trkpt lat="39.966716559342004" lon="-0.12056257543276734"><ele>72.5</ele><time>2026-04-19T17:42:25Z</time></trkpt><trkpt lat="39.96653725859837" lon="-0.12085978309615036"><ele>70.0</ele><time>2026-04-19T17:42:26Z</time></trkpt><trkpt lat="39.96635834282039" lon="-0.12115816118423788"><ele>70.0</ele><time>2026-04-19T17:42:27Z</time></trkpt><trkpt lat="39.966178171166995" lon="-0.12145834522532299"><ele>70.0</ele><time>2026-04-19T17:42:27.999Z</time></trkpt><trkpt lat="39.96600117114134" lon="-0.12175541044429487"><ele>73.5</ele><time>2026-04-19T17:42:28.999Z</time></trkpt><trkpt lat="39.96582318380974" lon="-0.12205298169497326"><ele>77.0</ele><time>2026-04-19T17:42:29.999Z</time></trkpt><trkpt lat="39.965644893287454" lon="-0.12235309518550558"><ele>78.5</ele><time>2026-04-19T17:42:30.999Z</time></trkpt><trkpt lat="39.96546651211032" lon="-0.12264925115344207"><ele>80.0</ele><time>2026-04-19T17:42:31.999Z</time></trkpt><trkpt lat="39.965284541612014" lon="-0.12294296440625414"><ele>77.5</ele><time>2026-04-19T17:42:32.999Z</time></trkpt><trkpt lat="39.965100820091656" lon="-0.12323611749003668"><ele>75.0</ele><time>2026-04-19T17:42:33.999Z</time></trkpt><trkpt lat="39.96491078221154" lon="-0.12352494937169484"><ele>75.0</ele><time>2026-04-19T17:42:34.999Z</time></trkpt><trkpt lat="39.9647184494066" lon="-0.12380988829600117"><ele>75.0</ele><time>2026-04-19T17:42:35.999Z</time></trkpt><trkpt lat="39.964520597244366" lon="-0.12409149726778514"><ele>75.0</ele><time>2026-04-19T17:42:36.999Z</time></trkpt><trkpt lat="39.96431828376815" lon="-0.12436414323057413"><ele>75.0</ele><time>2026-04-19T17:42:37.999Z</time></trkpt><trkpt lat="39.96411278232148" lon="-0.1246263235496538"><ele>75.0</ele><time>2026-04-19T17:42:38.999Z</time></trkpt><trkpt lat="39.96390219027301" lon="-0.12487951659414102"><ele>75.0</ele><time>2026-04-19T17:42:39.999Z</time></trkpt><trkpt lat="39.963689745550354" lon="-0.12512723441384496"><ele>76.5</ele><time>2026-04-19T17:42:40.999Z</time></trkpt><trkpt lat="39.96347477660132" lon="-0.12536768445935373"><ele>78.0</ele><time>2026-04-19T17:42:41.999Z</time></trkpt><trkpt lat="39.96325342456824" lon="-0.12560404664906552"><ele>77.5</ele><time>2026-04-19T17:42:42.999Z</time></trkpt><trkpt lat="39.96302484652187" lon="-0.1258409071151289"><ele>77.0</ele><time>2026-04-19T17:42:43.999Z</time></trkpt><trkpt lat="39.96279097431449" lon="-0.1260679392446495"><ele>77.0</ele><time>2026-04-19T17:42:44.999Z</time></trkpt><trkpt lat="39.962553743976436" lon="-0.12628980179277283"><ele>77.0</ele><time>2026-04-19T17:42:45.999Z</time></trkpt><trkpt lat="39.962312168157474" lon="-0.12650147730017472"><ele>70.0</ele><time>2026-04-19T17:42:46.999Z</time></trkpt><trkpt lat="39.962062616627996" lon="-0.126706430644845"><ele>63.0</ele><time>2026-04-19T17:42:47.999Z</time></trkpt><trkpt lat="39.96181079675607" lon="-0.12690381672281859"><ele>58.0</ele><time>2026-04-19T17:42:48.999Z</time></trkpt><trkpt lat="39.9615544053431" lon="-0.12709640931149532"><ele>53.0</ele><time>2026-04-19T17:42:49.999Z</time></trkpt><trkpt lat="39.96129198221811" lon="-0.12729162001172084"><ele>56.5</ele><time>2026-04-19T17:42:50.999Z</time></trkpt><trkpt lat="39.9610252261828" lon="-0.12748581337337309"><ele>60.0</ele><time>2026-04-19T17:42:51.999Z</time></trkpt><trkpt lat="39.960761132283615" lon="-0.12767197950921905"><ele>66.0</ele><time>2026-04-19T17:42:52.999Z</time></trkpt><trkpt lat="39.96048952225473" lon="-0.12784875173845053"><ele>72.0</ele><time>2026-04-19T17:42:53.999Z</time></trkpt><trkpt lat="39.96021198569188" lon="-0.12801763808759398"><ele>73.5</ele><time>2026-04-19T17:42:54.999Z</time></trkpt><trkpt lat="39.95992545418816" lon="-0.1281674042906433"><ele>75.0</ele><time>2026-04-19T17:42:55.999Z</time></trkpt><trkpt lat="39.9596435541165" lon="-0.12830637977066742"><ele>75.0</ele><time>2026-04-19T17:42:56.999Z</time></trkpt><trkpt lat="39.95935175660139" lon="-0.12843397078674854"><ele>75.0</ele><time>2026-04-19T17:42:57.999Z</time></trkpt><trkpt lat="39.959036138994335" lon="-0.1285284825132771"><ele>77.5</ele><time>2026-04-19T17:42:58.999Z</time></trkpt><trkpt lat="39.958736944697684" lon="-0.1286340086959414"><ele>80.0</ele><time>2026-04-19T17:42:59.999Z</time></trkpt><trkpt lat="39.958437321426956" lon="-0.12873193413125952"><ele>80.5</ele><time>2026-04-19T17:43:00.999Z</time></trkpt><trkpt lat="39.95813579038275" lon="-0.12882006044933303"><ele>81.0</ele><time>2026-04-19T17:43:01.999Z</time></trkpt><trkpt lat="39.9578354141415" lon="-0.12889938416325394"><ele>81.0</ele><time>2026-04-19T17:43:02.999Z</time></trkpt><trkpt lat="39.95753987699667" lon="-0.12897313960984771"><ele>81.0</ele><time>2026-04-19T17:43:03.999Z</time></trkpt><trkpt lat="39.95724298479969" lon="-0.1290320287112551"><ele>81.5</ele><time>2026-04-19T17:43:04.999Z</time></trkpt><trkpt lat="39.9569414431405" lon="-0.12907892491615156"><ele>82.0</ele><time>2026-04-19T17:43:05.999Z</time></trkpt><trkpt lat="39.95663956778304" lon="-0.12912265866558717"><ele>80.5</ele><time>2026-04-19T17:43:06.999Z</time></trkpt><trkpt lat="39.95635836850804" lon="-0.12917068210269747"><ele>79.0</ele><time>2026-04-19T17:43:07.999Z</time></trkpt><trkpt lat="39.95606725906788" lon="-0.12920146142179353"><ele>77.0</ele><time>2026-04-19T17:43:08.999Z</time></trkpt><trkpt lat="39.955773677592596" lon="-0.1292263810639491"><ele>75.0</ele><time>2026-04-19T17:43:09.999Z</time></trkpt><trkpt lat="39.95547948427732" lon="-0.1292413983210954"><ele>75.0</ele><time>2026-04-19T17:43:10.999Z</time></trkpt><trkpt lat="39.95518819161496" lon="-0.12925196160279548"><ele>75.0</ele><time>2026-04-19T17:43:11.999Z</time></trkpt><trkpt lat="39.95489971990523" lon="-0.12926027234574589"><ele>72.0</ele><time>2026-04-19T17:43:12.999Z</time></trkpt><trkpt lat="39.95460773018744" lon="-0.12926462475556133"><ele>69.0</ele><time>2026-04-19T17:43:13.999Z</time></trkpt><trkpt lat="39.95431608203763" lon="-0.1292656891470787"><ele>69.0</ele><time>2026-04-19T17:43:14.999Z</time></trkpt><trkpt lat="39.95402436125467" lon="-0.12926940936591616"><ele>69.0</ele><time>2026-04-19T17:43:15.999Z</time></trkpt><trkpt lat="39.95373580055292" lon="-0.1292743690107885"><ele>69.0</ele><time>2026-04-19T17:43:16.999Z</time></trkpt><trkpt lat="39.953449564934296" lon="-0.12927896455395918"><ele>69.0</ele><time>2026-04-19T17:43:17.999Z</time></trkpt><trkpt lat="39.95316470759076" lon="-0.12928544131747247"><ele>70.0</ele><time>2026-04-19T17:43:18.999Z</time></trkpt><trkpt lat="39.95288275732083" lon="-0.1293008011177266"><ele>71.0</ele><time>2026-04-19T17:43:19.999Z</time></trkpt><trkpt lat="39.95260168904806" lon="-0.12931953016268546"><ele>71.5</ele><time>2026-04-19T17:43:20.999Z</time></trkpt><trkpt lat="39.95231988342105" lon="-0.12933723634663982"><ele>72.0</ele><time>2026-04-19T17:43:21.999Z</time></trkpt><trkpt lat="39.95204265645151" lon="-0.12936376797682525"><ele>72.0</ele><time>2026-04-19T17:43:22.999Z</time></trkpt><trkpt lat="39.95176594359735" lon="-0.12939548882841428"><ele>72.0</ele><time>2026-04-19T17:43:23.999Z</time></trkpt><trkpt lat="39.951490604229534" lon="-0.12943793113308197"><ele>70.5</ele><time>2026-04-19T17:43:24.999Z</time></trkpt><trkpt lat="39.951214351117024" lon="-0.12949009968239802"><ele>69.0</ele><time>2026-04-19T17:43:25.999Z</time></trkpt><trkpt lat="39.95094112961695" lon="-0.12954721501611824"><ele>70.0</ele><time>2026-04-19T17:43:26.999Z</time></trkpt><trkpt lat="39.95066638827712" lon="-0.12961081622059104"><ele>71.0</ele><time>2026-04-19T17:43:27.999Z</time></trkpt><trkpt lat="39.950386082162744" lon="-0.1296656772906916"><ele>71.0</ele><time>2026-04-19T17:43:28.999Z</time></trkpt><trkpt lat="39.950113666987804" lon="-0.12973313959706748"><ele>71.0</ele><time>2026-04-19T17:43:29.999Z</time></trkpt><trkpt lat="39.94982523057737" lon="-0.12983173258072778"><ele>69.0</ele><time>2026-04-19T17:43:30.999Z</time></trkpt><trkpt lat="39.94951974331052" lon="-0.1299602245695861"><ele>67.0</ele><time>2026-04-19T17:43:31.999Z</time></trkpt><trkpt lat="39.94920123824028" lon="-0.1300952280156501"><ele>66.5</ele><time>2026-04-19T17:43:32.999Z</time></trkpt><trkpt lat="39.94889795212793" lon="-0.13020441145435496"><ele>66.0</ele><time>2026-04-19T17:43:33.999Z</time></trkpt><trkpt lat="39.94859378214481" lon="-0.1302045072509958"><ele>66.0</ele><time>2026-04-19T17:43:34.999Z</time></trkpt><trkpt lat="39.9483114339519" lon="-0.1303173725281176"><ele>66.0</ele><time>2026-04-19T17:43:35.998Z</time></trkpt><trkpt lat="39.94802253128205" lon="-0.13043912625645893"><ele>66.0</ele><time>2026-04-19T17:43:36.998Z</time></trkpt><trkpt lat="39.94773622273654" lon="-0.13057241674283152"><ele>66.0</ele><time>2026-04-19T17:43:37.998Z</time></trkpt><trkpt lat="39.947452015974974" lon="-0.130707539745887"><ele>67.0</ele><time>2026-04-19T17:43:38.998Z</time></trkpt><trkpt lat="39.94717403964987" lon="-0.13085005336542943"><ele>68.0</ele><time>2026-04-19T17:43:39.998Z</time></trkpt><trkpt lat="39.94690094637996" lon="-0.13098813291885092"><ele>67.0</ele><time>2026-04-19T17:43:40.998Z</time></trkpt><trkpt lat="39.94662876336264" lon="-0.13112597999577236"><ele>66.0</ele><time>2026-04-19T17:43:41.998Z</time></trkpt><trkpt lat="39.94635913891261" lon="-0.13126952872002595"><ele>66.0</ele><time>2026-04-19T17:43:42.998Z</time></trkpt><trkpt lat="39.94608452750322" lon="-0.13141969330783657"><ele>66.0</ele><time>2026-04-19T17:43:44Z</time></trkpt><trkpt lat="39.94581045273431" lon="-0.1315692012795303"><ele>65.5</ele><time>2026-04-19T17:43:45Z</time></trkpt><trkpt lat="39.94553224774797" lon="-0.13171447884015874"><ele>65.0</ele><time>2026-04-19T17:43:46Z</time></trkpt><trkpt lat="39.94525254914455" lon="-0.13185925742585874"><ele>66.0</ele><time>2026-04-19T17:43:47Z</time></trkpt><trkpt lat="39.94497263082733" lon="-0.13199787968792898"><ele>67.0</ele><time>2026-04-19T17:43:48Z</time></trkpt><trkpt lat="39.944696087726555" lon="-0.1321349028334971"><ele>67.0</ele><time>2026-04-19T17:43:49Z</time></trkpt><trkpt lat="39.944415703049074" lon="-0.1322738018502148"><ele>67.0</ele><time>2026-04-19T17:43:50Z</time></trkpt><trkpt lat="39.944132727989945" lon="-0.1324112076654409"><ele>66.5</ele><time>2026-04-19T17:43:51Z</time></trkpt><trkpt lat="39.94385133625031" lon="-0.13255062117235866"><ele>66.0</ele><time>2026-04-19T17:43:52Z</time></trkpt><trkpt lat="39.943567954431245" lon="-0.1326833602149191"><ele>66.0</ele><time>2026-04-19T17:43:53Z</time></trkpt><trkpt lat="39.94328403874373" lon="-0.13280456606852023"><ele>66.0</ele><time>2026-04-19T17:43:54Z</time></trkpt><trkpt lat="39.942996426763635" lon="-0.13291845050459417"><ele>66.0</ele><time>2026-04-19T17:43:55Z</time></trkpt><trkpt lat="39.9427022639058" lon="-0.133025275052781"><ele>66.0</ele><time>2026-04-19T17:43:56Z</time></trkpt><trkpt lat="39.942409806131096" lon="-0.13310595612210652"><ele>66.0</ele><time>2026-04-19T17:43:57Z</time></trkpt><trkpt lat="39.94211220507825" lon="-0.13319534132748495"><ele>66.0</ele><time>2026-04-19T17:43:58Z</time></trkpt><trkpt lat="39.941812400546155" lon="-0.1332772014923733"><ele>62.0</ele><time>2026-04-19T17:43:59Z</time></trkpt><trkpt lat="39.9415168806057" lon="-0.13335244684607836"><ele>58.0</ele><time>2026-04-19T17:44:00Z</time></trkpt><trkpt lat="39.941221395599875" lon="-0.13342382486098692"><ele>58.0</ele><time>2026-04-19T17:44:01Z</time></trkpt><trkpt lat="39.94092144291662" lon="-0.1334823162815211"><ele>58.0</ele><time>2026-04-19T17:44:02Z</time></trkpt><trkpt lat="39.940618430554665" lon="-0.13353955445042487"><ele>59.0</ele><time>2026-04-19T17:44:03Z</time></trkpt><trkpt lat="39.94031302254169" lon="-0.13359008290653723"><ele>60.0</ele><time>2026-04-19T17:44:04Z</time></trkpt><trkpt lat="39.940005402047056" lon="-0.13363830509718586"><ele>60.0</ele><time>2026-04-19T17:44:05Z</time></trkpt><trkpt lat="39.93969822568132" lon="-0.13368686303795965"><ele>60.0</ele><time>2026-04-19T17:44:06Z</time></trkpt><trkpt lat="39.9393923665001" lon="-0.13372680533247547"><ele>59.5</ele><time>2026-04-19T17:44:07Z</time></trkpt><trkpt lat="39.93908833663296" lon="-0.13375797512035761"><ele>59.0</ele><time>2026-04-19T17:44:08Z</time></trkpt><trkpt lat="39.938785688986385" lon="-0.1337861838371725"><ele>59.0</ele><time>2026-04-19T17:44:09Z</time></trkpt><trkpt lat="39.93848957552903" lon="-0.13381171061612696"><ele>59.0</ele><time>2026-04-19T17:44:10Z</time></trkpt><trkpt lat="39.9381961590587" lon="-0.13384067014607448"><ele>59.0</ele><time>2026-04-19T17:44:11Z</time></trkpt><trkpt lat="39.937903252214376" lon="-0.13387149696769185"><ele>59.0</ele><time>2026-04-19T17:44:12Z</time></trkpt><trkpt lat="39.937610410175424" lon="-0.13389860075841992"><ele>57.0</ele><time>2026-04-19T17:44:13Z</time></trkpt><trkpt lat="39.93732080517005" lon="-0.13391920223389533"><ele>55.0</ele><time>2026-04-19T17:44:14Z</time></trkpt><trkpt lat="39.93702738685859" lon="-0.13394344817694667"><ele>55.0</ele><time>2026-04-19T17:44:15Z</time></trkpt><trkpt lat="39.93673452570017" lon="-0.1339722032193878"><ele>55.0</ele><time>2026-04-19T17:44:16Z</time></trkpt><trkpt lat="39.93643711765119" lon="-0.1340043934345364"><ele>56.0</ele><time>2026-04-19T17:44:17Z</time></trkpt><trkpt lat="39.93614293114732" lon="-0.13404454280631511"><ele>57.0</ele><time>2026-04-19T17:44:18Z</time></trkpt><trkpt lat="39.93585644738196" lon="-0.13408667349407716"><ele>57.0</ele><time>2026-04-19T17:44:19Z</time></trkpt><trkpt lat="39.935574006574925" lon="-0.1341329161728939"><ele>57.0</ele><time>2026-04-19T17:44:20Z</time></trkpt><trkpt lat="39.935300846483486" lon="-0.1341816114785139"><ele>56.0</ele><time>2026-04-19T17:44:21Z</time></trkpt><trkpt lat="39.9350324977452" lon="-0.1342301030645386"><ele>55.0</ele><time>2026-04-19T17:44:22Z</time></trkpt><trkpt lat="39.934761755334236" lon="-0.13428164931278525"><ele>55.0</ele><time>2026-04-19T17:44:23Z</time></trkpt><trkpt lat="39.9344908879104" lon="-0.13434435411909312"><ele>55.0</ele><time>2026-04-19T17:44:24Z</time></trkpt><trkpt lat="39.934220802504036" lon="-0.1344154779719225"><ele>54.5</ele><time>2026-04-19T17:44:25Z</time></trkpt><trkpt lat="39.933952173548455" lon="-0.1344886263622584"><ele>54.0</ele><time>2026-04-19T17:44:26Z</time></trkpt><trkpt lat="39.93368949261968" lon="-0.13456555528695674"><ele>54.0</ele><time>2026-04-19T17:44:27Z</time></trkpt><trkpt lat="39.93341826477321" lon="-0.13464419616242163"><ele>54.0</ele><time>2026-04-19T17:44:28Z</time></trkpt><trkpt lat="39.93314809388684" lon="-0.13472509013799155"><ele>54.5</ele><time>2026-04-19T17:44:28.999Z</time></trkpt><trkpt lat="39.93287992058696" lon="-0.13481120078343453"><ele>55.0</ele><time>2026-04-19T17:44:29.999Z</time></trkpt><trkpt lat="39.932614070746055" lon="-0.1348921622587243"><ele>54.5</ele><time>2026-04-19T17:44:30.999Z</time></trkpt><trkpt lat="39.93235789145678" lon="-0.1349671893697364"><ele>54.0</ele><time>2026-04-19T17:44:31.999Z</time></trkpt><trkpt lat="39.93209806160142" lon="-0.13504856314090707"><ele>54.0</ele><time>2026-04-19T17:44:32.999Z</time></trkpt><trkpt lat="39.93183274925191" lon="-0.13513276933679233"><ele>54.0</ele><time>2026-04-19T17:44:33.999Z</time></trkpt><trkpt lat="39.93156140552206" lon="-0.1352176261789273"><ele>53.0</ele><time>2026-04-19T17:44:34.999Z</time></trkpt><trkpt lat="39.93130312029558" lon="-0.13530215322924224"><ele>52.0</ele><time>2026-04-19T17:44:35.999Z</time></trkpt><trkpt lat="39.93106093628441" lon="-0.13538288654356886"><ele>50.0</ele><time>2026-04-19T17:44:36.999Z</time></trkpt><trkpt lat="39.93081610962379" lon="-0.13546347823113114"><ele>48.0</ele><time>2026-04-19T17:44:37.999Z</time></trkpt><trkpt lat="39.930575501385654" lon="-0.13554215319569765"><ele>48.0</ele><time>2026-04-19T17:44:38.999Z</time></trkpt><trkpt lat="39.93033990358899" lon="-0.13561332666884998"><ele>48.0</ele><time>2026-04-19T17:44:39.999Z</time></trkpt><trkpt lat="39.93010003499115" lon="-0.1356813437025712"><ele>49.5</ele><time>2026-04-19T17:44:40.999Z</time></trkpt><trkpt lat="39.929855632409094" lon="-0.1357468004078775"><ele>51.0</ele><time>2026-04-19T17:44:41.999Z</time></trkpt><trkpt lat="39.92960248746257" lon="-0.1358111850058186"><ele>51.0</ele><time>2026-04-19T17:44:42.999Z</time></trkpt><trkpt lat="39.92934273468375" lon="-0.13587742569396064"><ele>51.0</ele><time>2026-04-19T17:44:43.999Z</time></trkpt><trkpt lat="39.92908736730459" lon="-0.13593562234917572"><ele>50.0</ele><time>2026-04-19T17:44:44.999Z</time></trkpt><trkpt lat="39.92882890239119" lon="-0.13598848524428092"><ele>49.0</ele><time>2026-04-19T17:44:45.999Z</time></trkpt><trkpt lat="39.92856543326938" lon="-0.1360374662705819"><ele>47.5</ele><time>2026-04-19T17:44:46.999Z</time></trkpt><trkpt lat="39.92828658385544" lon="-0.13608110450881464"><ele>46.0</ele><time>2026-04-19T17:44:47.999Z</time></trkpt><trkpt lat="39.928003434453544" lon="-0.1361274747318963"><ele>46.0</ele><time>2026-04-19T17:44:48.999Z</time></trkpt><trkpt lat="39.927731349735005" lon="-0.13616000806606468"><ele>46.0</ele><time>2026-04-19T17:44:49.999Z</time></trkpt><trkpt lat="39.927461349168404" lon="-0.136188146882441"><ele>46.0</ele><time>2026-04-19T17:44:50.999Z</time></trkpt><trkpt lat="39.927192354654444" lon="-0.13620976471088908"><ele>46.0</ele><time>2026-04-19T17:44:51.999Z</time></trkpt><trkpt lat="39.92692435073397" lon="-0.13622601481297994"><ele>45.5</ele><time>2026-04-19T17:44:52.999Z</time></trkpt><trkpt lat="39.92665845326616" lon="-0.13623776939539903"><ele>45.0</ele><time>2026-04-19T17:44:53.999Z</time></trkpt><trkpt lat="39.92636631910347" lon="-0.13623395761874874"><ele>45.0</ele><time>2026-04-19T17:44:54.999Z</time></trkpt><trkpt lat="39.926123832192445" lon="-0.1362570469584873"><ele>45.0</ele><time>2026-04-19T17:44:55.999Z</time></trkpt><trkpt lat="39.925857454023955" lon="-0.1362588844232384"><ele>46.0</ele><time>2026-04-19T17:44:56.999Z</time></trkpt><trkpt lat="39.925593985450064" lon="-0.1362510096443387"><ele>47.0</ele><time>2026-04-19T17:44:57.999Z</time></trkpt><trkpt lat="39.92533248593595" lon="-0.13623176702213696"><ele>47.0</ele><time>2026-04-19T17:44:58.999Z</time></trkpt><trkpt lat="39.92507296910465" lon="-0.13621229127804313"><ele>47.0</ele><time>2026-04-19T17:44:59.999Z</time></trkpt><trkpt lat="39.924806365810916" lon="-0.13618940736125185"><ele>47.0</ele><time>2026-04-19T17:45:00.999Z</time></trkpt><trkpt lat="39.92452708247363" lon="-0.13615821515332205"><ele>47.0</ele><time>2026-04-19T17:45:01.999Z</time></trkpt><trkpt lat="39.92424421798145" lon="-0.1361264773769229"><ele>47.0</ele><time>2026-04-19T17:45:02.999Z</time></trkpt><trkpt lat="39.923982397849805" lon="-0.13609645433122802"><ele>47.0</ele><time>2026-04-19T17:45:03.999Z</time></trkpt><trkpt lat="39.923724096977665" lon="-0.13605109871747584"><ele>47.0</ele><time>2026-04-19T17:45:04.999Z</time></trkpt><trkpt lat="39.923461758701634" lon="-0.1360066592318782"><ele>47.0</ele><time>2026-04-19T17:45:05.999Z</time></trkpt><trkpt lat="39.92320178893238" lon="-0.13596174124134122"><ele>46.0</ele><time>2026-04-19T17:45:06.999Z</time></trkpt><trkpt lat="39.92294798875802" lon="-0.1359152069307383"><ele>45.0</ele><time>2026-04-19T17:45:07.999Z</time></trkpt><trkpt lat="39.922698401124975" lon="-0.13586222308418217"><ele>45.5</ele><time>2026-04-19T17:45:08.999Z</time></trkpt><trkpt lat="39.922446007143634" lon="-0.13580400675028825"><ele>46.0</ele><time>2026-04-19T17:45:09.999Z</time></trkpt><trkpt lat="39.92219267455109" lon="-0.13574704301801685"><ele>44.5</ele><time>2026-04-19T17:45:10.999Z</time></trkpt><trkpt lat="39.921940106969764" lon="-0.13569789535158427"><ele>43.0</ele><time>2026-04-19T17:45:11.999Z</time></trkpt><trkpt lat="39.9216907212985" lon="-0.1356442152505529"><ele>43.0</ele><time>2026-04-19T17:45:12.999Z</time></trkpt><trkpt lat="39.92144491491564" lon="-0.13558867394530183"><ele>43.0</ele><time>2026-04-19T17:45:13.999Z</time></trkpt><trkpt lat="39.92119685081003" lon="-0.1355311963202811"><ele>43.0</ele><time>2026-04-19T17:45:14.999Z</time></trkpt><trkpt lat="39.92094998181338" lon="-0.13548272431370095"><ele>43.0</ele><time>2026-04-19T17:45:15.999Z</time></trkpt><trkpt lat="39.92070666570009" lon="-0.1354351536534218"><ele>41.5</ele><time>2026-04-19T17:45:16.999Z</time></trkpt><trkpt lat="39.920459089979005" lon="-0.1353856857861336"><ele>40.0</ele><time>2026-04-19T17:45:17.999Z</time></trkpt><trkpt lat="39.920203894975565" lon="-0.1353345701116561"><ele>41.0</ele><time>2026-04-19T17:45:18.999Z</time></trkpt><trkpt lat="39.91993994553933" lon="-0.13528619023465993"><ele>42.0</ele><time>2026-04-19T17:45:19.999Z</time></trkpt><trkpt lat="39.919675407532345" lon="-0.13524150198708998"><ele>42.0</ele><time>2026-04-19T17:45:20.999Z</time></trkpt><trkpt lat="39.919410702995606" lon="-0.13519872672603217"><ele>42.0</ele><time>2026-04-19T17:45:21.999Z</time></trkpt><trkpt lat="39.919149121674" lon="-0.13516146518143685"><ele>41.0</ele><time>2026-04-19T17:45:22.999Z</time></trkpt><trkpt lat="39.918895022808144" lon="-0.13511889631083876"><ele>40.0</ele><time>2026-04-19T17:45:23.999Z</time></trkpt><trkpt lat="39.91864232311425" lon="-0.1350726044575931"><ele>39.0</ele><time>2026-04-19T17:45:24.999Z</time></trkpt><trkpt lat="39.918389395313454" lon="-0.13504208095991174"><ele>38.0</ele><time>2026-04-19T17:45:25.999Z</time></trkpt><trkpt lat="39.91813355969445" lon="-0.13501690180921147"><ele>38.0</ele><time>2026-04-19T17:45:26.999Z</time></trkpt><trkpt lat="39.91787483240926" lon="-0.13499251332071144"><ele>38.0</ele><time>2026-04-19T17:45:27.999Z</time></trkpt><trkpt lat="39.91761043246837" lon="-0.13497049027561067"><ele>39.0</ele><time>2026-04-19T17:45:28.999Z</time></trkpt><trkpt lat="39.917345198514106" lon="-0.13495038075592392"><ele>40.0</ele><time>2026-04-19T17:45:29.999Z</time></trkpt><trkpt lat="39.91707541132696" lon="-0.13493596609610597"><ele>40.0</ele><time>2026-04-19T17:45:30.999Z</time></trkpt><trkpt lat="39.91680918167965" lon="-0.13492985846757408"><ele>40.0</ele><time>2026-04-19T17:45:31.999Z</time></trkpt><trkpt lat="39.91654414970393" lon="-0.13492678549440984"><ele>40.0</ele><time>2026-04-19T17:45:32.999Z</time></trkpt><trkpt lat="39.91627866160663" lon="-0.1349240293468309"><ele>40.0</ele><time>2026-04-19T17:45:33.999Z</time></trkpt><trkpt lat="39.91600936592869" lon="-0.1349260998384567"><ele>39.5</ele><time>2026-04-19T17:45:34.999Z</time></trkpt><trkpt lat="39.91574137551859" lon="-0.13492950194179312"><ele>39.0</ele><time>2026-04-19T17:45:35.999Z</time></trkpt><trkpt lat="39.915473768054824" lon="-0.13493772736591958"><ele>39.0</ele><time>2026-04-19T17:45:36.998Z</time></trkpt><trkpt lat="39.91521066858459" lon="-0.13494713760850122"><ele>39.0</ele><time>2026-04-19T17:45:37.998Z</time></trkpt><trkpt lat="39.91494676190578" lon="-0.13496420738259918"><ele>38.0</ele><time>2026-04-19T17:45:38.998Z</time></trkpt><trkpt lat="39.91468394762385" lon="-0.13498493942384193"><ele>37.0</ele><time>2026-04-19T17:45:39.998Z</time></trkpt><trkpt lat="39.9144180104051" lon="-0.13500555744555734"><ele>37.0</ele><time>2026-04-19T17:45:40.998Z</time></trkpt><trkpt lat="39.914151469622674" lon="-0.13502965084311783"><ele>37.0</ele><time>2026-04-19T17:45:41.998Z</time></trkpt><trkpt lat="39.913882706069586" lon="-0.13504930494634718"><ele>37.0</ele><time>2026-04-19T17:45:42.998Z</time></trkpt><trkpt lat="39.913611780831054" lon="-0.13506997080585684"><ele>37.0</ele><time>2026-04-19T17:45:43.998Z</time></trkpt><trkpt lat="39.91334111704892" lon="-0.13509541147331985"><ele>38.5</ele><time>2026-04-19T17:45:44.998Z</time></trkpt><trkpt lat="39.91306397886571" lon="-0.1351221838222887"><ele>40.0</ele><time>2026-04-19T17:45:45.998Z</time></trkpt><trkpt lat="39.91278100142466" lon="-0.13514649112487626"><ele>40.0</ele><time>2026-04-19T17:45:46.998Z</time></trkpt><trkpt lat="39.91249401558594" lon="-0.13517361476344006"><ele>40.0</ele><time>2026-04-19T17:45:47.998Z</time></trkpt><trkpt lat="39.91220798705242" lon="-0.13520238403700469"><ele>40.0</ele><time>2026-04-19T17:45:48.998Z</time></trkpt><trkpt lat="39.91192240526357" lon="-0.13522923082144828"><ele>40.0</ele><time>2026-04-19T17:45:50Z</time></trkpt><trkpt lat="39.91163897791561" lon="-0.13525327241033816"><ele>39.0</ele><time>2026-04-19T17:45:51Z</time></trkpt><trkpt lat="39.91135770396223" lon="-0.13527326554591337"><ele>38.0</ele><time>2026-04-19T17:45:52Z</time></trkpt><trkpt lat="39.91107594522582" lon="-0.13528974225391202"><ele>38.5</ele><time>2026-04-19T17:45:53Z</time></trkpt><trkpt lat="39.91079891914172" lon="-0.1353050124819164"><ele>39.0</ele><time>2026-04-19T17:45:54Z</time></trkpt><trkpt lat="39.91052587505912" lon="-0.13531184794890136"><ele>39.0</ele><time>2026-04-19T17:45:55Z</time></trkpt><trkpt lat="39.91025725873735" lon="-0.13531487158647168"><ele>39.0</ele><time>2026-04-19T17:45:56Z</time></trkpt><trkpt lat="39.9099841070584" lon="-0.13532000385132423"><ele>38.0</ele><time>2026-04-19T17:45:57Z</time></trkpt><trkpt lat="39.90971552284351" lon="-0.13531442697965804"><ele>37.0</ele><time>2026-04-19T17:45:58Z</time></trkpt><trkpt lat="39.90944284623221" lon="-0.13530445281468484"><ele>37.5</ele><time>2026-04-19T17:45:59Z</time></trkpt><trkpt lat="39.909165539225256" lon="-0.1352863394291849"><ele>38.0</ele><time>2026-04-19T17:46:00Z</time></trkpt><trkpt lat="39.90888981378438" lon="-0.1352658749330533"><ele>38.0</ele><time>2026-04-19T17:46:01Z</time></trkpt><trkpt lat="39.90862037533689" lon="-0.13523798640734389"><ele>38.0</ele><time>2026-04-19T17:46:02Z</time></trkpt><trkpt lat="39.90834453108464" lon="-0.1352064423178543"><ele>37.0</ele><time>2026-04-19T17:46:03Z</time></trkpt><trkpt lat="39.90806749534477" lon="-0.13516894547553526"><ele>36.0</ele><time>2026-04-19T17:46:04Z</time></trkpt><trkpt lat="39.907783088888486" lon="-0.13512609388297858"><ele>37.5</ele><time>2026-04-19T17:46:05Z</time></trkpt><trkpt lat="39.9075035427498" lon="-0.13507918927431406"><ele>39.0</ele><time>2026-04-19T17:46:06Z</time></trkpt><trkpt lat="39.90722825710644" lon="-0.13502489758645778"><ele>39.0</ele><time>2026-04-19T17:46:07Z</time></trkpt><trkpt lat="39.90695312461298" lon="-0.13496331117702418"><ele>39.0</ele><time>2026-04-19T17:46:08Z</time></trkpt><trkpt lat="39.90667635075742" lon="-0.1349032152622459"><ele>39.0</ele><time>2026-04-19T17:46:09Z</time></trkpt><trkpt lat="39.90638445566984" lon="-0.13483085149206817"><ele>39.0</ele><time>2026-04-19T17:46:10Z</time></trkpt><trkpt lat="39.90609060019749" lon="-0.13474587428170262"><ele>39.0</ele><time>2026-04-19T17:46:11Z</time></trkpt><trkpt lat="39.905789901940466" lon="-0.1346516647072027"><ele>39.0</ele><time>2026-04-19T17:46:12Z</time></trkpt><trkpt lat="39.90548832630639" lon="-0.13454897663295512"><ele>39.0</ele><time>2026-04-19T17:46:13Z</time></trkpt><trkpt lat="39.90518722784057" lon="-0.1344440903325458"><ele>39.0</ele><time>2026-04-19T17:46:14Z</time></trkpt><trkpt lat="39.90489601468895" lon="-0.13433067006571178"><ele>40.0</ele><time>2026-04-19T17:46:15Z</time></trkpt><trkpt lat="39.90461406517861" lon="-0.1342219869055729"><ele>41.0</ele><time>2026-04-19T17:46:16Z</time></trkpt><trkpt lat="39.904339548823394" lon="-0.1341100817559078"><ele>38.5</ele><time>2026-04-19T17:46:17Z</time></trkpt><trkpt lat="39.90407362947565" lon="-0.13399712181368376"><ele>36.0</ele><time>2026-04-19T17:46:18Z</time></trkpt><trkpt lat="39.90381993774931" lon="-0.13388896932551952"><ele>36.0</ele><time>2026-04-19T17:46:19Z</time></trkpt><trkpt lat="39.90357547713067" lon="-0.13377916800270123"><ele>36.0</ele><time>2026-04-19T17:46:20Z</time></trkpt><trkpt lat="39.903331688483526" lon="-0.1336706094165415"><ele>36.5</ele><time>2026-04-19T17:46:21Z</time></trkpt><trkpt lat="39.90308839368786" lon="-0.13356054411925264"><ele>37.0</ele><time>2026-04-19T17:46:22Z</time></trkpt><trkpt lat="39.90285893988633" lon="-0.13344918565226996"><ele>37.0</ele><time>2026-04-19T17:46:23Z</time></trkpt><trkpt lat="39.90263208881192" lon="-0.1333381361330077"><ele>37.0</ele><time>2026-04-19T17:46:24Z</time></trkpt><trkpt lat="39.902397865935846" lon="-0.13322737295074136"><ele>36.0</ele><time>2026-04-19T17:46:25Z</time></trkpt><trkpt lat="39.90216208544032" lon="-0.13311071339118904"><ele>35.0</ele><time>2026-04-19T17:46:26Z</time></trkpt><trkpt lat="39.901915947984" lon="-0.1329994455570889"><ele>35.5</ele><time>2026-04-19T17:46:27Z</time></trkpt><trkpt lat="39.90167504671599" lon="-0.132885484623092"><ele>36.0</ele><time>2026-04-19T17:46:28Z</time></trkpt><trkpt lat="39.90143397275005" lon="-0.13277199401283388"><ele>36.0</ele><time>2026-04-19T17:46:29Z</time></trkpt><trkpt lat="39.90119624153889" lon="-0.13266343993462443"><ele>36.0</ele><time>2026-04-19T17:46:30Z</time></trkpt><trkpt lat="39.900956532991735" lon="-0.1325597427062299"><ele>34.5</ele><time>2026-04-19T17:46:31Z</time></trkpt><trkpt lat="39.90072355410209" lon="-0.13245454920775138"><ele>33.0</ele><time>2026-04-19T17:46:32Z</time></trkpt><trkpt lat="39.90049062368113" lon="-0.13234833905621265"><ele>33.0</ele><time>2026-04-19T17:46:33Z</time></trkpt><trkpt lat="39.900256122567114" lon="-0.1322447983600765"><ele>33.0</ele><time>2026-04-19T17:46:33.999Z</time></trkpt><trkpt lat="39.90002038082803" lon="-0.13214633200292064"><ele>33.0</ele><time>2026-04-19T17:46:34.999Z</time></trkpt><trkpt lat="39.89978260079096" lon="-0.13204605973908956"><ele>33.0</ele><time>2026-04-19T17:46:35.999Z</time></trkpt><trkpt lat="39.89954386534674" lon="-0.13194864305471787"><ele>33.0</ele><time>2026-04-19T17:46:36.999Z</time></trkpt><trkpt lat="39.89930797265366" lon="-0.1318526256070995"><ele>33.0</ele><time>2026-04-19T17:46:37.999Z</time></trkpt><trkpt lat="39.8990703795216" lon="-0.1317649336517313"><ele>33.5</ele><time>2026-04-19T17:46:38.999Z</time></trkpt><trkpt lat="39.89883218359213" lon="-0.13167927850999295"><ele>34.0</ele><time>2026-04-19T17:46:39.999Z</time></trkpt><trkpt lat="39.89859340213819" lon="-0.131592661752106"><ele>34.0</ele><time>2026-04-19T17:46:40.999Z</time></trkpt><trkpt lat="39.8983560852772" lon="-0.13150711728054781"><ele>34.0</ele><time>2026-04-19T17:46:41.999Z</time></trkpt><trkpt lat="39.89811814674928" lon="-0.13142423025999359"><ele>34.0</ele><time>2026-04-19T17:46:42.999Z</time></trkpt><trkpt lat="39.89788145360703" lon="-0.1313387315237935"><ele>34.0</ele><time>2026-04-19T17:46:43.999Z</time></trkpt><trkpt lat="39.89764599186851" lon="-0.13125644499963557"><ele>33.5</ele><time>2026-04-19T17:46:44.999Z</time></trkpt><trkpt lat="39.897410937974556" lon="-0.1311790911101549"><ele>33.0</ele><time>2026-04-19T17:46:45.999Z</time></trkpt><trkpt lat="39.897184372564695" lon="-0.13109903562273162"><ele>33.0</ele><time>2026-04-19T17:46:46.999Z</time></trkpt><trkpt lat="39.89695351478945" lon="-0.1310305868058023"><ele>33.0</ele><time>2026-04-19T17:46:47.999Z</time></trkpt><trkpt lat="39.89671361048965" lon="-0.13095580053873596"><ele>32.5</ele><time>2026-04-19T17:46:48.999Z</time></trkpt><trkpt lat="39.89647802921383" lon="-0.130871883448532"><ele>32.0</ele><time>2026-04-19T17:46:49.999Z</time></trkpt><trkpt lat="39.896240029248084" lon="-0.1307928559518857"><ele>31.5</ele><time>2026-04-19T17:46:50.999Z</time></trkpt><trkpt lat="39.89600313378623" lon="-0.13071178058282276"><ele>31.0</ele><time>2026-04-19T17:46:51.999Z</time></trkpt><trkpt lat="39.89576630740778" lon="-0.1306321292425993"><ele>31.0</ele><time>2026-04-19T17:46:52.999Z</time></trkpt><trkpt lat="39.89553036971196" lon="-0.13055041968395145"><ele>31.0</ele><time>2026-04-19T17:46:53.999Z</time></trkpt><trkpt lat="39.8952957698103" lon="-0.13046869272570688"><ele>31.0</ele><time>2026-04-19T17:46:54.999Z</time></trkpt><trkpt lat="39.89506787437124" lon="-0.13038543265447305"><ele>31.0</ele><time>2026-04-19T17:46:55.999Z</time></trkpt><trkpt lat="39.89484276669082" lon="-0.13031152024438242"><ele>31.0</ele><time>2026-04-19T17:46:56.999Z</time></trkpt><trkpt lat="39.89461618808641" lon="-0.1302418095327461"><ele>31.0</ele><time>2026-04-19T17:46:57.999Z</time></trkpt><trkpt lat="39.89438717472483" lon="-0.13017013310461834"><ele>30.5</ele><time>2026-04-19T17:46:58.999Z</time></trkpt><trkpt lat="39.89415686436377" lon="-0.13009259011927052"><ele>30.0</ele><time>2026-04-19T17:46:59.999Z</time></trkpt><trkpt lat="39.89392614675258" lon="-0.13001496152926068"><ele>30.0</ele><time>2026-04-19T17:47:00.999Z</time></trkpt><trkpt lat="39.893699167071816" lon="-0.12992986618538227"><ele>30.0</ele><time>2026-04-19T17:47:01.999Z</time></trkpt><trkpt lat="39.89347177755725" lon="-0.12983464507945916"><ele>28.5</ele><time>2026-04-19T17:47:02.999Z</time></trkpt><trkpt lat="39.893243113499736" lon="-0.12975318933028426"><ele>27.0</ele><time>2026-04-19T17:47:03.999Z</time></trkpt><trkpt lat="39.89300654876298" lon="-0.12966847416720584"><ele>27.0</ele><time>2026-04-19T17:47:04.999Z</time></trkpt><trkpt lat="39.89277325776216" lon="-0.12957514955605678"><ele>27.0</ele><time>2026-04-19T17:47:05.999Z</time></trkpt><trkpt lat="39.8925399983292" lon="-0.12948112272491982"><ele>28.5</ele><time>2026-04-19T17:47:06.999Z</time></trkpt><trkpt lat="39.89231160059072" lon="-0.1293847095648468"><ele>30.0</ele><time>2026-04-19T17:47:07.999Z</time></trkpt><trkpt lat="39.892093156939005" lon="-0.12929048509948166"><ele>30.0</ele><time>2026-04-19T17:47:08.999Z</time></trkpt><trkpt lat="39.89187452505516" lon="-0.12919670992291288"><ele>30.0</ele><time>2026-04-19T17:47:09.999Z</time></trkpt><trkpt lat="39.89165473006197" lon="-0.1290974669420097"><ele>28.5</ele><time>2026-04-19T17:47:10.999Z</time></trkpt><trkpt lat="39.89143846981549" lon="-0.12899673204679216"><ele>27.0</ele><time>2026-04-19T17:47:11.999Z</time></trkpt><trkpt lat="39.891219636036205" lon="-0.12889739844949827"><ele>27.0</ele><time>2026-04-19T17:47:12.999Z</time></trkpt><trkpt lat="39.89099552566041" lon="-0.12880013980088764"><ele>27.0</ele><time>2026-04-19T17:47:13.999Z</time></trkpt><trkpt lat="39.89078163361402" lon="-0.12870618162239114"><ele>27.5</ele><time>2026-04-19T17:47:14.999Z</time></trkpt><trkpt lat="39.89057004148668" lon="-0.1285971070041213"><ele>28.0</ele><time>2026-04-19T17:47:15.999Z</time></trkpt><trkpt lat="39.890363150068666" lon="-0.12849224815519855"><ele>28.0</ele><time>2026-04-19T17:47:16.999Z</time></trkpt><trkpt lat="39.89016604926803" lon="-0.1283914531786463"><ele>28.0</ele><time>2026-04-19T17:47:17.999Z</time></trkpt><trkpt lat="39.88996617828535" lon="-0.12829304664815067"><ele>28.0</ele><time>2026-04-19T17:47:18.999Z</time></trkpt><trkpt lat="39.88976038698292" lon="-0.12819539876754074"><ele>27.666666666666668</ele><time>2026-04-19T17:47:19.999Z</time></trkpt><trkpt lat="39.88955829289069" lon="-0.1280946900840359"><ele>27.333333333333336</ele><time>2026-04-19T17:47:20.999Z</time></trkpt><trkpt lat="39.88936017118121" lon="-0.12798634836262415"><ele>27.0</ele><time>2026-04-19T17:47:21.999Z</time></trkpt><trkpt lat="39.889159143738965" lon="-0.12788129820861324"><ele>27.0</ele><time>2026-04-19T17:47:22.999Z</time></trkpt><trkpt lat="39.88895881322054" lon="-0.12777527023598734"><ele>27.0</ele><time>2026-04-19T17:47:23.999Z</time></trkpt><trkpt lat="39.88875179311791" lon="-0.12766860120615858"><ele>27.0</ele><time>2026-04-19T17:47:24.999Z</time></trkpt><trkpt lat="39.88854589663691" lon="-0.12755821476993967"><ele>27.666666666666664</ele><time>2026-04-19T17:47:25.999Z</time></trkpt><trkpt lat="39.88834063607194" lon="-0.1274467471298255"><ele>28.333333333333332</ele><time>2026-04-19T17:47:26.999Z</time></trkpt><trkpt lat="39.88813354848832" lon="-0.12734135010554232"><ele>29.0</ele><time>2026-04-19T17:47:27.999Z</time></trkpt><trkpt lat="39.88793060788493" lon="-0.12722973825051753"><ele>27.666666666666664</ele><time>2026-04-19T17:47:28.999Z</time></trkpt><trkpt lat="39.88772142258696" lon="-0.12712527188162645"><ele>26.333333333333336</ele><time>2026-04-19T17:47:29.999Z</time></trkpt><trkpt lat="39.88751739296333" lon="-0.12702686395288387"><ele>25.0</ele><time>2026-04-19T17:47:30.999Z</time></trkpt><trkpt lat="39.88730452501917" lon="-0.12692766469991465"><ele>25.0</ele><time>2026-04-19T17:47:31.999Z</time></trkpt><trkpt lat="39.887086920404556" lon="-0.12682757803731404"><ele>25.0</ele><time>2026-04-19T17:47:32.999Z</time></trkpt><trkpt lat="39.886878302964945" lon="-0.12672382428050358"><ele>24.333333333333336</ele><time>2026-04-19T17:47:33.999Z</time></trkpt><trkpt lat="39.88667692535307" lon="-0.1266248771147736"><ele>23.666666666666668</ele><time>2026-04-19T17:47:34.999Z</time></trkpt><trkpt lat="39.8864734656621" lon="-0.12653007427409999"><ele>23.0</ele><time>2026-04-19T17:47:35.999Z</time></trkpt><trkpt lat="39.88627212967538" lon="-0.12643398299239664"><ele>23.0</ele><time>2026-04-19T17:47:36.999Z</time></trkpt><trkpt lat="39.88607765766211" lon="-0.12634525411993114"><ele>23.0</ele><time>2026-04-19T17:47:37.999Z</time></trkpt><trkpt lat="39.88586663274638" lon="-0.1262529073649129"><ele>23.0</ele><time>2026-04-19T17:47:38.999Z</time></trkpt><trkpt lat="39.88566964616398" lon="-0.1261639974542606"><ele>23.0</ele><time>2026-04-19T17:47:39.999Z</time></trkpt><trkpt lat="39.885473454252065" lon="-0.1260697542057549"><ele>23.0</ele><time>2026-04-19T17:47:40.999Z</time></trkpt><trkpt lat="39.88526565859026" lon="-0.12598577222736443"><ele>23.0</ele><time>2026-04-19T17:47:41.999Z</time></trkpt><trkpt lat="39.88506130164723" lon="-0.12590292795758154"><ele>22.333333333333336</ele><time>2026-04-19T17:47:42.998Z</time></trkpt><trkpt lat="39.88486181697315" lon="-0.1258157696817076"><ele>21.666666666666668</ele><time>2026-04-19T17:47:43.998Z</time></trkpt><trkpt lat="39.88465003115934" lon="-0.1257309775806517"><ele>21.0</ele><time>2026-04-19T17:47:44.998Z</time></trkpt><trkpt lat="39.88444668356392" lon="-0.1256485098084734"><ele>21.0</ele><time>2026-04-19T17:47:45.998Z</time></trkpt><trkpt lat="39.88424385368529" lon="-0.12556177378115524"><ele>21.0</ele><time>2026-04-19T17:47:46.998Z</time></trkpt><trkpt lat="39.884047810663404" lon="-0.12547952604564525"><ele>21.0</ele><time>2026-04-19T17:47:47.998Z</time></trkpt><trkpt lat="39.883847655095934" lon="-0.12539593772308127"><ele>21.0</ele><time>2026-04-19T17:47:48.998Z</time></trkpt><trkpt lat="39.88364087458417" lon="-0.1253185235218524"><ele>21.0</ele><time>2026-04-19T17:47:49.998Z</time></trkpt><trkpt lat="39.883435068415864" lon="-0.12523813942411166"><ele>21.0</ele><time>2026-04-19T17:47:50.998Z</time></trkpt><trkpt lat="39.88322915929881" lon="-0.12516025366041053"><ele>21.333333333333332</ele><time>2026-04-19T17:47:51.998Z</time></trkpt><trkpt lat="39.88302042694504" lon="-0.12507815629279304"><ele>21.666666666666664</ele><time>2026-04-19T17:47:52.998Z</time></trkpt><trkpt lat="39.88280804390978" lon="-0.12499849677922108"><ele>22.0</ele><time>2026-04-19T17:47:53.998Z</time></trkpt><trkpt lat="39.88259503782074" lon="-0.12491953752469204"><ele>21.0</ele><time>2026-04-19T17:47:54.998Z</time></trkpt><trkpt lat="39.88237871072747" lon="-0.12483893075538151"><ele>20.0</ele><time>2026-04-19T17:47:56Z</time></trkpt><trkpt lat="39.882167958988575" lon="-0.12476476351690036"><ele>19.0</ele><time>2026-04-19T17:47:57Z</time></trkpt><trkpt lat="39.88195503665385" lon="-0.12468897705212033"><ele>20.0</ele><time>2026-04-19T17:47:58Z</time></trkpt><trkpt lat="39.881748626747736" lon="-0.12461443261163405"><ele>21.0</ele><time>2026-04-19T17:47:59Z</time></trkpt><trkpt lat="39.88154616698432" lon="-0.12453979308255307"><ele>22.0</ele><time>2026-04-19T17:48:00Z</time></trkpt><trkpt lat="39.881336962388076" lon="-0.12446826706434382"><ele>22.0</ele><time>2026-04-19T17:48:01Z</time></trkpt><trkpt lat="39.881128923578686" lon="-0.1243961030963251"><ele>22.0</ele><time>2026-04-19T17:48:02Z</time></trkpt><trkpt lat="39.88091203301114" lon="-0.12432770450522991"><ele>22.0</ele><time>2026-04-19T17:48:03Z</time></trkpt><trkpt lat="39.88069411140855" lon="-0.12425943257433941"><ele>22.0</ele><time>2026-04-19T17:48:04Z</time></trkpt><trkpt lat="39.880475255317904" lon="-0.12419111146447347"><ele>22.0</ele><time>2026-04-19T17:48:05Z</time></trkpt><trkpt lat="39.88025986162994" lon="-0.12411676063539634"><ele>22.0</ele><time>2026-04-19T17:48:06Z</time></trkpt><trkpt lat="39.88004955055571" lon="-0.12404415755732127"><ele>21.0</ele><time>2026-04-19T17:48:07Z</time></trkpt><trkpt lat="39.879844755882274" lon="-0.12398233359109521"><ele>20.0</ele><time>2026-04-19T17:48:08Z</time></trkpt><trkpt lat="39.879631474731866" lon="-0.12392489280202333"><ele>19.0</ele><time>2026-04-19T17:48:09Z</time></trkpt><trkpt lat="39.87942579479482" lon="-0.12386384222442326"><ele>19.0</ele><time>2026-04-19T17:48:10Z</time></trkpt><trkpt lat="39.87921362436212" lon="-0.12379827436842702"><ele>19.0</ele><time>2026-04-19T17:48:11Z</time></trkpt><trkpt lat="39.879004182598294" lon="-0.12373630422511203"><ele>19.0</ele><time>2026-04-19T17:48:12Z</time></trkpt><trkpt lat="39.87879733604347" lon="-0.12367770252512358"><ele>19.0</ele><time>2026-04-19T17:48:13Z</time></trkpt><trkpt lat="39.878587005241336" lon="-0.12361823458498014"><ele>19.0</ele><time>2026-04-19T17:48:14Z</time></trkpt><trkpt lat="39.87837366129043" lon="-0.12355949471110528"><ele>19.0</ele><time>2026-04-19T17:48:15Z</time></trkpt><trkpt lat="39.87815971769728" lon="-0.12350210529480249"><ele>19.333333333333332</ele><time>2026-04-19T17:48:16Z</time></trkpt><trkpt lat="39.87794443198196" lon="-0.12344558971546146"><ele>19.666666666666668</ele><time>2026-04-19T17:48:17Z</time></trkpt><trkpt lat="39.87772785446241" lon="-0.1233881937456716"><ele>20.0</ele><time>2026-04-19T17:48:18Z</time></trkpt><trkpt lat="39.87751617728838" lon="-0.12333453018283032"><ele>20.0</ele><time>2026-04-19T17:48:19Z</time></trkpt><trkpt lat="39.87731054526366" lon="-0.12328186872850028"><ele>20.0</ele><time>2026-04-19T17:48:20Z</time></trkpt><trkpt lat="39.87710591125643" lon="-0.12322943617196584"><ele>20.0</ele><time>2026-04-19T17:48:21Z</time></trkpt><trkpt lat="39.8768978302188" lon="-0.12317540321369455"><ele>18.666666666666668</ele><time>2026-04-19T17:48:22Z</time></trkpt><trkpt lat="39.876688763205166" lon="-0.12312701597035935"><ele>17.333333333333332</ele><time>2026-04-19T17:48:23Z</time></trkpt><trkpt lat="39.87647592127406" lon="-0.12307611989401865"><ele>16.0</ele><time>2026-04-19T17:48:24Z</time></trkpt><trkpt lat="39.876263422719774" lon="-0.12302782358500623"><ele>16.0</ele><time>2026-04-19T17:48:25Z</time></trkpt><trkpt lat="39.87604677320571" lon="-0.12298362864174141"><ele>16.0</ele><time>2026-04-19T17:48:26Z</time></trkpt><trkpt lat="39.87583207652262" lon="-0.12293767261495453"><ele>16.0</ele><time>2026-04-19T17:48:27Z</time></trkpt><trkpt lat="39.87561711936453" lon="-0.12289013077554797"><ele>16.333333333333332</ele><time>2026-04-19T17:48:28Z</time></trkpt><trkpt lat="39.87539782820089" lon="-0.12284459303628004"><ele>16.666666666666668</ele><time>2026-04-19T17:48:29Z</time></trkpt><trkpt lat="39.875182845855186" lon="-0.1227987762028331"><ele>17.0</ele><time>2026-04-19T17:48:30Z</time></trkpt><trkpt lat="39.87496507871206" lon="-0.12275565655110106"><ele>17.0</ele><time>2026-04-19T17:48:31Z</time></trkpt><trkpt lat="39.87475070654784" lon="-0.12271576361454051"><ele>17.0</ele><time>2026-04-19T17:48:32Z</time></trkpt><trkpt lat="39.87453832056198" lon="-0.12267986390315289"><ele>17.0</ele><time>2026-04-19T17:48:33Z</time></trkpt><trkpt lat="39.874325372191755" lon="-0.12264304825286947"><ele>16.333333333333336</ele><time>2026-04-19T17:48:34Z</time></trkpt><trkpt lat="39.87410897426179" lon="-0.12260906351679943"><ele>15.666666666666668</ele><time>2026-04-19T17:48:35Z</time></trkpt><trkpt lat="39.87389296626462" lon="-0.12257557920722244"><ele>15.0</ele><time>2026-04-19T17:48:36Z</time></trkpt><trkpt lat="39.8736778407502" lon="-0.12254406797199409"><ele>15.0</ele><time>2026-04-19T17:48:37Z</time></trkpt><trkpt lat="39.8734568817672" lon="-0.1225164625003106"><ele>15.0</ele><time>2026-04-19T17:48:38Z</time></trkpt><trkpt lat="39.87324154163889" lon="-0.12248445670728672"><ele>15.0</ele><time>2026-04-19T17:48:39Z</time></trkpt><trkpt lat="39.8730189723017" lon="-0.12245514475138346"><ele>15.0</ele><time>2026-04-19T17:48:40Z</time></trkpt><trkpt lat="39.87280447268292" lon="-0.12242634994367464"><ele>15.0</ele><time>2026-04-19T17:48:41Z</time></trkpt><trkpt lat="39.87257893624566" lon="-0.12240199811314526"><ele>15.0</ele><time>2026-04-19T17:48:41.999Z</time></trkpt><trkpt lat="39.87236256412078" lon="-0.12238131779978134"><ele>15.333333333333332</ele><time>2026-04-19T17:48:42.999Z</time></trkpt><trkpt lat="39.872138990655515" lon="-0.12236915138775574"><ele>15.666666666666666</ele><time>2026-04-19T17:48:43.999Z</time></trkpt><trkpt lat="39.871917903558746" lon="-0.12234521568535048"><ele>16.0</ele><time>2026-04-19T17:48:44.999Z</time></trkpt><trkpt lat="39.87169489548361" lon="-0.12232733815935924"><ele>16.0</ele><time>2026-04-19T17:48:45.999Z</time></trkpt><trkpt lat="39.87147362264746" lon="-0.1223086134716604"><ele>16.0</ele><time>2026-04-19T17:48:46.999Z</time></trkpt><trkpt lat="39.871253839215214" lon="-0.12228968417105937"><ele>16.0</ele><time>2026-04-19T17:48:47.999Z</time></trkpt><trkpt lat="39.87103019959352" lon="-0.12227593724797535"><ele>15.333333333333332</ele><time>2026-04-19T17:48:48.999Z</time></trkpt><trkpt lat="39.8708113703546" lon="-0.12227895028264373"><ele>14.666666666666668</ele><time>2026-04-19T17:48:49.999Z</time></trkpt><trkpt lat="39.8705945005586" lon="-0.12227556949917369"><ele>14.0</ele><time>2026-04-19T17:48:50.999Z</time></trkpt><trkpt lat="39.870381585772506" lon="-0.12226153413054607"><ele>14.0</ele><time>2026-04-19T17:48:51.999Z</time></trkpt><trkpt lat="39.87016706046446" lon="-0.12225206193642159"><ele>14.0</ele><time>2026-04-19T17:48:52.999Z</time></trkpt><trkpt lat="39.86995149688262" lon="-0.1222483517326722"><ele>14.0</ele><time>2026-04-19T17:48:53.999Z</time></trkpt><trkpt lat="39.86973518718451" lon="-0.12224610348410642"><ele>13.333333333333334</ele><time>2026-04-19T17:48:54.999Z</time></trkpt><trkpt lat="39.869525026496625" lon="-0.12224669618638077"><ele>12.666666666666668</ele><time>2026-04-19T17:48:55.999Z</time></trkpt><trkpt lat="39.869328968529935" lon="-0.12224797210190039"><ele>12.0</ele><time>2026-04-19T17:48:56.999Z</time></trkpt><trkpt lat="39.869125269577395" lon="-0.12225201067868247"><ele>11.333333333333334</ele><time>2026-04-19T17:48:57.999Z</time></trkpt><trkpt lat="39.868920240836374" lon="-0.12225672167386327"><ele>10.666666666666668</ele><time>2026-04-19T17:48:58.999Z</time></trkpt><trkpt lat="39.86871747544367" lon="-0.12226627995485985"><ele>10.0</ele><time>2026-04-19T17:48:59.999Z</time></trkpt><trkpt lat="39.868513533350715" lon="-0.12227650510225846"><ele>9.666666666666668</ele><time>2026-04-19T17:49:00.999Z</time></trkpt><trkpt lat="39.86830963958727" lon="-0.12228915504859512"><ele>9.333333333333334</ele><time>2026-04-19T17:49:01.999Z</time></trkpt><trkpt lat="39.868099017011446" lon="-0.12230074526455842"><ele>9.0</ele><time>2026-04-19T17:49:02.999Z</time></trkpt><trkpt lat="39.867895362592684" lon="-0.12231140874411783"><ele>9.0</ele><time>2026-04-19T17:49:03.999Z</time></trkpt><trkpt lat="39.867692236480295" lon="-0.12232965456945953"><ele>9.0</ele><time>2026-04-19T17:49:04.999Z</time></trkpt><trkpt lat="39.867489807975126" lon="-0.1223546632855565"><ele>9.0</ele><time>2026-04-19T17:49:05.999Z</time></trkpt><trkpt lat="39.867297264105105" lon="-0.12237978174183224"><ele>9.333333333333334</ele><time>2026-04-19T17:49:06.999Z</time></trkpt><trkpt lat="39.867114230385035" lon="-0.12240288908073292"><ele>9.666666666666668</ele><time>2026-04-19T17:49:07.999Z</time></trkpt><trkpt lat="39.8669439150063" lon="-0.12241753715542673"><ele>10.0</ele><time>2026-04-19T17:49:08.999Z</time></trkpt><trkpt lat="39.86678086115533" lon="-0.12243848859879833"><ele>10.333333333333334</ele><time>2026-04-19T17:49:09.999Z</time></trkpt><trkpt lat="39.86661530520005" lon="-0.12245525482836508"><ele>10.666666666666666</ele><time>2026-04-19T17:49:10.999Z</time></trkpt><trkpt lat="39.86644311051488" lon="-0.12248291101234139"><ele>11.0</ele><time>2026-04-19T17:49:11.999Z</time></trkpt><trkpt lat="39.86628426481604" lon="-0.12252512415282371"><ele>11.0</ele><time>2026-04-19T17:49:12.999Z</time></trkpt><trkpt lat="39.86614830830828" lon="-0.12258980589764765"><ele>11.0</ele><time>2026-04-19T17:49:13.999Z</time></trkpt><trkpt lat="39.86603498316831" lon="-0.1226880391650574"><ele>11.0</ele><time>2026-04-19T17:49:14.999Z</time></trkpt><trkpt lat="39.86593741059091" lon="-0.1227914361112448"><ele>11.0</ele><time>2026-04-19T17:49:15.999Z</time></trkpt><trkpt lat="39.86586699089264" lon="-0.12290568049293105"><ele>11.0</ele><time>2026-04-19T17:49:16.999Z</time></trkpt><trkpt lat="39.86580488418255" lon="-0.12300480638884918"><ele>11.0</ele><time>2026-04-19T17:49:17.999Z</time></trkpt><trkpt lat="39.86575843513927" lon="-0.12308833151065295"><ele>11.0</ele><time>2026-04-19T17:49:18.999Z</time></trkpt><trkpt lat="39.8657145536891" lon="-0.12315945480922785"><ele>11.0</ele><time>2026-04-19T17:49:19.999Z</time></trkpt><trkpt lat="39.86557062008136" lon="-0.12311660798373814"><ele>11.0</ele><time>2026-04-19T17:49:20.999Z</time></trkpt><trkpt lat="39.86548001148966" lon="-0.1231113495239772"><ele>11.0</ele><time>2026-04-19T17:49:21.999Z</time></trkpt><trkpt lat="39.865409834424135" lon="-0.1231053902813091"><ele>11.0</ele><time>2026-04-19T17:49:22.999Z</time></trkpt><trkpt lat="39.86529277936838" lon="-0.12312738828607851"><ele>11.0</ele><time>2026-04-19T17:49:24.999Z</time></trkpt><trkpt lat="39.865171099931565" lon="-0.12316406601927969"><ele>11.0</ele><time>2026-04-19T17:49:26.999Z</time></trkpt><trkpt lat="39.86511051085359" lon="-0.12319833258039331"><ele>11.0</ele><time>2026-04-19T17:49:27.999Z</time></trkpt><trkpt lat="39.865051718082285" lon="-0.12329524158561826"><ele>11.0</ele><time>2026-04-19T17:49:29.999Z</time></trkpt><trkpt lat="39.8650343832736" lon="-0.12338165771035664"><ele>11.0</ele><time>2026-04-19T17:49:31.999Z</time></trkpt><trkpt lat="39.864965064420865" lon="-0.12340499229696181"><ele>11.0</ele><time>2026-04-19T17:49:33.999Z</time></trkpt><trkpt lat="39.864911117866484" lon="-0.1234874038709597"><ele>11.0</ele><time>2026-04-19T17:49:36.999Z</time></trkpt><trkpt lat="39.86497019116435" lon="-0.12359155601836758"><ele>11.0</ele><time>2026-04-19T17:59:55.999Z</time></trkpt><trkpt lat="39.865022045123695" lon="-0.12369844316808742"><ele>11.0</ele><time>2026-04-19T18:18:44.999Z</time></trkpt><trkpt lat="39.864939954396796" lon="-0.12377541941091345"><ele>11.0</ele><time>2026-04-19T18:18:47.998Z</time></trkpt><trkpt lat="39.86484164039402" lon="-0.12384518523937624"><ele>11.0</ele><time>2026-04-19T18:18:49.998Z</time></trkpt><trkpt lat="39.864719861113386" lon="-0.12385414434370383"><ele>11.0</ele><time>2026-04-19T18:18:51.998Z</time></trkpt><trkpt lat="39.86462272871688" lon="-0.12385849842317488"><ele>11.0</ele><time>2026-04-19T18:18:53.998Z</time></trkpt><trkpt lat="39.86452281370535" lon="-0.12387024020829092"><ele>11.0</ele><time>2026-04-19T18:18:55.998Z</time></trkpt><trkpt lat="39.86441425094558" lon="-0.1238726439870634"><ele>11.0</ele><time>2026-04-19T18:18:57.998Z</time></trkpt><trkpt lat="39.864294288105356" lon="-0.12385823116830037"><ele>11.0</ele><time>2026-04-19T18:18:59.998Z</time></trkpt><trkpt lat="39.864236831792844" lon="-0.12390203518844782"><ele>11.0</ele><time>2026-04-19T18:19:00.998Z</time></trkpt><trkpt lat="39.86418092252959" lon="-0.1237684693888861"><ele>11.0</ele><time>2026-04-19T18:19:01.998Z</time></trkpt><trkpt lat="39.86413167197389" lon="-0.12371034075058111"><ele>11.0</ele><time>2026-04-19T18:19:02.998Z</time></trkpt><trkpt lat="39.86408426017465" lon="-0.12364976220650416"><ele>11.0</ele><time>2026-04-19T18:19:03.998Z</time></trkpt><trkpt lat="39.86403862823133" lon="-0.12358213083296314"><ele>11.0</ele><time>2026-04-19T18:19:04.998Z</time></trkpt><trkpt lat="39.863995386734686" lon="-0.12350842731283779"><ele>11.0</ele><time>2026-04-19T18:19:05.998Z</time></trkpt><trkpt lat="39.863947518286494" lon="-0.12343288637680921"><ele>11.0</ele><time>2026-04-19T18:19:06.998Z</time></trkpt><trkpt lat="39.86389558578762" lon="-0.12336765100449874"><ele>11.0</ele><time>2026-04-19T18:19:07.998Z</time></trkpt><trkpt lat="39.863797724770826" lon="-0.12326026994738304"><ele>11.0</ele><time>2026-04-19T18:19:09.998Z</time></trkpt><trkpt lat="39.86373420810157" lon="-0.12321027673376028"><ele>11.0</ele><time>2026-04-19T18:19:10.998Z</time></trkpt><trkpt lat="39.863667990646995" lon="-0.12317373558941969"><ele>11.0</ele><time>2026-04-19T18:19:11.998Z</time></trkpt><trkpt lat="39.863589055321555" lon="-0.12312734591506297"><ele>11.0</ele><time>2026-04-19T18:19:12.998Z</time></trkpt><trkpt lat="39.86351454777325" lon="-0.12315090076574574"><ele>11.0</ele><time>2026-04-19T18:19:13.998Z</time></trkpt><trkpt lat="39.86342410833003" lon="-0.12320672101068059"><ele>11.0</ele><time>2026-04-19T18:19:14.998Z</time></trkpt><trkpt lat="39.86325179546116" lon="-0.1232574257059555"><ele>11.0</ele><time>2026-04-19T18:19:15.998Z</time></trkpt><trkpt lat="39.86313029629698" lon="-0.12320314546197383"><ele>10.666666666666666</ele><time>2026-04-19T18:19:16.998Z</time></trkpt><trkpt lat="39.86299336812583" lon="-0.12317955193580435"><ele>10.333333333333334</ele><time>2026-04-19T18:19:17.998Z</time></trkpt><trkpt lat="39.86283123643337" lon="-0.1231832684931882"><ele>10.0</ele><time>2026-04-19T18:19:18.998Z</time></trkpt><trkpt lat="39.862660918198216" lon="-0.12318369519364544"><ele>9.666666666666668</ele><time>2026-04-19T18:19:19.998Z</time></trkpt><trkpt lat="39.86249227350938" lon="-0.12318119432078387"><ele>9.333333333333334</ele><time>2026-04-19T18:19:20.998Z</time></trkpt><trkpt lat="39.86232093636216" lon="-0.12318602496955662"><ele>9.0</ele><time>2026-04-19T18:19:21.998Z</time></trkpt><trkpt lat="39.862139082928486" lon="-0.12320401336114532"><ele>9.0</ele><time>2026-04-19T18:19:22.998Z</time></trkpt><trkpt lat="39.861931318861146" lon="-0.12323620425002822"><ele>9.0</ele><time>2026-04-19T18:19:23.998Z</time></trkpt><trkpt lat="39.861715813924995" lon="-0.12327314156573853"><ele>9.0</ele><time>2026-04-19T18:19:25Z</time></trkpt><trkpt lat="39.861483369160766" lon="-0.12330955023779316"><ele>9.0</ele><time>2026-04-19T18:19:26Z</time></trkpt><trkpt lat="39.861236821383784" lon="-0.12333756993367227"><ele>9.0</ele><time>2026-04-19T18:19:27Z</time></trkpt><trkpt lat="39.86097649878658" lon="-0.12337160157236135"><ele>8.0</ele><time>2026-04-19T18:19:28Z</time></trkpt><trkpt lat="39.860698645538115" lon="-0.12340710775542783"><ele>7.0</ele><time>2026-04-19T18:19:29Z</time></trkpt><trkpt lat="39.86041859808928" lon="-0.1234467064831953"><ele>7.0</ele><time>2026-04-19T18:19:30Z</time></trkpt><trkpt lat="39.86012911594112" lon="-0.1234851277895117"><ele>7.0</ele><time>2026-04-19T18:19:31Z</time></trkpt><trkpt lat="39.85983411713459" lon="-0.12352337656576479"><ele>7.0</ele><time>2026-04-19T18:19:32Z</time></trkpt><trkpt lat="39.85953666346739" lon="-0.12355778857110712"><ele>7.0</ele><time>2026-04-19T18:19:33Z</time></trkpt><trkpt lat="39.85923793755128" lon="-0.12360042234335149"><ele>6.5</ele><time>2026-04-19T18:19:34Z</time></trkpt><trkpt lat="39.85894976734736" lon="-0.12363558792935558"><ele>6.0</ele><time>2026-04-19T18:19:35Z</time></trkpt><trkpt lat="39.858670673251204" lon="-0.12367041149758598"><ele>5.0</ele><time>2026-04-19T18:19:36Z</time></trkpt><trkpt lat="39.858389411842346" lon="-0.12369685807903817"><ele>4.0</ele><time>2026-04-19T18:19:37Z</time></trkpt><trkpt lat="39.858118176462476" lon="-0.1237172119450811"><ele>4.0</ele><time>2026-04-19T18:19:38Z</time></trkpt><trkpt lat="39.857846726757536" lon="-0.12374682212141024"><ele>4.0</ele><time>2026-04-19T18:19:39Z</time></trkpt><trkpt lat="39.85758462843671" lon="-0.12377554723290808"><ele>4.5</ele><time>2026-04-19T18:19:40Z</time></trkpt><trkpt lat="39.85732846012934" lon="-0.12380053516824044"><ele>5.0</ele><time>2026-04-19T18:19:41Z</time></trkpt><trkpt lat="39.85707426432178" lon="-0.12382333866361159"><ele>5.0</ele><time>2026-04-19T18:19:42Z</time></trkpt><trkpt lat="39.85682930340233" lon="-0.12384449131837309"><ele>5.0</ele><time>2026-04-19T18:19:43Z</time></trkpt><trkpt lat="39.856587720192074" lon="-0.12386366987362003"><ele>4.5</ele><time>2026-04-19T18:19:44Z</time></trkpt><trkpt lat="39.8563455478947" lon="-0.12388452512347724"><ele>4.0</ele><time>2026-04-19T18:19:45Z</time></trkpt><trkpt lat="39.85610157936775" lon="-0.1238994074432264"><ele>4.0</ele><time>2026-04-19T18:19:46Z</time></trkpt><trkpt lat="39.85585763661251" lon="-0.12392076321158836"><ele>4.0</ele><time>2026-04-19T18:19:47Z</time></trkpt><trkpt lat="39.85561311677332" lon="-0.1239420901288028"><ele>4.0</ele><time>2026-04-19T18:19:48Z</time></trkpt><trkpt lat="39.855364012821994" lon="-0.12397043777499685"><ele>4.0</ele><time>2026-04-19T18:19:49Z</time></trkpt><trkpt lat="39.855116024816894" lon="-0.12399564728482247"><ele>3.0</ele><time>2026-04-19T18:19:50Z</time></trkpt><trkpt lat="39.85486771293999" lon="-0.12402124433158775"><ele>2.0</ele><time>2026-04-19T18:19:51Z</time></trkpt><trkpt lat="39.85462685500369" lon="-0.12404568649472514"><ele>3.0</ele><time>2026-04-19T18:19:52Z</time></trkpt><trkpt lat="39.85439121485688" lon="-0.12407008062269355"><ele>4.0</ele><time>2026-04-19T18:19:53Z</time></trkpt><trkpt lat="39.85415586170584" lon="-0.12409939448521931"><ele>4.5</ele><time>2026-04-19T18:19:54Z</time></trkpt><trkpt lat="39.85390919714028" lon="-0.12412781778063259"><ele>5.0</ele><time>2026-04-19T18:19:55Z</time></trkpt><trkpt lat="39.85366694170724" lon="-0.12416455496135724"><ele>3.5</ele><time>2026-04-19T18:19:56Z</time></trkpt><trkpt lat="39.85342315874665" lon="-0.1241962996536881"><ele>2.0</ele><time>2026-04-19T18:19:57Z</time></trkpt><trkpt lat="39.8531812655924" lon="-0.12423307262327632"><ele>2.0</ele><time>2026-04-19T18:19:58Z</time></trkpt><trkpt lat="39.85293656745902" lon="-0.1242726685960893"><ele>2.0</ele><time>2026-04-19T18:19:59Z</time></trkpt><trkpt lat="39.85268662033289" lon="-0.12431449303404116"><ele>3.0</ele><time>2026-04-19T18:19:59.999Z</time></trkpt><trkpt lat="39.852429314297" lon="-0.12435746615424104"><ele>4.0</ele><time>2026-04-19T18:20:00.999Z</time></trkpt><trkpt lat="39.85217587630399" lon="-0.12440116928006556"><ele>4.0</ele><time>2026-04-19T18:20:01.999Z</time></trkpt><trkpt lat="39.85191510163421" lon="-0.12445587165914083"><ele>4.0</ele><time>2026-04-19T18:20:02.999Z</time></trkpt><trkpt lat="39.851645605596985" lon="-0.12451514829621328"><ele>4.5</ele><time>2026-04-19T18:20:03.999Z</time></trkpt><trkpt lat="39.85137277987474" lon="-0.12457398867356809"><ele>5.0</ele><time>2026-04-19T18:20:04.999Z</time></trkpt><trkpt lat="39.851098519797844" lon="-0.12463734521845453"><ele>4.0</ele><time>2026-04-19T18:20:05.999Z</time></trkpt><trkpt lat="39.85081769319727" lon="-0.12470466343471372"><ele>3.0</ele><time>2026-04-19T18:20:06.999Z</time></trkpt><trkpt lat="39.85052812956408" lon="-0.12477758949115363"><ele>3.0</ele><time>2026-04-19T18:20:07.999Z</time></trkpt><trkpt lat="39.850228461591556" lon="-0.12485764312828829"><ele>3.0</ele><time>2026-04-19T18:20:08.999Z</time></trkpt><trkpt lat="39.84993490050466" lon="-0.12493816488736635"><ele>2.5</ele><time>2026-04-19T18:20:09.999Z</time></trkpt><trkpt lat="39.84964262283677" lon="-0.12502299580447965"><ele>2.0</ele><time>2026-04-19T18:20:10.999Z</time></trkpt><trkpt lat="39.84935390576743" lon="-0.12510795715500536"><ele>3.0</ele><time>2026-04-19T18:20:11.999Z</time></trkpt><trkpt lat="39.8490675187221" lon="-0.12519262316686347"><ele>4.0</ele><time>2026-04-19T18:20:12.999Z</time></trkpt><trkpt lat="39.84877794176977" lon="-0.1252806010432246"><ele>4.0</ele><time>2026-04-19T18:20:13.999Z</time></trkpt><trkpt lat="39.848489155734" lon="-0.1253764065765321"><ele>4.0</ele><time>2026-04-19T18:20:14.999Z</time></trkpt><trkpt lat="39.848197378013175" lon="-0.12547285113417192"><ele>4.5</ele><time>2026-04-19T18:20:15.999Z</time></trkpt><trkpt lat="39.847914655807536" lon="-0.12556820402645708"><ele>5.0</ele><time>2026-04-19T18:20:16.999Z</time></trkpt><trkpt lat="39.84762155322641" lon="-0.1256761949137872"><ele>4.5</ele><time>2026-04-19T18:20:17.999Z</time></trkpt><trkpt lat="39.84733170544722" lon="-0.1257882535981085"><ele>4.0</ele><time>2026-04-19T18:20:18.999Z</time></trkpt><trkpt lat="39.847047855582595" lon="-0.12589767886363784"><ele>4.0</ele><time>2026-04-19T18:20:19.999Z</time></trkpt><trkpt lat="39.846764795007324" lon="-0.1260111130164217"><ele>4.0</ele><time>2026-04-19T18:20:20.999Z</time></trkpt><trkpt lat="39.846488546273555" lon="-0.12612545472925774"><ele>4.0</ele><time>2026-04-19T18:20:21.999Z</time></trkpt><trkpt lat="39.846216237946955" lon="-0.12624124129313807"><ele>4.0</ele><time>2026-04-19T18:20:22.999Z</time></trkpt><trkpt lat="39.845934136178904" lon="-0.1263648298188978"><ele>4.0</ele><time>2026-04-19T18:20:23.999Z</time></trkpt><trkpt lat="39.84566370790877" lon="-0.12648172391461343"><ele>4.0</ele><time>2026-04-19T18:20:24.999Z</time></trkpt><trkpt lat="39.84539685242504" lon="-0.12660660749272015"><ele>4.0</ele><time>2026-04-19T18:20:25.999Z</time></trkpt><trkpt lat="39.84513044776128" lon="-0.1267321298346635"><ele>4.0</ele><time>2026-04-19T18:20:26.999Z</time></trkpt><trkpt lat="39.84486495371883" lon="-0.12685908589976735"><ele>2.5</ele><time>2026-04-19T18:20:27.999Z</time></trkpt><trkpt lat="39.844603943584445" lon="-0.1269872098651027"><ele>1.0</ele><time>2026-04-19T18:20:28.999Z</time></trkpt><trkpt lat="39.84434621531148" lon="-0.12711761745256986"><ele>2.5</ele><time>2026-04-19T18:20:29.999Z</time></trkpt><trkpt lat="39.844088523444036" lon="-0.12725282984744282"><ele>4.0</ele><time>2026-04-19T18:20:30.999Z</time></trkpt><trkpt lat="39.84383472805043" lon="-0.12739084622988536"><ele>3.5</ele><time>2026-04-19T18:20:31.999Z</time></trkpt><trkpt lat="39.84358586112324" lon="-0.12752666583182543"><ele>3.0</ele><time>2026-04-19T18:20:32.999Z</time></trkpt><trkpt lat="39.843335761165186" lon="-0.1276620201291625"><ele>2.5</ele><time>2026-04-19T18:20:33.999Z</time></trkpt><trkpt lat="39.84308934492007" lon="-0.12779810250909066"><ele>2.0</ele><time>2026-04-19T18:20:34.999Z</time></trkpt><trkpt lat="39.84284448881699" lon="-0.12793179637601967"><ele>1.5</ele><time>2026-04-19T18:20:35.999Z</time></trkpt><trkpt lat="39.84260348285015" lon="-0.12806933160080253"><ele>1.0</ele><time>2026-04-19T18:20:36.999Z</time></trkpt><trkpt lat="39.842366774347546" lon="-0.12820915342642106"><ele>0.5</ele><time>2026-04-19T18:20:37.999Z</time></trkpt><trkpt lat="39.84213047532921" lon="-0.12835175775707314"><ele>0.0</ele><time>2026-04-19T18:20:38.999Z</time></trkpt><trkpt lat="39.84189590546681" lon="-0.12849736851445792"><ele>0.5</ele><time>2026-04-19T18:20:39.999Z</time></trkpt><trkpt lat="39.84166543910064" lon="-0.12864642522294217"><ele>1.0</ele><time>2026-04-19T18:20:40.999Z</time></trkpt><trkpt lat="39.84142881410512" lon="-0.12879803804671192"><ele>1.0</ele><time>2026-04-19T18:20:41.999Z</time></trkpt><trkpt lat="39.84119324619454" lon="-0.12896011813210836"><ele>1.0</ele><time>2026-04-19T18:20:42.999Z</time></trkpt><trkpt lat="39.840952262246326" lon="-0.12910475850720218"><ele>2.0</ele><time>2026-04-19T18:20:43.999Z</time></trkpt><trkpt lat="39.84071555663921" lon="-0.1292718306975131"><ele>3.0</ele><time>2026-04-19T18:20:44.999Z</time></trkpt><trkpt lat="39.84047569261071" lon="-0.12943742223580715"><ele>3.0</ele><time>2026-04-19T18:20:45.999Z</time></trkpt><trkpt lat="39.84023199479215" lon="-0.1296116859874375"><ele>3.0</ele><time>2026-04-19T18:20:46.999Z</time></trkpt><trkpt lat="39.83998118464984" lon="-0.12979154832517356"><ele>2.5</ele><time>2026-04-19T18:20:47.999Z</time></trkpt><trkpt lat="39.83972252118858" lon="-0.12998123680979812"><ele>2.0</ele><time>2026-04-19T18:20:48.999Z</time></trkpt><trkpt lat="39.83945972134285" lon="-0.13017286961442165"><ele>3.0</ele><time>2026-04-19T18:20:49.999Z</time></trkpt><trkpt lat="39.83919874325215" lon="-0.1303708788089714"><ele>4.0</ele><time>2026-04-19T18:20:50.999Z</time></trkpt><trkpt lat="39.8389408748545" lon="-0.13057016358303802"><ele>3.5</ele><time>2026-04-19T18:20:51.999Z</time></trkpt><trkpt lat="39.83868407140444" lon="-0.13077445574086619"><ele>3.0</ele><time>2026-04-19T18:20:52.999Z</time></trkpt><trkpt lat="39.83842621313332" lon="-0.130981179258552"><ele>2.5</ele><time>2026-04-19T18:20:53.999Z</time></trkpt><trkpt lat="39.83817437796029" lon="-0.13118997032077553"><ele>2.0</ele><time>2026-04-19T18:20:54.999Z</time></trkpt><trkpt lat="39.837926415593955" lon="-0.13139425698273363"><ele>1.5</ele><time>2026-04-19T18:20:55.999Z</time></trkpt><trkpt lat="39.83769859290224" lon="-0.13158815899522475"><ele>1.0</ele><time>2026-04-19T18:20:56.999Z</time></trkpt><trkpt lat="39.837486247161145" lon="-0.1317721644491656"><ele>1.0</ele><time>2026-04-19T18:20:57.999Z</time></trkpt><trkpt lat="39.837265178289826" lon="-0.13196915864535497"><ele>1.0</ele><time>2026-04-19T18:20:58.999Z</time></trkpt><trkpt lat="39.83703956230369" lon="-0.132169979816537"><ele>1.0</ele><time>2026-04-19T18:20:59.998Z</time></trkpt><trkpt lat="39.83681111107978" lon="-0.13237333594613687"><ele>1.0</ele><time>2026-04-19T18:21:00.998Z</time></trkpt><trkpt lat="39.83658199672304" lon="-0.13257967057529868"><ele>3.5</ele><time>2026-04-19T18:21:01.998Z</time></trkpt><trkpt lat="39.83635244971768" lon="-0.1327918370336975"><ele>6.0</ele><time>2026-04-19T18:21:02.998Z</time></trkpt><trkpt lat="39.836121183954866" lon="-0.13300884726307488"><ele>5.0</ele><time>2026-04-19T18:21:03.998Z</time></trkpt><trkpt lat="39.83589235497578" lon="-0.13322709295255483"><ele>4.0</ele><time>2026-04-19T18:21:04.998Z</time></trkpt><trkpt lat="39.83565771202821" lon="-0.1334481741261572"><ele>4.0</ele><time>2026-04-19T18:21:05.998Z</time></trkpt><trkpt lat="39.835423927386564" lon="-0.1336709239208332"><ele>4.0</ele><time>2026-04-19T18:21:06.998Z</time></trkpt><trkpt lat="39.83519294545132" lon="-0.13389268632353296"><ele>4.0</ele><time>2026-04-19T18:21:07.998Z</time></trkpt><trkpt lat="39.834955748096775" lon="-0.13411957986727116"><ele>4.0</ele><time>2026-04-19T18:21:08.998Z</time></trkpt><trkpt lat="39.8347164067193" lon="-0.13435158490193422"><ele>4.0</ele><time>2026-04-19T18:21:09.998Z</time></trkpt><trkpt lat="39.834477445049515" lon="-0.13458290560460381"><ele>4.0</ele><time>2026-04-19T18:21:10.998Z</time></trkpt><trkpt lat="39.83423828915865" lon="-0.13481455214569382"><ele>4.0</ele><time>2026-04-19T18:21:11.998Z</time></trkpt><trkpt lat="39.83399630994039" lon="-0.13504799120783467"><ele>4.0</ele><time>2026-04-19T18:21:12.998Z</time></trkpt><trkpt lat="39.83374956963805" lon="-0.1352809680355908"><ele>4.0</ele><time>2026-04-19T18:21:13.998Z</time></trkpt><trkpt lat="39.83350545056115" lon="-0.13551097405706003"><ele>4.0</ele><time>2026-04-19T18:21:14.998Z</time></trkpt><trkpt lat="39.83325959784572" lon="-0.13574095840528988"><ele>4.5</ele><time>2026-04-19T18:21:15.998Z</time></trkpt><trkpt lat="39.83301335286815" lon="-0.13596825450676525"><ele>5.0</ele><time>2026-04-19T18:21:16.998Z</time></trkpt><trkpt lat="39.83276420331017" lon="-0.13619260294160943"><ele>4.5</ele><time>2026-04-19T18:21:17.998Z</time></trkpt><trkpt lat="39.832518268618024" lon="-0.1364102660420417"><ele>4.0</ele><time>2026-04-19T18:21:18.998Z</time></trkpt><trkpt lat="39.8322708806608" lon="-0.13663018940850968"><ele>4.0</ele><time>2026-04-19T18:21:19.998Z</time></trkpt><trkpt lat="39.83201988097761" lon="-0.13684644344151295"><ele>4.0</ele><time>2026-04-19T18:21:20.998Z</time></trkpt><trkpt lat="39.831771625865635" lon="-0.13705708288646234"><ele>4.5</ele><time>2026-04-19T18:21:21.998Z</time></trkpt><trkpt lat="39.83151988585489" lon="-0.1372649687922903"><ele>5.0</ele><time>2026-04-19T18:21:22.998Z</time></trkpt><trkpt lat="39.83127315161566" lon="-0.13747500194238274"><ele>5.0</ele><time>2026-04-19T18:21:23.998Z</time></trkpt><trkpt lat="39.83102604693918" lon="-0.1376823492814694"><ele>5.0</ele><time>2026-04-19T18:21:24.998Z</time></trkpt><trkpt lat="39.830774026015675" lon="-0.13788682921672293"><ele>5.0</ele><time>2026-04-19T18:21:25.998Z</time></trkpt><trkpt lat="39.83052197187116" lon="-0.1380847502901868"><ele>5.0</ele><time>2026-04-19T18:21:26.998Z</time></trkpt><trkpt lat="39.83026919120877" lon="-0.13828021812692293"><ele>5.5</ele><time>2026-04-19T18:21:27.998Z</time></trkpt><trkpt lat="39.83001916985667" lon="-0.13847254119240232"><ele>6.0</ele><time>2026-04-19T18:21:28.998Z</time></trkpt><trkpt lat="39.82977000701351" lon="-0.1386659795681343"><ele>6.0</ele><time>2026-04-19T18:21:29.998Z</time></trkpt><trkpt lat="39.829520046172746" lon="-0.13885653857842065"><ele>6.0</ele><time>2026-04-19T18:21:31Z</time></trkpt><trkpt lat="39.829267849617615" lon="-0.13904718923877768"><ele>5.5</ele><time>2026-04-19T18:21:32Z</time></trkpt><trkpt lat="39.8290213474357" lon="-0.13924169258261182"><ele>5.0</ele><time>2026-04-19T18:21:33Z</time></trkpt><trkpt lat="39.828779830730674" lon="-0.1394381068186074"><ele>5.0</ele><time>2026-04-19T18:21:34Z</time></trkpt><trkpt lat="39.82854055999592" lon="-0.13963448205457424"><ele>5.0</ele><time>2026-04-19T18:21:35Z</time></trkpt><trkpt lat="39.82829809047986" lon="-0.13983588812803296"><ele>4.5</ele><time>2026-04-19T18:21:36Z</time></trkpt><trkpt lat="39.828054059066204" lon="-0.14003706502161437"><ele>4.0</ele><time>2026-04-19T18:21:37Z</time></trkpt><trkpt lat="39.82781470943538" lon="-0.14023547422240717"><ele>4.0</ele><time>2026-04-19T18:21:38Z</time></trkpt><trkpt lat="39.827571612017145" lon="-0.14043850585075504"><ele>4.0</ele><time>2026-04-19T18:21:39Z</time></trkpt><trkpt lat="39.82733265647974" lon="-0.14064279524657824"><ele>5.0</ele><time>2026-04-19T18:21:40Z</time></trkpt><trkpt lat="39.827097044406266" lon="-0.14084770620167383"><ele>6.0</ele><time>2026-04-19T18:21:41Z</time></trkpt><trkpt lat="39.82686476333629" lon="-0.14105101749975063"><ele>5.0</ele><time>2026-04-19T18:21:42Z</time></trkpt><trkpt lat="39.82663286208078" lon="-0.1412553539762977"><ele>4.0</ele><time>2026-04-19T18:21:43Z</time></trkpt><trkpt lat="39.82639955663878" lon="-0.14146362717554178"><ele>4.5</ele><time>2026-04-19T18:21:44Z</time></trkpt><trkpt lat="39.82616707567799" lon="-0.14167611598618995"><ele>5.0</ele><time>2026-04-19T18:21:45Z</time></trkpt><trkpt lat="39.82593215352105" lon="-0.1418955380213143"><ele>5.5</ele><time>2026-04-19T18:21:46Z</time></trkpt><trkpt lat="39.82569990525177" lon="-0.14211863971332406"><ele>6.0</ele><time>2026-04-19T18:21:47Z</time></trkpt><trkpt lat="39.82546855518255" lon="-0.14234352471015338"><ele>6.0</ele><time>2026-04-19T18:21:48Z</time></trkpt><trkpt lat="39.825238495786806" lon="-0.14257285778486053"><ele>6.0</ele><time>2026-04-19T18:21:49Z</time></trkpt><trkpt lat="39.82500761387521" lon="-0.14280334364877403"><ele>6.0</ele><time>2026-04-19T18:21:50Z</time></trkpt><trkpt lat="39.8247767464568" lon="-0.14303683978537246"><ele>6.0</ele><time>2026-04-19T18:21:51Z</time></trkpt><trkpt lat="39.82454784846753" lon="-0.14328005478648592"><ele>6.0</ele><time>2026-04-19T18:21:52Z</time></trkpt><trkpt lat="39.82431877006699" lon="-0.1435237401455459"><ele>6.0</ele><time>2026-04-19T18:21:53Z</time></trkpt><trkpt lat="39.82409296903863" lon="-0.1437697059729771"><ele>6.5</ele><time>2026-04-19T18:21:54Z</time></trkpt><trkpt lat="39.82387259967949" lon="-0.14401824136840657"><ele>7.0</ele><time>2026-04-19T18:21:55Z</time></trkpt><trkpt lat="39.82365164363157" lon="-0.1442664877483979"><ele>7.0</ele><time>2026-04-19T18:21:56Z</time></trkpt><trkpt lat="39.82342942594225" lon="-0.14451627490022695"><ele>7.0</ele><time>2026-04-19T18:21:57Z</time></trkpt><trkpt lat="39.82320289143505" lon="-0.14476571923723278"><ele>6.5</ele><time>2026-04-19T18:21:58Z</time></trkpt><trkpt lat="39.82297815143959" lon="-0.14501809692058087"><ele>6.0</ele><time>2026-04-19T18:21:59Z</time></trkpt><trkpt lat="39.82275589273969" lon="-0.14527233313935997"><ele>6.5</ele><time>2026-04-19T18:22:00Z</time></trkpt><trkpt lat="39.822540758280866" lon="-0.14552030502464655"><ele>7.0</ele><time>2026-04-19T18:22:01Z</time></trkpt><trkpt lat="39.822323472179335" lon="-0.14577455766284686"><ele>7.0</ele><time>2026-04-19T18:22:02Z</time></trkpt><trkpt lat="39.82211172136522" lon="-0.14603244793980158"><ele>7.0</ele><time>2026-04-19T18:22:03Z</time></trkpt><trkpt lat="39.82190381837782" lon="-0.14628242080193038"><ele>8.0</ele><time>2026-04-19T18:22:03.999Z</time></trkpt><trkpt lat="39.82169522465405" lon="-0.1465305132263615"><ele>9.0</ele><time>2026-04-19T18:22:04.999Z</time></trkpt><trkpt lat="39.82149040111821" lon="-0.14678292793625086"><ele>9.0</ele><time>2026-04-19T18:22:05.999Z</time></trkpt><trkpt lat="39.82128831285954" lon="-0.14703463006507297"><ele>9.0</ele><time>2026-04-19T18:22:06.999Z</time></trkpt><trkpt lat="39.82109174704476" lon="-0.14728577597949175"><ele>8.0</ele><time>2026-04-19T18:22:07.999Z</time></trkpt><trkpt lat="39.8208940933342" lon="-0.14753707725572068"><ele>7.0</ele><time>2026-04-19T18:22:08.999Z</time></trkpt><trkpt lat="39.82069972985873" lon="-0.14778733482175999"><ele>7.0</ele><time>2026-04-19T18:22:09.999Z</time></trkpt><trkpt lat="39.82050079781678" lon="-0.14804283847528715"><ele>7.0</ele><time>2026-04-19T18:22:10.999Z</time></trkpt><trkpt lat="39.82030492739338" lon="-0.14830142898982432"><ele>6.5</ele><time>2026-04-19T18:22:11.999Z</time></trkpt><trkpt lat="39.82010381316015" lon="-0.14856180055294294"><ele>6.0</ele><time>2026-04-19T18:22:12.999Z</time></trkpt><trkpt lat="39.81990569774051" lon="-0.14881888579118266"><ele>7.0</ele><time>2026-04-19T18:22:13.999Z</time></trkpt><trkpt lat="39.81970555075126" lon="-0.1490753534574029"><ele>8.0</ele><time>2026-04-19T18:22:14.999Z</time></trkpt><trkpt lat="39.819507852700546" lon="-0.14933336165872818"><ele>8.5</ele><time>2026-04-19T18:22:15.999Z</time></trkpt><trkpt lat="39.81930553342224" lon="-0.14959324238806684"><ele>9.0</ele><time>2026-04-19T18:22:16.999Z</time></trkpt><trkpt lat="39.81910510542378" lon="-0.14985159201558362"><ele>8.5</ele><time>2026-04-19T18:22:17.999Z</time></trkpt><trkpt lat="39.818900022540475" lon="-0.15010922422048262"><ele>8.0</ele><time>2026-04-19T18:22:18.999Z</time></trkpt><trkpt lat="39.8186968673807" lon="-0.1503640403906789"><ele>8.0</ele><time>2026-04-19T18:22:19.999Z</time></trkpt><trkpt lat="39.81848554060708" lon="-0.15062240985006942"><ele>8.0</ele><time>2026-04-19T18:22:20.999Z</time></trkpt><trkpt lat="39.818277966919375" lon="-0.15087530150750725"><ele>9.5</ele><time>2026-04-19T18:22:21.999Z</time></trkpt><trkpt lat="39.81806589544989" lon="-0.15113070982364177"><ele>11.0</ele><time>2026-04-19T18:22:22.999Z</time></trkpt><trkpt lat="39.81785232794523" lon="-0.15138566654353844"><ele>11.0</ele><time>2026-04-19T18:22:23.999Z</time></trkpt><trkpt lat="39.81763953147847" lon="-0.151636961813845"><ele>11.0</ele><time>2026-04-19T18:22:24.999Z</time></trkpt><trkpt lat="39.817422782959895" lon="-0.15188936948281312"><ele>11.0</ele><time>2026-04-19T18:22:25.999Z</time></trkpt><trkpt lat="39.81720384532246" lon="-0.15213778099987355"><ele>11.0</ele><time>2026-04-19T18:22:26.999Z</time></trkpt><trkpt lat="39.816984177812714" lon="-0.15237974836173696"><ele>11.5</ele><time>2026-04-19T18:22:27.999Z</time></trkpt><trkpt lat="39.81676441208288" lon="-0.15262146102062096"><ele>12.0</ele><time>2026-04-19T18:22:28.999Z</time></trkpt><trkpt lat="39.816539500672334" lon="-0.1528641828298521"><ele>12.0</ele><time>2026-04-19T18:22:29.999Z</time></trkpt><trkpt lat="39.816314255738064" lon="-0.1531044366773495"><ele>12.0</ele><time>2026-04-19T18:22:30.999Z</time></trkpt><trkpt lat="39.816083976377186" lon="-0.15334379452369173"><ele>11.5</ele><time>2026-04-19T18:22:31.999Z</time></trkpt><trkpt lat="39.81585385923405" lon="-0.15358188996748737"><ele>11.0</ele><time>2026-04-19T18:22:32.999Z</time></trkpt><trkpt lat="39.81561703627585" lon="-0.1538195137373049"><ele>11.5</ele><time>2026-04-19T18:22:33.999Z</time></trkpt><trkpt lat="39.815381691582516" lon="-0.15405901425946228"><ele>12.0</ele><time>2026-04-19T18:22:34.999Z</time></trkpt><trkpt lat="39.815143984283814" lon="-0.1542905600878772"><ele>11.0</ele><time>2026-04-19T18:22:35.999Z</time></trkpt><trkpt lat="39.81490544130718" lon="-0.15451625842371852"><ele>10.0</ele><time>2026-04-19T18:22:36.999Z</time></trkpt><trkpt lat="39.814663152005636" lon="-0.15474500023037763"><ele>10.0</ele><time>2026-04-19T18:22:37.999Z</time></trkpt><trkpt lat="39.81442161459332" lon="-0.154970579522786"><ele>10.0</ele><time>2026-04-19T18:22:38.999Z</time></trkpt><trkpt lat="39.81417541955695" lon="-0.15519385356489127"><ele>10.5</ele><time>2026-04-19T18:22:39.999Z</time></trkpt><trkpt lat="39.81393248761437" lon="-0.1554153322947755"><ele>11.0</ele><time>2026-04-19T18:22:40.999Z</time></trkpt><trkpt lat="39.813685895144786" lon="-0.15563382589199687"><ele>10.5</ele><time>2026-04-19T18:22:41.999Z</time></trkpt><trkpt lat="39.81343826060951" lon="-0.1558511065577411"><ele>10.0</ele><time>2026-04-19T18:22:42.999Z</time></trkpt><trkpt lat="39.81319615858898" lon="-0.1560639890566366"><ele>10.0</ele><time>2026-04-19T18:22:43.999Z</time></trkpt><trkpt lat="39.812953102087" lon="-0.15626650499005068"><ele>10.0</ele><time>2026-04-19T18:22:44.999Z</time></trkpt><trkpt lat="39.812711260133284" lon="-0.1564612505101399"><ele>11.5</ele><time>2026-04-19T18:22:45.999Z</time></trkpt><trkpt lat="39.81247097394645" lon="-0.15665454313445973"><ele>13.0</ele><time>2026-04-19T18:22:46.999Z</time></trkpt><trkpt lat="39.812229134596954" lon="-0.15684580325761574"><ele>13.0</ele><time>2026-04-19T18:22:47.999Z</time></trkpt><trkpt lat="39.811984069040236" lon="-0.1570315822530904"><ele>13.0</ele><time>2026-04-19T18:22:48.999Z</time></trkpt><trkpt lat="39.81173779646275" lon="-0.15721623986131267"><ele>15.0</ele><time>2026-04-19T18:22:49.999Z</time></trkpt><trkpt lat="39.81149066139052" lon="-0.15740388888296863"><ele>17.0</ele><time>2026-04-19T18:22:50.999Z</time></trkpt><trkpt lat="39.81124319508233" lon="-0.15758757838929693"><ele>17.0</ele><time>2026-04-19T18:22:51.999Z</time></trkpt><trkpt lat="39.81099491059396" lon="-0.15775707210640727"><ele>17.0</ele><time>2026-04-19T18:22:52.999Z</time></trkpt><trkpt lat="39.81074291765996" lon="-0.15793734052612549"><ele>17.5</ele><time>2026-04-19T18:22:53.999Z</time></trkpt><trkpt lat="39.810490443443406" lon="-0.1581139569338963"><ele>18.0</ele><time>2026-04-19T18:22:54.999Z</time></trkpt><trkpt lat="39.8102329819993" lon="-0.158289695612384"><ele>16.0</ele><time>2026-04-19T18:22:55.999Z</time></trkpt><trkpt lat="39.80997620842019" lon="-0.15846552896601793"><ele>14.0</ele><time>2026-04-19T18:22:56.999Z</time></trkpt><trkpt lat="39.80971816856048" lon="-0.15863230334730874"><ele>14.0</ele><time>2026-04-19T18:22:57.999Z</time></trkpt><trkpt lat="39.80945859294869" lon="-0.15880111825363682"><ele>14.0</ele><time>2026-04-19T18:22:58.999Z</time></trkpt><trkpt lat="39.80919793347113" lon="-0.15896823234061822"><ele>13.5</ele><time>2026-04-19T18:22:59.999Z</time></trkpt><trkpt lat="39.808934594626024" lon="-0.15913138451333345"><ele>13.0</ele><time>2026-04-19T18:23:00.999Z</time></trkpt><trkpt lat="39.808673790431016" lon="-0.15929303004048964"><ele>14.5</ele><time>2026-04-19T18:23:01.999Z</time></trkpt><trkpt lat="39.80841217257995" lon="-0.15945182380148126"><ele>16.0</ele><time>2026-04-19T18:23:02.999Z</time></trkpt><trkpt lat="39.80815200788487" lon="-0.15960590309600325"><ele>16.0</ele><time>2026-04-19T18:23:03.999Z</time></trkpt><trkpt lat="39.80789078939294" lon="-0.15975579743646948"><ele>16.0</ele><time>2026-04-19T18:23:04.999Z</time></trkpt><trkpt lat="39.80762826321163" lon="-0.1599053097604091"><ele>13.5</ele><time>2026-04-19T18:23:05.998Z</time></trkpt><trkpt lat="39.807364793588185" lon="-0.16004925749153068"><ele>11.0</ele><time>2026-04-19T18:23:06.998Z</time></trkpt><trkpt lat="39.80710397151359" lon="-0.16018910986619198"><ele>11.0</ele><time>2026-04-19T18:23:07.998Z</time></trkpt><trkpt lat="39.80684528625985" lon="-0.16032262653285953"><ele>11.0</ele><time>2026-04-19T18:23:08.998Z</time></trkpt><trkpt lat="39.80658494047959" lon="-0.16045611278995137"><ele>12.5</ele><time>2026-04-19T18:23:09.998Z</time></trkpt><trkpt lat="39.80632216635075" lon="-0.16059442473152583"><ele>14.0</ele><time>2026-04-19T18:23:10.998Z</time></trkpt><trkpt lat="39.806056190779316" lon="-0.16072739085279636"><ele>13.5</ele><time>2026-04-19T18:23:11.998Z</time></trkpt><trkpt lat="39.805792821951634" lon="-0.16085477313030896"><ele>13.0</ele><time>2026-04-19T18:23:12.998Z</time></trkpt><trkpt lat="39.80553116749093" lon="-0.16098259196501694"><ele>13.0</ele><time>2026-04-19T18:23:13.998Z</time></trkpt><trkpt lat="39.80527172078783" lon="-0.16110764557480461"><ele>13.0</ele><time>2026-04-19T18:23:14.998Z</time></trkpt><trkpt lat="39.80501138935648" lon="-0.16123507683178268"><ele>14.0</ele><time>2026-04-19T18:23:15.998Z</time></trkpt><trkpt lat="39.804748764206316" lon="-0.1613640184479694"><ele>15.0</ele><time>2026-04-19T18:23:16.998Z</time></trkpt><trkpt lat="39.804478943979106" lon="-0.16149519415352145"><ele>14.5</ele><time>2026-04-19T18:23:17.998Z</time></trkpt><trkpt lat="39.80420422221446" lon="-0.1616283546598464"><ele>14.0</ele><time>2026-04-19T18:23:18.998Z</time></trkpt><trkpt lat="39.80393004428716" lon="-0.16175824672219005"><ele>14.0</ele><time>2026-04-19T18:23:19.998Z</time></trkpt><trkpt lat="39.803654134896476" lon="-0.16188968037506976"><ele>14.0</ele><time>2026-04-19T18:23:20.998Z</time></trkpt><trkpt lat="39.80337924440319" lon="-0.1620228685191218"><ele>13.5</ele><time>2026-04-19T18:23:21.998Z</time></trkpt><trkpt lat="39.803102543239056" lon="-0.16215634835619433"><ele>13.0</ele><time>2026-04-19T18:23:22.998Z</time></trkpt><trkpt lat="39.80282677682326" lon="-0.1622997258340203"><ele>12.5</ele><time>2026-04-19T18:23:23.998Z</time></trkpt><trkpt lat="39.802552829123215" lon="-0.16244489878323637"><ele>12.0</ele><time>2026-04-19T18:23:24.998Z</time></trkpt><trkpt lat="39.80227888604891" lon="-0.1625931833743262"><ele>12.0</ele><time>2026-04-19T18:23:25.998Z</time></trkpt><trkpt lat="39.80200993427112" lon="-0.16275007135633374"><ele>12.0</ele><time>2026-04-19T18:23:26.998Z</time></trkpt><trkpt lat="39.80174244604396" lon="-0.1628995328227211"><ele>12.5</ele><time>2026-04-19T18:23:27.998Z</time></trkpt><trkpt lat="39.80147738384475" lon="-0.16304333376985955"><ele>13.0</ele><time>2026-04-19T18:23:28.998Z</time></trkpt><trkpt lat="39.801216239205225" lon="-0.16320461739168568"><ele>13.0</ele><time>2026-04-19T18:23:29.998Z</time></trkpt><trkpt lat="39.800955015578026" lon="-0.163368119815112"><ele>13.0</ele><time>2026-04-19T18:23:30.998Z</time></trkpt><trkpt lat="39.80069489103072" lon="-0.1635304172840292"><ele>13.0</ele><time>2026-04-19T18:23:31.998Z</time></trkpt><trkpt lat="39.80043663574502" lon="-0.16369814694622262"><ele>13.0</ele><time>2026-04-19T18:23:32.998Z</time></trkpt><trkpt lat="39.80017955088101" lon="-0.16386711934611636"><ele>12.5</ele><time>2026-04-19T18:23:33.998Z</time></trkpt><trkpt lat="39.79992202529477" lon="-0.1640393095929226"><ele>12.0</ele><time>2026-04-19T18:23:34.998Z</time></trkpt><trkpt lat="39.79966578633152" lon="-0.16420473111525596"><ele>12.0</ele><time>2026-04-19T18:23:35.998Z</time></trkpt><trkpt lat="39.7994033154516" lon="-0.16437463714462247"><ele>12.0</ele><time>2026-04-19T18:23:37Z</time></trkpt><trkpt lat="39.799140989947375" lon="-0.16455050048019837"><ele>13.0</ele><time>2026-04-19T18:23:38Z</time></trkpt><trkpt lat="39.798878597918225" lon="-0.1647304666820246"><ele>14.0</ele><time>2026-04-19T18:23:39Z</time></trkpt><trkpt lat="39.79862120852735" lon="-0.16491324850598632"><ele>14.0</ele><time>2026-04-19T18:23:40Z</time></trkpt><trkpt lat="39.79836437503633" lon="-0.16509710848587136"><ele>14.0</ele><time>2026-04-19T18:23:41Z</time></trkpt><trkpt lat="39.79810687056326" lon="-0.1652814321486474"><ele>14.0</ele><time>2026-04-19T18:23:42Z</time></trkpt><trkpt lat="39.797847868695705" lon="-0.1654707137254104"><ele>14.0</ele><time>2026-04-19T18:23:43Z</time></trkpt><trkpt lat="39.797590731368636" lon="-0.16565535769219958"><ele>13.5</ele><time>2026-04-19T18:23:44Z</time></trkpt><trkpt lat="39.79733652226977" lon="-0.16584280260547848"><ele>13.0</ele><time>2026-04-19T18:23:45Z</time></trkpt><trkpt lat="39.79708397941827" lon="-0.16603405822320427"><ele>12.0</ele><time>2026-04-19T18:23:46Z</time></trkpt><trkpt lat="39.79683536177053" lon="-0.16622734444224743"><ele>11.0</ele><time>2026-04-19T18:23:47Z</time></trkpt><trkpt lat="39.796587795326005" lon="-0.16642207572467893"><ele>11.5</ele><time>2026-04-19T18:23:48Z</time></trkpt><trkpt lat="39.79633748027626" lon="-0.16661209833997373"><ele>12.0</ele><time>2026-04-19T18:23:49Z</time></trkpt><trkpt lat="39.79609385917756" lon="-0.16680571752914608"><ele>13.0</ele><time>2026-04-19T18:23:50Z</time></trkpt><trkpt lat="39.79585493658407" lon="-0.1669947274658115"><ele>14.0</ele><time>2026-04-19T18:23:51Z</time></trkpt><trkpt lat="39.79561909026544" lon="-0.16718808111181835"><ele>14.0</ele><time>2026-04-19T18:23:52Z</time></trkpt><trkpt lat="39.7953793527134" lon="-0.16739089804935794"><ele>14.0</ele><time>2026-04-19T18:23:53Z</time></trkpt><trkpt lat="39.795142384800165" lon="-0.16759060612340693"><ele>14.0</ele><time>2026-04-19T18:23:54Z</time></trkpt><trkpt lat="39.79491085152666" lon="-0.16779648389215102"><ele>14.0</ele><time>2026-04-19T18:23:55Z</time></trkpt><trkpt lat="39.79467246570846" lon="-0.16800137439951715"><ele>13.0</ele><time>2026-04-19T18:23:56Z</time></trkpt><trkpt lat="39.794433509225016" lon="-0.16820658441223368"><ele>12.0</ele><time>2026-04-19T18:23:57Z</time></trkpt><trkpt lat="39.794199806316335" lon="-0.16842389285157786"><ele>11.0</ele><time>2026-04-19T18:23:58Z</time></trkpt><trkpt lat="39.79396126141522" lon="-0.16864820097402955"><ele>10.0</ele><time>2026-04-19T18:23:59Z</time></trkpt><trkpt lat="39.79372932773842" lon="-0.16887249167785703"><ele>10.5</ele><time>2026-04-19T18:24:00Z</time></trkpt><trkpt lat="39.79349017653952" lon="-0.16908645383276094"><ele>11.0</ele><time>2026-04-19T18:24:01Z</time></trkpt><trkpt lat="39.793255373513475" lon="-0.16930486629479527"><ele>11.0</ele><time>2026-04-19T18:24:02Z</time></trkpt><trkpt lat="39.793015717858054" lon="-0.169524047633394"><ele>11.0</ele><time>2026-04-19T18:24:03Z</time></trkpt><trkpt lat="39.792777043872725" lon="-0.16975312795594197"><ele>11.5</ele><time>2026-04-19T18:24:04Z</time></trkpt><trkpt lat="39.79253922449922" lon="-0.1699748466364982"><ele>12.0</ele><time>2026-04-19T18:24:05Z</time></trkpt><trkpt lat="39.79229974296232" lon="-0.17018866652344775"><ele>12.0</ele><time>2026-04-19T18:24:06Z</time></trkpt><trkpt lat="39.792060975921764" lon="-0.1704059908704846"><ele>12.0</ele><time>2026-04-19T18:24:07Z</time></trkpt><trkpt lat="39.79182179412196" lon="-0.17062068858015722"><ele>11.0</ele><time>2026-04-19T18:24:08Z</time></trkpt><trkpt lat="39.79157598281353" lon="-0.17083545117115959"><ele>10.0</ele><time>2026-04-19T18:24:09Z</time></trkpt><trkpt lat="39.791332053157355" lon="-0.1710531177453813"><ele>10.0</ele><time>2026-04-19T18:24:10Z</time></trkpt><trkpt lat="39.79109565061344" lon="-0.17126863922313823"><ele>10.0</ele><time>2026-04-19T18:24:11Z</time></trkpt><trkpt lat="39.79084764454335" lon="-0.1714737725800668"><ele>10.0</ele><time>2026-04-19T18:24:12Z</time></trkpt><trkpt lat="39.79060057951859" lon="-0.17168105282744803"><ele>10.0</ele><time>2026-04-19T18:24:13Z</time></trkpt><trkpt lat="39.79035932225358" lon="-0.17189385504624358"><ele>10.0</ele><time>2026-04-19T18:24:14Z</time></trkpt><trkpt lat="39.790117791369994" lon="-0.1721071634465229"><ele>10.0</ele><time>2026-04-19T18:24:15Z</time></trkpt><trkpt lat="39.78987583157542" lon="-0.17231903783801275"><ele>9.5</ele><time>2026-04-19T18:24:15.999Z</time></trkpt><trkpt lat="39.78963374049494" lon="-0.17252672406662403"><ele>9.0</ele><time>2026-04-19T18:24:16.999Z</time></trkpt><trkpt lat="39.78938829369045" lon="-0.172737557079223"><ele>9.0</ele><time>2026-04-19T18:24:17.999Z</time></trkpt><trkpt lat="39.78913835731894" lon="-0.17294472967144084"><ele>9.0</ele><time>2026-04-19T18:24:18.999Z</time></trkpt><trkpt lat="39.788883368570154" lon="-0.17315260832801252"><ele>9.5</ele><time>2026-04-19T18:24:19.999Z</time></trkpt><trkpt lat="39.78862726958963" lon="-0.17335696307489995"><ele>10.0</ele><time>2026-04-19T18:24:20.999Z</time></trkpt><trkpt lat="39.78837235625007" lon="-0.17356545974807178"><ele>10.0</ele><time>2026-04-19T18:24:21.999Z</time></trkpt><trkpt lat="39.78811987166574" lon="-0.17377529194281893"><ele>10.0</ele><time>2026-04-19T18:24:22.999Z</time></trkpt><trkpt lat="39.78786992962996" lon="-0.17398569732626828"><ele>11.0</ele><time>2026-04-19T18:24:23.999Z</time></trkpt><trkpt lat="39.78762038108001" lon="-0.17420287296491566"><ele>12.0</ele><time>2026-04-19T18:24:24.999Z</time></trkpt><trkpt lat="39.78737019301932" lon="-0.1744182996605693"><ele>12.0</ele><time>2026-04-19T18:24:25.999Z</time></trkpt><trkpt lat="39.78712491658454" lon="-0.17464109230350425"><ele>12.0</ele><time>2026-04-19T18:24:26.999Z</time></trkpt><trkpt lat="39.78688125925381" lon="-0.17486302395063646"><ele>11.0</ele><time>2026-04-19T18:24:27.999Z</time></trkpt><trkpt lat="39.7866363163893" lon="-0.17508686489621286"><ele>10.0</ele><time>2026-04-19T18:24:28.999Z</time></trkpt><trkpt lat="39.786391679935946" lon="-0.1753127862340458"><ele>10.0</ele><time>2026-04-19T18:24:29.999Z</time></trkpt><trkpt lat="39.78614367557549" lon="-0.17554129030500298"><ele>10.0</ele><time>2026-04-19T18:24:30.999Z</time></trkpt><trkpt lat="39.785897695693095" lon="-0.17577335648150907"><ele>8.5</ele><time>2026-04-19T18:24:31.999Z</time></trkpt><trkpt lat="39.785650446245356" lon="-0.17601104596247993"><ele>7.0</ele><time>2026-04-19T18:24:32.999Z</time></trkpt><trkpt lat="39.78541510090863" lon="-0.17624348469494902"><ele>7.0</ele><time>2026-04-19T18:24:33.999Z</time></trkpt><trkpt lat="39.78517913614575" lon="-0.1764785206108975"><ele>7.0</ele><time>2026-04-19T18:24:34.999Z</time></trkpt><trkpt lat="39.784945978525364" lon="-0.17671395302491277"><ele>8.0</ele><time>2026-04-19T18:24:35.999Z</time></trkpt><trkpt lat="39.78471165321604" lon="-0.17695248446855927"><ele>9.0</ele><time>2026-04-19T18:24:36.999Z</time></trkpt><trkpt lat="39.78448443586875" lon="-0.17718894089653167"><ele>8.0</ele><time>2026-04-19T18:24:37.999Z</time></trkpt><trkpt lat="39.78425696741007" lon="-0.17742519682690872"><ele>7.0</ele><time>2026-04-19T18:24:38.999Z</time></trkpt><trkpt lat="39.784037291513535" lon="-0.1776575431606926"><ele>7.0</ele><time>2026-04-19T18:24:39.999Z</time></trkpt><trkpt lat="39.783819182216504" lon="-0.17789768070547557"><ele>7.0</ele><time>2026-04-19T18:24:40.999Z</time></trkpt><trkpt lat="39.7836034989944" lon="-0.17813706537982463"><ele>7.0</ele><time>2026-04-19T18:24:41.999Z</time></trkpt><trkpt lat="39.78338783198411" lon="-0.1783759344727445"><ele>7.0</ele><time>2026-04-19T18:24:42.999Z</time></trkpt><trkpt lat="39.78317144034321" lon="-0.1786146611311555"><ele>7.0</ele><time>2026-04-19T18:24:43.999Z</time></trkpt><trkpt lat="39.782954872939456" lon="-0.17885876104957857"><ele>7.0</ele><time>2026-04-19T18:24:44.999Z</time></trkpt><trkpt lat="39.782740855459224" lon="-0.17910553502142"><ele>7.0</ele><time>2026-04-19T18:24:45.999Z</time></trkpt><trkpt lat="39.782527517125814" lon="-0.17935045530860141"><ele>7.0</ele><time>2026-04-19T18:24:46.999Z</time></trkpt><trkpt lat="39.782319255905264" lon="-0.17959457847727175"><ele>7.0</ele><time>2026-04-19T18:24:47.999Z</time></trkpt><trkpt lat="39.78211076304263" lon="-0.1798431016336081"><ele>7.0</ele><time>2026-04-19T18:24:48.999Z</time></trkpt><trkpt lat="39.78190208405557" lon="-0.18009331771052745"><ele>6.0</ele><time>2026-04-19T18:24:49.999Z</time></trkpt><trkpt lat="39.78169328553272" lon="-0.18034813038054495"><ele>5.0</ele><time>2026-04-19T18:24:50.999Z</time></trkpt><trkpt lat="39.78148358591225" lon="-0.18060963135239244"><ele>6.0</ele><time>2026-04-19T18:24:51.999Z</time></trkpt><trkpt lat="39.781269701706925" lon="-0.18087065015994333"><ele>7.0</ele><time>2026-04-19T18:24:52.999Z</time></trkpt><trkpt lat="39.781055829095514" lon="-0.1811445533284312"><ele>6.0</ele><time>2026-04-19T18:24:53.999Z</time></trkpt><trkpt lat="39.78084400167192" lon="-0.18141816251060414"><ele>5.0</ele><time>2026-04-19T18:24:54.999Z</time></trkpt><trkpt lat="39.78063801164747" lon="-0.1816895501260421"><ele>4.5</ele><time>2026-04-19T18:24:55.999Z</time></trkpt><trkpt lat="39.780429574637715" lon="-0.18196628453628497"><ele>4.0</ele><time>2026-04-19T18:24:56.999Z</time></trkpt><trkpt lat="39.78022285715625" lon="-0.18224717466599805"><ele>5.0</ele><time>2026-04-19T18:24:57.999Z</time></trkpt><trkpt lat="39.78001536580301" lon="-0.18252799004027606"><ele>6.0</ele><time>2026-04-19T18:24:58.999Z</time></trkpt><trkpt lat="39.779803263798286" lon="-0.18281811677773172"><ele>6.0</ele><time>2026-04-19T18:24:59.999Z</time></trkpt><trkpt lat="39.779592588155936" lon="-0.183108510812688"><ele>6.0</ele><time>2026-04-19T18:25:00.999Z</time></trkpt><trkpt lat="39.77938365380622" lon="-0.18339847693259867"><ele>5.5</ele><time>2026-04-19T18:25:01.999Z</time></trkpt><trkpt lat="39.77918597211233" lon="-0.18369044594782752"><ele>5.0</ele><time>2026-04-19T18:25:02.999Z</time></trkpt><trkpt lat="39.77898600919054" lon="-0.18398256660428208"><ele>5.0</ele><time>2026-04-19T18:25:03.999Z</time></trkpt><trkpt lat="39.778787512374414" lon="-0.18427645402116155"><ele>5.0</ele><time>2026-04-19T18:25:04.999Z</time></trkpt><trkpt lat="39.778591643504605" lon="-0.1845688504720377"><ele>5.0</ele><time>2026-04-19T18:25:05.999Z</time></trkpt><trkpt lat="39.778398181038824" lon="-0.18485806933161283"><ele>5.0</ele><time>2026-04-19T18:25:06.999Z</time></trkpt><trkpt lat="39.77820757542625" lon="-0.18514813529543625"><ele>5.0</ele><time>2026-04-19T18:25:07.999Z</time></trkpt><trkpt lat="39.778015291370835" lon="-0.18544628128074495"><ele>5.0</ele><time>2026-04-19T18:25:08.999Z</time></trkpt><trkpt lat="39.777819854993105" lon="-0.18574882484083552"><ele>4.5</ele><time>2026-04-19T18:25:09.999Z</time></trkpt><trkpt lat="39.77761941702893" lon="-0.18606507721122206"><ele>4.0</ele><time>2026-04-19T18:25:10.999Z</time></trkpt><trkpt lat="39.777418258901754" lon="-0.18637784643186323"><ele>5.0</ele><time>2026-04-19T18:25:11.999Z</time></trkpt><trkpt lat="39.77722072064598" lon="-0.1866860999901964"><ele>6.0</ele><time>2026-04-19T18:25:12.999Z</time></trkpt><trkpt lat="39.77702626092064" lon="-0.1869982317083798"><ele>5.5</ele><time>2026-04-19T18:25:13.999Z</time></trkpt><trkpt lat="39.77683358325055" lon="-0.18731677995825355"><ele>5.0</ele><time>2026-04-19T18:25:14.999Z</time></trkpt><trkpt lat="39.77664656454086" lon="-0.18763481294997433"><ele>5.0</ele><time>2026-04-19T18:25:15.999Z</time></trkpt><trkpt lat="39.776463170298" lon="-0.18795770448955293"><ele>5.0</ele><time>2026-04-19T18:25:16.999Z</time></trkpt><trkpt lat="39.77628406569344" lon="-0.18827449700937823"><ele>4.5</ele><time>2026-04-19T18:25:17.999Z</time></trkpt><trkpt lat="39.776107067488944" lon="-0.18859291973490724"><ele>4.0</ele><time>2026-04-19T18:25:18.998Z</time></trkpt><trkpt lat="39.775930825702545" lon="-0.18891163059699195"><ele>3.0</ele><time>2026-04-19T18:25:19.998Z</time></trkpt><trkpt lat="39.775756071097454" lon="-0.18923364728519362"><ele>2.0</ele><time>2026-04-19T18:25:20.998Z</time></trkpt><trkpt lat="39.77557723826618" lon="-0.18955425553737126"><ele>3.0</ele><time>2026-04-19T18:25:21.998Z</time></trkpt><trkpt lat="39.775400950175204" lon="-0.1898666987152209"><ele>4.0</ele><time>2026-04-19T18:25:22.998Z</time></trkpt><trkpt lat="39.77522984291144" lon="-0.19017333635231257"><ele>4.0</ele><time>2026-04-19T18:25:23.998Z</time></trkpt><trkpt lat="39.77506539759055" lon="-0.19047662699891682"><ele>4.0</ele><time>2026-04-19T18:25:24.998Z</time></trkpt><trkpt lat="39.77489910301761" lon="-0.19077375796991022"><ele>4.0</ele><time>2026-04-19T18:25:25.998Z</time></trkpt><trkpt lat="39.774733753256825" lon="-0.19106829513138165"><ele>4.0</ele><time>2026-04-19T18:25:26.998Z</time></trkpt><trkpt lat="39.77456732968671" lon="-0.1913626420771873"><ele>3.5</ele><time>2026-04-19T18:25:27.998Z</time></trkpt><trkpt lat="39.774398924527034" lon="-0.19165842339845157"><ele>3.0</ele><time>2026-04-19T18:25:28.998Z</time></trkpt><trkpt lat="39.7742303344961" lon="-0.19195276618499096"><ele>3.0</ele><time>2026-04-19T18:25:29.998Z</time></trkpt><trkpt lat="39.77406070028043" lon="-0.192246598571492"><ele>3.0</ele><time>2026-04-19T18:25:30.998Z</time></trkpt><trkpt lat="39.77388746396135" lon="-0.19254875723475998"><ele>2.5</ele><time>2026-04-19T18:25:31.998Z</time></trkpt><trkpt lat="39.77371067808897" lon="-0.1928496113439594"><ele>2.0</ele><time>2026-04-19T18:25:32.998Z</time></trkpt><trkpt lat="39.77352740469748" lon="-0.19315233692097694"><ele>2.0</ele><time>2026-04-19T18:25:33.998Z</time></trkpt><trkpt lat="39.773343576442166" lon="-0.19345294605872584"><ele>2.0</ele><time>2026-04-19T18:25:34.998Z</time></trkpt><trkpt lat="39.77315708754507" lon="-0.19375437184866554"><ele>2.0</ele><time>2026-04-19T18:25:35.998Z</time></trkpt><trkpt lat="39.77296856905613" lon="-0.19405106594993132"><ele>2.0</ele><time>2026-04-19T18:25:36.998Z</time></trkpt><trkpt lat="39.772775178715705" lon="-0.19434403521502996"><ele>1.5</ele><time>2026-04-19T18:25:37.998Z</time></trkpt><trkpt lat="39.772584044793376" lon="-0.19463577596116682"><ele>1.0</ele><time>2026-04-19T18:25:38.998Z</time></trkpt><trkpt lat="39.77239213607483" lon="-0.19492534188321792"><ele>1.0</ele><time>2026-04-19T18:25:39.998Z</time></trkpt><trkpt lat="39.772198912153264" lon="-0.19521008784457802"><ele>1.0</ele><time>2026-04-19T18:25:40.998Z</time></trkpt><trkpt lat="39.77200279812335" lon="-0.1954933440404692"><ele>2.0</ele><time>2026-04-19T18:25:41.998Z</time></trkpt><trkpt lat="39.77180626299154" lon="-0.1957708793345213"><ele>3.0</ele><time>2026-04-19T18:25:43Z</time></trkpt><trkpt lat="39.77160653876814" lon="-0.19604623073665972"><ele>3.0</ele><time>2026-04-19T18:25:44Z</time></trkpt><trkpt lat="39.771411948709" lon="-0.1963173949293332"><ele>3.0</ele><time>2026-04-19T18:25:45Z</time></trkpt><trkpt lat="39.77121554703187" lon="-0.1965888821933337"><ele>3.0</ele><time>2026-04-19T18:25:46Z</time></trkpt><trkpt lat="39.77102203751086" lon="-0.19685202796297357"><ele>3.0</ele><time>2026-04-19T18:25:47Z</time></trkpt><trkpt lat="39.77083759143531" lon="-0.19712372139310272"><ele>3.0</ele><time>2026-04-19T18:25:48Z</time></trkpt><trkpt lat="39.77063154265398" lon="-0.1973737156278122"><ele>3.0</ele><time>2026-04-19T18:25:49Z</time></trkpt><trkpt lat="39.77042952849826" lon="-0.19763033106476316"><ele>3.0</ele><time>2026-04-19T18:25:50Z</time></trkpt><trkpt lat="39.77022764590524" lon="-0.19788120242878682"><ele>3.0</ele><time>2026-04-19T18:25:51Z</time></trkpt><trkpt lat="39.77002450016509" lon="-0.19812901317173232"><ele>2.5</ele><time>2026-04-19T18:25:52Z</time></trkpt><trkpt lat="39.76981852491292" lon="-0.19837868622789248"><ele>2.0</ele><time>2026-04-19T18:25:53Z</time></trkpt><trkpt lat="39.76961167091738" lon="-0.19862762651893703"><ele>2.0</ele><time>2026-04-19T18:25:54Z</time></trkpt><trkpt lat="39.76940384122105" lon="-0.198872040087544"><ele>2.0</ele><time>2026-04-19T18:25:55Z</time></trkpt><trkpt lat="39.769189863636925" lon="-0.19911882100422756"><ele>2.5</ele><time>2026-04-19T18:25:56Z</time></trkpt><trkpt lat="39.768974951513734" lon="-0.19936239330814137"><ele>3.0</ele><time>2026-04-19T18:25:57Z</time></trkpt><trkpt lat="39.768759555844404" lon="-0.19960696108745601"><ele>3.5</ele><time>2026-04-19T18:25:58Z</time></trkpt><trkpt lat="39.768542108506615" lon="-0.19985267128207054"><ele>4.0</ele><time>2026-04-19T18:25:59Z</time></trkpt><trkpt lat="39.768320436732495" lon="-0.20009571672175416"><ele>4.5</ele><time>2026-04-19T18:26:00Z</time></trkpt><trkpt lat="39.76809631545407" lon="-0.20033414176308992"><ele>5.0</ele><time>2026-04-19T18:26:01Z</time></trkpt><trkpt lat="39.767871009058105" lon="-0.2005675600834132"><ele>5.0</ele><time>2026-04-19T18:26:02Z</time></trkpt><trkpt lat="39.767641751331276" lon="-0.20080028023589147"><ele>5.0</ele><time>2026-04-19T18:26:03Z</time></trkpt><trkpt lat="39.76741264990027" lon="-0.20103496344719446"><ele>5.0</ele><time>2026-04-19T18:26:04Z</time></trkpt><trkpt lat="39.76718213569657" lon="-0.2012690591020452"><ele>5.0</ele><time>2026-04-19T18:26:05Z</time></trkpt><trkpt lat="39.766952776872806" lon="-0.20150136966760182"><ele>5.5</ele><time>2026-04-19T18:26:06Z</time></trkpt><trkpt lat="39.76672177465771" lon="-0.2017303635029009"><ele>6.0</ele><time>2026-04-19T18:26:07Z</time></trkpt><trkpt lat="39.76648658964411" lon="-0.2019583493137434"><ele>6.0</ele><time>2026-04-19T18:26:08Z</time></trkpt><trkpt lat="39.766254945625725" lon="-0.20217957667476452"><ele>6.0</ele><time>2026-04-19T18:26:09Z</time></trkpt><trkpt lat="39.76602390029632" lon="-0.20238780292676786"><ele>7.0</ele><time>2026-04-19T18:26:10Z</time></trkpt><trkpt lat="39.76579306920841" lon="-0.20259245956866845"><ele>8.0</ele><time>2026-04-19T18:26:11Z</time></trkpt><trkpt lat="39.76556330383204" lon="-0.20279359000871766"><ele>8.0</ele><time>2026-04-19T18:26:12Z</time></trkpt><trkpt lat="39.765331367377314" lon="-0.20299823727656865"><ele>8.0</ele><time>2026-04-19T18:26:13Z</time></trkpt><trkpt lat="39.765097788552275" lon="-0.20320429652604952"><ele>8.0</ele><time>2026-04-19T18:26:14Z</time></trkpt><trkpt lat="39.76486260730278" lon="-0.2034106759414955"><ele>8.0</ele><time>2026-04-19T18:26:15Z</time></trkpt><trkpt lat="39.764618651534356" lon="-0.20361373578823458"><ele>8.0</ele><time>2026-04-19T18:26:16Z</time></trkpt><trkpt lat="39.76437313936648" lon="-0.2038125139234795"><ele>8.0</ele><time>2026-04-19T18:26:17Z</time></trkpt><trkpt lat="39.76412559203881" lon="-0.20401034647739058"><ele>9.0</ele><time>2026-04-19T18:26:18Z</time></trkpt><trkpt lat="39.7638759801231" lon="-0.2042071004318839"><ele>10.0</ele><time>2026-04-19T18:26:19Z</time></trkpt><trkpt lat="39.76362876414374" lon="-0.20440176020754988"><ele>10.5</ele><time>2026-04-19T18:26:20Z</time></trkpt><trkpt lat="39.76337900795717" lon="-0.20459013993271735"><ele>11.0</ele><time>2026-04-19T18:26:21Z</time></trkpt><trkpt lat="39.76313033301269" lon="-0.20477559342327553"><ele>10.5</ele><time>2026-04-19T18:26:22Z</time></trkpt><trkpt lat="39.76288562281707" lon="-0.20495558430150354"><ele>10.0</ele><time>2026-04-19T18:26:23Z</time></trkpt><trkpt lat="39.76263916589925" lon="-0.20513395455599598"><ele>10.0</ele><time>2026-04-19T18:26:24Z</time></trkpt><trkpt lat="39.76239255455871" lon="-0.20530965102606794"><ele>10.0</ele><time>2026-04-19T18:26:25Z</time></trkpt><trkpt lat="39.76214453086629" lon="-0.20548362409752405"><ele>10.0</ele><time>2026-04-19T18:26:25.999Z</time></trkpt><trkpt lat="39.76188911327521" lon="-0.20565473134495854"><ele>10.0</ele><time>2026-04-19T18:26:26.999Z</time></trkpt><trkpt lat="39.761638712246906" lon="-0.20582075796118535"><ele>10.0</ele><time>2026-04-19T18:26:27.999Z</time></trkpt><trkpt lat="39.761383447321755" lon="-0.205994554538426"><ele>10.0</ele><time>2026-04-19T18:26:28.999Z</time></trkpt><trkpt lat="39.76112545043218" lon="-0.20616871769044467"><ele>9.5</ele><time>2026-04-19T18:26:29.999Z</time></trkpt><trkpt lat="39.760856961463546" lon="-0.20634330269638532"><ele>9.0</ele><time>2026-04-19T18:26:30.999Z</time></trkpt><trkpt lat="39.76058979194765" lon="-0.20650988458753494"><ele>9.0</ele><time>2026-04-19T18:26:31.999Z</time></trkpt><trkpt lat="39.76032137774145" lon="-0.20667265992248157"><ele>9.0</ele><time>2026-04-19T18:26:32.999Z</time></trkpt><trkpt lat="39.76005327086999" lon="-0.2068316950041318"><ele>10.0</ele><time>2026-04-19T18:26:33.999Z</time></trkpt><trkpt lat="39.759779651704804" lon="-0.2069931255066799"><ele>11.0</ele><time>2026-04-19T18:26:34.999Z</time></trkpt><trkpt lat="39.75949658876373" lon="-0.20715343729628227"><ele>11.0</ele><time>2026-04-19T18:26:35.999Z</time></trkpt><trkpt lat="39.75920774024515" lon="-0.207316240711685"><ele>11.0</ele><time>2026-04-19T18:26:36.999Z</time></trkpt><trkpt lat="39.75891813333214" lon="-0.20748113152297454"><ele>11.0</ele><time>2026-04-19T18:26:37.999Z</time></trkpt><trkpt lat="39.75863075847726" lon="-0.20764222574176666"><ele>11.0</ele><time>2026-04-19T18:26:38.999Z</time></trkpt><trkpt lat="39.75834815899812" lon="-0.20779836109424193"><ele>11.0</ele><time>2026-04-19T18:26:39.999Z</time></trkpt><trkpt lat="39.758066713198566" lon="-0.20794440187932683"><ele>11.0</ele><time>2026-04-19T18:26:40.999Z</time></trkpt><trkpt lat="39.757786865785405" lon="-0.20808826753069237"><ele>10.0</ele><time>2026-04-19T18:26:41.999Z</time></trkpt><trkpt lat="39.757506737441595" lon="-0.2082303118290977"><ele>9.0</ele><time>2026-04-19T18:26:42.999Z</time></trkpt><trkpt lat="39.757225986609306" lon="-0.20837228760138643"><ele>9.0</ele><time>2026-04-19T18:26:43.999Z</time></trkpt><trkpt lat="39.75693974951059" lon="-0.20851358303127907"><ele>9.0</ele><time>2026-04-19T18:26:44.999Z</time></trkpt><trkpt lat="39.75665004825553" lon="-0.20865218626725424"><ele>9.0</ele><time>2026-04-19T18:26:45.999Z</time></trkpt><trkpt lat="39.75636055699119" lon="-0.20879077542766508"><ele>9.0</ele><time>2026-04-19T18:26:46.999Z</time></trkpt><trkpt lat="39.75607179212578" lon="-0.20892494944489248"><ele>10.0</ele><time>2026-04-19T18:26:47.999Z</time></trkpt><trkpt lat="39.75578223790586" lon="-0.20905169175552774"><ele>11.0</ele><time>2026-04-19T18:26:48.999Z</time></trkpt><trkpt lat="39.75549249450409" lon="-0.20917698590346276"><ele>11.0</ele><time>2026-04-19T18:26:49.999Z</time></trkpt><trkpt lat="39.75520634088165" lon="-0.20929464911976414"><ele>11.0</ele><time>2026-04-19T18:26:50.999Z</time></trkpt><trkpt lat="39.75491863923174" lon="-0.20941815371256842"><ele>11.5</ele><time>2026-04-19T18:26:51.999Z</time></trkpt><trkpt lat="39.754634305100744" lon="-0.20956295030620664"><ele>12.0</ele><time>2026-04-19T18:26:52.999Z</time></trkpt><trkpt lat="39.75434296660815" lon="-0.20966455472681012"><ele>12.0</ele><time>2026-04-19T18:26:53.999Z</time></trkpt><trkpt lat="39.75406038374956" lon="-0.20977787173512258"><ele>12.0</ele><time>2026-04-19T18:26:54.999Z</time></trkpt><trkpt lat="39.7537791179318" lon="-0.20989500982953602"><ele>15.5</ele><time>2026-04-19T18:26:55.999Z</time></trkpt><trkpt lat="39.753498198955405" lon="-0.2100095516466761"><ele>19.0</ele><time>2026-04-19T18:26:56.999Z</time></trkpt><trkpt lat="39.75321971140317" lon="-0.21012473446066113"><ele>19.0</ele><time>2026-04-19T18:26:57.999Z</time></trkpt><trkpt lat="39.75295126610865" lon="-0.2102368644614429"><ele>19.0</ele><time>2026-04-19T18:26:58.999Z</time></trkpt><trkpt lat="39.752682501755935" lon="-0.21034998531277826"><ele>17.0</ele><time>2026-04-19T18:26:59.999Z</time></trkpt><trkpt lat="39.75241746196453" lon="-0.21046432315099917"><ele>15.0</ele><time>2026-04-19T18:27:00.999Z</time></trkpt><trkpt lat="39.752150103738025" lon="-0.2105831156381425"><ele>16.5</ele><time>2026-04-19T18:27:01.999Z</time></trkpt><trkpt lat="39.75188420300412" lon="-0.21072613333451481"><ele>18.0</ele><time>2026-04-19T18:27:02.999Z</time></trkpt><trkpt lat="39.75161719787366" lon="-0.21087298555210415"><ele>15.0</ele><time>2026-04-19T18:27:03.999Z</time></trkpt><trkpt lat="39.75134994827401" lon="-0.21101111361950978"><ele>12.0</ele><time>2026-04-19T18:27:04.999Z</time></trkpt><trkpt lat="39.75108035042584" lon="-0.21115117210510437"><ele>11.5</ele><time>2026-04-19T18:27:05.999Z</time></trkpt><trkpt lat="39.750814060344474" lon="-0.21128995624150138"><ele>11.0</ele><time>2026-04-19T18:27:06.999Z</time></trkpt><trkpt lat="39.75054591183668" lon="-0.21144251501387304"><ele>9.5</ele><time>2026-04-19T18:27:07.999Z</time></trkpt><trkpt lat="39.75027633375299" lon="-0.21160100259261855"><ele>8.0</ele><time>2026-04-19T18:27:08.999Z</time></trkpt><trkpt lat="39.75001413350656" lon="-0.21176493036201022"><ele>8.0</ele><time>2026-04-19T18:27:09.999Z</time></trkpt><trkpt lat="39.749750320306426" lon="-0.21193844073431467"><ele>8.0</ele><time>2026-04-19T18:27:10.999Z</time></trkpt><trkpt lat="39.74948861836527" lon="-0.2121137705610303"><ele>6.5</ele><time>2026-04-19T18:27:11.999Z</time></trkpt><trkpt lat="39.749230299759525" lon="-0.21229318273422748"><ele>5.0</ele><time>2026-04-19T18:27:12.999Z</time></trkpt><trkpt lat="39.74897327325502" lon="-0.21248036367630552"><ele>4.5</ele><time>2026-04-19T18:27:13.999Z</time></trkpt><trkpt lat="39.74871900630233" lon="-0.21267115485009339"><ele>4.0</ele><time>2026-04-19T18:27:14.999Z</time></trkpt><trkpt lat="39.748464035312075" lon="-0.21286791387060183"><ele>4.0</ele><time>2026-04-19T18:27:15.999Z</time></trkpt><trkpt lat="39.74821163203611" lon="-0.21306662950678287"><ele>4.0</ele><time>2026-04-19T18:27:16.999Z</time></trkpt><trkpt lat="39.747963618071765" lon="-0.21327030846580816"><ele>3.5</ele><time>2026-04-19T18:27:17.999Z</time></trkpt><trkpt lat="39.7477203759338" lon="-0.21348076213354505"><ele>3.0</ele><time>2026-04-19T18:27:18.999Z</time></trkpt><trkpt lat="39.74748276707861" lon="-0.21369251027810482"><ele>3.0</ele><time>2026-04-19T18:27:19.999Z</time></trkpt><trkpt lat="39.74724834931785" lon="-0.21391318695177836"><ele>3.0</ele><time>2026-04-19T18:27:20.999Z</time></trkpt><trkpt lat="39.74701364364683" lon="-0.21413729530415038"><ele>3.0</ele><time>2026-04-19T18:27:21.999Z</time></trkpt><trkpt lat="39.746784970510355" lon="-0.214364129887016"><ele>3.0</ele><time>2026-04-19T18:27:22.999Z</time></trkpt><trkpt lat="39.74655671948545" lon="-0.2145975677084761"><ele>3.0</ele><time>2026-04-19T18:27:23.999Z</time></trkpt><trkpt lat="39.746331412628145" lon="-0.21482897338083676"><ele>3.0</ele><time>2026-04-19T18:27:24.999Z</time></trkpt><trkpt lat="39.74610990329574" lon="-0.21506389854888172"><ele>3.5</ele><time>2026-04-19T18:27:25.999Z</time></trkpt><trkpt lat="39.74589135384532" lon="-0.21530173146646406"><ele>4.0</ele><time>2026-04-19T18:27:26.999Z</time></trkpt><trkpt lat="39.7456711921344" lon="-0.21553710056098724"><ele>4.5</ele><time>2026-04-19T18:27:27.999Z</time></trkpt><trkpt lat="39.74545192116198" lon="-0.21577515207408193"><ele>5.0</ele><time>2026-04-19T18:27:28.999Z</time></trkpt><trkpt lat="39.74523785903873" lon="-0.21601187947717204"><ele>5.0</ele><time>2026-04-19T18:27:29.998Z</time></trkpt><trkpt lat="39.7450203873748" lon="-0.2162449670160043"><ele>5.0</ele><time>2026-04-19T18:27:30.998Z</time></trkpt><trkpt lat="39.744801970714654" lon="-0.21649593668787687"><ele>4.5</ele><time>2026-04-19T18:27:31.998Z</time></trkpt><trkpt lat="39.744586801713936" lon="-0.21674033830567435"><ele>4.0</ele><time>2026-04-19T18:27:32.998Z</time></trkpt><trkpt lat="39.74436709954198" lon="-0.21698284229825313"><ele>4.0</ele><time>2026-04-19T18:27:33.998Z</time></trkpt><trkpt lat="39.74414112365425" lon="-0.21722708431119367"><ele>4.0</ele><time>2026-04-19T18:27:34.998Z</time></trkpt><trkpt lat="39.743914486921206" lon="-0.21746934701980358"><ele>3.5</ele><time>2026-04-19T18:27:35.998Z</time></trkpt><trkpt lat="39.74368907090021" lon="-0.21770535970441549"><ele>3.0</ele><time>2026-04-19T18:27:36.998Z</time></trkpt><trkpt lat="39.74345993977311" lon="-0.21793990732053306"><ele>3.5</ele><time>2026-04-19T18:27:37.998Z</time></trkpt><trkpt lat="39.743231199729415" lon="-0.21817527980237789"><ele>4.0</ele><time>2026-04-19T18:27:38.998Z</time></trkpt><trkpt lat="39.743003322465874" lon="-0.2184089821975827"><ele>4.0</ele><time>2026-04-19T18:27:39.998Z</time></trkpt><trkpt lat="39.74277326217794" lon="-0.218642076464398"><ele>4.0</ele><time>2026-04-19T18:27:40.998Z</time></trkpt><trkpt lat="39.7425426434225" lon="-0.2188715802050869"><ele>4.0</ele><time>2026-04-19T18:27:41.998Z</time></trkpt><trkpt lat="39.742315597926776" lon="-0.21909561616545206"><ele>4.0</ele><time>2026-04-19T18:27:42.998Z</time></trkpt><trkpt lat="39.74208475239226" lon="-0.2193174240294659"><ele>4.0</ele><time>2026-04-19T18:27:43.998Z</time></trkpt><trkpt lat="39.74185505758094" lon="-0.21953451342970415"><ele>4.0</ele><time>2026-04-19T18:27:44.998Z</time></trkpt><trkpt lat="39.74162554125538" lon="-0.219750945970337"><ele>3.5</ele><time>2026-04-19T18:27:45.998Z</time></trkpt><trkpt lat="39.741395720188066" lon="-0.21996744213625904"><ele>3.0</ele><time>2026-04-19T18:27:46.998Z</time></trkpt><trkpt lat="39.741162271534705" lon="-0.22018491405535404"><ele>3.0</ele><time>2026-04-19T18:27:48Z</time></trkpt><trkpt lat="39.74092466747128" lon="-0.2204028091630572"><ele>3.0</ele><time>2026-04-19T18:27:49Z</time></trkpt><trkpt lat="39.74068442091415" lon="-0.22061740016377604"><ele>3.0</ele><time>2026-04-19T18:27:50Z</time></trkpt><trkpt lat="39.74044473559284" lon="-0.22082651747776014"><ele>3.0</ele><time>2026-04-19T18:27:51Z</time></trkpt><trkpt lat="39.740200369939615" lon="-0.2210336553917858"><ele>3.0</ele><time>2026-04-19T18:27:52Z</time></trkpt><trkpt lat="39.73995245827819" lon="-0.22123907176271015"><ele>3.0</ele><time>2026-04-19T18:27:53Z</time></trkpt><trkpt lat="39.739707415912456" lon="-0.22144304899945855"><ele>3.5</ele><time>2026-04-19T18:27:54Z</time></trkpt><trkpt lat="39.7394566573726" lon="-0.22165095936822313"><ele>4.0</ele><time>2026-04-19T18:27:55Z</time></trkpt><trkpt lat="39.73920621397424" lon="-0.22185547267394157"><ele>4.0</ele><time>2026-04-19T18:27:56Z</time></trkpt><trkpt lat="39.738947808505216" lon="-0.2220598467494647"><ele>4.0</ele><time>2026-04-19T18:27:57Z</time></trkpt><trkpt lat="39.73867368865591" lon="-0.2222738521761168"><ele>4.5</ele><time>2026-04-19T18:27:58Z</time></trkpt><trkpt lat="39.738399457788475" lon="-0.2224896715631918"><ele>5.0</ele><time>2026-04-19T18:27:59Z</time></trkpt><trkpt lat="39.73812395024655" lon="-0.22270473606565547"><ele>5.0</ele><time>2026-04-19T18:28:00Z</time></trkpt><trkpt lat="39.73785237750101" lon="-0.22290886032139207"><ele>5.0</ele><time>2026-04-19T18:28:01Z</time></trkpt><trkpt lat="39.73758069048603" lon="-0.22310966936320822"><ele>4.0</ele><time>2026-04-19T18:28:02Z</time></trkpt><trkpt lat="39.73731245446454" lon="-0.22330188635219744"><ele>3.0</ele><time>2026-04-19T18:28:03Z</time></trkpt><trkpt lat="39.73705423411978" lon="-0.22348810008188705"><ele>2.5</ele><time>2026-04-19T18:28:04Z</time></trkpt><trkpt lat="39.736806259132464" lon="-0.22366394960973987"><ele>2.0</ele><time>2026-04-19T18:28:05Z</time></trkpt><trkpt lat="39.73656034879577" lon="-0.22383773860104636"><ele>2.0</ele><time>2026-04-19T18:28:06Z</time></trkpt><trkpt lat="39.736314805336626" lon="-0.22400943920182767"><ele>2.0</ele><time>2026-04-19T18:28:07Z</time></trkpt><trkpt lat="39.736068258546226" lon="-0.2241751368021787"><ele>2.5</ele><time>2026-04-19T18:28:08Z</time></trkpt><trkpt lat="39.735813456925335" lon="-0.22433884846840924"><ele>3.0</ele><time>2026-04-19T18:28:09Z</time></trkpt><trkpt lat="39.735545685843036" lon="-0.22450183645303357"><ele>3.0</ele><time>2026-04-19T18:28:10Z</time></trkpt><trkpt lat="39.73527673366611" lon="-0.22467363466871879"><ele>3.0</ele><time>2026-04-19T18:28:11Z</time></trkpt><trkpt lat="39.73500809020908" lon="-0.22485481144531752"><ele>4.5</ele><time>2026-04-19T18:28:12Z</time></trkpt><trkpt lat="39.73474841299956" lon="-0.2249942167276271"><ele>6.0</ele><time>2026-04-19T18:28:13Z</time></trkpt><trkpt lat="39.73448966769229" lon="-0.2251498375639486"><ele>5.5</ele><time>2026-04-19T18:28:14Z</time></trkpt><trkpt lat="39.734227868729384" lon="-0.22530495203056042"><ele>5.0</ele><time>2026-04-19T18:28:15Z</time></trkpt><trkpt lat="39.733967035262395" lon="-0.22546364014823667"><ele>5.0</ele><time>2026-04-19T18:28:16Z</time></trkpt><trkpt lat="39.733702868491044" lon="-0.22561492603222907"><ele>5.0</ele><time>2026-04-19T18:28:17Z</time></trkpt><trkpt lat="39.733437259452195" lon="-0.22576620472365588"><ele>4.5</ele><time>2026-04-19T18:28:18Z</time></trkpt><trkpt lat="39.733171941753646" lon="-0.22591990343439278"><ele>4.0</ele><time>2026-04-19T18:28:19Z</time></trkpt><trkpt lat="39.73290158464381" lon="-0.2260723276700188"><ele>4.0</ele><time>2026-04-19T18:28:20Z</time></trkpt><trkpt lat="39.732628523313764" lon="-0.2262204737060363"><ele>4.0</ele><time>2026-04-19T18:28:21Z</time></trkpt><trkpt lat="39.7323548667361" lon="-0.22636810006280955"><ele>3.5</ele><time>2026-04-19T18:28:22Z</time></trkpt><trkpt lat="39.732079997519" lon="-0.22651673743469938"><ele>3.0</ele><time>2026-04-19T18:28:23Z</time></trkpt><trkpt lat="39.73180267752613" lon="-0.22666017006166939"><ele>3.0</ele><time>2026-04-19T18:28:24Z</time></trkpt><trkpt lat="39.7315258615714" lon="-0.226803145274151"><ele>3.0</ele><time>2026-04-19T18:28:25Z</time></trkpt><trkpt lat="39.73124315762885" lon="-0.22694251190951348"><ele>2.5</ele><time>2026-04-19T18:28:26Z</time></trkpt><trkpt lat="39.730965828132625" lon="-0.2270757477149953"><ele>2.0</ele><time>2026-04-19T18:28:27Z</time></trkpt><trkpt lat="39.73068495183956" lon="-0.22720426729847004"><ele>2.5</ele><time>2026-04-19T18:28:28Z</time></trkpt><trkpt lat="39.73040560015185" lon="-0.22733420518359015"><ele>3.0</ele><time>2026-04-19T18:28:29Z</time></trkpt><trkpt lat="39.73013031088317" lon="-0.227454669838466"><ele>3.5</ele><time>2026-04-19T18:28:30Z</time></trkpt><trkpt lat="39.72985934789009" lon="-0.22757781092186713"><ele>4.0</ele><time>2026-04-19T18:28:31Z</time></trkpt><trkpt lat="39.729590241741974" lon="-0.22769682271385402"><ele>3.5</ele><time>2026-04-19T18:28:32Z</time></trkpt><trkpt lat="39.729326601192575" lon="-0.22781183509519742"><ele>3.0</ele><time>2026-04-19T18:28:33Z</time></trkpt><trkpt lat="39.729061004722254" lon="-0.22793319643892304"><ele>3.0</ele><time>2026-04-19T18:28:33.999Z</time></trkpt><trkpt lat="39.72879991145779" lon="-0.22804717957761197"><ele>3.0</ele><time>2026-04-19T18:28:34.999Z</time></trkpt><trkpt lat="39.728535887175205" lon="-0.22816723859879773"><ele>3.0</ele><time>2026-04-19T18:28:35.999Z</time></trkpt><trkpt lat="39.728273207762605" lon="-0.22829492481689645"><ele>3.0</ele><time>2026-04-19T18:28:36.999Z</time></trkpt><trkpt lat="39.72801409163396" lon="-0.22842549979521573"><ele>3.0</ele><time>2026-04-19T18:28:37.999Z</time></trkpt><trkpt lat="39.72775477002053" lon="-0.2285542659273541"><ele>3.0</ele><time>2026-04-19T18:28:38.999Z</time></trkpt><trkpt lat="39.72749203895326" lon="-0.22868636923681393"><ele>3.0</ele><time>2026-04-19T18:28:39.999Z</time></trkpt><trkpt lat="39.72722801190712" lon="-0.22882162418363994"><ele>3.0</ele><time>2026-04-19T18:28:40.999Z</time></trkpt><trkpt lat="39.72696329362814" lon="-0.22896326758224736"><ele>4.5</ele><time>2026-04-19T18:28:41.999Z</time></trkpt><trkpt lat="39.726695811366646" lon="-0.22910454072924916"><ele>6.0</ele><time>2026-04-19T18:28:42.999Z</time></trkpt><trkpt lat="39.726430874447175" lon="-0.22924720160326778"><ele>6.0</ele><time>2026-04-19T18:28:43.999Z</time></trkpt><trkpt lat="39.72616386792388" lon="-0.22939192605275927"><ele>6.0</ele><time>2026-04-19T18:28:44.999Z</time></trkpt><trkpt lat="39.72589805982082" lon="-0.22954361394488518"><ele>5.5</ele><time>2026-04-19T18:28:45.999Z</time></trkpt><trkpt lat="39.72563459459849" lon="-0.22968844944738293"><ele>5.0</ele><time>2026-04-19T18:28:46.999Z</time></trkpt><trkpt lat="39.72536928137022" lon="-0.22984557769314726"><ele>5.0</ele><time>2026-04-19T18:28:47.999Z</time></trkpt><trkpt lat="39.725103888963" lon="-0.23000824266678443"><ele>5.0</ele><time>2026-04-19T18:28:48.999Z</time></trkpt><trkpt lat="39.7248439774912" lon="-0.23017041578406108"><ele>5.0</ele><time>2026-04-19T18:28:49.999Z</time></trkpt><trkpt lat="39.724585654122045" lon="-0.23033063917704946"><ele>5.0</ele><time>2026-04-19T18:28:50.999Z</time></trkpt><trkpt lat="39.724328871298" lon="-0.23049282236603147"><ele>4.0</ele><time>2026-04-19T18:28:51.999Z</time></trkpt><trkpt lat="39.72407878267597" lon="-0.23065564613528253"><ele>3.0</ele><time>2026-04-19T18:28:52.999Z</time></trkpt><trkpt lat="39.7238298647896" lon="-0.23081766435590603"><ele>3.0</ele><time>2026-04-19T18:28:53.999Z</time></trkpt><trkpt lat="39.723574647283996" lon="-0.230991930155659"><ele>3.0</ele><time>2026-04-19T18:28:54.999Z</time></trkpt><trkpt lat="39.72332520894321" lon="-0.23116270744092818"><ele>3.5</ele><time>2026-04-19T18:28:55.999Z</time></trkpt><trkpt lat="39.72307739921355" lon="-0.23133793979040906"><ele>4.0</ele><time>2026-04-19T18:28:56.999Z</time></trkpt><trkpt lat="39.72282376668772" lon="-0.23151478412043844"><ele>4.5</ele><time>2026-04-19T18:28:57.999Z</time></trkpt><trkpt lat="39.72257029983156" lon="-0.23168829218409165"><ele>5.0</ele><time>2026-04-19T18:28:58.999Z</time></trkpt><trkpt lat="39.72231772727557" lon="-0.23186806765016443"><ele>5.0</ele><time>2026-04-19T18:28:59.999Z</time></trkpt><trkpt lat="39.72206447862549" lon="-0.23205149317902327"><ele>5.0</ele><time>2026-04-19T18:29:00.999Z</time></trkpt><trkpt lat="39.721814454137125" lon="-0.23223440377522425"><ele>5.0</ele><time>2026-04-19T18:29:01.999Z</time></trkpt><trkpt lat="39.721564099244866" lon="-0.23241672372040487"><ele>5.0</ele><time>2026-04-19T18:29:02.999Z</time></trkpt><trkpt lat="39.72131213235171" lon="-0.23260222427761812"><ele>6.0</ele><time>2026-04-19T18:29:03.999Z</time></trkpt><trkpt lat="39.72105610936439" lon="-0.23279086989350636"><ele>7.0</ele><time>2026-04-19T18:29:04.999Z</time></trkpt><trkpt lat="39.72079946438076" lon="-0.23298263661203872"><ele>5.5</ele><time>2026-04-19T18:29:05.999Z</time></trkpt><trkpt lat="39.72054465177436" lon="-0.23317628975276222"><ele>4.0</ele><time>2026-04-19T18:29:06.999Z</time></trkpt><trkpt lat="39.72029031829122" lon="-0.23336959447465838"><ele>5.0</ele><time>2026-04-19T18:29:07.999Z</time></trkpt><trkpt lat="39.72003647371479" lon="-0.23356827726524243"><ele>6.0</ele><time>2026-04-19T18:29:08.999Z</time></trkpt><trkpt lat="39.719787068997604" lon="-0.2337730123793958"><ele>6.0</ele><time>2026-04-19T18:29:09.999Z</time></trkpt><trkpt lat="39.719529694141364" lon="-0.23397928120472217"><ele>6.0</ele><time>2026-04-19T18:29:10.999Z</time></trkpt><trkpt lat="39.719278992825885" lon="-0.23418517168011566"><ele>6.5</ele><time>2026-04-19T18:29:11.999Z</time></trkpt><trkpt lat="39.71902778929854" lon="-0.23438731914308045"><ele>7.0</ele><time>2026-04-19T18:29:12.999Z</time></trkpt><trkpt lat="39.71877314001973" lon="-0.23458731858928866"><ele>7.0</ele><time>2026-04-19T18:29:13.999Z</time></trkpt><trkpt lat="39.71850953879982" lon="-0.23478638663719356"><ele>7.0</ele><time>2026-04-19T18:29:14.999Z</time></trkpt><trkpt lat="39.718251021062414" lon="-0.23498242665964186"><ele>7.0</ele><time>2026-04-19T18:29:15.999Z</time></trkpt><trkpt lat="39.71799016983419" lon="-0.23517609135246803"><ele>7.0</ele><time>2026-04-19T18:29:16.999Z</time></trkpt><trkpt lat="39.71772916685168" lon="-0.23536508611600335"><ele>7.0</ele><time>2026-04-19T18:29:17.999Z</time></trkpt><trkpt lat="39.71746434219886" lon="-0.2355489600724928"><ele>7.0</ele><time>2026-04-19T18:29:18.999Z</time></trkpt><trkpt lat="39.71719939637239" lon="-0.23573822775759862"><ele>8.0</ele><time>2026-04-19T18:29:19.999Z</time></trkpt><trkpt lat="39.71693654205183" lon="-0.2359191510198503"><ele>9.0</ele><time>2026-04-19T18:29:20.999Z</time></trkpt><trkpt lat="39.7166685566962" lon="-0.2360989137042003"><ele>9.5</ele><time>2026-04-19T18:29:21.999Z</time></trkpt><trkpt lat="39.71640546209377" lon="-0.23627691494688396"><ele>10.0</ele><time>2026-04-19T18:29:22.999Z</time></trkpt><trkpt lat="39.71614318486509" lon="-0.23645127449610268"><ele>10.5</ele><time>2026-04-19T18:29:23.999Z</time></trkpt><trkpt lat="39.715876350624626" lon="-0.2366253830234604"><ele>11.0</ele><time>2026-04-19T18:29:24.999Z</time></trkpt><trkpt lat="39.715612341049294" lon="-0.23679656030109117"><ele>11.0</ele><time>2026-04-19T18:29:25.999Z</time></trkpt><trkpt lat="39.71534399333935" lon="-0.23696420134440094"><ele>11.0</ele><time>2026-04-19T18:29:26.999Z</time></trkpt><trkpt lat="39.71507783399855" lon="-0.23713005415692098"><ele>11.5</ele><time>2026-04-19T18:29:27.999Z</time></trkpt><trkpt lat="39.71481129819944" lon="-0.23729372298752024"><ele>12.0</ele><time>2026-04-19T18:29:28.999Z</time></trkpt><trkpt lat="39.71454139035576" lon="-0.2374557264811527"><ele>12.0</ele><time>2026-04-19T18:29:29.999Z</time></trkpt><trkpt lat="39.71427330822067" lon="-0.23762274106849998"><ele>12.0</ele><time>2026-04-19T18:29:30.999Z</time></trkpt><trkpt lat="39.71400531499339" lon="-0.23779022232875752"><ele>12.0</ele><time>2026-04-19T18:29:31.999Z</time></trkpt><trkpt lat="39.71373676319541" lon="-0.2379565139413112"><ele>12.0</ele><time>2026-04-19T18:29:32.999Z</time></trkpt><trkpt lat="39.71346975758527" lon="-0.23812727621245527"><ele>11.5</ele><time>2026-04-19T18:29:33.999Z</time></trkpt><trkpt lat="39.713201387458625" lon="-0.23829677532782068"><ele>11.0</ele><time>2026-04-19T18:29:34.999Z</time></trkpt><trkpt lat="39.71293442033287" lon="-0.23846494818291095"><ele>11.5</ele><time>2026-04-19T18:29:35.999Z</time></trkpt><trkpt lat="39.712667256805155" lon="-0.23863725896595872"><ele>12.0</ele><time>2026-04-19T18:29:36.999Z</time></trkpt><trkpt lat="39.71239760992034" lon="-0.23881590832814675"><ele>12.0</ele><time>2026-04-19T18:29:37.999Z</time></trkpt><trkpt lat="39.712133591640736" lon="-0.23899579046132444"><ele>12.0</ele><time>2026-04-19T18:29:38.998Z</time></trkpt><trkpt lat="39.71187301207682" lon="-0.23918024435053578"><ele>12.0</ele><time>2026-04-19T18:29:39.998Z</time></trkpt><trkpt lat="39.711614509858954" lon="-0.23936626919904566"><ele>12.0</ele><time>2026-04-19T18:29:40.998Z</time></trkpt><trkpt lat="39.71135633538071" lon="-0.23955311787052913"><ele>12.0</ele><time>2026-04-19T18:29:41.998Z</time></trkpt><trkpt lat="39.71110296601829" lon="-0.2397443677220225"><ele>12.0</ele><time>2026-04-19T18:29:42.998Z</time></trkpt><trkpt lat="39.7108545494936" lon="-0.23994146234499295"><ele>13.5</ele><time>2026-04-19T18:29:43.998Z</time></trkpt><trkpt lat="39.7106036390369" lon="-0.2401396040927108"><ele>15.0</ele><time>2026-04-19T18:29:44.998Z</time></trkpt><trkpt lat="39.7103566054291" lon="-0.2403406622239101"><ele>14.5</ele><time>2026-04-19T18:29:45.998Z</time></trkpt><trkpt lat="39.71011950901455" lon="-0.240551011593456"><ele>14.0</ele><time>2026-04-19T18:29:46.998Z</time></trkpt><trkpt lat="39.70988772047751" lon="-0.240770595696052"><ele>13.5</ele><time>2026-04-19T18:29:47.998Z</time></trkpt><trkpt lat="39.70965188574422" lon="-0.24099482872299355"><ele>13.0</ele><time>2026-04-19T18:29:48.998Z</time></trkpt><trkpt lat="39.70942555109897" lon="-0.24122192684965021"><ele>13.0</ele><time>2026-04-19T18:29:49.998Z</time></trkpt><trkpt lat="39.7091958651011" lon="-0.24144602367933052"><ele>13.0</ele><time>2026-04-19T18:29:50.998Z</time></trkpt><trkpt lat="39.708972319777814" lon="-0.24168126790833014"><ele>14.5</ele><time>2026-04-19T18:29:51.998Z</time></trkpt><trkpt lat="39.70874839270157" lon="-0.24191196579639593"><ele>16.0</ele><time>2026-04-19T18:29:52.998Z</time></trkpt><trkpt lat="39.70852824944012" lon="-0.24213893899974853"><ele>16.5</ele><time>2026-04-19T18:29:54Z</time></trkpt><trkpt lat="39.70830506088983" lon="-0.2423714474434021"><ele>17.0</ele><time>2026-04-19T18:29:55Z</time></trkpt><trkpt lat="39.70808420994282" lon="-0.24261690732342975"><ele>17.0</ele><time>2026-04-19T18:29:56Z</time></trkpt><trkpt lat="39.707862948408355" lon="-0.24286737311085171"><ele>17.0</ele><time>2026-04-19T18:29:57Z</time></trkpt><trkpt lat="39.70764628897402" lon="-0.2431139979177845"><ele>17.0</ele><time>2026-04-19T18:29:58Z</time></trkpt><trkpt lat="39.70743613654087" lon="-0.24337142802983633"><ele>17.0</ele><time>2026-04-19T18:29:59Z</time></trkpt><trkpt lat="39.70722889834309" lon="-0.24363263282600478"><ele>17.0</ele><time>2026-04-19T18:30:00Z</time></trkpt><trkpt lat="39.70702399768693" lon="-0.24389634768157656"><ele>17.0</ele><time>2026-04-19T18:30:01Z</time></trkpt><trkpt lat="39.706828125482126" lon="-0.24415779771622345"><ele>16.5</ele><time>2026-04-19T18:30:02Z</time></trkpt><trkpt lat="39.70663339931562" lon="-0.24442408233751492"><ele>16.0</ele><time>2026-04-19T18:30:03Z</time></trkpt><trkpt lat="39.70645189102266" lon="-0.2446966750542492"><ele>16.0</ele><time>2026-04-19T18:30:04Z</time></trkpt><trkpt lat="39.70628298334391" lon="-0.2449702606024542"><ele>16.0</ele><time>2026-04-19T18:30:05Z</time></trkpt><trkpt lat="39.706116864340004" lon="-0.2452532751155526"><ele>16.5</ele><time>2026-04-19T18:30:06Z</time></trkpt><trkpt lat="39.70596065362587" lon="-0.2455373370558917"><ele>17.0</ele><time>2026-04-19T18:30:07Z</time></trkpt><trkpt lat="39.705814063997096" lon="-0.24583515767045874"><ele>17.5</ele><time>2026-04-19T18:30:08Z</time></trkpt><trkpt lat="39.705662523006026" lon="-0.2461341789566764"><ele>18.0</ele><time>2026-04-19T18:30:09Z</time></trkpt><trkpt lat="39.70551913053273" lon="-0.2464421445956602"><ele>18.0</ele><time>2026-04-19T18:30:10Z</time></trkpt><trkpt lat="39.70537970691831" lon="-0.24676247458672196"><ele>18.0</ele><time>2026-04-19T18:30:11Z</time></trkpt><trkpt lat="39.705245317278894" lon="-0.24708984060680364"><ele>19.0</ele><time>2026-04-19T18:30:12Z</time></trkpt><trkpt lat="39.70512436990084" lon="-0.24742391897905358"><ele>20.0</ele><time>2026-04-19T18:30:13Z</time></trkpt><trkpt lat="39.705011657203606" lon="-0.24775651361803241"><ele>20.0</ele><time>2026-04-19T18:30:14Z</time></trkpt><trkpt lat="39.70490539332817" lon="-0.248089179289848"><ele>20.0</ele><time>2026-04-19T18:30:15Z</time></trkpt><trkpt lat="39.70480438262825" lon="-0.2484328416528046"><ele>21.0</ele><time>2026-04-19T18:30:16Z</time></trkpt><trkpt lat="39.70471054060113" lon="-0.2487810072036767"><ele>22.0</ele><time>2026-04-19T18:30:17Z</time></trkpt><trkpt lat="39.70462729658918" lon="-0.2491308326389257"><ele>22.0</ele><time>2026-04-19T18:30:18Z</time></trkpt><trkpt lat="39.70455710907081" lon="-0.24948513486191554"><ele>22.0</ele><time>2026-04-19T18:30:19Z</time></trkpt><trkpt lat="39.704497501315004" lon="-0.24983956056380235"><ele>22.0</ele><time>2026-04-19T18:30:20Z</time></trkpt><trkpt lat="39.70444812501963" lon="-0.250202021417031"><ele>22.0</ele><time>2026-04-19T18:30:21Z</time></trkpt><trkpt lat="39.70440004837322" lon="-0.2505614208573364"><ele>23.0</ele><time>2026-04-19T18:30:22Z</time></trkpt><trkpt lat="39.704350860896824" lon="-0.25091679695008806"><ele>24.0</ele><time>2026-04-19T18:30:23Z</time></trkpt><trkpt lat="39.704307598318" lon="-0.25126334826523283"><ele>24.5</ele><time>2026-04-19T18:30:24Z</time></trkpt><trkpt lat="39.70426510532039" lon="-0.2516125620431314"><ele>25.0</ele><time>2026-04-19T18:30:25Z</time></trkpt><trkpt lat="39.70421955963442" lon="-0.2519620688048271"><ele>24.5</ele><time>2026-04-19T18:30:26Z</time></trkpt><trkpt lat="39.7041657204959" lon="-0.25230940967992355"><ele>24.0</ele><time>2026-04-19T18:30:27Z</time></trkpt><trkpt lat="39.70409879933216" lon="-0.2526646595275478"><ele>24.0</ele><time>2026-04-19T18:30:28Z</time></trkpt><trkpt lat="39.70402635548154" lon="-0.25302629224554263"><ele>24.0</ele><time>2026-04-19T18:30:29Z</time></trkpt><trkpt lat="39.703942019908254" lon="-0.2533904164075353"><ele>24.0</ele><time>2026-04-19T18:30:30Z</time></trkpt><trkpt lat="39.70384751726092" lon="-0.2537594221649324"><ele>24.0</ele><time>2026-04-19T18:30:31Z</time></trkpt><trkpt lat="39.70373275114262" lon="-0.25414161722856093"><ele>24.0</ele><time>2026-04-19T18:30:32Z</time></trkpt><trkpt lat="39.7036064903145" lon="-0.2545199496548694"><ele>24.0</ele><time>2026-04-19T18:30:33Z</time></trkpt><trkpt lat="39.70347824756431" lon="-0.2548909533634365"><ele>26.0</ele><time>2026-04-19T18:30:34Z</time></trkpt><trkpt lat="39.703343960269436" lon="-0.25526048726236655"><ele>28.0</ele><time>2026-04-19T18:30:35Z</time></trkpt><trkpt lat="39.703208089223594" lon="-0.2556178029765409"><ele>27.5</ele><time>2026-04-19T18:30:36Z</time></trkpt><trkpt lat="39.70306879690758" lon="-0.25596889763974784"><ele>27.0</ele><time>2026-04-19T18:30:37Z</time></trkpt><trkpt lat="39.702932790985514" lon="-0.2563054032978772"><ele>26.5</ele><time>2026-04-19T18:30:38Z</time></trkpt><trkpt lat="39.70280062966355" lon="-0.2566426958698374"><ele>26.0</ele><time>2026-04-19T18:30:38.999Z</time></trkpt><trkpt lat="39.7026729509357" lon="-0.2569776949268373"><ele>27.0</ele><time>2026-04-19T18:30:39.999Z</time></trkpt><trkpt lat="39.70255367773629" lon="-0.2573236684620474"><ele>28.0</ele><time>2026-04-19T18:30:40.999Z</time></trkpt><trkpt lat="39.702442938291824" lon="-0.25766523439785993"><ele>28.0</ele><time>2026-04-19T18:30:41.999Z</time></trkpt><trkpt lat="39.702338998090084" lon="-0.2580142417868482"><ele>28.0</ele><time>2026-04-19T18:30:42.999Z</time></trkpt><trkpt lat="39.702240987612" lon="-0.258365266763463"><ele>29.0</ele><time>2026-04-19T18:30:43.999Z</time></trkpt><trkpt lat="39.70215219290263" lon="-0.2587198910167365"><ele>30.0</ele><time>2026-04-19T18:30:44.999Z</time></trkpt><trkpt lat="39.70207565103998" lon="-0.25907484962309146"><ele>30.5</ele><time>2026-04-19T18:30:45.999Z</time></trkpt><trkpt lat="39.702008778718046" lon="-0.2594290448022464"><ele>31.0</ele><time>2026-04-19T18:30:46.999Z</time></trkpt><trkpt lat="39.70195587083049" lon="-0.2597825922106101"><ele>32.5</ele><time>2026-04-19T18:30:47.999Z</time></trkpt><trkpt lat="39.70191406611675" lon="-0.26013783950592567"><ele>34.0</ele><time>2026-04-19T18:30:48.999Z</time></trkpt><trkpt lat="39.70187990110584" lon="-0.2604935738358327"><ele>34.5</ele><time>2026-04-19T18:30:49.999Z</time></trkpt><trkpt lat="39.70184937342384" lon="-0.2608478985842097"><ele>35.0</ele><time>2026-04-19T18:30:50.999Z</time></trkpt><trkpt lat="39.701820636946586" lon="-0.26120373189954843"><ele>36.0</ele><time>2026-04-19T18:30:51.999Z</time></trkpt><trkpt lat="39.70179716476078" lon="-0.2615583428079563"><ele>37.0</ele><time>2026-04-19T18:30:52.999Z</time></trkpt><trkpt lat="39.70177910841601" lon="-0.26191539241403633"><ele>37.0</ele><time>2026-04-19T18:30:53.999Z</time></trkpt><trkpt lat="39.70176255379507" lon="-0.26226777137755"><ele>37.0</ele><time>2026-04-19T18:30:54.999Z</time></trkpt><trkpt lat="39.7017461032701" lon="-0.2626199435225481"><ele>39.0</ele><time>2026-04-19T18:30:55.999Z</time></trkpt><trkpt lat="39.70172933069066" lon="-0.26297537518206676"><ele>41.0</ele><time>2026-04-19T18:30:56.999Z</time></trkpt><trkpt lat="39.70171102821132" lon="-0.26332906317354404"><ele>42.5</ele><time>2026-04-19T18:30:57.999Z</time></trkpt><trkpt lat="39.70168708975495" lon="-0.2636849125755655"><ele>44.0</ele><time>2026-04-19T18:30:58.999Z</time></trkpt><trkpt lat="39.70165493056628" lon="-0.26403596685299663"><ele>45.5</ele><time>2026-04-19T18:30:59.999Z</time></trkpt><trkpt lat="39.701612877271316" lon="-0.264387839909099"><ele>47.0</ele><time>2026-04-19T18:31:00.999Z</time></trkpt><trkpt lat="39.701562979055865" lon="-0.2647396714042277"><ele>48.5</ele><time>2026-04-19T18:31:01.999Z</time></trkpt><trkpt lat="39.701507287253335" lon="-0.2651062370078598"><ele>50.0</ele><time>2026-04-19T18:31:02.999Z</time></trkpt><trkpt lat="39.70143692602234" lon="-0.2654624085512545"><ele>51.5</ele><time>2026-04-19T18:31:03.999Z</time></trkpt><trkpt lat="39.70136050136106" lon="-0.2658216872653096"><ele>53.0</ele><time>2026-04-19T18:31:04.999Z</time></trkpt><trkpt lat="39.7012767138015" lon="-0.2661787782275109"><ele>52.5</ele><time>2026-04-19T18:31:05.999Z</time></trkpt><trkpt lat="39.701180510369824" lon="-0.2665306078957412"><ele>52.0</ele><time>2026-04-19T18:31:06.999Z</time></trkpt><trkpt lat="39.70107516793767" lon="-0.26688219912259076"><ele>52.0</ele><time>2026-04-19T18:31:07.999Z</time></trkpt><trkpt lat="39.700963767822934" lon="-0.2672275776980398"><ele>52.0</ele><time>2026-04-19T18:31:08.999Z</time></trkpt><trkpt lat="39.700843970437674" lon="-0.2675700489921514"><ele>53.0</ele><time>2026-04-19T18:31:09.999Z</time></trkpt><trkpt lat="39.70071384134411" lon="-0.26790878175130073"><ele>54.0</ele><time>2026-04-19T18:31:10.999Z</time></trkpt><trkpt lat="39.70057272854074" lon="-0.2682524321288645"><ele>55.5</ele><time>2026-04-19T18:31:11.999Z</time></trkpt><trkpt lat="39.700425427842" lon="-0.26857845088084953"><ele>57.0</ele><time>2026-04-19T18:31:12.999Z</time></trkpt><trkpt lat="39.7002659695211" lon="-0.26890163497504516"><ele>56.5</ele><time>2026-04-19T18:31:13.999Z</time></trkpt><trkpt lat="39.700101340144265" lon="-0.26921751285708456"><ele>56.0</ele><time>2026-04-19T18:31:14.999Z</time></trkpt><trkpt lat="39.699929796913246" lon="-0.2695232134776813"><ele>57.5</ele><time>2026-04-19T18:31:15.999Z</time></trkpt><trkpt lat="39.699749239163104" lon="-0.2698260619479493"><ele>59.0</ele><time>2026-04-19T18:31:16.999Z</time></trkpt><trkpt lat="39.69956598161075" lon="-0.27011430067120934"><ele>57.0</ele><time>2026-04-19T18:31:17.999Z</time></trkpt><trkpt lat="39.699379338352244" lon="-0.27040324977180985"><ele>55.0</ele><time>2026-04-19T18:31:18.999Z</time></trkpt><trkpt lat="39.69919099935587" lon="-0.2706924267819915"><ele>55.0</ele><time>2026-04-19T18:31:19.999Z</time></trkpt><trkpt lat="39.69899879057093" lon="-0.2709820173454019"><ele>55.0</ele><time>2026-04-19T18:31:20.999Z</time></trkpt><trkpt lat="39.69880775086181" lon="-0.2712754803598415"><ele>56.0</ele><time>2026-04-19T18:31:21.999Z</time></trkpt><trkpt lat="39.69861761881879" lon="-0.2715697711109691"><ele>57.0</ele><time>2026-04-19T18:31:22.999Z</time></trkpt><trkpt lat="39.698428289289154" lon="-0.2718672746014743"><ele>57.0</ele><time>2026-04-19T18:31:23.999Z</time></trkpt><trkpt lat="39.6982468169107" lon="-0.2721662498193397"><ele>57.0</ele><time>2026-04-19T18:31:24.999Z</time></trkpt><trkpt lat="39.69807003235054" lon="-0.27247545933308837"><ele>59.5</ele><time>2026-04-19T18:31:25.999Z</time></trkpt><trkpt lat="39.69789420279207" lon="-0.27280045288586924"><ele>62.0</ele><time>2026-04-19T18:31:26.999Z</time></trkpt><trkpt lat="39.69773083380751" lon="-0.27312934423250396"><ele>63.0</ele><time>2026-04-19T18:31:27.999Z</time></trkpt><trkpt lat="39.697575618129434" lon="-0.2734673980341757"><ele>64.0</ele><time>2026-04-19T18:31:28.999Z</time></trkpt><trkpt lat="39.697431193091724" lon="-0.27381152367992356"><ele>65.5</ele><time>2026-04-19T18:31:29.999Z</time></trkpt><trkpt lat="39.6972921680179" lon="-0.2741668523805906"><ele>67.0</ele><time>2026-04-19T18:31:30.999Z</time></trkpt><trkpt lat="39.69716333897577" lon="-0.27452220331359956"><ele>68.0</ele><time>2026-04-19T18:31:31.999Z</time></trkpt><trkpt lat="39.69704096698224" lon="-0.2748864000763583"><ele>69.0</ele><time>2026-04-19T18:31:32.999Z</time></trkpt><trkpt lat="39.69692497761702" lon="-0.2752555097958946"><ele>69.5</ele><time>2026-04-19T18:31:33.999Z</time></trkpt><trkpt lat="39.696811436664625" lon="-0.27562523165844066"><ele>70.0</ele><time>2026-04-19T18:31:34.999Z</time></trkpt><trkpt lat="39.69670086882059" lon="-0.27598734025702415"><ele>70.0</ele><time>2026-04-19T18:31:35.999Z</time></trkpt><trkpt lat="39.696587775098074" lon="-0.27635204228842575"><ele>70.0</ele><time>2026-04-19T18:31:36.999Z</time></trkpt><trkpt lat="39.69647299132403" lon="-0.27671880958608613"><ele>70.0</ele><time>2026-04-19T18:31:37.999Z</time></trkpt><trkpt lat="39.696356941794186" lon="-0.27707042205335614"><ele>70.0</ele><time>2026-04-19T18:31:38.999Z</time></trkpt><trkpt lat="39.69623208785749" lon="-0.27742520826888445"><ele>71.5</ele><time>2026-04-19T18:31:39.999Z</time></trkpt><trkpt lat="39.69610366521564" lon="-0.2777813766520973"><ele>73.0</ele><time>2026-04-19T18:31:40.999Z</time></trkpt><trkpt lat="39.695968737391794" lon="-0.2781282361378991"><ele>73.0</ele><time>2026-04-19T18:31:41.998Z</time></trkpt><trkpt lat="39.69582805320462" lon="-0.27847425800317555"><ele>73.0</ele><time>2026-04-19T18:31:42.998Z</time></trkpt><trkpt lat="39.69568056566216" lon="-0.27881580100515657"><ele>72.5</ele><time>2026-04-19T18:31:43.998Z</time></trkpt><trkpt lat="39.69552571932916" lon="-0.279152907622114"><ele>72.0</ele><time>2026-04-19T18:31:44.998Z</time></trkpt><trkpt lat="39.695367094411594" lon="-0.27948619181752776"><ele>72.5</ele><time>2026-04-19T18:31:45.998Z</time></trkpt><trkpt lat="39.69520390520885" lon="-0.2798180076941629"><ele>73.0</ele><time>2026-04-19T18:31:46.998Z</time></trkpt><trkpt lat="39.69503326710716" lon="-0.2801448081123581"><ele>73.0</ele><time>2026-04-19T18:31:47.998Z</time></trkpt><trkpt lat="39.69485837469607" lon="-0.28046936320238036"><ele>73.0</ele><time>2026-04-19T18:31:48.998Z</time></trkpt><trkpt lat="39.694675617608056" lon="-0.2807791886655947"><ele>73.0</ele><time>2026-04-19T18:31:49.998Z</time></trkpt><trkpt lat="39.69448949575637" lon="-0.2810840763068419"><ele>73.0</ele><time>2026-04-19T18:31:50.998Z</time></trkpt><trkpt lat="39.69429919436892" lon="-0.28137944586859104"><ele>71.0</ele><time>2026-04-19T18:31:51.998Z</time></trkpt><trkpt lat="39.694105088400455" lon="-0.28166849156821533"><ele>69.0</ele><time>2026-04-19T18:31:52.998Z</time></trkpt><trkpt lat="39.69390783424985" lon="-0.28195491365167447"><ele>69.0</ele><time>2026-04-19T18:31:53.998Z</time></trkpt><trkpt lat="39.69370852892434" lon="-0.28223297459719665"><ele>69.0</ele><time>2026-04-19T18:31:54.998Z</time></trkpt><trkpt lat="39.69350220069395" lon="-0.282503670645134"><ele>67.5</ele><time>2026-04-19T18:31:55.998Z</time></trkpt><trkpt lat="39.69329339015349" lon="-0.2827697089893622"><ele>66.0</ele><time>2026-04-19T18:31:56.998Z</time></trkpt><trkpt lat="39.69308177314103" lon="-0.2830292454777633"><ele>66.5</ele><time>2026-04-19T18:31:57.998Z</time></trkpt><trkpt lat="39.6928658267519" lon="-0.28328563571245285"><ele>67.0</ele><time>2026-04-19T18:31:58.998Z</time></trkpt><trkpt lat="39.6926489714998" lon="-0.28354067822336987"><ele>67.0</ele><time>2026-04-19T18:32:00Z</time></trkpt><trkpt lat="39.69242721476328" lon="-0.2837965595629021"><ele>67.0</ele><time>2026-04-19T18:32:01Z</time></trkpt><trkpt lat="39.69219014069185" lon="-0.2840592825827393"><ele>67.5</ele><time>2026-04-19T18:32:02Z</time></trkpt><trkpt lat="39.69197982820001" lon="-0.2842963220382551"><ele>68.0</ele><time>2026-04-19T18:32:03Z</time></trkpt><trkpt lat="39.691763630378084" lon="-0.28454163214085576"><ele>67.5</ele><time>2026-04-19T18:32:04Z</time></trkpt><trkpt lat="39.691549275509594" lon="-0.2847834313754541"><ele>67.0</ele><time>2026-04-19T18:32:05Z</time></trkpt><trkpt lat="39.691337341966225" lon="-0.2850246601368713"><ele>67.0</ele><time>2026-04-19T18:32:06Z</time></trkpt><trkpt lat="39.69112807922653" lon="-0.28526323157666766"><ele>67.0</ele><time>2026-04-19T18:32:07Z</time></trkpt><trkpt lat="39.69091983428273" lon="-0.2855058217286489"><ele>66.5</ele><time>2026-04-19T18:32:08Z</time></trkpt><trkpt lat="39.69071270849555" lon="-0.28574655279668887"><ele>66.0</ele><time>2026-04-19T18:32:09Z</time></trkpt><trkpt lat="39.690506282021865" lon="-0.28599203794637695"><ele>66.0</ele><time>2026-04-19T18:32:10Z</time></trkpt><trkpt lat="39.69030353745353" lon="-0.2862394391986773"><ele>66.0</ele><time>2026-04-19T18:32:11Z</time></trkpt><trkpt lat="39.69010392087587" lon="-0.2864929522635864"><ele>66.5</ele><time>2026-04-19T18:32:12Z</time></trkpt><trkpt lat="39.689906805732335" lon="-0.2867491276364095"><ele>67.0</ele><time>2026-04-19T18:32:13Z</time></trkpt><trkpt lat="39.68971740580243" lon="-0.2870024072613846"><ele>67.0</ele><time>2026-04-19T18:32:14Z</time></trkpt><trkpt lat="39.68952988476846" lon="-0.28726202566274106"><ele>67.0</ele><time>2026-04-19T18:32:15Z</time></trkpt><trkpt lat="39.68934176924504" lon="-0.28752181181467285"><ele>66.5</ele><time>2026-04-19T18:32:16Z</time></trkpt><trkpt lat="39.68916196282703" lon="-0.2877853558533015"><ele>66.0</ele><time>2026-04-19T18:32:17Z</time></trkpt><trkpt lat="39.68898284329653" lon="-0.28805214145734565"><ele>66.5</ele><time>2026-04-19T18:32:18Z</time></trkpt><trkpt lat="39.68880728044345" lon="-0.2883220249309366"><ele>67.0</ele><time>2026-04-19T18:32:19Z</time></trkpt><trkpt lat="39.68863179523243" lon="-0.2886021875853867"><ele>68.5</ele><time>2026-04-19T18:32:20Z</time></trkpt><trkpt lat="39.68845356780201" lon="-0.2888827441191168"><ele>70.0</ele><time>2026-04-19T18:32:21Z</time></trkpt><trkpt lat="39.68826837628288" lon="-0.28917723798860107"><ele>70.0</ele><time>2026-04-19T18:32:22Z</time></trkpt><trkpt lat="39.688083015641354" lon="-0.2894774744536953"><ele>70.0</ele><time>2026-04-19T18:32:23Z</time></trkpt><trkpt lat="39.68789437477867" lon="-0.2897807881490301"><ele>68.5</ele><time>2026-04-19T18:32:24Z</time></trkpt><trkpt lat="39.68770385092587" lon="-0.2900885173506902"><ele>67.0</ele><time>2026-04-19T18:32:25Z</time></trkpt><trkpt lat="39.687529410919566" lon="-0.29038896767469013"><ele>67.5</ele><time>2026-04-19T18:32:26Z</time></trkpt><trkpt lat="39.68733326864785" lon="-0.2906966300170932"><ele>68.0</ele><time>2026-04-19T18:32:27Z</time></trkpt><trkpt lat="39.687139149277826" lon="-0.2910049909927199"><ele>68.0</ele><time>2026-04-19T18:32:28Z</time></trkpt><trkpt lat="39.68694991300447" lon="-0.29131133501135137"><ele>68.0</ele><time>2026-04-19T18:32:29Z</time></trkpt><trkpt lat="39.686755406351125" lon="-0.29161937925644515"><ele>67.0</ele><time>2026-04-19T18:32:30Z</time></trkpt><trkpt lat="39.68655790985791" lon="-0.2919298496967488"><ele>66.0</ele><time>2026-04-19T18:32:31Z</time></trkpt><trkpt lat="39.68635254581877" lon="-0.29224935516421485"><ele>65.5</ele><time>2026-04-19T18:32:32Z</time></trkpt><trkpt lat="39.68615273476166" lon="-0.29255770475938403"><ele>65.0</ele><time>2026-04-19T18:32:33Z</time></trkpt><trkpt lat="39.6859540954857" lon="-0.29285719655980585"><ele>65.0</ele><time>2026-04-19T18:32:34Z</time></trkpt><trkpt lat="39.68575632446915" lon="-0.2931473410816295"><ele>65.0</ele><time>2026-04-19T18:32:35Z</time></trkpt><trkpt lat="39.685557276183694" lon="-0.29343416930770677"><ele>65.0</ele><time>2026-04-19T18:32:36Z</time></trkpt><trkpt lat="39.68536240706808" lon="-0.29371004771809267"><ele>65.0</ele><time>2026-04-19T18:32:37Z</time></trkpt><trkpt lat="39.68516540826374" lon="-0.2939800097691932"><ele>64.0</ele><time>2026-04-19T18:32:38Z</time></trkpt><trkpt lat="39.68496833829224" lon="-0.2942431887906522"><ele>63.0</ele><time>2026-04-19T18:32:39Z</time></trkpt><trkpt lat="39.684768327920935" lon="-0.2945030876484107"><ele>63.5</ele><time>2026-04-19T18:32:40Z</time></trkpt><trkpt lat="39.68456923621851" lon="-0.29475581070409795"><ele>64.0</ele><time>2026-04-19T18:32:41Z</time></trkpt><trkpt lat="39.68436458671307" lon="-0.295005775103196"><ele>64.0</ele><time>2026-04-19T18:32:42Z</time></trkpt><trkpt lat="39.68415820911042" lon="-0.29525102307933365"><ele>64.0</ele><time>2026-04-19T18:32:43Z</time></trkpt><trkpt lat="39.68394519635303" lon="-0.29550191563724676"><ele>63.5</ele><time>2026-04-19T18:32:44Z</time></trkpt><trkpt lat="39.6837262879281" lon="-0.2957546990753309"><ele>63.0</ele><time>2026-04-19T18:32:45Z</time></trkpt><trkpt lat="39.683501063111216" lon="-0.2960038814720634"><ele>62.5</ele><time>2026-04-19T18:32:45.999Z</time></trkpt><trkpt lat="39.68326967802395" lon="-0.296249158166858"><ele>62.0</ele><time>2026-04-19T18:32:46.999Z</time></trkpt><trkpt lat="39.68303668900072" lon="-0.2964940647705962"><ele>62.0</ele><time>2026-04-19T18:32:47.999Z</time></trkpt><trkpt lat="39.68280060314431" lon="-0.29673087166400375"><ele>62.0</ele><time>2026-04-19T18:32:48.999Z</time></trkpt><trkpt lat="39.68256456350315" lon="-0.2969694076273493"><ele>61.5</ele><time>2026-04-19T18:32:49.999Z</time></trkpt><trkpt lat="39.68232458780115" lon="-0.2972010678807382"><ele>61.0</ele><time>2026-04-19T18:32:50.999Z</time></trkpt><trkpt lat="39.68208385496679" lon="-0.2974306569486706"><ele>60.5</ele><time>2026-04-19T18:32:51.999Z</time></trkpt><trkpt lat="39.681841309973336" lon="-0.29765837290747443"><ele>60.0</ele><time>2026-04-19T18:32:52.999Z</time></trkpt><trkpt lat="39.68159938210674" lon="-0.29787842965775896"><ele>60.5</ele><time>2026-04-19T18:32:53.999Z</time></trkpt><trkpt lat="39.681355987389644" lon="-0.2980903667325885"><ele>61.0</ele><time>2026-04-19T18:32:54.999Z</time></trkpt><trkpt lat="39.681112803491864" lon="-0.29829094667000344"><ele>62.0</ele><time>2026-04-19T18:32:55.999Z</time></trkpt><trkpt lat="39.68086708983712" lon="-0.29848911888295304"><ele>63.0</ele><time>2026-04-19T18:32:56.999Z</time></trkpt><trkpt lat="39.680620926969404" lon="-0.29868223536594535"><ele>63.0</ele><time>2026-04-19T18:32:57.999Z</time></trkpt><trkpt lat="39.68037032960442" lon="-0.29886962983782744"><ele>63.0</ele><time>2026-04-19T18:32:58.999Z</time></trkpt><trkpt lat="39.680118847574924" lon="-0.29905063125412884"><ele>61.5</ele><time>2026-04-19T18:32:59.999Z</time></trkpt><trkpt lat="39.679859221573714" lon="-0.2992246689531882"><ele>60.0</ele><time>2026-04-19T18:33:00.999Z</time></trkpt><trkpt lat="39.67959954492023" lon="-0.29938727456176706"><ele>59.5</ele><time>2026-04-19T18:33:01.999Z</time></trkpt><trkpt lat="39.679335110704855" lon="-0.29954688868867974"><ele>59.0</ele><time>2026-04-19T18:33:02.999Z</time></trkpt><trkpt lat="39.67907310159793" lon="-0.29969761600418193"><ele>59.5</ele><time>2026-04-19T18:33:03.999Z</time></trkpt><trkpt lat="39.67880437089265" lon="-0.29984872938378576"><ele>60.0</ele><time>2026-04-19T18:33:04.999Z</time></trkpt><trkpt lat="39.6785336338549" lon="-0.2999850873170878"><ele>58.0</ele><time>2026-04-19T18:33:05.999Z</time></trkpt><trkpt lat="39.67826370578206" lon="-0.30011378992177506"><ele>56.0</ele><time>2026-04-19T18:33:06.999Z</time></trkpt><trkpt lat="39.677995633365505" lon="-0.3002377471126968"><ele>55.5</ele><time>2026-04-19T18:33:07.999Z</time></trkpt><trkpt lat="39.677726277100724" lon="-0.30035316602996043"><ele>55.0</ele><time>2026-04-19T18:33:08.999Z</time></trkpt><trkpt lat="39.67745527836983" lon="-0.3004683683027119"><ele>55.0</ele><time>2026-04-19T18:33:09.999Z</time></trkpt><trkpt lat="39.677184127466994" lon="-0.3005732169400292"><ele>55.0</ele><time>2026-04-19T18:33:10.999Z</time></trkpt><trkpt lat="39.67691345566223" lon="-0.30066484838522844"><ele>57.5</ele><time>2026-04-19T18:33:11.999Z</time></trkpt><trkpt lat="39.67664750829574" lon="-0.3007456627227441"><ele>60.0</ele><time>2026-04-19T18:33:12.999Z</time></trkpt><trkpt lat="39.67638106336713" lon="-0.3008221275233402"><ele>60.0</ele><time>2026-04-19T18:33:13.999Z</time></trkpt><trkpt lat="39.67610648558102" lon="-0.3008864560428084"><ele>60.0</ele><time>2026-04-19T18:33:14.999Z</time></trkpt><trkpt lat="39.67583536661856" lon="-0.30094885457426507"><ele>61.0</ele><time>2026-04-19T18:33:15.999Z</time></trkpt><trkpt lat="39.675563831892084" lon="-0.301003085672729"><ele>62.0</ele><time>2026-04-19T18:33:16.999Z</time></trkpt><trkpt lat="39.675292023893824" lon="-0.30104517389517266"><ele>63.5</ele><time>2026-04-19T18:33:17.999Z</time></trkpt><trkpt lat="39.67501976212637" lon="-0.3010878355481975"><ele>65.0</ele><time>2026-04-19T18:33:18.999Z</time></trkpt><trkpt lat="39.67474794822463" lon="-0.30112306699259017"><ele>65.0</ele><time>2026-04-19T18:33:19.999Z</time></trkpt><trkpt lat="39.67447289420431" lon="-0.301144692930886"><ele>65.0</ele><time>2026-04-19T18:33:20.999Z</time></trkpt><trkpt lat="39.67419972904894" lon="-0.3011674759599439"><ele>64.0</ele><time>2026-04-19T18:33:21.999Z</time></trkpt><trkpt lat="39.67391923145375" lon="-0.30118412280561563"><ele>63.0</ele><time>2026-04-19T18:33:22.999Z</time></trkpt><trkpt lat="39.67363876256274" lon="-0.3011956866447222"><ele>66.5</ele><time>2026-04-19T18:33:23.999Z</time></trkpt><trkpt lat="39.67335401477834" lon="-0.30120845065856894"><ele>70.0</ele><time>2026-04-19T18:33:24.999Z</time></trkpt><trkpt lat="39.67307690706953" lon="-0.3012234388481786"><ele>70.0</ele><time>2026-04-19T18:33:25.999Z</time></trkpt><trkpt lat="39.672799422019644" lon="-0.30123659009973036"><ele>70.0</ele><time>2026-04-19T18:33:26.999Z</time></trkpt><trkpt lat="39.67251302474456" lon="-0.3012465095137174"><ele>70.0</ele><time>2026-04-19T18:33:27.999Z</time></trkpt><trkpt lat="39.67222273191766" lon="-0.3012558867470588"><ele>70.0</ele><time>2026-04-19T18:33:28.999Z</time></trkpt><trkpt lat="39.67193901415929" lon="-0.3012694027750783"><ele>70.0</ele><time>2026-04-19T18:33:29.999Z</time></trkpt><trkpt lat="39.67165586023683" lon="-0.3012892101352098"><ele>70.0</ele><time>2026-04-19T18:33:30.999Z</time></trkpt><trkpt lat="39.67137136914167" lon="-0.3013130017533066"><ele>74.0</ele><time>2026-04-19T18:33:31.999Z</time></trkpt><trkpt lat="39.67108774023538" lon="-0.30134227208968745"><ele>78.0</ele><time>2026-04-19T18:33:32.999Z</time></trkpt><trkpt lat="39.67080786868445" lon="-0.3013780582340324"><ele>78.5</ele><time>2026-04-19T18:33:33.999Z</time></trkpt><trkpt lat="39.670532927404786" lon="-0.30142587355870276"><ele>79.0</ele><time>2026-04-19T18:33:34.999Z</time></trkpt><trkpt lat="39.67024638049062" lon="-0.3014788047950034"><ele>79.0</ele><time>2026-04-19T18:33:35.999Z</time></trkpt><trkpt lat="39.66997411799625" lon="-0.301543756438438"><ele>79.0</ele><time>2026-04-19T18:33:36.999Z</time></trkpt><trkpt lat="39.66969746712232" lon="-0.3016120896157365"><ele>78.0</ele><time>2026-04-19T18:33:37.999Z</time></trkpt><trkpt lat="39.669418847868734" lon="-0.30168385797963126"><ele>77.0</ele><time>2026-04-19T18:33:38.999Z</time></trkpt><trkpt lat="39.669137915467466" lon="-0.3017640546989546"><ele>77.0</ele><time>2026-04-19T18:33:39.999Z</time></trkpt><trkpt lat="39.66885854401128" lon="-0.30185469586452446"><ele>77.0</ele><time>2026-04-19T18:33:40.999Z</time></trkpt><trkpt lat="39.668575770981285" lon="-0.30195624304159197"><ele>77.0</ele><time>2026-04-19T18:33:41.999Z</time></trkpt><trkpt lat="39.66829286131747" lon="-0.3020616657272337"><ele>77.0</ele><time>2026-04-19T18:33:42.999Z</time></trkpt><trkpt lat="39.66800884331701" lon="-0.30217376880491964"><ele>79.0</ele><time>2026-04-19T18:33:43.999Z</time></trkpt><trkpt lat="39.66772940485816" lon="-0.3022952486870243"><ele>81.0</ele><time>2026-04-19T18:33:44.999Z</time></trkpt><trkpt lat="39.66745164045936" lon="-0.3024285869294656"><ele>81.0</ele><time>2026-04-19T18:33:45.999Z</time></trkpt><trkpt lat="39.66718428047412" lon="-0.3025654564240873"><ele>81.0</ele><time>2026-04-19T18:33:46.998Z</time></trkpt><trkpt lat="39.66691839942763" lon="-0.3027106707628152"><ele>81.0</ele><time>2026-04-19T18:33:47.998Z</time></trkpt><trkpt lat="39.666652484716906" lon="-0.30285518933853905"><ele>81.0</ele><time>2026-04-19T18:33:48.998Z</time></trkpt><trkpt lat="39.66638910119519" lon="-0.3030060317121144"><ele>81.5</ele><time>2026-04-19T18:33:49.998Z</time></trkpt><trkpt lat="39.66612907637238" lon="-0.30316449687850777"><ele>82.0</ele><time>2026-04-19T18:33:50.998Z</time></trkpt><trkpt lat="39.66586600732519" lon="-0.30332489711202587"><ele>82.0</ele><time>2026-04-19T18:33:51.998Z</time></trkpt><trkpt lat="39.66560178839279" lon="-0.30348881599211075"><ele>82.0</ele><time>2026-04-19T18:33:52.998Z</time></trkpt><trkpt lat="39.66534119831913" lon="-0.3036434978187254"><ele>82.5</ele><time>2026-04-19T18:33:53.998Z</time></trkpt><trkpt lat="39.66507934247151" lon="-0.3038080754449474"><ele>83.0</ele><time>2026-04-19T18:33:54.998Z</time></trkpt><trkpt lat="39.66480921448922" lon="-0.3039618373729578"><ele>84.5</ele><time>2026-04-19T18:33:55.998Z</time></trkpt><trkpt lat="39.66454151819601" lon="-0.3041181869955329"><ele>86.0</ele><time>2026-04-19T18:33:56.998Z</time></trkpt><trkpt lat="39.66427431619524" lon="-0.304276025021546"><ele>86.5</ele><time>2026-04-19T18:33:57.998Z</time></trkpt><trkpt lat="39.66399965830453" lon="-0.30442471103379726"><ele>87.0</ele><time>2026-04-19T18:33:58.998Z</time></trkpt><trkpt lat="39.66372244097836" lon="-0.30456660293992793"><ele>88.0</ele><time>2026-04-19T18:33:59.998Z</time></trkpt><trkpt lat="39.66344440682262" lon="-0.30470050134125565"><ele>89.0</ele><time>2026-04-19T18:34:00.998Z</time></trkpt><trkpt lat="39.66316222134675" lon="-0.30482578930769316"><ele>89.0</ele><time>2026-04-19T18:34:01.998Z</time></trkpt><trkpt lat="39.66288352267423" lon="-0.3049419456420449"><ele>89.0</ele><time>2026-04-19T18:34:02.998Z</time></trkpt><trkpt lat="39.66260332970987" lon="-0.3050470447155426"><ele>88.0</ele><time>2026-04-19T18:34:03.998Z</time></trkpt><trkpt lat="39.662320215233265" lon="-0.3051445038028807"><ele>87.0</ele><time>2026-04-19T18:34:04.998Z</time></trkpt><trkpt lat="39.662038833300485" lon="-0.30523609411595926"><ele>87.5</ele><time>2026-04-19T18:34:06Z</time></trkpt><trkpt lat="39.66175701126527" lon="-0.3053145547591271"><ele>88.0</ele><time>2026-04-19T18:34:07Z</time></trkpt><trkpt lat="39.66147431711755" lon="-0.30538655413656535"><ele>88.0</ele><time>2026-04-19T18:34:08Z</time></trkpt><trkpt lat="39.66118783828824" lon="-0.30544941772302875"><ele>88.0</ele><time>2026-04-19T18:34:09Z</time></trkpt><trkpt lat="39.66089761368207" lon="-0.3055051234616474"><ele>90.5</ele><time>2026-04-19T18:34:10Z</time></trkpt><trkpt lat="39.660608013409956" lon="-0.3055543237276933"><ele>93.0</ele><time>2026-04-19T18:34:11Z</time></trkpt><trkpt lat="39.66031710877274" lon="-0.3055928840409743"><ele>96.5</ele><time>2026-04-19T18:34:12Z</time></trkpt><trkpt lat="39.66002867535358" lon="-0.30562270903468336"><ele>100.0</ele><time>2026-04-19T18:34:13Z</time></trkpt><trkpt lat="39.659741396350846" lon="-0.3056488714163031"><ele>94.0</ele><time>2026-04-19T18:34:14Z</time></trkpt><trkpt lat="39.659449991058715" lon="-0.3056573808061773"><ele>88.0</ele><time>2026-04-19T18:34:15Z</time></trkpt><trkpt lat="39.659158614887794" lon="-0.3056623580337037"><ele>88.0</ele><time>2026-04-19T18:34:16Z</time></trkpt><trkpt lat="39.658874511303154" lon="-0.30565298792845597"><ele>88.0</ele><time>2026-04-19T18:34:17Z</time></trkpt><trkpt lat="39.65858531963351" lon="-0.30562437393901665"><ele>81.0</ele><time>2026-04-19T18:34:18Z</time></trkpt><trkpt lat="39.65829480013239" lon="-0.30558751102491116"><ele>74.0</ele><time>2026-04-19T18:34:19Z</time></trkpt><trkpt lat="39.65800215227982" lon="-0.3055457106827081"><ele>70.0</ele><time>2026-04-19T18:34:20Z</time></trkpt><trkpt lat="39.65770399032877" lon="-0.3054942937669587"><ele>66.0</ele><time>2026-04-19T18:34:21Z</time></trkpt><trkpt lat="39.65740537210823" lon="-0.3054356914936876"><ele>66.0</ele><time>2026-04-19T18:34:22Z</time></trkpt><trkpt lat="39.65710638997238" lon="-0.3053671609133322"><ele>66.0</ele><time>2026-04-19T18:34:23Z</time></trkpt><trkpt lat="39.656807172130854" lon="-0.30529275235739445"><ele>64.5</ele><time>2026-04-19T18:34:24Z</time></trkpt><trkpt lat="39.65651082662592" lon="-0.30522489900744265"><ele>63.0</ele><time>2026-04-19T18:34:25Z</time></trkpt><trkpt lat="39.656214592395834" lon="-0.3051480451121065"><ele>63.0</ele><time>2026-04-19T18:34:26Z</time></trkpt><trkpt lat="39.65592507758915" lon="-0.305061201777238"><ele>63.0</ele><time>2026-04-19T18:34:27Z</time></trkpt><trkpt lat="39.655634478840526" lon="-0.30496517308157045"><ele>63.0</ele><time>2026-04-19T18:34:28Z</time></trkpt><trkpt lat="39.655338365318045" lon="-0.3048621540059429"><ele>63.0</ele><time>2026-04-19T18:34:29Z</time></trkpt><trkpt lat="39.6550474100935" lon="-0.3047467839816731"><ele>61.5</ele><time>2026-04-19T18:34:30Z</time></trkpt><trkpt lat="39.65475469167285" lon="-0.3046135423166213"><ele>60.0</ele><time>2026-04-19T18:34:31Z</time></trkpt><trkpt lat="39.65446583798662" lon="-0.3044709540689539"><ele>59.5</ele><time>2026-04-19T18:34:32Z</time></trkpt><trkpt lat="39.654179530336215" lon="-0.3043209874241782"><ele>59.0</ele><time>2026-04-19T18:34:33Z</time></trkpt><trkpt lat="39.65389865987223" lon="-0.3041689063182875"><ele>59.0</ele><time>2026-04-19T18:34:34Z</time></trkpt><trkpt lat="39.65363473069537" lon="-0.3040068762715073"><ele>59.0</ele><time>2026-04-19T18:34:35Z</time></trkpt><trkpt lat="39.65337115620244" lon="-0.3038341623375011"><ele>59.0</ele><time>2026-04-19T18:34:36Z</time></trkpt><trkpt lat="39.653109473375906" lon="-0.30366124421182644"><ele>59.0</ele><time>2026-04-19T18:34:37Z</time></trkpt><trkpt lat="39.65285245407272" lon="-0.3034912163130237"><ele>58.0</ele><time>2026-04-19T18:34:38Z</time></trkpt><trkpt lat="39.652597594077925" lon="-0.3033202738209009"><ele>57.0</ele><time>2026-04-19T18:34:39Z</time></trkpt><trkpt lat="39.65234721983444" lon="-0.30314684201496533"><ele>57.5</ele><time>2026-04-19T18:34:40Z</time></trkpt><trkpt lat="39.65210710722767" lon="-0.30297435865373806"><ele>58.0</ele><time>2026-04-19T18:34:41Z</time></trkpt><trkpt lat="39.65186818111775" lon="-0.30280056149892925"><ele>55.5</ele><time>2026-04-19T18:34:42Z</time></trkpt><trkpt lat="39.65162458070786" lon="-0.30262548457421345"><ele>53.0</ele><time>2026-04-19T18:34:43Z</time></trkpt><trkpt lat="39.65137432638825" lon="-0.30245414059814646"><ele>51.0</ele><time>2026-04-19T18:34:44Z</time></trkpt><trkpt lat="39.65111764988612" lon="-0.3022868792446866"><ele>49.0</ele><time>2026-04-19T18:34:45Z</time></trkpt><trkpt lat="39.650864491932076" lon="-0.30212108547830796"><ele>49.0</ele><time>2026-04-19T18:34:46Z</time></trkpt><trkpt lat="39.65060859336057" lon="-0.30195985872917336"><ele>49.0</ele><time>2026-04-19T18:34:47Z</time></trkpt><trkpt lat="39.6503491874506" lon="-0.30180113399760194"><ele>48.0</ele><time>2026-04-19T18:34:48Z</time></trkpt><trkpt lat="39.650085481551564" lon="-0.30164709974959425"><ele>47.0</ele><time>2026-04-19T18:34:48.999Z</time></trkpt><trkpt lat="39.649824130179525" lon="-0.30150489762583405"><ele>45.5</ele><time>2026-04-19T18:34:49.999Z</time></trkpt><trkpt lat="39.64956110029659" lon="-0.3013766323006545"><ele>44.0</ele><time>2026-04-19T18:34:50.999Z</time></trkpt><trkpt lat="39.64930375326984" lon="-0.30125978225483163"><ele>43.0</ele><time>2026-04-19T18:34:51.999Z</time></trkpt><trkpt lat="39.6490495665429" lon="-0.3011483454152939"><ele>42.0</ele><time>2026-04-19T18:34:52.999Z</time></trkpt><trkpt lat="39.64879059559106" lon="-0.3010374985316249"><ele>41.0</ele><time>2026-04-19T18:34:53.999Z</time></trkpt><trkpt lat="39.64852796788111" lon="-0.300931953636833"><ele>40.0</ele><time>2026-04-19T18:34:54.999Z</time></trkpt><trkpt lat="39.64826301909749" lon="-0.30083597680579505"><ele>40.0</ele><time>2026-04-19T18:34:55.999Z</time></trkpt><trkpt lat="39.647991929882565" lon="-0.30074758710237276"><ele>40.0</ele><time>2026-04-19T18:34:56.999Z</time></trkpt><trkpt lat="39.647714476044406" lon="-0.30066704964391966"><ele>41.0</ele><time>2026-04-19T18:34:57.999Z</time></trkpt><trkpt lat="39.64743352368207" lon="-0.30059316592623836"><ele>42.0</ele><time>2026-04-19T18:34:58.999Z</time></trkpt><trkpt lat="39.64714903487543" lon="-0.30052637845420055"><ele>38.0</ele><time>2026-04-19T18:34:59.999Z</time></trkpt><trkpt lat="39.64685916122894" lon="-0.30046624487740886"><ele>34.0</ele><time>2026-04-19T18:35:00.999Z</time></trkpt><trkpt lat="39.64656830130759" lon="-0.30040866861735216"><ele>34.0</ele><time>2026-04-19T18:35:01.999Z</time></trkpt><trkpt lat="39.64627013553484" lon="-0.30036864678536956"><ele>34.0</ele><time>2026-04-19T18:35:02.999Z</time></trkpt><trkpt lat="39.64597376811747" lon="-0.3003320067059156"><ele>32.5</ele><time>2026-04-19T18:35:03.999Z</time></trkpt><trkpt lat="39.64567251269519" lon="-0.3003013064222031"><ele>31.0</ele><time>2026-04-19T18:35:04.999Z</time></trkpt><trkpt lat="39.645368753619" lon="-0.3002789927417241"><ele>30.0</ele><time>2026-04-19T18:35:05.999Z</time></trkpt><trkpt lat="39.64505988507791" lon="-0.3002676132218614"><ele>29.0</ele><time>2026-04-19T18:35:06.999Z</time></trkpt><trkpt lat="39.64475683583461" lon="-0.30026288144733115"><ele>27.5</ele><time>2026-04-19T18:35:07.999Z</time></trkpt><trkpt lat="39.64445082034291" lon="-0.3002708682475201"><ele>26.0</ele><time>2026-04-19T18:35:08.999Z</time></trkpt><trkpt lat="39.644140414948545" lon="-0.3002799007793741"><ele>26.0</ele><time>2026-04-19T18:35:09.999Z</time></trkpt><trkpt lat="39.643831799964495" lon="-0.3003079222838715"><ele>26.0</ele><time>2026-04-19T18:35:10.999Z</time></trkpt><trkpt lat="39.643528614540315" lon="-0.30034319092578576"><ele>25.0</ele><time>2026-04-19T18:35:11.999Z</time></trkpt><trkpt lat="39.64322632100197" lon="-0.3003870498637588"><ele>24.0</ele><time>2026-04-19T18:35:12.999Z</time></trkpt><trkpt lat="39.64292379430849" lon="-0.30043697387657575"><ele>23.5</ele><time>2026-04-19T18:35:13.999Z</time></trkpt><trkpt lat="39.642623414033835" lon="-0.3004987332330572"><ele>23.0</ele><time>2026-04-19T18:35:14.999Z</time></trkpt><trkpt lat="39.642326787602066" lon="-0.3005659107999181"><ele>23.0</ele><time>2026-04-19T18:35:15.999Z</time></trkpt><trkpt lat="39.64203632896133" lon="-0.3006434662597806"><ele>23.0</ele><time>2026-04-19T18:35:16.999Z</time></trkpt><trkpt lat="39.64174747275814" lon="-0.3007245077322253"><ele>23.0</ele><time>2026-04-19T18:35:17.999Z</time></trkpt><trkpt lat="39.64146782565984" lon="-0.3008107941301182"><ele>23.0</ele><time>2026-04-19T18:35:18.999Z</time></trkpt><trkpt lat="39.64119433050656" lon="-0.30090953815061866"><ele>22.0</ele><time>2026-04-19T18:35:19.999Z</time></trkpt><trkpt lat="39.64092632248599" lon="-0.3010167821673014"><ele>21.0</ele><time>2026-04-19T18:35:20.999Z</time></trkpt><trkpt lat="39.640654305798506" lon="-0.30113064321881033"><ele>21.0</ele><time>2026-04-19T18:35:21.999Z</time></trkpt><trkpt lat="39.640387519607856" lon="-0.30125689300713"><ele>21.0</ele><time>2026-04-19T18:35:22.999Z</time></trkpt><trkpt lat="39.640141513908475" lon="-0.30141264812458285"><ele>20.0</ele><time>2026-04-19T18:35:23.999Z</time></trkpt><trkpt lat="39.63990574420742" lon="-0.30157950936907224"><ele>19.0</ele><time>2026-04-19T18:35:24.999Z</time></trkpt><trkpt lat="39.639672537302175" lon="-0.3017457871590711"><ele>18.5</ele><time>2026-04-19T18:35:25.999Z</time></trkpt><trkpt lat="39.639443087082036" lon="-0.30191272888958137"><ele>18.0</ele><time>2026-04-19T18:35:26.999Z</time></trkpt><trkpt lat="39.639220561781016" lon="-0.302080699212307"><ele>18.0</ele><time>2026-04-19T18:35:27.999Z</time></trkpt><trkpt lat="39.638989089137716" lon="-0.3022446247397078"><ele>18.0</ele><time>2026-04-19T18:35:28.999Z</time></trkpt><trkpt lat="39.638759925400585" lon="-0.3024071616923693"><ele>19.0</ele><time>2026-04-19T18:35:29.999Z</time></trkpt><trkpt lat="39.638532621955115" lon="-0.30256779576850934"><ele>20.0</ele><time>2026-04-19T18:35:30.999Z</time></trkpt><trkpt lat="39.63830546020909" lon="-0.30270660701452123"><ele>20.0</ele><time>2026-04-19T18:35:31.999Z</time></trkpt><trkpt lat="39.63806470982918" lon="-0.30283032578701996"><ele>20.0</ele><time>2026-04-19T18:35:32.999Z</time></trkpt><trkpt lat="39.637816175487075" lon="-0.3029526653077351"><ele>20.0</ele><time>2026-04-19T18:35:33.999Z</time></trkpt><trkpt lat="39.63755897281677" lon="-0.30305896884910105"><ele>20.0</ele><time>2026-04-19T18:35:34.999Z</time></trkpt><trkpt lat="39.63730359723306" lon="-0.30315414274524405"><ele>20.0</ele><time>2026-04-19T18:35:35.999Z</time></trkpt><trkpt lat="39.63705016792927" lon="-0.30323740689328443"><ele>20.0</ele><time>2026-04-19T18:35:36.999Z</time></trkpt><trkpt lat="39.63679546579022" lon="-0.30331339788361444"><ele>19.5</ele><time>2026-04-19T18:35:37.999Z</time></trkpt><trkpt lat="39.63655369591671" lon="-0.30337709858440054"><ele>19.0</ele><time>2026-04-19T18:35:38.999Z</time></trkpt><trkpt lat="39.63632148706703" lon="-0.3034370062798969"><ele>19.0</ele><time>2026-04-19T18:35:39.999Z</time></trkpt><trkpt lat="39.63608566658814" lon="-0.3034989601163659"><ele>19.0</ele><time>2026-04-19T18:35:40.999Z</time></trkpt><trkpt lat="39.635844437764156" lon="-0.3035656685745584"><ele>19.0</ele><time>2026-04-19T18:35:41.999Z</time></trkpt><trkpt lat="39.63560400133462" lon="-0.30363419620066834"><ele>19.0</ele><time>2026-04-19T18:35:42.999Z</time></trkpt><trkpt lat="39.63537309516723" lon="-0.3037022234595482"><ele>18.0</ele><time>2026-04-19T18:35:43.999Z</time></trkpt><trkpt lat="39.635143437282466" lon="-0.3037612594419392"><ele>17.0</ele><time>2026-04-19T18:35:44.999Z</time></trkpt><trkpt lat="39.63491030133787" lon="-0.30382792258601354"><ele>17.0</ele><time>2026-04-19T18:35:45.999Z</time></trkpt><trkpt lat="39.634670113661166" lon="-0.30389051086361707"><ele>17.0</ele><time>2026-04-19T18:35:46.999Z</time></trkpt><trkpt lat="39.63443602562672" lon="-0.30394227015476655"><ele>18.0</ele><time>2026-04-19T18:35:47.999Z</time></trkpt><trkpt lat="39.63418919370832" lon="-0.3039664425848072"><ele>19.0</ele><time>2026-04-19T18:35:48.999Z</time></trkpt><trkpt lat="39.633945335013166" lon="-0.30396903693129407"><ele>19.0</ele><time>2026-04-19T18:35:49.999Z</time></trkpt><trkpt lat="39.63369468659989" lon="-0.3039624500851479"><ele>19.0</ele><time>2026-04-19T18:35:50.999Z</time></trkpt><trkpt lat="39.633437679867626" lon="-0.3039172593691585"><ele>20.0</ele><time>2026-04-19T18:35:51.998Z</time></trkpt><trkpt lat="39.63318323377581" lon="-0.30384342520323326"><ele>21.0</ele><time>2026-04-19T18:35:52.998Z</time></trkpt><trkpt lat="39.63291597566736" lon="-0.3037487033868901"><ele>20.5</ele><time>2026-04-19T18:35:53.998Z</time></trkpt><trkpt lat="39.632635812485596" lon="-0.30362010025224384"><ele>20.0</ele><time>2026-04-19T18:35:54.998Z</time></trkpt><trkpt lat="39.63235192332917" lon="-0.3034753263972633"><ele>20.0</ele><time>2026-04-19T18:35:55.998Z</time></trkpt><trkpt lat="39.63209875571831" lon="-0.3033252412332654"><ele>20.0</ele><time>2026-04-19T18:35:56.998Z</time></trkpt><trkpt lat="39.631850235846734" lon="-0.3031691888340158"><ele>18.0</ele><time>2026-04-19T18:35:57.998Z</time></trkpt><trkpt lat="39.631603944172255" lon="-0.30299614072137643"><ele>16.0</ele><time>2026-04-19T18:35:58.998Z</time></trkpt><trkpt lat="39.63137838513819" lon="-0.3028115468131395"><ele>16.0</ele><time>2026-04-19T18:35:59.998Z</time></trkpt><trkpt lat="39.63116503322476" lon="-0.30261793477021864"><ele>16.0</ele><time>2026-04-19T18:36:00.998Z</time></trkpt><trkpt lat="39.63095910745145" lon="-0.302411204856119"><ele>15.0</ele><time>2026-04-19T18:36:01.998Z</time></trkpt><trkpt lat="39.630747209467806" lon="-0.30219237750797867"><ele>14.0</ele><time>2026-04-19T18:36:02.998Z</time></trkpt><trkpt lat="39.63053101832841" lon="-0.30196675140108103"><ele>14.0</ele><time>2026-04-19T18:36:03.998Z</time></trkpt><trkpt lat="39.63032658956321" lon="-0.30173886858632565"><ele>14.0</ele><time>2026-04-19T18:36:04.998Z</time></trkpt><trkpt lat="39.63012248047338" lon="-0.30151065860978676"><ele>14.0</ele><time>2026-04-19T18:36:05.998Z</time></trkpt><trkpt lat="39.62992671512353" lon="-0.30128260556954367"><ele>14.0</ele><time>2026-04-19T18:36:06.998Z</time></trkpt><trkpt lat="39.62973242729016" lon="-0.3010476074873831"><ele>14.0</ele><time>2026-04-19T18:36:07.998Z</time></trkpt><trkpt lat="39.62953840538144" lon="-0.30081346837947764"><ele>14.0</ele><time>2026-04-19T18:36:08.998Z</time></trkpt><trkpt lat="39.629344008603226" lon="-0.30057690522551367"><ele>14.0</ele><time>2026-04-19T18:36:09.998Z</time></trkpt><trkpt lat="39.629147505117004" lon="-0.3003313648997586"><ele>14.0</ele><time>2026-04-19T18:36:10.998Z</time></trkpt><trkpt lat="39.62895213150231" lon="-0.30008760601281065"><ele>14.0</ele><time>2026-04-19T18:36:12Z</time></trkpt><trkpt lat="39.62874906387555" lon="-0.2998440620564925"><ele>14.0</ele><time>2026-04-19T18:36:13Z</time></trkpt><trkpt lat="39.628552684993544" lon="-0.29960250643968256"><ele>14.5</ele><time>2026-04-19T18:36:14Z</time></trkpt><trkpt lat="39.628356420495656" lon="-0.2993536144870707"><ele>15.0</ele><time>2026-04-19T18:36:15Z</time></trkpt><trkpt lat="39.62816103207287" lon="-0.29910517509857926"><ele>15.0</ele><time>2026-04-19T18:36:16Z</time></trkpt><trkpt lat="39.62796490420603" lon="-0.29885643939928247"><ele>15.0</ele><time>2026-04-19T18:36:17Z</time></trkpt><trkpt lat="39.62776589868189" lon="-0.2986079666053017"><ele>14.0</ele><time>2026-04-19T18:36:18Z</time></trkpt><trkpt lat="39.62756169219383" lon="-0.2983596632723806"><ele>13.0</ele><time>2026-04-19T18:36:19Z</time></trkpt><trkpt lat="39.627355253772876" lon="-0.2981109603452075"><ele>13.0</ele><time>2026-04-19T18:36:20Z</time></trkpt><trkpt lat="39.627148060990656" lon="-0.2978642467997501"><ele>13.0</ele><time>2026-04-19T18:36:21Z</time></trkpt><trkpt lat="39.62693717015856" lon="-0.29761988743255896"><ele>12.5</ele><time>2026-04-19T18:36:22Z</time></trkpt><trkpt lat="39.62671981057794" lon="-0.29738404698967835"><ele>12.0</ele><time>2026-04-19T18:36:23Z</time></trkpt><trkpt lat="39.62649538987973" lon="-0.2971523505769196"><ele>10.5</ele><time>2026-04-19T18:36:24Z</time></trkpt><trkpt lat="39.6262644699946" lon="-0.29693636634225085"><ele>9.0</ele><time>2026-04-19T18:36:25Z</time></trkpt><trkpt lat="39.62602615680684" lon="-0.2967386759491593"><ele>8.0</ele><time>2026-04-19T18:36:26Z</time></trkpt><trkpt lat="39.62578476793285" lon="-0.2965495062423912"><ele>7.0</ele><time>2026-04-19T18:36:27Z</time></trkpt><trkpt lat="39.625540653209185" lon="-0.2963736844629885"><ele>7.0</ele><time>2026-04-19T18:36:28Z</time></trkpt><trkpt lat="39.62528819163499" lon="-0.2962106077362878"><ele>7.0</ele><time>2026-04-19T18:36:29Z</time></trkpt><trkpt lat="39.625027515345856" lon="-0.2960579657623694"><ele>7.0</ele><time>2026-04-19T18:36:30Z</time></trkpt><trkpt lat="39.624758470677726" lon="-0.29591163102047174"><ele>7.0</ele><time>2026-04-19T18:36:31Z</time></trkpt><trkpt lat="39.62448333101397" lon="-0.29578047661725976"><ele>7.0</ele><time>2026-04-19T18:36:32Z</time></trkpt><trkpt lat="39.62419930419067" lon="-0.2956623407978313"><ele>7.0</ele><time>2026-04-19T18:36:33Z</time></trkpt><trkpt lat="39.623910859173094" lon="-0.29555842722050407"><ele>5.5</ele><time>2026-04-19T18:36:34Z</time></trkpt><trkpt lat="39.623620809525775" lon="-0.2954698928967483"><ele>4.0</ele><time>2026-04-19T18:36:35Z</time></trkpt><trkpt lat="39.62332724221549" lon="-0.2953973805616962"><ele>4.0</ele><time>2026-04-19T18:36:36Z</time></trkpt><trkpt lat="39.62303238633371" lon="-0.2953348234278398"><ele>4.0</ele><time>2026-04-19T18:36:37Z</time></trkpt><trkpt lat="39.62273527061624" lon="-0.2952815042054327"><ele>5.0</ele><time>2026-04-19T18:36:38Z</time></trkpt><trkpt lat="39.622443838808906" lon="-0.29524338025724617"><ele>6.0</ele><time>2026-04-19T18:36:39Z</time></trkpt><trkpt lat="39.62214955758016" lon="-0.29522165810154827"><ele>6.5</ele><time>2026-04-19T18:36:40Z</time></trkpt><trkpt lat="39.62185570428408" lon="-0.29520171660911193"><ele>7.0</ele><time>2026-04-19T18:36:41Z</time></trkpt><trkpt lat="39.62156184142913" lon="-0.2951847615254388"><ele>7.0</ele><time>2026-04-19T18:36:42Z</time></trkpt><trkpt lat="39.62126844232636" lon="-0.29516515576441094"><ele>7.0</ele><time>2026-04-19T18:36:43Z</time></trkpt><trkpt lat="39.62097828025801" lon="-0.29514466723347677"><ele>6.0</ele><time>2026-04-19T18:36:44Z</time></trkpt><trkpt lat="39.62068359744424" lon="-0.2951247672846069"><ele>5.0</ele><time>2026-04-19T18:36:45Z</time></trkpt><trkpt lat="39.62039203799611" lon="-0.29510147607973175"><ele>5.5</ele><time>2026-04-19T18:36:46Z</time></trkpt><trkpt lat="39.62009843694703" lon="-0.29507738703214353"><ele>6.0</ele><time>2026-04-19T18:36:47Z</time></trkpt><trkpt lat="39.61980731002432" lon="-0.29505111288567376"><ele>6.0</ele><time>2026-04-19T18:36:48Z</time></trkpt><trkpt lat="39.619516424368776" lon="-0.2950265282403635"><ele>6.0</ele><time>2026-04-19T18:36:49Z</time></trkpt><trkpt lat="39.6192227711652" lon="-0.2950021051823767"><ele>5.5</ele><time>2026-04-19T18:36:50Z</time></trkpt><trkpt lat="39.61893529276054" lon="-0.29498338287712167"><ele>5.0</ele><time>2026-04-19T18:36:51Z</time></trkpt><trkpt lat="39.61864596500689" lon="-0.2949582360629868"><ele>6.0</ele><time>2026-04-19T18:36:52Z</time></trkpt><trkpt lat="39.618357447692745" lon="-0.29493942434560916"><ele>7.0</ele><time>2026-04-19T18:36:53Z</time></trkpt><trkpt lat="39.618063364950224" lon="-0.29492348795860973"><ele>6.5</ele><time>2026-04-19T18:36:54Z</time></trkpt><trkpt lat="39.61776380875555" lon="-0.2949014238911369"><ele>6.0</ele><time>2026-04-19T18:36:55Z</time></trkpt><trkpt lat="39.61746172578169" lon="-0.2948827708493248"><ele>6.0</ele><time>2026-04-19T18:36:55.999Z</time></trkpt><trkpt lat="39.61715267207925" lon="-0.2948660332896643"><ele>6.0</ele><time>2026-04-19T18:36:56.999Z</time></trkpt><trkpt lat="39.61684321898364" lon="-0.2948527244878031"><ele>5.5</ele><time>2026-04-19T18:36:57.999Z</time></trkpt><trkpt lat="39.616533446464295" lon="-0.2948347572916674"><ele>5.0</ele><time>2026-04-19T18:36:58.999Z</time></trkpt><trkpt lat="39.616228722282116" lon="-0.2948145795020369"><ele>5.0</ele><time>2026-04-19T18:36:59.999Z</time></trkpt><trkpt lat="39.61592896201157" lon="-0.29479483103480825"><ele>5.0</ele><time>2026-04-19T18:37:00.999Z</time></trkpt><trkpt lat="39.61564167791988" lon="-0.2947742399164768"><ele>5.0</ele><time>2026-04-19T18:37:01.999Z</time></trkpt><trkpt lat="39.615354334129094" lon="-0.29475339936044187"><ele>5.0</ele><time>2026-04-19T18:37:02.999Z</time></trkpt><trkpt lat="39.61506779163939" lon="-0.29473246150240123"><ele>5.0</ele><time>2026-04-19T18:37:03.999Z</time></trkpt><trkpt lat="39.6147800556476" lon="-0.29470982106578436"><ele>5.0</ele><time>2026-04-19T18:37:04.999Z</time></trkpt><trkpt lat="39.61449386062794" lon="-0.29468754935846264"><ele>6.5</ele><time>2026-04-19T18:37:05.999Z</time></trkpt><trkpt lat="39.61420676977852" lon="-0.29466581824133037"><ele>8.0</ele><time>2026-04-19T18:37:06.999Z</time></trkpt><trkpt lat="39.61390867674422" lon="-0.2946451164670709"><ele>7.0</ele><time>2026-04-19T18:37:07.999Z</time></trkpt><trkpt lat="39.61362717849922" lon="-0.2946035976169405"><ele>6.0</ele><time>2026-04-19T18:37:08.999Z</time></trkpt><trkpt lat="39.61333897277657" lon="-0.29459135184845675"><ele>6.0</ele><time>2026-04-19T18:37:09.999Z</time></trkpt><trkpt lat="39.613051207571935" lon="-0.2945689452849714"><ele>6.0</ele><time>2026-04-19T18:37:10.999Z</time></trkpt><trkpt lat="39.612760276870645" lon="-0.2945481456413457"><ele>5.5</ele><time>2026-04-19T18:37:11.999Z</time></trkpt><trkpt lat="39.61247718666584" lon="-0.2945245144298325"><ele>5.0</ele><time>2026-04-19T18:37:12.999Z</time></trkpt><trkpt lat="39.61218918524978" lon="-0.29450256966070787"><ele>5.5</ele><time>2026-04-19T18:37:13.999Z</time></trkpt><trkpt lat="39.61189525906743" lon="-0.29448400182457063"><ele>6.0</ele><time>2026-04-19T18:37:14.999Z</time></trkpt><trkpt lat="39.611601900988155" lon="-0.29446067094225625"><ele>6.0</ele><time>2026-04-19T18:37:15.999Z</time></trkpt><trkpt lat="39.611312096761644" lon="-0.2944355132324073"><ele>6.0</ele><time>2026-04-19T18:37:16.999Z</time></trkpt><trkpt lat="39.611018598832345" lon="-0.2944151214618696"><ele>5.5</ele><time>2026-04-19T18:37:17.999Z</time></trkpt><trkpt lat="39.61072833771617" lon="-0.29439386462091516"><ele>5.0</ele><time>2026-04-19T18:37:18.999Z</time></trkpt><trkpt lat="39.61043988648767" lon="-0.29437044094837844"><ele>5.0</ele><time>2026-04-19T18:37:19.999Z</time></trkpt><trkpt lat="39.61015037888101" lon="-0.2943479254091547"><ele>5.0</ele><time>2026-04-19T18:37:20.999Z</time></trkpt><trkpt lat="39.60986245666886" lon="-0.29432378708287354"><ele>5.0</ele><time>2026-04-19T18:37:21.999Z</time></trkpt><trkpt lat="39.60957080775193" lon="-0.294303340232648"><ele>5.0</ele><time>2026-04-19T18:37:22.999Z</time></trkpt><trkpt lat="39.60928348811506" lon="-0.2942830063753016"><ele>5.0</ele><time>2026-04-19T18:37:23.999Z</time></trkpt><trkpt lat="39.60899407524487" lon="-0.29426099125666166"><ele>5.0</ele><time>2026-04-19T18:37:24.999Z</time></trkpt><trkpt lat="39.60870317515346" lon="-0.29423799736681355"><ele>5.5</ele><time>2026-04-19T18:37:25.999Z</time></trkpt><trkpt lat="39.60841262240822" lon="-0.29421433863999363"><ele>6.0</ele><time>2026-04-19T18:37:26.999Z</time></trkpt><trkpt lat="39.60812027811651" lon="-0.29419337249475297"><ele>6.0</ele><time>2026-04-19T18:37:27.999Z</time></trkpt><trkpt lat="39.607827511626574" lon="-0.2941728253411476"><ele>6.0</ele><time>2026-04-19T18:37:28.999Z</time></trkpt><trkpt lat="39.60753688312145" lon="-0.2941503819088468"><ele>6.0</ele><time>2026-04-19T18:37:29.999Z</time></trkpt><trkpt lat="39.607243877245914" lon="-0.29412855558816126"><ele>6.0</ele><time>2026-04-19T18:37:30.999Z</time></trkpt><trkpt lat="39.60695324586443" lon="-0.2941074537598261"><ele>6.0</ele><time>2026-04-19T18:37:31.999Z</time></trkpt><trkpt lat="39.60665896532707" lon="-0.2940847309140334"><ele>6.0</ele><time>2026-04-19T18:37:32.999Z</time></trkpt><trkpt lat="39.60636237349752" lon="-0.29406107045399504"><ele>6.0</ele><time>2026-04-19T18:37:33.999Z</time></trkpt><trkpt lat="39.60606199275152" lon="-0.29403560932928224"><ele>6.0</ele><time>2026-04-19T18:37:34.999Z</time></trkpt><trkpt lat="39.60576358816794" lon="-0.2940116022704383"><ele>6.0</ele><time>2026-04-19T18:37:35.999Z</time></trkpt><trkpt lat="39.6054601822836" lon="-0.29399220204981125"><ele>6.0</ele><time>2026-04-19T18:37:36.999Z</time></trkpt><trkpt lat="39.60516170424049" lon="-0.29397228590747143"><ele>5.0</ele><time>2026-04-19T18:37:37.999Z</time></trkpt><trkpt lat="39.6048597758516" lon="-0.2939518383519112"><ele>4.0</ele><time>2026-04-19T18:37:38.999Z</time></trkpt><trkpt lat="39.60456246368004" lon="-0.2939299892943914"><ele>4.0</ele><time>2026-04-19T18:37:39.999Z</time></trkpt><trkpt lat="39.60426781128537" lon="-0.2939044805023879"><ele>4.0</ele><time>2026-04-19T18:37:40.999Z</time></trkpt><trkpt lat="39.60397090321489" lon="-0.2938800780752189"><ele>4.0</ele><time>2026-04-19T18:37:41.999Z</time></trkpt><trkpt lat="39.603679098704134" lon="-0.29385587554417153"><ele>4.0</ele><time>2026-04-19T18:37:42.999Z</time></trkpt><trkpt lat="39.60338417297065" lon="-0.29383045475740205"><ele>4.0</ele><time>2026-04-19T18:37:43.999Z</time></trkpt><trkpt lat="39.60309150939722" lon="-0.29380819119971635"><ele>4.0</ele><time>2026-04-19T18:37:44.999Z</time></trkpt><trkpt lat="39.6027968536782" lon="-0.29378447391278883"><ele>5.0</ele><time>2026-04-19T18:37:45.999Z</time></trkpt><trkpt lat="39.60250200753298" lon="-0.2937613109551366"><ele>6.0</ele><time>2026-04-19T18:37:46.999Z</time></trkpt><trkpt lat="39.602205297035425" lon="-0.2937372592131207"><ele>6.0</ele><time>2026-04-19T18:37:47.999Z</time></trkpt><trkpt lat="39.60190739763461" lon="-0.29371642859633035"><ele>6.0</ele><time>2026-04-19T18:37:48.999Z</time></trkpt><trkpt lat="39.60160991697491" lon="-0.2936949488483792"><ele>6.0</ele><time>2026-04-19T18:37:49.999Z</time></trkpt><trkpt lat="39.60131118348773" lon="-0.29367083955917456"><ele>6.0</ele><time>2026-04-19T18:37:50.999Z</time></trkpt><trkpt lat="39.60101376998197" lon="-0.2936494247431852"><ele>5.0</ele><time>2026-04-19T18:37:51.999Z</time></trkpt><trkpt lat="39.60071494473989" lon="-0.29362709812490523"><ele>4.0</ele><time>2026-04-19T18:37:52.999Z</time></trkpt><trkpt lat="39.60042122296098" lon="-0.2936041403681514"><ele>4.5</ele><time>2026-04-19T18:37:53.999Z</time></trkpt><trkpt lat="39.6001313000361" lon="-0.29358360171419934"><ele>5.0</ele><time>2026-04-19T18:37:54.999Z</time></trkpt><trkpt lat="39.5998399975002" lon="-0.2935580774754442"><ele>5.0</ele><time>2026-04-19T18:37:55.999Z</time></trkpt><trkpt lat="39.59955081403909" lon="-0.2935370164265337"><ele>5.0</ele><time>2026-04-19T18:37:56.999Z</time></trkpt><trkpt lat="39.5992564823234" lon="-0.293516049935444"><ele>4.5</ele><time>2026-04-19T18:37:57.999Z</time></trkpt><trkpt lat="39.598959346460454" lon="-0.2934928971341631"><ele>4.0</ele><time>2026-04-19T18:37:58.999Z</time></trkpt><trkpt lat="39.59866016360853" lon="-0.29346924762152976"><ele>4.0</ele><time>2026-04-19T18:37:59.998Z</time></trkpt><trkpt lat="39.59836087211624" lon="-0.2934476583023215"><ele>4.0</ele><time>2026-04-19T18:38:00.998Z</time></trkpt><trkpt lat="39.598060357796356" lon="-0.2934262618379447"><ele>4.0</ele><time>2026-04-19T18:38:01.998Z</time></trkpt><trkpt lat="39.597760178802666" lon="-0.2933973109670734"><ele>4.0</ele><time>2026-04-19T18:38:02.998Z</time></trkpt><trkpt lat="39.59746176785212" lon="-0.29337517587466083"><ele>4.0</ele><time>2026-04-19T18:38:03.998Z</time></trkpt><trkpt lat="39.597168522657086" lon="-0.293355268083868"><ele>4.0</ele><time>2026-04-19T18:38:04.998Z</time></trkpt><trkpt lat="39.596875573089974" lon="-0.2933318063203321"><ele>4.0</ele><time>2026-04-19T18:38:05.998Z</time></trkpt><trkpt lat="39.59658713582781" lon="-0.2933125179636916"><ele>4.0</ele><time>2026-04-19T18:38:06.998Z</time></trkpt><trkpt lat="39.59630305222541" lon="-0.2932904187531642"><ele>4.5</ele><time>2026-04-19T18:38:07.998Z</time></trkpt><trkpt lat="39.596021239530536" lon="-0.2932674340780974"><ele>5.0</ele><time>2026-04-19T18:38:08.998Z</time></trkpt><trkpt lat="39.595741138656045" lon="-0.29324332090951355"><ele>5.0</ele><time>2026-04-19T18:38:09.998Z</time></trkpt><trkpt lat="39.59546026527353" lon="-0.2932237836153928"><ele>5.0</ele><time>2026-04-19T18:38:10.998Z</time></trkpt><trkpt lat="39.59517991325666" lon="-0.29320318435700715"><ele>5.5</ele><time>2026-04-19T18:38:11.998Z</time></trkpt><trkpt lat="39.59489833809861" lon="-0.2931874098689104"><ele>6.0</ele><time>2026-04-19T18:38:12.998Z</time></trkpt><trkpt lat="39.59461103185215" lon="-0.29317496314798486"><ele>6.0</ele><time>2026-04-19T18:38:13.998Z</time></trkpt><trkpt lat="39.59432119977704" lon="-0.29316964154973074"><ele>6.0</ele><time>2026-04-19T18:38:14.998Z</time></trkpt><trkpt lat="39.59403118416989" lon="-0.29317350990675844"><ele>6.0</ele><time>2026-04-19T18:38:15.998Z</time></trkpt><trkpt lat="39.59374123279561" lon="-0.29318044500410273"><ele>6.0</ele><time>2026-04-19T18:38:16.998Z</time></trkpt><trkpt lat="39.59345112991941" lon="-0.29318690887472537"><ele>6.5</ele><time>2026-04-19T18:38:18Z</time></trkpt><trkpt lat="39.593161107468234" lon="-0.29319690109067614"><ele>7.0</ele><time>2026-04-19T18:38:19Z</time></trkpt><trkpt lat="39.59287127348006" lon="-0.2932117788593157"><ele>6.5</ele><time>2026-04-19T18:38:20Z</time></trkpt><trkpt lat="39.59258336903793" lon="-0.29323385722528333"><ele>6.0</ele><time>2026-04-19T18:38:21Z</time></trkpt><trkpt lat="39.59229802725081" lon="-0.2932650759896245"><ele>6.0</ele><time>2026-04-19T18:38:22Z</time></trkpt><trkpt lat="39.59201007995596" lon="-0.2933012568849787"><ele>6.0</ele><time>2026-04-19T18:38:23Z</time></trkpt><trkpt lat="39.59172346975799" lon="-0.2933359201846197"><ele>5.5</ele><time>2026-04-19T18:38:24Z</time></trkpt><trkpt lat="39.591435282539926" lon="-0.29337176727755454"><ele>5.0</ele><time>2026-04-19T18:38:25Z</time></trkpt><trkpt lat="39.59114917055055" lon="-0.2934073248818515"><ele>5.0</ele><time>2026-04-19T18:38:26Z</time></trkpt><trkpt lat="39.59086421336458" lon="-0.29344162950967784"><ele>5.0</ele><time>2026-04-19T18:38:27Z</time></trkpt><trkpt lat="39.59058160963363" lon="-0.29346836129805254"><ele>3.5</ele><time>2026-04-19T18:38:28Z</time></trkpt><trkpt lat="39.59030085032337" lon="-0.29349649172584297"><ele>2.0</ele><time>2026-04-19T18:38:29Z</time></trkpt><trkpt lat="39.590021562346195" lon="-0.2935300650958217"><ele>2.0</ele><time>2026-04-19T18:38:30Z</time></trkpt><trkpt lat="39.58974192012112" lon="-0.2935627694933953"><ele>2.0</ele><time>2026-04-19T18:38:31Z</time></trkpt><trkpt lat="39.58945940204447" lon="-0.2935926426262212"><ele>3.0</ele><time>2026-04-19T18:38:32Z</time></trkpt><trkpt lat="39.58918135833352" lon="-0.2936251746990903"><ele>4.0</ele><time>2026-04-19T18:38:33Z</time></trkpt><trkpt lat="39.58890315944909" lon="-0.2936548728773906"><ele>4.0</ele><time>2026-04-19T18:38:34Z</time></trkpt><trkpt lat="39.58862773819015" lon="-0.29367919198434106"><ele>4.0</ele><time>2026-04-19T18:38:35Z</time></trkpt><trkpt lat="39.588353334907104" lon="-0.29370603619692764"><ele>4.0</ele><time>2026-04-19T18:38:36Z</time></trkpt><trkpt lat="39.58807920505469" lon="-0.29373719578766894"><ele>4.0</ele><time>2026-04-19T18:38:37Z</time></trkpt><trkpt lat="39.587806579807285" lon="-0.2937681772239842"><ele>4.5</ele><time>2026-04-19T18:38:38Z</time></trkpt><trkpt lat="39.58753621198411" lon="-0.29379531476099674"><ele>5.0</ele><time>2026-04-19T18:38:39Z</time></trkpt><trkpt lat="39.58726429236431" lon="-0.2938253154615072"><ele>5.0</ele><time>2026-04-19T18:38:40Z</time></trkpt><trkpt lat="39.58699481072596" lon="-0.29385759924935956"><ele>5.0</ele><time>2026-04-19T18:38:41Z</time></trkpt><trkpt lat="39.586723989830645" lon="-0.29389487198426245"><ele>5.0</ele><time>2026-04-19T18:38:42Z</time></trkpt><trkpt lat="39.58645089825601" lon="-0.29393439071443017"><ele>5.0</ele><time>2026-04-19T18:38:43Z</time></trkpt><trkpt lat="39.58617496263148" lon="-0.29397216535078285"><ele>5.0</ele><time>2026-04-19T18:38:44Z</time></trkpt><trkpt lat="39.58590516968079" lon="-0.2940220207698219"><ele>5.0</ele><time>2026-04-19T18:38:45Z</time></trkpt><trkpt lat="39.58561399395907" lon="-0.29400689657991114"><ele>4.5</ele><time>2026-04-19T18:38:46Z</time></trkpt><trkpt lat="39.58533524922689" lon="-0.2940304228498143"><ele>4.0</ele><time>2026-04-19T18:38:47Z</time></trkpt><trkpt lat="39.58505189653816" lon="-0.29406691040594746"><ele>4.0</ele><time>2026-04-19T18:38:48Z</time></trkpt><trkpt lat="39.58477059059771" lon="-0.29409653045279394"><ele>4.0</ele><time>2026-04-19T18:38:49Z</time></trkpt><trkpt lat="39.5844895206872" lon="-0.2941307627698835"><ele>4.5</ele><time>2026-04-19T18:38:50Z</time></trkpt><trkpt lat="39.58420539420551" lon="-0.2941621595327631"><ele>5.0</ele><time>2026-04-19T18:38:51Z</time></trkpt><trkpt lat="39.583925480283575" lon="-0.2941923378594391"><ele>4.0</ele><time>2026-04-19T18:38:52Z</time></trkpt><trkpt lat="39.583646174919096" lon="-0.29421946022602047"><ele>3.0</ele><time>2026-04-19T18:38:53Z</time></trkpt><trkpt lat="39.583363316560295" lon="-0.29425206760604594"><ele>3.0</ele><time>2026-04-19T18:38:54Z</time></trkpt><trkpt lat="39.583079653008966" lon="-0.2942876007074629"><ele>3.0</ele><time>2026-04-19T18:38:55Z</time></trkpt><trkpt lat="39.582801756087896" lon="-0.2943249558276915"><ele>3.0</ele><time>2026-04-19T18:38:56Z</time></trkpt><trkpt lat="39.582516237425224" lon="-0.2943637879338954"><ele>3.0</ele><time>2026-04-19T18:38:57Z</time></trkpt><trkpt lat="39.582233282778844" lon="-0.29439082945100065"><ele>2.5</ele><time>2026-04-19T18:38:58Z</time></trkpt><trkpt lat="39.581953352496896" lon="-0.2944174543232643"><ele>2.0</ele><time>2026-04-19T18:38:59Z</time></trkpt><trkpt lat="39.58166864763295" lon="-0.29444585412294905"><ele>2.0</ele><time>2026-04-19T18:39:00Z</time></trkpt><trkpt lat="39.581390042971556" lon="-0.2944792302214551"><ele>2.0</ele><time>2026-04-19T18:39:01Z</time></trkpt><trkpt lat="39.58110602903375" lon="-0.29450834462063"><ele>2.5</ele><time>2026-04-19T18:39:02Z</time></trkpt><trkpt lat="39.58082213995783" lon="-0.2945391958094241"><ele>3.0</ele><time>2026-04-19T18:39:03Z</time></trkpt><trkpt lat="39.58053905132247" lon="-0.29457491838304634"><ele>4.0</ele><time>2026-04-19T18:39:04Z</time></trkpt><trkpt lat="39.58025697772123" lon="-0.294608447869207"><ele>5.0</ele><time>2026-04-19T18:39:05Z</time></trkpt><trkpt lat="39.57997635248597" lon="-0.29464399250104256"><ele>5.0</ele><time>2026-04-19T18:39:06Z</time></trkpt><trkpt lat="39.579694646122356" lon="-0.29467941129538383"><ele>5.0</ele><time>2026-04-19T18:39:07Z</time></trkpt><trkpt lat="39.57940782122035" lon="-0.2947054186051006"><ele>5.0</ele><time>2026-04-19T18:39:07.999Z</time></trkpt><trkpt lat="39.579126693058654" lon="-0.2947288545122564"><ele>5.0</ele><time>2026-04-19T18:39:08.999Z</time></trkpt><trkpt lat="39.57884497876074" lon="-0.2947620699370946"><ele>4.5</ele><time>2026-04-19T18:39:09.999Z</time></trkpt><trkpt lat="39.57856081678592" lon="-0.29479841424212727"><ele>4.0</ele><time>2026-04-19T18:39:10.999Z</time></trkpt><trkpt lat="39.578278957778025" lon="-0.29482895324331315"><ele>4.0</ele><time>2026-04-19T18:39:11.999Z</time></trkpt><trkpt lat="39.577998536233395" lon="-0.2948593752016264"><ele>4.0</ele><time>2026-04-19T18:39:12.999Z</time></trkpt><trkpt lat="39.57771910881769" lon="-0.29489083129549376"><ele>3.5</ele><time>2026-04-19T18:39:13.999Z</time></trkpt><trkpt lat="39.577445304047394" lon="-0.29492448953894584"><ele>3.0</ele><time>2026-04-19T18:39:14.999Z</time></trkpt><trkpt lat="39.57716400180356" lon="-0.29495334822574226"><ele>4.0</ele><time>2026-04-19T18:39:15.999Z</time></trkpt><trkpt lat="39.576863108311365" lon="-0.29498443280853226"><ele>5.0</ele><time>2026-04-19T18:39:16.999Z</time></trkpt><trkpt lat="39.576551602822136" lon="-0.2950077254279445"><ele>5.0</ele><time>2026-04-19T18:39:17.999Z</time></trkpt><trkpt lat="39.576258805344786" lon="-0.2950440906493716"><ele>5.0</ele><time>2026-04-19T18:39:18.999Z</time></trkpt><trkpt lat="39.57596961310151" lon="-0.29507685320420496"><ele>4.0</ele><time>2026-04-19T18:39:19.999Z</time></trkpt><trkpt lat="39.575688455987745" lon="-0.2951138624745755"><ele>3.0</ele><time>2026-04-19T18:39:20.999Z</time></trkpt><trkpt lat="39.57540439535307" lon="-0.29514799125970786"><ele>2.5</ele><time>2026-04-19T18:39:21.999Z</time></trkpt><trkpt lat="39.57512014802104" lon="-0.2951754232593697"><ele>2.0</ele><time>2026-04-19T18:39:22.999Z</time></trkpt><trkpt lat="39.57483125744994" lon="-0.2952078602124549"><ele>2.0</ele><time>2026-04-19T18:39:23.999Z</time></trkpt><trkpt lat="39.57454705078593" lon="-0.2952359804756989"><ele>2.0</ele><time>2026-04-19T18:39:24.999Z</time></trkpt><trkpt lat="39.574266249631656" lon="-0.2952661865496646"><ele>2.5</ele><time>2026-04-19T18:39:25.999Z</time></trkpt><trkpt lat="39.57398290163166" lon="-0.295299873323376"><ele>3.0</ele><time>2026-04-19T18:39:26.999Z</time></trkpt><trkpt lat="39.57370250830337" lon="-0.29533055007928716"><ele>3.5</ele><time>2026-04-19T18:39:27.999Z</time></trkpt><trkpt lat="39.57341786216847" lon="-0.29535855015101947"><ele>4.0</ele><time>2026-04-19T18:39:28.999Z</time></trkpt><trkpt lat="39.57313417451409" lon="-0.295389673967583"><ele>4.0</ele><time>2026-04-19T18:39:29.999Z</time></trkpt><trkpt lat="39.57284850824207" lon="-0.29541678856410153"><ele>4.0</ele><time>2026-04-19T18:39:30.999Z</time></trkpt><trkpt lat="39.572566545593965" lon="-0.29545093062945077"><ele>4.0</ele><time>2026-04-19T18:39:31.999Z</time></trkpt><trkpt lat="39.57227865604045" lon="-0.29549184539303586"><ele>4.0</ele><time>2026-04-19T18:39:32.999Z</time></trkpt><trkpt lat="39.571995180381016" lon="-0.2955221435802115"><ele>4.0</ele><time>2026-04-19T18:39:33.999Z</time></trkpt><trkpt lat="39.571710643761406" lon="-0.29555103817979134"><ele>4.0</ele><time>2026-04-19T18:39:34.999Z</time></trkpt><trkpt lat="39.57142945323385" lon="-0.29557989891880593"><ele>4.0</ele><time>2026-04-19T18:39:35.999Z</time></trkpt><trkpt lat="39.571148268175186" lon="-0.2956093767454967"><ele>4.0</ele><time>2026-04-19T18:39:36.999Z</time></trkpt><trkpt lat="39.570862423240264" lon="-0.29564372781431086"><ele>4.0</ele><time>2026-04-19T18:39:37.999Z</time></trkpt><trkpt lat="39.57057108457132" lon="-0.29568247453234675"><ele>4.0</ele><time>2026-04-19T18:39:38.999Z</time></trkpt><trkpt lat="39.570276024149045" lon="-0.29571742771672666"><ele>4.5</ele><time>2026-04-19T18:39:39.999Z</time></trkpt><trkpt lat="39.56998512016659" lon="-0.29574701183435725"><ele>5.0</ele><time>2026-04-19T18:39:40.999Z</time></trkpt><trkpt lat="39.56969196138964" lon="-0.2957778640535779"><ele>4.0</ele><time>2026-04-19T18:39:41.999Z</time></trkpt><trkpt lat="39.56940409346819" lon="-0.2958101796043794"><ele>3.0</ele><time>2026-04-19T18:39:42.999Z</time></trkpt><trkpt lat="39.56911658322068" lon="-0.29584226705040717"><ele>3.0</ele><time>2026-04-19T18:39:43.999Z</time></trkpt><trkpt lat="39.56882949397133" lon="-0.2958741929726087"><ele>3.0</ele><time>2026-04-19T18:39:44.999Z</time></trkpt><trkpt lat="39.56854802400091" lon="-0.2959063278150589"><ele>3.0</ele><time>2026-04-19T18:39:45.999Z</time></trkpt><trkpt lat="39.56826670765267" lon="-0.29593659879990747"><ele>3.0</ele><time>2026-04-19T18:39:46.999Z</time></trkpt><trkpt lat="39.567981706312544" lon="-0.2959629177679127"><ele>2.0</ele><time>2026-04-19T18:39:47.999Z</time></trkpt><trkpt lat="39.567704149307914" lon="-0.2959968585217763"><ele>1.0</ele><time>2026-04-19T18:39:48.999Z</time></trkpt><trkpt lat="39.56743207699615" lon="-0.29602831095094595"><ele>1.0</ele><time>2026-04-19T18:39:49.999Z</time></trkpt><trkpt lat="39.567153566223816" lon="-0.2960563925387691"><ele>1.0</ele><time>2026-04-19T18:39:50.999Z</time></trkpt><trkpt lat="39.56686959294118" lon="-0.29608690664471315"><ele>2.0</ele><time>2026-04-19T18:39:51.999Z</time></trkpt><trkpt lat="39.56658551699294" lon="-0.2961189971148367"><ele>3.0</ele><time>2026-04-19T18:39:52.999Z</time></trkpt><trkpt lat="39.56630327535124" lon="-0.29614858349095335"><ele>2.5</ele><time>2026-04-19T18:39:53.999Z</time></trkpt><trkpt lat="39.566012283759605" lon="-0.29617952217706417"><ele>2.0</ele><time>2026-04-19T18:39:54.999Z</time></trkpt><trkpt lat="39.56572677536433" lon="-0.2962140171778084"><ele>2.0</ele><time>2026-04-19T18:39:55.999Z</time></trkpt><trkpt lat="39.56544079329448" lon="-0.2962461089746347"><ele>2.0</ele><time>2026-04-19T18:39:56.999Z</time></trkpt><trkpt lat="39.565156075336276" lon="-0.2962793635240763"><ele>2.5</ele><time>2026-04-19T18:39:57.999Z</time></trkpt><trkpt lat="39.564871690377416" lon="-0.296309510938253"><ele>3.0</ele><time>2026-04-19T18:39:58.999Z</time></trkpt><trkpt lat="39.56459040905428" lon="-0.29634267197366887"><ele>3.5</ele><time>2026-04-19T18:39:59.999Z</time></trkpt><trkpt lat="39.564305651971274" lon="-0.2963749467293805"><ele>4.0</ele><time>2026-04-19T18:40:00.999Z</time></trkpt><trkpt lat="39.564027018415665" lon="-0.29640353734772995"><ele>4.5</ele><time>2026-04-19T18:40:01.999Z</time></trkpt><trkpt lat="39.5637498923147" lon="-0.29643230988933994"><ele>5.0</ele><time>2026-04-19T18:40:02.999Z</time></trkpt><trkpt lat="39.5634729381992" lon="-0.29646059375912104"><ele>5.0</ele><time>2026-04-19T18:40:03.999Z</time></trkpt><trkpt lat="39.5631936794619" lon="-0.29648802865842383"><ele>5.0</ele><time>2026-04-19T18:40:04.999Z</time></trkpt><trkpt lat="39.56291966843588" lon="-0.29651740091947837"><ele>5.5</ele><time>2026-04-19T18:40:05.999Z</time></trkpt><trkpt lat="39.56264322959037" lon="-0.29654971811527864"><ele>6.0</ele><time>2026-04-19T18:40:06.999Z</time></trkpt><trkpt lat="39.56236299405884" lon="-0.29658292318908813"><ele>6.0</ele><time>2026-04-19T18:40:07.999Z</time></trkpt><trkpt lat="39.56208568474325" lon="-0.29661530281296705"><ele>6.0</ele><time>2026-04-19T18:40:08.999Z</time></trkpt><trkpt lat="39.56180942161306" lon="-0.2966477989941767"><ele>6.0</ele><time>2026-04-19T18:40:09.999Z</time></trkpt><trkpt lat="39.561528654418225" lon="-0.29667799764241914"><ele>6.0</ele><time>2026-04-19T18:40:10.998Z</time></trkpt><trkpt lat="39.56124154366354" lon="-0.2967101885766226"><ele>5.5</ele><time>2026-04-19T18:40:11.998Z</time></trkpt><trkpt lat="39.56095271960091" lon="-0.2967477599614414"><ele>5.0</ele><time>2026-04-19T18:40:12.998Z</time></trkpt><trkpt lat="39.56066344202991" lon="-0.2967789170951612"><ele>5.0</ele><time>2026-04-19T18:40:13.998Z</time></trkpt><trkpt lat="39.560374316842676" lon="-0.29680931145056605"><ele>5.0</ele><time>2026-04-19T18:40:14.998Z</time></trkpt><trkpt lat="39.56008521158354" lon="-0.2968432291708427"><ele>3.5</ele><time>2026-04-19T18:40:15.998Z</time></trkpt><trkpt lat="39.55978986474378" lon="-0.29687386941119054"><ele>2.0</ele><time>2026-04-19T18:40:16.998Z</time></trkpt><trkpt lat="39.559497481319184" lon="-0.2969053055667521"><ele>2.0</ele><time>2026-04-19T18:40:17.998Z</time></trkpt><trkpt lat="39.55920734841074" lon="-0.29693916663738085"><ele>2.0</ele><time>2026-04-19T18:40:18.998Z</time></trkpt><trkpt lat="39.55891916202918" lon="-0.29697137039283583"><ele>3.0</ele><time>2026-04-19T18:40:19.998Z</time></trkpt><trkpt lat="39.55862869987112" lon="-0.2970010062389476"><ele>4.0</ele><time>2026-04-19T18:40:20.998Z</time></trkpt><trkpt lat="39.558340858746455" lon="-0.29703592411847235"><ele>4.0</ele><time>2026-04-19T18:40:21.998Z</time></trkpt><trkpt lat="39.55805219231439" lon="-0.29706847821032545"><ele>4.0</ele><time>2026-04-19T18:40:23Z</time></trkpt><trkpt lat="39.5577661892965" lon="-0.2971023576726879"><ele>3.5</ele><time>2026-04-19T18:40:24Z</time></trkpt><trkpt lat="39.55748277555827" lon="-0.29713151974459423"><ele>3.0</ele><time>2026-04-19T18:40:25Z</time></trkpt><trkpt lat="39.557195017026004" lon="-0.29715679035316583"><ele>2.5</ele><time>2026-04-19T18:40:26Z</time></trkpt><trkpt lat="39.55690968879273" lon="-0.29719048767207135"><ele>2.0</ele><time>2026-04-19T18:40:27Z</time></trkpt><trkpt lat="39.55662445082083" lon="-0.2972241807878866"><ele>2.0</ele><time>2026-04-19T18:40:28Z</time></trkpt><trkpt lat="39.55633724575387" lon="-0.2972536209249594"><ele>2.0</ele><time>2026-04-19T18:40:29Z</time></trkpt><trkpt lat="39.55605506116674" lon="-0.29728175865000006"><ele>2.0</ele><time>2026-04-19T18:40:30Z</time></trkpt><trkpt lat="39.555770645133066" lon="-0.29731878905094133"><ele>2.0</ele><time>2026-04-19T18:40:31Z</time></trkpt><trkpt lat="39.555486691846006" lon="-0.29734850013144537"><ele>3.0</ele><time>2026-04-19T18:40:32Z</time></trkpt><trkpt lat="39.55519885423954" lon="-0.29738341534981877"><ele>4.0</ele><time>2026-04-19T18:40:33Z</time></trkpt><trkpt lat="39.554919516419154" lon="-0.29741303940622754"><ele>4.0</ele><time>2026-04-19T18:40:34Z</time></trkpt><trkpt lat="39.554632540054044" lon="-0.29744754731005413"><ele>4.0</ele><time>2026-04-19T18:40:35Z</time></trkpt><trkpt lat="39.55435531410521" lon="-0.29748312723321213"><ele>4.5</ele><time>2026-04-19T18:40:36Z</time></trkpt><trkpt lat="39.55406849972009" lon="-0.29751423377472114"><ele>5.0</ele><time>2026-04-19T18:40:37Z</time></trkpt><trkpt lat="39.55379014254762" lon="-0.29754167693895395"><ele>3.0</ele><time>2026-04-19T18:40:38Z</time></trkpt><trkpt lat="39.55351115704933" lon="-0.29757185549080345"><ele>1.0</ele><time>2026-04-19T18:40:39Z</time></trkpt><trkpt lat="39.55323280204358" lon="-0.2976018700613213"><ele>1.0</ele><time>2026-04-19T18:40:40Z</time></trkpt><trkpt lat="39.55294942896399" lon="-0.29763575944253"><ele>1.0</ele><time>2026-04-19T18:40:41Z</time></trkpt><trkpt lat="39.5526676453986" lon="-0.297663498676504"><ele>1.5</ele><time>2026-04-19T18:40:42Z</time></trkpt><trkpt lat="39.55238317184649" lon="-0.2976956723630269"><ele>2.0</ele><time>2026-04-19T18:40:43Z</time></trkpt><trkpt lat="39.55209539000759" lon="-0.2977294899057812"><ele>1.5</ele><time>2026-04-19T18:40:44Z</time></trkpt><trkpt lat="39.55181231818656" lon="-0.297763650614644"><ele>1.0</ele><time>2026-04-19T18:40:45Z</time></trkpt><trkpt lat="39.55152759520105" lon="-0.29779781010398376"><ele>1.0</ele><time>2026-04-19T18:40:46Z</time></trkpt><trkpt lat="39.55125376390312" lon="-0.2978379643721113"><ele>1.0</ele><time>2026-04-19T18:40:47Z</time></trkpt><trkpt lat="39.55097179647539" lon="-0.2978638155773858"><ele>2.5</ele><time>2026-04-19T18:40:48Z</time></trkpt><trkpt lat="39.55067806158702" lon="-0.29789592767297424"><ele>4.0</ele><time>2026-04-19T18:40:49Z</time></trkpt><trkpt lat="39.55039723144892" lon="-0.29793392570666233"><ele>4.0</ele><time>2026-04-19T18:40:50Z</time></trkpt><trkpt lat="39.55013229964179" lon="-0.29796013263725424"><ele>4.0</ele><time>2026-04-19T18:40:51Z</time></trkpt><trkpt lat="39.549863089288415" lon="-0.2979789730541933"><ele>4.0</ele><time>2026-04-19T18:40:52Z</time></trkpt><trkpt lat="39.549595927044955" lon="-0.29801119899214223"><ele>4.0</ele><time>2026-04-19T18:40:53Z</time></trkpt><trkpt lat="39.549321955841066" lon="-0.2980494454473502"><ele>4.0</ele><time>2026-04-19T18:40:54Z</time></trkpt><trkpt lat="39.54904908458765" lon="-0.2980943139230886"><ele>4.0</ele><time>2026-04-19T18:40:55Z</time></trkpt><trkpt lat="39.54877721164362" lon="-0.2981435667313223"><ele>3.5</ele><time>2026-04-19T18:40:56Z</time></trkpt><trkpt lat="39.54850573781905" lon="-0.2982113007990979"><ele>3.0</ele><time>2026-04-19T18:40:57Z</time></trkpt><trkpt lat="39.5482435950657" lon="-0.298291408394468"><ele>3.0</ele><time>2026-04-19T18:40:58Z</time></trkpt><trkpt lat="39.54798464452039" lon="-0.2983797054294465"><ele>3.0</ele><time>2026-04-19T18:40:59Z</time></trkpt><trkpt lat="39.54773346754738" lon="-0.2984738594450927"><ele>3.5</ele><time>2026-04-19T18:41:00Z</time></trkpt><trkpt lat="39.54748540590604" lon="-0.298577210167249"><ele>4.0</ele><time>2026-04-19T18:41:01Z</time></trkpt><trkpt lat="39.54724360922832" lon="-0.29869208444670814"><ele>3.0</ele><time>2026-04-19T18:41:02Z</time></trkpt><trkpt lat="39.547005575877094" lon="-0.29881180371279426"><ele>2.0</ele><time>2026-04-19T18:41:03Z</time></trkpt><trkpt lat="39.54676926659287" lon="-0.29894141252692674"><ele>2.0</ele><time>2026-04-19T18:41:04Z</time></trkpt><trkpt lat="39.546536364589485" lon="-0.2990766115694717"><ele>2.0</ele><time>2026-04-19T18:41:05Z</time></trkpt><trkpt lat="39.54630104303577" lon="-0.2992180041757527"><ele>2.0</ele><time>2026-04-19T18:41:06Z</time></trkpt><trkpt lat="39.54606984455367" lon="-0.2993783046823192"><ele>2.0</ele><time>2026-04-19T18:41:07Z</time></trkpt><trkpt lat="39.54584536304227" lon="-0.2995474242468649"><ele>2.0</ele><time>2026-04-19T18:41:08Z</time></trkpt><trkpt lat="39.545631359594836" lon="-0.2997210739973875"><ele>2.0</ele><time>2026-04-19T18:41:09Z</time></trkpt><trkpt lat="39.54542624369817" lon="-0.29989848280118525"><ele>3.0</ele><time>2026-04-19T18:41:10Z</time></trkpt><trkpt lat="39.54521493976881" lon="-0.3000835343441207"><ele>4.0</ele><time>2026-04-19T18:41:11Z</time></trkpt><trkpt lat="39.54499973766586" lon="-0.3002700891897659"><ele>4.0</ele><time>2026-04-19T18:41:12Z</time></trkpt><trkpt lat="39.54478200087853" lon="-0.30045851514117605"><ele>4.0</ele><time>2026-04-19T18:41:13Z</time></trkpt><trkpt lat="39.54457336066392" lon="-0.3006420366030383"><ele>2.5</ele><time>2026-04-19T18:41:14Z</time></trkpt><trkpt lat="39.54436893672718" lon="-0.30082006359030333"><ele>1.0</ele><time>2026-04-19T18:41:14.999Z</time></trkpt><trkpt lat="39.544161658674795" lon="-0.3010017064161012"><ele>1.0</ele><time>2026-04-19T18:41:15.999Z</time></trkpt><trkpt lat="39.5439539466211" lon="-0.30118219978763905"><ele>1.0</ele><time>2026-04-19T18:41:16.999Z</time></trkpt><trkpt lat="39.54374688636336" lon="-0.3013606706153107"><ele>2.0</ele><time>2026-04-19T18:41:17.999Z</time></trkpt><trkpt lat="39.54354153959091" lon="-0.3015385135516737"><ele>3.0</ele><time>2026-04-19T18:41:18.999Z</time></trkpt><trkpt lat="39.543332820710724" lon="-0.3017183417449699"><ele>3.0</ele><time>2026-04-19T18:41:19.999Z</time></trkpt><trkpt lat="39.543123607688" lon="-0.30189649499586046"><ele>3.0</ele><time>2026-04-19T18:41:20.999Z</time></trkpt><trkpt lat="39.542913249446876" lon="-0.30208415219633583"><ele>4.0</ele><time>2026-04-19T18:41:21.999Z</time></trkpt><trkpt lat="39.54270105061979" lon="-0.30226918018398663"><ele>5.0</ele><time>2026-04-19T18:41:22.999Z</time></trkpt><trkpt lat="39.54249062959532" lon="-0.30245397236271976"><ele>5.0</ele><time>2026-04-19T18:41:23.999Z</time></trkpt><trkpt lat="39.542281667955166" lon="-0.30263585827400585"><ele>5.0</ele><time>2026-04-19T18:41:24.999Z</time></trkpt><trkpt lat="39.54207052835634" lon="-0.3028197320102374"><ele>4.0</ele><time>2026-04-19T18:41:25.999Z</time></trkpt><trkpt lat="39.54186472407195" lon="-0.30300739196748855"><ele>3.0</ele><time>2026-04-19T18:41:26.999Z</time></trkpt><trkpt lat="39.54165820329186" lon="-0.303189600377402"><ele>3.0</ele><time>2026-04-19T18:41:27.999Z</time></trkpt><trkpt lat="39.541450644266874" lon="-0.3033719516885327"><ele>3.0</ele><time>2026-04-19T18:41:28.999Z</time></trkpt><trkpt lat="39.541243367702585" lon="-0.30355259364929815"><ele>2.5</ele><time>2026-04-19T18:41:29.999Z</time></trkpt><trkpt lat="39.54103940987012" lon="-0.30372965417277603"><ele>2.0</ele><time>2026-04-19T18:41:30.999Z</time></trkpt><trkpt lat="39.540830719700914" lon="-0.30390918868969413"><ele>1.5</ele><time>2026-04-19T18:41:31.999Z</time></trkpt><trkpt lat="39.5406269331347" lon="-0.30409013345944313"><ele>1.0</ele><time>2026-04-19T18:41:32.999Z</time></trkpt><trkpt lat="39.54042477247548" lon="-0.3042661554244283"><ele>0.5</ele><time>2026-04-19T18:41:33.999Z</time></trkpt><trkpt lat="39.54022392995945" lon="-0.30444283314172704"><ele>0.0</ele><time>2026-04-19T18:41:34.999Z</time></trkpt><trkpt lat="39.540026974868844" lon="-0.3046174412038755"><ele>1.5</ele><time>2026-04-19T18:41:35.999Z</time></trkpt><trkpt lat="39.539832272775215" lon="-0.3047821832519422"><ele>3.0</ele><time>2026-04-19T18:41:36.999Z</time></trkpt><trkpt lat="39.539637222181774" lon="-0.30494949760393314"><ele>3.0</ele><time>2026-04-19T18:41:37.999Z</time></trkpt><trkpt lat="39.53943717515018" lon="-0.3051222234153009"><ele>3.0</ele><time>2026-04-19T18:41:38.999Z</time></trkpt><trkpt lat="39.539238421243205" lon="-0.30529741163677276"><ele>3.0</ele><time>2026-04-19T18:41:39.999Z</time></trkpt><trkpt lat="39.53903752041108" lon="-0.30546892217800653"><ele>3.0</ele><time>2026-04-19T18:41:40.999Z</time></trkpt><trkpt lat="39.53883880186183" lon="-0.30564588446349555"><ele>3.0</ele><time>2026-04-19T18:41:41.999Z</time></trkpt><trkpt lat="39.538637962905156" lon="-0.3058240065280929"><ele>3.0</ele><time>2026-04-19T18:41:42.999Z</time></trkpt><trkpt lat="39.53843820548908" lon="-0.3059982148117178"><ele>3.0</ele><time>2026-04-19T18:41:43.999Z</time></trkpt><trkpt lat="39.53823912913293" lon="-0.30617155492483944"><ele>3.0</ele><time>2026-04-19T18:41:44.999Z</time></trkpt><trkpt lat="39.53804143068399" lon="-0.30635084285683417"><ele>3.5</ele><time>2026-04-19T18:41:45.999Z</time></trkpt><trkpt lat="39.53784138597376" lon="-0.306529861526318"><ele>4.0</ele><time>2026-04-19T18:41:46.999Z</time></trkpt><trkpt lat="39.53764013502459" lon="-0.3067062184427373"><ele>4.0</ele><time>2026-04-19T18:41:47.999Z</time></trkpt><trkpt lat="39.537435064088335" lon="-0.3068790139601629"><ele>4.0</ele><time>2026-04-19T18:41:48.999Z</time></trkpt><trkpt lat="39.537227053248415" lon="-0.307053957880647"><ele>3.5</ele><time>2026-04-19T18:41:49.999Z</time></trkpt><trkpt lat="39.53702290022174" lon="-0.30723491105535394"><ele>3.0</ele><time>2026-04-19T18:41:50.999Z</time></trkpt><trkpt lat="39.53681954811609" lon="-0.3074106624563589"><ele>3.0</ele><time>2026-04-19T18:41:51.999Z</time></trkpt><trkpt lat="39.53661786128293" lon="-0.3075871484471628"><ele>3.0</ele><time>2026-04-19T18:41:52.999Z</time></trkpt><trkpt lat="39.536412061525915" lon="-0.30777158153307954"><ele>3.0</ele><time>2026-04-19T18:41:53.999Z</time></trkpt><trkpt lat="39.5362003824831" lon="-0.3079604970395186"><ele>3.0</ele><time>2026-04-19T18:41:54.999Z</time></trkpt><trkpt lat="39.535985970147216" lon="-0.3081465899925116"><ele>3.0</ele><time>2026-04-19T18:41:55.999Z</time></trkpt><trkpt lat="39.53577186680554" lon="-0.30833323626753883"><ele>3.0</ele><time>2026-04-19T18:41:56.999Z</time></trkpt><trkpt lat="39.53555382127925" lon="-0.3085227959112812"><ele>2.5</ele><time>2026-04-19T18:41:57.999Z</time></trkpt><trkpt lat="39.535331426260136" lon="-0.3087005264071483"><ele>2.0</ele><time>2026-04-19T18:41:58.999Z</time></trkpt><trkpt lat="39.53510792065489" lon="-0.30886330104626947"><ele>2.0</ele><time>2026-04-19T18:41:59.999Z</time></trkpt><trkpt lat="39.534881790715204" lon="-0.3090167207795845"><ele>2.0</ele><time>2026-04-19T18:42:00.999Z</time></trkpt><trkpt lat="39.53465873477702" lon="-0.3091706601457961"><ele>1.5</ele><time>2026-04-19T18:42:01.999Z</time></trkpt><trkpt lat="39.53443704541318" lon="-0.30933233476300764"><ele>1.0</ele><time>2026-04-19T18:42:02.999Z</time></trkpt><trkpt lat="39.534212028712524" lon="-0.30948699153165654"><ele>1.0</ele><time>2026-04-19T18:42:03.999Z</time></trkpt><trkpt lat="39.53398579375421" lon="-0.30963719128728995"><ele>1.0</ele><time>2026-04-19T18:42:04.999Z</time></trkpt><trkpt lat="39.53375992056725" lon="-0.30978469216123844"><ele>1.0</ele><time>2026-04-19T18:42:05.999Z</time></trkpt><trkpt lat="39.533536865364425" lon="-0.30993288827833865"><ele>1.0</ele><time>2026-04-19T18:42:06.999Z</time></trkpt><trkpt lat="39.533319411328286" lon="-0.3100843947240613"><ele>1.0</ele><time>2026-04-19T18:42:07.999Z</time></trkpt><trkpt lat="39.533098945830424" lon="-0.3102315510364676"><ele>1.0</ele><time>2026-04-19T18:42:08.999Z</time></trkpt><trkpt lat="39.53287930910366" lon="-0.31037557601451615"><ele>0.5</ele><time>2026-04-19T18:42:09.999Z</time></trkpt><trkpt lat="39.532661772242314" lon="-0.3105205015521872"><ele>0.0</ele><time>2026-04-19T18:42:10.999Z</time></trkpt><trkpt lat="39.532442181262965" lon="-0.3106675884436276"><ele>0.0</ele><time>2026-04-19T18:42:11.999Z</time></trkpt><trkpt lat="39.53222256597011" lon="-0.3108117368681189"><ele>0.0</ele><time>2026-04-19T18:42:12.999Z</time></trkpt><trkpt lat="39.53200202906691" lon="-0.3109591454061567"><ele>1.5</ele><time>2026-04-19T18:42:13.999Z</time></trkpt><trkpt lat="39.53177733276955" lon="-0.31110893469777046"><ele>3.0</ele><time>2026-04-19T18:42:14.998Z</time></trkpt><trkpt lat="39.531549508419275" lon="-0.31125823939871705"><ele>3.0</ele><time>2026-04-19T18:42:15.998Z</time></trkpt><trkpt lat="39.53132407919771" lon="-0.31140814585714865"><ele>3.0</ele><time>2026-04-19T18:42:16.998Z</time></trkpt><trkpt lat="39.53109783875079" lon="-0.311556536700236"><ele>3.0</ele><time>2026-04-19T18:42:17.998Z</time></trkpt><trkpt lat="39.530871729012325" lon="-0.3117067628067559"><ele>3.0</ele><time>2026-04-19T18:42:18.998Z</time></trkpt><trkpt lat="39.530648246213765" lon="-0.31185408947576937"><ele>3.0</ele><time>2026-04-19T18:42:19.998Z</time></trkpt><trkpt lat="39.530424238896494" lon="-0.31200966698220606"><ele>3.0</ele><time>2026-04-19T18:42:20.998Z</time></trkpt><trkpt lat="39.53019725111128" lon="-0.312164581280088"><ele>1.5</ele><time>2026-04-19T18:42:21.998Z</time></trkpt><trkpt lat="39.52997188360284" lon="-0.31231816066073387"><ele>0.0</ele><time>2026-04-19T18:42:22.998Z</time></trkpt><trkpt lat="39.52974311139036" lon="-0.31247105794212365"><ele>0.5</ele><time>2026-04-19T18:42:23.998Z</time></trkpt><trkpt lat="39.52950907525336" lon="-0.3126259967852521"><ele>1.0</ele><time>2026-04-19T18:42:24.998Z</time></trkpt><trkpt lat="39.529276318783246" lon="-0.3127798114202026"><ele>1.0</ele><time>2026-04-19T18:42:25.998Z</time></trkpt><trkpt lat="39.52904535477525" lon="-0.31292765422254176"><ele>1.0</ele><time>2026-04-19T18:42:26.998Z</time></trkpt><trkpt lat="39.52881839403431" lon="-0.3130744776117346"><ele>0.5</ele><time>2026-04-19T18:42:27.998Z</time></trkpt><trkpt lat="39.52859284637833" lon="-0.3132265800149117"><ele>0.0</ele><time>2026-04-19T18:42:29Z</time></trkpt><trkpt lat="39.52836884760401" lon="-0.31338208449514104"><ele>0.0</ele><time>2026-04-19T18:42:30Z</time></trkpt><trkpt lat="39.528147271709635" lon="-0.31353709494848264"><ele>0.0</ele><time>2026-04-19T18:42:31Z</time></trkpt><trkpt lat="39.52792325838303" lon="-0.3136894223229944"><ele>0.5</ele><time>2026-04-19T18:42:32Z</time></trkpt><trkpt lat="39.52769861950352" lon="-0.31384100393626996"><ele>1.0</ele><time>2026-04-19T18:42:33Z</time></trkpt><trkpt lat="39.5274707616185" lon="-0.31399332348931686"><ele>1.0</ele><time>2026-04-19T18:42:34Z</time></trkpt><trkpt lat="39.52724316550072" lon="-0.31414481185383336"><ele>1.0</ele><time>2026-04-19T18:42:35Z</time></trkpt><trkpt lat="39.527016053336695" lon="-0.3142973205020382"><ele>1.0</ele><time>2026-04-19T18:42:36Z</time></trkpt><trkpt lat="39.52678566495586" lon="-0.31445160986136417"><ele>1.0</ele><time>2026-04-19T18:42:37Z</time></trkpt><trkpt lat="39.52655243507576" lon="-0.31460376136891594"><ele>1.0</ele><time>2026-04-19T18:42:38Z</time></trkpt><trkpt lat="39.5263184011598" lon="-0.31476153705760523"><ele>1.0</ele><time>2026-04-19T18:42:39Z</time></trkpt><trkpt lat="39.52608442483849" lon="-0.3149206548652687"><ele>1.0</ele><time>2026-04-19T18:42:40Z</time></trkpt><trkpt lat="39.52585169596729" lon="-0.3150826443981505"><ele>1.0</ele><time>2026-04-19T18:42:41Z</time></trkpt><trkpt lat="39.525616485690804" lon="-0.3152442848784526"><ele>1.0</ele><time>2026-04-19T18:42:42Z</time></trkpt><trkpt lat="39.52538122216456" lon="-0.3154014825624188"><ele>1.0</ele><time>2026-04-19T18:42:43Z</time></trkpt><trkpt lat="39.52514503411103" lon="-0.3155615709936424"><ele>0.5</ele><time>2026-04-19T18:42:44Z</time></trkpt><trkpt lat="39.52490796739758" lon="-0.31571977433529186"><ele>0.0</ele><time>2026-04-19T18:42:45Z</time></trkpt><trkpt lat="39.52467159600615" lon="-0.3158762450023355"><ele>1.0</ele><time>2026-04-19T18:42:46Z</time></trkpt><trkpt lat="39.52443600238312" lon="-0.31603166807592287"><ele>2.0</ele><time>2026-04-19T18:42:47Z</time></trkpt><trkpt lat="39.52420018765955" lon="-0.31619252493748523"><ele>2.0</ele><time>2026-04-19T18:42:48Z</time></trkpt><trkpt lat="39.52396708410288" lon="-0.316347671675949"><ele>2.0</ele><time>2026-04-19T18:42:49Z</time></trkpt><trkpt lat="39.52373534996007" lon="-0.3165062456978302"><ele>2.5</ele><time>2026-04-19T18:42:50Z</time></trkpt><trkpt lat="39.523500259662455" lon="-0.31666161696999273"><ele>3.0</ele><time>2026-04-19T18:42:51Z</time></trkpt><trkpt lat="39.52326750749384" lon="-0.3168174838976215"><ele>3.0</ele><time>2026-04-19T18:42:52Z</time></trkpt><trkpt lat="39.52303645498634" lon="-0.31697386540585304"><ele>3.0</ele><time>2026-04-19T18:42:53Z</time></trkpt><trkpt lat="39.522806383059766" lon="-0.3171270493880948"><ele>2.5</ele><time>2026-04-19T18:42:54Z</time></trkpt><trkpt lat="39.52257693795819" lon="-0.31727688300844403"><ele>2.0</ele><time>2026-04-19T18:42:55Z</time></trkpt><trkpt lat="39.5223482622748" lon="-0.31742823906775935"><ele>2.0</ele><time>2026-04-19T18:42:56Z</time></trkpt><trkpt lat="39.52212024820729" lon="-0.3175810015715474"><ele>2.0</ele><time>2026-04-19T18:42:57Z</time></trkpt><trkpt lat="39.52189227255701" lon="-0.31772799304935"><ele>2.5</ele><time>2026-04-19T18:42:58Z</time></trkpt><trkpt lat="39.521671436497996" lon="-0.31787850271620877"><ele>3.0</ele><time>2026-04-19T18:42:59Z</time></trkpt><trkpt lat="39.5214510833298" lon="-0.3180306254914086"><ele>2.5</ele><time>2026-04-19T18:43:00Z</time></trkpt><trkpt lat="39.521229756969" lon="-0.3181838163427242"><ele>2.0</ele><time>2026-04-19T18:43:01Z</time></trkpt><trkpt lat="39.52100837076864" lon="-0.3183374025884395"><ele>2.0</ele><time>2026-04-19T18:43:02Z</time></trkpt><trkpt lat="39.52078232540491" lon="-0.3184907517030134"><ele>2.0</ele><time>2026-04-19T18:43:03Z</time></trkpt><trkpt lat="39.5205542388503" lon="-0.3186395270233153"><ele>2.0</ele><time>2026-04-19T18:43:04Z</time></trkpt><trkpt lat="39.52032442771498" lon="-0.3187830871395165"><ele>2.0</ele><time>2026-04-19T18:43:05Z</time></trkpt><trkpt lat="39.52009597304542" lon="-0.31891820205571936"><ele>1.5</ele><time>2026-04-19T18:43:06Z</time></trkpt><trkpt lat="39.51985927481025" lon="-0.3190453853764189"><ele>1.0</ele><time>2026-04-19T18:43:07Z</time></trkpt><trkpt lat="39.519636831078955" lon="-0.3191677735904698"><ele>1.5</ele><time>2026-04-19T18:43:08Z</time></trkpt><trkpt lat="39.51940903788064" lon="-0.3192856191852518"><ele>2.0</ele><time>2026-04-19T18:43:09Z</time></trkpt><trkpt lat="39.51918177217006" lon="-0.319401894513067"><ele>2.0</ele><time>2026-04-19T18:43:10Z</time></trkpt><trkpt lat="39.51895355442607" lon="-0.3195141583936524"><ele>2.0</ele><time>2026-04-19T18:43:11Z</time></trkpt><trkpt lat="39.51872303074037" lon="-0.319616881497653"><ele>1.0</ele><time>2026-04-19T18:43:12Z</time></trkpt><trkpt lat="39.518490918367235" lon="-0.3197162773056376"><ele>0.0</ele><time>2026-04-19T18:43:13Z</time></trkpt><trkpt lat="39.518257785854765" lon="-0.31981194017149284"><ele>0.0</ele><time>2026-04-19T18:43:14Z</time></trkpt><trkpt lat="39.51802453266097" lon="-0.31989908358922986"><ele>0.0</ele><time>2026-04-19T18:43:15Z</time></trkpt><trkpt lat="39.51779131076374" lon="-0.31998065726894326"><ele>0.0</ele><time>2026-04-19T18:43:16Z</time></trkpt><trkpt lat="39.51755786440724" lon="-0.3200588082395644"><ele>0.0</ele><time>2026-04-19T18:43:17Z</time></trkpt><trkpt lat="39.517324322614485" lon="-0.3201333887807212"><ele>0.0</ele><time>2026-04-19T18:43:18Z</time></trkpt><trkpt lat="39.51709165126853" lon="-0.32021181903254725"><ele>0.0</ele><time>2026-04-19T18:43:18.999Z</time></trkpt><trkpt lat="39.51686094104107" lon="-0.3202934471939584"><ele>0.5</ele><time>2026-04-19T18:43:19.999Z</time></trkpt><trkpt lat="39.516628597737586" lon="-0.32037358134137506"><ele>1.0</ele><time>2026-04-19T18:43:20.999Z</time></trkpt><trkpt lat="39.51640066846843" lon="-0.3204506706665574"><ele>1.5</ele><time>2026-04-19T18:43:21.999Z</time></trkpt><trkpt lat="39.51617472652442" lon="-0.32054129083825317"><ele>2.0</ele><time>2026-04-19T18:43:22.999Z</time></trkpt><trkpt lat="39.5159518649403" lon="-0.3206322814977105"><ele>2.0</ele><time>2026-04-19T18:43:23.999Z</time></trkpt><trkpt lat="39.51572777047686" lon="-0.32072818604246456"><ele>2.0</ele><time>2026-04-19T18:43:24.999Z</time></trkpt><trkpt lat="39.515504955798484" lon="-0.32082862389396133"><ele>2.0</ele><time>2026-04-19T18:43:25.999Z</time></trkpt><trkpt lat="39.51527966530477" lon="-0.3209299479906873"><ele>2.0</ele><time>2026-04-19T18:43:26.999Z</time></trkpt><trkpt lat="39.51505873823147" lon="-0.321048818363131"><ele>2.0</ele><time>2026-04-19T18:43:27.999Z</time></trkpt><trkpt lat="39.51483704735786" lon="-0.32117178448128075"><ele>2.0</ele><time>2026-04-19T18:43:28.999Z</time></trkpt><trkpt lat="39.514616014445345" lon="-0.32128748868731066"><ele>2.5</ele><time>2026-04-19T18:43:29.999Z</time></trkpt><trkpt lat="39.51439855220871" lon="-0.3214086375711668"><ele>3.0</ele><time>2026-04-19T18:43:30.999Z</time></trkpt><trkpt lat="39.51417921305646" lon="-0.3215398005041609"><ele>3.0</ele><time>2026-04-19T18:43:31.999Z</time></trkpt><trkpt lat="39.513959246289936" lon="-0.3216749984902408"><ele>3.0</ele><time>2026-04-19T18:43:32.999Z</time></trkpt><trkpt lat="39.513740747464155" lon="-0.32182038912854305"><ele>3.5</ele><time>2026-04-19T18:43:33.999Z</time></trkpt><trkpt lat="39.513523901229746" lon="-0.32197066927689355"><ele>4.0</ele><time>2026-04-19T18:43:34.999Z</time></trkpt><trkpt lat="39.51331159254329" lon="-0.32212206662118253"><ele>3.5</ele><time>2026-04-19T18:43:35.999Z</time></trkpt><trkpt lat="39.51310098298103" lon="-0.3222802061082731"><ele>3.0</ele><time>2026-04-19T18:43:36.999Z</time></trkpt><trkpt lat="39.51288905409381" lon="-0.3224385234629638"><ele>3.0</ele><time>2026-04-19T18:43:37.999Z</time></trkpt><trkpt lat="39.512674888074294" lon="-0.3225975716999184"><ele>3.0</ele><time>2026-04-19T18:43:38.999Z</time></trkpt><trkpt lat="39.51246020508754" lon="-0.3227587818351673"><ele>3.0</ele><time>2026-04-19T18:43:39.999Z</time></trkpt><trkpt lat="39.51224374570673" lon="-0.32291916871961496"><ele>3.0</ele><time>2026-04-19T18:43:40.999Z</time></trkpt><trkpt lat="39.51202400884664" lon="-0.3230750532318877"><ele>2.0</ele><time>2026-04-19T18:43:41.999Z</time></trkpt><trkpt lat="39.51180181663585" lon="-0.32323219173126244"><ele>1.0</ele><time>2026-04-19T18:43:42.999Z</time></trkpt><trkpt lat="39.51157781708104" lon="-0.3233894270344854"><ele>1.0</ele><time>2026-04-19T18:43:43.999Z</time></trkpt><trkpt lat="39.51135561663049" lon="-0.32354984626914346"><ele>1.0</ele><time>2026-04-19T18:43:44.999Z</time></trkpt><trkpt lat="39.5111272655428" lon="-0.32370718034838825"><ele>1.0</ele><time>2026-04-19T18:43:45.999Z</time></trkpt><trkpt lat="39.510903359292065" lon="-0.3238625935750625"><ele>1.0</ele><time>2026-04-19T18:43:46.999Z</time></trkpt><trkpt lat="39.51068587488897" lon="-0.3240235597052864"><ele>1.0</ele><time>2026-04-19T18:43:47.999Z</time></trkpt><trkpt lat="39.51046593526138" lon="-0.32417227322428144"><ele>1.0</ele><time>2026-04-19T18:43:48.999Z</time></trkpt><trkpt lat="39.51024522677896" lon="-0.32431760603397325"><ele>2.0</ele><time>2026-04-19T18:43:49.999Z</time></trkpt><trkpt lat="39.510021620766224" lon="-0.3244564263194336"><ele>3.0</ele><time>2026-04-19T18:43:50.999Z</time></trkpt><trkpt lat="39.50979706500873" lon="-0.324593517695364"><ele>2.5</ele><time>2026-04-19T18:43:51.999Z</time></trkpt><trkpt lat="39.509570284313696" lon="-0.3247239366040869"><ele>2.0</ele><time>2026-04-19T18:43:52.999Z</time></trkpt><trkpt lat="39.50934284416665" lon="-0.32484528170924803"><ele>2.0</ele><time>2026-04-19T18:43:53.999Z</time></trkpt><trkpt lat="39.509113439636344" lon="-0.32496217609768885"><ele>2.0</ele><time>2026-04-19T18:43:54.999Z</time></trkpt><trkpt lat="39.50888384349942" lon="-0.32507393090906045"><ele>2.5</ele><time>2026-04-19T18:43:55.999Z</time></trkpt><trkpt lat="39.50865186438915" lon="-0.32518098039660553"><ele>3.0</ele><time>2026-04-19T18:43:56.999Z</time></trkpt><trkpt lat="39.50842035804644" lon="-0.3252809223234159"><ele>3.0</ele><time>2026-04-19T18:43:57.999Z</time></trkpt><trkpt lat="39.50818397908679" lon="-0.32537920936042897"><ele>3.0</ele><time>2026-04-19T18:43:58.999Z</time></trkpt><trkpt lat="39.50794177899615" lon="-0.325473237721686"><ele>2.5</ele><time>2026-04-19T18:43:59.999Z</time></trkpt><trkpt lat="39.50770044483471" lon="-0.32556356013251586"><ele>2.0</ele><time>2026-04-19T18:44:00.999Z</time></trkpt><trkpt lat="39.507455583053726" lon="-0.32564155843745496"><ele>2.0</ele><time>2026-04-19T18:44:01.999Z</time></trkpt><trkpt lat="39.50720959215097" lon="-0.32571506933733635"><ele>2.0</ele><time>2026-04-19T18:44:02.999Z</time></trkpt><trkpt lat="39.50696421639032" lon="-0.3257845362683767"><ele>0.5</ele><time>2026-04-19T18:44:03.999Z</time></trkpt><trkpt lat="39.50671228482528" lon="-0.32585021601550224"><ele>-1.0</ele><time>2026-04-19T18:44:04.999Z</time></trkpt><trkpt lat="39.5064570181164" lon="-0.32590507808975044"><ele>-2.0</ele><time>2026-04-19T18:44:05.999Z</time></trkpt><trkpt lat="39.506199105782486" lon="-0.3259545935160242"><ele>-3.0</ele><time>2026-04-19T18:44:06.999Z</time></trkpt><trkpt lat="39.50594100582306" lon="-0.3259971940850071"><ele>-3.0</ele><time>2026-04-19T18:44:07.999Z</time></trkpt><trkpt lat="39.50568381532674" lon="-0.32603614641995027"><ele>-3.0</ele><time>2026-04-19T18:44:08.999Z</time></trkpt><trkpt lat="39.505427913346956" lon="-0.3260657636590857"><ele>-2.5</ele><time>2026-04-19T18:44:09.999Z</time></trkpt><trkpt lat="39.50516888547597" lon="-0.3260950663496259"><ele>-2.0</ele><time>2026-04-19T18:44:10.999Z</time></trkpt><trkpt lat="39.504912373629146" lon="-0.32611743345068767"><ele>-2.0</ele><time>2026-04-19T18:44:11.999Z</time></trkpt><trkpt lat="39.50465866241646" lon="-0.3261352262643774"><ele>-2.0</ele><time>2026-04-19T18:44:12.999Z</time></trkpt><trkpt lat="39.5044042520094" lon="-0.32614179264509585"><ele>0.5</ele><time>2026-04-19T18:44:13.999Z</time></trkpt><trkpt lat="39.50416131970285" lon="-0.3261437184765673"><ele>3.0</ele><time>2026-04-19T18:44:14.999Z</time></trkpt><trkpt lat="39.503924300407064" lon="-0.32614715621624996"><ele>3.5</ele><time>2026-04-19T18:44:15.999Z</time></trkpt><trkpt lat="39.503688632921275" lon="-0.3261462755175738"><ele>4.0</ele><time>2026-04-19T18:44:16.998Z</time></trkpt><trkpt lat="39.5034551285678" lon="-0.3261365243685031"><ele>4.0</ele><time>2026-04-19T18:44:17.998Z</time></trkpt><trkpt lat="39.50322096314165" lon="-0.3261274724729329"><ele>4.0</ele><time>2026-04-19T18:44:18.998Z</time></trkpt><trkpt lat="39.502988176772234" lon="-0.32611603622072305"><ele>3.0</ele><time>2026-04-19T18:44:19.998Z</time></trkpt><trkpt lat="39.502761247663244" lon="-0.32610361358824175"><ele>2.0</ele><time>2026-04-19T18:44:20.998Z</time></trkpt><trkpt lat="39.50253370383918" lon="-0.32608933986955785"><ele>2.0</ele><time>2026-04-19T18:44:21.998Z</time></trkpt><trkpt lat="39.502308533023744" lon="-0.3260719348710416"><ele>2.0</ele><time>2026-04-19T18:44:22.998Z</time></trkpt><trkpt lat="39.50207663828376" lon="-0.3260577590379341"><ele>1.0</ele><time>2026-04-19T18:44:23.998Z</time></trkpt><trkpt lat="39.50185005137095" lon="-0.32604222649176934"><ele>0.0</ele><time>2026-04-19T18:44:24.998Z</time></trkpt><trkpt lat="39.50162204824727" lon="-0.32602820888341166"><ele>0.0</ele><time>2026-04-19T18:44:25.998Z</time></trkpt><trkpt lat="39.50139308158779" lon="-0.32601665919491774"><ele>0.0</ele><time>2026-04-19T18:44:26.998Z</time></trkpt><trkpt lat="39.501162127773654" lon="-0.32600420642319955"><ele>1.0</ele><time>2026-04-19T18:44:27.998Z</time></trkpt><trkpt lat="39.50092570017418" lon="-0.32599089315933255"><ele>2.0</ele><time>2026-04-19T18:44:28.998Z</time></trkpt><trkpt lat="39.50068172508648" lon="-0.32597859516081534"><ele>2.0</ele><time>2026-04-19T18:44:29.998Z</time></trkpt><trkpt lat="39.50043109409737" lon="-0.32596620494814404"><ele>2.0</ele><time>2026-04-19T18:44:30.998Z</time></trkpt><trkpt lat="39.50017545809466" lon="-0.325953632630596"><ele>2.0</ele><time>2026-04-19T18:44:31.998Z</time></trkpt><trkpt lat="39.499920846811946" lon="-0.32595278737669425"><ele>2.0</ele><time>2026-04-19T18:44:32.998Z</time></trkpt><trkpt lat="39.49965946789008" lon="-0.32597785704102145"><ele>2.5</ele><time>2026-04-19T18:44:33.998Z</time></trkpt><trkpt lat="39.499403624892075" lon="-0.3260116288607113"><ele>3.0</ele><time>2026-04-19T18:44:35Z</time></trkpt><trkpt lat="39.499157149180874" lon="-0.3260301058133469"><ele>3.0</ele><time>2026-04-19T18:44:36Z</time></trkpt><trkpt lat="39.49890626952852" lon="-0.3260780868962384"><ele>3.0</ele><time>2026-04-19T18:44:37Z</time></trkpt><trkpt lat="39.49865683002442" lon="-0.32613809088847096"><ele>2.5</ele><time>2026-04-19T18:44:38Z</time></trkpt><trkpt lat="39.49841183154982" lon="-0.32621577374099175"><ele>2.0</ele><time>2026-04-19T18:44:39Z</time></trkpt><trkpt lat="39.49817010022004" lon="-0.32631240070951756"><ele>2.0</ele><time>2026-04-19T18:44:40Z</time></trkpt><trkpt lat="39.49792198481968" lon="-0.3263909115022721"><ele>2.0</ele><time>2026-04-19T18:44:41Z</time></trkpt><trkpt lat="39.49768364752913" lon="-0.3264970710703971"><ele>3.0</ele><time>2026-04-19T18:44:42Z</time></trkpt><trkpt lat="39.49744975141719" lon="-0.3266207267512522"><ele>4.0</ele><time>2026-04-19T18:44:43Z</time></trkpt><trkpt lat="39.4972201096529" lon="-0.32675877497353845"><ele>3.0</ele><time>2026-04-19T18:44:44Z</time></trkpt><trkpt lat="39.496993344859995" lon="-0.3269109767331392"><ele>2.0</ele><time>2026-04-19T18:44:45Z</time></trkpt><trkpt lat="39.49676694898019" lon="-0.3270740602943928"><ele>3.0</ele><time>2026-04-19T18:44:46Z</time></trkpt><trkpt lat="39.49654871046324" lon="-0.3272490333126844"><ele>4.0</ele><time>2026-04-19T18:44:47Z</time></trkpt><trkpt lat="39.49633215016927" lon="-0.327428210489211"><ele>3.5</ele><time>2026-04-19T18:44:48Z</time></trkpt><trkpt lat="39.496124328247554" lon="-0.3276250707566779"><ele>3.0</ele><time>2026-04-19T18:44:49Z</time></trkpt><trkpt lat="39.49592914801293" lon="-0.32784133320020836"><ele>2.5</ele><time>2026-04-19T18:44:50Z</time></trkpt><trkpt lat="39.495740305266466" lon="-0.328060316871717"><ele>2.0</ele><time>2026-04-19T18:44:51Z</time></trkpt><trkpt lat="39.49555993475575" lon="-0.3282887119112027"><ele>1.5</ele><time>2026-04-19T18:44:52Z</time></trkpt><trkpt lat="39.495386936260395" lon="-0.32853052459926413"><ele>1.0</ele><time>2026-04-19T18:44:53Z</time></trkpt><trkpt lat="39.49521772691081" lon="-0.3287818893376969"><ele>2.0</ele><time>2026-04-19T18:44:54Z</time></trkpt><trkpt lat="39.49505776048374" lon="-0.329033556269091"><ele>3.0</ele><time>2026-04-19T18:44:55Z</time></trkpt><trkpt lat="39.49490408222323" lon="-0.32928932206397016"><ele>3.0</ele><time>2026-04-19T18:44:56Z</time></trkpt><trkpt lat="39.49476225767919" lon="-0.32954981353917484"><ele>3.0</ele><time>2026-04-19T18:44:57Z</time></trkpt><trkpt lat="39.494628533671566" lon="-0.3298150803533532"><ele>2.0</ele><time>2026-04-19T18:44:58Z</time></trkpt><trkpt lat="39.49449351647276" lon="-0.3300874230211762"><ele>1.0</ele><time>2026-04-19T18:44:59Z</time></trkpt><trkpt lat="39.494360935182705" lon="-0.3303571737557086"><ele>1.0</ele><time>2026-04-19T18:45:00Z</time></trkpt><trkpt lat="39.49424084838274" lon="-0.3306081461617974"><ele>1.0</ele><time>2026-04-19T18:45:01Z</time></trkpt><trkpt lat="39.494115414610846" lon="-0.3308550636110651"><ele>1.0</ele><time>2026-04-19T18:45:02Z</time></trkpt><trkpt lat="39.49398889123174" lon="-0.33110110074298404"><ele>1.0</ele><time>2026-04-19T18:45:03Z</time></trkpt><trkpt lat="39.49386829210909" lon="-0.3313390598222401"><ele>1.0</ele><time>2026-04-19T18:45:04Z</time></trkpt><trkpt lat="39.493745573994964" lon="-0.3315762701643551"><ele>1.0</ele><time>2026-04-19T18:45:05Z</time></trkpt><trkpt lat="39.49362494100913" lon="-0.3318144968214473"><ele>1.0</ele><time>2026-04-19T18:45:06Z</time></trkpt><trkpt lat="39.4934997437344" lon="-0.33205807458277714"><ele>1.0</ele><time>2026-04-19T18:45:07Z</time></trkpt><trkpt lat="39.49337697326868" lon="-0.33230218768745995"><ele>0.5</ele><time>2026-04-19T18:45:08Z</time></trkpt><trkpt lat="39.4932523456924" lon="-0.33254983567603064"><ele>0.0</ele><time>2026-04-19T18:45:09Z</time></trkpt><trkpt lat="39.49312558537007" lon="-0.332800101428839"><ele>0.0</ele><time>2026-04-19T18:45:10Z</time></trkpt><trkpt lat="39.492996238328274" lon="-0.3330483371159462"><ele>0.0</ele><time>2026-04-19T18:45:11Z</time></trkpt><trkpt lat="39.49286597560922" lon="-0.3332994380374897"><ele>0.0</ele><time>2026-04-19T18:45:12Z</time></trkpt><trkpt lat="39.49273736385448" lon="-0.3335501626714679"><ele>0.0</ele><time>2026-04-19T18:45:13Z</time></trkpt><trkpt lat="39.492608239885" lon="-0.33379704782898284"><ele>-0.5</ele><time>2026-04-19T18:45:14Z</time></trkpt><trkpt lat="39.492480967554236" lon="-0.33404309284710576"><ele>-1.0</ele><time>2026-04-19T18:45:15Z</time></trkpt><trkpt lat="39.492353805467836" lon="-0.3342904108291345"><ele>-1.0</ele><time>2026-04-19T18:45:16Z</time></trkpt><trkpt lat="39.49222942952086" lon="-0.334536440528157"><ele>-1.0</ele><time>2026-04-19T18:45:17Z</time></trkpt><trkpt lat="39.49210577118796" lon="-0.3347752647261341"><ele>-1.0</ele><time>2026-04-19T18:45:18Z</time></trkpt><trkpt lat="39.49198312079765" lon="-0.3350162531953881"><ele>0.5</ele><time>2026-04-19T18:45:19Z</time></trkpt><trkpt lat="39.49186159046679" lon="-0.33525952962332395"><ele>2.0</ele><time>2026-04-19T18:45:20Z</time></trkpt><trkpt lat="39.491736654921034" lon="-0.33550625215960755"><ele>2.5</ele><time>2026-04-19T18:45:20.999Z</time></trkpt><trkpt lat="39.49160730091202" lon="-0.3357562988929275"><ele>3.0</ele><time>2026-04-19T18:45:21.999Z</time></trkpt><trkpt lat="39.491475357961804" lon="-0.33600837033299963"><ele>3.0</ele><time>2026-04-19T18:45:22.999Z</time></trkpt><trkpt lat="39.49134018774494" lon="-0.33625808251577916"><ele>3.0</ele><time>2026-04-19T18:45:23.999Z</time></trkpt><trkpt lat="39.49120377894955" lon="-0.33650353606499384"><ele>3.0</ele><time>2026-04-19T18:45:24.999Z</time></trkpt><trkpt lat="39.49106790676374" lon="-0.3367376233863865"><ele>3.0</ele><time>2026-04-19T18:45:25.999Z</time></trkpt><trkpt lat="39.49093209394196" lon="-0.33696345880592904"><ele>3.0</ele><time>2026-04-19T18:45:26.999Z</time></trkpt><trkpt lat="39.49079450241328" lon="-0.33718384490496633"><ele>3.5</ele><time>2026-04-19T18:45:27.999Z</time></trkpt><trkpt lat="39.490651514832145" lon="-0.3374103163609383"><ele>4.0</ele><time>2026-04-19T18:45:28.999Z</time></trkpt><trkpt lat="39.49050825806071" lon="-0.3376362047681219"><ele>3.6666666666666665</ele><time>2026-04-19T18:45:29.999Z</time></trkpt><trkpt lat="39.49036239217629" lon="-0.3378589689183011"><ele>3.333333333333333</ele><time>2026-04-19T18:45:30.999Z</time></trkpt><trkpt lat="39.49022273850594" lon="-0.33807977298849407"><ele>3.0</ele><time>2026-04-19T18:45:31.999Z</time></trkpt><trkpt lat="39.490082543048025" lon="-0.33830232628558415"><ele>2.6666666666666665</ele><time>2026-04-19T18:45:32.999Z</time></trkpt><trkpt lat="39.48994061669488" lon="-0.33851876751732307"><ele>2.333333333333333</ele><time>2026-04-19T18:45:33.999Z</time></trkpt><trkpt lat="39.489795166529234" lon="-0.3387370264656446"><ele>2.0</ele><time>2026-04-19T18:45:34.999Z</time></trkpt><trkpt lat="39.48965478881799" lon="-0.33895737565464235"><ele>2.0</ele><time>2026-04-19T18:45:35.999Z</time></trkpt><trkpt lat="39.48951817262039" lon="-0.33916937205759484"><ele>2.0</ele><time>2026-04-19T18:45:36.999Z</time></trkpt><trkpt lat="39.48938221943653" lon="-0.3393774610190102"><ele>2.0</ele><time>2026-04-19T18:45:37.999Z</time></trkpt><trkpt lat="39.48924645453197" lon="-0.33959530202657384"><ele>2.0</ele><time>2026-04-19T18:45:38.999Z</time></trkpt><trkpt lat="39.48910941625446" lon="-0.3398126335007178"><ele>2.0</ele><time>2026-04-19T18:45:39.999Z</time></trkpt><trkpt lat="39.48896702514926" lon="-0.3400307691129265"><ele>2.0</ele><time>2026-04-19T18:45:40.999Z</time></trkpt><trkpt lat="39.48882943665179" lon="-0.34024118619112653"><ele>2.333333333333333</ele><time>2026-04-19T18:45:41.999Z</time></trkpt><trkpt lat="39.48869182051564" lon="-0.3404498611051633"><ele>2.6666666666666665</ele><time>2026-04-19T18:45:42.999Z</time></trkpt><trkpt lat="39.48855545771305" lon="-0.34066327302331967"><ele>3.0</ele><time>2026-04-19T18:45:43.999Z</time></trkpt><trkpt lat="39.488423850601464" lon="-0.3408749921896759"><ele>3.0</ele><time>2026-04-19T18:45:44.999Z</time></trkpt><trkpt lat="39.48828959605321" lon="-0.3410896216726913"><ele>3.0</ele><time>2026-04-19T18:45:45.999Z</time></trkpt><trkpt lat="39.48815271704731" lon="-0.34129616150548336"><ele>3.0</ele><time>2026-04-19T18:45:46.999Z</time></trkpt><trkpt lat="39.48801785831614" lon="-0.34148811458454764"><ele>3.0</ele><time>2026-04-19T18:45:47.999Z</time></trkpt><trkpt lat="39.48788725529302" lon="-0.34166945498593543"><ele>3.0</ele><time>2026-04-19T18:45:48.999Z</time></trkpt><trkpt lat="39.487766245665526" lon="-0.3418582889070971"><ele>3.0</ele><time>2026-04-19T18:45:49.999Z</time></trkpt><trkpt lat="39.487648142088105" lon="-0.34203326647827675"><ele>3.0</ele><time>2026-04-19T18:45:50.999Z</time></trkpt><trkpt lat="39.48753046986844" lon="-0.3422082105409181"><ele>3.0</ele><time>2026-04-19T18:45:51.999Z</time></trkpt><trkpt lat="39.48741248072263" lon="-0.3423883872229598"><ele>3.0</ele><time>2026-04-19T18:45:52.999Z</time></trkpt><trkpt lat="39.487290211451956" lon="-0.3425797563744881"><ele>3.0</ele><time>2026-04-19T18:45:53.999Z</time></trkpt><trkpt lat="39.48716442389295" lon="-0.34277411663626445"><ele>3.0</ele><time>2026-04-19T18:45:54.999Z</time></trkpt><trkpt lat="39.48703836081772" lon="-0.3429694312454358"><ele>3.0</ele><time>2026-04-19T18:45:55.999Z</time></trkpt><trkpt lat="39.486918626905265" lon="-0.34315876523199784"><ele>3.666666666666667</ele><time>2026-04-19T18:45:56.999Z</time></trkpt><trkpt lat="39.48680365765306" lon="-0.34334089698143816"><ele>4.333333333333334</ele><time>2026-04-19T18:45:57.999Z</time></trkpt><trkpt lat="39.4866859917703" lon="-0.3435225748794039"><ele>5.0</ele><time>2026-04-19T18:45:58.999Z</time></trkpt><trkpt lat="39.486568934902" lon="-0.34370146013278285"><ele>4.666666666666667</ele><time>2026-04-19T18:45:59.999Z</time></trkpt><trkpt lat="39.48643744533929" lon="-0.34389783025736914"><ele>4.333333333333333</ele><time>2026-04-19T18:46:00.999Z</time></trkpt><trkpt lat="39.48630788514215" lon="-0.344105692445577"><ele>4.0</ele><time>2026-04-19T18:46:01.999Z</time></trkpt><trkpt lat="39.486175602642376" lon="-0.34430645491697054"><ele>4.0</ele><time>2026-04-19T18:46:02.999Z</time></trkpt><trkpt lat="39.48604145630889" lon="-0.34450833469803765"><ele>4.0</ele><time>2026-04-19T18:46:03.999Z</time></trkpt><trkpt lat="39.4859125583539" lon="-0.34470309268658883"><ele>4.0</ele><time>2026-04-19T18:46:04.999Z</time></trkpt><trkpt lat="39.485786327102616" lon="-0.34489337832938666"><ele>4.333333333333333</ele><time>2026-04-19T18:46:05.999Z</time></trkpt><trkpt lat="39.48565745007333" lon="-0.3450879864824704"><ele>4.666666666666667</ele><time>2026-04-19T18:46:06.999Z</time></trkpt><trkpt lat="39.485533530518154" lon="-0.3452846529905582"><ele>5.0</ele><time>2026-04-19T18:46:07.999Z</time></trkpt><trkpt lat="39.485409686213266" lon="-0.3454815857330348"><ele>5.0</ele><time>2026-04-19T18:46:08.999Z</time></trkpt><trkpt lat="39.48528446792742" lon="-0.3456810369427846"><ele>5.0</ele><time>2026-04-19T18:46:09.999Z</time></trkpt><trkpt lat="39.48515695450075" lon="-0.3458797714298213"><ele>5.0</ele><time>2026-04-19T18:46:10.999Z</time></trkpt><trkpt lat="39.48502923042853" lon="-0.34607619926784067"><ele>5.0</ele><time>2026-04-19T18:46:11.999Z</time></trkpt><trkpt lat="39.48490343830997" lon="-0.34627624681206354"><ele>5.0</ele><time>2026-04-19T18:46:12.999Z</time></trkpt><trkpt lat="39.484775977795" lon="-0.34647592143443867"><ele>5.0</ele><time>2026-04-19T18:46:13.999Z</time></trkpt><trkpt lat="39.48464465603119" lon="-0.34667328537731473"><ele>5.0</ele><time>2026-04-19T18:46:14.999Z</time></trkpt><trkpt lat="39.48451802617925" lon="-0.3468718272147403"><ele>5.0</ele><time>2026-04-19T18:46:15.999Z</time></trkpt><trkpt lat="39.48439389371076" lon="-0.34706801128316167"><ele>5.0</ele><time>2026-04-19T18:46:16.999Z</time></trkpt><trkpt lat="39.48427150337733" lon="-0.3472608550835073"><ele>5.0</ele><time>2026-04-19T18:46:17.998Z</time></trkpt><trkpt lat="39.48415547411505" lon="-0.3474396189483475"><ele>5.0</ele><time>2026-04-19T18:46:18.998Z</time></trkpt><trkpt lat="39.484050719931616" lon="-0.3476033933244069"><ele>5.0</ele><time>2026-04-19T18:46:19.998Z</time></trkpt><trkpt lat="39.483945941558055" lon="-0.3477635692820702"><ele>5.0</ele><time>2026-04-19T18:46:20.998Z</time></trkpt><trkpt lat="39.48384290451599" lon="-0.3479264754725281"><ele>5.0</ele><time>2026-04-19T18:46:21.998Z</time></trkpt><trkpt lat="39.48374800437948" lon="-0.3480742385929217"><ele>5.0</ele><time>2026-04-19T18:46:22.998Z</time></trkpt><trkpt lat="39.48365762401076" lon="-0.3482177920368682"><ele>5.5</ele><time>2026-04-19T18:46:23.998Z</time></trkpt><trkpt lat="39.48356068355549" lon="-0.3483690504951358"><ele>6.0</ele><time>2026-04-19T18:46:24.998Z</time></trkpt><trkpt lat="39.48346785828229" lon="-0.3485096307290073"><ele>6.5</ele><time>2026-04-19T18:46:25.998Z</time></trkpt><trkpt lat="39.483381622061664" lon="-0.3486412529049711"><ele>7.0</ele><time>2026-04-19T18:46:26.998Z</time></trkpt><trkpt lat="39.483297863384" lon="-0.3487730288444539"><ele>6.25</ele><time>2026-04-19T18:46:27.998Z</time></trkpt><trkpt lat="39.48320512899601" lon="-0.34891832569573356"><ele>5.5</ele><time>2026-04-19T18:46:28.998Z</time></trkpt><trkpt lat="39.48312135774908" lon="-0.3490642082277116"><ele>4.75</ele><time>2026-04-19T18:46:29.998Z</time></trkpt><trkpt lat="39.483026926540184" lon="-0.34920243160838904"><ele>4.0</ele><time>2026-04-19T18:46:30.998Z</time></trkpt><trkpt lat="39.48293861965638" lon="-0.34933576549882744"><ele>4.5</ele><time>2026-04-19T18:46:31.998Z</time></trkpt><trkpt lat="39.482852020133116" lon="-0.34946965710332645"><ele>5.0</ele><time>2026-04-19T18:46:32.998Z</time></trkpt><trkpt lat="39.48277611655588" lon="-0.34959674466989854"><ele>5.5</ele><time>2026-04-19T18:46:33.998Z</time></trkpt><trkpt lat="39.48270168770428" lon="-0.3497458175198127"><ele>6.0</ele><time>2026-04-19T18:46:34.998Z</time></trkpt><trkpt lat="39.48261460003709" lon="-0.349846102111679"><ele>6.25</ele><time>2026-04-19T18:46:35.998Z</time></trkpt><trkpt lat="39.482535831875396" lon="-0.3499710616007815"><ele>6.5</ele><time>2026-04-19T18:46:36.998Z</time></trkpt><trkpt lat="39.48246269806546" lon="-0.35009023886605417"><ele>6.75</ele><time>2026-04-19T18:46:37.998Z</time></trkpt><trkpt lat="39.482393152221135" lon="-0.35020613932319766"><ele>7.0</ele><time>2026-04-19T18:46:38.998Z</time></trkpt><trkpt lat="39.482313732173175" lon="-0.350319248346727"><ele>7.0</ele><time>2026-04-19T18:46:39.998Z</time></trkpt><trkpt lat="39.482232088738954" lon="-0.3504480958379369"><ele>7.0</ele><time>2026-04-19T18:46:41Z</time></trkpt><trkpt lat="39.48213614708731" lon="-0.35058841602657975"><ele>7.0</ele><time>2026-04-19T18:46:42Z</time></trkpt><trkpt lat="39.48204888354883" lon="-0.35071329248172894"><ele>7.0</ele><time>2026-04-19T18:46:43Z</time></trkpt><trkpt lat="39.481945413048436" lon="-0.35086920390925425"><ele>7.0</ele><time>2026-04-19T18:46:44Z</time></trkpt><trkpt lat="39.48184801098131" lon="-0.3510062391029224"><ele>7.0</ele><time>2026-04-19T18:46:45Z</time></trkpt><trkpt lat="39.481748512251116" lon="-0.35114619535680874"><ele>7.0</ele><time>2026-04-19T18:46:46Z</time></trkpt><trkpt lat="39.4816531374069" lon="-0.3512753831744321"><ele>7.0</ele><time>2026-04-19T18:46:47Z</time></trkpt><trkpt lat="39.481555208178754" lon="-0.3514148254812068"><ele>6.75</ele><time>2026-04-19T18:46:48Z</time></trkpt><trkpt lat="39.48145606850746" lon="-0.3515439430479044"><ele>6.5</ele><time>2026-04-19T18:46:49Z</time></trkpt><trkpt lat="39.481366730126304" lon="-0.35167531546159303"><ele>6.25</ele><time>2026-04-19T18:46:50Z</time></trkpt><trkpt lat="39.48126913637847" lon="-0.35180197746043845"><ele>6.0</ele><time>2026-04-19T18:46:51Z</time></trkpt><trkpt lat="39.48117833492285" lon="-0.35194261606388716"><ele>5.75</ele><time>2026-04-19T18:46:52Z</time></trkpt><trkpt lat="39.4810881749347" lon="-0.352079270222631"><ele>5.5</ele><time>2026-04-19T18:46:53Z</time></trkpt><trkpt lat="39.48100433465602" lon="-0.3522147650030296"><ele>5.25</ele><time>2026-04-19T18:46:54Z</time></trkpt><trkpt lat="39.48092173613134" lon="-0.35235472267512935"><ele>5.0</ele><time>2026-04-19T18:46:55Z</time></trkpt><trkpt lat="39.480830556100145" lon="-0.35249263522800667"><ele>6.5</ele><time>2026-04-19T18:46:56Z</time></trkpt><trkpt lat="39.48059096764544" lon="-0.3529692957091175"><ele>8.0</ele><time>2026-04-19T18:46:57Z</time></trkpt><trkpt lat="39.480463064159295" lon="-0.353173160606657"><ele>8.25</ele><time>2026-04-19T18:46:58Z</time></trkpt><trkpt lat="39.48036107118064" lon="-0.3531817361721341"><ele>8.5</ele><time>2026-04-19T18:46:59Z</time></trkpt><trkpt lat="39.48028154009867" lon="-0.3533050730821062"><ele>8.75</ele><time>2026-04-19T18:47:00Z</time></trkpt><trkpt lat="39.48014695185499" lon="-0.35346080450925893"><ele>9.0</ele><time>2026-04-19T18:47:01Z</time></trkpt><trkpt lat="39.48004210608717" lon="-0.35357572104087975"><ele>9.0</ele><time>2026-04-19T18:47:02Z</time></trkpt><trkpt lat="39.479925436628804" lon="-0.3536818398132003"><ele>9.0</ele><time>2026-04-19T18:47:03Z</time></trkpt><trkpt lat="39.47981264296112" lon="-0.3537776107352947"><ele>9.0</ele><time>2026-04-19T18:47:04Z</time></trkpt><trkpt lat="39.47969885414143" lon="-0.3538820973077493"><ele>9.0</ele><time>2026-04-19T18:47:05Z</time></trkpt><trkpt lat="39.47958505101529" lon="-0.35397818635233813"><ele>12.25</ele><time>2026-04-19T18:47:06Z</time></trkpt><trkpt lat="39.47946879658838" lon="-0.3540673401203896"><ele>15.5</ele><time>2026-04-19T18:47:07Z</time></trkpt><trkpt lat="39.479349001621316" lon="-0.35415145553519806"><ele>18.75</ele><time>2026-04-19T18:47:08Z</time></trkpt><trkpt lat="39.4792296183681" lon="-0.35423025603229075"><ele>22.0</ele><time>2026-04-19T18:47:09Z</time></trkpt><trkpt lat="39.47910865982415" lon="-0.35430764659487474"><ele>22.0</ele><time>2026-04-19T18:47:10Z</time></trkpt><trkpt lat="39.47899066370834" lon="-0.35439072778478176"><ele>22.0</ele><time>2026-04-19T18:47:11Z</time></trkpt><trkpt lat="39.47887325822728" lon="-0.35444837987645783"><ele>22.0</ele><time>2026-04-19T18:47:12Z</time></trkpt><trkpt lat="39.478757695908676" lon="-0.35450999549111306"><ele>22.0</ele><time>2026-04-19T18:47:13Z</time></trkpt><trkpt lat="39.478647402123755" lon="-0.35456766661286054"><ele>21.25</ele><time>2026-04-19T18:47:14Z</time></trkpt><trkpt lat="39.47853902866056" lon="-0.35462398035370996"><ele>20.5</ele><time>2026-04-19T18:47:14.999Z</time></trkpt><trkpt lat="39.478436525675995" lon="-0.3546790681826971"><ele>19.75</ele><time>2026-04-19T18:47:15.999Z</time></trkpt><trkpt lat="39.47832469738416" lon="-0.354740863496899"><ele>19.0</ele><time>2026-04-19T18:47:16.999Z</time></trkpt><trkpt lat="39.478207598069545" lon="-0.35478486632256306"><ele>19.0</ele><time>2026-04-19T18:47:17.999Z</time></trkpt><trkpt lat="39.47811398489807" lon="-0.3548261111541658"><ele>19.0</ele><time>2026-04-19T18:47:18.999Z</time></trkpt><trkpt lat="39.47801635940424" lon="-0.3548828463773372"><ele>19.0</ele><time>2026-04-19T18:47:19.999Z</time></trkpt><trkpt lat="39.477932871723524" lon="-0.35490687788163483"><ele>19.0</ele><time>2026-04-19T18:47:20.999Z</time></trkpt><trkpt lat="39.4778551082888" lon="-0.3549307533188392"><ele>19.0</ele><time>2026-04-19T18:47:21.999Z</time></trkpt><trkpt lat="39.47777560474118" lon="-0.35496854186610854"><ele>19.0</ele><time>2026-04-19T18:47:22.999Z</time></trkpt><trkpt lat="39.47767205732522" lon="-0.35502720920400077"><ele>19.0</ele><time>2026-04-19T18:47:23.999Z</time></trkpt><trkpt lat="39.47756652262731" lon="-0.35508144040622813"><ele>19.0</ele><time>2026-04-19T18:47:24.999Z</time></trkpt><trkpt lat="39.477463861939825" lon="-0.3551370613640006"><ele>19.0</ele><time>2026-04-19T18:47:25.999Z</time></trkpt><trkpt lat="39.47736630947149" lon="-0.35518545624479586"><ele>19.0</ele><time>2026-04-19T18:47:26.999Z</time></trkpt><trkpt lat="39.47728022108564" lon="-0.355229696896931"><ele>19.0</ele><time>2026-04-19T18:47:27.999Z</time></trkpt><trkpt lat="39.47714400935824" lon="-0.3552874473640397"><ele>19.0</ele><time>2026-04-19T18:47:28.999Z</time></trkpt><trkpt lat="39.477047748414336" lon="-0.35534541500152816"><ele>19.0</ele><time>2026-04-19T18:47:30.999Z</time></trkpt><trkpt lat="39.476971473438475" lon="-0.355379320083506"><ele>19.0</ele><time>2026-04-19T18:47:31.999Z</time></trkpt><trkpt lat="39.47690380646431" lon="-0.3554141471598005"><ele>19.0</ele><time>2026-04-19T18:47:37.999Z</time></trkpt><trkpt lat="39.4768470981629" lon="-0.3554514912559993"><ele>18.4</ele><time>2026-04-19T18:48:00.999Z</time></trkpt><trkpt lat="39.476752000427076" lon="-0.35552245726543036"><ele>17.799999999999997</ele><time>2026-04-19T18:48:02.999Z</time></trkpt><trkpt lat="39.47667283028102" lon="-0.3556089869656954"><ele>17.200000000000003</ele><time>2026-04-19T18:48:04.999Z</time></trkpt><trkpt lat="39.47661069033629" lon="-0.3557042354738299"><ele>16.6</ele><time>2026-04-19T18:48:06.999Z</time></trkpt><trkpt lat="39.47653978568739" lon="-0.355834784455388"><ele>16.0</ele><time>2026-04-19T18:48:08.999Z</time></trkpt><trkpt lat="39.47645233646117" lon="-0.35595969529380117"><ele>15.999999999999998</ele><time>2026-04-19T18:48:10.999Z</time></trkpt><trkpt lat="39.4763358576438" lon="-0.3560280604885382"><ele>16.0</ele><time>2026-04-19T18:48:12.999Z</time></trkpt><trkpt lat="39.476258555494965" lon="-0.35603580493458065"><ele>16.0</ele><time>2026-04-19T18:48:13.999Z</time></trkpt><trkpt lat="39.476193394273125" lon="-0.3560273677098763"><ele>16.0</ele><time>2026-04-19T18:48:14.998Z</time></trkpt><trkpt lat="39.476134429579936" lon="-0.35599086224112775"><ele>15.999999999999998</ele><time>2026-04-19T18:48:15.998Z</time></trkpt><trkpt lat="39.47605001398438" lon="-0.3559234520500967"><ele>16.0</ele><time>2026-04-19T18:48:17.998Z</time></trkpt><trkpt lat="39.47599877072117" lon="-0.3558248984839798"><ele>15.714285714285714</ele><time>2026-04-19T18:48:19.998Z</time></trkpt><trkpt lat="39.47597672036471" lon="-0.3557429382813245"><ele>15.428571428571427</ele><time>2026-04-19T18:48:23.998Z</time></trkpt><trkpt lat="39.475965634041295" lon="-0.3556360539050736"><ele>15.142857142857142</ele><time>2026-04-19T18:48:50Z</time></trkpt><trkpt lat="39.47596028266087" lon="-0.35553161452843723"><ele>14.857142857142858</ele><time>2026-04-19T18:48:51Z</time></trkpt><trkpt lat="39.47597378822608" lon="-0.3554386186167172"><ele>14.571428571428571</ele><time>2026-04-19T18:48:52Z</time></trkpt><trkpt lat="39.47600637696243" lon="-0.35535249003939573"><ele>14.285714285714285</ele><time>2026-04-19T18:48:53Z</time></trkpt><trkpt lat="39.476027457346675" lon="-0.3552681684397782"><ele>14.0</ele><time>2026-04-19T18:48:54Z</time></trkpt><trkpt lat="39.476009268128784" lon="-0.3551540148125829"><ele>14.000000000000002</ele><time>2026-04-19T18:48:55Z</time></trkpt><trkpt lat="39.475976008614346" lon="-0.35508183794001824"><ele>14.0</ele><time>2026-04-19T18:48:56Z</time></trkpt><trkpt lat="39.47595110865334" lon="-0.35494381356236926"><ele>14.0</ele><time>2026-04-19T18:48:58Z</time></trkpt><trkpt lat="39.47591759792345" lon="-0.3548188587884794"><ele>14.0</ele><time>2026-04-19T18:49:00Z</time></trkpt><trkpt lat="39.47589163028902" lon="-0.354737956355088"><ele>14.000000000000002</ele><time>2026-04-19T18:49:02Z</time></trkpt><trkpt lat="39.47586636085069" lon="-0.35464810339825126"><ele>14.0</ele><time>2026-04-19T18:49:04Z</time></trkpt><trkpt lat="39.4758198049862" lon="-0.3544982807697923"><ele>14.0</ele><time>2026-04-19T18:49:06Z</time></trkpt><trkpt lat="39.47579744987214" lon="-0.354415044613103"><ele>13.999999999999998</ele><time>2026-04-19T18:49:07Z</time></trkpt><trkpt lat="39.475752197372834" lon="-0.3542516350643015"><ele>13.999999999999998</ele><time>2026-04-19T18:49:09Z</time></trkpt><trkpt lat="39.47572027717668" lon="-0.35414823849986393"><ele>14.0</ele><time>2026-04-19T18:49:10Z</time></trkpt><trkpt lat="39.47568858873704" lon="-0.3540349002077496"><ele>14.0</ele><time>2026-04-19T18:49:11Z</time></trkpt><trkpt lat="39.47565206540352" lon="-0.3539152295160135"><ele>14.2</ele><time>2026-04-19T18:49:12Z</time></trkpt><trkpt lat="39.475621585511114" lon="-0.3538083054621688"><ele>14.399999999999999</ele><time>2026-04-19T18:49:13Z</time></trkpt><trkpt lat="39.47558707417758" lon="-0.35369234094784036"><ele>14.6</ele><time>2026-04-19T18:49:14Z</time></trkpt><trkpt lat="39.47555412222964" lon="-0.353576575749824"><ele>14.8</ele><time>2026-04-19T18:49:15Z</time></trkpt><trkpt lat="39.475518283142264" lon="-0.35345171698233335"><ele>15.0</ele><time>2026-04-19T18:49:16Z</time></trkpt><trkpt lat="39.47548222783591" lon="-0.3533243637724257"><ele>15.0</ele><time>2026-04-19T18:49:17Z</time></trkpt><trkpt lat="39.47544824472296" lon="-0.3532018864853349"><ele>15.0</ele><time>2026-04-19T18:49:18Z</time></trkpt><trkpt lat="39.47540958520561" lon="-0.35308456110593556"><ele>15.0</ele><time>2026-04-19T18:49:19Z</time></trkpt><trkpt lat="39.475371009522185" lon="-0.35297907246716725"><ele>15.0</ele><time>2026-04-19T18:49:20Z</time></trkpt><trkpt lat="39.475330693859696" lon="-0.35286291080933924"><ele>15.0</ele><time>2026-04-19T18:49:21Z</time></trkpt><trkpt lat="39.475281283724385" lon="-0.3527541681185202"><ele>15.0</ele><time>2026-04-19T18:49:22Z</time></trkpt><trkpt lat="39.4752275955322" lon="-0.35264497643598286"><ele>15.0</ele><time>2026-04-19T18:49:23Z</time></trkpt><trkpt lat="39.47518557911566" lon="-0.3525366545501465"><ele>15.0</ele><time>2026-04-19T18:49:24Z</time></trkpt><trkpt lat="39.47516032493359" lon="-0.3524223912473094"><ele>15.0</ele><time>2026-04-19T18:49:25Z</time></trkpt><trkpt lat="39.4751429668286" lon="-0.3522964606516747"><ele>15.0</ele><time>2026-04-19T18:49:25.999Z</time></trkpt><trkpt lat="39.475130516512564" lon="-0.3521645194333626"><ele>14.6</ele><time>2026-04-19T18:49:26.999Z</time></trkpt><trkpt lat="39.475111180971574" lon="-0.35201075066308457"><ele>14.2</ele><time>2026-04-19T18:49:27.999Z</time></trkpt><trkpt lat="39.47508523955736" lon="-0.3518894253154175"><ele>13.8</ele><time>2026-04-19T18:49:28.999Z</time></trkpt><trkpt lat="39.47506548872762" lon="-0.3517863802102139"><ele>13.4</ele><time>2026-04-19T18:49:29.999Z</time></trkpt><trkpt lat="39.47504171030205" lon="-0.3516918997243021"><ele>13.0</ele><time>2026-04-19T18:49:30.999Z</time></trkpt><trkpt lat="39.47501542339232" lon="-0.35159994053150445"><ele>12.999999999999998</ele><time>2026-04-19T18:49:31.999Z</time></trkpt><trkpt lat="39.474979387542376" lon="-0.35148845779629073"><ele>13.0</ele><time>2026-04-19T18:49:32.999Z</time></trkpt><trkpt lat="39.474944060360315" lon="-0.35138150573396165"><ele>13.0</ele><time>2026-04-19T18:49:33.999Z</time></trkpt><trkpt lat="39.47491578276258" lon="-0.3512867845939254"><ele>13.0</ele><time>2026-04-19T18:49:34.999Z</time></trkpt><trkpt lat="39.474884963932205" lon="-0.351195273067138"><ele>12.999999999999998</ele><time>2026-04-19T18:49:35.999Z</time></trkpt><trkpt lat="39.474850219966164" lon="-0.35109650683854754"><ele>13.0</ele><time>2026-04-19T18:49:36.999Z</time></trkpt><trkpt lat="39.4748181700651" lon="-0.350994796301912"><ele>13.4</ele><time>2026-04-19T18:49:37.999Z</time></trkpt><trkpt lat="39.474780230267044" lon="-0.3508781659820851"><ele>13.8</ele><time>2026-04-19T18:49:38.999Z</time></trkpt><trkpt lat="39.47475071433784" lon="-0.3507624117563178"><ele>14.2</ele><time>2026-04-19T18:49:39.999Z</time></trkpt><trkpt lat="39.474709119241176" lon="-0.3506517252248346"><ele>14.6</ele><time>2026-04-19T18:49:40.999Z</time></trkpt><trkpt lat="39.4746792897527" lon="-0.3505258969375121"><ele>15.0</ele><time>2026-04-19T18:49:41.999Z</time></trkpt><trkpt lat="39.4746395228576" lon="-0.35039676049905966"><ele>14.6</ele><time>2026-04-19T18:49:42.999Z</time></trkpt><trkpt lat="39.474602957745645" lon="-0.35028388139512084"><ele>14.2</ele><time>2026-04-19T18:49:43.999Z</time></trkpt><trkpt lat="39.47457020420248" lon="-0.3501742186622017"><ele>13.8</ele><time>2026-04-19T18:49:44.999Z</time></trkpt><trkpt lat="39.47454142401623" lon="-0.35004450754308153"><ele>13.4</ele><time>2026-04-19T18:49:45.999Z</time></trkpt><trkpt lat="39.47450799300525" lon="-0.34991567643078375"><ele>13.0</ele><time>2026-04-19T18:49:46.999Z</time></trkpt><trkpt lat="39.47446210178945" lon="-0.34980363673840115"><ele>13.0</ele><time>2026-04-19T18:49:47.999Z</time></trkpt><trkpt lat="39.474430464978" lon="-0.3496974613984254"><ele>13.0</ele><time>2026-04-19T18:49:48.999Z</time></trkpt><trkpt lat="39.47439652873515" lon="-0.34957383345223464"><ele>13.0</ele><time>2026-04-19T18:49:49.999Z</time></trkpt><trkpt lat="39.47436330360364" lon="-0.34945725966152813"><ele>13.0</ele><time>2026-04-19T18:49:50.999Z</time></trkpt><trkpt lat="39.47432544488508" lon="-0.3493290239388639"><ele>13.0</ele><time>2026-04-19T18:49:51.999Z</time></trkpt><trkpt lat="39.47428602800486" lon="-0.3492052302415997"><ele>13.0</ele><time>2026-04-19T18:49:52.999Z</time></trkpt><trkpt lat="39.47424481097365" lon="-0.3490741374895142"><ele>13.0</ele><time>2026-04-19T18:49:53.999Z</time></trkpt><trkpt lat="39.47419427302019" lon="-0.3489471552796208"><ele>13.0</ele><time>2026-04-19T18:49:54.999Z</time></trkpt><trkpt lat="39.4741595129417" lon="-0.3488296313880557"><ele>13.0</ele><time>2026-04-19T18:49:55.999Z</time></trkpt><trkpt lat="39.47412463094229" lon="-0.3487059248075838"><ele>13.0</ele><time>2026-04-19T18:49:56.999Z</time></trkpt><trkpt lat="39.474089707042715" lon="-0.34859402717823756"><ele>12.833333333333332</ele><time>2026-04-19T18:49:57.999Z</time></trkpt><trkpt lat="39.474066517860194" lon="-0.34849424530112455"><ele>12.666666666666666</ele><time>2026-04-19T18:49:58.999Z</time></trkpt><trkpt lat="39.474032677236906" lon="-0.34840378326506816"><ele>12.5</ele><time>2026-04-19T18:49:59.999Z</time></trkpt><trkpt lat="39.47399901876839" lon="-0.348320897254573"><ele>12.333333333333332</ele><time>2026-04-19T18:50:00.999Z</time></trkpt><trkpt lat="39.47396798177487" lon="-0.348244466784366"><ele>12.166666666666666</ele><time>2026-04-19T18:50:01.999Z</time></trkpt><trkpt lat="39.47386589251188" lon="-0.3481848354319662"><ele>12.0</ele><time>2026-04-19T18:50:02.999Z</time></trkpt><trkpt lat="39.47380058222329" lon="-0.3481250913394876"><ele>12.8</ele><time>2026-04-19T18:50:04.999Z</time></trkpt><trkpt lat="39.4737485475124" lon="-0.34805626495967307"><ele>13.6</ele><time>2026-04-19T18:50:17.999Z</time></trkpt><trkpt lat="39.47362541960298" lon="-0.3481450879712391"><ele>14.400000000000002</ele><time>2026-04-19T18:50:18.999Z</time></trkpt><trkpt lat="39.47349013856693" lon="-0.34816637215345814"><ele>15.200000000000001</ele><time>2026-04-19T18:50:20.999Z</time></trkpt><trkpt lat="39.473409456030666" lon="-0.34818332102054445"><ele>16.0</ele><time>2026-04-19T18:50:21.999Z</time></trkpt><trkpt lat="39.4732593306382" lon="-0.34822184004006845"><ele>15.999999999999998</ele><time>2026-04-19T18:50:23.999Z</time></trkpt><trkpt lat="39.47318505087886" lon="-0.3482396563275551"><ele>16.0</ele><time>2026-04-19T18:50:24.999Z</time></trkpt><trkpt lat="39.473120060608814" lon="-0.34826725664073926"><ele>16.0</ele><time>2026-04-19T18:50:25.999Z</time></trkpt><trkpt lat="39.47305669183815" lon="-0.3482917753026519"><ele>16.0</ele><time>2026-04-19T18:50:26.999Z</time></trkpt><trkpt lat="39.47298616354934" lon="-0.3483218153985194"><ele>15.999999999999998</ele><time>2026-04-19T18:50:27.998Z</time></trkpt><trkpt lat="39.47289088574669" lon="-0.34836217983550233"><ele>16.0</ele><time>2026-04-19T18:50:28.998Z</time></trkpt><trkpt lat="39.472793669494365" lon="-0.34837118301954095"><ele>15.0</ele><time>2026-04-19T18:50:29.998Z</time></trkpt><trkpt lat="39.47271173821046" lon="-0.34841605672194453"><ele>14.000000000000002</ele><time>2026-04-19T18:50:30.998Z</time></trkpt><trkpt lat="39.47261049633537" lon="-0.3484721746506612"><ele>13.0</ele><time>2026-04-19T18:50:31.998Z</time></trkpt><trkpt lat="39.47252647114694" lon="-0.34851180454872155"><ele>12.0</ele><time>2026-04-19T18:50:32.998Z</time></trkpt><trkpt lat="39.47242880876369" lon="-0.3485503007758732"><ele>11.0</ele><time>2026-04-19T18:50:33.998Z</time></trkpt><trkpt lat="39.47233053423367" lon="-0.34858182872886045"><ele>11.0</ele><time>2026-04-19T18:50:34.998Z</time></trkpt><trkpt lat="39.47223873091695" lon="-0.3486201204187152"><ele>11.0</ele><time>2026-04-19T18:50:35.998Z</time></trkpt><trkpt lat="39.47213950259267" lon="-0.34868236355263915"><ele>11.0</ele><time>2026-04-19T18:50:36.998Z</time></trkpt><trkpt lat="39.47203501512105" lon="-0.34871134379002583"><ele>11.0</ele><time>2026-04-19T18:50:37.998Z</time></trkpt><trkpt lat="39.47194997397885" lon="-0.3487333961317695"><ele>11.0</ele><time>2026-04-19T18:50:38.998Z</time></trkpt><trkpt lat="39.47187429735961" lon="-0.34876076447415105"><ele>11.0</ele><time>2026-04-19T18:50:39.998Z</time></trkpt><trkpt lat="39.47178524370803" lon="-0.34879870312522354"><ele>11.0</ele><time>2026-04-19T18:50:40.998Z</time></trkpt><trkpt lat="39.471692523924254" lon="-0.3488280311252945"><ele>11.0</ele><time>2026-04-19T18:50:41.998Z</time></trkpt><trkpt lat="39.4715779679268" lon="-0.34889246463993484"><ele>11.0</ele><time>2026-04-19T18:50:42.998Z</time></trkpt><trkpt lat="39.47148009187768" lon="-0.3489257014292868"><ele>11.0</ele><time>2026-04-19T18:50:43.998Z</time></trkpt><trkpt lat="39.47141058574286" lon="-0.3489787006412128"><ele>11.166666666666666</ele><time>2026-04-19T18:50:44.998Z</time></trkpt><trkpt lat="39.471305597727834" lon="-0.3490011140366679"><ele>11.333333333333332</ele><time>2026-04-19T18:50:45.998Z</time></trkpt><trkpt lat="39.471224028973666" lon="-0.3490286959414252"><ele>11.5</ele><time>2026-04-19T18:50:46.998Z</time></trkpt><trkpt lat="39.47113657558146" lon="-0.3490643371695536"><ele>11.666666666666666</ele><time>2026-04-19T18:50:47.998Z</time></trkpt><trkpt lat="39.47107551875134" lon="-0.34909627453088193"><ele>11.833333333333334</ele><time>2026-04-19T18:50:48.998Z</time></trkpt><trkpt lat="39.47101143903034" lon="-0.3491215180101016"><ele>12.0</ele><time>2026-04-19T18:50:49.998Z</time></trkpt><trkpt lat="39.47092511634325" lon="-0.34915339820843944"><ele>12.0</ele><time>2026-04-19T18:50:50.998Z</time></trkpt><trkpt lat="39.47084762379625" lon="-0.34918770754197964"><ele>12.0</ele><time>2026-04-19T18:50:51.998Z</time></trkpt><trkpt lat="39.47076657504001" lon="-0.3492175293894553"><ele>12.0</ele><time>2026-04-19T18:50:53Z</time></trkpt><trkpt lat="39.47067657766805" lon="-0.34926781207697855"><ele>12.0</ele><time>2026-04-19T18:50:54Z</time></trkpt><trkpt lat="39.47056893098007" lon="-0.3493081061423313"><ele>12.0</ele><time>2026-04-19T18:50:55Z</time></trkpt><trkpt lat="39.47047784900326" lon="-0.34931841095666555"><ele>12.166666666666666</ele><time>2026-04-19T18:50:56Z</time></trkpt><trkpt lat="39.470406951043515" lon="-0.3493710529935649"><ele>12.333333333333332</ele><time>2026-04-19T18:50:57Z</time></trkpt><trkpt lat="39.470316230378664" lon="-0.349411268784067"><ele>12.5</ele><time>2026-04-19T18:50:58Z</time></trkpt><trkpt lat="39.470244020421376" lon="-0.34944321491464964"><ele>12.666666666666666</ele><time>2026-04-19T18:50:59Z</time></trkpt><trkpt lat="39.47017840066775" lon="-0.34947176508820044"><ele>12.833333333333332</ele><time>2026-04-19T18:51:00Z</time></trkpt><trkpt lat="39.47006808209045" lon="-0.34951801547989425"><ele>13.0</ele><time>2026-04-19T18:51:02Z</time></trkpt><trkpt lat="39.4699963309801" lon="-0.3495470329079981"><ele>13.0</ele><time>2026-04-19T18:51:04Z</time></trkpt><trkpt lat="39.469939183463474" lon="-0.3493842482135934"><ele>13.0</ele><time>2026-04-19T18:51:46.999Z</time></trkpt><trkpt lat="39.46992030099691" lon="-0.34925628867361175"><ele>13.0</ele><time>2026-04-19T18:51:47.999Z</time></trkpt><trkpt lat="39.4698785319468" lon="-0.349085475893265"><ele>13.0</ele><time>2026-04-19T18:51:48.999Z</time></trkpt><trkpt lat="39.469808373808874" lon="-0.34889481075368867"><ele>13.0</ele><time>2026-04-19T18:51:49.999Z</time></trkpt><trkpt lat="39.46976285010859" lon="-0.3487601607082441"><ele>13.0</ele><time>2026-04-19T18:51:50.999Z</time></trkpt><trkpt lat="39.4697370953223" lon="-0.34863178369672115"><ele>13.0</ele><time>2026-04-19T18:51:51.999Z</time></trkpt><trkpt lat="39.46968697230089" lon="-0.34848537343514663"><ele>13.0</ele><time>2026-04-19T18:51:52.999Z</time></trkpt><trkpt lat="39.46965813861579" lon="-0.348378181254429"><ele>13.0</ele><time>2026-04-19T18:51:53.999Z</time></trkpt><trkpt lat="39.46962241636203" lon="-0.34826113865076946"><ele>13.600000000000001</ele><time>2026-04-19T18:51:54.999Z</time></trkpt><trkpt lat="39.46957960034233" lon="-0.34811968115365205"><ele>14.200000000000001</ele><time>2026-04-19T18:51:55.999Z</time></trkpt><trkpt lat="39.46954399572461" lon="-0.34799448740178607"><ele>14.8</ele><time>2026-04-19T18:51:56.999Z</time></trkpt><trkpt lat="39.46950104362421" lon="-0.3478652541493414"><ele>15.4</ele><time>2026-04-19T18:51:57.999Z</time></trkpt><trkpt lat="39.46946259296144" lon="-0.34773534159624536"><ele>16.0</ele><time>2026-04-19T18:51:58.999Z</time></trkpt><trkpt lat="39.46942209458861" lon="-0.34760401729934126"><ele>16.2</ele><time>2026-04-19T18:51:59.999Z</time></trkpt><trkpt lat="39.46938061332726" lon="-0.3474854826810151"><ele>16.400000000000002</ele><time>2026-04-19T18:52:00.999Z</time></trkpt><trkpt lat="39.469350409200494" lon="-0.3473649272876501"><ele>16.6</ele><time>2026-04-19T18:52:01.999Z</time></trkpt><trkpt lat="39.46932089980331" lon="-0.3472602773547598"><ele>16.8</ele><time>2026-04-19T18:52:02.999Z</time></trkpt><trkpt lat="39.46928396963068" lon="-0.34714369270267026"><ele>17.0</ele><time>2026-04-19T18:52:03.999Z</time></trkpt><trkpt lat="39.469248803353" lon="-0.3470162459004968"><ele>16.6</ele><time>2026-04-19T18:52:04.999Z</time></trkpt><trkpt lat="39.46921631260612" lon="-0.3468904672095522"><ele>16.2</ele><time>2026-04-19T18:52:05.999Z</time></trkpt><trkpt lat="39.469201286081656" lon="-0.34675795882180516"><ele>15.8</ele><time>2026-04-19T18:52:06.999Z</time></trkpt><trkpt lat="39.46916797910924" lon="-0.3466266739145255"><ele>15.4</ele><time>2026-04-19T18:52:07.999Z</time></trkpt><trkpt lat="39.469124086589815" lon="-0.3465003489256112"><ele>15.0</ele><time>2026-04-19T18:52:08.999Z</time></trkpt><trkpt lat="39.46908069211017" lon="-0.34636193007945415"><ele>14.4</ele><time>2026-04-19T18:52:09.999Z</time></trkpt><trkpt lat="39.46903825578137" lon="-0.34621973427707875"><ele>13.8</ele><time>2026-04-19T18:52:10.999Z</time></trkpt><trkpt lat="39.46900549040682" lon="-0.34609493710389116"><ele>13.2</ele><time>2026-04-19T18:52:11.999Z</time></trkpt><trkpt lat="39.46897180230925" lon="-0.34599171838414805"><ele>12.6</ele><time>2026-04-19T18:52:12.999Z</time></trkpt><trkpt lat="39.46894100853075" lon="-0.3458947408598261"><ele>12.0</ele><time>2026-04-19T18:52:13.999Z</time></trkpt><trkpt lat="39.4689206130832" lon="-0.3458113558071098"><ele>12.0</ele><time>2026-04-19T18:52:14.999Z</time></trkpt><trkpt lat="39.46888775460689" lon="-0.34573329184592644"><ele>12.0</ele><time>2026-04-19T18:52:16.999Z</time></trkpt><trkpt lat="39.46874721078972" lon="-0.3457416248002028"><ele>12.0</ele><time>2026-04-19T18:52:20.999Z</time></trkpt><trkpt lat="39.46865770128002" lon="-0.34579114896077645"><ele>12.0</ele><time>2026-04-19T18:52:21.999Z</time></trkpt><trkpt lat="39.46855987985352" lon="-0.34583961904515337"><ele>12.0</ele><time>2026-04-19T18:52:22.999Z</time></trkpt><trkpt lat="39.4684481439045" lon="-0.3458959236145829"><ele>11.6</ele><time>2026-04-19T18:52:23.999Z</time></trkpt><trkpt lat="39.46832843093051" lon="-0.3459571637886905"><ele>11.2</ele><time>2026-04-19T18:52:24.999Z</time></trkpt><trkpt lat="39.46823329136877" lon="-0.3460116106025839"><ele>10.8</ele><time>2026-04-19T18:52:25.999Z</time></trkpt><trkpt lat="39.468142089241894" lon="-0.34606074185010377"><ele>10.4</ele><time>2026-04-19T18:52:26.999Z</time></trkpt><trkpt lat="39.4680762277407" lon="-0.3461146321464818"><ele>10.0</ele><time>2026-04-19T18:52:27.999Z</time></trkpt><trkpt lat="39.467970788101105" lon="-0.34616135141534216"><ele>10.2</ele><time>2026-04-19T18:52:28.999Z</time></trkpt><trkpt lat="39.46783209536023" lon="-0.3462121844157926"><ele>10.4</ele><time>2026-04-19T18:52:29.999Z</time></trkpt><trkpt lat="39.467742479263" lon="-0.3462794851259233"><ele>10.600000000000001</ele><time>2026-04-19T18:52:30.999Z</time></trkpt><trkpt lat="39.46765974227194" lon="-0.3463230542447745"><ele>10.8</ele><time>2026-04-19T18:52:31.999Z</time></trkpt><trkpt lat="39.46756421037019" lon="-0.3463707733321549"><ele>11.0</ele><time>2026-04-19T18:52:33.999Z</time></trkpt><trkpt lat="39.467441927690906" lon="-0.34640640627587954"><ele>10.666666666666666</ele><time>2026-04-19T18:52:35.999Z</time></trkpt><trkpt lat="39.467372616853766" lon="-0.3464606453906471"><ele>10.333333333333332</ele><time>2026-04-19T18:52:36.999Z</time></trkpt><trkpt lat="39.46731394540195" lon="-0.34650909528470974"><ele>10.0</ele><time>2026-04-19T18:52:38.999Z</time></trkpt><trkpt lat="39.467220115323535" lon="-0.3465331967738502"><ele>9.666666666666666</ele><time>2026-04-19T18:52:42.998Z</time></trkpt><trkpt lat="39.46713619606666" lon="-0.34656688358137344"><ele>9.333333333333334</ele><time>2026-04-19T18:52:44.998Z</time></trkpt><trkpt lat="39.46706913175131" lon="-0.34659968039407546"><ele>9.0</ele><time>2026-04-19T18:52:45.998Z</time></trkpt><trkpt lat="39.46698472124844" lon="-0.3466392765125366"><ele>9.0</ele><time>2026-04-19T18:52:46.998Z</time></trkpt><trkpt lat="39.46690985300781" lon="-0.346698022782355"><ele>9.0</ele><time>2026-04-19T18:52:47.998Z</time></trkpt><trkpt lat="39.46681741034592" lon="-0.34672232123828167"><ele>9.0</ele><time>2026-04-19T18:52:48.998Z</time></trkpt><trkpt lat="39.46674709697041" lon="-0.3467381754529896"><ele>9.0</ele><time>2026-04-19T18:52:49.998Z</time></trkpt><trkpt lat="39.46664490418321" lon="-0.34679851111430793"><ele>9.0</ele><time>2026-04-19T18:52:51.998Z</time></trkpt><trkpt lat="39.46657158028562" lon="-0.34682678265365263"><ele>9.0</ele><time>2026-04-19T18:52:53.998Z</time></trkpt><trkpt lat="39.466530517526316" lon="-0.34690138084106353"><ele>9.0</ele><time>2026-04-19T18:52:56.998Z</time></trkpt><trkpt lat="39.46651210728085" lon="-0.3470367051277411"><ele>9.0</ele><time>2026-04-19T18:53:02Z</time></trkpt><trkpt lat="39.46653866522696" lon="-0.3471183942634931"><ele>9.0</ele><time>2026-04-19T18:53:07Z</time></trkpt><trkpt lat="39.466556154730824" lon="-0.3472028419415897"><ele>9.0</ele><time>2026-04-19T18:53:15Z</time></trkpt><trkpt lat="39.466584950895836" lon="-0.3473050155332723"><ele>9.0</ele><time>2026-04-19T18:53:23Z</time></trkpt><trkpt lat="39.466611212005745" lon="-0.347390302922082"><ele>9.0</ele><time>2026-04-19T18:53:27Z</time></trkpt><trkpt lat="39.46659548650568" lon="-0.34729455159076433"><ele>9.5</ele><time>2026-04-19T18:53:47.999Z</time></trkpt><trkpt lat="39.466978168030856" lon="-0.3472834868367788"><ele>10.0</ele><time>2026-04-19T18:54:00.83Z</time></trkpt><trkpt lat="39.46699046533505" lon="-0.3475329000506061"><ele>10.0</ele><time>2026-04-19T18:54:09.999Z</time></trkpt><trkpt lat="39.46704705950901" lon="-0.3474960348328823"><ele>10.0</ele><time>2026-04-19T18:54:11.999Z</time></trkpt><trkpt lat="39.46711784509557" lon="-0.3474385053182082"><ele>10.0</ele><time>2026-04-19T18:54:13.999Z</time></trkpt><trkpt lat="39.46710081309047" lon="-0.34735486842724245"><ele>10.0</ele><time>2026-04-19T18:54:17.999Z</time></trkpt><trkpt lat="39.46705345533755" lon="-0.3472888190302506"><ele>10.0</ele><time>2026-04-19T18:54:26.999Z</time></trkpt><trkpt lat="39.46698715448346" lon="-0.34722344018551266"><ele>10.0</ele><time>2026-04-19T18:54:28.999Z</time></trkpt><trkpt lat="39.46700049795463" lon="-0.34693808955500044"><ele>9.8</ele><time>2026-04-19T18:54:31.999Z</time></trkpt><trkpt lat="39.46703467536559" lon="-0.3470286180587829"><ele>9.6</ele><time>2026-04-19T18:54:33.999Z</time></trkpt><trkpt lat="39.466935731507505" lon="-0.34705965779754056"><ele>9.4</ele><time>2026-04-19T18:56:20.999Z</time></trkpt><trkpt lat="39.46696708375946" lon="-0.3471450188260019"><ele>9.2</ele><time>2026-04-19T18:56:49.998Z</time></trkpt><trkpt lat="39.46688409168217" lon="-0.3470173949715959"><ele>9.0</ele><time>2026-04-19T18:59:48Z</time></trkpt><trkpt lat="39.46698737707926" lon="-0.34711838923322286"><ele>9.0</ele><time>2026-04-19T18:59:51Z</time></trkpt><trkpt lat="39.46706808175842" lon="-0.34684332087668296"><ele>9.0</ele><time>2026-04-19T19:02:56.999Z</time></trkpt><trkpt lat="39.466995075381966" lon="-0.3469606675210846"><ele>9.0</ele><time>2026-04-19T19:02:58.999Z</time></trkpt><trkpt lat="39.46693930013136" lon="-0.34707644507319935"><ele>9.0</ele><time>2026-04-19T19:03:11.998Z</time></trkpt><trkpt lat="39.46701150391218" lon="-0.34708723425897503"><ele>9.0</ele><time>2026-04-19T19:03:40Z</time></trkpt><trkpt lat="39.46694407150115" lon="-0.3471258748325958"><ele>9.0</ele><time>2026-04-19T19:03:45Z</time></trkpt><trkpt lat="39.46694323331085" lon="-0.34722805023225695"><ele>9.0</ele><time>2026-04-19T19:03:49Z</time></trkpt><trkpt lat="39.467000669424976" lon="-0.3472911559511123"><ele>9.0</ele><time>2026-04-19T19:03:55Z</time></trkpt><trkpt lat="39.467016845399556" lon="-0.3474129871148301"><ele>9.0</ele><time>2026-04-19T19:03:56Z</time></trkpt><trkpt lat="39.46686840800896" lon="-0.3473550105590593"><ele>9.2</ele><time>2026-04-19T19:04:42.023Z</time></trkpt><trkpt lat="39.466684984739416" lon="-0.34745983272744757"><ele>9.4</ele><time>2026-04-19T19:04:45.999Z</time></trkpt><trkpt lat="39.46663016612622" lon="-0.3475333537485852"><ele>9.6</ele><time>2026-04-19T19:04:49.999Z</time></trkpt><trkpt lat="39.46662882014466" lon="-0.34761630366498447"><ele>9.8</ele><time>2026-04-19T19:04:54.999Z</time></trkpt><trkpt lat="39.46663824792957" lon="-0.34770280906160433"><ele>10.0</ele><time>2026-04-19T19:04:59.999Z</time></trkpt><trkpt lat="39.46663437175622" lon="-0.3478047879214341"><ele>10.0</ele><time>2026-04-19T19:05:05.999Z</time></trkpt><trkpt lat="39.46667544179054" lon="-0.3478809771778909"><ele>10.0</ele><time>2026-04-19T19:05:13.998Z</time></trkpt><trkpt lat="39.46673746760836" lon="-0.34790993319654256"><ele>10.0</ele><time>2026-04-19T19:05:17.998Z</time></trkpt><trkpt lat="39.46679676634027" lon="-0.34795238136897555"><ele>10.0</ele><time>2026-04-19T19:05:23.998Z</time></trkpt><trkpt lat="39.466856245764625" lon="-0.34798984625507223"><ele>10.0</ele><time>2026-04-19T19:05:29.998Z</time></trkpt><trkpt lat="39.4669780762929" lon="-0.34802229430252507"><ele>10.0</ele><time>2026-04-19T19:05:49Z</time></trkpt><trkpt lat="39.467039095771476" lon="-0.34799826371339077"><ele>10.5</ele><time>2026-04-19T19:05:53Z</time></trkpt><trkpt lat="39.46711388001365" lon="-0.3479657634477694"><ele>11.0</ele><time>2026-04-19T19:05:59Z</time></trkpt><trkpt lat="39.46735664092418" lon="-0.34793756746643734"><ele>11.5</ele><time>2026-04-19T19:06:20.999Z</time></trkpt><trkpt lat="39.467344417255234" lon="-0.348020027228002"><ele>12.0</ele><time>2026-04-19T19:06:29.999Z</time></trkpt><trkpt lat="39.4673811671838" lon="-0.34814003497835416"><ele>12.142857142857142</ele><time>2026-04-19T19:06:32.999Z</time></trkpt><trkpt lat="39.467406966201395" lon="-0.34822742459419875"><ele>12.285714285714285</ele><time>2026-04-19T19:06:39.999Z</time></trkpt><trkpt lat="39.46742348023135" lon="-0.3483166201225675"><ele>12.428571428571427</ele><time>2026-04-19T19:06:45.999Z</time></trkpt><trkpt lat="39.46743857242029" lon="-0.34839813604493347"><ele>12.571428571428571</ele><time>2026-04-19T19:06:51.999Z</time></trkpt><trkpt lat="39.467455483139496" lon="-0.34848947418565196"><ele>12.714285714285715</ele><time>2026-04-19T19:06:57.999Z</time></trkpt><trkpt lat="39.46747028546564" lon="-0.34856942448542433"><ele>12.857142857142856</ele><time>2026-04-19T19:07:05.999Z</time></trkpt><trkpt lat="39.4674174446985" lon="-0.34861698209302394"><ele>13.0</ele><time>2026-04-19T19:07:14.998Z</time></trkpt><trkpt lat="39.46734261410597" lon="-0.34866823247853984"><ele>12.999999999999998</ele><time>2026-04-19T19:07:18.998Z</time></trkpt><trkpt lat="39.467267189705105" lon="-0.3486949753810409"><ele>13.0</ele><time>2026-04-19T19:07:21.998Z</time></trkpt><trkpt lat="39.46721956922776" lon="-0.3487927402157142"><ele>13.0</ele><time>2026-04-19T19:07:59Z</time></trkpt><trkpt lat="39.46715662489393" lon="-0.34870612226419506"><ele>13.0</ele><time>2026-04-19T19:08:01Z</time></trkpt><trkpt lat="39.467079452657245" lon="-0.3487686505338838"><ele>12.999999999999998</ele><time>2026-04-19T19:08:16Z</time></trkpt><trkpt lat="39.46712879767385" lon="-0.34867840563529673"><ele>13.0</ele><time>2026-04-19T19:08:47.999Z</time></trkpt><trkpt lat="39.46740961873574" lon="-0.3487214011185744"><ele>13.0</ele><time>2026-04-19T19:08:57.999Z</time></trkpt><trkpt lat="39.46712499770836" lon="-0.3488612386837373"><ele>13.0</ele><time>2026-04-19T19:08:58.999Z</time></trkpt><trkpt lat="39.467117905686656" lon="-0.3487238550728178"><ele>13.0</ele><time>2026-04-19T19:09:38.998Z</time></trkpt><trkpt lat="39.467290823547025" lon="-0.3486264170818255"><ele>13.0</ele><time>2026-04-19T19:09:41.998Z</time></trkpt><trkpt lat="39.4673683095501" lon="-0.3485966077084494"><ele>13.0</ele><time>2026-04-19T19:09:46Z</time></trkpt><trkpt lat="39.46737478429029" lon="-0.3487516532902109"><ele>13.0</ele><time>2026-04-19T19:09:47Z</time></trkpt><trkpt lat="39.46717392195484" lon="-0.3487974895194104"><ele>13.0</ele><time>2026-04-19T19:09:49Z</time></trkpt><trkpt lat="39.467441314869816" lon="-0.3487516774059234"><ele>13.0</ele><time>2026-04-19T19:09:58Z</time></trkpt><trkpt lat="39.467206407630385" lon="-0.3487630662220038"><ele>13.0</ele><time>2026-04-19T19:10:00Z</time></trkpt><trkpt lat="39.46713394535434" lon="-0.3487530404142857"><ele>13.0</ele><time>2026-04-19T19:10:02Z</time></trkpt><trkpt lat="39.46725956633654" lon="-0.34901180304619395"><ele>12.0</ele><time>2026-04-19T19:10:07Z</time></trkpt></trkseg></trk></gpx>